<?xml version="1.0" encoding="UTF-8" standalone="no" ?>
<gpx xmlns="http://www.topografix.com/GPX/1/1" xmlns:xsi="http://www.w3.org/2001/XMLSchema-instance" xsi:schemaLocation="http://www.topografix.com/GPX/1/1 http://www.topografix.com/GPX/1/1/gpx.xsd" version="1.1" creator="VisuGPX - https://www.visugpx.com">
  <metadata>
    <name>aaaaaaaaaaaaaaaaaaaaaaaaaaaaaaaaaaaaaaaaaaaaa</name>
    <desc><![CDATA[aaaaaaaaaaaaaaaaaaaaaaaaaaaaaaaaaaaaaaaaaaaaaaaaaaaaaaaaaaaaaaaaaaa]]></desc>
  </metadata>
  <trk>
    <name><![CDATA[Strava-1576051897 by Strava to GPX]]></name>
    <trkseg>
      <trkpt lat="44.47142" lon="0.72869">
        <ele>105.4</ele>
        <time>2018-05-16T22:25:53Z</time>
      </trkpt>
      <trkpt lat="44.47152" lon="0.72871">
        <ele>106</ele>
        <time>2018-05-16T22:25:54Z</time>
      </trkpt>
      <trkpt lat="44.47151" lon="0.72875">
        <ele>105.7</ele>
        <time>2018-05-16T22:25:57Z</time>
      </trkpt>
      <trkpt lat="44.4715" lon="0.72878">
        <ele>105.7</ele>
        <time>2018-05-16T22:25:58Z</time>
      </trkpt>
      <trkpt lat="44.47145" lon="0.72878">
        <ele>105.4</ele>
        <time>2018-05-16T22:26:00Z</time>
      </trkpt>
      <trkpt lat="44.47142" lon="0.72879">
        <ele>105.2</ele>
        <time>2018-05-16T22:26:02Z</time>
      </trkpt>
      <trkpt lat="44.4715" lon="0.72874">
        <ele>105.8</ele>
        <time>2018-05-16T22:26:37Z</time>
      </trkpt>
      <trkpt lat="44.47153" lon="0.72872">
        <ele>106</ele>
        <time>2018-05-16T22:26:39Z</time>
      </trkpt>
      <trkpt lat="44.47154" lon="0.72869">
        <ele>106.1</ele>
        <time>2018-05-16T22:26:40Z</time>
      </trkpt>
      <trkpt lat="44.47157" lon="0.72865">
        <ele>106.2</ele>
        <time>2018-05-16T22:26:42Z</time>
      </trkpt>
      <trkpt lat="44.47159" lon="0.72862">
        <ele>106.3</ele>
        <time>2018-05-16T22:26:43Z</time>
      </trkpt>
      <trkpt lat="44.47162" lon="0.72861">
        <ele>106.4</ele>
        <time>2018-05-16T22:26:44Z</time>
      </trkpt>
      <trkpt lat="44.47165" lon="0.72861">
        <ele>106.4</ele>
        <time>2018-05-16T22:26:46Z</time>
      </trkpt>
      <trkpt lat="44.47169" lon="0.72865">
        <ele>106.5</ele>
        <time>2018-05-16T22:26:48Z</time>
      </trkpt>
      <trkpt lat="44.47171" lon="0.72868">
        <ele>106.6</ele>
        <time>2018-05-16T22:26:49Z</time>
      </trkpt>
      <trkpt lat="44.47174" lon="0.72871">
        <ele>106.5</ele>
        <time>2018-05-16T22:26:50Z</time>
      </trkpt>
      <trkpt lat="44.47176" lon="0.72874">
        <ele>106.5</ele>
        <time>2018-05-16T22:26:51Z</time>
      </trkpt>
      <trkpt lat="44.47179" lon="0.72877">
        <ele>106.5</ele>
        <time>2018-05-16T22:26:52Z</time>
      </trkpt>
      <trkpt lat="44.47181" lon="0.7288">
        <ele>106.5</ele>
        <time>2018-05-16T22:26:53Z</time>
      </trkpt>
      <trkpt lat="44.47184" lon="0.72883">
        <ele>106.6</ele>
        <time>2018-05-16T22:26:54Z</time>
      </trkpt>
      <trkpt lat="44.47187" lon="0.72886">
        <ele>106.6</ele>
        <time>2018-05-16T22:26:55Z</time>
      </trkpt>
      <trkpt lat="44.47189" lon="0.72889">
        <ele>106.7</ele>
        <time>2018-05-16T22:26:56Z</time>
      </trkpt>
      <trkpt lat="44.47192" lon="0.72892">
        <ele>106.8</ele>
        <time>2018-05-16T22:26:57Z</time>
      </trkpt>
      <trkpt lat="44.47195" lon="0.72895">
        <ele>106.8</ele>
        <time>2018-05-16T22:26:58Z</time>
      </trkpt>
      <trkpt lat="44.47198" lon="0.72899">
        <ele>106.9</ele>
        <time>2018-05-16T22:26:59Z</time>
      </trkpt>
      <trkpt lat="44.47201" lon="0.72903">
        <ele>107</ele>
        <time>2018-05-16T22:27:00Z</time>
      </trkpt>
      <trkpt lat="44.47204" lon="0.72907">
        <ele>107</ele>
        <time>2018-05-16T22:27:01Z</time>
      </trkpt>
      <trkpt lat="44.47208" lon="0.72911">
        <ele>107</ele>
        <time>2018-05-16T22:27:02Z</time>
      </trkpt>
      <trkpt lat="44.47212" lon="0.72916">
        <ele>106.9</ele>
        <time>2018-05-16T22:27:03Z</time>
      </trkpt>
      <trkpt lat="44.47216" lon="0.72921">
        <ele>106.7</ele>
        <time>2018-05-16T22:27:04Z</time>
      </trkpt>
      <trkpt lat="44.47221" lon="0.72927">
        <ele>106.6</ele>
        <time>2018-05-16T22:27:05Z</time>
      </trkpt>
      <trkpt lat="44.47226" lon="0.72935">
        <ele>106.4</ele>
        <time>2018-05-16T22:27:06Z</time>
      </trkpt>
      <trkpt lat="44.47231" lon="0.72942">
        <ele>106.2</ele>
        <time>2018-05-16T22:27:07Z</time>
      </trkpt>
      <trkpt lat="44.47236" lon="0.72949">
        <ele>106</ele>
        <time>2018-05-16T22:27:08Z</time>
      </trkpt>
      <trkpt lat="44.47241" lon="0.72957">
        <ele>105.8</ele>
        <time>2018-05-16T22:27:09Z</time>
      </trkpt>
      <trkpt lat="44.47247" lon="0.72965">
        <ele>105.5</ele>
        <time>2018-05-16T22:27:10Z</time>
      </trkpt>
      <trkpt lat="44.47252" lon="0.72973">
        <ele>105.2</ele>
        <time>2018-05-16T22:27:11Z</time>
      </trkpt>
      <trkpt lat="44.47258" lon="0.72982">
        <ele>104.9</ele>
        <time>2018-05-16T22:27:12Z</time>
      </trkpt>
      <trkpt lat="44.47263" lon="0.7299">
        <ele>104.6</ele>
        <time>2018-05-16T22:27:13Z</time>
      </trkpt>
      <trkpt lat="44.47269" lon="0.72998">
        <ele>104.5</ele>
        <time>2018-05-16T22:27:14Z</time>
      </trkpt>
      <trkpt lat="44.47274" lon="0.73006">
        <ele>104.1</ele>
        <time>2018-05-16T22:27:15Z</time>
      </trkpt>
      <trkpt lat="44.47278" lon="0.73015">
        <ele>103.8</ele>
        <time>2018-05-16T22:27:16Z</time>
      </trkpt>
      <trkpt lat="44.47283" lon="0.73024">
        <ele>103.4</ele>
        <time>2018-05-16T22:27:17Z</time>
      </trkpt>
      <trkpt lat="44.47288" lon="0.73033">
        <ele>103.1</ele>
        <time>2018-05-16T22:27:18Z</time>
      </trkpt>
      <trkpt lat="44.47294" lon="0.73041">
        <ele>103.2</ele>
        <time>2018-05-16T22:27:19Z</time>
      </trkpt>
      <trkpt lat="44.47301" lon="0.73048">
        <ele>103.2</ele>
        <time>2018-05-16T22:27:20Z</time>
      </trkpt>
      <trkpt lat="44.47307" lon="0.73056">
        <ele>103.2</ele>
        <time>2018-05-16T22:27:21Z</time>
      </trkpt>
      <trkpt lat="44.47312" lon="0.73065">
        <ele>103.2</ele>
        <time>2018-05-16T22:27:22Z</time>
      </trkpt>
      <trkpt lat="44.47316" lon="0.73073">
        <ele>103.1</ele>
        <time>2018-05-16T22:27:23Z</time>
      </trkpt>
      <trkpt lat="44.4732" lon="0.73081">
        <ele>103.1</ele>
        <time>2018-05-16T22:27:24Z</time>
      </trkpt>
      <trkpt lat="44.47325" lon="0.73088">
        <ele>103.1</ele>
        <time>2018-05-16T22:27:25Z</time>
      </trkpt>
      <trkpt lat="44.47329" lon="0.73094">
        <ele>103</ele>
        <time>2018-05-16T22:27:26Z</time>
      </trkpt>
      <trkpt lat="44.47333" lon="0.73098">
        <ele>103</ele>
        <time>2018-05-16T22:27:27Z</time>
      </trkpt>
      <trkpt lat="44.47337" lon="0.73102">
        <ele>103</ele>
        <time>2018-05-16T22:27:28Z</time>
      </trkpt>
      <trkpt lat="44.47341" lon="0.73106">
        <ele>103</ele>
        <time>2018-05-16T22:27:29Z</time>
      </trkpt>
      <trkpt lat="44.47344" lon="0.7311">
        <ele>103</ele>
        <time>2018-05-16T22:27:30Z</time>
      </trkpt>
      <trkpt lat="44.47347" lon="0.73114">
        <ele>103.1</ele>
        <time>2018-05-16T22:27:31Z</time>
      </trkpt>
      <trkpt lat="44.4735" lon="0.73118">
        <ele>103.1</ele>
        <time>2018-05-16T22:27:32Z</time>
      </trkpt>
      <trkpt lat="44.47354" lon="0.73122">
        <ele>103.2</ele>
        <time>2018-05-16T22:27:33Z</time>
      </trkpt>
      <trkpt lat="44.47357" lon="0.73127">
        <ele>103.2</ele>
        <time>2018-05-16T22:27:34Z</time>
      </trkpt>
      <trkpt lat="44.47361" lon="0.73131">
        <ele>103.2</ele>
        <time>2018-05-16T22:27:35Z</time>
      </trkpt>
      <trkpt lat="44.47365" lon="0.73135">
        <ele>103.2</ele>
        <time>2018-05-16T22:27:36Z</time>
      </trkpt>
      <trkpt lat="44.47368" lon="0.73139">
        <ele>103.1</ele>
        <time>2018-05-16T22:27:37Z</time>
      </trkpt>
      <trkpt lat="44.47372" lon="0.73143">
        <ele>103.1</ele>
        <time>2018-05-16T22:27:38Z</time>
      </trkpt>
      <trkpt lat="44.47375" lon="0.73147">
        <ele>103.1</ele>
        <time>2018-05-16T22:27:39Z</time>
      </trkpt>
      <trkpt lat="44.47379" lon="0.7315">
        <ele>103</ele>
        <time>2018-05-16T22:27:40Z</time>
      </trkpt>
      <trkpt lat="44.47382" lon="0.73153">
        <ele>103</ele>
        <time>2018-05-16T22:27:41Z</time>
      </trkpt>
      <trkpt lat="44.47387" lon="0.73155">
        <ele>103</ele>
        <time>2018-05-16T22:27:42Z</time>
      </trkpt>
      <trkpt lat="44.47391" lon="0.73156">
        <ele>103</ele>
        <time>2018-05-16T22:27:43Z</time>
      </trkpt>
      <trkpt lat="44.47395" lon="0.73157">
        <ele>102.8</ele>
        <time>2018-05-16T22:27:44Z</time>
      </trkpt>
      <trkpt lat="44.47399" lon="0.73158">
        <ele>102.7</ele>
        <time>2018-05-16T22:27:45Z</time>
      </trkpt>
      <trkpt lat="44.47403" lon="0.73158">
        <ele>102.5</ele>
        <time>2018-05-16T22:27:46Z</time>
      </trkpt>
      <trkpt lat="44.47408" lon="0.73158">
        <ele>102.2</ele>
        <time>2018-05-16T22:27:47Z</time>
      </trkpt>
      <trkpt lat="44.47412" lon="0.7316">
        <ele>101.9</ele>
        <time>2018-05-16T22:27:48Z</time>
      </trkpt>
      <trkpt lat="44.47417" lon="0.73161">
        <ele>101.5</ele>
        <time>2018-05-16T22:27:49Z</time>
      </trkpt>
      <trkpt lat="44.47421" lon="0.73163">
        <ele>101.2</ele>
        <time>2018-05-16T22:27:50Z</time>
      </trkpt>
      <trkpt lat="44.47426" lon="0.73165">
        <ele>100.8</ele>
        <time>2018-05-16T22:27:51Z</time>
      </trkpt>
      <trkpt lat="44.47431" lon="0.73167">
        <ele>100.5</ele>
        <time>2018-05-16T22:27:52Z</time>
      </trkpt>
      <trkpt lat="44.47437" lon="0.7317">
        <ele>100.1</ele>
        <time>2018-05-16T22:27:53Z</time>
      </trkpt>
      <trkpt lat="44.47443" lon="0.73173">
        <ele>99.8</ele>
        <time>2018-05-16T22:27:54Z</time>
      </trkpt>
      <trkpt lat="44.47449" lon="0.73175">
        <ele>99.5</ele>
        <time>2018-05-16T22:27:55Z</time>
      </trkpt>
      <trkpt lat="44.47455" lon="0.73178">
        <ele>99.2</ele>
        <time>2018-05-16T22:27:56Z</time>
      </trkpt>
      <trkpt lat="44.47462" lon="0.73181">
        <ele>98.8</ele>
        <time>2018-05-16T22:27:57Z</time>
      </trkpt>
      <trkpt lat="44.47469" lon="0.73184">
        <ele>98.5</ele>
        <time>2018-05-16T22:27:58Z</time>
      </trkpt>
      <trkpt lat="44.47476" lon="0.73188">
        <ele>98.3</ele>
        <time>2018-05-16T22:27:59Z</time>
      </trkpt>
      <trkpt lat="44.47484" lon="0.73191">
        <ele>98.3</ele>
        <time>2018-05-16T22:28:00Z</time>
      </trkpt>
      <trkpt lat="44.47491" lon="0.73194">
        <ele>98.4</ele>
        <time>2018-05-16T22:28:01Z</time>
      </trkpt>
      <trkpt lat="44.47499" lon="0.73198">
        <ele>98.4</ele>
        <time>2018-05-16T22:28:02Z</time>
      </trkpt>
      <trkpt lat="44.47507" lon="0.73201">
        <ele>98.8</ele>
        <time>2018-05-16T22:28:03Z</time>
      </trkpt>
      <trkpt lat="44.47516" lon="0.73203">
        <ele>99.3</ele>
        <time>2018-05-16T22:28:04Z</time>
      </trkpt>
      <trkpt lat="44.47525" lon="0.73204">
        <ele>100</ele>
        <time>2018-05-16T22:28:05Z</time>
      </trkpt>
      <trkpt lat="44.47534" lon="0.73204">
        <ele>100.7</ele>
        <time>2018-05-16T22:28:06Z</time>
      </trkpt>
      <trkpt lat="44.47544" lon="0.73203">
        <ele>101.5</ele>
        <time>2018-05-16T22:28:07Z</time>
      </trkpt>
      <trkpt lat="44.47553" lon="0.73202">
        <ele>102.2</ele>
        <time>2018-05-16T22:28:08Z</time>
      </trkpt>
      <trkpt lat="44.47562" lon="0.73201">
        <ele>103</ele>
        <time>2018-05-16T22:28:09Z</time>
      </trkpt>
      <trkpt lat="44.47572" lon="0.732">
        <ele>103.7</ele>
        <time>2018-05-16T22:28:10Z</time>
      </trkpt>
      <trkpt lat="44.47581" lon="0.73198">
        <ele>104.5</ele>
        <time>2018-05-16T22:28:11Z</time>
      </trkpt>
      <trkpt lat="44.47589" lon="0.73197">
        <ele>105.2</ele>
        <time>2018-05-16T22:28:12Z</time>
      </trkpt>
      <trkpt lat="44.47597" lon="0.73196">
        <ele>105.8</ele>
        <time>2018-05-16T22:28:13Z</time>
      </trkpt>
      <trkpt lat="44.47604" lon="0.73195">
        <ele>106.5</ele>
        <time>2018-05-16T22:28:14Z</time>
      </trkpt>
      <trkpt lat="44.4761" lon="0.73194">
        <ele>107.1</ele>
        <time>2018-05-16T22:28:15Z</time>
      </trkpt>
      <trkpt lat="44.47616" lon="0.73194">
        <ele>107.7</ele>
        <time>2018-05-16T22:28:16Z</time>
      </trkpt>
      <trkpt lat="44.47621" lon="0.73193">
        <ele>108.2</ele>
        <time>2018-05-16T22:28:17Z</time>
      </trkpt>
      <trkpt lat="44.47626" lon="0.73192">
        <ele>108.7</ele>
        <time>2018-05-16T22:28:18Z</time>
      </trkpt>
      <trkpt lat="44.47631" lon="0.73192">
        <ele>109.2</ele>
        <time>2018-05-16T22:28:19Z</time>
      </trkpt>
      <trkpt lat="44.47636" lon="0.73191">
        <ele>109.6</ele>
        <time>2018-05-16T22:28:20Z</time>
      </trkpt>
      <trkpt lat="44.4764" lon="0.73191">
        <ele>110</ele>
        <time>2018-05-16T22:28:21Z</time>
      </trkpt>
      <trkpt lat="44.47644" lon="0.7319">
        <ele>110.4</ele>
        <time>2018-05-16T22:28:22Z</time>
      </trkpt>
      <trkpt lat="44.47648" lon="0.7319">
        <ele>110.7</ele>
        <time>2018-05-16T22:28:23Z</time>
      </trkpt>
      <trkpt lat="44.47652" lon="0.7319">
        <ele>111.1</ele>
        <time>2018-05-16T22:28:24Z</time>
      </trkpt>
      <trkpt lat="44.47655" lon="0.73189">
        <ele>111.4</ele>
        <time>2018-05-16T22:28:25Z</time>
      </trkpt>
      <trkpt lat="44.47659" lon="0.73189">
        <ele>111.7</ele>
        <time>2018-05-16T22:28:26Z</time>
      </trkpt>
      <trkpt lat="44.47662" lon="0.73188">
        <ele>111.9</ele>
        <time>2018-05-16T22:28:27Z</time>
      </trkpt>
      <trkpt lat="44.47665" lon="0.73188">
        <ele>112.2</ele>
        <time>2018-05-16T22:28:28Z</time>
      </trkpt>
      <trkpt lat="44.47668" lon="0.73188">
        <ele>112.5</ele>
        <time>2018-05-16T22:28:29Z</time>
      </trkpt>
      <trkpt lat="44.47672" lon="0.73188">
        <ele>112.7</ele>
        <time>2018-05-16T22:28:30Z</time>
      </trkpt>
      <trkpt lat="44.47675" lon="0.73187">
        <ele>113</ele>
        <time>2018-05-16T22:28:31Z</time>
      </trkpt>
      <trkpt lat="44.47678" lon="0.73187">
        <ele>113.2</ele>
        <time>2018-05-16T22:28:32Z</time>
      </trkpt>
      <trkpt lat="44.47681" lon="0.73186">
        <ele>113.5</ele>
        <time>2018-05-16T22:28:33Z</time>
      </trkpt>
      <trkpt lat="44.47684" lon="0.73187">
        <ele>113.7</ele>
        <time>2018-05-16T22:28:34Z</time>
      </trkpt>
      <trkpt lat="44.47686" lon="0.73188">
        <ele>113.9</ele>
        <time>2018-05-16T22:28:35Z</time>
      </trkpt>
      <trkpt lat="44.47689" lon="0.73189">
        <ele>114.1</ele>
        <time>2018-05-16T22:28:36Z</time>
      </trkpt>
      <trkpt lat="44.47692" lon="0.73189">
        <ele>114.4</ele>
        <time>2018-05-16T22:28:37Z</time>
      </trkpt>
      <trkpt lat="44.47695" lon="0.73188">
        <ele>114.6</ele>
        <time>2018-05-16T22:28:38Z</time>
      </trkpt>
      <trkpt lat="44.477" lon="0.73187">
        <ele>114.9</ele>
        <time>2018-05-16T22:28:40Z</time>
      </trkpt>
      <trkpt lat="44.47705" lon="0.73187">
        <ele>115.3</ele>
        <time>2018-05-16T22:28:42Z</time>
      </trkpt>
      <trkpt lat="44.47708" lon="0.73187">
        <ele>115.6</ele>
        <time>2018-05-16T22:28:43Z</time>
      </trkpt>
      <trkpt lat="44.47714" lon="0.73186">
        <ele>115.9</ele>
        <time>2018-05-16T22:28:45Z</time>
      </trkpt>
      <trkpt lat="44.47718" lon="0.73186">
        <ele>116.3</ele>
        <time>2018-05-16T22:28:47Z</time>
      </trkpt>
      <trkpt lat="44.47723" lon="0.73186">
        <ele>116.6</ele>
        <time>2018-05-16T22:28:49Z</time>
      </trkpt>
      <trkpt lat="44.47728" lon="0.73186">
        <ele>116.9</ele>
        <time>2018-05-16T22:28:51Z</time>
      </trkpt>
      <trkpt lat="44.47733" lon="0.73186">
        <ele>117.3</ele>
        <time>2018-05-16T22:28:53Z</time>
      </trkpt>
      <trkpt lat="44.47738" lon="0.73185">
        <ele>117.6</ele>
        <time>2018-05-16T22:28:55Z</time>
      </trkpt>
      <trkpt lat="44.47743" lon="0.73185">
        <ele>117.9</ele>
        <time>2018-05-16T22:28:57Z</time>
      </trkpt>
      <trkpt lat="44.47748" lon="0.73184">
        <ele>118.2</ele>
        <time>2018-05-16T22:28:59Z</time>
      </trkpt>
      <trkpt lat="44.47753" lon="0.73184">
        <ele>118.6</ele>
        <time>2018-05-16T22:29:01Z</time>
      </trkpt>
      <trkpt lat="44.47758" lon="0.73184">
        <ele>118.9</ele>
        <time>2018-05-16T22:29:03Z</time>
      </trkpt>
      <trkpt lat="44.47764" lon="0.73183">
        <ele>119.2</ele>
        <time>2018-05-16T22:29:05Z</time>
      </trkpt>
      <trkpt lat="44.47769" lon="0.73183">
        <ele>119.5</ele>
        <time>2018-05-16T22:29:07Z</time>
      </trkpt>
      <trkpt lat="44.47773" lon="0.73182">
        <ele>119.7</ele>
        <time>2018-05-16T22:29:09Z</time>
      </trkpt>
      <trkpt lat="44.47778" lon="0.73182">
        <ele>120</ele>
        <time>2018-05-16T22:29:11Z</time>
      </trkpt>
      <trkpt lat="44.47783" lon="0.73182">
        <ele>120.3</ele>
        <time>2018-05-16T22:29:13Z</time>
      </trkpt>
      <trkpt lat="44.47788" lon="0.73183">
        <ele>120.6</ele>
        <time>2018-05-16T22:29:15Z</time>
      </trkpt>
      <trkpt lat="44.47793" lon="0.73184">
        <ele>120.9</ele>
        <time>2018-05-16T22:29:17Z</time>
      </trkpt>
      <trkpt lat="44.47798" lon="0.73185">
        <ele>121.2</ele>
        <time>2018-05-16T22:29:19Z</time>
      </trkpt>
      <trkpt lat="44.47802" lon="0.73188">
        <ele>121.6</ele>
        <time>2018-05-16T22:29:21Z</time>
      </trkpt>
      <trkpt lat="44.47808" lon="0.7319">
        <ele>122</ele>
        <time>2018-05-16T22:29:23Z</time>
      </trkpt>
      <trkpt lat="44.47811" lon="0.73191">
        <ele>122.2</ele>
        <time>2018-05-16T22:29:24Z</time>
      </trkpt>
      <trkpt lat="44.47814" lon="0.73193">
        <ele>122.4</ele>
        <time>2018-05-16T22:29:25Z</time>
      </trkpt>
      <trkpt lat="44.47819" lon="0.73195">
        <ele>122.8</ele>
        <time>2018-05-16T22:29:27Z</time>
      </trkpt>
      <trkpt lat="44.47821" lon="0.73197">
        <ele>123.1</ele>
        <time>2018-05-16T22:29:28Z</time>
      </trkpt>
      <trkpt lat="44.47826" lon="0.732">
        <ele>123.5</ele>
        <time>2018-05-16T22:29:30Z</time>
      </trkpt>
      <trkpt lat="44.47829" lon="0.73202">
        <ele>123.7</ele>
        <time>2018-05-16T22:29:31Z</time>
      </trkpt>
      <trkpt lat="44.47832" lon="0.73204">
        <ele>124</ele>
        <time>2018-05-16T22:29:32Z</time>
      </trkpt>
      <trkpt lat="44.47834" lon="0.73205">
        <ele>124.3</ele>
        <time>2018-05-16T22:29:33Z</time>
      </trkpt>
      <trkpt lat="44.47837" lon="0.73207">
        <ele>124.5</ele>
        <time>2018-05-16T22:29:34Z</time>
      </trkpt>
      <trkpt lat="44.47841" lon="0.73209">
        <ele>124.9</ele>
        <time>2018-05-16T22:29:35Z</time>
      </trkpt>
      <trkpt lat="44.47844" lon="0.73211">
        <ele>125.2</ele>
        <time>2018-05-16T22:29:36Z</time>
      </trkpt>
      <trkpt lat="44.47847" lon="0.73212">
        <ele>125.5</ele>
        <time>2018-05-16T22:29:37Z</time>
      </trkpt>
      <trkpt lat="44.4785" lon="0.73214">
        <ele>125.8</ele>
        <time>2018-05-16T22:29:38Z</time>
      </trkpt>
      <trkpt lat="44.47852" lon="0.73216">
        <ele>126.1</ele>
        <time>2018-05-16T22:29:39Z</time>
      </trkpt>
      <trkpt lat="44.47855" lon="0.73218">
        <ele>126.4</ele>
        <time>2018-05-16T22:29:40Z</time>
      </trkpt>
      <trkpt lat="44.47858" lon="0.7322">
        <ele>126.8</ele>
        <time>2018-05-16T22:29:41Z</time>
      </trkpt>
      <trkpt lat="44.47861" lon="0.73222">
        <ele>127.1</ele>
        <time>2018-05-16T22:29:42Z</time>
      </trkpt>
      <trkpt lat="44.47863" lon="0.73223">
        <ele>127.4</ele>
        <time>2018-05-16T22:29:43Z</time>
      </trkpt>
      <trkpt lat="44.47866" lon="0.73225">
        <ele>127.8</ele>
        <time>2018-05-16T22:29:44Z</time>
      </trkpt>
      <trkpt lat="44.47869" lon="0.73227">
        <ele>128.1</ele>
        <time>2018-05-16T22:29:45Z</time>
      </trkpt>
      <trkpt lat="44.47872" lon="0.73228">
        <ele>128.5</ele>
        <time>2018-05-16T22:29:46Z</time>
      </trkpt>
      <trkpt lat="44.47875" lon="0.73229">
        <ele>128.9</ele>
        <time>2018-05-16T22:29:47Z</time>
      </trkpt>
      <trkpt lat="44.47877" lon="0.73231">
        <ele>129.3</ele>
        <time>2018-05-16T22:29:48Z</time>
      </trkpt>
      <trkpt lat="44.4788" lon="0.73233">
        <ele>129.7</ele>
        <time>2018-05-16T22:29:49Z</time>
      </trkpt>
      <trkpt lat="44.47883" lon="0.73234">
        <ele>130.1</ele>
        <time>2018-05-16T22:29:50Z</time>
      </trkpt>
      <trkpt lat="44.47887" lon="0.73235">
        <ele>130.8</ele>
        <time>2018-05-16T22:29:52Z</time>
      </trkpt>
      <trkpt lat="44.47892" lon="0.73237">
        <ele>131.5</ele>
        <time>2018-05-16T22:29:54Z</time>
      </trkpt>
      <trkpt lat="44.47897" lon="0.73239">
        <ele>132.4</ele>
        <time>2018-05-16T22:29:56Z</time>
      </trkpt>
      <trkpt lat="44.47901" lon="0.73241">
        <ele>133.1</ele>
        <time>2018-05-16T22:29:58Z</time>
      </trkpt>
      <trkpt lat="44.47906" lon="0.73243">
        <ele>133.9</ele>
        <time>2018-05-16T22:30:00Z</time>
      </trkpt>
      <trkpt lat="44.47909" lon="0.73244">
        <ele>134.3</ele>
        <time>2018-05-16T22:30:01Z</time>
      </trkpt>
      <trkpt lat="44.47913" lon="0.73242">
        <ele>135</ele>
        <time>2018-05-16T22:30:03Z</time>
      </trkpt>
      <trkpt lat="44.47917" lon="0.73242">
        <ele>135.5</ele>
        <time>2018-05-16T22:30:05Z</time>
      </trkpt>
      <trkpt lat="44.47921" lon="0.73242">
        <ele>136.1</ele>
        <time>2018-05-16T22:30:07Z</time>
      </trkpt>
      <trkpt lat="44.47926" lon="0.73242">
        <ele>136.7</ele>
        <time>2018-05-16T22:30:09Z</time>
      </trkpt>
      <trkpt lat="44.4793" lon="0.73244">
        <ele>137.3</ele>
        <time>2018-05-16T22:30:11Z</time>
      </trkpt>
      <trkpt lat="44.47934" lon="0.73244">
        <ele>137.8</ele>
        <time>2018-05-16T22:30:13Z</time>
      </trkpt>
      <trkpt lat="44.47937" lon="0.73244">
        <ele>138.2</ele>
        <time>2018-05-16T22:30:15Z</time>
      </trkpt>
      <trkpt lat="44.47941" lon="0.73244">
        <ele>138.6</ele>
        <time>2018-05-16T22:30:17Z</time>
      </trkpt>
      <trkpt lat="44.47945" lon="0.73245">
        <ele>139.1</ele>
        <time>2018-05-16T22:30:19Z</time>
      </trkpt>
      <trkpt lat="44.47948" lon="0.73245">
        <ele>139.6</ele>
        <time>2018-05-16T22:30:21Z</time>
      </trkpt>
      <trkpt lat="44.47953" lon="0.73246">
        <ele>140.1</ele>
        <time>2018-05-16T22:30:23Z</time>
      </trkpt>
      <trkpt lat="44.47957" lon="0.73247">
        <ele>140.5</ele>
        <time>2018-05-16T22:30:25Z</time>
      </trkpt>
      <trkpt lat="44.47962" lon="0.73247">
        <ele>141</ele>
        <time>2018-05-16T22:30:27Z</time>
      </trkpt>
      <trkpt lat="44.47966" lon="0.73248">
        <ele>141.5</ele>
        <time>2018-05-16T22:30:29Z</time>
      </trkpt>
      <trkpt lat="44.4797" lon="0.73247">
        <ele>141.9</ele>
        <time>2018-05-16T22:30:31Z</time>
      </trkpt>
      <trkpt lat="44.47975" lon="0.73248">
        <ele>142.4</ele>
        <time>2018-05-16T22:30:33Z</time>
      </trkpt>
      <trkpt lat="44.47979" lon="0.73249">
        <ele>142.8</ele>
        <time>2018-05-16T22:30:35Z</time>
      </trkpt>
      <trkpt lat="44.47982" lon="0.73252">
        <ele>143.1</ele>
        <time>2018-05-16T22:30:37Z</time>
      </trkpt>
      <trkpt lat="44.47985" lon="0.73251">
        <ele>143.4</ele>
        <time>2018-05-16T22:30:39Z</time>
      </trkpt>
      <trkpt lat="44.47989" lon="0.73251">
        <ele>143.8</ele>
        <time>2018-05-16T22:30:41Z</time>
      </trkpt>
      <trkpt lat="44.47993" lon="0.7325">
        <ele>144.2</ele>
        <time>2018-05-16T22:30:43Z</time>
      </trkpt>
      <trkpt lat="44.47997" lon="0.7325">
        <ele>144.5</ele>
        <time>2018-05-16T22:30:45Z</time>
      </trkpt>
      <trkpt lat="44.48001" lon="0.7325">
        <ele>144.8</ele>
        <time>2018-05-16T22:30:47Z</time>
      </trkpt>
      <trkpt lat="44.48005" lon="0.7325">
        <ele>145.1</ele>
        <time>2018-05-16T22:30:49Z</time>
      </trkpt>
      <trkpt lat="44.48009" lon="0.7325">
        <ele>145.5</ele>
        <time>2018-05-16T22:30:51Z</time>
      </trkpt>
      <trkpt lat="44.48013" lon="0.7325">
        <ele>145.8</ele>
        <time>2018-05-16T22:30:53Z</time>
      </trkpt>
      <trkpt lat="44.48018" lon="0.7325">
        <ele>146.2</ele>
        <time>2018-05-16T22:30:55Z</time>
      </trkpt>
      <trkpt lat="44.48022" lon="0.7325">
        <ele>146.5</ele>
        <time>2018-05-16T22:30:57Z</time>
      </trkpt>
      <trkpt lat="44.48027" lon="0.73249">
        <ele>146.8</ele>
        <time>2018-05-16T22:30:59Z</time>
      </trkpt>
      <trkpt lat="44.48031" lon="0.73248">
        <ele>147.1</ele>
        <time>2018-05-16T22:31:01Z</time>
      </trkpt>
      <trkpt lat="44.48035" lon="0.73247">
        <ele>147.3</ele>
        <time>2018-05-16T22:31:03Z</time>
      </trkpt>
      <trkpt lat="44.48039" lon="0.73245">
        <ele>147.4</ele>
        <time>2018-05-16T22:31:05Z</time>
      </trkpt>
      <trkpt lat="44.48043" lon="0.73243">
        <ele>147.5</ele>
        <time>2018-05-16T22:31:07Z</time>
      </trkpt>
      <trkpt lat="44.48047" lon="0.73241">
        <ele>147.6</ele>
        <time>2018-05-16T22:31:09Z</time>
      </trkpt>
      <trkpt lat="44.48051" lon="0.7324">
        <ele>147.7</ele>
        <time>2018-05-16T22:31:11Z</time>
      </trkpt>
      <trkpt lat="44.48056" lon="0.73236">
        <ele>147.8</ele>
        <time>2018-05-16T22:31:13Z</time>
      </trkpt>
      <trkpt lat="44.4806" lon="0.73233">
        <ele>147.9</ele>
        <time>2018-05-16T22:31:15Z</time>
      </trkpt>
      <trkpt lat="44.48065" lon="0.7323">
        <ele>148</ele>
        <time>2018-05-16T22:31:17Z</time>
      </trkpt>
      <trkpt lat="44.48069" lon="0.73227">
        <ele>148</ele>
        <time>2018-05-16T22:31:19Z</time>
      </trkpt>
      <trkpt lat="44.48074" lon="0.73225">
        <ele>148.1</ele>
        <time>2018-05-16T22:31:21Z</time>
      </trkpt>
      <trkpt lat="44.48076" lon="0.73224">
        <ele>148.1</ele>
        <time>2018-05-16T22:31:22Z</time>
      </trkpt>
      <trkpt lat="44.48081" lon="0.73221">
        <ele>148.2</ele>
        <time>2018-05-16T22:31:24Z</time>
      </trkpt>
      <trkpt lat="44.48084" lon="0.73219">
        <ele>148.2</ele>
        <time>2018-05-16T22:31:25Z</time>
      </trkpt>
      <trkpt lat="44.48086" lon="0.73218">
        <ele>148.2</ele>
        <time>2018-05-16T22:31:26Z</time>
      </trkpt>
      <trkpt lat="44.48091" lon="0.73215">
        <ele>148.2</ele>
        <time>2018-05-16T22:31:28Z</time>
      </trkpt>
      <trkpt lat="44.48094" lon="0.73214">
        <ele>148.2</ele>
        <time>2018-05-16T22:31:29Z</time>
      </trkpt>
      <trkpt lat="44.48096" lon="0.73212">
        <ele>148.2</ele>
        <time>2018-05-16T22:31:30Z</time>
      </trkpt>
      <trkpt lat="44.48099" lon="0.7321">
        <ele>148.2</ele>
        <time>2018-05-16T22:31:31Z</time>
      </trkpt>
      <trkpt lat="44.48101" lon="0.73208">
        <ele>148.2</ele>
        <time>2018-05-16T22:31:32Z</time>
      </trkpt>
      <trkpt lat="44.48104" lon="0.73207">
        <ele>148.2</ele>
        <time>2018-05-16T22:31:33Z</time>
      </trkpt>
      <trkpt lat="44.48107" lon="0.73205">
        <ele>148.2</ele>
        <time>2018-05-16T22:31:34Z</time>
      </trkpt>
      <trkpt lat="44.4811" lon="0.73204">
        <ele>148.2</ele>
        <time>2018-05-16T22:31:35Z</time>
      </trkpt>
      <trkpt lat="44.48113" lon="0.73202">
        <ele>148.2</ele>
        <time>2018-05-16T22:31:36Z</time>
      </trkpt>
      <trkpt lat="44.48117" lon="0.732">
        <ele>148.2</ele>
        <time>2018-05-16T22:31:37Z</time>
      </trkpt>
      <trkpt lat="44.4812" lon="0.73199">
        <ele>148.1</ele>
        <time>2018-05-16T22:31:38Z</time>
      </trkpt>
      <trkpt lat="44.48124" lon="0.73197">
        <ele>148.1</ele>
        <time>2018-05-16T22:31:39Z</time>
      </trkpt>
      <trkpt lat="44.48128" lon="0.73195">
        <ele>148.1</ele>
        <time>2018-05-16T22:31:40Z</time>
      </trkpt>
      <trkpt lat="44.48132" lon="0.73192">
        <ele>148.1</ele>
        <time>2018-05-16T22:31:41Z</time>
      </trkpt>
      <trkpt lat="44.48137" lon="0.7319">
        <ele>148</ele>
        <time>2018-05-16T22:31:42Z</time>
      </trkpt>
      <trkpt lat="44.48142" lon="0.73187">
        <ele>147.8</ele>
        <time>2018-05-16T22:31:43Z</time>
      </trkpt>
      <trkpt lat="44.48146" lon="0.73185">
        <ele>147.6</ele>
        <time>2018-05-16T22:31:44Z</time>
      </trkpt>
      <trkpt lat="44.48151" lon="0.73182">
        <ele>147.4</ele>
        <time>2018-05-16T22:31:45Z</time>
      </trkpt>
      <trkpt lat="44.48155" lon="0.7318">
        <ele>147.3</ele>
        <time>2018-05-16T22:31:46Z</time>
      </trkpt>
      <trkpt lat="44.4816" lon="0.73179">
        <ele>147.2</ele>
        <time>2018-05-16T22:31:47Z</time>
      </trkpt>
      <trkpt lat="44.48165" lon="0.73178">
        <ele>147.2</ele>
        <time>2018-05-16T22:31:48Z</time>
      </trkpt>
      <trkpt lat="44.48169" lon="0.73178">
        <ele>147.1</ele>
        <time>2018-05-16T22:31:49Z</time>
      </trkpt>
      <trkpt lat="44.48173" lon="0.73178">
        <ele>147.1</ele>
        <time>2018-05-16T22:31:50Z</time>
      </trkpt>
      <trkpt lat="44.48177" lon="0.73179">
        <ele>147</ele>
        <time>2018-05-16T22:31:51Z</time>
      </trkpt>
      <trkpt lat="44.4818" lon="0.7318">
        <ele>147</ele>
        <time>2018-05-16T22:31:52Z</time>
      </trkpt>
      <trkpt lat="44.48183" lon="0.7318">
        <ele>147</ele>
        <time>2018-05-16T22:31:53Z</time>
      </trkpt>
      <trkpt lat="44.48187" lon="0.7318">
        <ele>146.8</ele>
        <time>2018-05-16T22:31:54Z</time>
      </trkpt>
      <trkpt lat="44.48191" lon="0.73179">
        <ele>146.7</ele>
        <time>2018-05-16T22:31:55Z</time>
      </trkpt>
      <trkpt lat="44.48196" lon="0.73178">
        <ele>146.6</ele>
        <time>2018-05-16T22:31:56Z</time>
      </trkpt>
      <trkpt lat="44.48201" lon="0.73177">
        <ele>146.5</ele>
        <time>2018-05-16T22:31:57Z</time>
      </trkpt>
      <trkpt lat="44.48206" lon="0.73176">
        <ele>146.4</ele>
        <time>2018-05-16T22:31:58Z</time>
      </trkpt>
      <trkpt lat="44.48211" lon="0.73176">
        <ele>146.2</ele>
        <time>2018-05-16T22:31:59Z</time>
      </trkpt>
      <trkpt lat="44.48217" lon="0.73176">
        <ele>146.1</ele>
        <time>2018-05-16T22:32:00Z</time>
      </trkpt>
      <trkpt lat="44.48223" lon="0.73176">
        <ele>146</ele>
        <time>2018-05-16T22:32:01Z</time>
      </trkpt>
      <trkpt lat="44.48229" lon="0.73175">
        <ele>145.9</ele>
        <time>2018-05-16T22:32:02Z</time>
      </trkpt>
      <trkpt lat="44.48235" lon="0.73175">
        <ele>145.7</ele>
        <time>2018-05-16T22:32:03Z</time>
      </trkpt>
      <trkpt lat="44.48241" lon="0.73176">
        <ele>145.6</ele>
        <time>2018-05-16T22:32:04Z</time>
      </trkpt>
      <trkpt lat="44.48247" lon="0.73176">
        <ele>145.5</ele>
        <time>2018-05-16T22:32:05Z</time>
      </trkpt>
      <trkpt lat="44.48252" lon="0.73176">
        <ele>145.6</ele>
        <time>2018-05-16T22:32:06Z</time>
      </trkpt>
      <trkpt lat="44.48258" lon="0.73176">
        <ele>145.6</ele>
        <time>2018-05-16T22:32:07Z</time>
      </trkpt>
      <trkpt lat="44.48263" lon="0.73177">
        <ele>145.6</ele>
        <time>2018-05-16T22:32:08Z</time>
      </trkpt>
      <trkpt lat="44.48269" lon="0.73177">
        <ele>145.5</ele>
        <time>2018-05-16T22:32:09Z</time>
      </trkpt>
      <trkpt lat="44.48274" lon="0.73178">
        <ele>145.4</ele>
        <time>2018-05-16T22:32:10Z</time>
      </trkpt>
      <trkpt lat="44.4828" lon="0.73179">
        <ele>145.3</ele>
        <time>2018-05-16T22:32:11Z</time>
      </trkpt>
      <trkpt lat="44.48286" lon="0.7318">
        <ele>145.4</ele>
        <time>2018-05-16T22:32:12Z</time>
      </trkpt>
      <trkpt lat="44.48291" lon="0.73182">
        <ele>145.4</ele>
        <time>2018-05-16T22:32:13Z</time>
      </trkpt>
      <trkpt lat="44.48296" lon="0.73183">
        <ele>145.3</ele>
        <time>2018-05-16T22:32:14Z</time>
      </trkpt>
      <trkpt lat="44.48302" lon="0.73184">
        <ele>145.3</ele>
        <time>2018-05-16T22:32:15Z</time>
      </trkpt>
      <trkpt lat="44.48307" lon="0.73186">
        <ele>145.3</ele>
        <time>2018-05-16T22:32:16Z</time>
      </trkpt>
      <trkpt lat="44.48313" lon="0.73188">
        <ele>145.5</ele>
        <time>2018-05-16T22:32:17Z</time>
      </trkpt>
      <trkpt lat="44.48318" lon="0.73189">
        <ele>145.6</ele>
        <time>2018-05-16T22:32:18Z</time>
      </trkpt>
      <trkpt lat="44.48323" lon="0.7319">
        <ele>145.7</ele>
        <time>2018-05-16T22:32:19Z</time>
      </trkpt>
      <trkpt lat="44.48328" lon="0.73192">
        <ele>145.8</ele>
        <time>2018-05-16T22:32:20Z</time>
      </trkpt>
      <trkpt lat="44.48333" lon="0.73193">
        <ele>145.9</ele>
        <time>2018-05-16T22:32:21Z</time>
      </trkpt>
      <trkpt lat="44.48337" lon="0.73196">
        <ele>146.1</ele>
        <time>2018-05-16T22:32:22Z</time>
      </trkpt>
      <trkpt lat="44.48342" lon="0.73199">
        <ele>146.1</ele>
        <time>2018-05-16T22:32:23Z</time>
      </trkpt>
      <trkpt lat="44.48346" lon="0.73202">
        <ele>146.2</ele>
        <time>2018-05-16T22:32:24Z</time>
      </trkpt>
      <trkpt lat="44.4835" lon="0.73206">
        <ele>146.3</ele>
        <time>2018-05-16T22:32:25Z</time>
      </trkpt>
      <trkpt lat="44.48353" lon="0.7321">
        <ele>146.3</ele>
        <time>2018-05-16T22:32:26Z</time>
      </trkpt>
      <trkpt lat="44.48357" lon="0.73214">
        <ele>146.4</ele>
        <time>2018-05-16T22:32:27Z</time>
      </trkpt>
      <trkpt lat="44.48361" lon="0.73217">
        <ele>146.3</ele>
        <time>2018-05-16T22:32:28Z</time>
      </trkpt>
      <trkpt lat="44.48365" lon="0.73221">
        <ele>146.3</ele>
        <time>2018-05-16T22:32:29Z</time>
      </trkpt>
      <trkpt lat="44.48373" lon="0.73228">
        <ele>146.3</ele>
        <time>2018-05-16T22:32:31Z</time>
      </trkpt>
      <trkpt lat="44.48377" lon="0.73232">
        <ele>146.3</ele>
        <time>2018-05-16T22:32:32Z</time>
      </trkpt>
      <trkpt lat="44.48381" lon="0.73236">
        <ele>146.3</ele>
        <time>2018-05-16T22:32:33Z</time>
      </trkpt>
      <trkpt lat="44.48384" lon="0.7324">
        <ele>146.4</ele>
        <time>2018-05-16T22:32:34Z</time>
      </trkpt>
      <trkpt lat="44.48388" lon="0.73245">
        <ele>146.4</ele>
        <time>2018-05-16T22:32:35Z</time>
      </trkpt>
      <trkpt lat="44.4839" lon="0.73249">
        <ele>146.5</ele>
        <time>2018-05-16T22:32:36Z</time>
      </trkpt>
      <trkpt lat="44.48392" lon="0.73254">
        <ele>146.5</ele>
        <time>2018-05-16T22:32:37Z</time>
      </trkpt>
      <trkpt lat="44.48396" lon="0.73258">
        <ele>146.6</ele>
        <time>2018-05-16T22:32:38Z</time>
      </trkpt>
      <trkpt lat="44.48399" lon="0.7326">
        <ele>146.7</ele>
        <time>2018-05-16T22:32:39Z</time>
      </trkpt>
      <trkpt lat="44.48401" lon="0.73263">
        <ele>146.8</ele>
        <time>2018-05-16T22:32:40Z</time>
      </trkpt>
      <trkpt lat="44.48404" lon="0.73265">
        <ele>146.9</ele>
        <time>2018-05-16T22:32:41Z</time>
      </trkpt>
      <trkpt lat="44.48406" lon="0.73267">
        <ele>147.1</ele>
        <time>2018-05-16T22:32:42Z</time>
      </trkpt>
      <trkpt lat="44.48409" lon="0.73269">
        <ele>147.2</ele>
        <time>2018-05-16T22:32:43Z</time>
      </trkpt>
      <trkpt lat="44.48411" lon="0.73272">
        <ele>147.4</ele>
        <time>2018-05-16T22:32:44Z</time>
      </trkpt>
      <trkpt lat="44.48414" lon="0.73274">
        <ele>147.4</ele>
        <time>2018-05-16T22:32:45Z</time>
      </trkpt>
      <trkpt lat="44.48416" lon="0.73277">
        <ele>147.5</ele>
        <time>2018-05-16T22:32:46Z</time>
      </trkpt>
      <trkpt lat="44.4842" lon="0.7328">
        <ele>147.7</ele>
        <time>2018-05-16T22:32:48Z</time>
      </trkpt>
      <trkpt lat="44.48424" lon="0.73283">
        <ele>147.9</ele>
        <time>2018-05-16T22:32:50Z</time>
      </trkpt>
      <trkpt lat="44.48428" lon="0.73286">
        <ele>148.1</ele>
        <time>2018-05-16T22:32:52Z</time>
      </trkpt>
      <trkpt lat="44.48432" lon="0.7329">
        <ele>148.6</ele>
        <time>2018-05-16T22:32:54Z</time>
      </trkpt>
      <trkpt lat="44.48434" lon="0.73292">
        <ele>148.8</ele>
        <time>2018-05-16T22:32:55Z</time>
      </trkpt>
      <trkpt lat="44.48437" lon="0.73295">
        <ele>149</ele>
        <time>2018-05-16T22:32:56Z</time>
      </trkpt>
      <trkpt lat="44.48439" lon="0.73297">
        <ele>149.1</ele>
        <time>2018-05-16T22:32:57Z</time>
      </trkpt>
      <trkpt lat="44.48443" lon="0.733">
        <ele>149.3</ele>
        <time>2018-05-16T22:32:59Z</time>
      </trkpt>
      <trkpt lat="44.48445" lon="0.73302">
        <ele>149.5</ele>
        <time>2018-05-16T22:33:00Z</time>
      </trkpt>
      <trkpt lat="44.48449" lon="0.73306">
        <ele>149.8</ele>
        <time>2018-05-16T22:33:02Z</time>
      </trkpt>
      <trkpt lat="44.48452" lon="0.73308">
        <ele>150</ele>
        <time>2018-05-16T22:33:03Z</time>
      </trkpt>
      <trkpt lat="44.48454" lon="0.7331">
        <ele>150.3</ele>
        <time>2018-05-16T22:33:04Z</time>
      </trkpt>
      <trkpt lat="44.48458" lon="0.73313">
        <ele>150.7</ele>
        <time>2018-05-16T22:33:06Z</time>
      </trkpt>
      <trkpt lat="44.48463" lon="0.73318">
        <ele>151.1</ele>
        <time>2018-05-16T22:33:08Z</time>
      </trkpt>
      <trkpt lat="44.48465" lon="0.73323">
        <ele>151.4</ele>
        <time>2018-05-16T22:33:10Z</time>
      </trkpt>
      <trkpt lat="44.48466" lon="0.73329">
        <ele>151.7</ele>
        <time>2018-05-16T22:33:12Z</time>
      </trkpt>
      <trkpt lat="44.48466" lon="0.73336">
        <ele>152</ele>
        <time>2018-05-16T22:33:14Z</time>
      </trkpt>
      <trkpt lat="44.48467" lon="0.73339">
        <ele>152</ele>
        <time>2018-05-16T22:33:15Z</time>
      </trkpt>
      <trkpt lat="44.48468" lon="0.73343">
        <ele>152</ele>
        <time>2018-05-16T22:33:16Z</time>
      </trkpt>
      <trkpt lat="44.48471" lon="0.73346">
        <ele>152</ele>
        <time>2018-05-16T22:33:17Z</time>
      </trkpt>
      <trkpt lat="44.48475" lon="0.73347">
        <ele>152.7</ele>
        <time>2018-05-16T22:33:18Z</time>
      </trkpt>
      <trkpt lat="44.48478" lon="0.73348">
        <ele>153.1</ele>
        <time>2018-05-16T22:33:19Z</time>
      </trkpt>
      <trkpt lat="44.48481" lon="0.73347">
        <ele>153.4</ele>
        <time>2018-05-16T22:33:20Z</time>
      </trkpt>
      <trkpt lat="44.48485" lon="0.73346">
        <ele>153.7</ele>
        <time>2018-05-16T22:33:21Z</time>
      </trkpt>
      <trkpt lat="44.48488" lon="0.73345">
        <ele>154</ele>
        <time>2018-05-16T22:33:22Z</time>
      </trkpt>
      <trkpt lat="44.4849" lon="0.73345">
        <ele>154.3</ele>
        <time>2018-05-16T22:33:23Z</time>
      </trkpt>
      <trkpt lat="44.48493" lon="0.73343">
        <ele>154.3</ele>
        <time>2018-05-16T22:33:24Z</time>
      </trkpt>
      <trkpt lat="44.48499" lon="0.73342">
        <ele>155</ele>
        <time>2018-05-16T22:33:26Z</time>
      </trkpt>
      <trkpt lat="44.48502" lon="0.73341">
        <ele>155.4</ele>
        <time>2018-05-16T22:33:27Z</time>
      </trkpt>
      <trkpt lat="44.48504" lon="0.7334">
        <ele>155.7</ele>
        <time>2018-05-16T22:33:28Z</time>
      </trkpt>
      <trkpt lat="44.48507" lon="0.73339">
        <ele>156</ele>
        <time>2018-05-16T22:33:29Z</time>
      </trkpt>
      <trkpt lat="44.4851" lon="0.73339">
        <ele>156.3</ele>
        <time>2018-05-16T22:33:30Z</time>
      </trkpt>
      <trkpt lat="44.48514" lon="0.73338">
        <ele>156.5</ele>
        <time>2018-05-16T22:33:31Z</time>
      </trkpt>
      <trkpt lat="44.48517" lon="0.73338">
        <ele>156.8</ele>
        <time>2018-05-16T22:33:32Z</time>
      </trkpt>
      <trkpt lat="44.4852" lon="0.73338">
        <ele>157</ele>
        <time>2018-05-16T22:33:33Z</time>
      </trkpt>
      <trkpt lat="44.48523" lon="0.73338">
        <ele>157.3</ele>
        <time>2018-05-16T22:33:34Z</time>
      </trkpt>
      <trkpt lat="44.48526" lon="0.73337">
        <ele>157.5</ele>
        <time>2018-05-16T22:33:35Z</time>
      </trkpt>
      <trkpt lat="44.48529" lon="0.73336">
        <ele>157.8</ele>
        <time>2018-05-16T22:33:36Z</time>
      </trkpt>
      <trkpt lat="44.48532" lon="0.73335">
        <ele>158</ele>
        <time>2018-05-16T22:33:37Z</time>
      </trkpt>
      <trkpt lat="44.48538" lon="0.73333">
        <ele>158.2</ele>
        <time>2018-05-16T22:33:39Z</time>
      </trkpt>
      <trkpt lat="44.48541" lon="0.73333">
        <ele>158.4</ele>
        <time>2018-05-16T22:33:40Z</time>
      </trkpt>
      <trkpt lat="44.48544" lon="0.73333">
        <ele>158.6</ele>
        <time>2018-05-16T22:33:41Z</time>
      </trkpt>
      <trkpt lat="44.48547" lon="0.73333">
        <ele>158.8</ele>
        <time>2018-05-16T22:33:42Z</time>
      </trkpt>
      <trkpt lat="44.4855" lon="0.73333">
        <ele>158.9</ele>
        <time>2018-05-16T22:33:43Z</time>
      </trkpt>
      <trkpt lat="44.48553" lon="0.73333">
        <ele>159.1</ele>
        <time>2018-05-16T22:33:44Z</time>
      </trkpt>
      <trkpt lat="44.48556" lon="0.73333">
        <ele>159.3</ele>
        <time>2018-05-16T22:33:45Z</time>
      </trkpt>
      <trkpt lat="44.48559" lon="0.73333">
        <ele>159.5</ele>
        <time>2018-05-16T22:33:46Z</time>
      </trkpt>
      <trkpt lat="44.48562" lon="0.73334">
        <ele>159.7</ele>
        <time>2018-05-16T22:33:47Z</time>
      </trkpt>
      <trkpt lat="44.48565" lon="0.73334">
        <ele>160</ele>
        <time>2018-05-16T22:33:48Z</time>
      </trkpt>
      <trkpt lat="44.48568" lon="0.73335">
        <ele>160.2</ele>
        <time>2018-05-16T22:33:49Z</time>
      </trkpt>
      <trkpt lat="44.48571" lon="0.73336">
        <ele>160.4</ele>
        <time>2018-05-16T22:33:50Z</time>
      </trkpt>
      <trkpt lat="44.48573" lon="0.73336">
        <ele>160.5</ele>
        <time>2018-05-16T22:33:51Z</time>
      </trkpt>
      <trkpt lat="44.48576" lon="0.73337">
        <ele>160.7</ele>
        <time>2018-05-16T22:33:52Z</time>
      </trkpt>
      <trkpt lat="44.48579" lon="0.73337">
        <ele>160.7</ele>
        <time>2018-05-16T22:33:53Z</time>
      </trkpt>
      <trkpt lat="44.48582" lon="0.73337">
        <ele>160.9</ele>
        <time>2018-05-16T22:33:54Z</time>
      </trkpt>
      <trkpt lat="44.48585" lon="0.73338">
        <ele>161.1</ele>
        <time>2018-05-16T22:33:55Z</time>
      </trkpt>
      <trkpt lat="44.48588" lon="0.73338">
        <ele>161.3</ele>
        <time>2018-05-16T22:33:56Z</time>
      </trkpt>
      <trkpt lat="44.48591" lon="0.73338">
        <ele>161.6</ele>
        <time>2018-05-16T22:33:57Z</time>
      </trkpt>
      <trkpt lat="44.48594" lon="0.73338">
        <ele>162</ele>
        <time>2018-05-16T22:33:58Z</time>
      </trkpt>
      <trkpt lat="44.48597" lon="0.73339">
        <ele>162.2</ele>
        <time>2018-05-16T22:33:59Z</time>
      </trkpt>
      <trkpt lat="44.486" lon="0.73339">
        <ele>162.4</ele>
        <time>2018-05-16T22:34:00Z</time>
      </trkpt>
      <trkpt lat="44.48603" lon="0.73339">
        <ele>162.6</ele>
        <time>2018-05-16T22:34:01Z</time>
      </trkpt>
      <trkpt lat="44.48606" lon="0.7334">
        <ele>162.8</ele>
        <time>2018-05-16T22:34:02Z</time>
      </trkpt>
      <trkpt lat="44.48609" lon="0.7334">
        <ele>163</ele>
        <time>2018-05-16T22:34:03Z</time>
      </trkpt>
      <trkpt lat="44.48612" lon="0.7334">
        <ele>163.3</ele>
        <time>2018-05-16T22:34:04Z</time>
      </trkpt>
      <trkpt lat="44.48615" lon="0.7334">
        <ele>163.5</ele>
        <time>2018-05-16T22:34:05Z</time>
      </trkpt>
      <trkpt lat="44.48618" lon="0.73339">
        <ele>163.7</ele>
        <time>2018-05-16T22:34:06Z</time>
      </trkpt>
      <trkpt lat="44.48621" lon="0.7334">
        <ele>163.9</ele>
        <time>2018-05-16T22:34:07Z</time>
      </trkpt>
      <trkpt lat="44.48624" lon="0.7334">
        <ele>164.1</ele>
        <time>2018-05-16T22:34:08Z</time>
      </trkpt>
      <trkpt lat="44.48627" lon="0.73339">
        <ele>164.3</ele>
        <time>2018-05-16T22:34:09Z</time>
      </trkpt>
      <trkpt lat="44.48629" lon="0.73338">
        <ele>164.4</ele>
        <time>2018-05-16T22:34:10Z</time>
      </trkpt>
      <trkpt lat="44.48631" lon="0.73335">
        <ele>164.6</ele>
        <time>2018-05-16T22:34:11Z</time>
      </trkpt>
      <trkpt lat="44.48633" lon="0.73329">
        <ele>164.4</ele>
        <time>2018-05-16T22:34:13Z</time>
      </trkpt>
      <trkpt lat="44.48633" lon="0.73325">
        <ele>164.4</ele>
        <time>2018-05-16T22:34:14Z</time>
      </trkpt>
      <trkpt lat="44.48632" lon="0.73322">
        <ele>164.2</ele>
        <time>2018-05-16T22:34:15Z</time>
      </trkpt>
      <trkpt lat="44.48633" lon="0.73315">
        <ele>164</ele>
        <time>2018-05-16T22:34:17Z</time>
      </trkpt>
      <trkpt lat="44.48637" lon="0.73311">
        <ele>164</ele>
        <time>2018-05-16T22:34:19Z</time>
      </trkpt>
      <trkpt lat="44.48642" lon="0.7331">
        <ele>164.5</ele>
        <time>2018-05-16T22:34:21Z</time>
      </trkpt>
      <trkpt lat="44.48645" lon="0.73312">
        <ele>164.7</ele>
        <time>2018-05-16T22:34:22Z</time>
      </trkpt>
      <trkpt lat="44.48648" lon="0.73313">
        <ele>165.1</ele>
        <time>2018-05-16T22:34:23Z</time>
      </trkpt>
      <trkpt lat="44.48651" lon="0.73314">
        <ele>165.3</ele>
        <time>2018-05-16T22:34:24Z</time>
      </trkpt>
      <trkpt lat="44.48656" lon="0.73318">
        <ele>165.6</ele>
        <time>2018-05-16T22:34:26Z</time>
      </trkpt>
      <trkpt lat="44.48659" lon="0.7332">
        <ele>166</ele>
        <time>2018-05-16T22:34:28Z</time>
      </trkpt>
      <trkpt lat="44.48662" lon="0.7332">
        <ele>166.2</ele>
        <time>2018-05-16T22:34:30Z</time>
      </trkpt>
      <trkpt lat="44.48665" lon="0.73321">
        <ele>166.5</ele>
        <time>2018-05-16T22:34:31Z</time>
      </trkpt>
      <trkpt lat="44.48669" lon="0.73322">
        <ele>166.7</ele>
        <time>2018-05-16T22:34:32Z</time>
      </trkpt>
      <trkpt lat="44.48672" lon="0.73323">
        <ele>166.9</ele>
        <time>2018-05-16T22:34:33Z</time>
      </trkpt>
      <trkpt lat="44.48675" lon="0.73324">
        <ele>167.1</ele>
        <time>2018-05-16T22:34:34Z</time>
      </trkpt>
      <trkpt lat="44.4868" lon="0.73326">
        <ele>167.3</ele>
        <time>2018-05-16T22:34:36Z</time>
      </trkpt>
      <trkpt lat="44.48685" lon="0.73331">
        <ele>167.6</ele>
        <time>2018-05-16T22:34:38Z</time>
      </trkpt>
      <trkpt lat="44.48688" lon="0.73333">
        <ele>167.7</ele>
        <time>2018-05-16T22:34:39Z</time>
      </trkpt>
      <trkpt lat="44.48692" lon="0.73336">
        <ele>167.8</ele>
        <time>2018-05-16T22:34:41Z</time>
      </trkpt>
      <trkpt lat="44.48695" lon="0.73337">
        <ele>167.9</ele>
        <time>2018-05-16T22:34:43Z</time>
      </trkpt>
      <trkpt lat="44.48701" lon="0.73338">
        <ele>167.9</ele>
        <time>2018-05-16T22:34:45Z</time>
      </trkpt>
      <trkpt lat="44.48705" lon="0.73339">
        <ele>167.9</ele>
        <time>2018-05-16T22:34:46Z</time>
      </trkpt>
      <trkpt lat="44.48708" lon="0.73339">
        <ele>167.9</ele>
        <time>2018-05-16T22:34:47Z</time>
      </trkpt>
      <trkpt lat="44.48711" lon="0.7334">
        <ele>167.8</ele>
        <time>2018-05-16T22:34:48Z</time>
      </trkpt>
      <trkpt lat="44.48715" lon="0.73342">
        <ele>167.7</ele>
        <time>2018-05-16T22:34:49Z</time>
      </trkpt>
      <trkpt lat="44.48723" lon="0.73347">
        <ele>167.3</ele>
        <time>2018-05-16T22:34:50Z</time>
      </trkpt>
      <trkpt lat="44.48728" lon="0.73349">
        <ele>167.2</ele>
        <time>2018-05-16T22:34:51Z</time>
      </trkpt>
      <trkpt lat="44.48733" lon="0.73352">
        <ele>166.8</ele>
        <time>2018-05-16T22:34:52Z</time>
      </trkpt>
      <trkpt lat="44.48739" lon="0.73356">
        <ele>166.4</ele>
        <time>2018-05-16T22:34:53Z</time>
      </trkpt>
      <trkpt lat="44.48746" lon="0.7336">
        <ele>165.9</ele>
        <time>2018-05-16T22:34:54Z</time>
      </trkpt>
      <trkpt lat="44.48752" lon="0.73363">
        <ele>165.6</ele>
        <time>2018-05-16T22:34:55Z</time>
      </trkpt>
      <trkpt lat="44.48757" lon="0.73366">
        <ele>165.1</ele>
        <time>2018-05-16T22:34:56Z</time>
      </trkpt>
      <trkpt lat="44.48764" lon="0.73369">
        <ele>164.6</ele>
        <time>2018-05-16T22:34:57Z</time>
      </trkpt>
      <trkpt lat="44.48769" lon="0.73373">
        <ele>164.3</ele>
        <time>2018-05-16T22:34:58Z</time>
      </trkpt>
      <trkpt lat="44.48774" lon="0.73376">
        <ele>164</ele>
        <time>2018-05-16T22:34:59Z</time>
      </trkpt>
      <trkpt lat="44.48782" lon="0.7338">
        <ele>163.4</ele>
        <time>2018-05-16T22:35:00Z</time>
      </trkpt>
      <trkpt lat="44.48787" lon="0.73382">
        <ele>163</ele>
        <time>2018-05-16T22:35:01Z</time>
      </trkpt>
      <trkpt lat="44.48792" lon="0.73384">
        <ele>162.9</ele>
        <time>2018-05-16T22:35:02Z</time>
      </trkpt>
      <trkpt lat="44.48797" lon="0.73385">
        <ele>162.7</ele>
        <time>2018-05-16T22:35:03Z</time>
      </trkpt>
      <trkpt lat="44.48801" lon="0.73386">
        <ele>162.6</ele>
        <time>2018-05-16T22:35:04Z</time>
      </trkpt>
      <trkpt lat="44.48806" lon="0.73388">
        <ele>162.5</ele>
        <time>2018-05-16T22:35:05Z</time>
      </trkpt>
      <trkpt lat="44.48811" lon="0.7339">
        <ele>162.4</ele>
        <time>2018-05-16T22:35:06Z</time>
      </trkpt>
      <trkpt lat="44.48815" lon="0.73391">
        <ele>162.3</ele>
        <time>2018-05-16T22:35:07Z</time>
      </trkpt>
      <trkpt lat="44.48819" lon="0.73392">
        <ele>162.1</ele>
        <time>2018-05-16T22:35:08Z</time>
      </trkpt>
      <trkpt lat="44.48822" lon="0.73393">
        <ele>162</ele>
        <time>2018-05-16T22:35:09Z</time>
      </trkpt>
      <trkpt lat="44.48826" lon="0.73393">
        <ele>161.9</ele>
        <time>2018-05-16T22:35:10Z</time>
      </trkpt>
      <trkpt lat="44.4883" lon="0.73395">
        <ele>161.8</ele>
        <time>2018-05-16T22:35:11Z</time>
      </trkpt>
      <trkpt lat="44.48835" lon="0.73395">
        <ele>161.5</ele>
        <time>2018-05-16T22:35:12Z</time>
      </trkpt>
      <trkpt lat="44.4884" lon="0.73395">
        <ele>161.3</ele>
        <time>2018-05-16T22:35:13Z</time>
      </trkpt>
      <trkpt lat="44.48845" lon="0.73394">
        <ele>161.2</ele>
        <time>2018-05-16T22:35:14Z</time>
      </trkpt>
      <trkpt lat="44.48849" lon="0.73391">
        <ele>161</ele>
        <time>2018-05-16T22:35:15Z</time>
      </trkpt>
      <trkpt lat="44.48855" lon="0.73394">
        <ele>160.8</ele>
        <time>2018-05-16T22:35:16Z</time>
      </trkpt>
      <trkpt lat="44.48861" lon="0.73389">
        <ele>160.8</ele>
        <time>2018-05-16T22:35:17Z</time>
      </trkpt>
      <trkpt lat="44.48867" lon="0.73389">
        <ele>160.6</ele>
        <time>2018-05-16T22:35:18Z</time>
      </trkpt>
      <trkpt lat="44.48872" lon="0.73388">
        <ele>160.6</ele>
        <time>2018-05-16T22:35:19Z</time>
      </trkpt>
      <trkpt lat="44.48877" lon="0.73387">
        <ele>160.5</ele>
        <time>2018-05-16T22:35:20Z</time>
      </trkpt>
      <trkpt lat="44.48881" lon="0.73385">
        <ele>160.6</ele>
        <time>2018-05-16T22:35:21Z</time>
      </trkpt>
      <trkpt lat="44.48885" lon="0.73383">
        <ele>160.5</ele>
        <time>2018-05-16T22:35:22Z</time>
      </trkpt>
      <trkpt lat="44.4889" lon="0.73383">
        <ele>160.5</ele>
        <time>2018-05-16T22:35:23Z</time>
      </trkpt>
      <trkpt lat="44.48893" lon="0.7338">
        <ele>160.6</ele>
        <time>2018-05-16T22:35:24Z</time>
      </trkpt>
      <trkpt lat="44.48897" lon="0.73374">
        <ele>160.7</ele>
        <time>2018-05-16T22:35:25Z</time>
      </trkpt>
      <trkpt lat="44.48902" lon="0.73372">
        <ele>160.8</ele>
        <time>2018-05-16T22:35:26Z</time>
      </trkpt>
      <trkpt lat="44.48907" lon="0.73369">
        <ele>160.7</ele>
        <time>2018-05-16T22:35:27Z</time>
      </trkpt>
      <trkpt lat="44.48912" lon="0.73364">
        <ele>160.8</ele>
        <time>2018-05-16T22:35:28Z</time>
      </trkpt>
      <trkpt lat="44.48915" lon="0.73361">
        <ele>160.8</ele>
        <time>2018-05-16T22:35:29Z</time>
      </trkpt>
      <trkpt lat="44.48919" lon="0.73358">
        <ele>160.7</ele>
        <time>2018-05-16T22:35:30Z</time>
      </trkpt>
      <trkpt lat="44.48923" lon="0.73354">
        <ele>160.6</ele>
        <time>2018-05-16T22:35:31Z</time>
      </trkpt>
      <trkpt lat="44.48926" lon="0.73351">
        <ele>160.5</ele>
        <time>2018-05-16T22:35:32Z</time>
      </trkpt>
      <trkpt lat="44.48929" lon="0.73348">
        <ele>160.4</ele>
        <time>2018-05-16T22:35:33Z</time>
      </trkpt>
      <trkpt lat="44.48931" lon="0.73346">
        <ele>160.3</ele>
        <time>2018-05-16T22:35:34Z</time>
      </trkpt>
      <trkpt lat="44.48935" lon="0.7334">
        <ele>160.1</ele>
        <time>2018-05-16T22:35:36Z</time>
      </trkpt>
      <trkpt lat="44.4894" lon="0.73334">
        <ele>159.9</ele>
        <time>2018-05-16T22:35:38Z</time>
      </trkpt>
      <trkpt lat="44.48944" lon="0.73329">
        <ele>159.6</ele>
        <time>2018-05-16T22:35:40Z</time>
      </trkpt>
      <trkpt lat="44.48948" lon="0.73324">
        <ele>159.5</ele>
        <time>2018-05-16T22:35:42Z</time>
      </trkpt>
      <trkpt lat="44.48951" lon="0.73322">
        <ele>159.4</ele>
        <time>2018-05-16T22:35:43Z</time>
      </trkpt>
      <trkpt lat="44.48955" lon="0.73321">
        <ele>159.3</ele>
        <time>2018-05-16T22:35:44Z</time>
      </trkpt>
      <trkpt lat="44.48959" lon="0.73319">
        <ele>159.2</ele>
        <time>2018-05-16T22:35:45Z</time>
      </trkpt>
      <trkpt lat="44.48963" lon="0.73318">
        <ele>159.2</ele>
        <time>2018-05-16T22:35:46Z</time>
      </trkpt>
      <trkpt lat="44.48967" lon="0.73314">
        <ele>159.1</ele>
        <time>2018-05-16T22:35:47Z</time>
      </trkpt>
      <trkpt lat="44.48971" lon="0.73312">
        <ele>158.9</ele>
        <time>2018-05-16T22:35:48Z</time>
      </trkpt>
      <trkpt lat="44.48975" lon="0.73309">
        <ele>158.9</ele>
        <time>2018-05-16T22:35:49Z</time>
      </trkpt>
      <trkpt lat="44.48979" lon="0.73305">
        <ele>158.8</ele>
        <time>2018-05-16T22:35:50Z</time>
      </trkpt>
      <trkpt lat="44.48982" lon="0.73302">
        <ele>158.8</ele>
        <time>2018-05-16T22:35:51Z</time>
      </trkpt>
      <trkpt lat="44.48986" lon="0.733">
        <ele>158.7</ele>
        <time>2018-05-16T22:35:52Z</time>
      </trkpt>
      <trkpt lat="44.48989" lon="0.73297">
        <ele>158.7</ele>
        <time>2018-05-16T22:35:53Z</time>
      </trkpt>
      <trkpt lat="44.48994" lon="0.73294">
        <ele>158.6</ele>
        <time>2018-05-16T22:35:54Z</time>
      </trkpt>
      <trkpt lat="44.48999" lon="0.73292">
        <ele>158.5</ele>
        <time>2018-05-16T22:35:55Z</time>
      </trkpt>
      <trkpt lat="44.49002" lon="0.7329">
        <ele>158.5</ele>
        <time>2018-05-16T22:35:56Z</time>
      </trkpt>
      <trkpt lat="44.49003" lon="0.73286">
        <ele>158.6</ele>
        <time>2018-05-16T22:35:57Z</time>
      </trkpt>
      <trkpt lat="44.49007" lon="0.73283">
        <ele>158.5</ele>
        <time>2018-05-16T22:35:58Z</time>
      </trkpt>
      <trkpt lat="44.49011" lon="0.73282">
        <ele>158.6</ele>
        <time>2018-05-16T22:35:59Z</time>
      </trkpt>
      <trkpt lat="44.49014" lon="0.73281">
        <ele>158.5</ele>
        <time>2018-05-16T22:36:00Z</time>
      </trkpt>
      <trkpt lat="44.49018" lon="0.73276">
        <ele>158.6</ele>
        <time>2018-05-16T22:36:01Z</time>
      </trkpt>
      <trkpt lat="44.49021" lon="0.73275">
        <ele>158.5</ele>
        <time>2018-05-16T22:36:02Z</time>
      </trkpt>
      <trkpt lat="44.49025" lon="0.73272">
        <ele>158.6</ele>
        <time>2018-05-16T22:36:03Z</time>
      </trkpt>
      <trkpt lat="44.4903" lon="0.73269">
        <ele>158.5</ele>
        <time>2018-05-16T22:36:04Z</time>
      </trkpt>
      <trkpt lat="44.49034" lon="0.73265">
        <ele>158.5</ele>
        <time>2018-05-16T22:36:05Z</time>
      </trkpt>
      <trkpt lat="44.49038" lon="0.73265">
        <ele>158.5</ele>
        <time>2018-05-16T22:36:06Z</time>
      </trkpt>
      <trkpt lat="44.49041" lon="0.73262">
        <ele>158.4</ele>
        <time>2018-05-16T22:36:07Z</time>
      </trkpt>
      <trkpt lat="44.49045" lon="0.73257">
        <ele>158.3</ele>
        <time>2018-05-16T22:36:08Z</time>
      </trkpt>
      <trkpt lat="44.49048" lon="0.73252">
        <ele>158.1</ele>
        <time>2018-05-16T22:36:09Z</time>
      </trkpt>
      <trkpt lat="44.49051" lon="0.73249">
        <ele>158</ele>
        <time>2018-05-16T22:36:10Z</time>
      </trkpt>
      <trkpt lat="44.49054" lon="0.73244">
        <ele>157.8</ele>
        <time>2018-05-16T22:36:11Z</time>
      </trkpt>
      <trkpt lat="44.49057" lon="0.7324">
        <ele>157.6</ele>
        <time>2018-05-16T22:36:12Z</time>
      </trkpt>
      <trkpt lat="44.49062" lon="0.73237">
        <ele>157.4</ele>
        <time>2018-05-16T22:36:13Z</time>
      </trkpt>
      <trkpt lat="44.49065" lon="0.73233">
        <ele>157.2</ele>
        <time>2018-05-16T22:36:14Z</time>
      </trkpt>
      <trkpt lat="44.49068" lon="0.7323">
        <ele>157.1</ele>
        <time>2018-05-16T22:36:15Z</time>
      </trkpt>
      <trkpt lat="44.49072" lon="0.73228">
        <ele>157.1</ele>
        <time>2018-05-16T22:36:16Z</time>
      </trkpt>
      <trkpt lat="44.49076" lon="0.73225">
        <ele>156.9</ele>
        <time>2018-05-16T22:36:17Z</time>
      </trkpt>
      <trkpt lat="44.4908" lon="0.73224">
        <ele>156.8</ele>
        <time>2018-05-16T22:36:18Z</time>
      </trkpt>
      <trkpt lat="44.49084" lon="0.73222">
        <ele>156.7</ele>
        <time>2018-05-16T22:36:19Z</time>
      </trkpt>
      <trkpt lat="44.49087" lon="0.73219">
        <ele>156.6</ele>
        <time>2018-05-16T22:36:20Z</time>
      </trkpt>
      <trkpt lat="44.4909" lon="0.73214">
        <ele>156.5</ele>
        <time>2018-05-16T22:36:21Z</time>
      </trkpt>
      <trkpt lat="44.49093" lon="0.7321">
        <ele>156.3</ele>
        <time>2018-05-16T22:36:22Z</time>
      </trkpt>
      <trkpt lat="44.49096" lon="0.73208">
        <ele>156.1</ele>
        <time>2018-05-16T22:36:23Z</time>
      </trkpt>
      <trkpt lat="44.49099" lon="0.73206">
        <ele>156</ele>
        <time>2018-05-16T22:36:24Z</time>
      </trkpt>
      <trkpt lat="44.49102" lon="0.73204">
        <ele>155.9</ele>
        <time>2018-05-16T22:36:25Z</time>
      </trkpt>
      <trkpt lat="44.49106" lon="0.73201">
        <ele>155.7</ele>
        <time>2018-05-16T22:36:26Z</time>
      </trkpt>
      <trkpt lat="44.49111" lon="0.73199">
        <ele>155.6</ele>
        <time>2018-05-16T22:36:27Z</time>
      </trkpt>
      <trkpt lat="44.49114" lon="0.73198">
        <ele>155.5</ele>
        <time>2018-05-16T22:36:28Z</time>
      </trkpt>
      <trkpt lat="44.49119" lon="0.73197">
        <ele>155.4</ele>
        <time>2018-05-16T22:36:29Z</time>
      </trkpt>
      <trkpt lat="44.49123" lon="0.73195">
        <ele>155.2</ele>
        <time>2018-05-16T22:36:30Z</time>
      </trkpt>
      <trkpt lat="44.49126" lon="0.73193">
        <ele>155.2</ele>
        <time>2018-05-16T22:36:31Z</time>
      </trkpt>
      <trkpt lat="44.49131" lon="0.73191">
        <ele>155</ele>
        <time>2018-05-16T22:36:32Z</time>
      </trkpt>
      <trkpt lat="44.49134" lon="0.7319">
        <ele>154.9</ele>
        <time>2018-05-16T22:36:33Z</time>
      </trkpt>
      <trkpt lat="44.49137" lon="0.73189">
        <ele>154.9</ele>
        <time>2018-05-16T22:36:34Z</time>
      </trkpt>
      <trkpt lat="44.49139" lon="0.73185">
        <ele>154.9</ele>
        <time>2018-05-16T22:36:36Z</time>
      </trkpt>
      <trkpt lat="44.49142" lon="0.73183">
        <ele>154.8</ele>
        <time>2018-05-16T22:36:37Z</time>
      </trkpt>
      <trkpt lat="44.49145" lon="0.73183">
        <ele>154.8</ele>
        <time>2018-05-16T22:36:38Z</time>
      </trkpt>
      <trkpt lat="44.49151" lon="0.73176">
        <ele>154.6</ele>
        <time>2018-05-16T22:36:39Z</time>
      </trkpt>
      <trkpt lat="44.49154" lon="0.73175">
        <ele>154.6</ele>
        <time>2018-05-16T22:36:40Z</time>
      </trkpt>
      <trkpt lat="44.49156" lon="0.73171">
        <ele>154.5</ele>
        <time>2018-05-16T22:36:42Z</time>
      </trkpt>
      <trkpt lat="44.49156" lon="0.73167">
        <ele>154.5</ele>
        <time>2018-05-16T22:36:45Z</time>
      </trkpt>
      <trkpt lat="44.49161" lon="0.73167">
        <ele>154.4</ele>
        <time>2018-05-16T22:36:47Z</time>
      </trkpt>
      <trkpt lat="44.49166" lon="0.73166">
        <ele>154.3</ele>
        <time>2018-05-16T22:36:49Z</time>
      </trkpt>
      <trkpt lat="44.49169" lon="0.73166">
        <ele>154.3</ele>
        <time>2018-05-16T22:36:50Z</time>
      </trkpt>
      <trkpt lat="44.49171" lon="0.73164">
        <ele>154.2</ele>
        <time>2018-05-16T22:36:53Z</time>
      </trkpt>
      <trkpt lat="44.49174" lon="0.73164">
        <ele>154.2</ele>
        <time>2018-05-16T22:36:55Z</time>
      </trkpt>
      <trkpt lat="44.49178" lon="0.73161">
        <ele>154.1</ele>
        <time>2018-05-16T22:36:57Z</time>
      </trkpt>
      <trkpt lat="44.49181" lon="0.7316">
        <ele>154.1</ele>
        <time>2018-05-16T22:37:00Z</time>
      </trkpt>
      <trkpt lat="44.49186" lon="0.73158">
        <ele>154</ele>
        <time>2018-05-16T22:37:03Z</time>
      </trkpt>
      <trkpt lat="44.49189" lon="0.73156">
        <ele>154</ele>
        <time>2018-05-16T22:37:06Z</time>
      </trkpt>
      <trkpt lat="44.49213" lon="0.73142">
        <ele>153.5</ele>
        <time>2018-05-16T22:37:28Z</time>
      </trkpt>
      <trkpt lat="44.49216" lon="0.7314">
        <ele>153.5</ele>
        <time>2018-05-16T22:37:31Z</time>
      </trkpt>
      <trkpt lat="44.49226" lon="0.73142">
        <ele>153.2</ele>
        <time>2018-05-16T22:37:41Z</time>
      </trkpt>
      <trkpt lat="44.49229" lon="0.73142">
        <ele>153.1</ele>
        <time>2018-05-16T22:37:43Z</time>
      </trkpt>
      <trkpt lat="44.49234" lon="0.73142">
        <ele>153</ele>
        <time>2018-05-16T22:37:46Z</time>
      </trkpt>
      <trkpt lat="44.49236" lon="0.73139">
        <ele>152.9</ele>
        <time>2018-05-16T22:37:49Z</time>
      </trkpt>
      <trkpt lat="44.49255" lon="0.7312">
        <ele>152.1</ele>
        <time>2018-05-16T22:38:06Z</time>
      </trkpt>
      <trkpt lat="44.4926" lon="0.73118">
        <ele>151.8</ele>
        <time>2018-05-16T22:38:08Z</time>
      </trkpt>
      <trkpt lat="44.49265" lon="0.73115">
        <ele>151.7</ele>
        <time>2018-05-16T22:38:10Z</time>
      </trkpt>
      <trkpt lat="44.49268" lon="0.73113">
        <ele>151.6</ele>
        <time>2018-05-16T22:38:11Z</time>
      </trkpt>
      <trkpt lat="44.4927" lon="0.7311">
        <ele>151.5</ele>
        <time>2018-05-16T22:38:12Z</time>
      </trkpt>
      <trkpt lat="44.49273" lon="0.73108">
        <ele>151.4</ele>
        <time>2018-05-16T22:38:14Z</time>
      </trkpt>
      <trkpt lat="44.49274" lon="0.73104">
        <ele>151.4</ele>
        <time>2018-05-16T22:38:16Z</time>
      </trkpt>
      <trkpt lat="44.49278" lon="0.731">
        <ele>151.3</ele>
        <time>2018-05-16T22:38:18Z</time>
      </trkpt>
      <trkpt lat="44.49282" lon="0.73097">
        <ele>151.3</ele>
        <time>2018-05-16T22:38:20Z</time>
      </trkpt>
      <trkpt lat="44.49286" lon="0.73097">
        <ele>151.2</ele>
        <time>2018-05-16T22:38:22Z</time>
      </trkpt>
      <trkpt lat="44.49289" lon="0.73096">
        <ele>151.1</ele>
        <time>2018-05-16T22:38:24Z</time>
      </trkpt>
      <trkpt lat="44.49292" lon="0.73096">
        <ele>151</ele>
        <time>2018-05-16T22:38:27Z</time>
      </trkpt>
      <trkpt lat="44.49295" lon="0.73096">
        <ele>150.9</ele>
        <time>2018-05-16T22:38:29Z</time>
      </trkpt>
      <trkpt lat="44.493" lon="0.73094">
        <ele>150.8</ele>
        <time>2018-05-16T22:38:31Z</time>
      </trkpt>
      <trkpt lat="44.49304" lon="0.73093">
        <ele>150.8</ele>
        <time>2018-05-16T22:38:33Z</time>
      </trkpt>
      <trkpt lat="44.49307" lon="0.73089">
        <ele>150.9</ele>
        <time>2018-05-16T22:38:34Z</time>
      </trkpt>
      <trkpt lat="44.49311" lon="0.73087">
        <ele>150.8</ele>
        <time>2018-05-16T22:38:36Z</time>
      </trkpt>
      <trkpt lat="44.49314" lon="0.73085">
        <ele>150.9</ele>
        <time>2018-05-16T22:38:38Z</time>
      </trkpt>
      <trkpt lat="44.49319" lon="0.73084">
        <ele>150.9</ele>
        <time>2018-05-16T22:38:40Z</time>
      </trkpt>
      <trkpt lat="44.49324" lon="0.73082">
        <ele>150.9</ele>
        <time>2018-05-16T22:38:42Z</time>
      </trkpt>
      <trkpt lat="44.49326" lon="0.7308">
        <ele>151</ele>
        <time>2018-05-16T22:38:43Z</time>
      </trkpt>
      <trkpt lat="44.49331" lon="0.73078">
        <ele>151</ele>
        <time>2018-05-16T22:38:44Z</time>
      </trkpt>
      <trkpt lat="44.49333" lon="0.73074">
        <ele>151.1</ele>
        <time>2018-05-16T22:38:45Z</time>
      </trkpt>
      <trkpt lat="44.49336" lon="0.73072">
        <ele>151.2</ele>
        <time>2018-05-16T22:38:46Z</time>
      </trkpt>
      <trkpt lat="44.49342" lon="0.73069">
        <ele>151.4</ele>
        <time>2018-05-16T22:38:47Z</time>
      </trkpt>
      <trkpt lat="44.49345" lon="0.73065">
        <ele>151.6</ele>
        <time>2018-05-16T22:38:48Z</time>
      </trkpt>
      <trkpt lat="44.49348" lon="0.73063">
        <ele>151.8</ele>
        <time>2018-05-16T22:38:49Z</time>
      </trkpt>
      <trkpt lat="44.49351" lon="0.73063">
        <ele>151.9</ele>
        <time>2018-05-16T22:38:50Z</time>
      </trkpt>
      <trkpt lat="44.49354" lon="0.7306">
        <ele>152.1</ele>
        <time>2018-05-16T22:38:51Z</time>
      </trkpt>
      <trkpt lat="44.49356" lon="0.73057">
        <ele>152.2</ele>
        <time>2018-05-16T22:38:52Z</time>
      </trkpt>
      <trkpt lat="44.4936" lon="0.73054">
        <ele>152.5</ele>
        <time>2018-05-16T22:38:53Z</time>
      </trkpt>
      <trkpt lat="44.49363" lon="0.73052">
        <ele>152.7</ele>
        <time>2018-05-16T22:38:54Z</time>
      </trkpt>
      <trkpt lat="44.49366" lon="0.73048">
        <ele>152.9</ele>
        <time>2018-05-16T22:38:55Z</time>
      </trkpt>
      <trkpt lat="44.4937" lon="0.73046">
        <ele>153</ele>
        <time>2018-05-16T22:38:56Z</time>
      </trkpt>
      <trkpt lat="44.49373" lon="0.73043">
        <ele>153.2</ele>
        <time>2018-05-16T22:38:57Z</time>
      </trkpt>
      <trkpt lat="44.49377" lon="0.73039">
        <ele>153.4</ele>
        <time>2018-05-16T22:38:58Z</time>
      </trkpt>
      <trkpt lat="44.4938" lon="0.73035">
        <ele>153.6</ele>
        <time>2018-05-16T22:38:59Z</time>
      </trkpt>
      <trkpt lat="44.49383" lon="0.73031">
        <ele>153.8</ele>
        <time>2018-05-16T22:39:00Z</time>
      </trkpt>
      <trkpt lat="44.49386" lon="0.73028">
        <ele>154.1</ele>
        <time>2018-05-16T22:39:01Z</time>
      </trkpt>
      <trkpt lat="44.49388" lon="0.73025">
        <ele>154.2</ele>
        <time>2018-05-16T22:39:02Z</time>
      </trkpt>
      <trkpt lat="44.49392" lon="0.73023">
        <ele>154.5</ele>
        <time>2018-05-16T22:39:03Z</time>
      </trkpt>
      <trkpt lat="44.49395" lon="0.73019">
        <ele>154.8</ele>
        <time>2018-05-16T22:39:04Z</time>
      </trkpt>
      <trkpt lat="44.49398" lon="0.73017">
        <ele>154.9</ele>
        <time>2018-05-16T22:39:05Z</time>
      </trkpt>
      <trkpt lat="44.49401" lon="0.73015">
        <ele>155.3</ele>
        <time>2018-05-16T22:39:06Z</time>
      </trkpt>
      <trkpt lat="44.49404" lon="0.73013">
        <ele>155.3</ele>
        <time>2018-05-16T22:39:07Z</time>
      </trkpt>
      <trkpt lat="44.49409" lon="0.73011">
        <ele>155.7</ele>
        <time>2018-05-16T22:39:09Z</time>
      </trkpt>
      <trkpt lat="44.49415" lon="0.73007">
        <ele>156.1</ele>
        <time>2018-05-16T22:39:11Z</time>
      </trkpt>
      <trkpt lat="44.49417" lon="0.73005">
        <ele>156.2</ele>
        <time>2018-05-16T22:39:12Z</time>
      </trkpt>
      <trkpt lat="44.49422" lon="0.73001">
        <ele>156.7</ele>
        <time>2018-05-16T22:39:14Z</time>
      </trkpt>
      <trkpt lat="44.49426" lon="0.72998">
        <ele>157</ele>
        <time>2018-05-16T22:39:16Z</time>
      </trkpt>
      <trkpt lat="44.49429" lon="0.72996">
        <ele>157.1</ele>
        <time>2018-05-16T22:39:17Z</time>
      </trkpt>
      <trkpt lat="44.49432" lon="0.72995">
        <ele>157.2</ele>
        <time>2018-05-16T22:39:18Z</time>
      </trkpt>
      <trkpt lat="44.49435" lon="0.72993">
        <ele>157.6</ele>
        <time>2018-05-16T22:39:19Z</time>
      </trkpt>
      <trkpt lat="44.49438" lon="0.7299">
        <ele>157.9</ele>
        <time>2018-05-16T22:39:20Z</time>
      </trkpt>
      <trkpt lat="44.49441" lon="0.72988">
        <ele>158</ele>
        <time>2018-05-16T22:39:21Z</time>
      </trkpt>
      <trkpt lat="44.49444" lon="0.72986">
        <ele>158.1</ele>
        <time>2018-05-16T22:39:22Z</time>
      </trkpt>
      <trkpt lat="44.49449" lon="0.72983">
        <ele>158.5</ele>
        <time>2018-05-16T22:39:23Z</time>
      </trkpt>
      <trkpt lat="44.49453" lon="0.72981">
        <ele>158.8</ele>
        <time>2018-05-16T22:39:24Z</time>
      </trkpt>
      <trkpt lat="44.49457" lon="0.72979">
        <ele>158.9</ele>
        <time>2018-05-16T22:39:25Z</time>
      </trkpt>
      <trkpt lat="44.4946" lon="0.72976">
        <ele>159.1</ele>
        <time>2018-05-16T22:39:26Z</time>
      </trkpt>
      <trkpt lat="44.49464" lon="0.72975">
        <ele>159.2</ele>
        <time>2018-05-16T22:39:27Z</time>
      </trkpt>
      <trkpt lat="44.49468" lon="0.72972">
        <ele>159.4</ele>
        <time>2018-05-16T22:39:28Z</time>
      </trkpt>
      <trkpt lat="44.49471" lon="0.72966">
        <ele>159.5</ele>
        <time>2018-05-16T22:39:29Z</time>
      </trkpt>
      <trkpt lat="44.49475" lon="0.72965">
        <ele>159.5</ele>
        <time>2018-05-16T22:39:30Z</time>
      </trkpt>
      <trkpt lat="44.49478" lon="0.72962">
        <ele>159.5</ele>
        <time>2018-05-16T22:39:31Z</time>
      </trkpt>
      <trkpt lat="44.49482" lon="0.7296">
        <ele>159.6</ele>
        <time>2018-05-16T22:39:32Z</time>
      </trkpt>
      <trkpt lat="44.49485" lon="0.72958">
        <ele>159.6</ele>
        <time>2018-05-16T22:39:33Z</time>
      </trkpt>
      <trkpt lat="44.49489" lon="0.72956">
        <ele>159.6</ele>
        <time>2018-05-16T22:39:34Z</time>
      </trkpt>
      <trkpt lat="44.49492" lon="0.72953">
        <ele>159.6</ele>
        <time>2018-05-16T22:39:35Z</time>
      </trkpt>
      <trkpt lat="44.49497" lon="0.7295">
        <ele>159.6</ele>
        <time>2018-05-16T22:39:36Z</time>
      </trkpt>
      <trkpt lat="44.49502" lon="0.72947">
        <ele>159.6</ele>
        <time>2018-05-16T22:39:37Z</time>
      </trkpt>
      <trkpt lat="44.49507" lon="0.72944">
        <ele>159.4</ele>
        <time>2018-05-16T22:39:38Z</time>
      </trkpt>
      <trkpt lat="44.49511" lon="0.72942">
        <ele>159.4</ele>
        <time>2018-05-16T22:39:39Z</time>
      </trkpt>
      <trkpt lat="44.49516" lon="0.7294">
        <ele>159.3</ele>
        <time>2018-05-16T22:39:40Z</time>
      </trkpt>
      <trkpt lat="44.49519" lon="0.72939">
        <ele>159.1</ele>
        <time>2018-05-16T22:39:41Z</time>
      </trkpt>
      <trkpt lat="44.49523" lon="0.7293">
        <ele>159</ele>
        <time>2018-05-16T22:39:42Z</time>
      </trkpt>
      <trkpt lat="44.49528" lon="0.72926">
        <ele>158.9</ele>
        <time>2018-05-16T22:39:43Z</time>
      </trkpt>
      <trkpt lat="44.49532" lon="0.72923">
        <ele>158.5</ele>
        <time>2018-05-16T22:39:44Z</time>
      </trkpt>
      <trkpt lat="44.49536" lon="0.72921">
        <ele>158.3</ele>
        <time>2018-05-16T22:39:45Z</time>
      </trkpt>
      <trkpt lat="44.49541" lon="0.7292">
        <ele>157.9</ele>
        <time>2018-05-16T22:39:46Z</time>
      </trkpt>
      <trkpt lat="44.49545" lon="0.7292">
        <ele>157.7</ele>
        <time>2018-05-16T22:39:47Z</time>
      </trkpt>
      <trkpt lat="44.49548" lon="0.72921">
        <ele>157.5</ele>
        <time>2018-05-16T22:39:48Z</time>
      </trkpt>
      <trkpt lat="44.49552" lon="0.72921">
        <ele>157.4</ele>
        <time>2018-05-16T22:39:49Z</time>
      </trkpt>
      <trkpt lat="44.49556" lon="0.72921">
        <ele>157</ele>
        <time>2018-05-16T22:39:50Z</time>
      </trkpt>
      <trkpt lat="44.4956" lon="0.72921">
        <ele>156.9</ele>
        <time>2018-05-16T22:39:51Z</time>
      </trkpt>
      <trkpt lat="44.49564" lon="0.7292">
        <ele>156.7</ele>
        <time>2018-05-16T22:39:52Z</time>
      </trkpt>
      <trkpt lat="44.49567" lon="0.7292">
        <ele>156.5</ele>
        <time>2018-05-16T22:39:53Z</time>
      </trkpt>
      <trkpt lat="44.4957" lon="0.72916">
        <ele>156.5</ele>
        <time>2018-05-16T22:39:54Z</time>
      </trkpt>
      <trkpt lat="44.49573" lon="0.72913">
        <ele>156.5</ele>
        <time>2018-05-16T22:39:55Z</time>
      </trkpt>
      <trkpt lat="44.49577" lon="0.7291">
        <ele>156.3</ele>
        <time>2018-05-16T22:39:56Z</time>
      </trkpt>
      <trkpt lat="44.49582" lon="0.72909">
        <ele>156.4</ele>
        <time>2018-05-16T22:39:57Z</time>
      </trkpt>
      <trkpt lat="44.49586" lon="0.72906">
        <ele>156.1</ele>
        <time>2018-05-16T22:39:58Z</time>
      </trkpt>
      <trkpt lat="44.4959" lon="0.72904">
        <ele>156.3</ele>
        <time>2018-05-16T22:39:59Z</time>
      </trkpt>
      <trkpt lat="44.49595" lon="0.72902">
        <ele>156.2</ele>
        <time>2018-05-16T22:40:00Z</time>
      </trkpt>
      <trkpt lat="44.49598" lon="0.72899">
        <ele>156.5</ele>
        <time>2018-05-16T22:40:01Z</time>
      </trkpt>
      <trkpt lat="44.49603" lon="0.72898">
        <ele>156.4</ele>
        <time>2018-05-16T22:40:02Z</time>
      </trkpt>
      <trkpt lat="44.49608" lon="0.72898">
        <ele>156.3</ele>
        <time>2018-05-16T22:40:03Z</time>
      </trkpt>
      <trkpt lat="44.49614" lon="0.72896">
        <ele>156.4</ele>
        <time>2018-05-16T22:40:04Z</time>
      </trkpt>
      <trkpt lat="44.49619" lon="0.72895">
        <ele>156.4</ele>
        <time>2018-05-16T22:40:05Z</time>
      </trkpt>
      <trkpt lat="44.49625" lon="0.72894">
        <ele>156.2</ele>
        <time>2018-05-16T22:40:06Z</time>
      </trkpt>
      <trkpt lat="44.4963" lon="0.72892">
        <ele>156.4</ele>
        <time>2018-05-16T22:40:07Z</time>
      </trkpt>
      <trkpt lat="44.49636" lon="0.72892">
        <ele>156.1</ele>
        <time>2018-05-16T22:40:08Z</time>
      </trkpt>
      <trkpt lat="44.4964" lon="0.7289">
        <ele>156</ele>
        <time>2018-05-16T22:40:09Z</time>
      </trkpt>
      <trkpt lat="44.49646" lon="0.72889">
        <ele>155.7</ele>
        <time>2018-05-16T22:40:10Z</time>
      </trkpt>
      <trkpt lat="44.49651" lon="0.72887">
        <ele>155.6</ele>
        <time>2018-05-16T22:40:11Z</time>
      </trkpt>
      <trkpt lat="44.49655" lon="0.72885">
        <ele>155.5</ele>
        <time>2018-05-16T22:40:12Z</time>
      </trkpt>
      <trkpt lat="44.49661" lon="0.72879">
        <ele>155.5</ele>
        <time>2018-05-16T22:40:13Z</time>
      </trkpt>
      <trkpt lat="44.49665" lon="0.72878">
        <ele>155.6</ele>
        <time>2018-05-16T22:40:14Z</time>
      </trkpt>
      <trkpt lat="44.49669" lon="0.72878">
        <ele>155.4</ele>
        <time>2018-05-16T22:40:15Z</time>
      </trkpt>
      <trkpt lat="44.49672" lon="0.72877">
        <ele>155.1</ele>
        <time>2018-05-16T22:40:16Z</time>
      </trkpt>
      <trkpt lat="44.49677" lon="0.72876">
        <ele>155</ele>
        <time>2018-05-16T22:40:17Z</time>
      </trkpt>
      <trkpt lat="44.49682" lon="0.72876">
        <ele>154.8</ele>
        <time>2018-05-16T22:40:18Z</time>
      </trkpt>
      <trkpt lat="44.49686" lon="0.72875">
        <ele>154.7</ele>
        <time>2018-05-16T22:40:19Z</time>
      </trkpt>
      <trkpt lat="44.49689" lon="0.72874">
        <ele>154.9</ele>
        <time>2018-05-16T22:40:20Z</time>
      </trkpt>
      <trkpt lat="44.49694" lon="0.72874">
        <ele>154.8</ele>
        <time>2018-05-16T22:40:21Z</time>
      </trkpt>
      <trkpt lat="44.49698" lon="0.72873">
        <ele>154.8</ele>
        <time>2018-05-16T22:40:22Z</time>
      </trkpt>
      <trkpt lat="44.49702" lon="0.72873">
        <ele>154.7</ele>
        <time>2018-05-16T22:40:23Z</time>
      </trkpt>
      <trkpt lat="44.49705" lon="0.72874">
        <ele>154.7</ele>
        <time>2018-05-16T22:40:24Z</time>
      </trkpt>
      <trkpt lat="44.49709" lon="0.72874">
        <ele>154.6</ele>
        <time>2018-05-16T22:40:25Z</time>
      </trkpt>
      <trkpt lat="44.49714" lon="0.72875">
        <ele>154.6</ele>
        <time>2018-05-16T22:40:26Z</time>
      </trkpt>
      <trkpt lat="44.49718" lon="0.72876">
        <ele>154.4</ele>
        <time>2018-05-16T22:40:27Z</time>
      </trkpt>
      <trkpt lat="44.49721" lon="0.72875">
        <ele>154.3</ele>
        <time>2018-05-16T22:40:28Z</time>
      </trkpt>
      <trkpt lat="44.49726" lon="0.72875">
        <ele>154.3</ele>
        <time>2018-05-16T22:40:29Z</time>
      </trkpt>
      <trkpt lat="44.4973" lon="0.72875">
        <ele>154.3</ele>
        <time>2018-05-16T22:40:30Z</time>
      </trkpt>
      <trkpt lat="44.49735" lon="0.72875">
        <ele>154.3</ele>
        <time>2018-05-16T22:40:31Z</time>
      </trkpt>
      <trkpt lat="44.49741" lon="0.72877">
        <ele>154.4</ele>
        <time>2018-05-16T22:40:32Z</time>
      </trkpt>
      <trkpt lat="44.49747" lon="0.72874">
        <ele>154.7</ele>
        <time>2018-05-16T22:40:33Z</time>
      </trkpt>
      <trkpt lat="44.49752" lon="0.72876">
        <ele>154.7</ele>
        <time>2018-05-16T22:40:34Z</time>
      </trkpt>
      <trkpt lat="44.49755" lon="0.72876">
        <ele>155</ele>
        <time>2018-05-16T22:40:35Z</time>
      </trkpt>
      <trkpt lat="44.49758" lon="0.72875">
        <ele>155.1</ele>
        <time>2018-05-16T22:40:36Z</time>
      </trkpt>
      <trkpt lat="44.49765" lon="0.72875">
        <ele>155.4</ele>
        <time>2018-05-16T22:40:37Z</time>
      </trkpt>
      <trkpt lat="44.49768" lon="0.72875">
        <ele>155.6</ele>
        <time>2018-05-16T22:40:38Z</time>
      </trkpt>
      <trkpt lat="44.49776" lon="0.72878">
        <ele>156</ele>
        <time>2018-05-16T22:40:40Z</time>
      </trkpt>
      <trkpt lat="44.4978" lon="0.72878">
        <ele>156.3</ele>
        <time>2018-05-16T22:40:42Z</time>
      </trkpt>
      <trkpt lat="44.49783" lon="0.72877">
        <ele>156.5</ele>
        <time>2018-05-16T22:40:43Z</time>
      </trkpt>
      <trkpt lat="44.49787" lon="0.72876">
        <ele>156.7</ele>
        <time>2018-05-16T22:40:44Z</time>
      </trkpt>
      <trkpt lat="44.4979" lon="0.72875">
        <ele>156.9</ele>
        <time>2018-05-16T22:40:45Z</time>
      </trkpt>
      <trkpt lat="44.49794" lon="0.72874">
        <ele>157.2</ele>
        <time>2018-05-16T22:40:46Z</time>
      </trkpt>
      <trkpt lat="44.498" lon="0.72873">
        <ele>157.5</ele>
        <time>2018-05-16T22:40:47Z</time>
      </trkpt>
      <trkpt lat="44.49804" lon="0.72872">
        <ele>157.9</ele>
        <time>2018-05-16T22:40:48Z</time>
      </trkpt>
      <trkpt lat="44.49808" lon="0.7287">
        <ele>158.2</ele>
        <time>2018-05-16T22:40:49Z</time>
      </trkpt>
      <trkpt lat="44.49812" lon="0.72868">
        <ele>158.3</ele>
        <time>2018-05-16T22:40:50Z</time>
      </trkpt>
      <trkpt lat="44.49816" lon="0.72868">
        <ele>158.7</ele>
        <time>2018-05-16T22:40:51Z</time>
      </trkpt>
      <trkpt lat="44.49821" lon="0.72867">
        <ele>158.8</ele>
        <time>2018-05-16T22:40:52Z</time>
      </trkpt>
      <trkpt lat="44.49826" lon="0.72867">
        <ele>159.1</ele>
        <time>2018-05-16T22:40:53Z</time>
      </trkpt>
      <trkpt lat="44.4983" lon="0.72866">
        <ele>159.3</ele>
        <time>2018-05-16T22:40:54Z</time>
      </trkpt>
      <trkpt lat="44.49834" lon="0.72864">
        <ele>159.6</ele>
        <time>2018-05-16T22:40:55Z</time>
      </trkpt>
      <trkpt lat="44.49838" lon="0.72861">
        <ele>159.7</ele>
        <time>2018-05-16T22:40:56Z</time>
      </trkpt>
      <trkpt lat="44.49841" lon="0.7286">
        <ele>159.9</ele>
        <time>2018-05-16T22:40:57Z</time>
      </trkpt>
      <trkpt lat="44.49844" lon="0.72858">
        <ele>160</ele>
        <time>2018-05-16T22:40:58Z</time>
      </trkpt>
      <trkpt lat="44.49848" lon="0.72854">
        <ele>160.1</ele>
        <time>2018-05-16T22:40:59Z</time>
      </trkpt>
      <trkpt lat="44.49851" lon="0.72852">
        <ele>160.1</ele>
        <time>2018-05-16T22:41:00Z</time>
      </trkpt>
      <trkpt lat="44.49854" lon="0.72851">
        <ele>160.3</ele>
        <time>2018-05-16T22:41:01Z</time>
      </trkpt>
      <trkpt lat="44.49857" lon="0.72851">
        <ele>160.4</ele>
        <time>2018-05-16T22:41:02Z</time>
      </trkpt>
      <trkpt lat="44.49862" lon="0.72851">
        <ele>160.5</ele>
        <time>2018-05-16T22:41:03Z</time>
      </trkpt>
      <trkpt lat="44.49865" lon="0.72852">
        <ele>160.8</ele>
        <time>2018-05-16T22:41:04Z</time>
      </trkpt>
      <trkpt lat="44.4987" lon="0.72852">
        <ele>160.9</ele>
        <time>2018-05-16T22:41:05Z</time>
      </trkpt>
      <trkpt lat="44.49874" lon="0.7285">
        <ele>161</ele>
        <time>2018-05-16T22:41:06Z</time>
      </trkpt>
      <trkpt lat="44.49875" lon="0.72846">
        <ele>160.9</ele>
        <time>2018-05-16T22:41:07Z</time>
      </trkpt>
      <trkpt lat="44.49878" lon="0.72844">
        <ele>160.9</ele>
        <time>2018-05-16T22:41:08Z</time>
      </trkpt>
      <trkpt lat="44.49881" lon="0.72843">
        <ele>160.9</ele>
        <time>2018-05-16T22:41:09Z</time>
      </trkpt>
      <trkpt lat="44.49884" lon="0.72842">
        <ele>161</ele>
        <time>2018-05-16T22:41:10Z</time>
      </trkpt>
      <trkpt lat="44.49887" lon="0.72842">
        <ele>161.1</ele>
        <time>2018-05-16T22:41:11Z</time>
      </trkpt>
      <trkpt lat="44.49892" lon="0.72842">
        <ele>161.2</ele>
        <time>2018-05-16T22:41:13Z</time>
      </trkpt>
      <trkpt lat="44.49896" lon="0.72842">
        <ele>161.4</ele>
        <time>2018-05-16T22:41:15Z</time>
      </trkpt>
      <trkpt lat="44.49902" lon="0.7284">
        <ele>161.4</ele>
        <time>2018-05-16T22:41:17Z</time>
      </trkpt>
      <trkpt lat="44.49907" lon="0.7284">
        <ele>161.5</ele>
        <time>2018-05-16T22:41:19Z</time>
      </trkpt>
      <trkpt lat="44.4991" lon="0.72842">
        <ele>161.7</ele>
        <time>2018-05-16T22:41:20Z</time>
      </trkpt>
      <trkpt lat="44.49913" lon="0.7284">
        <ele>161.7</ele>
        <time>2018-05-16T22:41:23Z</time>
      </trkpt>
      <trkpt lat="44.49915" lon="0.72844">
        <ele>161.9</ele>
        <time>2018-05-16T22:41:26Z</time>
      </trkpt>
      <trkpt lat="44.49918" lon="0.72849">
        <ele>162.3</ele>
        <time>2018-05-16T22:41:29Z</time>
      </trkpt>
      <trkpt lat="44.49922" lon="0.72858">
        <ele>162.7</ele>
        <time>2018-05-16T22:41:32Z</time>
      </trkpt>
      <trkpt lat="44.49927" lon="0.72863">
        <ele>163.2</ele>
        <time>2018-05-16T22:41:34Z</time>
      </trkpt>
      <trkpt lat="44.49939" lon="0.72875">
        <ele>164.5</ele>
        <time>2018-05-16T22:41:37Z</time>
      </trkpt>
      <trkpt lat="44.49947" lon="0.72884">
        <ele>165.4</ele>
        <time>2018-05-16T22:41:39Z</time>
      </trkpt>
      <trkpt lat="44.49955" lon="0.72892">
        <ele>166.5</ele>
        <time>2018-05-16T22:42:10Z</time>
      </trkpt>
      <trkpt lat="44.49962" lon="0.72901">
        <ele>167.3</ele>
        <time>2018-05-16T22:42:12Z</time>
      </trkpt>
      <trkpt lat="44.4997" lon="0.72909">
        <ele>168.3</ele>
        <time>2018-05-16T22:42:13Z</time>
      </trkpt>
      <trkpt lat="44.49973" lon="0.72912">
        <ele>168.5</ele>
        <time>2018-05-16T22:42:14Z</time>
      </trkpt>
      <trkpt lat="44.49976" lon="0.72915">
        <ele>168.7</ele>
        <time>2018-05-16T22:42:15Z</time>
      </trkpt>
      <trkpt lat="44.49981" lon="0.7292">
        <ele>168.9</ele>
        <time>2018-05-16T22:42:17Z</time>
      </trkpt>
      <trkpt lat="44.49985" lon="0.72923">
        <ele>169.1</ele>
        <time>2018-05-16T22:42:19Z</time>
      </trkpt>
      <trkpt lat="44.49989" lon="0.72927">
        <ele>169.1</ele>
        <time>2018-05-16T22:42:21Z</time>
      </trkpt>
      <trkpt lat="44.4999" lon="0.7293">
        <ele>169.1</ele>
        <time>2018-05-16T22:42:22Z</time>
      </trkpt>
      <trkpt lat="44.49993" lon="0.72933">
        <ele>169.1</ele>
        <time>2018-05-16T22:42:23Z</time>
      </trkpt>
      <trkpt lat="44.49995" lon="0.72935">
        <ele>169</ele>
        <time>2018-05-16T22:42:24Z</time>
      </trkpt>
      <trkpt lat="44.49999" lon="0.72937">
        <ele>168.9</ele>
        <time>2018-05-16T22:42:25Z</time>
      </trkpt>
      <trkpt lat="44.50003" lon="0.72938">
        <ele>168.8</ele>
        <time>2018-05-16T22:42:26Z</time>
      </trkpt>
      <trkpt lat="44.50008" lon="0.7294">
        <ele>168.5</ele>
        <time>2018-05-16T22:42:27Z</time>
      </trkpt>
      <trkpt lat="44.50013" lon="0.72941">
        <ele>168.2</ele>
        <time>2018-05-16T22:42:28Z</time>
      </trkpt>
      <trkpt lat="44.50017" lon="0.72942">
        <ele>168</ele>
        <time>2018-05-16T22:42:29Z</time>
      </trkpt>
      <trkpt lat="44.50023" lon="0.72944">
        <ele>167.7</ele>
        <time>2018-05-16T22:42:30Z</time>
      </trkpt>
      <trkpt lat="44.50029" lon="0.72946">
        <ele>167.3</ele>
        <time>2018-05-16T22:42:31Z</time>
      </trkpt>
      <trkpt lat="44.50034" lon="0.72948">
        <ele>166.9</ele>
        <time>2018-05-16T22:42:32Z</time>
      </trkpt>
      <trkpt lat="44.50039" lon="0.7295">
        <ele>166.7</ele>
        <time>2018-05-16T22:42:33Z</time>
      </trkpt>
      <trkpt lat="44.50044" lon="0.72952">
        <ele>166.3</ele>
        <time>2018-05-16T22:42:34Z</time>
      </trkpt>
      <trkpt lat="44.50048" lon="0.72953">
        <ele>166.1</ele>
        <time>2018-05-16T22:42:35Z</time>
      </trkpt>
      <trkpt lat="44.50053" lon="0.72954">
        <ele>165.6</ele>
        <time>2018-05-16T22:42:36Z</time>
      </trkpt>
      <trkpt lat="44.50057" lon="0.72955">
        <ele>165.4</ele>
        <time>2018-05-16T22:42:37Z</time>
      </trkpt>
      <trkpt lat="44.50062" lon="0.72956">
        <ele>164.9</ele>
        <time>2018-05-16T22:42:38Z</time>
      </trkpt>
      <trkpt lat="44.50066" lon="0.72957">
        <ele>164.8</ele>
        <time>2018-05-16T22:42:39Z</time>
      </trkpt>
      <trkpt lat="44.50071" lon="0.72958">
        <ele>164.4</ele>
        <time>2018-05-16T22:42:40Z</time>
      </trkpt>
      <trkpt lat="44.50074" lon="0.7296">
        <ele>164.2</ele>
        <time>2018-05-16T22:42:41Z</time>
      </trkpt>
      <trkpt lat="44.50078" lon="0.72963">
        <ele>164</ele>
        <time>2018-05-16T22:42:42Z</time>
      </trkpt>
      <trkpt lat="44.50082" lon="0.72964">
        <ele>163.8</ele>
        <time>2018-05-16T22:42:43Z</time>
      </trkpt>
      <trkpt lat="44.50086" lon="0.72964">
        <ele>163.3</ele>
        <time>2018-05-16T22:42:45Z</time>
      </trkpt>
      <trkpt lat="44.50091" lon="0.72962">
        <ele>163.1</ele>
        <time>2018-05-16T22:42:47Z</time>
      </trkpt>
      <trkpt lat="44.50094" lon="0.72962">
        <ele>162.9</ele>
        <time>2018-05-16T22:42:48Z</time>
      </trkpt>
      <trkpt lat="44.50097" lon="0.72962">
        <ele>162.7</ele>
        <time>2018-05-16T22:42:49Z</time>
      </trkpt>
      <trkpt lat="44.50102" lon="0.7296">
        <ele>162.1</ele>
        <time>2018-05-16T22:42:51Z</time>
      </trkpt>
      <trkpt lat="44.50106" lon="0.72958">
        <ele>161.9</ele>
        <time>2018-05-16T22:42:53Z</time>
      </trkpt>
      <trkpt lat="44.50109" lon="0.72957">
        <ele>161.6</ele>
        <time>2018-05-16T22:42:54Z</time>
      </trkpt>
      <trkpt lat="44.50113" lon="0.72956">
        <ele>161</ele>
        <time>2018-05-16T22:42:56Z</time>
      </trkpt>
      <trkpt lat="44.50118" lon="0.72955">
        <ele>160.7</ele>
        <time>2018-05-16T22:42:58Z</time>
      </trkpt>
      <trkpt lat="44.50122" lon="0.72953">
        <ele>160.4</ele>
        <time>2018-05-16T22:43:00Z</time>
      </trkpt>
      <trkpt lat="44.50125" lon="0.72952">
        <ele>160.2</ele>
        <time>2018-05-16T22:43:01Z</time>
      </trkpt>
      <trkpt lat="44.5013" lon="0.72953">
        <ele>159.7</ele>
        <time>2018-05-16T22:43:03Z</time>
      </trkpt>
      <trkpt lat="44.50133" lon="0.72951">
        <ele>159.7</ele>
        <time>2018-05-16T22:43:05Z</time>
      </trkpt>
      <trkpt lat="44.50137" lon="0.72951">
        <ele>159.8</ele>
        <time>2018-05-16T22:43:07Z</time>
      </trkpt>
      <trkpt lat="44.50143" lon="0.72949">
        <ele>159.8</ele>
        <time>2018-05-16T22:43:09Z</time>
      </trkpt>
      <trkpt lat="44.50145" lon="0.72946">
        <ele>159.9</ele>
        <time>2018-05-16T22:43:10Z</time>
      </trkpt>
      <trkpt lat="44.50147" lon="0.72945">
        <ele>159.9</ele>
        <time>2018-05-16T22:43:11Z</time>
      </trkpt>
      <trkpt lat="44.50152" lon="0.72945">
        <ele>159.9</ele>
        <time>2018-05-16T22:43:13Z</time>
      </trkpt>
      <trkpt lat="44.50155" lon="0.72945">
        <ele>160</ele>
        <time>2018-05-16T22:43:14Z</time>
      </trkpt>
      <trkpt lat="44.50159" lon="0.72945">
        <ele>160</ele>
        <time>2018-05-16T22:43:15Z</time>
      </trkpt>
      <trkpt lat="44.50162" lon="0.72946">
        <ele>160</ele>
        <time>2018-05-16T22:43:16Z</time>
      </trkpt>
      <trkpt lat="44.50167" lon="0.72946">
        <ele>160.1</ele>
        <time>2018-05-16T22:43:18Z</time>
      </trkpt>
      <trkpt lat="44.50172" lon="0.72949">
        <ele>160.1</ele>
        <time>2018-05-16T22:43:20Z</time>
      </trkpt>
      <trkpt lat="44.50175" lon="0.72948">
        <ele>160.2</ele>
        <time>2018-05-16T22:43:21Z</time>
      </trkpt>
      <trkpt lat="44.5018" lon="0.72947">
        <ele>160.2</ele>
        <time>2018-05-16T22:43:23Z</time>
      </trkpt>
      <trkpt lat="44.50183" lon="0.72947">
        <ele>160.3</ele>
        <time>2018-05-16T22:43:24Z</time>
      </trkpt>
      <trkpt lat="44.50186" lon="0.72947">
        <ele>160.3</ele>
        <time>2018-05-16T22:43:25Z</time>
      </trkpt>
      <trkpt lat="44.50189" lon="0.72947">
        <ele>160.1</ele>
        <time>2018-05-16T22:43:26Z</time>
      </trkpt>
      <trkpt lat="44.50192" lon="0.72945">
        <ele>160</ele>
        <time>2018-05-16T22:43:27Z</time>
      </trkpt>
      <trkpt lat="44.50196" lon="0.72943">
        <ele>159.8</ele>
        <time>2018-05-16T22:43:28Z</time>
      </trkpt>
      <trkpt lat="44.502" lon="0.7294">
        <ele>159.7</ele>
        <time>2018-05-16T22:43:30Z</time>
      </trkpt>
      <trkpt lat="44.50203" lon="0.72938">
        <ele>159.7</ele>
        <time>2018-05-16T22:43:32Z</time>
      </trkpt>
      <trkpt lat="44.50207" lon="0.72938">
        <ele>159.6</ele>
        <time>2018-05-16T22:43:34Z</time>
      </trkpt>
      <trkpt lat="44.50209" lon="0.72937">
        <ele>159.5</ele>
        <time>2018-05-16T22:43:35Z</time>
      </trkpt>
      <trkpt lat="44.50212" lon="0.72936">
        <ele>159.3</ele>
        <time>2018-05-16T22:43:36Z</time>
      </trkpt>
      <trkpt lat="44.50214" lon="0.72933">
        <ele>159.4</ele>
        <time>2018-05-16T22:43:37Z</time>
      </trkpt>
      <trkpt lat="44.50218" lon="0.72932">
        <ele>159.3</ele>
        <time>2018-05-16T22:43:38Z</time>
      </trkpt>
      <trkpt lat="44.50223" lon="0.72931">
        <ele>159.1</ele>
        <time>2018-05-16T22:43:39Z</time>
      </trkpt>
      <trkpt lat="44.50227" lon="0.72931">
        <ele>158.8</ele>
        <time>2018-05-16T22:43:40Z</time>
      </trkpt>
      <trkpt lat="44.50233" lon="0.72931">
        <ele>158.6</ele>
        <time>2018-05-16T22:43:41Z</time>
      </trkpt>
      <trkpt lat="44.50238" lon="0.7293">
        <ele>158.7</ele>
        <time>2018-05-16T22:43:42Z</time>
      </trkpt>
      <trkpt lat="44.50243" lon="0.72927">
        <ele>158.5</ele>
        <time>2018-05-16T22:43:43Z</time>
      </trkpt>
      <trkpt lat="44.50248" lon="0.72928">
        <ele>158.3</ele>
        <time>2018-05-16T22:43:44Z</time>
      </trkpt>
      <trkpt lat="44.50253" lon="0.72927">
        <ele>158.2</ele>
        <time>2018-05-16T22:43:45Z</time>
      </trkpt>
      <trkpt lat="44.50257" lon="0.72926">
        <ele>158.2</ele>
        <time>2018-05-16T22:43:46Z</time>
      </trkpt>
      <trkpt lat="44.50262" lon="0.72925">
        <ele>158.2</ele>
        <time>2018-05-16T22:43:47Z</time>
      </trkpt>
      <trkpt lat="44.50265" lon="0.72921">
        <ele>158.3</ele>
        <time>2018-05-16T22:43:48Z</time>
      </trkpt>
      <trkpt lat="44.50267" lon="0.72919">
        <ele>158.2</ele>
        <time>2018-05-16T22:43:49Z</time>
      </trkpt>
      <trkpt lat="44.5027" lon="0.72916">
        <ele>158.3</ele>
        <time>2018-05-16T22:43:50Z</time>
      </trkpt>
      <trkpt lat="44.50275" lon="0.72916">
        <ele>158.2</ele>
        <time>2018-05-16T22:43:52Z</time>
      </trkpt>
      <trkpt lat="44.50281" lon="0.72914">
        <ele>158.1</ele>
        <time>2018-05-16T22:43:54Z</time>
      </trkpt>
      <trkpt lat="44.50285" lon="0.72913">
        <ele>158</ele>
        <time>2018-05-16T22:43:55Z</time>
      </trkpt>
      <trkpt lat="44.50288" lon="0.72913">
        <ele>158.1</ele>
        <time>2018-05-16T22:43:56Z</time>
      </trkpt>
      <trkpt lat="44.50291" lon="0.72913">
        <ele>158</ele>
        <time>2018-05-16T22:43:57Z</time>
      </trkpt>
      <trkpt lat="44.50294" lon="0.72912">
        <ele>158</ele>
        <time>2018-05-16T22:43:59Z</time>
      </trkpt>
      <trkpt lat="44.50306" lon="0.72903">
        <ele>158</ele>
        <time>2018-05-16T22:44:08Z</time>
      </trkpt>
      <trkpt lat="44.5031" lon="0.72902">
        <ele>157.9</ele>
        <time>2018-05-16T22:44:10Z</time>
      </trkpt>
      <trkpt lat="44.50313" lon="0.72903">
        <ele>157.9</ele>
        <time>2018-05-16T22:44:11Z</time>
      </trkpt>
      <trkpt lat="44.50317" lon="0.72901">
        <ele>157.9</ele>
        <time>2018-05-16T22:44:13Z</time>
      </trkpt>
      <trkpt lat="44.50319" lon="0.72897">
        <ele>157.9</ele>
        <time>2018-05-16T22:44:15Z</time>
      </trkpt>
      <trkpt lat="44.50322" lon="0.72896">
        <ele>158</ele>
        <time>2018-05-16T22:44:17Z</time>
      </trkpt>
      <trkpt lat="44.50325" lon="0.72896">
        <ele>157.9</ele>
        <time>2018-05-16T22:44:18Z</time>
      </trkpt>
      <trkpt lat="44.50331" lon="0.72898">
        <ele>158</ele>
        <time>2018-05-16T22:44:20Z</time>
      </trkpt>
      <trkpt lat="44.50334" lon="0.72899">
        <ele>158.1</ele>
        <time>2018-05-16T22:44:21Z</time>
      </trkpt>
      <trkpt lat="44.50339" lon="0.72902">
        <ele>158</ele>
        <time>2018-05-16T22:44:23Z</time>
      </trkpt>
      <trkpt lat="44.50341" lon="0.72903">
        <ele>158.1</ele>
        <time>2018-05-16T22:44:24Z</time>
      </trkpt>
      <trkpt lat="44.50344" lon="0.72905">
        <ele>158</ele>
        <time>2018-05-16T22:44:25Z</time>
      </trkpt>
      <trkpt lat="44.50349" lon="0.72906">
        <ele>158.1</ele>
        <time>2018-05-16T22:44:27Z</time>
      </trkpt>
      <trkpt lat="44.50352" lon="0.72908">
        <ele>158.2</ele>
        <time>2018-05-16T22:44:28Z</time>
      </trkpt>
      <trkpt lat="44.50356" lon="0.72908">
        <ele>158.2</ele>
        <time>2018-05-16T22:44:30Z</time>
      </trkpt>
      <trkpt lat="44.5036" lon="0.72906">
        <ele>158.3</ele>
        <time>2018-05-16T22:44:33Z</time>
      </trkpt>
      <trkpt lat="44.50363" lon="0.72906">
        <ele>158.2</ele>
        <time>2018-05-16T22:44:35Z</time>
      </trkpt>
      <trkpt lat="44.50366" lon="0.72907">
        <ele>158.2</ele>
        <time>2018-05-16T22:44:36Z</time>
      </trkpt>
      <trkpt lat="44.50369" lon="0.7291">
        <ele>158.1</ele>
        <time>2018-05-16T22:44:37Z</time>
      </trkpt>
      <trkpt lat="44.50373" lon="0.72912">
        <ele>158</ele>
        <time>2018-05-16T22:44:38Z</time>
      </trkpt>
      <trkpt lat="44.50376" lon="0.72914">
        <ele>158</ele>
        <time>2018-05-16T22:44:39Z</time>
      </trkpt>
      <trkpt lat="44.50379" lon="0.72916">
        <ele>157.9</ele>
        <time>2018-05-16T22:44:40Z</time>
      </trkpt>
      <trkpt lat="44.50384" lon="0.72917">
        <ele>157.9</ele>
        <time>2018-05-16T22:44:41Z</time>
      </trkpt>
      <trkpt lat="44.50387" lon="0.7292">
        <ele>157.8</ele>
        <time>2018-05-16T22:44:42Z</time>
      </trkpt>
      <trkpt lat="44.5039" lon="0.72922">
        <ele>157.7</ele>
        <time>2018-05-16T22:44:43Z</time>
      </trkpt>
      <trkpt lat="44.50393" lon="0.72924">
        <ele>157.7</ele>
        <time>2018-05-16T22:44:44Z</time>
      </trkpt>
      <trkpt lat="44.50397" lon="0.72926">
        <ele>157.6</ele>
        <time>2018-05-16T22:44:45Z</time>
      </trkpt>
      <trkpt lat="44.50403" lon="0.72927">
        <ele>157.5</ele>
        <time>2018-05-16T22:44:46Z</time>
      </trkpt>
      <trkpt lat="44.50408" lon="0.72929">
        <ele>157.3</ele>
        <time>2018-05-16T22:44:47Z</time>
      </trkpt>
      <trkpt lat="44.50413" lon="0.7293">
        <ele>157.3</ele>
        <time>2018-05-16T22:44:48Z</time>
      </trkpt>
      <trkpt lat="44.50417" lon="0.7293">
        <ele>157.2</ele>
        <time>2018-05-16T22:44:49Z</time>
      </trkpt>
      <trkpt lat="44.50422" lon="0.72927">
        <ele>157</ele>
        <time>2018-05-16T22:44:50Z</time>
      </trkpt>
      <trkpt lat="44.50425" lon="0.72923">
        <ele>157.3</ele>
        <time>2018-05-16T22:44:51Z</time>
      </trkpt>
      <trkpt lat="44.50427" lon="0.72919">
        <ele>157.7</ele>
        <time>2018-05-16T22:44:52Z</time>
      </trkpt>
      <trkpt lat="44.5043" lon="0.72913">
        <ele>158</ele>
        <time>2018-05-16T22:44:53Z</time>
      </trkpt>
      <trkpt lat="44.50432" lon="0.72908">
        <ele>158.3</ele>
        <time>2018-05-16T22:44:54Z</time>
      </trkpt>
      <trkpt lat="44.50434" lon="0.72902">
        <ele>158.6</ele>
        <time>2018-05-16T22:44:55Z</time>
      </trkpt>
      <trkpt lat="44.50436" lon="0.72897">
        <ele>159</ele>
        <time>2018-05-16T22:44:56Z</time>
      </trkpt>
      <trkpt lat="44.50438" lon="0.72891">
        <ele>159.3</ele>
        <time>2018-05-16T22:44:57Z</time>
      </trkpt>
      <trkpt lat="44.5044" lon="0.72886">
        <ele>159.7</ele>
        <time>2018-05-16T22:44:58Z</time>
      </trkpt>
      <trkpt lat="44.50442" lon="0.72881">
        <ele>160</ele>
        <time>2018-05-16T22:44:59Z</time>
      </trkpt>
      <trkpt lat="44.50444" lon="0.72876">
        <ele>160.3</ele>
        <time>2018-05-16T22:45:00Z</time>
      </trkpt>
      <trkpt lat="44.50445" lon="0.7287">
        <ele>160.6</ele>
        <time>2018-05-16T22:45:01Z</time>
      </trkpt>
      <trkpt lat="44.50447" lon="0.72864">
        <ele>161</ele>
        <time>2018-05-16T22:45:02Z</time>
      </trkpt>
      <trkpt lat="44.50448" lon="0.72859">
        <ele>161.2</ele>
        <time>2018-05-16T22:45:03Z</time>
      </trkpt>
      <trkpt lat="44.50449" lon="0.72853">
        <ele>161.5</ele>
        <time>2018-05-16T22:45:04Z</time>
      </trkpt>
      <trkpt lat="44.50449" lon="0.72847">
        <ele>161.8</ele>
        <time>2018-05-16T22:45:05Z</time>
      </trkpt>
      <trkpt lat="44.5045" lon="0.72842">
        <ele>162.1</ele>
        <time>2018-05-16T22:45:06Z</time>
      </trkpt>
      <trkpt lat="44.5045" lon="0.72836">
        <ele>162.4</ele>
        <time>2018-05-16T22:45:07Z</time>
      </trkpt>
      <trkpt lat="44.5045" lon="0.72831">
        <ele>162.7</ele>
        <time>2018-05-16T22:45:08Z</time>
      </trkpt>
      <trkpt lat="44.5045" lon="0.72826">
        <ele>162.9</ele>
        <time>2018-05-16T22:45:09Z</time>
      </trkpt>
      <trkpt lat="44.5045" lon="0.72821">
        <ele>163.1</ele>
        <time>2018-05-16T22:45:10Z</time>
      </trkpt>
      <trkpt lat="44.50451" lon="0.72816">
        <ele>163.3</ele>
        <time>2018-05-16T22:45:11Z</time>
      </trkpt>
      <trkpt lat="44.50451" lon="0.72811">
        <ele>163.5</ele>
        <time>2018-05-16T22:45:12Z</time>
      </trkpt>
      <trkpt lat="44.50451" lon="0.72806">
        <ele>163.7</ele>
        <time>2018-05-16T22:45:13Z</time>
      </trkpt>
      <trkpt lat="44.50451" lon="0.72801">
        <ele>163.9</ele>
        <time>2018-05-16T22:45:14Z</time>
      </trkpt>
      <trkpt lat="44.50451" lon="0.72796">
        <ele>164.1</ele>
        <time>2018-05-16T22:45:15Z</time>
      </trkpt>
      <trkpt lat="44.50452" lon="0.72791">
        <ele>164.3</ele>
        <time>2018-05-16T22:45:16Z</time>
      </trkpt>
      <trkpt lat="44.50452" lon="0.72786">
        <ele>164.5</ele>
        <time>2018-05-16T22:45:17Z</time>
      </trkpt>
      <trkpt lat="44.50452" lon="0.72782">
        <ele>164.7</ele>
        <time>2018-05-16T22:45:18Z</time>
      </trkpt>
      <trkpt lat="44.50453" lon="0.72777">
        <ele>164.9</ele>
        <time>2018-05-16T22:45:19Z</time>
      </trkpt>
      <trkpt lat="44.50454" lon="0.7277">
        <ele>165.2</ele>
        <time>2018-05-16T22:45:21Z</time>
      </trkpt>
      <trkpt lat="44.50454" lon="0.72765">
        <ele>165.4</ele>
        <time>2018-05-16T22:45:22Z</time>
      </trkpt>
      <trkpt lat="44.50455" lon="0.7276">
        <ele>165.6</ele>
        <time>2018-05-16T22:45:23Z</time>
      </trkpt>
      <trkpt lat="44.50456" lon="0.72755">
        <ele>165.8</ele>
        <time>2018-05-16T22:45:24Z</time>
      </trkpt>
      <trkpt lat="44.50456" lon="0.72749">
        <ele>166</ele>
        <time>2018-05-16T22:45:25Z</time>
      </trkpt>
      <trkpt lat="44.50457" lon="0.72743">
        <ele>166.2</ele>
        <time>2018-05-16T22:45:26Z</time>
      </trkpt>
      <trkpt lat="44.50457" lon="0.72738">
        <ele>166.4</ele>
        <time>2018-05-16T22:45:27Z</time>
      </trkpt>
      <trkpt lat="44.50457" lon="0.72732">
        <ele>166.6</ele>
        <time>2018-05-16T22:45:28Z</time>
      </trkpt>
      <trkpt lat="44.50457" lon="0.72726">
        <ele>166.9</ele>
        <time>2018-05-16T22:45:29Z</time>
      </trkpt>
      <trkpt lat="44.50457" lon="0.72721">
        <ele>167.1</ele>
        <time>2018-05-16T22:45:30Z</time>
      </trkpt>
      <trkpt lat="44.50458" lon="0.72715">
        <ele>167.3</ele>
        <time>2018-05-16T22:45:31Z</time>
      </trkpt>
      <trkpt lat="44.50458" lon="0.7271">
        <ele>167.5</ele>
        <time>2018-05-16T22:45:32Z</time>
      </trkpt>
      <trkpt lat="44.50458" lon="0.72705">
        <ele>167.7</ele>
        <time>2018-05-16T22:45:33Z</time>
      </trkpt>
      <trkpt lat="44.50458" lon="0.727">
        <ele>167.9</ele>
        <time>2018-05-16T22:45:34Z</time>
      </trkpt>
      <trkpt lat="44.50457" lon="0.72696">
        <ele>168.1</ele>
        <time>2018-05-16T22:45:35Z</time>
      </trkpt>
      <trkpt lat="44.50457" lon="0.72691">
        <ele>168.2</ele>
        <time>2018-05-16T22:45:36Z</time>
      </trkpt>
      <trkpt lat="44.50457" lon="0.72686">
        <ele>168.4</ele>
        <time>2018-05-16T22:45:37Z</time>
      </trkpt>
      <trkpt lat="44.50457" lon="0.72681">
        <ele>168.6</ele>
        <time>2018-05-16T22:45:38Z</time>
      </trkpt>
      <trkpt lat="44.50456" lon="0.72676">
        <ele>168.8</ele>
        <time>2018-05-16T22:45:39Z</time>
      </trkpt>
      <trkpt lat="44.50456" lon="0.72671">
        <ele>168.9</ele>
        <time>2018-05-16T22:45:40Z</time>
      </trkpt>
      <trkpt lat="44.50456" lon="0.72666">
        <ele>169.2</ele>
        <time>2018-05-16T22:45:41Z</time>
      </trkpt>
      <trkpt lat="44.50457" lon="0.7266">
        <ele>169.4</ele>
        <time>2018-05-16T22:45:42Z</time>
      </trkpt>
      <trkpt lat="44.50457" lon="0.72655">
        <ele>169.6</ele>
        <time>2018-05-16T22:45:43Z</time>
      </trkpt>
      <trkpt lat="44.50456" lon="0.7265">
        <ele>169.9</ele>
        <time>2018-05-16T22:45:44Z</time>
      </trkpt>
      <trkpt lat="44.50457" lon="0.72645">
        <ele>170.1</ele>
        <time>2018-05-16T22:45:45Z</time>
      </trkpt>
      <trkpt lat="44.50456" lon="0.7264">
        <ele>170.3</ele>
        <time>2018-05-16T22:45:46Z</time>
      </trkpt>
      <trkpt lat="44.50457" lon="0.72636">
        <ele>170.5</ele>
        <time>2018-05-16T22:45:47Z</time>
      </trkpt>
      <trkpt lat="44.50457" lon="0.72631">
        <ele>170.7</ele>
        <time>2018-05-16T22:45:48Z</time>
      </trkpt>
      <trkpt lat="44.50457" lon="0.72627">
        <ele>170.9</ele>
        <time>2018-05-16T22:45:49Z</time>
      </trkpt>
      <trkpt lat="44.50457" lon="0.72623">
        <ele>171.1</ele>
        <time>2018-05-16T22:45:50Z</time>
      </trkpt>
      <trkpt lat="44.50458" lon="0.7262">
        <ele>171.3</ele>
        <time>2018-05-16T22:45:51Z</time>
      </trkpt>
      <trkpt lat="44.50458" lon="0.72615">
        <ele>171.4</ele>
        <time>2018-05-16T22:45:52Z</time>
      </trkpt>
      <trkpt lat="44.50458" lon="0.72612">
        <ele>171.6</ele>
        <time>2018-05-16T22:45:53Z</time>
      </trkpt>
      <trkpt lat="44.50459" lon="0.72608">
        <ele>171.8</ele>
        <time>2018-05-16T22:45:54Z</time>
      </trkpt>
      <trkpt lat="44.50459" lon="0.72603">
        <ele>172</ele>
        <time>2018-05-16T22:45:55Z</time>
      </trkpt>
      <trkpt lat="44.5046" lon="0.72596">
        <ele>172.3</ele>
        <time>2018-05-16T22:45:57Z</time>
      </trkpt>
      <trkpt lat="44.50461" lon="0.72592">
        <ele>172.5</ele>
        <time>2018-05-16T22:45:58Z</time>
      </trkpt>
      <trkpt lat="44.5046" lon="0.72587">
        <ele>172.8</ele>
        <time>2018-05-16T22:45:59Z</time>
      </trkpt>
      <trkpt lat="44.50461" lon="0.72582">
        <ele>173</ele>
        <time>2018-05-16T22:46:00Z</time>
      </trkpt>
      <trkpt lat="44.50461" lon="0.72578">
        <ele>173.1</ele>
        <time>2018-05-16T22:46:01Z</time>
      </trkpt>
      <trkpt lat="44.50462" lon="0.72574">
        <ele>173.3</ele>
        <time>2018-05-16T22:46:02Z</time>
      </trkpt>
      <trkpt lat="44.50461" lon="0.72568">
        <ele>173.6</ele>
        <time>2018-05-16T22:46:03Z</time>
      </trkpt>
      <trkpt lat="44.50462" lon="0.72561">
        <ele>173.9</ele>
        <time>2018-05-16T22:46:04Z</time>
      </trkpt>
      <trkpt lat="44.50461" lon="0.72556">
        <ele>174.1</ele>
        <time>2018-05-16T22:46:05Z</time>
      </trkpt>
      <trkpt lat="44.50461" lon="0.7255">
        <ele>174.4</ele>
        <time>2018-05-16T22:46:06Z</time>
      </trkpt>
      <trkpt lat="44.50461" lon="0.72544">
        <ele>174.6</ele>
        <time>2018-05-16T22:46:07Z</time>
      </trkpt>
      <trkpt lat="44.50462" lon="0.7254">
        <ele>174.8</ele>
        <time>2018-05-16T22:46:08Z</time>
      </trkpt>
      <trkpt lat="44.50462" lon="0.72536">
        <ele>175</ele>
        <time>2018-05-16T22:46:09Z</time>
      </trkpt>
      <trkpt lat="44.50463" lon="0.72533">
        <ele>175.1</ele>
        <time>2018-05-16T22:46:10Z</time>
      </trkpt>
      <trkpt lat="44.50463" lon="0.72526">
        <ele>175.4</ele>
        <time>2018-05-16T22:46:11Z</time>
      </trkpt>
      <trkpt lat="44.50463" lon="0.72522">
        <ele>175.6</ele>
        <time>2018-05-16T22:46:12Z</time>
      </trkpt>
      <trkpt lat="44.50464" lon="0.72517">
        <ele>175.8</ele>
        <time>2018-05-16T22:46:13Z</time>
      </trkpt>
      <trkpt lat="44.50464" lon="0.72511">
        <ele>176</ele>
        <time>2018-05-16T22:46:15Z</time>
      </trkpt>
      <trkpt lat="44.50465" lon="0.72505">
        <ele>176.3</ele>
        <time>2018-05-16T22:46:17Z</time>
      </trkpt>
      <trkpt lat="44.50466" lon="0.725">
        <ele>176.5</ele>
        <time>2018-05-16T22:46:18Z</time>
      </trkpt>
      <trkpt lat="44.50467" lon="0.72494">
        <ele>176.8</ele>
        <time>2018-05-16T22:46:20Z</time>
      </trkpt>
      <trkpt lat="44.50468" lon="0.7249">
        <ele>176.9</ele>
        <time>2018-05-16T22:46:21Z</time>
      </trkpt>
      <trkpt lat="44.5047" lon="0.72485">
        <ele>177.1</ele>
        <time>2018-05-16T22:46:22Z</time>
      </trkpt>
      <trkpt lat="44.50471" lon="0.72479">
        <ele>177.4</ele>
        <time>2018-05-16T22:46:23Z</time>
      </trkpt>
      <trkpt lat="44.50472" lon="0.72474">
        <ele>177.6</ele>
        <time>2018-05-16T22:46:24Z</time>
      </trkpt>
      <trkpt lat="44.50473" lon="0.72471">
        <ele>177.7</ele>
        <time>2018-05-16T22:46:25Z</time>
      </trkpt>
      <trkpt lat="44.50474" lon="0.72467">
        <ele>177.9</ele>
        <time>2018-05-16T22:46:26Z</time>
      </trkpt>
      <trkpt lat="44.50476" lon="0.72463">
        <ele>178.1</ele>
        <time>2018-05-16T22:46:27Z</time>
      </trkpt>
      <trkpt lat="44.50478" lon="0.7246">
        <ele>178.2</ele>
        <time>2018-05-16T22:46:28Z</time>
      </trkpt>
      <trkpt lat="44.50481" lon="0.72456">
        <ele>178.5</ele>
        <time>2018-05-16T22:46:30Z</time>
      </trkpt>
      <trkpt lat="44.50483" lon="0.72453">
        <ele>178.6</ele>
        <time>2018-05-16T22:46:32Z</time>
      </trkpt>
      <trkpt lat="44.50486" lon="0.72447">
        <ele>178.9</ele>
        <time>2018-05-16T22:46:34Z</time>
      </trkpt>
      <trkpt lat="44.50488" lon="0.72445">
        <ele>179.1</ele>
        <time>2018-05-16T22:46:35Z</time>
      </trkpt>
      <trkpt lat="44.5049" lon="0.72441">
        <ele>179.3</ele>
        <time>2018-05-16T22:46:36Z</time>
      </trkpt>
      <trkpt lat="44.50492" lon="0.72436">
        <ele>179.5</ele>
        <time>2018-05-16T22:46:37Z</time>
      </trkpt>
      <trkpt lat="44.50494" lon="0.72433">
        <ele>179.7</ele>
        <time>2018-05-16T22:46:38Z</time>
      </trkpt>
      <trkpt lat="44.50497" lon="0.72428">
        <ele>179.9</ele>
        <time>2018-05-16T22:46:39Z</time>
      </trkpt>
      <trkpt lat="44.505" lon="0.72423">
        <ele>180.1</ele>
        <time>2018-05-16T22:46:40Z</time>
      </trkpt>
      <trkpt lat="44.50502" lon="0.72419">
        <ele>180.2</ele>
        <time>2018-05-16T22:46:41Z</time>
      </trkpt>
      <trkpt lat="44.50504" lon="0.72414">
        <ele>180.4</ele>
        <time>2018-05-16T22:46:42Z</time>
      </trkpt>
      <trkpt lat="44.50506" lon="0.72411">
        <ele>180.5</ele>
        <time>2018-05-16T22:46:43Z</time>
      </trkpt>
      <trkpt lat="44.50508" lon="0.72407">
        <ele>180.6</ele>
        <time>2018-05-16T22:46:44Z</time>
      </trkpt>
      <trkpt lat="44.5051" lon="0.72404">
        <ele>180.8</ele>
        <time>2018-05-16T22:46:45Z</time>
      </trkpt>
      <trkpt lat="44.50513" lon="0.72402">
        <ele>180.9</ele>
        <time>2018-05-16T22:46:46Z</time>
      </trkpt>
      <trkpt lat="44.50515" lon="0.72399">
        <ele>181</ele>
        <time>2018-05-16T22:46:47Z</time>
      </trkpt>
      <trkpt lat="44.50518" lon="0.72395">
        <ele>181.2</ele>
        <time>2018-05-16T22:46:48Z</time>
      </trkpt>
      <trkpt lat="44.50521" lon="0.7239">
        <ele>181.4</ele>
        <time>2018-05-16T22:46:49Z</time>
      </trkpt>
      <trkpt lat="44.50523" lon="0.72385">
        <ele>181.6</ele>
        <time>2018-05-16T22:46:50Z</time>
      </trkpt>
      <trkpt lat="44.50526" lon="0.72379">
        <ele>181.8</ele>
        <time>2018-05-16T22:46:51Z</time>
      </trkpt>
      <trkpt lat="44.50528" lon="0.72376">
        <ele>181.9</ele>
        <time>2018-05-16T22:46:52Z</time>
      </trkpt>
      <trkpt lat="44.50529" lon="0.72372">
        <ele>182</ele>
        <time>2018-05-16T22:46:53Z</time>
      </trkpt>
      <trkpt lat="44.5053" lon="0.72368">
        <ele>182.1</ele>
        <time>2018-05-16T22:46:54Z</time>
      </trkpt>
      <trkpt lat="44.50532" lon="0.72363">
        <ele>182.3</ele>
        <time>2018-05-16T22:46:55Z</time>
      </trkpt>
      <trkpt lat="44.50534" lon="0.72358">
        <ele>182.5</ele>
        <time>2018-05-16T22:46:56Z</time>
      </trkpt>
      <trkpt lat="44.50536" lon="0.72353">
        <ele>182.8</ele>
        <time>2018-05-16T22:46:57Z</time>
      </trkpt>
      <trkpt lat="44.50538" lon="0.72349">
        <ele>183</ele>
        <time>2018-05-16T22:46:58Z</time>
      </trkpt>
      <trkpt lat="44.50539" lon="0.72345">
        <ele>183.1</ele>
        <time>2018-05-16T22:46:59Z</time>
      </trkpt>
      <trkpt lat="44.5054" lon="0.7234">
        <ele>183.2</ele>
        <time>2018-05-16T22:47:00Z</time>
      </trkpt>
      <trkpt lat="44.50541" lon="0.72335">
        <ele>183.4</ele>
        <time>2018-05-16T22:47:01Z</time>
      </trkpt>
      <trkpt lat="44.50543" lon="0.72331">
        <ele>183.5</ele>
        <time>2018-05-16T22:47:02Z</time>
      </trkpt>
      <trkpt lat="44.50543" lon="0.72326">
        <ele>183.6</ele>
        <time>2018-05-16T22:47:03Z</time>
      </trkpt>
      <trkpt lat="44.50544" lon="0.72322">
        <ele>183.7</ele>
        <time>2018-05-16T22:47:04Z</time>
      </trkpt>
      <trkpt lat="44.50544" lon="0.72317">
        <ele>184</ele>
        <time>2018-05-16T22:47:05Z</time>
      </trkpt>
      <trkpt lat="44.50545" lon="0.72312">
        <ele>184</ele>
        <time>2018-05-16T22:47:06Z</time>
      </trkpt>
      <trkpt lat="44.50545" lon="0.72308">
        <ele>184</ele>
        <time>2018-05-16T22:47:07Z</time>
      </trkpt>
      <trkpt lat="44.50545" lon="0.72303">
        <ele>184</ele>
        <time>2018-05-16T22:47:08Z</time>
      </trkpt>
      <trkpt lat="44.50545" lon="0.72298">
        <ele>184</ele>
        <time>2018-05-16T22:47:09Z</time>
      </trkpt>
      <trkpt lat="44.50545" lon="0.72293">
        <ele>184</ele>
        <time>2018-05-16T22:47:10Z</time>
      </trkpt>
      <trkpt lat="44.50546" lon="0.72289">
        <ele>184</ele>
        <time>2018-05-16T22:47:11Z</time>
      </trkpt>
      <trkpt lat="44.50546" lon="0.72285">
        <ele>184</ele>
        <time>2018-05-16T22:47:12Z</time>
      </trkpt>
      <trkpt lat="44.50546" lon="0.72281">
        <ele>184</ele>
        <time>2018-05-16T22:47:13Z</time>
      </trkpt>
      <trkpt lat="44.50546" lon="0.72277">
        <ele>184</ele>
        <time>2018-05-16T22:47:14Z</time>
      </trkpt>
      <trkpt lat="44.50547" lon="0.72273">
        <ele>184</ele>
        <time>2018-05-16T22:47:15Z</time>
      </trkpt>
      <trkpt lat="44.50548" lon="0.72268">
        <ele>184</ele>
        <time>2018-05-16T22:47:16Z</time>
      </trkpt>
      <trkpt lat="44.50548" lon="0.72264">
        <ele>183.9</ele>
        <time>2018-05-16T22:47:17Z</time>
      </trkpt>
      <trkpt lat="44.50549" lon="0.72261">
        <ele>183.9</ele>
        <time>2018-05-16T22:47:18Z</time>
      </trkpt>
      <trkpt lat="44.50549" lon="0.72256">
        <ele>184</ele>
        <time>2018-05-16T22:47:19Z</time>
      </trkpt>
      <trkpt lat="44.50548" lon="0.72252">
        <ele>184</ele>
        <time>2018-05-16T22:47:20Z</time>
      </trkpt>
      <trkpt lat="44.50549" lon="0.72248">
        <ele>184</ele>
        <time>2018-05-16T22:47:21Z</time>
      </trkpt>
      <trkpt lat="44.5055" lon="0.72243">
        <ele>184</ele>
        <time>2018-05-16T22:47:22Z</time>
      </trkpt>
      <trkpt lat="44.5055" lon="0.72239">
        <ele>184</ele>
        <time>2018-05-16T22:47:23Z</time>
      </trkpt>
      <trkpt lat="44.50551" lon="0.72234">
        <ele>183.9</ele>
        <time>2018-05-16T22:47:24Z</time>
      </trkpt>
      <trkpt lat="44.50551" lon="0.72228">
        <ele>183.9</ele>
        <time>2018-05-16T22:47:25Z</time>
      </trkpt>
      <trkpt lat="44.50552" lon="0.72223">
        <ele>183.9</ele>
        <time>2018-05-16T22:47:26Z</time>
      </trkpt>
      <trkpt lat="44.50553" lon="0.72219">
        <ele>183.9</ele>
        <time>2018-05-16T22:47:27Z</time>
      </trkpt>
      <trkpt lat="44.50554" lon="0.72214">
        <ele>183.9</ele>
        <time>2018-05-16T22:47:28Z</time>
      </trkpt>
      <trkpt lat="44.50555" lon="0.72209">
        <ele>183.9</ele>
        <time>2018-05-16T22:47:29Z</time>
      </trkpt>
      <trkpt lat="44.50556" lon="0.72204">
        <ele>184</ele>
        <time>2018-05-16T22:47:30Z</time>
      </trkpt>
      <trkpt lat="44.50558" lon="0.72198">
        <ele>184.1</ele>
        <time>2018-05-16T22:47:31Z</time>
      </trkpt>
      <trkpt lat="44.50559" lon="0.72193">
        <ele>184.2</ele>
        <time>2018-05-16T22:47:32Z</time>
      </trkpt>
      <trkpt lat="44.5056" lon="0.72187">
        <ele>184.3</ele>
        <time>2018-05-16T22:47:33Z</time>
      </trkpt>
      <trkpt lat="44.50562" lon="0.72181">
        <ele>184.4</ele>
        <time>2018-05-16T22:47:34Z</time>
      </trkpt>
      <trkpt lat="44.50564" lon="0.72176">
        <ele>184.5</ele>
        <time>2018-05-16T22:47:35Z</time>
      </trkpt>
      <trkpt lat="44.50565" lon="0.72169">
        <ele>184.6</ele>
        <time>2018-05-16T22:47:36Z</time>
      </trkpt>
      <trkpt lat="44.50567" lon="0.72163">
        <ele>184.8</ele>
        <time>2018-05-16T22:47:37Z</time>
      </trkpt>
      <trkpt lat="44.50568" lon="0.72157">
        <ele>185</ele>
        <time>2018-05-16T22:47:38Z</time>
      </trkpt>
      <trkpt lat="44.5057" lon="0.7215">
        <ele>185.1</ele>
        <time>2018-05-16T22:47:39Z</time>
      </trkpt>
      <trkpt lat="44.50572" lon="0.72143">
        <ele>185.3</ele>
        <time>2018-05-16T22:47:40Z</time>
      </trkpt>
      <trkpt lat="44.50574" lon="0.72136">
        <ele>185.5</ele>
        <time>2018-05-16T22:47:41Z</time>
      </trkpt>
      <trkpt lat="44.50575" lon="0.7213">
        <ele>185.6</ele>
        <time>2018-05-16T22:47:42Z</time>
      </trkpt>
      <trkpt lat="44.50577" lon="0.72123">
        <ele>185.8</ele>
        <time>2018-05-16T22:47:43Z</time>
      </trkpt>
      <trkpt lat="44.50578" lon="0.72116">
        <ele>186</ele>
        <time>2018-05-16T22:47:44Z</time>
      </trkpt>
      <trkpt lat="44.50579" lon="0.72109">
        <ele>186.2</ele>
        <time>2018-05-16T22:47:45Z</time>
      </trkpt>
      <trkpt lat="44.50581" lon="0.72103">
        <ele>186.4</ele>
        <time>2018-05-16T22:47:46Z</time>
      </trkpt>
      <trkpt lat="44.50582" lon="0.72096">
        <ele>186.5</ele>
        <time>2018-05-16T22:47:47Z</time>
      </trkpt>
      <trkpt lat="44.50583" lon="0.7209">
        <ele>186.7</ele>
        <time>2018-05-16T22:47:48Z</time>
      </trkpt>
      <trkpt lat="44.50585" lon="0.72084">
        <ele>186.9</ele>
        <time>2018-05-16T22:47:49Z</time>
      </trkpt>
      <trkpt lat="44.50587" lon="0.72078">
        <ele>186.9</ele>
        <time>2018-05-16T22:47:50Z</time>
      </trkpt>
      <trkpt lat="44.50589" lon="0.72072">
        <ele>187</ele>
        <time>2018-05-16T22:47:51Z</time>
      </trkpt>
      <trkpt lat="44.50591" lon="0.72068">
        <ele>187.1</ele>
        <time>2018-05-16T22:47:52Z</time>
      </trkpt>
      <trkpt lat="44.50593" lon="0.72063">
        <ele>187.1</ele>
        <time>2018-05-16T22:47:53Z</time>
      </trkpt>
      <trkpt lat="44.50596" lon="0.72059">
        <ele>187.1</ele>
        <time>2018-05-16T22:47:54Z</time>
      </trkpt>
      <trkpt lat="44.50599" lon="0.72054">
        <ele>187.1</ele>
        <time>2018-05-16T22:47:55Z</time>
      </trkpt>
      <trkpt lat="44.50601" lon="0.72049">
        <ele>187</ele>
        <time>2018-05-16T22:47:56Z</time>
      </trkpt>
      <trkpt lat="44.50603" lon="0.72044">
        <ele>187</ele>
        <time>2018-05-16T22:47:57Z</time>
      </trkpt>
      <trkpt lat="44.50605" lon="0.72039">
        <ele>187</ele>
        <time>2018-05-16T22:47:58Z</time>
      </trkpt>
      <trkpt lat="44.50607" lon="0.72036">
        <ele>186.9</ele>
        <time>2018-05-16T22:47:59Z</time>
      </trkpt>
      <trkpt lat="44.5061" lon="0.72031">
        <ele>186.8</ele>
        <time>2018-05-16T22:48:00Z</time>
      </trkpt>
      <trkpt lat="44.50612" lon="0.72024">
        <ele>186.7</ele>
        <time>2018-05-16T22:48:01Z</time>
      </trkpt>
      <trkpt lat="44.50614" lon="0.72019">
        <ele>186.6</ele>
        <time>2018-05-16T22:48:02Z</time>
      </trkpt>
      <trkpt lat="44.50616" lon="0.72012">
        <ele>186.5</ele>
        <time>2018-05-16T22:48:03Z</time>
      </trkpt>
      <trkpt lat="44.50618" lon="0.72006">
        <ele>186.3</ele>
        <time>2018-05-16T22:48:04Z</time>
      </trkpt>
      <trkpt lat="44.5062" lon="0.71997">
        <ele>186.2</ele>
        <time>2018-05-16T22:48:05Z</time>
      </trkpt>
      <trkpt lat="44.50622" lon="0.7199">
        <ele>186.2</ele>
        <time>2018-05-16T22:48:06Z</time>
      </trkpt>
      <trkpt lat="44.50624" lon="0.71983">
        <ele>186.1</ele>
        <time>2018-05-16T22:48:07Z</time>
      </trkpt>
      <trkpt lat="44.50626" lon="0.71976">
        <ele>186.1</ele>
        <time>2018-05-16T22:48:08Z</time>
      </trkpt>
      <trkpt lat="44.50629" lon="0.7197">
        <ele>186</ele>
        <time>2018-05-16T22:48:09Z</time>
      </trkpt>
      <trkpt lat="44.50631" lon="0.71962">
        <ele>185.9</ele>
        <time>2018-05-16T22:48:10Z</time>
      </trkpt>
      <trkpt lat="44.50635" lon="0.71953">
        <ele>185.8</ele>
        <time>2018-05-16T22:48:11Z</time>
      </trkpt>
      <trkpt lat="44.50637" lon="0.71946">
        <ele>185.6</ele>
        <time>2018-05-16T22:48:12Z</time>
      </trkpt>
      <trkpt lat="44.5064" lon="0.71939">
        <ele>185.5</ele>
        <time>2018-05-16T22:48:13Z</time>
      </trkpt>
      <trkpt lat="44.50643" lon="0.7193">
        <ele>185.2</ele>
        <time>2018-05-16T22:48:14Z</time>
      </trkpt>
      <trkpt lat="44.50646" lon="0.7192">
        <ele>185</ele>
        <time>2018-05-16T22:48:15Z</time>
      </trkpt>
      <trkpt lat="44.50649" lon="0.7191">
        <ele>184.7</ele>
        <time>2018-05-16T22:48:16Z</time>
      </trkpt>
      <trkpt lat="44.50652" lon="0.71901">
        <ele>184.3</ele>
        <time>2018-05-16T22:48:17Z</time>
      </trkpt>
      <trkpt lat="44.50654" lon="0.71891">
        <ele>183.8</ele>
        <time>2018-05-16T22:48:18Z</time>
      </trkpt>
      <trkpt lat="44.50657" lon="0.71884">
        <ele>183.6</ele>
        <time>2018-05-16T22:48:19Z</time>
      </trkpt>
      <trkpt lat="44.50659" lon="0.71876">
        <ele>183.2</ele>
        <time>2018-05-16T22:48:20Z</time>
      </trkpt>
      <trkpt lat="44.50663" lon="0.71864">
        <ele>182.9</ele>
        <time>2018-05-16T22:48:21Z</time>
      </trkpt>
      <trkpt lat="44.50665" lon="0.71856">
        <ele>182.6</ele>
        <time>2018-05-16T22:48:22Z</time>
      </trkpt>
      <trkpt lat="44.50667" lon="0.71848">
        <ele>182.4</ele>
        <time>2018-05-16T22:48:23Z</time>
      </trkpt>
      <trkpt lat="44.50669" lon="0.71838">
        <ele>182.3</ele>
        <time>2018-05-16T22:48:24Z</time>
      </trkpt>
      <trkpt lat="44.50672" lon="0.71827">
        <ele>182.2</ele>
        <time>2018-05-16T22:48:25Z</time>
      </trkpt>
      <trkpt lat="44.50674" lon="0.71818">
        <ele>182.1</ele>
        <time>2018-05-16T22:48:26Z</time>
      </trkpt>
      <trkpt lat="44.50675" lon="0.71808">
        <ele>181.9</ele>
        <time>2018-05-16T22:48:27Z</time>
      </trkpt>
      <trkpt lat="44.50677" lon="0.718">
        <ele>181.9</ele>
        <time>2018-05-16T22:48:28Z</time>
      </trkpt>
      <trkpt lat="44.50679" lon="0.71792">
        <ele>181.8</ele>
        <time>2018-05-16T22:48:29Z</time>
      </trkpt>
      <trkpt lat="44.50681" lon="0.71784">
        <ele>181.8</ele>
        <time>2018-05-16T22:48:30Z</time>
      </trkpt>
      <trkpt lat="44.50683" lon="0.71776">
        <ele>181.9</ele>
        <time>2018-05-16T22:48:31Z</time>
      </trkpt>
      <trkpt lat="44.50686" lon="0.71768">
        <ele>182.1</ele>
        <time>2018-05-16T22:48:32Z</time>
      </trkpt>
      <trkpt lat="44.50688" lon="0.71759">
        <ele>182.3</ele>
        <time>2018-05-16T22:48:33Z</time>
      </trkpt>
      <trkpt lat="44.50689" lon="0.71749">
        <ele>182.8</ele>
        <time>2018-05-16T22:48:34Z</time>
      </trkpt>
      <trkpt lat="44.50692" lon="0.71742">
        <ele>183.1</ele>
        <time>2018-05-16T22:48:35Z</time>
      </trkpt>
      <trkpt lat="44.50692" lon="0.71733">
        <ele>183.5</ele>
        <time>2018-05-16T22:48:36Z</time>
      </trkpt>
      <trkpt lat="44.50693" lon="0.71726">
        <ele>184</ele>
        <time>2018-05-16T22:48:37Z</time>
      </trkpt>
      <trkpt lat="44.50692" lon="0.71719">
        <ele>184.5</ele>
        <time>2018-05-16T22:48:38Z</time>
      </trkpt>
      <trkpt lat="44.50691" lon="0.71714">
        <ele>184.7</ele>
        <time>2018-05-16T22:48:39Z</time>
      </trkpt>
      <trkpt lat="44.50687" lon="0.71708">
        <ele>185</ele>
        <time>2018-05-16T22:48:40Z</time>
      </trkpt>
      <trkpt lat="44.50684" lon="0.71702">
        <ele>185.5</ele>
        <time>2018-05-16T22:48:41Z</time>
      </trkpt>
      <trkpt lat="44.50681" lon="0.71697">
        <ele>185.7</ele>
        <time>2018-05-16T22:48:42Z</time>
      </trkpt>
      <trkpt lat="44.50678" lon="0.71692">
        <ele>186</ele>
        <time>2018-05-16T22:48:43Z</time>
      </trkpt>
      <trkpt lat="44.50676" lon="0.71688">
        <ele>186.3</ele>
        <time>2018-05-16T22:48:44Z</time>
      </trkpt>
      <trkpt lat="44.50674" lon="0.71683">
        <ele>186.6</ele>
        <time>2018-05-16T22:48:45Z</time>
      </trkpt>
      <trkpt lat="44.50672" lon="0.71679">
        <ele>186.8</ele>
        <time>2018-05-16T22:48:46Z</time>
      </trkpt>
      <trkpt lat="44.5067" lon="0.71675">
        <ele>187.2</ele>
        <time>2018-05-16T22:48:47Z</time>
      </trkpt>
      <trkpt lat="44.50668" lon="0.7167">
        <ele>187.5</ele>
        <time>2018-05-16T22:48:48Z</time>
      </trkpt>
      <trkpt lat="44.50666" lon="0.71667">
        <ele>187.7</ele>
        <time>2018-05-16T22:48:49Z</time>
      </trkpt>
      <trkpt lat="44.50664" lon="0.71663">
        <ele>188.1</ele>
        <time>2018-05-16T22:48:50Z</time>
      </trkpt>
      <trkpt lat="44.50661" lon="0.71658">
        <ele>188.3</ele>
        <time>2018-05-16T22:48:51Z</time>
      </trkpt>
      <trkpt lat="44.5066" lon="0.71654">
        <ele>188.5</ele>
        <time>2018-05-16T22:48:52Z</time>
      </trkpt>
      <trkpt lat="44.50658" lon="0.7165">
        <ele>188.8</ele>
        <time>2018-05-16T22:48:53Z</time>
      </trkpt>
      <trkpt lat="44.50656" lon="0.71646">
        <ele>189.1</ele>
        <time>2018-05-16T22:48:54Z</time>
      </trkpt>
      <trkpt lat="44.50654" lon="0.71639">
        <ele>189.4</ele>
        <time>2018-05-16T22:48:56Z</time>
      </trkpt>
      <trkpt lat="44.50652" lon="0.71634">
        <ele>189.8</ele>
        <time>2018-05-16T22:48:58Z</time>
      </trkpt>
      <trkpt lat="44.5065" lon="0.71628">
        <ele>190.6</ele>
        <time>2018-05-16T22:49:00Z</time>
      </trkpt>
      <trkpt lat="44.50648" lon="0.71623">
        <ele>191</ele>
        <time>2018-05-16T22:49:02Z</time>
      </trkpt>
      <trkpt lat="44.50646" lon="0.71617">
        <ele>191.8</ele>
        <time>2018-05-16T22:49:04Z</time>
      </trkpt>
      <trkpt lat="44.50644" lon="0.71612">
        <ele>192.1</ele>
        <time>2018-05-16T22:49:06Z</time>
      </trkpt>
      <trkpt lat="44.50642" lon="0.71606">
        <ele>192.3</ele>
        <time>2018-05-16T22:49:09Z</time>
      </trkpt>
      <trkpt lat="44.5064" lon="0.71601">
        <ele>192.6</ele>
        <time>2018-05-16T22:49:11Z</time>
      </trkpt>
      <trkpt lat="44.50639" lon="0.71597">
        <ele>192.9</ele>
        <time>2018-05-16T22:49:13Z</time>
      </trkpt>
      <trkpt lat="44.50638" lon="0.71593">
        <ele>193.2</ele>
        <time>2018-05-16T22:49:15Z</time>
      </trkpt>
      <trkpt lat="44.50639" lon="0.71588">
        <ele>193.5</ele>
        <time>2018-05-16T22:49:18Z</time>
      </trkpt>
      <trkpt lat="44.50641" lon="0.71585">
        <ele>193.9</ele>
        <time>2018-05-16T22:49:22Z</time>
      </trkpt>
      <trkpt lat="44.50642" lon="0.7158">
        <ele>194.3</ele>
        <time>2018-05-16T22:49:26Z</time>
      </trkpt>
      <trkpt lat="44.50643" lon="0.71576">
        <ele>194.6</ele>
        <time>2018-05-16T22:49:28Z</time>
      </trkpt>
      <trkpt lat="44.50645" lon="0.71572">
        <ele>195</ele>
        <time>2018-05-16T22:49:31Z</time>
      </trkpt>
      <trkpt lat="44.50647" lon="0.71568">
        <ele>195.4</ele>
        <time>2018-05-16T22:49:34Z</time>
      </trkpt>
      <trkpt lat="44.50648" lon="0.71564">
        <ele>195.7</ele>
        <time>2018-05-16T22:49:36Z</time>
      </trkpt>
      <trkpt lat="44.50651" lon="0.7156">
        <ele>196.1</ele>
        <time>2018-05-16T22:49:38Z</time>
      </trkpt>
      <trkpt lat="44.5065" lon="0.71551">
        <ele>197</ele>
        <time>2018-05-16T22:49:41Z</time>
      </trkpt>
      <trkpt lat="44.50652" lon="0.71546">
        <ele>197.5</ele>
        <time>2018-05-16T22:49:43Z</time>
      </trkpt>
      <trkpt lat="44.50654" lon="0.71541">
        <ele>198</ele>
        <time>2018-05-16T22:49:46Z</time>
      </trkpt>
      <trkpt lat="44.50656" lon="0.71537">
        <ele>198.6</ele>
        <time>2018-05-16T22:49:48Z</time>
      </trkpt>
      <trkpt lat="44.50657" lon="0.71533">
        <ele>199.2</ele>
        <time>2018-05-16T22:49:51Z</time>
      </trkpt>
      <trkpt lat="44.50659" lon="0.71529">
        <ele>199.9</ele>
        <time>2018-05-16T22:49:53Z</time>
      </trkpt>
      <trkpt lat="44.5066" lon="0.71525">
        <ele>200.5</ele>
        <time>2018-05-16T22:49:55Z</time>
      </trkpt>
      <trkpt lat="44.50662" lon="0.71518">
        <ele>201.8</ele>
        <time>2018-05-16T22:49:57Z</time>
      </trkpt>
      <trkpt lat="44.50664" lon="0.71513">
        <ele>202.4</ele>
        <time>2018-05-16T22:49:59Z</time>
      </trkpt>
      <trkpt lat="44.50665" lon="0.7151">
        <ele>202.4</ele>
        <time>2018-05-16T22:50:00Z</time>
      </trkpt>
      <trkpt lat="44.50668" lon="0.71506">
        <ele>202.9</ele>
        <time>2018-05-16T22:50:02Z</time>
      </trkpt>
      <trkpt lat="44.50669" lon="0.71501">
        <ele>203.4</ele>
        <time>2018-05-16T22:50:04Z</time>
      </trkpt>
      <trkpt lat="44.50669" lon="0.71496">
        <ele>204.4</ele>
        <time>2018-05-16T22:50:06Z</time>
      </trkpt>
      <trkpt lat="44.5067" lon="0.71491">
        <ele>204.8</ele>
        <time>2018-05-16T22:50:08Z</time>
      </trkpt>
      <trkpt lat="44.50671" lon="0.71486">
        <ele>205.2</ele>
        <time>2018-05-16T22:50:10Z</time>
      </trkpt>
      <trkpt lat="44.50672" lon="0.71483">
        <ele>205.6</ele>
        <time>2018-05-16T22:50:11Z</time>
      </trkpt>
      <trkpt lat="44.50673" lon="0.71479">
        <ele>206</ele>
        <time>2018-05-16T22:50:12Z</time>
      </trkpt>
      <trkpt lat="44.50674" lon="0.71474">
        <ele>206.4</ele>
        <time>2018-05-16T22:50:14Z</time>
      </trkpt>
      <trkpt lat="44.50674" lon="0.71468">
        <ele>206.7</ele>
        <time>2018-05-16T22:50:16Z</time>
      </trkpt>
      <trkpt lat="44.50674" lon="0.71461">
        <ele>207.4</ele>
        <time>2018-05-16T22:50:18Z</time>
      </trkpt>
      <trkpt lat="44.50675" lon="0.71455">
        <ele>207.7</ele>
        <time>2018-05-16T22:50:20Z</time>
      </trkpt>
      <trkpt lat="44.50676" lon="0.71448">
        <ele>208.2</ele>
        <time>2018-05-16T22:50:22Z</time>
      </trkpt>
      <trkpt lat="44.50676" lon="0.71443">
        <ele>208.4</ele>
        <time>2018-05-16T22:50:24Z</time>
      </trkpt>
      <trkpt lat="44.50677" lon="0.71437">
        <ele>208.5</ele>
        <time>2018-05-16T22:50:26Z</time>
      </trkpt>
      <trkpt lat="44.50678" lon="0.71433">
        <ele>208.6</ele>
        <time>2018-05-16T22:50:28Z</time>
      </trkpt>
      <trkpt lat="44.50679" lon="0.71429">
        <ele>208.7</ele>
        <time>2018-05-16T22:50:30Z</time>
      </trkpt>
      <trkpt lat="44.50692" lon="0.71406">
        <ele>209</ele>
        <time>2018-05-16T22:50:40Z</time>
      </trkpt>
      <trkpt lat="44.50695" lon="0.714">
        <ele>208.9</ele>
        <time>2018-05-16T22:50:42Z</time>
      </trkpt>
      <trkpt lat="44.50698" lon="0.71393">
        <ele>209</ele>
        <time>2018-05-16T22:50:44Z</time>
      </trkpt>
      <trkpt lat="44.50701" lon="0.7139">
        <ele>208.8</ele>
        <time>2018-05-16T22:50:45Z</time>
      </trkpt>
      <trkpt lat="44.50702" lon="0.71385">
        <ele>209</ele>
        <time>2018-05-16T22:50:46Z</time>
      </trkpt>
      <trkpt lat="44.50703" lon="0.71378">
        <ele>209.1</ele>
        <time>2018-05-16T22:50:48Z</time>
      </trkpt>
      <trkpt lat="44.50704" lon="0.71373">
        <ele>209</ele>
        <time>2018-05-16T22:50:50Z</time>
      </trkpt>
      <trkpt lat="44.50705" lon="0.71367">
        <ele>209.3</ele>
        <time>2018-05-16T22:50:52Z</time>
      </trkpt>
      <trkpt lat="44.50706" lon="0.71363">
        <ele>209.4</ele>
        <time>2018-05-16T22:50:53Z</time>
      </trkpt>
      <trkpt lat="44.50708" lon="0.71359">
        <ele>209.3</ele>
        <time>2018-05-16T22:50:54Z</time>
      </trkpt>
      <trkpt lat="44.50709" lon="0.71354">
        <ele>209.4</ele>
        <time>2018-05-16T22:50:56Z</time>
      </trkpt>
      <trkpt lat="44.50711" lon="0.7135">
        <ele>209.3</ele>
        <time>2018-05-16T22:50:58Z</time>
      </trkpt>
      <trkpt lat="44.50714" lon="0.7134">
        <ele>209.2</ele>
        <time>2018-05-16T22:51:05Z</time>
      </trkpt>
      <trkpt lat="44.50714" lon="0.71336">
        <ele>209.3</ele>
        <time>2018-05-16T22:51:06Z</time>
      </trkpt>
      <trkpt lat="44.50714" lon="0.71329">
        <ele>209.5</ele>
        <time>2018-05-16T22:51:08Z</time>
      </trkpt>
      <trkpt lat="44.50713" lon="0.71322">
        <ele>209.5</ele>
        <time>2018-05-16T22:51:10Z</time>
      </trkpt>
      <trkpt lat="44.50714" lon="0.71318">
        <ele>209.6</ele>
        <time>2018-05-16T22:51:11Z</time>
      </trkpt>
      <trkpt lat="44.50714" lon="0.71314">
        <ele>209.6</ele>
        <time>2018-05-16T22:51:13Z</time>
      </trkpt>
      <trkpt lat="44.50715" lon="0.7131">
        <ele>209.6</ele>
        <time>2018-05-16T22:51:15Z</time>
      </trkpt>
      <trkpt lat="44.50717" lon="0.71304">
        <ele>209.5</ele>
        <time>2018-05-16T22:51:17Z</time>
      </trkpt>
      <trkpt lat="44.5072" lon="0.71298">
        <ele>209.5</ele>
        <time>2018-05-16T22:51:19Z</time>
      </trkpt>
      <trkpt lat="44.50722" lon="0.7129">
        <ele>209.5</ele>
        <time>2018-05-16T22:51:21Z</time>
      </trkpt>
      <trkpt lat="44.50723" lon="0.71286">
        <ele>209.4</ele>
        <time>2018-05-16T22:51:22Z</time>
      </trkpt>
      <trkpt lat="44.50723" lon="0.7128">
        <ele>209.4</ele>
        <time>2018-05-16T22:51:24Z</time>
      </trkpt>
      <trkpt lat="44.50723" lon="0.71276">
        <ele>209.3</ele>
        <time>2018-05-16T22:51:25Z</time>
      </trkpt>
      <trkpt lat="44.50724" lon="0.71272">
        <ele>209.3</ele>
        <time>2018-05-16T22:51:26Z</time>
      </trkpt>
      <trkpt lat="44.50725" lon="0.71267">
        <ele>209.3</ele>
        <time>2018-05-16T22:51:28Z</time>
      </trkpt>
      <trkpt lat="44.50725" lon="0.71261">
        <ele>209.3</ele>
        <time>2018-05-16T22:51:30Z</time>
      </trkpt>
      <trkpt lat="44.50724" lon="0.71254">
        <ele>209.2</ele>
        <time>2018-05-16T22:51:32Z</time>
      </trkpt>
      <trkpt lat="44.50725" lon="0.71248">
        <ele>209.3</ele>
        <time>2018-05-16T22:51:34Z</time>
      </trkpt>
      <trkpt lat="44.50726" lon="0.71241">
        <ele>209.2</ele>
        <time>2018-05-16T22:51:36Z</time>
      </trkpt>
      <trkpt lat="44.50726" lon="0.71237">
        <ele>209.2</ele>
        <time>2018-05-16T22:51:37Z</time>
      </trkpt>
      <trkpt lat="44.50726" lon="0.71233">
        <ele>209.2</ele>
        <time>2018-05-16T22:51:38Z</time>
      </trkpt>
      <trkpt lat="44.50727" lon="0.71229">
        <ele>209.2</ele>
        <time>2018-05-16T22:51:39Z</time>
      </trkpt>
      <trkpt lat="44.50728" lon="0.71225">
        <ele>209.3</ele>
        <time>2018-05-16T22:51:40Z</time>
      </trkpt>
      <trkpt lat="44.50728" lon="0.71221">
        <ele>209.2</ele>
        <time>2018-05-16T22:51:41Z</time>
      </trkpt>
      <trkpt lat="44.50729" lon="0.71216">
        <ele>209.3</ele>
        <time>2018-05-16T22:51:42Z</time>
      </trkpt>
      <trkpt lat="44.50729" lon="0.71211">
        <ele>209.3</ele>
        <time>2018-05-16T22:51:43Z</time>
      </trkpt>
      <trkpt lat="44.5073" lon="0.71207">
        <ele>209.3</ele>
        <time>2018-05-16T22:51:44Z</time>
      </trkpt>
      <trkpt lat="44.50732" lon="0.71199">
        <ele>209.3</ele>
        <time>2018-05-16T22:51:46Z</time>
      </trkpt>
      <trkpt lat="44.50733" lon="0.71193">
        <ele>209.4</ele>
        <time>2018-05-16T22:51:47Z</time>
      </trkpt>
      <trkpt lat="44.50733" lon="0.71187">
        <ele>209.4</ele>
        <time>2018-05-16T22:51:48Z</time>
      </trkpt>
      <trkpt lat="44.50734" lon="0.71181">
        <ele>209.5</ele>
        <time>2018-05-16T22:51:49Z</time>
      </trkpt>
      <trkpt lat="44.50735" lon="0.71175">
        <ele>209.5</ele>
        <time>2018-05-16T22:51:50Z</time>
      </trkpt>
      <trkpt lat="44.50735" lon="0.71169">
        <ele>209.6</ele>
        <time>2018-05-16T22:51:51Z</time>
      </trkpt>
      <trkpt lat="44.50736" lon="0.71164">
        <ele>209.6</ele>
        <time>2018-05-16T22:51:52Z</time>
      </trkpt>
      <trkpt lat="44.50736" lon="0.71159">
        <ele>209.6</ele>
        <time>2018-05-16T22:51:53Z</time>
      </trkpt>
      <trkpt lat="44.50737" lon="0.71154">
        <ele>209.7</ele>
        <time>2018-05-16T22:51:54Z</time>
      </trkpt>
      <trkpt lat="44.50738" lon="0.71149">
        <ele>209.9</ele>
        <time>2018-05-16T22:51:55Z</time>
      </trkpt>
      <trkpt lat="44.50738" lon="0.71144">
        <ele>209.9</ele>
        <time>2018-05-16T22:51:56Z</time>
      </trkpt>
      <trkpt lat="44.50738" lon="0.71139">
        <ele>210</ele>
        <time>2018-05-16T22:51:57Z</time>
      </trkpt>
      <trkpt lat="44.50739" lon="0.71135">
        <ele>210</ele>
        <time>2018-05-16T22:51:58Z</time>
      </trkpt>
      <trkpt lat="44.5074" lon="0.71131">
        <ele>210.1</ele>
        <time>2018-05-16T22:51:59Z</time>
      </trkpt>
      <trkpt lat="44.50741" lon="0.71127">
        <ele>210.3</ele>
        <time>2018-05-16T22:52:00Z</time>
      </trkpt>
      <trkpt lat="44.50742" lon="0.71123">
        <ele>210.3</ele>
        <time>2018-05-16T22:52:01Z</time>
      </trkpt>
      <trkpt lat="44.50743" lon="0.71116">
        <ele>210.4</ele>
        <time>2018-05-16T22:52:03Z</time>
      </trkpt>
      <trkpt lat="44.50743" lon="0.7111">
        <ele>210.4</ele>
        <time>2018-05-16T22:52:04Z</time>
      </trkpt>
      <trkpt lat="44.50743" lon="0.71106">
        <ele>210.4</ele>
        <time>2018-05-16T22:52:05Z</time>
      </trkpt>
      <trkpt lat="44.50743" lon="0.71099">
        <ele>210.3</ele>
        <time>2018-05-16T22:52:06Z</time>
      </trkpt>
      <trkpt lat="44.50743" lon="0.71094">
        <ele>210.2</ele>
        <time>2018-05-16T22:52:07Z</time>
      </trkpt>
      <trkpt lat="44.50743" lon="0.71089">
        <ele>210.1</ele>
        <time>2018-05-16T22:52:08Z</time>
      </trkpt>
      <trkpt lat="44.50743" lon="0.71084">
        <ele>209.9</ele>
        <time>2018-05-16T22:52:09Z</time>
      </trkpt>
      <trkpt lat="44.50743" lon="0.71079">
        <ele>209.8</ele>
        <time>2018-05-16T22:52:10Z</time>
      </trkpt>
      <trkpt lat="44.50744" lon="0.71074">
        <ele>209.7</ele>
        <time>2018-05-16T22:52:11Z</time>
      </trkpt>
      <trkpt lat="44.50744" lon="0.7107">
        <ele>209.5</ele>
        <time>2018-05-16T22:52:12Z</time>
      </trkpt>
      <trkpt lat="44.50744" lon="0.71064">
        <ele>209.3</ele>
        <time>2018-05-16T22:52:13Z</time>
      </trkpt>
      <trkpt lat="44.50744" lon="0.71059">
        <ele>209</ele>
        <time>2018-05-16T22:52:14Z</time>
      </trkpt>
      <trkpt lat="44.50745" lon="0.71054">
        <ele>208.8</ele>
        <time>2018-05-16T22:52:15Z</time>
      </trkpt>
      <trkpt lat="44.50745" lon="0.71049">
        <ele>208.7</ele>
        <time>2018-05-16T22:52:16Z</time>
      </trkpt>
      <trkpt lat="44.50746" lon="0.71044">
        <ele>208.5</ele>
        <time>2018-05-16T22:52:17Z</time>
      </trkpt>
      <trkpt lat="44.50748" lon="0.71038">
        <ele>208.5</ele>
        <time>2018-05-16T22:52:18Z</time>
      </trkpt>
      <trkpt lat="44.50749" lon="0.71031">
        <ele>208.3</ele>
        <time>2018-05-16T22:52:19Z</time>
      </trkpt>
      <trkpt lat="44.5075" lon="0.71024">
        <ele>208.2</ele>
        <time>2018-05-16T22:52:20Z</time>
      </trkpt>
      <trkpt lat="44.5075" lon="0.71018">
        <ele>208.2</ele>
        <time>2018-05-16T22:52:21Z</time>
      </trkpt>
      <trkpt lat="44.50751" lon="0.71014">
        <ele>208.1</ele>
        <time>2018-05-16T22:52:22Z</time>
      </trkpt>
      <trkpt lat="44.50752" lon="0.71009">
        <ele>208</ele>
        <time>2018-05-16T22:52:23Z</time>
      </trkpt>
      <trkpt lat="44.50752" lon="0.71004">
        <ele>208</ele>
        <time>2018-05-16T22:52:24Z</time>
      </trkpt>
      <trkpt lat="44.50753" lon="0.70999">
        <ele>207.9</ele>
        <time>2018-05-16T22:52:25Z</time>
      </trkpt>
      <trkpt lat="44.50754" lon="0.70995">
        <ele>207.8</ele>
        <time>2018-05-16T22:52:26Z</time>
      </trkpt>
      <trkpt lat="44.50755" lon="0.7099">
        <ele>207.8</ele>
        <time>2018-05-16T22:52:27Z</time>
      </trkpt>
      <trkpt lat="44.50757" lon="0.70985">
        <ele>207.7</ele>
        <time>2018-05-16T22:52:28Z</time>
      </trkpt>
      <trkpt lat="44.50758" lon="0.70981">
        <ele>207.7</ele>
        <time>2018-05-16T22:52:29Z</time>
      </trkpt>
      <trkpt lat="44.50758" lon="0.70976">
        <ele>207.7</ele>
        <time>2018-05-16T22:52:30Z</time>
      </trkpt>
      <trkpt lat="44.50759" lon="0.70972">
        <ele>207.6</ele>
        <time>2018-05-16T22:52:31Z</time>
      </trkpt>
      <trkpt lat="44.5076" lon="0.70967">
        <ele>207.6</ele>
        <time>2018-05-16T22:52:32Z</time>
      </trkpt>
      <trkpt lat="44.50761" lon="0.70963">
        <ele>207.6</ele>
        <time>2018-05-16T22:52:33Z</time>
      </trkpt>
      <trkpt lat="44.50762" lon="0.70959">
        <ele>207.5</ele>
        <time>2018-05-16T22:52:34Z</time>
      </trkpt>
      <trkpt lat="44.50763" lon="0.70955">
        <ele>207.5</ele>
        <time>2018-05-16T22:52:35Z</time>
      </trkpt>
      <trkpt lat="44.50764" lon="0.70952">
        <ele>207.5</ele>
        <time>2018-05-16T22:52:36Z</time>
      </trkpt>
      <trkpt lat="44.50765" lon="0.70948">
        <ele>207.4</ele>
        <time>2018-05-16T22:52:37Z</time>
      </trkpt>
      <trkpt lat="44.50765" lon="0.70942">
        <ele>207.4</ele>
        <time>2018-05-16T22:52:39Z</time>
      </trkpt>
      <trkpt lat="44.50766" lon="0.70935">
        <ele>207.4</ele>
        <time>2018-05-16T22:52:41Z</time>
      </trkpt>
      <trkpt lat="44.50767" lon="0.70931">
        <ele>207.4</ele>
        <time>2018-05-16T22:52:42Z</time>
      </trkpt>
      <trkpt lat="44.50768" lon="0.70927">
        <ele>207.4</ele>
        <time>2018-05-16T22:52:43Z</time>
      </trkpt>
      <trkpt lat="44.50768" lon="0.70923">
        <ele>207.3</ele>
        <time>2018-05-16T22:52:44Z</time>
      </trkpt>
      <trkpt lat="44.50769" lon="0.70917">
        <ele>207.3</ele>
        <time>2018-05-16T22:52:46Z</time>
      </trkpt>
      <trkpt lat="44.5077" lon="0.70912">
        <ele>207.3</ele>
        <time>2018-05-16T22:52:47Z</time>
      </trkpt>
      <trkpt lat="44.5077" lon="0.70907">
        <ele>207.3</ele>
        <time>2018-05-16T22:52:48Z</time>
      </trkpt>
      <trkpt lat="44.5077" lon="0.70903">
        <ele>207.4</ele>
        <time>2018-05-16T22:52:49Z</time>
      </trkpt>
      <trkpt lat="44.50769" lon="0.70898">
        <ele>207.4</ele>
        <time>2018-05-16T22:52:50Z</time>
      </trkpt>
      <trkpt lat="44.5077" lon="0.70893">
        <ele>207.4</ele>
        <time>2018-05-16T22:52:51Z</time>
      </trkpt>
      <trkpt lat="44.5077" lon="0.70889">
        <ele>207.5</ele>
        <time>2018-05-16T22:52:52Z</time>
      </trkpt>
      <trkpt lat="44.50769" lon="0.70885">
        <ele>207.5</ele>
        <time>2018-05-16T22:52:53Z</time>
      </trkpt>
      <trkpt lat="44.5077" lon="0.70881">
        <ele>207.5</ele>
        <time>2018-05-16T22:52:54Z</time>
      </trkpt>
      <trkpt lat="44.5077" lon="0.70873">
        <ele>207.7</ele>
        <time>2018-05-16T22:52:56Z</time>
      </trkpt>
      <trkpt lat="44.5077" lon="0.70869">
        <ele>207.7</ele>
        <time>2018-05-16T22:52:57Z</time>
      </trkpt>
      <trkpt lat="44.5077" lon="0.70864">
        <ele>207.8</ele>
        <time>2018-05-16T22:52:58Z</time>
      </trkpt>
      <trkpt lat="44.50769" lon="0.7086">
        <ele>207.8</ele>
        <time>2018-05-16T22:52:59Z</time>
      </trkpt>
      <trkpt lat="44.50768" lon="0.70856">
        <ele>207.9</ele>
        <time>2018-05-16T22:53:00Z</time>
      </trkpt>
      <trkpt lat="44.50768" lon="0.70853">
        <ele>208</ele>
        <time>2018-05-16T22:53:01Z</time>
      </trkpt>
      <trkpt lat="44.50767" lon="0.70849">
        <ele>208</ele>
        <time>2018-05-16T22:53:02Z</time>
      </trkpt>
      <trkpt lat="44.50765" lon="0.70845">
        <ele>208</ele>
        <time>2018-05-16T22:53:03Z</time>
      </trkpt>
      <trkpt lat="44.50764" lon="0.70842">
        <ele>208.1</ele>
        <time>2018-05-16T22:53:04Z</time>
      </trkpt>
      <trkpt lat="44.50761" lon="0.70835">
        <ele>208.2</ele>
        <time>2018-05-16T22:53:06Z</time>
      </trkpt>
      <trkpt lat="44.5076" lon="0.70831">
        <ele>208.2</ele>
        <time>2018-05-16T22:53:07Z</time>
      </trkpt>
      <trkpt lat="44.50759" lon="0.70827">
        <ele>208.2</ele>
        <time>2018-05-16T22:53:08Z</time>
      </trkpt>
      <trkpt lat="44.50757" lon="0.70823">
        <ele>208.3</ele>
        <time>2018-05-16T22:53:09Z</time>
      </trkpt>
      <trkpt lat="44.50756" lon="0.70818">
        <ele>208.3</ele>
        <time>2018-05-16T22:53:10Z</time>
      </trkpt>
      <trkpt lat="44.50754" lon="0.70814">
        <ele>208.3</ele>
        <time>2018-05-16T22:53:11Z</time>
      </trkpt>
      <trkpt lat="44.50753" lon="0.7081">
        <ele>208.3</ele>
        <time>2018-05-16T22:53:12Z</time>
      </trkpt>
      <trkpt lat="44.50752" lon="0.70806">
        <ele>208.3</ele>
        <time>2018-05-16T22:53:13Z</time>
      </trkpt>
      <trkpt lat="44.50751" lon="0.70802">
        <ele>208.3</ele>
        <time>2018-05-16T22:53:14Z</time>
      </trkpt>
      <trkpt lat="44.5075" lon="0.70799">
        <ele>208.3</ele>
        <time>2018-05-16T22:53:15Z</time>
      </trkpt>
      <trkpt lat="44.50749" lon="0.70795">
        <ele>208.3</ele>
        <time>2018-05-16T22:53:16Z</time>
      </trkpt>
      <trkpt lat="44.50749" lon="0.70791">
        <ele>208.3</ele>
        <time>2018-05-16T22:53:17Z</time>
      </trkpt>
      <trkpt lat="44.50749" lon="0.70787">
        <ele>208.2</ele>
        <time>2018-05-16T22:53:18Z</time>
      </trkpt>
      <trkpt lat="44.50748" lon="0.70783">
        <ele>208.2</ele>
        <time>2018-05-16T22:53:19Z</time>
      </trkpt>
      <trkpt lat="44.50747" lon="0.7078">
        <ele>208.2</ele>
        <time>2018-05-16T22:53:20Z</time>
      </trkpt>
      <trkpt lat="44.50747" lon="0.70776">
        <ele>208.1</ele>
        <time>2018-05-16T22:53:21Z</time>
      </trkpt>
      <trkpt lat="44.50746" lon="0.70772">
        <ele>208.1</ele>
        <time>2018-05-16T22:53:22Z</time>
      </trkpt>
      <trkpt lat="44.50746" lon="0.70768">
        <ele>208.1</ele>
        <time>2018-05-16T22:53:23Z</time>
      </trkpt>
      <trkpt lat="44.50745" lon="0.70764">
        <ele>208.1</ele>
        <time>2018-05-16T22:53:24Z</time>
      </trkpt>
      <trkpt lat="44.50745" lon="0.7076">
        <ele>208</ele>
        <time>2018-05-16T22:53:25Z</time>
      </trkpt>
      <trkpt lat="44.50744" lon="0.70756">
        <ele>208</ele>
        <time>2018-05-16T22:53:26Z</time>
      </trkpt>
      <trkpt lat="44.50743" lon="0.70752">
        <ele>208</ele>
        <time>2018-05-16T22:53:27Z</time>
      </trkpt>
      <trkpt lat="44.50742" lon="0.70748">
        <ele>207.9</ele>
        <time>2018-05-16T22:53:28Z</time>
      </trkpt>
      <trkpt lat="44.50742" lon="0.70744">
        <ele>207.9</ele>
        <time>2018-05-16T22:53:29Z</time>
      </trkpt>
      <trkpt lat="44.50741" lon="0.7074">
        <ele>207.9</ele>
        <time>2018-05-16T22:53:30Z</time>
      </trkpt>
      <trkpt lat="44.50739" lon="0.70734">
        <ele>207.8</ele>
        <time>2018-05-16T22:53:32Z</time>
      </trkpt>
      <trkpt lat="44.50737" lon="0.70727">
        <ele>207.7</ele>
        <time>2018-05-16T22:53:34Z</time>
      </trkpt>
      <trkpt lat="44.50735" lon="0.7072">
        <ele>207.9</ele>
        <time>2018-05-16T22:53:36Z</time>
      </trkpt>
      <trkpt lat="44.50735" lon="0.70716">
        <ele>207.9</ele>
        <time>2018-05-16T22:53:37Z</time>
      </trkpt>
      <trkpt lat="44.50736" lon="0.7071">
        <ele>208</ele>
        <time>2018-05-16T22:53:39Z</time>
      </trkpt>
      <trkpt lat="44.50739" lon="0.70707">
        <ele>208.1</ele>
        <time>2018-05-16T22:53:40Z</time>
      </trkpt>
      <trkpt lat="44.50742" lon="0.70705">
        <ele>208.1</ele>
        <time>2018-05-16T22:53:41Z</time>
      </trkpt>
      <trkpt lat="44.50745" lon="0.70704">
        <ele>208.2</ele>
        <time>2018-05-16T22:53:42Z</time>
      </trkpt>
      <trkpt lat="44.50748" lon="0.70703">
        <ele>208.3</ele>
        <time>2018-05-16T22:53:43Z</time>
      </trkpt>
      <trkpt lat="44.50752" lon="0.70702">
        <ele>208.4</ele>
        <time>2018-05-16T22:53:44Z</time>
      </trkpt>
      <trkpt lat="44.50755" lon="0.707">
        <ele>208.4</ele>
        <time>2018-05-16T22:53:45Z</time>
      </trkpt>
      <trkpt lat="44.50759" lon="0.70698">
        <ele>208.5</ele>
        <time>2018-05-16T22:53:46Z</time>
      </trkpt>
      <trkpt lat="44.50762" lon="0.70696">
        <ele>208.6</ele>
        <time>2018-05-16T22:53:47Z</time>
      </trkpt>
      <trkpt lat="44.50766" lon="0.70694">
        <ele>208.6</ele>
        <time>2018-05-16T22:53:48Z</time>
      </trkpt>
      <trkpt lat="44.5077" lon="0.70693">
        <ele>208.7</ele>
        <time>2018-05-16T22:53:49Z</time>
      </trkpt>
      <trkpt lat="44.50774" lon="0.70691">
        <ele>208.7</ele>
        <time>2018-05-16T22:53:50Z</time>
      </trkpt>
      <trkpt lat="44.50778" lon="0.70688">
        <ele>208.8</ele>
        <time>2018-05-16T22:53:51Z</time>
      </trkpt>
      <trkpt lat="44.50782" lon="0.70686">
        <ele>208.8</ele>
        <time>2018-05-16T22:53:52Z</time>
      </trkpt>
      <trkpt lat="44.50786" lon="0.70685">
        <ele>208.9</ele>
        <time>2018-05-16T22:53:53Z</time>
      </trkpt>
      <trkpt lat="44.50791" lon="0.70683">
        <ele>208.9</ele>
        <time>2018-05-16T22:53:54Z</time>
      </trkpt>
      <trkpt lat="44.50796" lon="0.70682">
        <ele>209</ele>
        <time>2018-05-16T22:53:55Z</time>
      </trkpt>
      <trkpt lat="44.508" lon="0.70681">
        <ele>209.1</ele>
        <time>2018-05-16T22:53:56Z</time>
      </trkpt>
      <trkpt lat="44.50805" lon="0.70681">
        <ele>209.1</ele>
        <time>2018-05-16T22:53:57Z</time>
      </trkpt>
      <trkpt lat="44.5081" lon="0.7068">
        <ele>209.2</ele>
        <time>2018-05-16T22:53:58Z</time>
      </trkpt>
      <trkpt lat="44.50815" lon="0.70679">
        <ele>209.2</ele>
        <time>2018-05-16T22:53:59Z</time>
      </trkpt>
      <trkpt lat="44.5082" lon="0.70678">
        <ele>209.2</ele>
        <time>2018-05-16T22:54:00Z</time>
      </trkpt>
      <trkpt lat="44.50825" lon="0.70676">
        <ele>209.2</ele>
        <time>2018-05-16T22:54:01Z</time>
      </trkpt>
      <trkpt lat="44.50831" lon="0.70674">
        <ele>209.2</ele>
        <time>2018-05-16T22:54:02Z</time>
      </trkpt>
      <trkpt lat="44.50836" lon="0.70672">
        <ele>209.1</ele>
        <time>2018-05-16T22:54:03Z</time>
      </trkpt>
      <trkpt lat="44.50841" lon="0.7067">
        <ele>209</ele>
        <time>2018-05-16T22:54:04Z</time>
      </trkpt>
      <trkpt lat="44.50846" lon="0.70669">
        <ele>208.9</ele>
        <time>2018-05-16T22:54:05Z</time>
      </trkpt>
      <trkpt lat="44.50852" lon="0.70668">
        <ele>208.8</ele>
        <time>2018-05-16T22:54:06Z</time>
      </trkpt>
      <trkpt lat="44.50857" lon="0.70666">
        <ele>208.7</ele>
        <time>2018-05-16T22:54:07Z</time>
      </trkpt>
      <trkpt lat="44.50863" lon="0.70664">
        <ele>208.6</ele>
        <time>2018-05-16T22:54:08Z</time>
      </trkpt>
      <trkpt lat="44.50868" lon="0.70657">
        <ele>208.3</ele>
        <time>2018-05-16T22:54:09Z</time>
      </trkpt>
      <trkpt lat="44.50874" lon="0.70654">
        <ele>208.1</ele>
        <time>2018-05-16T22:54:10Z</time>
      </trkpt>
      <trkpt lat="44.50879" lon="0.70652">
        <ele>208</ele>
        <time>2018-05-16T22:54:11Z</time>
      </trkpt>
      <trkpt lat="44.50885" lon="0.70649">
        <ele>207.8</ele>
        <time>2018-05-16T22:54:12Z</time>
      </trkpt>
      <trkpt lat="44.5089" lon="0.70646">
        <ele>207.4</ele>
        <time>2018-05-16T22:54:13Z</time>
      </trkpt>
      <trkpt lat="44.50897" lon="0.7064">
        <ele>207</ele>
        <time>2018-05-16T22:54:14Z</time>
      </trkpt>
      <trkpt lat="44.50903" lon="0.70636">
        <ele>206.7</ele>
        <time>2018-05-16T22:54:15Z</time>
      </trkpt>
      <trkpt lat="44.5091" lon="0.70633">
        <ele>206.5</ele>
        <time>2018-05-16T22:54:16Z</time>
      </trkpt>
      <trkpt lat="44.50916" lon="0.70629">
        <ele>206.1</ele>
        <time>2018-05-16T22:54:17Z</time>
      </trkpt>
      <trkpt lat="44.50923" lon="0.70626">
        <ele>205.8</ele>
        <time>2018-05-16T22:54:18Z</time>
      </trkpt>
      <trkpt lat="44.50929" lon="0.70623">
        <ele>205.6</ele>
        <time>2018-05-16T22:54:19Z</time>
      </trkpt>
      <trkpt lat="44.50936" lon="0.7062">
        <ele>205.4</ele>
        <time>2018-05-16T22:54:20Z</time>
      </trkpt>
      <trkpt lat="44.50942" lon="0.70617">
        <ele>205.3</ele>
        <time>2018-05-16T22:54:21Z</time>
      </trkpt>
      <trkpt lat="44.50948" lon="0.70614">
        <ele>205.1</ele>
        <time>2018-05-16T22:54:22Z</time>
      </trkpt>
      <trkpt lat="44.50954" lon="0.70611">
        <ele>204.9</ele>
        <time>2018-05-16T22:54:23Z</time>
      </trkpt>
      <trkpt lat="44.5096" lon="0.70608">
        <ele>204.8</ele>
        <time>2018-05-16T22:54:24Z</time>
      </trkpt>
      <trkpt lat="44.50966" lon="0.70606">
        <ele>204.7</ele>
        <time>2018-05-16T22:54:25Z</time>
      </trkpt>
      <trkpt lat="44.50972" lon="0.70603">
        <ele>204.6</ele>
        <time>2018-05-16T22:54:26Z</time>
      </trkpt>
      <trkpt lat="44.50978" lon="0.70601">
        <ele>204.6</ele>
        <time>2018-05-16T22:54:27Z</time>
      </trkpt>
      <trkpt lat="44.50984" lon="0.70598">
        <ele>204.6</ele>
        <time>2018-05-16T22:54:28Z</time>
      </trkpt>
      <trkpt lat="44.5099" lon="0.70596">
        <ele>204.5</ele>
        <time>2018-05-16T22:54:29Z</time>
      </trkpt>
      <trkpt lat="44.50996" lon="0.70594">
        <ele>204.5</ele>
        <time>2018-05-16T22:54:30Z</time>
      </trkpt>
      <trkpt lat="44.51001" lon="0.70591">
        <ele>204.5</ele>
        <time>2018-05-16T22:54:31Z</time>
      </trkpt>
      <trkpt lat="44.51005" lon="0.70589">
        <ele>204.5</ele>
        <time>2018-05-16T22:54:32Z</time>
      </trkpt>
      <trkpt lat="44.51008" lon="0.70586">
        <ele>204.5</ele>
        <time>2018-05-16T22:54:33Z</time>
      </trkpt>
      <trkpt lat="44.51009" lon="0.70581">
        <ele>204.5</ele>
        <time>2018-05-16T22:54:34Z</time>
      </trkpt>
      <trkpt lat="44.5101" lon="0.70576">
        <ele>204.6</ele>
        <time>2018-05-16T22:54:35Z</time>
      </trkpt>
      <trkpt lat="44.51011" lon="0.70571">
        <ele>204.6</ele>
        <time>2018-05-16T22:54:36Z</time>
      </trkpt>
      <trkpt lat="44.51011" lon="0.70566">
        <ele>204.6</ele>
        <time>2018-05-16T22:54:37Z</time>
      </trkpt>
      <trkpt lat="44.51012" lon="0.70562">
        <ele>204.7</ele>
        <time>2018-05-16T22:54:38Z</time>
      </trkpt>
      <trkpt lat="44.51011" lon="0.70554">
        <ele>204.5</ele>
        <time>2018-05-16T22:54:40Z</time>
      </trkpt>
      <trkpt lat="44.5101" lon="0.70548">
        <ele>204.1</ele>
        <time>2018-05-16T22:54:42Z</time>
      </trkpt>
      <trkpt lat="44.51008" lon="0.70542">
        <ele>203.7</ele>
        <time>2018-05-16T22:54:44Z</time>
      </trkpt>
      <trkpt lat="44.51008" lon="0.70536">
        <ele>203.3</ele>
        <time>2018-05-16T22:54:46Z</time>
      </trkpt>
      <trkpt lat="44.51008" lon="0.70529">
        <ele>202.6</ele>
        <time>2018-05-16T22:54:48Z</time>
      </trkpt>
      <trkpt lat="44.51008" lon="0.70524">
        <ele>202.1</ele>
        <time>2018-05-16T22:54:49Z</time>
      </trkpt>
      <trkpt lat="44.51009" lon="0.70519">
        <ele>201.5</ele>
        <time>2018-05-16T22:54:50Z</time>
      </trkpt>
      <trkpt lat="44.51009" lon="0.70515">
        <ele>200.9</ele>
        <time>2018-05-16T22:54:51Z</time>
      </trkpt>
      <trkpt lat="44.5101" lon="0.7051">
        <ele>200.5</ele>
        <time>2018-05-16T22:54:52Z</time>
      </trkpt>
      <trkpt lat="44.51013" lon="0.705">
        <ele>198.9</ele>
        <time>2018-05-16T22:54:53Z</time>
      </trkpt>
      <trkpt lat="44.51013" lon="0.70493">
        <ele>198.5</ele>
        <time>2018-05-16T22:54:54Z</time>
      </trkpt>
      <trkpt lat="44.51014" lon="0.70487">
        <ele>197.4</ele>
        <time>2018-05-16T22:54:55Z</time>
      </trkpt>
      <trkpt lat="44.51016" lon="0.7048">
        <ele>196.9</ele>
        <time>2018-05-16T22:54:56Z</time>
      </trkpt>
      <trkpt lat="44.5102" lon="0.70476">
        <ele>195.9</ele>
        <time>2018-05-16T22:54:57Z</time>
      </trkpt>
      <trkpt lat="44.51024" lon="0.70472">
        <ele>195.9</ele>
        <time>2018-05-16T22:54:58Z</time>
      </trkpt>
      <trkpt lat="44.51029" lon="0.70467">
        <ele>194.8</ele>
        <time>2018-05-16T22:54:59Z</time>
      </trkpt>
      <trkpt lat="44.51034" lon="0.70463">
        <ele>194.7</ele>
        <time>2018-05-16T22:55:00Z</time>
      </trkpt>
      <trkpt lat="44.51039" lon="0.7046">
        <ele>194</ele>
        <time>2018-05-16T22:55:01Z</time>
      </trkpt>
      <trkpt lat="44.51044" lon="0.70456">
        <ele>193.3</ele>
        <time>2018-05-16T22:55:02Z</time>
      </trkpt>
      <trkpt lat="44.51048" lon="0.70453">
        <ele>192.5</ele>
        <time>2018-05-16T22:55:03Z</time>
      </trkpt>
      <trkpt lat="44.51053" lon="0.7045">
        <ele>191.7</ele>
        <time>2018-05-16T22:55:04Z</time>
      </trkpt>
      <trkpt lat="44.51058" lon="0.70447">
        <ele>191.5</ele>
        <time>2018-05-16T22:55:05Z</time>
      </trkpt>
      <trkpt lat="44.51063" lon="0.70444">
        <ele>190.6</ele>
        <time>2018-05-16T22:55:06Z</time>
      </trkpt>
      <trkpt lat="44.51069" lon="0.70441">
        <ele>189.6</ele>
        <time>2018-05-16T22:55:07Z</time>
      </trkpt>
      <trkpt lat="44.51075" lon="0.70438">
        <ele>189.3</ele>
        <time>2018-05-16T22:55:08Z</time>
      </trkpt>
      <trkpt lat="44.5108" lon="0.70434">
        <ele>188.2</ele>
        <time>2018-05-16T22:55:09Z</time>
      </trkpt>
      <trkpt lat="44.51086" lon="0.7043">
        <ele>187.2</ele>
        <time>2018-05-16T22:55:10Z</time>
      </trkpt>
      <trkpt lat="44.51092" lon="0.70427">
        <ele>186.1</ele>
        <time>2018-05-16T22:55:11Z</time>
      </trkpt>
      <trkpt lat="44.51098" lon="0.70424">
        <ele>184.9</ele>
        <time>2018-05-16T22:55:12Z</time>
      </trkpt>
      <trkpt lat="44.51103" lon="0.70421">
        <ele>184.5</ele>
        <time>2018-05-16T22:55:13Z</time>
      </trkpt>
      <trkpt lat="44.51109" lon="0.70419">
        <ele>183.3</ele>
        <time>2018-05-16T22:55:14Z</time>
      </trkpt>
      <trkpt lat="44.51115" lon="0.70417">
        <ele>182.9</ele>
        <time>2018-05-16T22:55:15Z</time>
      </trkpt>
      <trkpt lat="44.5112" lon="0.70415">
        <ele>181.7</ele>
        <time>2018-05-16T22:55:16Z</time>
      </trkpt>
      <trkpt lat="44.51125" lon="0.70413">
        <ele>181.2</ele>
        <time>2018-05-16T22:55:17Z</time>
      </trkpt>
      <trkpt lat="44.51131" lon="0.70413">
        <ele>180.6</ele>
        <time>2018-05-16T22:55:18Z</time>
      </trkpt>
      <trkpt lat="44.51138" lon="0.70413">
        <ele>180.1</ele>
        <time>2018-05-16T22:55:19Z</time>
      </trkpt>
      <trkpt lat="44.51145" lon="0.70414">
        <ele>179.2</ele>
        <time>2018-05-16T22:55:20Z</time>
      </trkpt>
      <trkpt lat="44.51153" lon="0.70415">
        <ele>178.7</ele>
        <time>2018-05-16T22:55:21Z</time>
      </trkpt>
      <trkpt lat="44.5116" lon="0.70417">
        <ele>179</ele>
        <time>2018-05-16T22:55:22Z</time>
      </trkpt>
      <trkpt lat="44.51168" lon="0.70418">
        <ele>178.6</ele>
        <time>2018-05-16T22:55:23Z</time>
      </trkpt>
      <trkpt lat="44.51176" lon="0.7042">
        <ele>179</ele>
        <time>2018-05-16T22:55:24Z</time>
      </trkpt>
      <trkpt lat="44.51186" lon="0.70419">
        <ele>177.5</ele>
        <time>2018-05-16T22:55:25Z</time>
      </trkpt>
      <trkpt lat="44.51195" lon="0.70421">
        <ele>177.6</ele>
        <time>2018-05-16T22:55:26Z</time>
      </trkpt>
      <trkpt lat="44.51207" lon="0.70419">
        <ele>175.7</ele>
        <time>2018-05-16T22:55:27Z</time>
      </trkpt>
      <trkpt lat="44.51216" lon="0.70421">
        <ele>175.8</ele>
        <time>2018-05-16T22:55:28Z</time>
      </trkpt>
      <trkpt lat="44.51225" lon="0.70424">
        <ele>175</ele>
        <time>2018-05-16T22:55:29Z</time>
      </trkpt>
      <trkpt lat="44.51234" lon="0.70426">
        <ele>175.3</ele>
        <time>2018-05-16T22:55:30Z</time>
      </trkpt>
      <trkpt lat="44.51242" lon="0.7043">
        <ele>175.7</ele>
        <time>2018-05-16T22:55:31Z</time>
      </trkpt>
      <trkpt lat="44.5125" lon="0.70434">
        <ele>175.8</ele>
        <time>2018-05-16T22:55:32Z</time>
      </trkpt>
      <trkpt lat="44.51257" lon="0.70438">
        <ele>176</ele>
        <time>2018-05-16T22:55:33Z</time>
      </trkpt>
      <trkpt lat="44.51264" lon="0.70442">
        <ele>176.2</ele>
        <time>2018-05-16T22:55:34Z</time>
      </trkpt>
      <trkpt lat="44.51271" lon="0.70446">
        <ele>176.1</ele>
        <time>2018-05-16T22:55:35Z</time>
      </trkpt>
      <trkpt lat="44.51277" lon="0.7045">
        <ele>176.1</ele>
        <time>2018-05-16T22:55:36Z</time>
      </trkpt>
      <trkpt lat="44.51282" lon="0.70456">
        <ele>176.6</ele>
        <time>2018-05-16T22:55:37Z</time>
      </trkpt>
      <trkpt lat="44.51287" lon="0.70462">
        <ele>177.1</ele>
        <time>2018-05-16T22:55:38Z</time>
      </trkpt>
      <trkpt lat="44.51292" lon="0.70467">
        <ele>177.5</ele>
        <time>2018-05-16T22:55:39Z</time>
      </trkpt>
      <trkpt lat="44.51295" lon="0.70474">
        <ele>177.8</ele>
        <time>2018-05-16T22:55:40Z</time>
      </trkpt>
      <trkpt lat="44.51299" lon="0.70479">
        <ele>178.1</ele>
        <time>2018-05-16T22:55:41Z</time>
      </trkpt>
      <trkpt lat="44.51302" lon="0.70486">
        <ele>178.4</ele>
        <time>2018-05-16T22:55:42Z</time>
      </trkpt>
      <trkpt lat="44.51304" lon="0.70492">
        <ele>178.6</ele>
        <time>2018-05-16T22:55:43Z</time>
      </trkpt>
      <trkpt lat="44.51307" lon="0.70499">
        <ele>178.9</ele>
        <time>2018-05-16T22:55:44Z</time>
      </trkpt>
      <trkpt lat="44.5131" lon="0.70505">
        <ele>179.2</ele>
        <time>2018-05-16T22:55:45Z</time>
      </trkpt>
      <trkpt lat="44.51312" lon="0.70512">
        <ele>179.6</ele>
        <time>2018-05-16T22:55:46Z</time>
      </trkpt>
      <trkpt lat="44.51315" lon="0.70519">
        <ele>179.9</ele>
        <time>2018-05-16T22:55:47Z</time>
      </trkpt>
      <trkpt lat="44.51318" lon="0.70525">
        <ele>180.2</ele>
        <time>2018-05-16T22:55:48Z</time>
      </trkpt>
      <trkpt lat="44.51322" lon="0.70531">
        <ele>180.5</ele>
        <time>2018-05-16T22:55:49Z</time>
      </trkpt>
      <trkpt lat="44.51325" lon="0.70537">
        <ele>180.8</ele>
        <time>2018-05-16T22:55:50Z</time>
      </trkpt>
      <trkpt lat="44.51329" lon="0.70542">
        <ele>181.1</ele>
        <time>2018-05-16T22:55:51Z</time>
      </trkpt>
      <trkpt lat="44.51334" lon="0.70546">
        <ele>181.3</ele>
        <time>2018-05-16T22:55:52Z</time>
      </trkpt>
      <trkpt lat="44.51337" lon="0.70549">
        <ele>181.6</ele>
        <time>2018-05-16T22:55:53Z</time>
      </trkpt>
      <trkpt lat="44.51341" lon="0.70551">
        <ele>181.8</ele>
        <time>2018-05-16T22:55:54Z</time>
      </trkpt>
      <trkpt lat="44.51345" lon="0.70555">
        <ele>182</ele>
        <time>2018-05-16T22:55:55Z</time>
      </trkpt>
      <trkpt lat="44.51349" lon="0.70558">
        <ele>182.2</ele>
        <time>2018-05-16T22:55:56Z</time>
      </trkpt>
      <trkpt lat="44.51353" lon="0.70561">
        <ele>182.4</ele>
        <time>2018-05-16T22:55:57Z</time>
      </trkpt>
      <trkpt lat="44.51357" lon="0.70564">
        <ele>182.6</ele>
        <time>2018-05-16T22:55:58Z</time>
      </trkpt>
      <trkpt lat="44.51361" lon="0.70567">
        <ele>182.7</ele>
        <time>2018-05-16T22:55:59Z</time>
      </trkpt>
      <trkpt lat="44.51365" lon="0.70569">
        <ele>182.9</ele>
        <time>2018-05-16T22:56:00Z</time>
      </trkpt>
      <trkpt lat="44.51368" lon="0.70572">
        <ele>183.2</ele>
        <time>2018-05-16T22:56:01Z</time>
      </trkpt>
      <trkpt lat="44.51372" lon="0.70574">
        <ele>183.4</ele>
        <time>2018-05-16T22:56:02Z</time>
      </trkpt>
      <trkpt lat="44.51376" lon="0.70575">
        <ele>183.6</ele>
        <time>2018-05-16T22:56:03Z</time>
      </trkpt>
      <trkpt lat="44.5138" lon="0.70576">
        <ele>183.8</ele>
        <time>2018-05-16T22:56:04Z</time>
      </trkpt>
      <trkpt lat="44.51383" lon="0.70578">
        <ele>183.9</ele>
        <time>2018-05-16T22:56:05Z</time>
      </trkpt>
      <trkpt lat="44.51388" lon="0.7058">
        <ele>184.1</ele>
        <time>2018-05-16T22:56:06Z</time>
      </trkpt>
      <trkpt lat="44.51393" lon="0.70583">
        <ele>184.3</ele>
        <time>2018-05-16T22:56:07Z</time>
      </trkpt>
      <trkpt lat="44.51397" lon="0.70584">
        <ele>184.4</ele>
        <time>2018-05-16T22:56:08Z</time>
      </trkpt>
      <trkpt lat="44.51402" lon="0.70584">
        <ele>184.6</ele>
        <time>2018-05-16T22:56:09Z</time>
      </trkpt>
      <trkpt lat="44.51405" lon="0.70584">
        <ele>184.8</ele>
        <time>2018-05-16T22:56:10Z</time>
      </trkpt>
      <trkpt lat="44.51408" lon="0.70583">
        <ele>184.9</ele>
        <time>2018-05-16T22:56:11Z</time>
      </trkpt>
      <trkpt lat="44.51411" lon="0.70583">
        <ele>185</ele>
        <time>2018-05-16T22:56:12Z</time>
      </trkpt>
      <trkpt lat="44.51415" lon="0.70584">
        <ele>185.1</ele>
        <time>2018-05-16T22:56:13Z</time>
      </trkpt>
      <trkpt lat="44.51419" lon="0.70584">
        <ele>185.3</ele>
        <time>2018-05-16T22:56:14Z</time>
      </trkpt>
      <trkpt lat="44.51422" lon="0.70584">
        <ele>185.4</ele>
        <time>2018-05-16T22:56:15Z</time>
      </trkpt>
      <trkpt lat="44.51426" lon="0.70584">
        <ele>185.5</ele>
        <time>2018-05-16T22:56:16Z</time>
      </trkpt>
      <trkpt lat="44.5143" lon="0.70585">
        <ele>185.6</ele>
        <time>2018-05-16T22:56:17Z</time>
      </trkpt>
      <trkpt lat="44.51434" lon="0.70586">
        <ele>185.6</ele>
        <time>2018-05-16T22:56:18Z</time>
      </trkpt>
      <trkpt lat="44.51442" lon="0.7059">
        <ele>185.7</ele>
        <time>2018-05-16T22:56:19Z</time>
      </trkpt>
      <trkpt lat="44.51446" lon="0.70589">
        <ele>185.8</ele>
        <time>2018-05-16T22:56:20Z</time>
      </trkpt>
      <trkpt lat="44.51449" lon="0.70589">
        <ele>185.8</ele>
        <time>2018-05-16T22:56:21Z</time>
      </trkpt>
      <trkpt lat="44.51453" lon="0.70589">
        <ele>185.8</ele>
        <time>2018-05-16T22:56:22Z</time>
      </trkpt>
      <trkpt lat="44.51457" lon="0.7059">
        <ele>185.9</ele>
        <time>2018-05-16T22:56:23Z</time>
      </trkpt>
      <trkpt lat="44.51461" lon="0.7059">
        <ele>186</ele>
        <time>2018-05-16T22:56:24Z</time>
      </trkpt>
      <trkpt lat="44.51465" lon="0.7059">
        <ele>186.1</ele>
        <time>2018-05-16T22:56:25Z</time>
      </trkpt>
      <trkpt lat="44.51469" lon="0.70589">
        <ele>186.2</ele>
        <time>2018-05-16T22:56:26Z</time>
      </trkpt>
      <trkpt lat="44.51473" lon="0.70589">
        <ele>186.2</ele>
        <time>2018-05-16T22:56:27Z</time>
      </trkpt>
      <trkpt lat="44.51479" lon="0.70592">
        <ele>186.3</ele>
        <time>2018-05-16T22:56:28Z</time>
      </trkpt>
      <trkpt lat="44.51482" lon="0.70592">
        <ele>186.3</ele>
        <time>2018-05-16T22:56:29Z</time>
      </trkpt>
      <trkpt lat="44.51486" lon="0.70592">
        <ele>186.4</ele>
        <time>2018-05-16T22:56:30Z</time>
      </trkpt>
      <trkpt lat="44.5149" lon="0.70593">
        <ele>186.5</ele>
        <time>2018-05-16T22:56:31Z</time>
      </trkpt>
      <trkpt lat="44.51493" lon="0.70594">
        <ele>186.6</ele>
        <time>2018-05-16T22:56:32Z</time>
      </trkpt>
      <trkpt lat="44.5149" lon="0.70593">
        <ele>187</ele>
        <time>2018-05-16T22:56:37Z</time>
      </trkpt>
      <trkpt lat="44.51504" lon="0.70581">
        <ele>187.7</ele>
        <time>2018-05-16T22:57:40Z</time>
      </trkpt>
      <trkpt lat="44.51515" lon="0.70584">
        <ele>188</ele>
        <time>2018-05-16T22:57:42Z</time>
      </trkpt>
      <trkpt lat="44.51517" lon="0.7058">
        <ele>188.1</ele>
        <time>2018-05-16T22:57:43Z</time>
      </trkpt>
      <trkpt lat="44.51522" lon="0.70579">
        <ele>188.2</ele>
        <time>2018-05-16T22:57:45Z</time>
      </trkpt>
      <trkpt lat="44.51526" lon="0.70574">
        <ele>188.4</ele>
        <time>2018-05-16T22:57:47Z</time>
      </trkpt>
      <trkpt lat="44.51529" lon="0.70573">
        <ele>188.5</ele>
        <time>2018-05-16T22:57:48Z</time>
      </trkpt>
      <trkpt lat="44.51532" lon="0.70568">
        <ele>188.6</ele>
        <time>2018-05-16T22:57:50Z</time>
      </trkpt>
      <trkpt lat="44.51536" lon="0.70567">
        <ele>188.7</ele>
        <time>2018-05-16T22:57:51Z</time>
      </trkpt>
      <trkpt lat="44.51532" lon="0.70564">
        <ele>188.8</ele>
        <time>2018-05-16T22:57:52Z</time>
      </trkpt>
      <trkpt lat="44.51543" lon="0.70564">
        <ele>188.9</ele>
        <time>2018-05-16T22:57:53Z</time>
      </trkpt>
      <trkpt lat="44.51549" lon="0.70563">
        <ele>188.9</ele>
        <time>2018-05-16T22:57:54Z</time>
      </trkpt>
      <trkpt lat="44.51555" lon="0.70562">
        <ele>188.9</ele>
        <time>2018-05-16T22:57:55Z</time>
      </trkpt>
      <trkpt lat="44.51561" lon="0.7056">
        <ele>188.9</ele>
        <time>2018-05-16T22:57:56Z</time>
      </trkpt>
      <trkpt lat="44.51567" lon="0.70557">
        <ele>188.8</ele>
        <time>2018-05-16T22:57:57Z</time>
      </trkpt>
      <trkpt lat="44.51573" lon="0.70554">
        <ele>188.7</ele>
        <time>2018-05-16T22:57:58Z</time>
      </trkpt>
      <trkpt lat="44.51578" lon="0.70547">
        <ele>188.5</ele>
        <time>2018-05-16T22:57:59Z</time>
      </trkpt>
      <trkpt lat="44.51583" lon="0.70543">
        <ele>188.3</ele>
        <time>2018-05-16T22:58:00Z</time>
      </trkpt>
      <trkpt lat="44.51588" lon="0.70539">
        <ele>188.1</ele>
        <time>2018-05-16T22:58:01Z</time>
      </trkpt>
      <trkpt lat="44.51593" lon="0.70535">
        <ele>187.9</ele>
        <time>2018-05-16T22:58:02Z</time>
      </trkpt>
      <trkpt lat="44.51598" lon="0.70531">
        <ele>187.7</ele>
        <time>2018-05-16T22:58:03Z</time>
      </trkpt>
      <trkpt lat="44.51603" lon="0.70527">
        <ele>187.6</ele>
        <time>2018-05-16T22:58:04Z</time>
      </trkpt>
      <trkpt lat="44.51607" lon="0.70524">
        <ele>187.4</ele>
        <time>2018-05-16T22:58:05Z</time>
      </trkpt>
      <trkpt lat="44.51611" lon="0.70519">
        <ele>187.8</ele>
        <time>2018-05-16T22:58:06Z</time>
      </trkpt>
      <trkpt lat="44.51614" lon="0.70515">
        <ele>188.2</ele>
        <time>2018-05-16T22:58:07Z</time>
      </trkpt>
      <trkpt lat="44.51617" lon="0.70511">
        <ele>188.5</ele>
        <time>2018-05-16T22:58:08Z</time>
      </trkpt>
      <trkpt lat="44.5162" lon="0.70506">
        <ele>188.8</ele>
        <time>2018-05-16T22:58:09Z</time>
      </trkpt>
      <trkpt lat="44.51623" lon="0.70502">
        <ele>189.1</ele>
        <time>2018-05-16T22:58:10Z</time>
      </trkpt>
      <trkpt lat="44.51626" lon="0.70497">
        <ele>189.4</ele>
        <time>2018-05-16T22:58:11Z</time>
      </trkpt>
      <trkpt lat="44.51627" lon="0.70492">
        <ele>189.3</ele>
        <time>2018-05-16T22:58:12Z</time>
      </trkpt>
      <trkpt lat="44.5163" lon="0.70488">
        <ele>189.5</ele>
        <time>2018-05-16T22:58:13Z</time>
      </trkpt>
      <trkpt lat="44.51631" lon="0.70484">
        <ele>189.8</ele>
        <time>2018-05-16T22:58:14Z</time>
      </trkpt>
      <trkpt lat="44.51633" lon="0.7048">
        <ele>189.7</ele>
        <time>2018-05-16T22:58:15Z</time>
      </trkpt>
      <trkpt lat="44.51635" lon="0.70475">
        <ele>189.9</ele>
        <time>2018-05-16T22:58:16Z</time>
      </trkpt>
      <trkpt lat="44.51638" lon="0.7047">
        <ele>190</ele>
        <time>2018-05-16T22:58:17Z</time>
      </trkpt>
      <trkpt lat="44.51643" lon="0.70467">
        <ele>190.2</ele>
        <time>2018-05-16T22:58:18Z</time>
      </trkpt>
      <trkpt lat="44.51647" lon="0.70463">
        <ele>190.7</ele>
        <time>2018-05-16T22:58:19Z</time>
      </trkpt>
      <trkpt lat="44.5165" lon="0.70459">
        <ele>190.8</ele>
        <time>2018-05-16T22:58:20Z</time>
      </trkpt>
      <trkpt lat="44.51653" lon="0.70455">
        <ele>190.9</ele>
        <time>2018-05-16T22:58:21Z</time>
      </trkpt>
      <trkpt lat="44.51655" lon="0.7045">
        <ele>190.8</ele>
        <time>2018-05-16T22:58:22Z</time>
      </trkpt>
      <trkpt lat="44.51658" lon="0.70445">
        <ele>190.7</ele>
        <time>2018-05-16T22:58:23Z</time>
      </trkpt>
      <trkpt lat="44.5166" lon="0.70441">
        <ele>190.8</ele>
        <time>2018-05-16T22:58:24Z</time>
      </trkpt>
      <trkpt lat="44.51664" lon="0.70434">
        <ele>190.9</ele>
        <time>2018-05-16T22:58:25Z</time>
      </trkpt>
      <trkpt lat="44.51666" lon="0.7043">
        <ele>191</ele>
        <time>2018-05-16T22:58:26Z</time>
      </trkpt>
      <trkpt lat="44.51669" lon="0.70425">
        <ele>191</ele>
        <time>2018-05-16T22:58:27Z</time>
      </trkpt>
      <trkpt lat="44.51673" lon="0.70416">
        <ele>190.7</ele>
        <time>2018-05-16T22:58:28Z</time>
      </trkpt>
      <trkpt lat="44.51676" lon="0.70411">
        <ele>190.2</ele>
        <time>2018-05-16T22:58:29Z</time>
      </trkpt>
      <trkpt lat="44.51678" lon="0.70405">
        <ele>190.1</ele>
        <time>2018-05-16T22:58:30Z</time>
      </trkpt>
      <trkpt lat="44.51681" lon="0.70401">
        <ele>190.1</ele>
        <time>2018-05-16T22:58:31Z</time>
      </trkpt>
      <trkpt lat="44.51683" lon="0.70396">
        <ele>189.8</ele>
        <time>2018-05-16T22:58:32Z</time>
      </trkpt>
      <trkpt lat="44.51684" lon="0.70391">
        <ele>189.9</ele>
        <time>2018-05-16T22:58:33Z</time>
      </trkpt>
      <trkpt lat="44.51686" lon="0.70387">
        <ele>189.7</ele>
        <time>2018-05-16T22:58:34Z</time>
      </trkpt>
      <trkpt lat="44.51688" lon="0.70384">
        <ele>189.8</ele>
        <time>2018-05-16T22:58:35Z</time>
      </trkpt>
      <trkpt lat="44.51691" lon="0.70379">
        <ele>189.9</ele>
        <time>2018-05-16T22:58:37Z</time>
      </trkpt>
      <trkpt lat="44.51693" lon="0.70376">
        <ele>190.2</ele>
        <time>2018-05-16T22:58:38Z</time>
      </trkpt>
      <trkpt lat="44.51696" lon="0.70373">
        <ele>190.7</ele>
        <time>2018-05-16T22:58:39Z</time>
      </trkpt>
      <trkpt lat="44.51699" lon="0.70369">
        <ele>191</ele>
        <time>2018-05-16T22:58:41Z</time>
      </trkpt>
      <trkpt lat="44.51702" lon="0.70365">
        <ele>191.2</ele>
        <time>2018-05-16T22:58:43Z</time>
      </trkpt>
      <trkpt lat="44.51706" lon="0.70361">
        <ele>191.4</ele>
        <time>2018-05-16T22:58:45Z</time>
      </trkpt>
      <trkpt lat="44.51711" lon="0.70358">
        <ele>192</ele>
        <time>2018-05-16T22:58:47Z</time>
      </trkpt>
      <trkpt lat="44.51714" lon="0.70356">
        <ele>192.6</ele>
        <time>2018-05-16T22:58:48Z</time>
      </trkpt>
      <trkpt lat="44.51716" lon="0.70354">
        <ele>192.3</ele>
        <time>2018-05-16T22:58:49Z</time>
      </trkpt>
      <trkpt lat="44.51719" lon="0.70352">
        <ele>193</ele>
        <time>2018-05-16T22:58:50Z</time>
      </trkpt>
      <trkpt lat="44.51723" lon="0.70349">
        <ele>193.9</ele>
        <time>2018-05-16T22:58:52Z</time>
      </trkpt>
      <trkpt lat="44.51726" lon="0.70347">
        <ele>194.5</ele>
        <time>2018-05-16T22:58:53Z</time>
      </trkpt>
      <trkpt lat="44.51729" lon="0.70345">
        <ele>194.8</ele>
        <time>2018-05-16T22:58:54Z</time>
      </trkpt>
      <trkpt lat="44.51732" lon="0.70343">
        <ele>195.4</ele>
        <time>2018-05-16T22:58:55Z</time>
      </trkpt>
      <trkpt lat="44.51735" lon="0.70341">
        <ele>195.6</ele>
        <time>2018-05-16T22:58:56Z</time>
      </trkpt>
      <trkpt lat="44.51738" lon="0.7034">
        <ele>196.2</ele>
        <time>2018-05-16T22:58:57Z</time>
      </trkpt>
      <trkpt lat="44.51743" lon="0.70336">
        <ele>196.5</ele>
        <time>2018-05-16T22:58:59Z</time>
      </trkpt>
      <trkpt lat="44.51745" lon="0.70333">
        <ele>196.6</ele>
        <time>2018-05-16T22:59:00Z</time>
      </trkpt>
      <trkpt lat="44.51748" lon="0.7033">
        <ele>197.2</ele>
        <time>2018-05-16T22:59:01Z</time>
      </trkpt>
      <trkpt lat="44.5175" lon="0.70326">
        <ele>196.9</ele>
        <time>2018-05-16T22:59:02Z</time>
      </trkpt>
      <trkpt lat="44.51752" lon="0.70321">
        <ele>196.6</ele>
        <time>2018-05-16T22:59:03Z</time>
      </trkpt>
      <trkpt lat="44.51756" lon="0.70317">
        <ele>196.7</ele>
        <time>2018-05-16T22:59:04Z</time>
      </trkpt>
      <trkpt lat="44.51761" lon="0.70312">
        <ele>197</ele>
        <time>2018-05-16T22:59:05Z</time>
      </trkpt>
      <trkpt lat="44.51765" lon="0.70308">
        <ele>197.5</ele>
        <time>2018-05-16T22:59:06Z</time>
      </trkpt>
      <trkpt lat="44.51768" lon="0.70302">
        <ele>197.2</ele>
        <time>2018-05-16T22:59:07Z</time>
      </trkpt>
      <trkpt lat="44.51771" lon="0.70296">
        <ele>197.1</ele>
        <time>2018-05-16T22:59:08Z</time>
      </trkpt>
      <trkpt lat="44.51775" lon="0.70291">
        <ele>196.8</ele>
        <time>2018-05-16T22:59:09Z</time>
      </trkpt>
      <trkpt lat="44.51779" lon="0.70285">
        <ele>196.6</ele>
        <time>2018-05-16T22:59:10Z</time>
      </trkpt>
      <trkpt lat="44.51782" lon="0.70279">
        <ele>196.3</ele>
        <time>2018-05-16T22:59:11Z</time>
      </trkpt>
      <trkpt lat="44.51787" lon="0.70274">
        <ele>195.4</ele>
        <time>2018-05-16T22:59:12Z</time>
      </trkpt>
      <trkpt lat="44.51789" lon="0.70266">
        <ele>195.1</ele>
        <time>2018-05-16T22:59:13Z</time>
      </trkpt>
      <trkpt lat="44.51793" lon="0.70262">
        <ele>194.9</ele>
        <time>2018-05-16T22:59:14Z</time>
      </trkpt>
      <trkpt lat="44.51798" lon="0.70258">
        <ele>194.6</ele>
        <time>2018-05-16T22:59:15Z</time>
      </trkpt>
      <trkpt lat="44.51801" lon="0.70252">
        <ele>193.6</ele>
        <time>2018-05-16T22:59:16Z</time>
      </trkpt>
      <trkpt lat="44.51806" lon="0.70241">
        <ele>192.6</ele>
        <time>2018-05-16T22:59:17Z</time>
      </trkpt>
      <trkpt lat="44.51809" lon="0.70234">
        <ele>191.3</ele>
        <time>2018-05-16T22:59:18Z</time>
      </trkpt>
      <trkpt lat="44.51814" lon="0.70229">
        <ele>190.7</ele>
        <time>2018-05-16T22:59:19Z</time>
      </trkpt>
      <trkpt lat="44.51818" lon="0.7022">
        <ele>189.3</ele>
        <time>2018-05-16T22:59:20Z</time>
      </trkpt>
      <trkpt lat="44.5182" lon="0.70209">
        <ele>187.7</ele>
        <time>2018-05-16T22:59:21Z</time>
      </trkpt>
      <trkpt lat="44.51822" lon="0.70201">
        <ele>186.7</ele>
        <time>2018-05-16T22:59:22Z</time>
      </trkpt>
      <trkpt lat="44.51825" lon="0.70193">
        <ele>186.3</ele>
        <time>2018-05-16T22:59:23Z</time>
      </trkpt>
      <trkpt lat="44.51829" lon="0.70186">
        <ele>185.4</ele>
        <time>2018-05-16T22:59:24Z</time>
      </trkpt>
      <trkpt lat="44.51832" lon="0.70178">
        <ele>184.7</ele>
        <time>2018-05-16T22:59:25Z</time>
      </trkpt>
      <trkpt lat="44.51834" lon="0.7017">
        <ele>184</ele>
        <time>2018-05-16T22:59:26Z</time>
      </trkpt>
      <trkpt lat="44.51836" lon="0.70163">
        <ele>183.8</ele>
        <time>2018-05-16T22:59:27Z</time>
      </trkpt>
      <trkpt lat="44.51837" lon="0.70157">
        <ele>183.1</ele>
        <time>2018-05-16T22:59:28Z</time>
      </trkpt>
      <trkpt lat="44.51837" lon="0.7015">
        <ele>182.9</ele>
        <time>2018-05-16T22:59:29Z</time>
      </trkpt>
      <trkpt lat="44.51838" lon="0.70144">
        <ele>182.4</ele>
        <time>2018-05-16T22:59:30Z</time>
      </trkpt>
      <trkpt lat="44.5184" lon="0.70138">
        <ele>182</ele>
        <time>2018-05-16T22:59:31Z</time>
      </trkpt>
      <trkpt lat="44.5184" lon="0.70131">
        <ele>181.6</ele>
        <time>2018-05-16T22:59:32Z</time>
      </trkpt>
      <trkpt lat="44.5184" lon="0.70123">
        <ele>181.4</ele>
        <time>2018-05-16T22:59:33Z</time>
      </trkpt>
      <trkpt lat="44.51841" lon="0.70114">
        <ele>181.2</ele>
        <time>2018-05-16T22:59:34Z</time>
      </trkpt>
      <trkpt lat="44.51841" lon="0.70106">
        <ele>181.1</ele>
        <time>2018-05-16T22:59:35Z</time>
      </trkpt>
      <trkpt lat="44.51838" lon="0.70096">
        <ele>181.1</ele>
        <time>2018-05-16T22:59:36Z</time>
      </trkpt>
      <trkpt lat="44.51839" lon="0.70091">
        <ele>180.9</ele>
        <time>2018-05-16T22:59:37Z</time>
      </trkpt>
      <trkpt lat="44.51838" lon="0.70087">
        <ele>181</ele>
        <time>2018-05-16T22:59:38Z</time>
      </trkpt>
      <trkpt lat="44.51844" lon="0.7009">
        <ele>180.8</ele>
        <time>2018-05-16T22:59:41Z</time>
      </trkpt>
      <trkpt lat="44.51846" lon="0.70093">
        <ele>180.7</ele>
        <time>2018-05-16T22:59:42Z</time>
      </trkpt>
      <trkpt lat="44.5185" lon="0.70101">
        <ele>180.7</ele>
        <time>2018-05-16T22:59:43Z</time>
      </trkpt>
      <trkpt lat="44.51858" lon="0.70114">
        <ele>180.1</ele>
        <time>2018-05-16T22:59:44Z</time>
      </trkpt>
      <trkpt lat="44.51861" lon="0.70121">
        <ele>180</ele>
        <time>2018-05-16T22:59:45Z</time>
      </trkpt>
      <trkpt lat="44.51864" lon="0.70127">
        <ele>179.8</ele>
        <time>2018-05-16T22:59:46Z</time>
      </trkpt>
      <trkpt lat="44.5187" lon="0.70136">
        <ele>179.3</ele>
        <time>2018-05-16T22:59:47Z</time>
      </trkpt>
      <trkpt lat="44.51873" lon="0.70143">
        <ele>179.4</ele>
        <time>2018-05-16T22:59:48Z</time>
      </trkpt>
      <trkpt lat="44.51882" lon="0.70155">
        <ele>178.9</ele>
        <time>2018-05-16T22:59:49Z</time>
      </trkpt>
      <trkpt lat="44.51888" lon="0.70163">
        <ele>179</ele>
        <time>2018-05-16T22:59:50Z</time>
      </trkpt>
      <trkpt lat="44.51892" lon="0.70171">
        <ele>178.5</ele>
        <time>2018-05-16T22:59:52Z</time>
      </trkpt>
      <trkpt lat="44.51895" lon="0.70178">
        <ele>178.3</ele>
        <time>2018-05-16T22:59:53Z</time>
      </trkpt>
      <trkpt lat="44.51897" lon="0.70185">
        <ele>178.3</ele>
        <time>2018-05-16T22:59:54Z</time>
      </trkpt>
      <trkpt lat="44.519" lon="0.7019">
        <ele>178.7</ele>
        <time>2018-05-16T22:59:55Z</time>
      </trkpt>
      <trkpt lat="44.51902" lon="0.70195">
        <ele>178.6</ele>
        <time>2018-05-16T22:59:56Z</time>
      </trkpt>
      <trkpt lat="44.51904" lon="0.70201">
        <ele>178.5</ele>
        <time>2018-05-16T22:59:57Z</time>
      </trkpt>
      <trkpt lat="44.51906" lon="0.70205">
        <ele>178.3</ele>
        <time>2018-05-16T22:59:58Z</time>
      </trkpt>
      <trkpt lat="44.5191" lon="0.70214">
        <ele>178.7</ele>
        <time>2018-05-16T22:59:59Z</time>
      </trkpt>
      <trkpt lat="44.51914" lon="0.70221">
        <ele>178.4</ele>
        <time>2018-05-16T23:00:00Z</time>
      </trkpt>
      <trkpt lat="44.51917" lon="0.70229">
        <ele>178.4</ele>
        <time>2018-05-16T23:00:01Z</time>
      </trkpt>
      <trkpt lat="44.51919" lon="0.70237">
        <ele>178.4</ele>
        <time>2018-05-16T23:00:02Z</time>
      </trkpt>
      <trkpt lat="44.51922" lon="0.70243">
        <ele>178.1</ele>
        <time>2018-05-16T23:00:03Z</time>
      </trkpt>
      <trkpt lat="44.51925" lon="0.7025">
        <ele>178</ele>
        <time>2018-05-16T23:00:04Z</time>
      </trkpt>
      <trkpt lat="44.51928" lon="0.70257">
        <ele>177.9</ele>
        <time>2018-05-16T23:00:05Z</time>
      </trkpt>
      <trkpt lat="44.51931" lon="0.70262">
        <ele>177.6</ele>
        <time>2018-05-16T23:00:06Z</time>
      </trkpt>
      <trkpt lat="44.51934" lon="0.70268">
        <ele>177.1</ele>
        <time>2018-05-16T23:00:07Z</time>
      </trkpt>
      <trkpt lat="44.51937" lon="0.70273">
        <ele>176.7</ele>
        <time>2018-05-16T23:00:08Z</time>
      </trkpt>
      <trkpt lat="44.51943" lon="0.70281">
        <ele>176.4</ele>
        <time>2018-05-16T23:00:09Z</time>
      </trkpt>
      <trkpt lat="44.51946" lon="0.70286">
        <ele>175.3</ele>
        <time>2018-05-16T23:00:10Z</time>
      </trkpt>
      <trkpt lat="44.5195" lon="0.70291">
        <ele>174.8</ele>
        <time>2018-05-16T23:00:11Z</time>
      </trkpt>
      <trkpt lat="44.51955" lon="0.70301">
        <ele>174.7</ele>
        <time>2018-05-16T23:00:13Z</time>
      </trkpt>
      <trkpt lat="44.51961" lon="0.70306">
        <ele>173.5</ele>
        <time>2018-05-16T23:00:14Z</time>
      </trkpt>
      <trkpt lat="44.51966" lon="0.70309">
        <ele>172.2</ele>
        <time>2018-05-16T23:00:15Z</time>
      </trkpt>
      <trkpt lat="44.51971" lon="0.70315">
        <ele>170.8</ele>
        <time>2018-05-16T23:00:16Z</time>
      </trkpt>
      <trkpt lat="44.51975" lon="0.70318">
        <ele>170</ele>
        <time>2018-05-16T23:00:17Z</time>
      </trkpt>
      <trkpt lat="44.51973" lon="0.70331">
        <ele>170.6</ele>
        <time>2018-05-16T23:00:19Z</time>
      </trkpt>
      <trkpt lat="44.51972" lon="0.70337">
        <ele>170.6</ele>
        <time>2018-05-16T23:00:20Z</time>
      </trkpt>
      <trkpt lat="44.5197" lon="0.70343">
        <ele>171.2</ele>
        <time>2018-05-16T23:00:21Z</time>
      </trkpt>
      <trkpt lat="44.51968" lon="0.70348">
        <ele>171.2</ele>
        <time>2018-05-16T23:00:22Z</time>
      </trkpt>
      <trkpt lat="44.51967" lon="0.70353">
        <ele>171.9</ele>
        <time>2018-05-16T23:00:23Z</time>
      </trkpt>
      <trkpt lat="44.51965" lon="0.70356">
        <ele>171.8</ele>
        <time>2018-05-16T23:00:24Z</time>
      </trkpt>
      <trkpt lat="44.51962" lon="0.70366">
        <ele>172.4</ele>
        <time>2018-05-16T23:00:26Z</time>
      </trkpt>
      <trkpt lat="44.51958" lon="0.70372">
        <ele>174</ele>
        <time>2018-05-16T23:00:27Z</time>
      </trkpt>
      <trkpt lat="44.51956" lon="0.70375">
        <ele>173.9</ele>
        <time>2018-05-16T23:00:28Z</time>
      </trkpt>
      <trkpt lat="44.51954" lon="0.70379">
        <ele>174.7</ele>
        <time>2018-05-16T23:00:29Z</time>
      </trkpt>
      <trkpt lat="44.51952" lon="0.70384">
        <ele>175.6</ele>
        <time>2018-05-16T23:00:30Z</time>
      </trkpt>
      <trkpt lat="44.51949" lon="0.70389">
        <ele>175.5</ele>
        <time>2018-05-16T23:00:31Z</time>
      </trkpt>
      <trkpt lat="44.51948" lon="0.70394">
        <ele>176.2</ele>
        <time>2018-05-16T23:00:32Z</time>
      </trkpt>
      <trkpt lat="44.51947" lon="0.70401">
        <ele>176.1</ele>
        <time>2018-05-16T23:00:33Z</time>
      </trkpt>
      <trkpt lat="44.51946" lon="0.70405">
        <ele>177</ele>
        <time>2018-05-16T23:00:34Z</time>
      </trkpt>
      <trkpt lat="44.51945" lon="0.70409">
        <ele>176.9</ele>
        <time>2018-05-16T23:00:35Z</time>
      </trkpt>
      <trkpt lat="44.51944" lon="0.70413">
        <ele>176.8</ele>
        <time>2018-05-16T23:00:36Z</time>
      </trkpt>
      <trkpt lat="44.51943" lon="0.70417">
        <ele>177.7</ele>
        <time>2018-05-16T23:00:37Z</time>
      </trkpt>
      <trkpt lat="44.51942" lon="0.70421">
        <ele>177.6</ele>
        <time>2018-05-16T23:00:38Z</time>
      </trkpt>
      <trkpt lat="44.51942" lon="0.70424">
        <ele>177.6</ele>
        <time>2018-05-16T23:00:39Z</time>
      </trkpt>
      <trkpt lat="44.51942" lon="0.7043">
        <ele>177.5</ele>
        <time>2018-05-16T23:00:40Z</time>
      </trkpt>
      <trkpt lat="44.51941" lon="0.70437">
        <ele>177.2</ele>
        <time>2018-05-16T23:00:42Z</time>
      </trkpt>
      <trkpt lat="44.51941" lon="0.70443">
        <ele>177.2</ele>
        <time>2018-05-16T23:00:43Z</time>
      </trkpt>
      <trkpt lat="44.51942" lon="0.70447">
        <ele>177.1</ele>
        <time>2018-05-16T23:00:44Z</time>
      </trkpt>
      <trkpt lat="44.51942" lon="0.70452">
        <ele>177</ele>
        <time>2018-05-16T23:00:45Z</time>
      </trkpt>
      <trkpt lat="44.51941" lon="0.70456">
        <ele>176.9</ele>
        <time>2018-05-16T23:00:46Z</time>
      </trkpt>
      <trkpt lat="44.5194" lon="0.70461">
        <ele>177.8</ele>
        <time>2018-05-16T23:00:47Z</time>
      </trkpt>
      <trkpt lat="44.51939" lon="0.70465">
        <ele>177.7</ele>
        <time>2018-05-16T23:00:48Z</time>
      </trkpt>
      <trkpt lat="44.51938" lon="0.7047">
        <ele>177.7</ele>
        <time>2018-05-16T23:00:49Z</time>
      </trkpt>
      <trkpt lat="44.51939" lon="0.70477">
        <ele>177.5</ele>
        <time>2018-05-16T23:00:50Z</time>
      </trkpt>
      <trkpt lat="44.51938" lon="0.70482">
        <ele>177.4</ele>
        <time>2018-05-16T23:00:51Z</time>
      </trkpt>
      <trkpt lat="44.51936" lon="0.7049">
        <ele>178.1</ele>
        <time>2018-05-16T23:00:52Z</time>
      </trkpt>
      <trkpt lat="44.51935" lon="0.70497">
        <ele>178</ele>
        <time>2018-05-16T23:00:53Z</time>
      </trkpt>
      <trkpt lat="44.51935" lon="0.70502">
        <ele>177.7</ele>
        <time>2018-05-16T23:00:54Z</time>
      </trkpt>
      <trkpt lat="44.51933" lon="0.70508">
        <ele>178.5</ele>
        <time>2018-05-16T23:00:55Z</time>
      </trkpt>
      <trkpt lat="44.51933" lon="0.70514">
        <ele>178.4</ele>
        <time>2018-05-16T23:00:56Z</time>
      </trkpt>
      <trkpt lat="44.51932" lon="0.70523">
        <ele>178</ele>
        <time>2018-05-16T23:00:57Z</time>
      </trkpt>
      <trkpt lat="44.51931" lon="0.70529">
        <ele>177.9</ele>
        <time>2018-05-16T23:00:58Z</time>
      </trkpt>
      <trkpt lat="44.51931" lon="0.70535">
        <ele>177.8</ele>
        <time>2018-05-16T23:00:59Z</time>
      </trkpt>
      <trkpt lat="44.51927" lon="0.70542">
        <ele>178.9</ele>
        <time>2018-05-16T23:01:00Z</time>
      </trkpt>
      <trkpt lat="44.51924" lon="0.7055">
        <ele>179.2</ele>
        <time>2018-05-16T23:01:01Z</time>
      </trkpt>
      <trkpt lat="44.51921" lon="0.70559">
        <ele>179.5</ele>
        <time>2018-05-16T23:01:02Z</time>
      </trkpt>
      <trkpt lat="44.51919" lon="0.70567">
        <ele>179.1</ele>
        <time>2018-05-16T23:01:03Z</time>
      </trkpt>
      <trkpt lat="44.51917" lon="0.70578">
        <ele>179.5</ele>
        <time>2018-05-16T23:01:04Z</time>
      </trkpt>
      <trkpt lat="44.51913" lon="0.70586">
        <ele>179.8</ele>
        <time>2018-05-16T23:01:05Z</time>
      </trkpt>
      <trkpt lat="44.51909" lon="0.70593">
        <ele>180</ele>
        <time>2018-05-16T23:01:06Z</time>
      </trkpt>
      <trkpt lat="44.51907" lon="0.70599">
        <ele>180.4</ele>
        <time>2018-05-16T23:01:07Z</time>
      </trkpt>
      <trkpt lat="44.51905" lon="0.70607">
        <ele>180.5</ele>
        <time>2018-05-16T23:01:08Z</time>
      </trkpt>
      <trkpt lat="44.51902" lon="0.70614">
        <ele>180.5</ele>
        <time>2018-05-16T23:01:09Z</time>
      </trkpt>
      <trkpt lat="44.519" lon="0.70624">
        <ele>180.5</ele>
        <time>2018-05-16T23:01:10Z</time>
      </trkpt>
      <trkpt lat="44.51898" lon="0.70631">
        <ele>179.9</ele>
        <time>2018-05-16T23:01:11Z</time>
      </trkpt>
      <trkpt lat="44.51897" lon="0.70641">
        <ele>179.2</ele>
        <time>2018-05-16T23:01:12Z</time>
      </trkpt>
      <trkpt lat="44.51896" lon="0.70649">
        <ele>179.1</ele>
        <time>2018-05-16T23:01:13Z</time>
      </trkpt>
      <trkpt lat="44.51893" lon="0.70655">
        <ele>179.4</ele>
        <time>2018-05-16T23:01:14Z</time>
      </trkpt>
      <trkpt lat="44.51891" lon="0.70663">
        <ele>179.4</ele>
        <time>2018-05-16T23:01:15Z</time>
      </trkpt>
      <trkpt lat="44.51887" lon="0.70669">
        <ele>179.4</ele>
        <time>2018-05-16T23:01:16Z</time>
      </trkpt>
      <trkpt lat="44.51885" lon="0.70675">
        <ele>179.6</ele>
        <time>2018-05-16T23:01:17Z</time>
      </trkpt>
      <trkpt lat="44.51883" lon="0.70678">
        <ele>179.3</ele>
        <time>2018-05-16T23:01:18Z</time>
      </trkpt>
      <trkpt lat="44.5188" lon="0.70681">
        <ele>179.8</ele>
        <time>2018-05-16T23:01:19Z</time>
      </trkpt>
      <trkpt lat="44.51877" lon="0.70685">
        <ele>179.8</ele>
        <time>2018-05-16T23:01:20Z</time>
      </trkpt>
      <trkpt lat="44.51875" lon="0.70687">
        <ele>179.8</ele>
        <time>2018-05-16T23:01:21Z</time>
      </trkpt>
      <trkpt lat="44.51872" lon="0.70689">
        <ele>180.2</ele>
        <time>2018-05-16T23:01:22Z</time>
      </trkpt>
      <trkpt lat="44.51869" lon="0.70691">
        <ele>180.2</ele>
        <time>2018-05-16T23:01:23Z</time>
      </trkpt>
      <trkpt lat="44.51866" lon="0.70693">
        <ele>180.7</ele>
        <time>2018-05-16T23:01:24Z</time>
      </trkpt>
      <trkpt lat="44.51864" lon="0.70696">
        <ele>180.3</ele>
        <time>2018-05-16T23:01:25Z</time>
      </trkpt>
      <trkpt lat="44.51862" lon="0.70699">
        <ele>180.8</ele>
        <time>2018-05-16T23:01:26Z</time>
      </trkpt>
      <trkpt lat="44.51858" lon="0.70703">
        <ele>180.8</ele>
        <time>2018-05-16T23:01:28Z</time>
      </trkpt>
      <trkpt lat="44.51855" lon="0.70707">
        <ele>180.8</ele>
        <time>2018-05-16T23:01:29Z</time>
      </trkpt>
      <trkpt lat="44.51853" lon="0.70712">
        <ele>180.1</ele>
        <time>2018-05-16T23:01:30Z</time>
      </trkpt>
      <trkpt lat="44.51851" lon="0.70717">
        <ele>179.6</ele>
        <time>2018-05-16T23:01:31Z</time>
      </trkpt>
      <trkpt lat="44.5185" lon="0.70721">
        <ele>179.3</ele>
        <time>2018-05-16T23:01:32Z</time>
      </trkpt>
      <trkpt lat="44.51848" lon="0.70725">
        <ele>179</ele>
        <time>2018-05-16T23:01:33Z</time>
      </trkpt>
      <trkpt lat="44.51846" lon="0.70729">
        <ele>178.3</ele>
        <time>2018-05-16T23:01:34Z</time>
      </trkpt>
      <trkpt lat="44.51844" lon="0.70733">
        <ele>178.7</ele>
        <time>2018-05-16T23:01:35Z</time>
      </trkpt>
      <trkpt lat="44.51842" lon="0.70737">
        <ele>178</ele>
        <time>2018-05-16T23:01:36Z</time>
      </trkpt>
      <trkpt lat="44.51841" lon="0.70741">
        <ele>177.7</ele>
        <time>2018-05-16T23:01:37Z</time>
      </trkpt>
      <trkpt lat="44.5184" lon="0.70745">
        <ele>177</ele>
        <time>2018-05-16T23:01:38Z</time>
      </trkpt>
      <trkpt lat="44.51839" lon="0.70749">
        <ele>176.4</ele>
        <time>2018-05-16T23:01:39Z</time>
      </trkpt>
      <trkpt lat="44.51838" lon="0.70753">
        <ele>176.1</ele>
        <time>2018-05-16T23:01:40Z</time>
      </trkpt>
      <trkpt lat="44.51836" lon="0.70757">
        <ele>175.4</ele>
        <time>2018-05-16T23:01:41Z</time>
      </trkpt>
      <trkpt lat="44.51834" lon="0.70761">
        <ele>175.1</ele>
        <time>2018-05-16T23:01:42Z</time>
      </trkpt>
      <trkpt lat="44.5183" lon="0.70763">
        <ele>174.7</ele>
        <time>2018-05-16T23:01:43Z</time>
      </trkpt>
      <trkpt lat="44.51826" lon="0.70765">
        <ele>175.4</ele>
        <time>2018-05-16T23:01:44Z</time>
      </trkpt>
      <trkpt lat="44.51822" lon="0.70768">
        <ele>175.1</ele>
        <time>2018-05-16T23:01:45Z</time>
      </trkpt>
      <trkpt lat="44.51821" lon="0.70773">
        <ele>174.8</ele>
        <time>2018-05-16T23:01:46Z</time>
      </trkpt>
      <trkpt lat="44.5182" lon="0.7078">
        <ele>174.5</ele>
        <time>2018-05-16T23:01:47Z</time>
      </trkpt>
      <trkpt lat="44.51821" lon="0.70788">
        <ele>174</ele>
        <time>2018-05-16T23:01:48Z</time>
      </trkpt>
      <trkpt lat="44.51824" lon="0.70797">
        <ele>173.4</ele>
        <time>2018-05-16T23:01:49Z</time>
      </trkpt>
      <trkpt lat="44.51827" lon="0.70808">
        <ele>172.7</ele>
        <time>2018-05-16T23:01:50Z</time>
      </trkpt>
      <trkpt lat="44.5183" lon="0.7082">
        <ele>172</ele>
        <time>2018-05-16T23:01:51Z</time>
      </trkpt>
      <trkpt lat="44.51833" lon="0.70832">
        <ele>171</ele>
        <time>2018-05-16T23:01:52Z</time>
      </trkpt>
      <trkpt lat="44.51835" lon="0.70848">
        <ele>170.1</ele>
        <time>2018-05-16T23:01:53Z</time>
      </trkpt>
      <trkpt lat="44.51838" lon="0.70861">
        <ele>169.4</ele>
        <time>2018-05-16T23:01:54Z</time>
      </trkpt>
      <trkpt lat="44.51841" lon="0.70873">
        <ele>168.6</ele>
        <time>2018-05-16T23:01:55Z</time>
      </trkpt>
      <trkpt lat="44.51844" lon="0.70884">
        <ele>168</ele>
        <time>2018-05-16T23:01:56Z</time>
      </trkpt>
      <trkpt lat="44.51846" lon="0.70894">
        <ele>167.4</ele>
        <time>2018-05-16T23:01:57Z</time>
      </trkpt>
      <trkpt lat="44.51848" lon="0.70903">
        <ele>166.7</ele>
        <time>2018-05-16T23:01:58Z</time>
      </trkpt>
      <trkpt lat="44.51852" lon="0.70911">
        <ele>166</ele>
        <time>2018-05-16T23:01:59Z</time>
      </trkpt>
      <trkpt lat="44.51857" lon="0.70918">
        <ele>166.1</ele>
        <time>2018-05-16T23:02:00Z</time>
      </trkpt>
      <trkpt lat="44.51863" lon="0.70924">
        <ele>166.1</ele>
        <time>2018-05-16T23:02:01Z</time>
      </trkpt>
      <trkpt lat="44.51869" lon="0.70929">
        <ele>166</ele>
        <time>2018-05-16T23:02:02Z</time>
      </trkpt>
      <trkpt lat="44.51876" lon="0.70932">
        <ele>166</ele>
        <time>2018-05-16T23:02:03Z</time>
      </trkpt>
      <trkpt lat="44.51883" lon="0.70934">
        <ele>165.8</ele>
        <time>2018-05-16T23:02:04Z</time>
      </trkpt>
      <trkpt lat="44.5189" lon="0.70937">
        <ele>165.6</ele>
        <time>2018-05-16T23:02:05Z</time>
      </trkpt>
      <trkpt lat="44.51896" lon="0.7094">
        <ele>165.2</ele>
        <time>2018-05-16T23:02:06Z</time>
      </trkpt>
      <trkpt lat="44.51903" lon="0.70942">
        <ele>164.9</ele>
        <time>2018-05-16T23:02:07Z</time>
      </trkpt>
      <trkpt lat="44.51909" lon="0.70945">
        <ele>164.6</ele>
        <time>2018-05-16T23:02:08Z</time>
      </trkpt>
      <trkpt lat="44.51915" lon="0.70948">
        <ele>164.4</ele>
        <time>2018-05-16T23:02:09Z</time>
      </trkpt>
      <trkpt lat="44.51922" lon="0.70952">
        <ele>164.1</ele>
        <time>2018-05-16T23:02:10Z</time>
      </trkpt>
      <trkpt lat="44.51928" lon="0.70956">
        <ele>163.8</ele>
        <time>2018-05-16T23:02:11Z</time>
      </trkpt>
      <trkpt lat="44.51934" lon="0.70959">
        <ele>163.6</ele>
        <time>2018-05-16T23:02:12Z</time>
      </trkpt>
      <trkpt lat="44.5194" lon="0.70963">
        <ele>163.3</ele>
        <time>2018-05-16T23:02:13Z</time>
      </trkpt>
      <trkpt lat="44.51946" lon="0.70966">
        <ele>163.1</ele>
        <time>2018-05-16T23:02:14Z</time>
      </trkpt>
      <trkpt lat="44.51951" lon="0.70969">
        <ele>162.7</ele>
        <time>2018-05-16T23:02:15Z</time>
      </trkpt>
      <trkpt lat="44.51957" lon="0.70973">
        <ele>162.2</ele>
        <time>2018-05-16T23:02:16Z</time>
      </trkpt>
      <trkpt lat="44.51963" lon="0.70976">
        <ele>161.9</ele>
        <time>2018-05-16T23:02:17Z</time>
      </trkpt>
      <trkpt lat="44.51969" lon="0.7098">
        <ele>161.6</ele>
        <time>2018-05-16T23:02:18Z</time>
      </trkpt>
      <trkpt lat="44.51975" lon="0.70984">
        <ele>161.3</ele>
        <time>2018-05-16T23:02:19Z</time>
      </trkpt>
      <trkpt lat="44.51981" lon="0.70987">
        <ele>160.8</ele>
        <time>2018-05-16T23:02:20Z</time>
      </trkpt>
      <trkpt lat="44.51987" lon="0.70991">
        <ele>160.6</ele>
        <time>2018-05-16T23:02:21Z</time>
      </trkpt>
      <trkpt lat="44.51994" lon="0.70993">
        <ele>160.1</ele>
        <time>2018-05-16T23:02:22Z</time>
      </trkpt>
      <trkpt lat="44.52001" lon="0.70996">
        <ele>159.5</ele>
        <time>2018-05-16T23:02:23Z</time>
      </trkpt>
      <trkpt lat="44.5201" lon="0.70999">
        <ele>158.8</ele>
        <time>2018-05-16T23:02:24Z</time>
      </trkpt>
      <trkpt lat="44.52019" lon="0.71002">
        <ele>158</ele>
        <time>2018-05-16T23:02:25Z</time>
      </trkpt>
      <trkpt lat="44.5203" lon="0.71008">
        <ele>157.1</ele>
        <time>2018-05-16T23:02:26Z</time>
      </trkpt>
      <trkpt lat="44.52038" lon="0.71014">
        <ele>156.1</ele>
        <time>2018-05-16T23:02:27Z</time>
      </trkpt>
      <trkpt lat="44.52047" lon="0.71016">
        <ele>155.5</ele>
        <time>2018-05-16T23:02:28Z</time>
      </trkpt>
      <trkpt lat="44.52056" lon="0.71018">
        <ele>154.8</ele>
        <time>2018-05-16T23:02:29Z</time>
      </trkpt>
      <trkpt lat="44.52066" lon="0.71023">
        <ele>154.1</ele>
        <time>2018-05-16T23:02:30Z</time>
      </trkpt>
      <trkpt lat="44.52074" lon="0.71031">
        <ele>153.2</ele>
        <time>2018-05-16T23:02:31Z</time>
      </trkpt>
      <trkpt lat="44.52082" lon="0.71039">
        <ele>153</ele>
        <time>2018-05-16T23:02:32Z</time>
      </trkpt>
      <trkpt lat="44.52089" lon="0.71043">
        <ele>152.6</ele>
        <time>2018-05-16T23:02:33Z</time>
      </trkpt>
      <trkpt lat="44.52096" lon="0.71049">
        <ele>152.2</ele>
        <time>2018-05-16T23:02:34Z</time>
      </trkpt>
      <trkpt lat="44.52104" lon="0.71056">
        <ele>151.8</ele>
        <time>2018-05-16T23:02:35Z</time>
      </trkpt>
      <trkpt lat="44.5211" lon="0.71063">
        <ele>151.6</ele>
        <time>2018-05-16T23:02:36Z</time>
      </trkpt>
      <trkpt lat="44.52115" lon="0.7107">
        <ele>151.3</ele>
        <time>2018-05-16T23:02:37Z</time>
      </trkpt>
      <trkpt lat="44.52121" lon="0.71076">
        <ele>151.2</ele>
        <time>2018-05-16T23:02:38Z</time>
      </trkpt>
      <trkpt lat="44.52126" lon="0.71081">
        <ele>151</ele>
        <time>2018-05-16T23:02:39Z</time>
      </trkpt>
      <trkpt lat="44.52131" lon="0.71086">
        <ele>150.9</ele>
        <time>2018-05-16T23:02:40Z</time>
      </trkpt>
      <trkpt lat="44.52136" lon="0.71089">
        <ele>151</ele>
        <time>2018-05-16T23:02:41Z</time>
      </trkpt>
      <trkpt lat="44.52142" lon="0.71091">
        <ele>151</ele>
        <time>2018-05-16T23:02:42Z</time>
      </trkpt>
      <trkpt lat="44.52147" lon="0.71093">
        <ele>151.1</ele>
        <time>2018-05-16T23:02:43Z</time>
      </trkpt>
      <trkpt lat="44.52152" lon="0.71094">
        <ele>151.2</ele>
        <time>2018-05-16T23:02:44Z</time>
      </trkpt>
      <trkpt lat="44.52157" lon="0.71094">
        <ele>151.3</ele>
        <time>2018-05-16T23:02:45Z</time>
      </trkpt>
      <trkpt lat="44.52162" lon="0.71094">
        <ele>151.3</ele>
        <time>2018-05-16T23:02:46Z</time>
      </trkpt>
      <trkpt lat="44.52167" lon="0.71094">
        <ele>151.6</ele>
        <time>2018-05-16T23:02:47Z</time>
      </trkpt>
      <trkpt lat="44.52172" lon="0.71093">
        <ele>151.7</ele>
        <time>2018-05-16T23:02:48Z</time>
      </trkpt>
      <trkpt lat="44.52177" lon="0.71092">
        <ele>152</ele>
        <time>2018-05-16T23:02:49Z</time>
      </trkpt>
      <trkpt lat="44.52181" lon="0.71091">
        <ele>152</ele>
        <time>2018-05-16T23:02:50Z</time>
      </trkpt>
      <trkpt lat="44.52186" lon="0.71089">
        <ele>152.3</ele>
        <time>2018-05-16T23:02:51Z</time>
      </trkpt>
      <trkpt lat="44.5219" lon="0.71087">
        <ele>152.4</ele>
        <time>2018-05-16T23:02:52Z</time>
      </trkpt>
      <trkpt lat="44.52195" lon="0.71086">
        <ele>152.6</ele>
        <time>2018-05-16T23:02:53Z</time>
      </trkpt>
      <trkpt lat="44.52199" lon="0.71084">
        <ele>152.7</ele>
        <time>2018-05-16T23:02:54Z</time>
      </trkpt>
      <trkpt lat="44.52204" lon="0.71083">
        <ele>152.9</ele>
        <time>2018-05-16T23:02:55Z</time>
      </trkpt>
      <trkpt lat="44.52208" lon="0.71081">
        <ele>153</ele>
        <time>2018-05-16T23:02:56Z</time>
      </trkpt>
      <trkpt lat="44.52212" lon="0.71079">
        <ele>153.1</ele>
        <time>2018-05-16T23:02:57Z</time>
      </trkpt>
      <trkpt lat="44.52216" lon="0.71077">
        <ele>153.3</ele>
        <time>2018-05-16T23:02:58Z</time>
      </trkpt>
      <trkpt lat="44.5222" lon="0.71074">
        <ele>153.3</ele>
        <time>2018-05-16T23:02:59Z</time>
      </trkpt>
      <trkpt lat="44.52224" lon="0.71071">
        <ele>153.4</ele>
        <time>2018-05-16T23:03:00Z</time>
      </trkpt>
      <trkpt lat="44.52227" lon="0.71068">
        <ele>153.5</ele>
        <time>2018-05-16T23:03:01Z</time>
      </trkpt>
      <trkpt lat="44.5223" lon="0.71066">
        <ele>153.6</ele>
        <time>2018-05-16T23:03:02Z</time>
      </trkpt>
      <trkpt lat="44.52234" lon="0.71065">
        <ele>153.7</ele>
        <time>2018-05-16T23:03:03Z</time>
      </trkpt>
      <trkpt lat="44.52237" lon="0.71065">
        <ele>153.8</ele>
        <time>2018-05-16T23:03:04Z</time>
      </trkpt>
      <trkpt lat="44.5224" lon="0.71067">
        <ele>153.8</ele>
        <time>2018-05-16T23:03:05Z</time>
      </trkpt>
      <trkpt lat="44.52243" lon="0.71071">
        <ele>153.9</ele>
        <time>2018-05-16T23:03:06Z</time>
      </trkpt>
      <trkpt lat="44.52245" lon="0.71077">
        <ele>154</ele>
        <time>2018-05-16T23:03:07Z</time>
      </trkpt>
      <trkpt lat="44.52248" lon="0.71083">
        <ele>154</ele>
        <time>2018-05-16T23:03:08Z</time>
      </trkpt>
      <trkpt lat="44.5225" lon="0.71089">
        <ele>154.1</ele>
        <time>2018-05-16T23:03:09Z</time>
      </trkpt>
      <trkpt lat="44.52253" lon="0.71095">
        <ele>154.2</ele>
        <time>2018-05-16T23:03:10Z</time>
      </trkpt>
      <trkpt lat="44.52256" lon="0.71102">
        <ele>154.3</ele>
        <time>2018-05-16T23:03:11Z</time>
      </trkpt>
      <trkpt lat="44.52259" lon="0.71108">
        <ele>154.3</ele>
        <time>2018-05-16T23:03:12Z</time>
      </trkpt>
      <trkpt lat="44.52262" lon="0.71114">
        <ele>154.4</ele>
        <time>2018-05-16T23:03:13Z</time>
      </trkpt>
      <trkpt lat="44.52265" lon="0.7112">
        <ele>154.5</ele>
        <time>2018-05-16T23:03:14Z</time>
      </trkpt>
      <trkpt lat="44.52268" lon="0.71126">
        <ele>154.6</ele>
        <time>2018-05-16T23:03:15Z</time>
      </trkpt>
      <trkpt lat="44.52271" lon="0.71133">
        <ele>154.6</ele>
        <time>2018-05-16T23:03:16Z</time>
      </trkpt>
      <trkpt lat="44.52274" lon="0.71139">
        <ele>154.7</ele>
        <time>2018-05-16T23:03:17Z</time>
      </trkpt>
      <trkpt lat="44.52277" lon="0.71144">
        <ele>154.8</ele>
        <time>2018-05-16T23:03:18Z</time>
      </trkpt>
      <trkpt lat="44.5228" lon="0.7115">
        <ele>154.8</ele>
        <time>2018-05-16T23:03:19Z</time>
      </trkpt>
      <trkpt lat="44.52283" lon="0.71156">
        <ele>154.9</ele>
        <time>2018-05-16T23:03:20Z</time>
      </trkpt>
      <trkpt lat="44.52285" lon="0.71161">
        <ele>154.8</ele>
        <time>2018-05-16T23:03:21Z</time>
      </trkpt>
      <trkpt lat="44.52288" lon="0.71166">
        <ele>154.9</ele>
        <time>2018-05-16T23:03:22Z</time>
      </trkpt>
      <trkpt lat="44.52291" lon="0.71171">
        <ele>154.9</ele>
        <time>2018-05-16T23:03:23Z</time>
      </trkpt>
      <trkpt lat="44.52294" lon="0.71176">
        <ele>155</ele>
        <time>2018-05-16T23:03:24Z</time>
      </trkpt>
      <trkpt lat="44.52297" lon="0.71181">
        <ele>155.1</ele>
        <time>2018-05-16T23:03:25Z</time>
      </trkpt>
      <trkpt lat="44.523" lon="0.71186">
        <ele>155.1</ele>
        <time>2018-05-16T23:03:26Z</time>
      </trkpt>
      <trkpt lat="44.52303" lon="0.71191">
        <ele>155.1</ele>
        <time>2018-05-16T23:03:27Z</time>
      </trkpt>
      <trkpt lat="44.52306" lon="0.71196">
        <ele>155.2</ele>
        <time>2018-05-16T23:03:28Z</time>
      </trkpt>
      <trkpt lat="44.52308" lon="0.71201">
        <ele>155.1</ele>
        <time>2018-05-16T23:03:29Z</time>
      </trkpt>
      <trkpt lat="44.52311" lon="0.71206">
        <ele>155.1</ele>
        <time>2018-05-16T23:03:30Z</time>
      </trkpt>
      <trkpt lat="44.52313" lon="0.71211">
        <ele>155.1</ele>
        <time>2018-05-16T23:03:31Z</time>
      </trkpt>
      <trkpt lat="44.52316" lon="0.71215">
        <ele>155</ele>
        <time>2018-05-16T23:03:32Z</time>
      </trkpt>
      <trkpt lat="44.52318" lon="0.7122">
        <ele>155</ele>
        <time>2018-05-16T23:03:33Z</time>
      </trkpt>
      <trkpt lat="44.52321" lon="0.71225">
        <ele>154.9</ele>
        <time>2018-05-16T23:03:34Z</time>
      </trkpt>
      <trkpt lat="44.52323" lon="0.7123">
        <ele>154.8</ele>
        <time>2018-05-16T23:03:35Z</time>
      </trkpt>
      <trkpt lat="44.52326" lon="0.71235">
        <ele>154.7</ele>
        <time>2018-05-16T23:03:36Z</time>
      </trkpt>
      <trkpt lat="44.52328" lon="0.71238">
        <ele>154.7</ele>
        <time>2018-05-16T23:03:37Z</time>
      </trkpt>
      <trkpt lat="44.52332" lon="0.71242">
        <ele>154.5</ele>
        <time>2018-05-16T23:03:38Z</time>
      </trkpt>
      <trkpt lat="44.52336" lon="0.71246">
        <ele>154.3</ele>
        <time>2018-05-16T23:03:39Z</time>
      </trkpt>
      <trkpt lat="44.52339" lon="0.7125">
        <ele>154.2</ele>
        <time>2018-05-16T23:03:40Z</time>
      </trkpt>
      <trkpt lat="44.52343" lon="0.71253">
        <ele>154</ele>
        <time>2018-05-16T23:03:41Z</time>
      </trkpt>
      <trkpt lat="44.52346" lon="0.71256">
        <ele>153.9</ele>
        <time>2018-05-16T23:03:42Z</time>
      </trkpt>
      <trkpt lat="44.5235" lon="0.7126">
        <ele>153.8</ele>
        <time>2018-05-16T23:03:43Z</time>
      </trkpt>
      <trkpt lat="44.52354" lon="0.71264">
        <ele>153.4</ele>
        <time>2018-05-16T23:03:44Z</time>
      </trkpt>
      <trkpt lat="44.52357" lon="0.71267">
        <ele>153.3</ele>
        <time>2018-05-16T23:03:45Z</time>
      </trkpt>
      <trkpt lat="44.52361" lon="0.7127">
        <ele>153.1</ele>
        <time>2018-05-16T23:03:46Z</time>
      </trkpt>
      <trkpt lat="44.52365" lon="0.71273">
        <ele>152.9</ele>
        <time>2018-05-16T23:03:47Z</time>
      </trkpt>
      <trkpt lat="44.52369" lon="0.71276">
        <ele>152.5</ele>
        <time>2018-05-16T23:03:48Z</time>
      </trkpt>
      <trkpt lat="44.52373" lon="0.71278">
        <ele>152.3</ele>
        <time>2018-05-16T23:03:49Z</time>
      </trkpt>
      <trkpt lat="44.52376" lon="0.71281">
        <ele>152.2</ele>
        <time>2018-05-16T23:03:50Z</time>
      </trkpt>
      <trkpt lat="44.5238" lon="0.71284">
        <ele>151.9</ele>
        <time>2018-05-16T23:03:51Z</time>
      </trkpt>
      <trkpt lat="44.52384" lon="0.71288">
        <ele>151.5</ele>
        <time>2018-05-16T23:03:52Z</time>
      </trkpt>
      <trkpt lat="44.52388" lon="0.71292">
        <ele>151.3</ele>
        <time>2018-05-16T23:03:53Z</time>
      </trkpt>
      <trkpt lat="44.52392" lon="0.71294">
        <ele>151.1</ele>
        <time>2018-05-16T23:03:54Z</time>
      </trkpt>
      <trkpt lat="44.52396" lon="0.71299">
        <ele>150.6</ele>
        <time>2018-05-16T23:03:55Z</time>
      </trkpt>
      <trkpt lat="44.52401" lon="0.713">
        <ele>150.3</ele>
        <time>2018-05-16T23:03:56Z</time>
      </trkpt>
      <trkpt lat="44.52404" lon="0.71302">
        <ele>150.1</ele>
        <time>2018-05-16T23:03:57Z</time>
      </trkpt>
      <trkpt lat="44.52408" lon="0.71305">
        <ele>149.5</ele>
        <time>2018-05-16T23:03:58Z</time>
      </trkpt>
      <trkpt lat="44.52412" lon="0.71308">
        <ele>149.1</ele>
        <time>2018-05-16T23:03:59Z</time>
      </trkpt>
      <trkpt lat="44.52415" lon="0.71313">
        <ele>148.7</ele>
        <time>2018-05-16T23:04:00Z</time>
      </trkpt>
      <trkpt lat="44.52418" lon="0.71318">
        <ele>148.3</ele>
        <time>2018-05-16T23:04:01Z</time>
      </trkpt>
      <trkpt lat="44.52422" lon="0.71321">
        <ele>147.9</ele>
        <time>2018-05-16T23:04:02Z</time>
      </trkpt>
      <trkpt lat="44.52425" lon="0.71325">
        <ele>147.5</ele>
        <time>2018-05-16T23:04:03Z</time>
      </trkpt>
      <trkpt lat="44.52429" lon="0.71328">
        <ele>147.1</ele>
        <time>2018-05-16T23:04:04Z</time>
      </trkpt>
      <trkpt lat="44.52433" lon="0.71331">
        <ele>146.5</ele>
        <time>2018-05-16T23:04:05Z</time>
      </trkpt>
      <trkpt lat="44.52436" lon="0.71335">
        <ele>146.1</ele>
        <time>2018-05-16T23:04:06Z</time>
      </trkpt>
      <trkpt lat="44.5244" lon="0.71338">
        <ele>145.8</ele>
        <time>2018-05-16T23:04:07Z</time>
      </trkpt>
      <trkpt lat="44.52444" lon="0.71342">
        <ele>145.4</ele>
        <time>2018-05-16T23:04:08Z</time>
      </trkpt>
      <trkpt lat="44.52447" lon="0.71346">
        <ele>145</ele>
        <time>2018-05-16T23:04:09Z</time>
      </trkpt>
      <trkpt lat="44.5245" lon="0.7135">
        <ele>144.6</ele>
        <time>2018-05-16T23:04:10Z</time>
      </trkpt>
      <trkpt lat="44.52454" lon="0.71354">
        <ele>144.2</ele>
        <time>2018-05-16T23:04:11Z</time>
      </trkpt>
      <trkpt lat="44.52458" lon="0.71359">
        <ele>143.6</ele>
        <time>2018-05-16T23:04:12Z</time>
      </trkpt>
      <trkpt lat="44.52462" lon="0.71364">
        <ele>143.1</ele>
        <time>2018-05-16T23:04:13Z</time>
      </trkpt>
      <trkpt lat="44.52467" lon="0.71371">
        <ele>142.5</ele>
        <time>2018-05-16T23:04:14Z</time>
      </trkpt>
      <trkpt lat="44.52472" lon="0.71378">
        <ele>142</ele>
        <time>2018-05-16T23:04:15Z</time>
      </trkpt>
      <trkpt lat="44.52476" lon="0.71384">
        <ele>141.4</ele>
        <time>2018-05-16T23:04:16Z</time>
      </trkpt>
      <trkpt lat="44.5248" lon="0.71392">
        <ele>140.9</ele>
        <time>2018-05-16T23:04:17Z</time>
      </trkpt>
      <trkpt lat="44.52483" lon="0.71397">
        <ele>140.5</ele>
        <time>2018-05-16T23:04:18Z</time>
      </trkpt>
      <trkpt lat="44.52485" lon="0.71401">
        <ele>140.1</ele>
        <time>2018-05-16T23:04:19Z</time>
      </trkpt>
      <trkpt lat="44.52487" lon="0.71406">
        <ele>139.9</ele>
        <time>2018-05-16T23:04:20Z</time>
      </trkpt>
      <trkpt lat="44.52489" lon="0.71412">
        <ele>139</ele>
        <time>2018-05-16T23:04:21Z</time>
      </trkpt>
      <trkpt lat="44.5249" lon="0.71418">
        <ele>138.7</ele>
        <time>2018-05-16T23:04:22Z</time>
      </trkpt>
      <trkpt lat="44.52492" lon="0.71423">
        <ele>138.2</ele>
        <time>2018-05-16T23:04:23Z</time>
      </trkpt>
      <trkpt lat="44.52495" lon="0.71428">
        <ele>137.6</ele>
        <time>2018-05-16T23:04:24Z</time>
      </trkpt>
      <trkpt lat="44.52499" lon="0.71433">
        <ele>136.9</ele>
        <time>2018-05-16T23:04:25Z</time>
      </trkpt>
      <trkpt lat="44.52503" lon="0.71437">
        <ele>136.5</ele>
        <time>2018-05-16T23:04:26Z</time>
      </trkpt>
      <trkpt lat="44.52507" lon="0.71442">
        <ele>135.9</ele>
        <time>2018-05-16T23:04:27Z</time>
      </trkpt>
      <trkpt lat="44.52512" lon="0.71448">
        <ele>135.5</ele>
        <time>2018-05-16T23:04:28Z</time>
      </trkpt>
      <trkpt lat="44.52517" lon="0.71453">
        <ele>135</ele>
        <time>2018-05-16T23:04:29Z</time>
      </trkpt>
      <trkpt lat="44.52523" lon="0.7146">
        <ele>134.2</ele>
        <time>2018-05-16T23:04:30Z</time>
      </trkpt>
      <trkpt lat="44.52528" lon="0.71466">
        <ele>133.4</ele>
        <time>2018-05-16T23:04:31Z</time>
      </trkpt>
      <trkpt lat="44.52534" lon="0.71472">
        <ele>132.6</ele>
        <time>2018-05-16T23:04:32Z</time>
      </trkpt>
      <trkpt lat="44.52541" lon="0.71478">
        <ele>132</ele>
        <time>2018-05-16T23:04:33Z</time>
      </trkpt>
      <trkpt lat="44.52547" lon="0.71484">
        <ele>131.4</ele>
        <time>2018-05-16T23:04:34Z</time>
      </trkpt>
      <trkpt lat="44.52553" lon="0.71491">
        <ele>130.9</ele>
        <time>2018-05-16T23:04:35Z</time>
      </trkpt>
      <trkpt lat="44.52559" lon="0.71497">
        <ele>130.4</ele>
        <time>2018-05-16T23:04:36Z</time>
      </trkpt>
      <trkpt lat="44.52565" lon="0.71503">
        <ele>129.9</ele>
        <time>2018-05-16T23:04:37Z</time>
      </trkpt>
      <trkpt lat="44.52571" lon="0.7151">
        <ele>129.5</ele>
        <time>2018-05-16T23:04:38Z</time>
      </trkpt>
      <trkpt lat="44.52577" lon="0.71516">
        <ele>129</ele>
        <time>2018-05-16T23:04:39Z</time>
      </trkpt>
      <trkpt lat="44.52583" lon="0.71522">
        <ele>128.6</ele>
        <time>2018-05-16T23:04:40Z</time>
      </trkpt>
      <trkpt lat="44.52589" lon="0.71528">
        <ele>128</ele>
        <time>2018-05-16T23:04:41Z</time>
      </trkpt>
      <trkpt lat="44.52595" lon="0.71534">
        <ele>127.6</ele>
        <time>2018-05-16T23:04:42Z</time>
      </trkpt>
      <trkpt lat="44.52602" lon="0.71541">
        <ele>126.9</ele>
        <time>2018-05-16T23:04:43Z</time>
      </trkpt>
      <trkpt lat="44.52608" lon="0.71547">
        <ele>126.4</ele>
        <time>2018-05-16T23:04:44Z</time>
      </trkpt>
      <trkpt lat="44.52614" lon="0.71552">
        <ele>125.9</ele>
        <time>2018-05-16T23:04:45Z</time>
      </trkpt>
      <trkpt lat="44.52619" lon="0.71558">
        <ele>125.3</ele>
        <time>2018-05-16T23:04:46Z</time>
      </trkpt>
      <trkpt lat="44.52623" lon="0.71563">
        <ele>124.8</ele>
        <time>2018-05-16T23:04:47Z</time>
      </trkpt>
      <trkpt lat="44.52627" lon="0.71567">
        <ele>124.5</ele>
        <time>2018-05-16T23:04:48Z</time>
      </trkpt>
      <trkpt lat="44.52631" lon="0.71571">
        <ele>124.1</ele>
        <time>2018-05-16T23:04:49Z</time>
      </trkpt>
      <trkpt lat="44.52635" lon="0.71574">
        <ele>123.9</ele>
        <time>2018-05-16T23:04:50Z</time>
      </trkpt>
      <trkpt lat="44.52639" lon="0.71578">
        <ele>123.5</ele>
        <time>2018-05-16T23:04:51Z</time>
      </trkpt>
      <trkpt lat="44.52643" lon="0.71582">
        <ele>123.1</ele>
        <time>2018-05-16T23:04:52Z</time>
      </trkpt>
      <trkpt lat="44.52647" lon="0.71587">
        <ele>122.6</ele>
        <time>2018-05-16T23:04:53Z</time>
      </trkpt>
      <trkpt lat="44.52651" lon="0.71592">
        <ele>122.1</ele>
        <time>2018-05-16T23:04:54Z</time>
      </trkpt>
      <trkpt lat="44.52656" lon="0.71596">
        <ele>121.7</ele>
        <time>2018-05-16T23:04:55Z</time>
      </trkpt>
      <trkpt lat="44.5266" lon="0.71601">
        <ele>121.2</ele>
        <time>2018-05-16T23:04:56Z</time>
      </trkpt>
      <trkpt lat="44.52665" lon="0.71606">
        <ele>120.7</ele>
        <time>2018-05-16T23:04:57Z</time>
      </trkpt>
      <trkpt lat="44.5267" lon="0.71611">
        <ele>120.3</ele>
        <time>2018-05-16T23:04:58Z</time>
      </trkpt>
      <trkpt lat="44.52675" lon="0.71616">
        <ele>119.9</ele>
        <time>2018-05-16T23:04:59Z</time>
      </trkpt>
      <trkpt lat="44.5268" lon="0.71621">
        <ele>119.6</ele>
        <time>2018-05-16T23:05:00Z</time>
      </trkpt>
      <trkpt lat="44.52685" lon="0.71626">
        <ele>119</ele>
        <time>2018-05-16T23:05:01Z</time>
      </trkpt>
      <trkpt lat="44.52689" lon="0.71631">
        <ele>118.7</ele>
        <time>2018-05-16T23:05:02Z</time>
      </trkpt>
      <trkpt lat="44.52694" lon="0.71636">
        <ele>118.3</ele>
        <time>2018-05-16T23:05:03Z</time>
      </trkpt>
      <trkpt lat="44.52698" lon="0.71641">
        <ele>118</ele>
        <time>2018-05-16T23:05:04Z</time>
      </trkpt>
      <trkpt lat="44.52702" lon="0.71646">
        <ele>117.6</ele>
        <time>2018-05-16T23:05:05Z</time>
      </trkpt>
      <trkpt lat="44.52706" lon="0.71651">
        <ele>117.3</ele>
        <time>2018-05-16T23:05:06Z</time>
      </trkpt>
      <trkpt lat="44.52711" lon="0.71656">
        <ele>117</ele>
        <time>2018-05-16T23:05:07Z</time>
      </trkpt>
      <trkpt lat="44.52715" lon="0.7166">
        <ele>116.5</ele>
        <time>2018-05-16T23:05:08Z</time>
      </trkpt>
      <trkpt lat="44.5272" lon="0.71665">
        <ele>116.1</ele>
        <time>2018-05-16T23:05:09Z</time>
      </trkpt>
      <trkpt lat="44.52725" lon="0.7167">
        <ele>115.8</ele>
        <time>2018-05-16T23:05:10Z</time>
      </trkpt>
      <trkpt lat="44.5273" lon="0.71675">
        <ele>115.3</ele>
        <time>2018-05-16T23:05:11Z</time>
      </trkpt>
      <trkpt lat="44.52735" lon="0.71681">
        <ele>114.9</ele>
        <time>2018-05-16T23:05:12Z</time>
      </trkpt>
      <trkpt lat="44.5274" lon="0.71686">
        <ele>114.2</ele>
        <time>2018-05-16T23:05:13Z</time>
      </trkpt>
      <trkpt lat="44.52745" lon="0.71692">
        <ele>113.7</ele>
        <time>2018-05-16T23:05:14Z</time>
      </trkpt>
      <trkpt lat="44.5275" lon="0.71697">
        <ele>113.4</ele>
        <time>2018-05-16T23:05:15Z</time>
      </trkpt>
      <trkpt lat="44.52756" lon="0.71702">
        <ele>112.9</ele>
        <time>2018-05-16T23:05:16Z</time>
      </trkpt>
      <trkpt lat="44.52761" lon="0.71707">
        <ele>112.5</ele>
        <time>2018-05-16T23:05:17Z</time>
      </trkpt>
      <trkpt lat="44.52767" lon="0.7171">
        <ele>112</ele>
        <time>2018-05-16T23:05:18Z</time>
      </trkpt>
      <trkpt lat="44.52772" lon="0.71712">
        <ele>111.7</ele>
        <time>2018-05-16T23:05:19Z</time>
      </trkpt>
      <trkpt lat="44.52777" lon="0.71712">
        <ele>111.3</ele>
        <time>2018-05-16T23:05:20Z</time>
      </trkpt>
      <trkpt lat="44.52782" lon="0.71712">
        <ele>110.8</ele>
        <time>2018-05-16T23:05:21Z</time>
      </trkpt>
      <trkpt lat="44.52786" lon="0.7171">
        <ele>110.5</ele>
        <time>2018-05-16T23:05:22Z</time>
      </trkpt>
      <trkpt lat="44.5279" lon="0.71707">
        <ele>110.3</ele>
        <time>2018-05-16T23:05:23Z</time>
      </trkpt>
      <trkpt lat="44.52793" lon="0.71704">
        <ele>110.1</ele>
        <time>2018-05-16T23:05:24Z</time>
      </trkpt>
      <trkpt lat="44.52796" lon="0.71702">
        <ele>109.9</ele>
        <time>2018-05-16T23:05:25Z</time>
      </trkpt>
      <trkpt lat="44.52798" lon="0.71701">
        <ele>109.6</ele>
        <time>2018-05-16T23:05:27Z</time>
      </trkpt>
      <trkpt lat="44.52809" lon="0.7169">
        <ele>108.9</ele>
        <time>2018-05-16T23:06:16Z</time>
      </trkpt>
      <trkpt lat="44.52812" lon="0.71689">
        <ele>108.9</ele>
        <time>2018-05-16T23:06:17Z</time>
      </trkpt>
      <trkpt lat="44.52817" lon="0.71686">
        <ele>108.3</ele>
        <time>2018-05-16T23:06:19Z</time>
      </trkpt>
      <trkpt lat="44.52821" lon="0.71686">
        <ele>107.9</ele>
        <time>2018-05-16T23:06:20Z</time>
      </trkpt>
      <trkpt lat="44.52825" lon="0.71684">
        <ele>107.8</ele>
        <time>2018-05-16T23:06:21Z</time>
      </trkpt>
      <trkpt lat="44.52828" lon="0.71682">
        <ele>107.5</ele>
        <time>2018-05-16T23:06:22Z</time>
      </trkpt>
      <trkpt lat="44.52832" lon="0.7168">
        <ele>107.3</ele>
        <time>2018-05-16T23:06:23Z</time>
      </trkpt>
      <trkpt lat="44.52836" lon="0.71677">
        <ele>106.7</ele>
        <time>2018-05-16T23:06:24Z</time>
      </trkpt>
      <trkpt lat="44.5284" lon="0.71674">
        <ele>106.4</ele>
        <time>2018-05-16T23:06:25Z</time>
      </trkpt>
      <trkpt lat="44.52845" lon="0.7167">
        <ele>106.2</ele>
        <time>2018-05-16T23:06:26Z</time>
      </trkpt>
      <trkpt lat="44.52851" lon="0.71665">
        <ele>105.6</ele>
        <time>2018-05-16T23:06:27Z</time>
      </trkpt>
      <trkpt lat="44.52857" lon="0.7166">
        <ele>104.9</ele>
        <time>2018-05-16T23:06:28Z</time>
      </trkpt>
      <trkpt lat="44.52863" lon="0.71655">
        <ele>104.2</ele>
        <time>2018-05-16T23:06:29Z</time>
      </trkpt>
      <trkpt lat="44.52871" lon="0.71651">
        <ele>103.2</ele>
        <time>2018-05-16T23:06:30Z</time>
      </trkpt>
      <trkpt lat="44.52879" lon="0.71647">
        <ele>102.6</ele>
        <time>2018-05-16T23:06:31Z</time>
      </trkpt>
      <trkpt lat="44.52886" lon="0.71641">
        <ele>101.7</ele>
        <time>2018-05-16T23:06:32Z</time>
      </trkpt>
      <trkpt lat="44.52892" lon="0.71635">
        <ele>101</ele>
        <time>2018-05-16T23:06:33Z</time>
      </trkpt>
      <trkpt lat="44.52899" lon="0.7163">
        <ele>100.5</ele>
        <time>2018-05-16T23:06:34Z</time>
      </trkpt>
      <trkpt lat="44.52905" lon="0.71624">
        <ele>100</ele>
        <time>2018-05-16T23:06:35Z</time>
      </trkpt>
      <trkpt lat="44.52911" lon="0.71619">
        <ele>99.4</ele>
        <time>2018-05-16T23:06:36Z</time>
      </trkpt>
      <trkpt lat="44.52917" lon="0.71613">
        <ele>98.7</ele>
        <time>2018-05-16T23:06:37Z</time>
      </trkpt>
      <trkpt lat="44.52924" lon="0.71607">
        <ele>97.8</ele>
        <time>2018-05-16T23:06:38Z</time>
      </trkpt>
      <trkpt lat="44.52931" lon="0.716">
        <ele>97.2</ele>
        <time>2018-05-16T23:06:39Z</time>
      </trkpt>
      <trkpt lat="44.52937" lon="0.71594">
        <ele>96.6</ele>
        <time>2018-05-16T23:06:40Z</time>
      </trkpt>
      <trkpt lat="44.52944" lon="0.71588">
        <ele>95.6</ele>
        <time>2018-05-16T23:06:41Z</time>
      </trkpt>
      <trkpt lat="44.52951" lon="0.71581">
        <ele>95.5</ele>
        <time>2018-05-16T23:06:42Z</time>
      </trkpt>
      <trkpt lat="44.52957" lon="0.71576">
        <ele>95.2</ele>
        <time>2018-05-16T23:06:43Z</time>
      </trkpt>
      <trkpt lat="44.52964" lon="0.71572">
        <ele>95</ele>
        <time>2018-05-16T23:06:44Z</time>
      </trkpt>
      <trkpt lat="44.52971" lon="0.71568">
        <ele>94.6</ele>
        <time>2018-05-16T23:06:45Z</time>
      </trkpt>
      <trkpt lat="44.52977" lon="0.71562">
        <ele>94.7</ele>
        <time>2018-05-16T23:06:46Z</time>
      </trkpt>
      <trkpt lat="44.52983" lon="0.71555">
        <ele>94.8</ele>
        <time>2018-05-16T23:06:47Z</time>
      </trkpt>
      <trkpt lat="44.5299" lon="0.71547">
        <ele>94.7</ele>
        <time>2018-05-16T23:06:48Z</time>
      </trkpt>
      <trkpt lat="44.52997" lon="0.71541">
        <ele>94.5</ele>
        <time>2018-05-16T23:06:49Z</time>
      </trkpt>
      <trkpt lat="44.53005" lon="0.71535">
        <ele>94.4</ele>
        <time>2018-05-16T23:06:50Z</time>
      </trkpt>
      <trkpt lat="44.53012" lon="0.71528">
        <ele>94.4</ele>
        <time>2018-05-16T23:06:51Z</time>
      </trkpt>
      <trkpt lat="44.53018" lon="0.71524">
        <ele>94.3</ele>
        <time>2018-05-16T23:06:52Z</time>
      </trkpt>
      <trkpt lat="44.53024" lon="0.71518">
        <ele>94.7</ele>
        <time>2018-05-16T23:06:53Z</time>
      </trkpt>
      <trkpt lat="44.53031" lon="0.71513">
        <ele>94.7</ele>
        <time>2018-05-16T23:06:54Z</time>
      </trkpt>
      <trkpt lat="44.53037" lon="0.71509">
        <ele>94.7</ele>
        <time>2018-05-16T23:06:55Z</time>
      </trkpt>
      <trkpt lat="44.53044" lon="0.71505">
        <ele>94.8</ele>
        <time>2018-05-16T23:06:56Z</time>
      </trkpt>
      <trkpt lat="44.53051" lon="0.71501">
        <ele>94.7</ele>
        <time>2018-05-16T23:06:57Z</time>
      </trkpt>
      <trkpt lat="44.53057" lon="0.71497">
        <ele>94.6</ele>
        <time>2018-05-16T23:06:58Z</time>
      </trkpt>
      <trkpt lat="44.53062" lon="0.71496">
        <ele>94.5</ele>
        <time>2018-05-16T23:06:59Z</time>
      </trkpt>
      <trkpt lat="44.53066" lon="0.71493">
        <ele>94.2</ele>
        <time>2018-05-16T23:07:00Z</time>
      </trkpt>
      <trkpt lat="44.53071" lon="0.7149">
        <ele>94.4</ele>
        <time>2018-05-16T23:07:01Z</time>
      </trkpt>
      <trkpt lat="44.53076" lon="0.71487">
        <ele>94.4</ele>
        <time>2018-05-16T23:07:02Z</time>
      </trkpt>
      <trkpt lat="44.53082" lon="0.71484">
        <ele>94.4</ele>
        <time>2018-05-16T23:07:03Z</time>
      </trkpt>
      <trkpt lat="44.53088" lon="0.71482">
        <ele>94.2</ele>
        <time>2018-05-16T23:07:05Z</time>
      </trkpt>
      <trkpt lat="44.53092" lon="0.71481">
        <ele>94.1</ele>
        <time>2018-05-16T23:07:06Z</time>
      </trkpt>
      <trkpt lat="44.53098" lon="0.71481">
        <ele>94</ele>
        <time>2018-05-16T23:07:07Z</time>
      </trkpt>
      <trkpt lat="44.53104" lon="0.71478">
        <ele>93.9</ele>
        <time>2018-05-16T23:07:08Z</time>
      </trkpt>
      <trkpt lat="44.53109" lon="0.71474">
        <ele>93.8</ele>
        <time>2018-05-16T23:07:09Z</time>
      </trkpt>
      <trkpt lat="44.53117" lon="0.71474">
        <ele>93.6</ele>
        <time>2018-05-16T23:07:10Z</time>
      </trkpt>
      <trkpt lat="44.53124" lon="0.71472">
        <ele>93.5</ele>
        <time>2018-05-16T23:07:11Z</time>
      </trkpt>
      <trkpt lat="44.53127" lon="0.71469">
        <ele>93.5</ele>
        <time>2018-05-16T23:07:12Z</time>
      </trkpt>
      <trkpt lat="44.53131" lon="0.7147">
        <ele>93.4</ele>
        <time>2018-05-16T23:07:13Z</time>
      </trkpt>
      <trkpt lat="44.53135" lon="0.71469">
        <ele>93.3</ele>
        <time>2018-05-16T23:07:14Z</time>
      </trkpt>
      <trkpt lat="44.53134" lon="0.71465">
        <ele>93.3</ele>
        <time>2018-05-16T23:07:15Z</time>
      </trkpt>
      <trkpt lat="44.53136" lon="0.71461">
        <ele>93.2</ele>
        <time>2018-05-16T23:07:16Z</time>
      </trkpt>
      <trkpt lat="44.53132" lon="0.71465">
        <ele>93.3</ele>
        <time>2018-05-16T23:07:17Z</time>
      </trkpt>
      <trkpt lat="44.5313" lon="0.71468">
        <ele>93.4</ele>
        <time>2018-05-16T23:07:18Z</time>
      </trkpt>
      <trkpt lat="44.53127" lon="0.71472">
        <ele>93.5</ele>
        <time>2018-05-16T23:07:19Z</time>
      </trkpt>
      <trkpt lat="44.53124" lon="0.71476">
        <ele>93.6</ele>
        <time>2018-05-16T23:07:20Z</time>
      </trkpt>
      <trkpt lat="44.53122" lon="0.71481">
        <ele>93.7</ele>
        <time>2018-05-16T23:07:21Z</time>
      </trkpt>
      <trkpt lat="44.5312" lon="0.71489">
        <ele>93.9</ele>
        <time>2018-05-16T23:07:22Z</time>
      </trkpt>
      <trkpt lat="44.53119" lon="0.71498">
        <ele>93.6</ele>
        <time>2018-05-16T23:07:23Z</time>
      </trkpt>
      <trkpt lat="44.53119" lon="0.71505">
        <ele>93.2</ele>
        <time>2018-05-16T23:07:24Z</time>
      </trkpt>
      <trkpt lat="44.53121" lon="0.71514">
        <ele>92.7</ele>
        <time>2018-05-16T23:07:25Z</time>
      </trkpt>
      <trkpt lat="44.53123" lon="0.71524">
        <ele>92.1</ele>
        <time>2018-05-16T23:07:26Z</time>
      </trkpt>
      <trkpt lat="44.53125" lon="0.71535">
        <ele>91.6</ele>
        <time>2018-05-16T23:07:27Z</time>
      </trkpt>
      <trkpt lat="44.53127" lon="0.71545">
        <ele>90.9</ele>
        <time>2018-05-16T23:07:28Z</time>
      </trkpt>
      <trkpt lat="44.53129" lon="0.71555">
        <ele>90.4</ele>
        <time>2018-05-16T23:07:29Z</time>
      </trkpt>
      <trkpt lat="44.53132" lon="0.71566">
        <ele>89.7</ele>
        <time>2018-05-16T23:07:30Z</time>
      </trkpt>
      <trkpt lat="44.53135" lon="0.71576">
        <ele>89.1</ele>
        <time>2018-05-16T23:07:31Z</time>
      </trkpt>
      <trkpt lat="44.53138" lon="0.71586">
        <ele>88.6</ele>
        <time>2018-05-16T23:07:32Z</time>
      </trkpt>
      <trkpt lat="44.53141" lon="0.71597">
        <ele>87.9</ele>
        <time>2018-05-16T23:07:33Z</time>
      </trkpt>
      <trkpt lat="44.53145" lon="0.71606">
        <ele>87.4</ele>
        <time>2018-05-16T23:07:34Z</time>
      </trkpt>
      <trkpt lat="44.53148" lon="0.71617">
        <ele>87</ele>
        <time>2018-05-16T23:07:35Z</time>
      </trkpt>
      <trkpt lat="44.53151" lon="0.71625">
        <ele>86.7</ele>
        <time>2018-05-16T23:07:36Z</time>
      </trkpt>
      <trkpt lat="44.53154" lon="0.71635">
        <ele>86.4</ele>
        <time>2018-05-16T23:07:37Z</time>
      </trkpt>
      <trkpt lat="44.53159" lon="0.71644">
        <ele>86.1</ele>
        <time>2018-05-16T23:07:38Z</time>
      </trkpt>
      <trkpt lat="44.53162" lon="0.71654">
        <ele>85.9</ele>
        <time>2018-05-16T23:07:39Z</time>
      </trkpt>
      <trkpt lat="44.53165" lon="0.71666">
        <ele>85.5</ele>
        <time>2018-05-16T23:07:40Z</time>
      </trkpt>
      <trkpt lat="44.53169" lon="0.71677">
        <ele>85.1</ele>
        <time>2018-05-16T23:07:41Z</time>
      </trkpt>
      <trkpt lat="44.53174" lon="0.71689">
        <ele>84.7</ele>
        <time>2018-05-16T23:07:42Z</time>
      </trkpt>
      <trkpt lat="44.53177" lon="0.71699">
        <ele>84.3</ele>
        <time>2018-05-16T23:07:43Z</time>
      </trkpt>
      <trkpt lat="44.53182" lon="0.7171">
        <ele>83.7</ele>
        <time>2018-05-16T23:07:44Z</time>
      </trkpt>
      <trkpt lat="44.53186" lon="0.71721">
        <ele>83.3</ele>
        <time>2018-05-16T23:07:45Z</time>
      </trkpt>
      <trkpt lat="44.53189" lon="0.71733">
        <ele>82.8</ele>
        <time>2018-05-16T23:07:46Z</time>
      </trkpt>
      <trkpt lat="44.53193" lon="0.71743">
        <ele>82.4</ele>
        <time>2018-05-16T23:07:47Z</time>
      </trkpt>
      <trkpt lat="44.53196" lon="0.71754">
        <ele>82</ele>
        <time>2018-05-16T23:07:48Z</time>
      </trkpt>
      <trkpt lat="44.53199" lon="0.71764">
        <ele>81.7</ele>
        <time>2018-05-16T23:07:49Z</time>
      </trkpt>
      <trkpt lat="44.53203" lon="0.71774">
        <ele>81.4</ele>
        <time>2018-05-16T23:07:50Z</time>
      </trkpt>
      <trkpt lat="44.53206" lon="0.71784">
        <ele>81.1</ele>
        <time>2018-05-16T23:07:51Z</time>
      </trkpt>
      <trkpt lat="44.53208" lon="0.71794">
        <ele>81</ele>
        <time>2018-05-16T23:07:52Z</time>
      </trkpt>
      <trkpt lat="44.53211" lon="0.71804">
        <ele>81</ele>
        <time>2018-05-16T23:07:53Z</time>
      </trkpt>
      <trkpt lat="44.53214" lon="0.71813">
        <ele>80.9</ele>
        <time>2018-05-16T23:07:54Z</time>
      </trkpt>
      <trkpt lat="44.53218" lon="0.71823">
        <ele>80.6</ele>
        <time>2018-05-16T23:07:55Z</time>
      </trkpt>
      <trkpt lat="44.53221" lon="0.71832">
        <ele>80.4</ele>
        <time>2018-05-16T23:07:56Z</time>
      </trkpt>
      <trkpt lat="44.53225" lon="0.71842">
        <ele>80.3</ele>
        <time>2018-05-16T23:07:57Z</time>
      </trkpt>
      <trkpt lat="44.53228" lon="0.71852">
        <ele>80.3</ele>
        <time>2018-05-16T23:07:58Z</time>
      </trkpt>
      <trkpt lat="44.5323" lon="0.7186">
        <ele>80.4</ele>
        <time>2018-05-16T23:07:59Z</time>
      </trkpt>
      <trkpt lat="44.53233" lon="0.7187">
        <ele>80.6</ele>
        <time>2018-05-16T23:08:00Z</time>
      </trkpt>
      <trkpt lat="44.53236" lon="0.71881">
        <ele>80.8</ele>
        <time>2018-05-16T23:08:01Z</time>
      </trkpt>
      <trkpt lat="44.53239" lon="0.71891">
        <ele>80.9</ele>
        <time>2018-05-16T23:08:02Z</time>
      </trkpt>
      <trkpt lat="44.53241" lon="0.71899">
        <ele>81</ele>
        <time>2018-05-16T23:08:03Z</time>
      </trkpt>
      <trkpt lat="44.53243" lon="0.71906">
        <ele>81</ele>
        <time>2018-05-16T23:08:04Z</time>
      </trkpt>
      <trkpt lat="44.53245" lon="0.71914">
        <ele>81.1</ele>
        <time>2018-05-16T23:08:05Z</time>
      </trkpt>
      <trkpt lat="44.53248" lon="0.71924">
        <ele>81.2</ele>
        <time>2018-05-16T23:08:06Z</time>
      </trkpt>
      <trkpt lat="44.5325" lon="0.71933">
        <ele>81.2</ele>
        <time>2018-05-16T23:08:07Z</time>
      </trkpt>
      <trkpt lat="44.53253" lon="0.71942">
        <ele>81.2</ele>
        <time>2018-05-16T23:08:08Z</time>
      </trkpt>
      <trkpt lat="44.53256" lon="0.71951">
        <ele>81.2</ele>
        <time>2018-05-16T23:08:09Z</time>
      </trkpt>
      <trkpt lat="44.53259" lon="0.71959">
        <ele>81.2</ele>
        <time>2018-05-16T23:08:10Z</time>
      </trkpt>
      <trkpt lat="44.53262" lon="0.71967">
        <ele>81.2</ele>
        <time>2018-05-16T23:08:11Z</time>
      </trkpt>
      <trkpt lat="44.53265" lon="0.71975">
        <ele>81.4</ele>
        <time>2018-05-16T23:08:12Z</time>
      </trkpt>
      <trkpt lat="44.53268" lon="0.71982">
        <ele>81.4</ele>
        <time>2018-05-16T23:08:13Z</time>
      </trkpt>
      <trkpt lat="44.53269" lon="0.71989">
        <ele>81.5</ele>
        <time>2018-05-16T23:08:14Z</time>
      </trkpt>
      <trkpt lat="44.53269" lon="0.71995">
        <ele>81.7</ele>
        <time>2018-05-16T23:08:15Z</time>
      </trkpt>
      <trkpt lat="44.53271" lon="0.72002">
        <ele>81.7</ele>
        <time>2018-05-16T23:08:16Z</time>
      </trkpt>
      <trkpt lat="44.53271" lon="0.72007">
        <ele>81.8</ele>
        <time>2018-05-16T23:08:17Z</time>
      </trkpt>
      <trkpt lat="44.53272" lon="0.72012">
        <ele>81.9</ele>
        <time>2018-05-16T23:08:18Z</time>
      </trkpt>
      <trkpt lat="44.53273" lon="0.72017">
        <ele>82</ele>
        <time>2018-05-16T23:08:19Z</time>
      </trkpt>
      <trkpt lat="44.53275" lon="0.72023">
        <ele>82.1</ele>
        <time>2018-05-16T23:08:20Z</time>
      </trkpt>
      <trkpt lat="44.53277" lon="0.72028">
        <ele>82.2</ele>
        <time>2018-05-16T23:08:21Z</time>
      </trkpt>
      <trkpt lat="44.53279" lon="0.72033">
        <ele>82.3</ele>
        <time>2018-05-16T23:08:22Z</time>
      </trkpt>
      <trkpt lat="44.5328" lon="0.72039">
        <ele>82.5</ele>
        <time>2018-05-16T23:08:23Z</time>
      </trkpt>
      <trkpt lat="44.53282" lon="0.72044">
        <ele>82.6</ele>
        <time>2018-05-16T23:08:24Z</time>
      </trkpt>
      <trkpt lat="44.53284" lon="0.72048">
        <ele>82.7</ele>
        <time>2018-05-16T23:08:25Z</time>
      </trkpt>
      <trkpt lat="44.53286" lon="0.72053">
        <ele>82.8</ele>
        <time>2018-05-16T23:08:26Z</time>
      </trkpt>
      <trkpt lat="44.53287" lon="0.72057">
        <ele>82.9</ele>
        <time>2018-05-16T23:08:27Z</time>
      </trkpt>
      <trkpt lat="44.53289" lon="0.72062">
        <ele>83</ele>
        <time>2018-05-16T23:08:28Z</time>
      </trkpt>
      <trkpt lat="44.53291" lon="0.72066">
        <ele>83.2</ele>
        <time>2018-05-16T23:08:29Z</time>
      </trkpt>
      <trkpt lat="44.53292" lon="0.72069">
        <ele>83.3</ele>
        <time>2018-05-16T23:08:30Z</time>
      </trkpt>
      <trkpt lat="44.53293" lon="0.72073">
        <ele>83.5</ele>
        <time>2018-05-16T23:08:31Z</time>
      </trkpt>
      <trkpt lat="44.53296" lon="0.72079">
        <ele>83.7</ele>
        <time>2018-05-16T23:08:33Z</time>
      </trkpt>
      <trkpt lat="44.53296" lon="0.72083">
        <ele>84</ele>
        <time>2018-05-16T23:08:34Z</time>
      </trkpt>
      <trkpt lat="44.53298" lon="0.7209">
        <ele>84.3</ele>
        <time>2018-05-16T23:08:35Z</time>
      </trkpt>
      <trkpt lat="44.53299" lon="0.72096">
        <ele>84.6</ele>
        <time>2018-05-16T23:08:36Z</time>
      </trkpt>
      <trkpt lat="44.53299" lon="0.721">
        <ele>84.8</ele>
        <time>2018-05-16T23:08:37Z</time>
      </trkpt>
      <trkpt lat="44.533" lon="0.72104">
        <ele>85</ele>
        <time>2018-05-16T23:08:38Z</time>
      </trkpt>
      <trkpt lat="44.533" lon="0.72112">
        <ele>85.4</ele>
        <time>2018-05-16T23:08:40Z</time>
      </trkpt>
      <trkpt lat="44.533" lon="0.72116">
        <ele>85.5</ele>
        <time>2018-05-16T23:08:41Z</time>
      </trkpt>
      <trkpt lat="44.533" lon="0.72121">
        <ele>85.7</ele>
        <time>2018-05-16T23:08:42Z</time>
      </trkpt>
      <trkpt lat="44.53299" lon="0.72126">
        <ele>85.9</ele>
        <time>2018-05-16T23:08:44Z</time>
      </trkpt>
      <trkpt lat="44.53298" lon="0.7213">
        <ele>86</ele>
        <time>2018-05-16T23:08:45Z</time>
      </trkpt>
      <trkpt lat="44.53297" lon="0.72138">
        <ele>86</ele>
        <time>2018-05-16T23:08:47Z</time>
      </trkpt>
      <trkpt lat="44.53298" lon="0.72143">
        <ele>86.1</ele>
        <time>2018-05-16T23:08:48Z</time>
      </trkpt>
      <trkpt lat="44.53299" lon="0.72149">
        <ele>86.3</ele>
        <time>2018-05-16T23:08:49Z</time>
      </trkpt>
      <trkpt lat="44.53302" lon="0.72151">
        <ele>86.5</ele>
        <time>2018-05-16T23:08:50Z</time>
      </trkpt>
      <trkpt lat="44.53303" lon="0.72158">
        <ele>87</ele>
        <time>2018-05-16T23:08:52Z</time>
      </trkpt>
      <trkpt lat="44.53305" lon="0.72163">
        <ele>87.4</ele>
        <time>2018-05-16T23:08:54Z</time>
      </trkpt>
      <trkpt lat="44.53306" lon="0.72167">
        <ele>87.7</ele>
        <time>2018-05-16T23:08:55Z</time>
      </trkpt>
      <trkpt lat="44.53305" lon="0.72172">
        <ele>88.1</ele>
        <time>2018-05-16T23:08:57Z</time>
      </trkpt>
      <trkpt lat="44.53302" lon="0.72179">
        <ele>88.6</ele>
        <time>2018-05-16T23:08:59Z</time>
      </trkpt>
      <trkpt lat="44.53301" lon="0.72185">
        <ele>88.9</ele>
        <time>2018-05-16T23:09:01Z</time>
      </trkpt>
      <trkpt lat="44.53303" lon="0.72191">
        <ele>89.2</ele>
        <time>2018-05-16T23:09:02Z</time>
      </trkpt>
      <trkpt lat="44.53301" lon="0.72198">
        <ele>89.7</ele>
        <time>2018-05-16T23:09:04Z</time>
      </trkpt>
      <trkpt lat="44.533" lon="0.72205">
        <ele>90.1</ele>
        <time>2018-05-16T23:09:06Z</time>
      </trkpt>
      <trkpt lat="44.53299" lon="0.72212">
        <ele>90.5</ele>
        <time>2018-05-16T23:09:08Z</time>
      </trkpt>
      <trkpt lat="44.53297" lon="0.72215">
        <ele>90.8</ele>
        <time>2018-05-16T23:09:09Z</time>
      </trkpt>
      <trkpt lat="44.53297" lon="0.7222">
        <ele>91.1</ele>
        <time>2018-05-16T23:09:10Z</time>
      </trkpt>
      <trkpt lat="44.53297" lon="0.72224">
        <ele>91.4</ele>
        <time>2018-05-16T23:09:11Z</time>
      </trkpt>
      <trkpt lat="44.53297" lon="0.72231">
        <ele>91.9</ele>
        <time>2018-05-16T23:09:13Z</time>
      </trkpt>
      <trkpt lat="44.53298" lon="0.72238">
        <ele>92.3</ele>
        <time>2018-05-16T23:09:15Z</time>
      </trkpt>
      <trkpt lat="44.53298" lon="0.72245">
        <ele>92.7</ele>
        <time>2018-05-16T23:09:17Z</time>
      </trkpt>
      <trkpt lat="44.53299" lon="0.72251">
        <ele>93</ele>
        <time>2018-05-16T23:09:19Z</time>
      </trkpt>
      <trkpt lat="44.533" lon="0.72257">
        <ele>93.5</ele>
        <time>2018-05-16T23:09:21Z</time>
      </trkpt>
      <trkpt lat="44.533" lon="0.72264">
        <ele>93.9</ele>
        <time>2018-05-16T23:09:23Z</time>
      </trkpt>
      <trkpt lat="44.533" lon="0.72271">
        <ele>94.4</ele>
        <time>2018-05-16T23:09:25Z</time>
      </trkpt>
      <trkpt lat="44.53301" lon="0.72278">
        <ele>94.8</ele>
        <time>2018-05-16T23:09:27Z</time>
      </trkpt>
      <trkpt lat="44.53303" lon="0.72285">
        <ele>95.2</ele>
        <time>2018-05-16T23:09:29Z</time>
      </trkpt>
      <trkpt lat="44.53305" lon="0.72292">
        <ele>95.6</ele>
        <time>2018-05-16T23:09:31Z</time>
      </trkpt>
      <trkpt lat="44.53308" lon="0.72297">
        <ele>95.8</ele>
        <time>2018-05-16T23:09:33Z</time>
      </trkpt>
      <trkpt lat="44.5331" lon="0.72299">
        <ele>95.9</ele>
        <time>2018-05-16T23:09:34Z</time>
      </trkpt>
      <trkpt lat="44.53312" lon="0.72302">
        <ele>96.3</ele>
        <time>2018-05-16T23:09:35Z</time>
      </trkpt>
      <trkpt lat="44.53315" lon="0.72304">
        <ele>96.5</ele>
        <time>2018-05-16T23:09:36Z</time>
      </trkpt>
      <trkpt lat="44.53317" lon="0.72306">
        <ele>96.8</ele>
        <time>2018-05-16T23:09:37Z</time>
      </trkpt>
      <trkpt lat="44.53321" lon="0.72306">
        <ele>97</ele>
        <time>2018-05-16T23:09:38Z</time>
      </trkpt>
      <trkpt lat="44.53323" lon="0.72308">
        <ele>97.2</ele>
        <time>2018-05-16T23:09:39Z</time>
      </trkpt>
      <trkpt lat="44.53326" lon="0.72309">
        <ele>97.5</ele>
        <time>2018-05-16T23:09:40Z</time>
      </trkpt>
      <trkpt lat="44.53329" lon="0.72311">
        <ele>97.6</ele>
        <time>2018-05-16T23:09:41Z</time>
      </trkpt>
      <trkpt lat="44.53331" lon="0.72312">
        <ele>97.7</ele>
        <time>2018-05-16T23:09:42Z</time>
      </trkpt>
      <trkpt lat="44.53334" lon="0.72313">
        <ele>98</ele>
        <time>2018-05-16T23:09:43Z</time>
      </trkpt>
      <trkpt lat="44.53337" lon="0.72314">
        <ele>98.1</ele>
        <time>2018-05-16T23:09:44Z</time>
      </trkpt>
      <trkpt lat="44.5334" lon="0.72316">
        <ele>98.3</ele>
        <time>2018-05-16T23:09:45Z</time>
      </trkpt>
      <trkpt lat="44.53344" lon="0.72316">
        <ele>98.4</ele>
        <time>2018-05-16T23:09:46Z</time>
      </trkpt>
      <trkpt lat="44.53346" lon="0.72317">
        <ele>98.6</ele>
        <time>2018-05-16T23:09:47Z</time>
      </trkpt>
      <trkpt lat="44.53349" lon="0.72318">
        <ele>98.7</ele>
        <time>2018-05-16T23:09:48Z</time>
      </trkpt>
      <trkpt lat="44.53355" lon="0.7232">
        <ele>98.8</ele>
        <time>2018-05-16T23:09:50Z</time>
      </trkpt>
      <trkpt lat="44.53358" lon="0.72321">
        <ele>99.1</ele>
        <time>2018-05-16T23:09:51Z</time>
      </trkpt>
      <trkpt lat="44.53361" lon="0.72323">
        <ele>99.2</ele>
        <time>2018-05-16T23:09:52Z</time>
      </trkpt>
      <trkpt lat="44.53364" lon="0.72324">
        <ele>99.4</ele>
        <time>2018-05-16T23:09:53Z</time>
      </trkpt>
      <trkpt lat="44.53367" lon="0.72325">
        <ele>99.5</ele>
        <time>2018-05-16T23:09:54Z</time>
      </trkpt>
      <trkpt lat="44.5337" lon="0.72326">
        <ele>99.7</ele>
        <time>2018-05-16T23:09:55Z</time>
      </trkpt>
      <trkpt lat="44.53374" lon="0.72328">
        <ele>99.9</ele>
        <time>2018-05-16T23:09:56Z</time>
      </trkpt>
      <trkpt lat="44.53377" lon="0.72328">
        <ele>100</ele>
        <time>2018-05-16T23:09:57Z</time>
      </trkpt>
      <trkpt lat="44.53386" lon="0.72331">
        <ele>100.3</ele>
        <time>2018-05-16T23:10:00Z</time>
      </trkpt>
      <trkpt lat="44.53389" lon="0.72332">
        <ele>100.5</ele>
        <time>2018-05-16T23:10:01Z</time>
      </trkpt>
      <trkpt lat="44.53392" lon="0.72333">
        <ele>100.6</ele>
        <time>2018-05-16T23:10:02Z</time>
      </trkpt>
      <trkpt lat="44.53397" lon="0.72335">
        <ele>100.9</ele>
        <time>2018-05-16T23:10:04Z</time>
      </trkpt>
      <trkpt lat="44.53401" lon="0.72335">
        <ele>101</ele>
        <time>2018-05-16T23:10:05Z</time>
      </trkpt>
      <trkpt lat="44.53403" lon="0.72336">
        <ele>101.2</ele>
        <time>2018-05-16T23:10:06Z</time>
      </trkpt>
      <trkpt lat="44.53406" lon="0.72337">
        <ele>101.3</ele>
        <time>2018-05-16T23:10:07Z</time>
      </trkpt>
      <trkpt lat="44.5341" lon="0.72339">
        <ele>101.6</ele>
        <time>2018-05-16T23:10:08Z</time>
      </trkpt>
      <trkpt lat="44.53413" lon="0.7234">
        <ele>101.7</ele>
        <time>2018-05-16T23:10:09Z</time>
      </trkpt>
      <trkpt lat="44.53416" lon="0.72341">
        <ele>101.8</ele>
        <time>2018-05-16T23:10:10Z</time>
      </trkpt>
      <trkpt lat="44.53419" lon="0.72342">
        <ele>101.9</ele>
        <time>2018-05-16T23:10:11Z</time>
      </trkpt>
      <trkpt lat="44.53423" lon="0.72344">
        <ele>102.2</ele>
        <time>2018-05-16T23:10:12Z</time>
      </trkpt>
      <trkpt lat="44.53427" lon="0.72345">
        <ele>102.3</ele>
        <time>2018-05-16T23:10:13Z</time>
      </trkpt>
      <trkpt lat="44.53431" lon="0.72347">
        <ele>102.5</ele>
        <time>2018-05-16T23:10:14Z</time>
      </trkpt>
      <trkpt lat="44.53436" lon="0.72349">
        <ele>102.6</ele>
        <time>2018-05-16T23:10:15Z</time>
      </trkpt>
      <trkpt lat="44.5344" lon="0.7235">
        <ele>102.7</ele>
        <time>2018-05-16T23:10:16Z</time>
      </trkpt>
      <trkpt lat="44.53445" lon="0.72352">
        <ele>103</ele>
        <time>2018-05-16T23:10:17Z</time>
      </trkpt>
      <trkpt lat="44.5345" lon="0.72354">
        <ele>103.1</ele>
        <time>2018-05-16T23:10:18Z</time>
      </trkpt>
      <trkpt lat="44.53455" lon="0.72357">
        <ele>103.3</ele>
        <time>2018-05-16T23:10:19Z</time>
      </trkpt>
      <trkpt lat="44.5346" lon="0.72359">
        <ele>103.4</ele>
        <time>2018-05-16T23:10:20Z</time>
      </trkpt>
      <trkpt lat="44.53466" lon="0.72361">
        <ele>103.7</ele>
        <time>2018-05-16T23:10:21Z</time>
      </trkpt>
      <trkpt lat="44.53471" lon="0.72363">
        <ele>103.8</ele>
        <time>2018-05-16T23:10:22Z</time>
      </trkpt>
      <trkpt lat="44.53477" lon="0.72365">
        <ele>104.1</ele>
        <time>2018-05-16T23:10:23Z</time>
      </trkpt>
      <trkpt lat="44.53482" lon="0.72367">
        <ele>104.4</ele>
        <time>2018-05-16T23:10:24Z</time>
      </trkpt>
      <trkpt lat="44.53487" lon="0.72369">
        <ele>104.7</ele>
        <time>2018-05-16T23:10:25Z</time>
      </trkpt>
      <trkpt lat="44.53491" lon="0.7237">
        <ele>105.1</ele>
        <time>2018-05-16T23:10:26Z</time>
      </trkpt>
      <trkpt lat="44.53496" lon="0.72372">
        <ele>105.4</ele>
        <time>2018-05-16T23:10:27Z</time>
      </trkpt>
      <trkpt lat="44.535" lon="0.72374">
        <ele>105.8</ele>
        <time>2018-05-16T23:10:28Z</time>
      </trkpt>
      <trkpt lat="44.53504" lon="0.72375">
        <ele>106.3</ele>
        <time>2018-05-16T23:10:29Z</time>
      </trkpt>
      <trkpt lat="44.53508" lon="0.72377">
        <ele>106.7</ele>
        <time>2018-05-16T23:10:30Z</time>
      </trkpt>
      <trkpt lat="44.53512" lon="0.72378">
        <ele>107</ele>
        <time>2018-05-16T23:10:31Z</time>
      </trkpt>
      <trkpt lat="44.53516" lon="0.72381">
        <ele>107.5</ele>
        <time>2018-05-16T23:10:32Z</time>
      </trkpt>
      <trkpt lat="44.5352" lon="0.72382">
        <ele>107.8</ele>
        <time>2018-05-16T23:10:33Z</time>
      </trkpt>
      <trkpt lat="44.53524" lon="0.72384">
        <ele>108.1</ele>
        <time>2018-05-16T23:10:34Z</time>
      </trkpt>
      <trkpt lat="44.53527" lon="0.72385">
        <ele>108.3</ele>
        <time>2018-05-16T23:10:35Z</time>
      </trkpt>
      <trkpt lat="44.53531" lon="0.72386">
        <ele>108.8</ele>
        <time>2018-05-16T23:10:36Z</time>
      </trkpt>
      <trkpt lat="44.53535" lon="0.72387">
        <ele>109.1</ele>
        <time>2018-05-16T23:10:37Z</time>
      </trkpt>
      <trkpt lat="44.53538" lon="0.72388">
        <ele>109.3</ele>
        <time>2018-05-16T23:10:38Z</time>
      </trkpt>
      <trkpt lat="44.53542" lon="0.72389">
        <ele>109.6</ele>
        <time>2018-05-16T23:10:39Z</time>
      </trkpt>
      <trkpt lat="44.53544" lon="0.72391">
        <ele>110</ele>
        <time>2018-05-16T23:10:40Z</time>
      </trkpt>
      <trkpt lat="44.53547" lon="0.72392">
        <ele>110.2</ele>
        <time>2018-05-16T23:10:41Z</time>
      </trkpt>
      <trkpt lat="44.5355" lon="0.72393">
        <ele>110.5</ele>
        <time>2018-05-16T23:10:42Z</time>
      </trkpt>
      <trkpt lat="44.53553" lon="0.72394">
        <ele>110.9</ele>
        <time>2018-05-16T23:10:43Z</time>
      </trkpt>
      <trkpt lat="44.53558" lon="0.72396">
        <ele>111.2</ele>
        <time>2018-05-16T23:10:45Z</time>
      </trkpt>
      <trkpt lat="44.53561" lon="0.72397">
        <ele>111.5</ele>
        <time>2018-05-16T23:10:46Z</time>
      </trkpt>
      <trkpt lat="44.53564" lon="0.72398">
        <ele>111.8</ele>
        <time>2018-05-16T23:10:47Z</time>
      </trkpt>
      <trkpt lat="44.53567" lon="0.72399">
        <ele>112.2</ele>
        <time>2018-05-16T23:10:48Z</time>
      </trkpt>
      <trkpt lat="44.5357" lon="0.724">
        <ele>112.5</ele>
        <time>2018-05-16T23:10:49Z</time>
      </trkpt>
      <trkpt lat="44.53573" lon="0.72401">
        <ele>112.7</ele>
        <time>2018-05-16T23:10:50Z</time>
      </trkpt>
      <trkpt lat="44.53576" lon="0.72402">
        <ele>113</ele>
        <time>2018-05-16T23:10:51Z</time>
      </trkpt>
      <trkpt lat="44.53578" lon="0.72403">
        <ele>113.3</ele>
        <time>2018-05-16T23:10:52Z</time>
      </trkpt>
      <trkpt lat="44.53581" lon="0.72404">
        <ele>113.6</ele>
        <time>2018-05-16T23:10:53Z</time>
      </trkpt>
      <trkpt lat="44.53584" lon="0.72405">
        <ele>113.8</ele>
        <time>2018-05-16T23:10:54Z</time>
      </trkpt>
      <trkpt lat="44.53586" lon="0.72406">
        <ele>114</ele>
        <time>2018-05-16T23:10:55Z</time>
      </trkpt>
      <trkpt lat="44.53591" lon="0.72407">
        <ele>114.4</ele>
        <time>2018-05-16T23:10:57Z</time>
      </trkpt>
      <trkpt lat="44.53595" lon="0.72409">
        <ele>114.8</ele>
        <time>2018-05-16T23:10:59Z</time>
      </trkpt>
      <trkpt lat="44.536" lon="0.72412">
        <ele>115.1</ele>
        <time>2018-05-16T23:11:01Z</time>
      </trkpt>
      <trkpt lat="44.53605" lon="0.72413">
        <ele>115.7</ele>
        <time>2018-05-16T23:11:03Z</time>
      </trkpt>
      <trkpt lat="44.53609" lon="0.72415">
        <ele>116</ele>
        <time>2018-05-16T23:11:05Z</time>
      </trkpt>
      <trkpt lat="44.53614" lon="0.72417">
        <ele>116.6</ele>
        <time>2018-05-16T23:11:07Z</time>
      </trkpt>
      <trkpt lat="44.53619" lon="0.72419">
        <ele>117</ele>
        <time>2018-05-16T23:11:09Z</time>
      </trkpt>
      <trkpt lat="44.53624" lon="0.72421">
        <ele>117.6</ele>
        <time>2018-05-16T23:11:11Z</time>
      </trkpt>
      <trkpt lat="44.53628" lon="0.72423">
        <ele>118</ele>
        <time>2018-05-16T23:11:13Z</time>
      </trkpt>
      <trkpt lat="44.53632" lon="0.72425">
        <ele>118.6</ele>
        <time>2018-05-16T23:11:15Z</time>
      </trkpt>
      <trkpt lat="44.53636" lon="0.72426">
        <ele>119</ele>
        <time>2018-05-16T23:11:17Z</time>
      </trkpt>
      <trkpt lat="44.53641" lon="0.72427">
        <ele>119.4</ele>
        <time>2018-05-16T23:11:19Z</time>
      </trkpt>
      <trkpt lat="44.53643" lon="0.72428">
        <ele>119.8</ele>
        <time>2018-05-16T23:11:20Z</time>
      </trkpt>
      <trkpt lat="44.53648" lon="0.72429">
        <ele>120.6</ele>
        <time>2018-05-16T23:11:22Z</time>
      </trkpt>
      <trkpt lat="44.53652" lon="0.72431">
        <ele>120.6</ele>
        <time>2018-05-16T23:11:24Z</time>
      </trkpt>
      <trkpt lat="44.53656" lon="0.72432">
        <ele>120.6</ele>
        <time>2018-05-16T23:11:26Z</time>
      </trkpt>
      <trkpt lat="44.53661" lon="0.72431">
        <ele>120.5</ele>
        <time>2018-05-16T23:11:28Z</time>
      </trkpt>
      <trkpt lat="44.53663" lon="0.72429">
        <ele>120.4</ele>
        <time>2018-05-16T23:11:30Z</time>
      </trkpt>
      <trkpt lat="44.53666" lon="0.72424">
        <ele>120.4</ele>
        <time>2018-05-16T23:11:33Z</time>
      </trkpt>
      <trkpt lat="44.53667" lon="0.7242">
        <ele>120.3</ele>
        <time>2018-05-16T23:11:36Z</time>
      </trkpt>
      <trkpt lat="44.53669" lon="0.72415">
        <ele>120.2</ele>
        <time>2018-05-16T23:11:38Z</time>
      </trkpt>
      <trkpt lat="44.53671" lon="0.72409">
        <ele>120.1</ele>
        <time>2018-05-16T23:11:40Z</time>
      </trkpt>
      <trkpt lat="44.53672" lon="0.72403">
        <ele>120</ele>
        <time>2018-05-16T23:11:42Z</time>
      </trkpt>
      <trkpt lat="44.53674" lon="0.72396">
        <ele>119.9</ele>
        <time>2018-05-16T23:11:44Z</time>
      </trkpt>
      <trkpt lat="44.53677" lon="0.7239">
        <ele>119.8</ele>
        <time>2018-05-16T23:11:46Z</time>
      </trkpt>
      <trkpt lat="44.53679" lon="0.72386">
        <ele>119.7</ele>
        <time>2018-05-16T23:11:48Z</time>
      </trkpt>
      <trkpt lat="44.53683" lon="0.72386">
        <ele>119.5</ele>
        <time>2018-05-16T23:11:50Z</time>
      </trkpt>
      <trkpt lat="44.53686" lon="0.72387">
        <ele>119.4</ele>
        <time>2018-05-16T23:11:52Z</time>
      </trkpt>
      <trkpt lat="44.5369" lon="0.72389">
        <ele>119.3</ele>
        <time>2018-05-16T23:11:54Z</time>
      </trkpt>
      <trkpt lat="44.53693" lon="0.72392">
        <ele>120</ele>
        <time>2018-05-16T23:11:56Z</time>
      </trkpt>
      <trkpt lat="44.53697" lon="0.72395">
        <ele>120.5</ele>
        <time>2018-05-16T23:11:58Z</time>
      </trkpt>
      <trkpt lat="44.53701" lon="0.72396">
        <ele>120.8</ele>
        <time>2018-05-16T23:12:00Z</time>
      </trkpt>
      <trkpt lat="44.53705" lon="0.72397">
        <ele>121.2</ele>
        <time>2018-05-16T23:12:02Z</time>
      </trkpt>
      <trkpt lat="44.53709" lon="0.72398">
        <ele>121.4</ele>
        <time>2018-05-16T23:12:04Z</time>
      </trkpt>
      <trkpt lat="44.53713" lon="0.724">
        <ele>121.8</ele>
        <time>2018-05-16T23:12:06Z</time>
      </trkpt>
      <trkpt lat="44.53717" lon="0.724">
        <ele>122</ele>
        <time>2018-05-16T23:12:08Z</time>
      </trkpt>
      <trkpt lat="44.53722" lon="0.724">
        <ele>122.3</ele>
        <time>2018-05-16T23:12:10Z</time>
      </trkpt>
      <trkpt lat="44.53726" lon="0.724">
        <ele>122.5</ele>
        <time>2018-05-16T23:12:12Z</time>
      </trkpt>
      <trkpt lat="44.53731" lon="0.724">
        <ele>122.8</ele>
        <time>2018-05-16T23:12:14Z</time>
      </trkpt>
      <trkpt lat="44.53735" lon="0.724">
        <ele>122.9</ele>
        <time>2018-05-16T23:12:16Z</time>
      </trkpt>
      <trkpt lat="44.5374" lon="0.72401">
        <ele>123.1</ele>
        <time>2018-05-16T23:12:18Z</time>
      </trkpt>
      <trkpt lat="44.53744" lon="0.72404">
        <ele>123.5</ele>
        <time>2018-05-16T23:12:20Z</time>
      </trkpt>
      <trkpt lat="44.53748" lon="0.72405">
        <ele>123.8</ele>
        <time>2018-05-16T23:12:22Z</time>
      </trkpt>
      <trkpt lat="44.53753" lon="0.72405">
        <ele>124</ele>
        <time>2018-05-16T23:12:24Z</time>
      </trkpt>
      <trkpt lat="44.53759" lon="0.72405">
        <ele>124.2</ele>
        <time>2018-05-16T23:12:26Z</time>
      </trkpt>
      <trkpt lat="44.53764" lon="0.72405">
        <ele>124.4</ele>
        <time>2018-05-16T23:12:28Z</time>
      </trkpt>
      <trkpt lat="44.53769" lon="0.72404">
        <ele>124.5</ele>
        <time>2018-05-16T23:12:30Z</time>
      </trkpt>
      <trkpt lat="44.53772" lon="0.72405">
        <ele>124.7</ele>
        <time>2018-05-16T23:12:32Z</time>
      </trkpt>
      <trkpt lat="44.53776" lon="0.72406">
        <ele>124.9</ele>
        <time>2018-05-16T23:12:34Z</time>
      </trkpt>
      <trkpt lat="44.53781" lon="0.72407">
        <ele>125.2</ele>
        <time>2018-05-16T23:12:36Z</time>
      </trkpt>
      <trkpt lat="44.53786" lon="0.72408">
        <ele>125.5</ele>
        <time>2018-05-16T23:12:38Z</time>
      </trkpt>
      <trkpt lat="44.5379" lon="0.72408">
        <ele>125.6</ele>
        <time>2018-05-16T23:12:40Z</time>
      </trkpt>
      <trkpt lat="44.53794" lon="0.72408">
        <ele>125.9</ele>
        <time>2018-05-16T23:12:42Z</time>
      </trkpt>
      <trkpt lat="44.53799" lon="0.72409">
        <ele>126</ele>
        <time>2018-05-16T23:12:44Z</time>
      </trkpt>
      <trkpt lat="44.53804" lon="0.7241">
        <ele>126.3</ele>
        <time>2018-05-16T23:12:46Z</time>
      </trkpt>
      <trkpt lat="44.53809" lon="0.7241">
        <ele>126.5</ele>
        <time>2018-05-16T23:12:48Z</time>
      </trkpt>
      <trkpt lat="44.53814" lon="0.7241">
        <ele>126.9</ele>
        <time>2018-05-16T23:12:50Z</time>
      </trkpt>
      <trkpt lat="44.53818" lon="0.72411">
        <ele>127.4</ele>
        <time>2018-05-16T23:12:52Z</time>
      </trkpt>
      <trkpt lat="44.53823" lon="0.72412">
        <ele>127.6</ele>
        <time>2018-05-16T23:12:54Z</time>
      </trkpt>
      <trkpt lat="44.53828" lon="0.72414">
        <ele>127.9</ele>
        <time>2018-05-16T23:12:56Z</time>
      </trkpt>
      <trkpt lat="44.53832" lon="0.72416">
        <ele>128.3</ele>
        <time>2018-05-16T23:12:58Z</time>
      </trkpt>
      <trkpt lat="44.53837" lon="0.72417">
        <ele>128.6</ele>
        <time>2018-05-16T23:13:00Z</time>
      </trkpt>
      <trkpt lat="44.53842" lon="0.72417">
        <ele>128.8</ele>
        <time>2018-05-16T23:13:02Z</time>
      </trkpt>
      <trkpt lat="44.53847" lon="0.72419">
        <ele>129.2</ele>
        <time>2018-05-16T23:13:04Z</time>
      </trkpt>
      <trkpt lat="44.53851" lon="0.72421">
        <ele>129.6</ele>
        <time>2018-05-16T23:13:06Z</time>
      </trkpt>
      <trkpt lat="44.53856" lon="0.72423">
        <ele>130</ele>
        <time>2018-05-16T23:13:08Z</time>
      </trkpt>
      <trkpt lat="44.5386" lon="0.72423">
        <ele>130.2</ele>
        <time>2018-05-16T23:13:10Z</time>
      </trkpt>
      <trkpt lat="44.53865" lon="0.72423">
        <ele>130.6</ele>
        <time>2018-05-16T23:13:12Z</time>
      </trkpt>
      <trkpt lat="44.53868" lon="0.72425">
        <ele>131.1</ele>
        <time>2018-05-16T23:13:14Z</time>
      </trkpt>
      <trkpt lat="44.53872" lon="0.72426">
        <ele>131.3</ele>
        <time>2018-05-16T23:13:16Z</time>
      </trkpt>
      <trkpt lat="44.53876" lon="0.72428">
        <ele>131.5</ele>
        <time>2018-05-16T23:13:18Z</time>
      </trkpt>
      <trkpt lat="44.53879" lon="0.72429">
        <ele>132</ele>
        <time>2018-05-16T23:13:20Z</time>
      </trkpt>
      <trkpt lat="44.53883" lon="0.72431">
        <ele>132.2</ele>
        <time>2018-05-16T23:13:22Z</time>
      </trkpt>
      <trkpt lat="44.53886" lon="0.72432">
        <ele>132.3</ele>
        <time>2018-05-16T23:13:24Z</time>
      </trkpt>
      <trkpt lat="44.53889" lon="0.72434">
        <ele>132.5</ele>
        <time>2018-05-16T23:13:26Z</time>
      </trkpt>
      <trkpt lat="44.53893" lon="0.72439">
        <ele>132.6</ele>
        <time>2018-05-16T23:13:28Z</time>
      </trkpt>
      <trkpt lat="44.53892" lon="0.72444">
        <ele>132.8</ele>
        <time>2018-05-16T23:13:30Z</time>
      </trkpt>
      <trkpt lat="44.53891" lon="0.7245">
        <ele>133</ele>
        <time>2018-05-16T23:13:32Z</time>
      </trkpt>
      <trkpt lat="44.53889" lon="0.72456">
        <ele>133.1</ele>
        <time>2018-05-16T23:13:34Z</time>
      </trkpt>
      <trkpt lat="44.53888" lon="0.72462">
        <ele>133.3</ele>
        <time>2018-05-16T23:13:36Z</time>
      </trkpt>
      <trkpt lat="44.53886" lon="0.72467">
        <ele>133.4</ele>
        <time>2018-05-16T23:13:38Z</time>
      </trkpt>
      <trkpt lat="44.53885" lon="0.72472">
        <ele>133.5</ele>
        <time>2018-05-16T23:13:40Z</time>
      </trkpt>
      <trkpt lat="44.53883" lon="0.72478">
        <ele>133.6</ele>
        <time>2018-05-16T23:13:42Z</time>
      </trkpt>
      <trkpt lat="44.53883" lon="0.72484">
        <ele>133.7</ele>
        <time>2018-05-16T23:13:44Z</time>
      </trkpt>
      <trkpt lat="44.53882" lon="0.7249">
        <ele>133.8</ele>
        <time>2018-05-16T23:13:46Z</time>
      </trkpt>
      <trkpt lat="44.5388" lon="0.72494">
        <ele>133.8</ele>
        <time>2018-05-16T23:13:48Z</time>
      </trkpt>
      <trkpt lat="44.53876" lon="0.725">
        <ele>133.8</ele>
        <time>2018-05-16T23:13:50Z</time>
      </trkpt>
      <trkpt lat="44.53876" lon="0.72507">
        <ele>134</ele>
        <time>2018-05-16T23:13:52Z</time>
      </trkpt>
      <trkpt lat="44.53876" lon="0.72511">
        <ele>134.1</ele>
        <time>2018-05-16T23:13:53Z</time>
      </trkpt>
      <trkpt lat="44.53876" lon="0.72515">
        <ele>134.2</ele>
        <time>2018-05-16T23:13:54Z</time>
      </trkpt>
      <trkpt lat="44.53875" lon="0.72519">
        <ele>134.3</ele>
        <time>2018-05-16T23:13:55Z</time>
      </trkpt>
      <trkpt lat="44.53873" lon="0.72525">
        <ele>134.4</ele>
        <time>2018-05-16T23:13:57Z</time>
      </trkpt>
      <trkpt lat="44.53871" lon="0.72532">
        <ele>134.5</ele>
        <time>2018-05-16T23:13:59Z</time>
      </trkpt>
      <trkpt lat="44.53869" lon="0.72539">
        <ele>134.5</ele>
        <time>2018-05-16T23:14:01Z</time>
      </trkpt>
      <trkpt lat="44.53867" lon="0.72546">
        <ele>134.6</ele>
        <time>2018-05-16T23:14:03Z</time>
      </trkpt>
      <trkpt lat="44.53866" lon="0.7255">
        <ele>134.8</ele>
        <time>2018-05-16T23:14:04Z</time>
      </trkpt>
      <trkpt lat="44.53865" lon="0.72554">
        <ele>134.9</ele>
        <time>2018-05-16T23:14:05Z</time>
      </trkpt>
      <trkpt lat="44.53864" lon="0.72558">
        <ele>135</ele>
        <time>2018-05-16T23:14:06Z</time>
      </trkpt>
      <trkpt lat="44.53863" lon="0.72564">
        <ele>135.2</ele>
        <time>2018-05-16T23:14:08Z</time>
      </trkpt>
      <trkpt lat="44.53861" lon="0.7257">
        <ele>135.4</ele>
        <time>2018-05-16T23:14:10Z</time>
      </trkpt>
      <trkpt lat="44.53859" lon="0.72576">
        <ele>135.7</ele>
        <time>2018-05-16T23:14:12Z</time>
      </trkpt>
      <trkpt lat="44.53858" lon="0.72582">
        <ele>135.9</ele>
        <time>2018-05-16T23:14:14Z</time>
      </trkpt>
      <trkpt lat="44.53857" lon="0.72588">
        <ele>136.1</ele>
        <time>2018-05-16T23:14:16Z</time>
      </trkpt>
      <trkpt lat="44.53856" lon="0.72594">
        <ele>136.2</ele>
        <time>2018-05-16T23:14:18Z</time>
      </trkpt>
      <trkpt lat="44.53854" lon="0.726">
        <ele>136.4</ele>
        <time>2018-05-16T23:14:20Z</time>
      </trkpt>
      <trkpt lat="44.53853" lon="0.72605">
        <ele>136.4</ele>
        <time>2018-05-16T23:14:22Z</time>
      </trkpt>
      <trkpt lat="44.5385" lon="0.72609">
        <ele>136.5</ele>
        <time>2018-05-16T23:14:24Z</time>
      </trkpt>
      <trkpt lat="44.53849" lon="0.72613">
        <ele>136.5</ele>
        <time>2018-05-16T23:14:26Z</time>
      </trkpt>
      <trkpt lat="44.53849" lon="0.72617">
        <ele>136.5</ele>
        <time>2018-05-16T23:14:28Z</time>
      </trkpt>
      <trkpt lat="44.53848" lon="0.72622">
        <ele>136.5</ele>
        <time>2018-05-16T23:14:30Z</time>
      </trkpt>
      <trkpt lat="44.53847" lon="0.72625">
        <ele>136.5</ele>
        <time>2018-05-16T23:14:32Z</time>
      </trkpt>
      <trkpt lat="44.53847" lon="0.7263">
        <ele>136.5</ele>
        <time>2018-05-16T23:14:34Z</time>
      </trkpt>
      <trkpt lat="44.53848" lon="0.72634">
        <ele>136.6</ele>
        <time>2018-05-16T23:14:35Z</time>
      </trkpt>
      <trkpt lat="44.5385" lon="0.72637">
        <ele>136.6</ele>
        <time>2018-05-16T23:14:36Z</time>
      </trkpt>
      <trkpt lat="44.53854" lon="0.72642">
        <ele>136.9</ele>
        <time>2018-05-16T23:14:38Z</time>
      </trkpt>
      <trkpt lat="44.53857" lon="0.72647">
        <ele>137.1</ele>
        <time>2018-05-16T23:14:40Z</time>
      </trkpt>
      <trkpt lat="44.53862" lon="0.72651">
        <ele>137.2</ele>
        <time>2018-05-16T23:14:42Z</time>
      </trkpt>
      <trkpt lat="44.53866" lon="0.72654">
        <ele>137.2</ele>
        <time>2018-05-16T23:14:44Z</time>
      </trkpt>
      <trkpt lat="44.53869" lon="0.72657">
        <ele>137.2</ele>
        <time>2018-05-16T23:14:46Z</time>
      </trkpt>
      <trkpt lat="44.53873" lon="0.72659">
        <ele>137.6</ele>
        <time>2018-05-16T23:14:48Z</time>
      </trkpt>
      <trkpt lat="44.53876" lon="0.72661">
        <ele>138.3</ele>
        <time>2018-05-16T23:14:50Z</time>
      </trkpt>
      <trkpt lat="44.53878" lon="0.72663">
        <ele>138.7</ele>
        <time>2018-05-16T23:14:52Z</time>
      </trkpt>
      <trkpt lat="44.53882" lon="0.72666">
        <ele>139.4</ele>
        <time>2018-05-16T23:14:54Z</time>
      </trkpt>
      <trkpt lat="44.53884" lon="0.72668">
        <ele>139.8</ele>
        <time>2018-05-16T23:14:55Z</time>
      </trkpt>
      <trkpt lat="44.53888" lon="0.72669">
        <ele>140.5</ele>
        <time>2018-05-16T23:14:58Z</time>
      </trkpt>
      <trkpt lat="44.53892" lon="0.72672">
        <ele>141.4</ele>
        <time>2018-05-16T23:15:00Z</time>
      </trkpt>
      <trkpt lat="44.53895" lon="0.72674">
        <ele>141.9</ele>
        <time>2018-05-16T23:15:02Z</time>
      </trkpt>
      <trkpt lat="44.539" lon="0.72676">
        <ele>142.3</ele>
        <time>2018-05-16T23:15:04Z</time>
      </trkpt>
      <trkpt lat="44.53903" lon="0.72679">
        <ele>142.8</ele>
        <time>2018-05-16T23:15:06Z</time>
      </trkpt>
      <trkpt lat="44.53907" lon="0.72681">
        <ele>143.1</ele>
        <time>2018-05-16T23:15:09Z</time>
      </trkpt>
      <trkpt lat="44.5391" lon="0.72683">
        <ele>143.5</ele>
        <time>2018-05-16T23:15:11Z</time>
      </trkpt>
      <trkpt lat="44.53913" lon="0.72684">
        <ele>143.8</ele>
        <time>2018-05-16T23:15:13Z</time>
      </trkpt>
      <trkpt lat="44.53915" lon="0.72686">
        <ele>144</ele>
        <time>2018-05-16T23:15:15Z</time>
      </trkpt>
      <trkpt lat="44.53923" lon="0.72691">
        <ele>144.8</ele>
        <time>2018-05-16T23:15:22Z</time>
      </trkpt>
      <trkpt lat="44.53926" lon="0.72692">
        <ele>144.9</ele>
        <time>2018-05-16T23:15:23Z</time>
      </trkpt>
      <trkpt lat="44.5393" lon="0.72692">
        <ele>144.9</ele>
        <time>2018-05-16T23:15:25Z</time>
      </trkpt>
      <trkpt lat="44.53933" lon="0.72693">
        <ele>144.9</ele>
        <time>2018-05-16T23:15:27Z</time>
      </trkpt>
      <trkpt lat="44.53936" lon="0.72695">
        <ele>145.1</ele>
        <time>2018-05-16T23:15:29Z</time>
      </trkpt>
      <trkpt lat="44.53939" lon="0.72697">
        <ele>145.1</ele>
        <time>2018-05-16T23:15:31Z</time>
      </trkpt>
      <trkpt lat="44.53942" lon="0.727">
        <ele>145.2</ele>
        <time>2018-05-16T23:15:33Z</time>
      </trkpt>
      <trkpt lat="44.53945" lon="0.72703">
        <ele>145.2</ele>
        <time>2018-05-16T23:15:35Z</time>
      </trkpt>
      <trkpt lat="44.53948" lon="0.72705">
        <ele>145.2</ele>
        <time>2018-05-16T23:15:37Z</time>
      </trkpt>
      <trkpt lat="44.53952" lon="0.72709">
        <ele>145.3</ele>
        <time>2018-05-16T23:15:38Z</time>
      </trkpt>
      <trkpt lat="44.53957" lon="0.7271">
        <ele>145.2</ele>
        <time>2018-05-16T23:15:40Z</time>
      </trkpt>
      <trkpt lat="44.53962" lon="0.72714">
        <ele>145.2</ele>
        <time>2018-05-16T23:15:42Z</time>
      </trkpt>
      <trkpt lat="44.53965" lon="0.72716">
        <ele>145.3</ele>
        <time>2018-05-16T23:15:45Z</time>
      </trkpt>
      <trkpt lat="44.53969" lon="0.72718">
        <ele>145.2</ele>
        <time>2018-05-16T23:15:47Z</time>
      </trkpt>
      <trkpt lat="44.53972" lon="0.72721">
        <ele>145.3</ele>
        <time>2018-05-16T23:15:48Z</time>
      </trkpt>
      <trkpt lat="44.53975" lon="0.72722">
        <ele>145.3</ele>
        <time>2018-05-16T23:15:49Z</time>
      </trkpt>
      <trkpt lat="44.53978" lon="0.72726">
        <ele>145.3</ele>
        <time>2018-05-16T23:15:51Z</time>
      </trkpt>
      <trkpt lat="44.53983" lon="0.72728">
        <ele>145.2</ele>
        <time>2018-05-16T23:15:53Z</time>
      </trkpt>
      <trkpt lat="44.53987" lon="0.7273">
        <ele>145.2</ele>
        <time>2018-05-16T23:15:55Z</time>
      </trkpt>
      <trkpt lat="44.53989" lon="0.72731">
        <ele>145.1</ele>
        <time>2018-05-16T23:15:57Z</time>
      </trkpt>
      <trkpt lat="44.53992" lon="0.72733">
        <ele>144.9</ele>
        <time>2018-05-16T23:15:59Z</time>
      </trkpt>
      <trkpt lat="44.53995" lon="0.72733">
        <ele>144.8</ele>
        <time>2018-05-16T23:16:01Z</time>
      </trkpt>
      <trkpt lat="44.53999" lon="0.72736">
        <ele>144.6</ele>
        <time>2018-05-16T23:16:03Z</time>
      </trkpt>
      <trkpt lat="44.54003" lon="0.72739">
        <ele>144.3</ele>
        <time>2018-05-16T23:16:05Z</time>
      </trkpt>
      <trkpt lat="44.54006" lon="0.72742">
        <ele>144.2</ele>
        <time>2018-05-16T23:16:07Z</time>
      </trkpt>
      <trkpt lat="44.5401" lon="0.72745">
        <ele>144.1</ele>
        <time>2018-05-16T23:16:09Z</time>
      </trkpt>
      <trkpt lat="44.54013" lon="0.72747">
        <ele>144</ele>
        <time>2018-05-16T23:16:10Z</time>
      </trkpt>
      <trkpt lat="44.54016" lon="0.7275">
        <ele>143.9</ele>
        <time>2018-05-16T23:16:11Z</time>
      </trkpt>
      <trkpt lat="44.54019" lon="0.72753">
        <ele>143.8</ele>
        <time>2018-05-16T23:16:13Z</time>
      </trkpt>
      <trkpt lat="44.54021" lon="0.72757">
        <ele>143.9</ele>
        <time>2018-05-16T23:16:15Z</time>
      </trkpt>
      <trkpt lat="44.54023" lon="0.72761">
        <ele>144</ele>
        <time>2018-05-16T23:16:17Z</time>
      </trkpt>
      <trkpt lat="44.54026" lon="0.72766">
        <ele>144</ele>
        <time>2018-05-16T23:16:19Z</time>
      </trkpt>
      <trkpt lat="44.5403" lon="0.72769">
        <ele>143.8</ele>
        <time>2018-05-16T23:16:20Z</time>
      </trkpt>
      <trkpt lat="44.54032" lon="0.72772">
        <ele>143.8</ele>
        <time>2018-05-16T23:16:21Z</time>
      </trkpt>
      <trkpt lat="44.54036" lon="0.72776">
        <ele>143.7</ele>
        <time>2018-05-16T23:16:23Z</time>
      </trkpt>
      <trkpt lat="44.54039" lon="0.72781">
        <ele>143.6</ele>
        <time>2018-05-16T23:16:25Z</time>
      </trkpt>
      <trkpt lat="44.54042" lon="0.72786">
        <ele>143.5</ele>
        <time>2018-05-16T23:16:27Z</time>
      </trkpt>
      <trkpt lat="44.54045" lon="0.72789">
        <ele>143.5</ele>
        <time>2018-05-16T23:16:29Z</time>
      </trkpt>
      <trkpt lat="44.54047" lon="0.72794">
        <ele>143.6</ele>
        <time>2018-05-16T23:16:31Z</time>
      </trkpt>
      <trkpt lat="44.54049" lon="0.728">
        <ele>143.5</ele>
        <time>2018-05-16T23:16:33Z</time>
      </trkpt>
      <trkpt lat="44.54052" lon="0.72806">
        <ele>143.5</ele>
        <time>2018-05-16T23:16:35Z</time>
      </trkpt>
      <trkpt lat="44.54053" lon="0.72809">
        <ele>143.6</ele>
        <time>2018-05-16T23:16:36Z</time>
      </trkpt>
      <trkpt lat="44.54057" lon="0.72815">
        <ele>143.7</ele>
        <time>2018-05-16T23:16:38Z</time>
      </trkpt>
      <trkpt lat="44.54059" lon="0.7282">
        <ele>143.6</ele>
        <time>2018-05-16T23:16:39Z</time>
      </trkpt>
      <trkpt lat="44.5406" lon="0.72825">
        <ele>143.7</ele>
        <time>2018-05-16T23:16:40Z</time>
      </trkpt>
      <trkpt lat="44.54061" lon="0.72828">
        <ele>143.6</ele>
        <time>2018-05-16T23:16:41Z</time>
      </trkpt>
      <trkpt lat="44.54064" lon="0.72833">
        <ele>143.6</ele>
        <time>2018-05-16T23:16:43Z</time>
      </trkpt>
      <trkpt lat="44.54064" lon="0.72838">
        <ele>143.6</ele>
        <time>2018-05-16T23:16:45Z</time>
      </trkpt>
      <trkpt lat="44.54063" lon="0.72842">
        <ele>143.8</ele>
        <time>2018-05-16T23:16:47Z</time>
      </trkpt>
      <trkpt lat="44.54062" lon="0.72849">
        <ele>143.8</ele>
        <time>2018-05-16T23:16:49Z</time>
      </trkpt>
      <trkpt lat="44.5406" lon="0.72853">
        <ele>143.8</ele>
        <time>2018-05-16T23:16:51Z</time>
      </trkpt>
      <trkpt lat="44.54057" lon="0.72855">
        <ele>143.9</ele>
        <time>2018-05-16T23:16:53Z</time>
      </trkpt>
      <trkpt lat="44.54056" lon="0.72861">
        <ele>144</ele>
        <time>2018-05-16T23:16:56Z</time>
      </trkpt>
      <trkpt lat="44.54053" lon="0.72864">
        <ele>144.1</ele>
        <time>2018-05-16T23:16:58Z</time>
      </trkpt>
      <trkpt lat="44.54048" lon="0.72868">
        <ele>144.2</ele>
        <time>2018-05-16T23:17:00Z</time>
      </trkpt>
      <trkpt lat="44.54044" lon="0.72872">
        <ele>144.5</ele>
        <time>2018-05-16T23:17:02Z</time>
      </trkpt>
      <trkpt lat="44.54041" lon="0.72874">
        <ele>144.6</ele>
        <time>2018-05-16T23:17:03Z</time>
      </trkpt>
      <trkpt lat="44.54037" lon="0.72878">
        <ele>144.7</ele>
        <time>2018-05-16T23:17:05Z</time>
      </trkpt>
      <trkpt lat="44.54033" lon="0.72881">
        <ele>144.8</ele>
        <time>2018-05-16T23:17:06Z</time>
      </trkpt>
      <trkpt lat="44.5403" lon="0.72884">
        <ele>144.9</ele>
        <time>2018-05-16T23:17:07Z</time>
      </trkpt>
      <trkpt lat="44.54027" lon="0.72886">
        <ele>145</ele>
        <time>2018-05-16T23:17:08Z</time>
      </trkpt>
      <trkpt lat="44.54024" lon="0.72888">
        <ele>145</ele>
        <time>2018-05-16T23:17:09Z</time>
      </trkpt>
      <trkpt lat="44.54019" lon="0.72891">
        <ele>145.3</ele>
        <time>2018-05-16T23:17:11Z</time>
      </trkpt>
      <trkpt lat="44.54015" lon="0.72894">
        <ele>145.3</ele>
        <time>2018-05-16T23:17:13Z</time>
      </trkpt>
      <trkpt lat="44.54011" lon="0.72896">
        <ele>145.4</ele>
        <time>2018-05-16T23:17:14Z</time>
      </trkpt>
      <trkpt lat="44.54008" lon="0.72898">
        <ele>145.4</ele>
        <time>2018-05-16T23:17:15Z</time>
      </trkpt>
      <trkpt lat="44.54004" lon="0.72898">
        <ele>145.6</ele>
        <time>2018-05-16T23:17:17Z</time>
      </trkpt>
      <trkpt lat="44.53999" lon="0.72899">
        <ele>145.7</ele>
        <time>2018-05-16T23:17:19Z</time>
      </trkpt>
      <trkpt lat="44.53994" lon="0.72902">
        <ele>145.7</ele>
        <time>2018-05-16T23:17:21Z</time>
      </trkpt>
      <trkpt lat="44.53992" lon="0.72903">
        <ele>145.8</ele>
        <time>2018-05-16T23:17:22Z</time>
      </trkpt>
      <trkpt lat="44.53987" lon="0.72905">
        <ele>145.8</ele>
        <time>2018-05-16T23:17:24Z</time>
      </trkpt>
      <trkpt lat="44.53984" lon="0.72907">
        <ele>145.8</ele>
        <time>2018-05-16T23:17:25Z</time>
      </trkpt>
      <trkpt lat="44.53981" lon="0.72908">
        <ele>145.8</ele>
        <time>2018-05-16T23:17:26Z</time>
      </trkpt>
      <trkpt lat="44.53977" lon="0.7291">
        <ele>145.8</ele>
        <time>2018-05-16T23:17:27Z</time>
      </trkpt>
      <trkpt lat="44.53974" lon="0.72912">
        <ele>145.8</ele>
        <time>2018-05-16T23:17:28Z</time>
      </trkpt>
      <trkpt lat="44.53971" lon="0.72914">
        <ele>145.8</ele>
        <time>2018-05-16T23:17:29Z</time>
      </trkpt>
      <trkpt lat="44.53969" lon="0.72917">
        <ele>145.7</ele>
        <time>2018-05-16T23:17:30Z</time>
      </trkpt>
      <trkpt lat="44.53964" lon="0.72919">
        <ele>145.6</ele>
        <time>2018-05-16T23:17:31Z</time>
      </trkpt>
      <trkpt lat="44.5396" lon="0.72921">
        <ele>145.6</ele>
        <time>2018-05-16T23:17:32Z</time>
      </trkpt>
      <trkpt lat="44.53956" lon="0.72921">
        <ele>145.5</ele>
        <time>2018-05-16T23:17:33Z</time>
      </trkpt>
      <trkpt lat="44.53953" lon="0.72923">
        <ele>145.4</ele>
        <time>2018-05-16T23:17:34Z</time>
      </trkpt>
      <trkpt lat="44.5395" lon="0.72924">
        <ele>145.4</ele>
        <time>2018-05-16T23:17:35Z</time>
      </trkpt>
      <trkpt lat="44.53947" lon="0.72926">
        <ele>145.3</ele>
        <time>2018-05-16T23:17:36Z</time>
      </trkpt>
      <trkpt lat="44.53942" lon="0.72929">
        <ele>145.2</ele>
        <time>2018-05-16T23:17:38Z</time>
      </trkpt>
      <trkpt lat="44.53937" lon="0.72935">
        <ele>144.9</ele>
        <time>2018-05-16T23:17:40Z</time>
      </trkpt>
      <trkpt lat="44.53935" lon="0.72938">
        <ele>144.8</ele>
        <time>2018-05-16T23:17:41Z</time>
      </trkpt>
      <trkpt lat="44.53931" lon="0.72942">
        <ele>144.7</ele>
        <time>2018-05-16T23:17:42Z</time>
      </trkpt>
      <trkpt lat="44.53927" lon="0.72946">
        <ele>144.6</ele>
        <time>2018-05-16T23:17:43Z</time>
      </trkpt>
      <trkpt lat="44.53923" lon="0.7295">
        <ele>144.6</ele>
        <time>2018-05-16T23:17:44Z</time>
      </trkpt>
      <trkpt lat="44.53919" lon="0.72953">
        <ele>144.6</ele>
        <time>2018-05-16T23:17:45Z</time>
      </trkpt>
      <trkpt lat="44.53916" lon="0.72957">
        <ele>144.5</ele>
        <time>2018-05-16T23:17:46Z</time>
      </trkpt>
      <trkpt lat="44.53913" lon="0.72961">
        <ele>144.5</ele>
        <time>2018-05-16T23:17:47Z</time>
      </trkpt>
      <trkpt lat="44.53909" lon="0.72964">
        <ele>144.5</ele>
        <time>2018-05-16T23:17:48Z</time>
      </trkpt>
      <trkpt lat="44.53905" lon="0.72967">
        <ele>144.5</ele>
        <time>2018-05-16T23:17:49Z</time>
      </trkpt>
      <trkpt lat="44.53902" lon="0.7297">
        <ele>144.4</ele>
        <time>2018-05-16T23:17:50Z</time>
      </trkpt>
      <trkpt lat="44.53898" lon="0.72975">
        <ele>144.4</ele>
        <time>2018-05-16T23:17:51Z</time>
      </trkpt>
      <trkpt lat="44.53894" lon="0.7298">
        <ele>144.4</ele>
        <time>2018-05-16T23:17:52Z</time>
      </trkpt>
      <trkpt lat="44.53889" lon="0.72985">
        <ele>144.3</ele>
        <time>2018-05-16T23:17:53Z</time>
      </trkpt>
      <trkpt lat="44.53883" lon="0.72989">
        <ele>144.2</ele>
        <time>2018-05-16T23:17:54Z</time>
      </trkpt>
      <trkpt lat="44.53879" lon="0.72994">
        <ele>144.1</ele>
        <time>2018-05-16T23:17:55Z</time>
      </trkpt>
      <trkpt lat="44.53876" lon="0.73">
        <ele>144.1</ele>
        <time>2018-05-16T23:17:56Z</time>
      </trkpt>
      <trkpt lat="44.53871" lon="0.73005">
        <ele>144</ele>
        <time>2018-05-16T23:17:57Z</time>
      </trkpt>
      <trkpt lat="44.53868" lon="0.73009">
        <ele>144</ele>
        <time>2018-05-16T23:17:58Z</time>
      </trkpt>
      <trkpt lat="44.53865" lon="0.73013">
        <ele>143.9</ele>
        <time>2018-05-16T23:17:59Z</time>
      </trkpt>
      <trkpt lat="44.53861" lon="0.73019">
        <ele>143.8</ele>
        <time>2018-05-16T23:18:00Z</time>
      </trkpt>
      <trkpt lat="44.53858" lon="0.73025">
        <ele>143.7</ele>
        <time>2018-05-16T23:18:01Z</time>
      </trkpt>
      <trkpt lat="44.53857" lon="0.73029">
        <ele>143.6</ele>
        <time>2018-05-16T23:18:02Z</time>
      </trkpt>
      <trkpt lat="44.53855" lon="0.73034">
        <ele>143.4</ele>
        <time>2018-05-16T23:18:04Z</time>
      </trkpt>
      <trkpt lat="44.53853" lon="0.73037">
        <ele>143.4</ele>
        <time>2018-05-16T23:18:05Z</time>
      </trkpt>
      <trkpt lat="44.53852" lon="0.73041">
        <ele>143.4</ele>
        <time>2018-05-16T23:18:06Z</time>
      </trkpt>
      <trkpt lat="44.53852" lon="0.73049">
        <ele>143.4</ele>
        <time>2018-05-16T23:18:08Z</time>
      </trkpt>
      <trkpt lat="44.53853" lon="0.73055">
        <ele>143.3</ele>
        <time>2018-05-16T23:18:09Z</time>
      </trkpt>
      <trkpt lat="44.53854" lon="0.73061">
        <ele>143.3</ele>
        <time>2018-05-16T23:18:10Z</time>
      </trkpt>
      <trkpt lat="44.53854" lon="0.73068">
        <ele>143.2</ele>
        <time>2018-05-16T23:18:11Z</time>
      </trkpt>
      <trkpt lat="44.53854" lon="0.73074">
        <ele>143.1</ele>
        <time>2018-05-16T23:18:12Z</time>
      </trkpt>
      <trkpt lat="44.53853" lon="0.73081">
        <ele>142.8</ele>
        <time>2018-05-16T23:18:13Z</time>
      </trkpt>
      <trkpt lat="44.53852" lon="0.73087">
        <ele>142.7</ele>
        <time>2018-05-16T23:18:14Z</time>
      </trkpt>
      <trkpt lat="44.5385" lon="0.73092">
        <ele>142.5</ele>
        <time>2018-05-16T23:18:15Z</time>
      </trkpt>
      <trkpt lat="44.53849" lon="0.73098">
        <ele>142.3</ele>
        <time>2018-05-16T23:18:16Z</time>
      </trkpt>
      <trkpt lat="44.53846" lon="0.73101">
        <ele>142.1</ele>
        <time>2018-05-16T23:18:17Z</time>
      </trkpt>
      <trkpt lat="44.53845" lon="0.73105">
        <ele>141.9</ele>
        <time>2018-05-16T23:18:18Z</time>
      </trkpt>
      <trkpt lat="44.53843" lon="0.73108">
        <ele>141.6</ele>
        <time>2018-05-16T23:18:19Z</time>
      </trkpt>
      <trkpt lat="44.53841" lon="0.73112">
        <ele>141.3</ele>
        <time>2018-05-16T23:18:20Z</time>
      </trkpt>
      <trkpt lat="44.53839" lon="0.73116">
        <ele>141</ele>
        <time>2018-05-16T23:18:21Z</time>
      </trkpt>
      <trkpt lat="44.53837" lon="0.7312">
        <ele>140.8</ele>
        <time>2018-05-16T23:18:22Z</time>
      </trkpt>
      <trkpt lat="44.53835" lon="0.73124">
        <ele>140.5</ele>
        <time>2018-05-16T23:18:23Z</time>
      </trkpt>
      <trkpt lat="44.53833" lon="0.73128">
        <ele>140.3</ele>
        <time>2018-05-16T23:18:24Z</time>
      </trkpt>
      <trkpt lat="44.5383" lon="0.73133">
        <ele>140.1</ele>
        <time>2018-05-16T23:18:25Z</time>
      </trkpt>
      <trkpt lat="44.53827" lon="0.73137">
        <ele>139.9</ele>
        <time>2018-05-16T23:18:26Z</time>
      </trkpt>
      <trkpt lat="44.53824" lon="0.73141">
        <ele>139.9</ele>
        <time>2018-05-16T23:18:27Z</time>
      </trkpt>
      <trkpt lat="44.53823" lon="0.73145">
        <ele>139.5</ele>
        <time>2018-05-16T23:18:28Z</time>
      </trkpt>
      <trkpt lat="44.53822" lon="0.7315">
        <ele>139.3</ele>
        <time>2018-05-16T23:18:29Z</time>
      </trkpt>
      <trkpt lat="44.5382" lon="0.73155">
        <ele>139.2</ele>
        <time>2018-05-16T23:18:30Z</time>
      </trkpt>
      <trkpt lat="44.53819" lon="0.73159">
        <ele>139</ele>
        <time>2018-05-16T23:18:31Z</time>
      </trkpt>
      <trkpt lat="44.53817" lon="0.73167">
        <ele>138.8</ele>
        <time>2018-05-16T23:18:33Z</time>
      </trkpt>
      <trkpt lat="44.53816" lon="0.73174">
        <ele>138.7</ele>
        <time>2018-05-16T23:18:35Z</time>
      </trkpt>
      <trkpt lat="44.53815" lon="0.73178">
        <ele>138.6</ele>
        <time>2018-05-16T23:18:36Z</time>
      </trkpt>
      <trkpt lat="44.53812" lon="0.73181">
        <ele>138.5</ele>
        <time>2018-05-16T23:18:37Z</time>
      </trkpt>
      <trkpt lat="44.5381" lon="0.73185">
        <ele>138.4</ele>
        <time>2018-05-16T23:18:38Z</time>
      </trkpt>
      <trkpt lat="44.53808" lon="0.73188">
        <ele>138.4</ele>
        <time>2018-05-16T23:18:39Z</time>
      </trkpt>
      <trkpt lat="44.53807" lon="0.73192">
        <ele>138.3</ele>
        <time>2018-05-16T23:18:40Z</time>
      </trkpt>
      <trkpt lat="44.53805" lon="0.73195">
        <ele>138.1</ele>
        <time>2018-05-16T23:18:41Z</time>
      </trkpt>
      <trkpt lat="44.53802" lon="0.732">
        <ele>138</ele>
        <time>2018-05-16T23:18:42Z</time>
      </trkpt>
      <trkpt lat="44.538" lon="0.73204">
        <ele>137.8</ele>
        <time>2018-05-16T23:18:43Z</time>
      </trkpt>
      <trkpt lat="44.53797" lon="0.73207">
        <ele>137.7</ele>
        <time>2018-05-16T23:18:44Z</time>
      </trkpt>
      <trkpt lat="44.53794" lon="0.73212">
        <ele>137.6</ele>
        <time>2018-05-16T23:18:45Z</time>
      </trkpt>
      <trkpt lat="44.53793" lon="0.73218">
        <ele>137.4</ele>
        <time>2018-05-16T23:18:46Z</time>
      </trkpt>
      <trkpt lat="44.53792" lon="0.73225">
        <ele>137.1</ele>
        <time>2018-05-16T23:18:47Z</time>
      </trkpt>
      <trkpt lat="44.53792" lon="0.73231">
        <ele>136.8</ele>
        <time>2018-05-16T23:18:48Z</time>
      </trkpt>
      <trkpt lat="44.53792" lon="0.73237">
        <ele>136.5</ele>
        <time>2018-05-16T23:18:49Z</time>
      </trkpt>
      <trkpt lat="44.53793" lon="0.73244">
        <ele>136</ele>
        <time>2018-05-16T23:18:50Z</time>
      </trkpt>
      <trkpt lat="44.53795" lon="0.73251">
        <ele>135.7</ele>
        <time>2018-05-16T23:18:51Z</time>
      </trkpt>
      <trkpt lat="44.53796" lon="0.73259">
        <ele>135.1</ele>
        <time>2018-05-16T23:18:52Z</time>
      </trkpt>
      <trkpt lat="44.53798" lon="0.73267">
        <ele>134.4</ele>
        <time>2018-05-16T23:18:53Z</time>
      </trkpt>
      <trkpt lat="44.53799" lon="0.73275">
        <ele>133.9</ele>
        <time>2018-05-16T23:18:54Z</time>
      </trkpt>
      <trkpt lat="44.53801" lon="0.73284">
        <ele>133.1</ele>
        <time>2018-05-16T23:18:55Z</time>
      </trkpt>
      <trkpt lat="44.53803" lon="0.73293">
        <ele>132.5</ele>
        <time>2018-05-16T23:18:56Z</time>
      </trkpt>
      <trkpt lat="44.53804" lon="0.73301">
        <ele>131.7</ele>
        <time>2018-05-16T23:18:57Z</time>
      </trkpt>
      <trkpt lat="44.53805" lon="0.7331">
        <ele>131.2</ele>
        <time>2018-05-16T23:18:58Z</time>
      </trkpt>
      <trkpt lat="44.53806" lon="0.7332">
        <ele>130.6</ele>
        <time>2018-05-16T23:18:59Z</time>
      </trkpt>
      <trkpt lat="44.53807" lon="0.7333">
        <ele>129.4</ele>
        <time>2018-05-16T23:19:00Z</time>
      </trkpt>
      <trkpt lat="44.53808" lon="0.7334">
        <ele>128.7</ele>
        <time>2018-05-16T23:19:01Z</time>
      </trkpt>
      <trkpt lat="44.5381" lon="0.73349">
        <ele>127.9</ele>
        <time>2018-05-16T23:19:02Z</time>
      </trkpt>
      <trkpt lat="44.53811" lon="0.73358">
        <ele>127.4</ele>
        <time>2018-05-16T23:19:03Z</time>
      </trkpt>
      <trkpt lat="44.53812" lon="0.73368">
        <ele>126.9</ele>
        <time>2018-05-16T23:19:04Z</time>
      </trkpt>
      <trkpt lat="44.53812" lon="0.73377">
        <ele>126.1</ele>
        <time>2018-05-16T23:19:05Z</time>
      </trkpt>
      <trkpt lat="44.53812" lon="0.73387">
        <ele>125.6</ele>
        <time>2018-05-16T23:19:06Z</time>
      </trkpt>
      <trkpt lat="44.53812" lon="0.73397">
        <ele>124.8</ele>
        <time>2018-05-16T23:19:07Z</time>
      </trkpt>
      <trkpt lat="44.53813" lon="0.73406">
        <ele>124.3</ele>
        <time>2018-05-16T23:19:08Z</time>
      </trkpt>
      <trkpt lat="44.53813" lon="0.73415">
        <ele>123.7</ele>
        <time>2018-05-16T23:19:09Z</time>
      </trkpt>
      <trkpt lat="44.53813" lon="0.73424">
        <ele>122.9</ele>
        <time>2018-05-16T23:19:10Z</time>
      </trkpt>
      <trkpt lat="44.53813" lon="0.73433">
        <ele>122.4</ele>
        <time>2018-05-16T23:19:11Z</time>
      </trkpt>
      <trkpt lat="44.53812" lon="0.73442">
        <ele>122.2</ele>
        <time>2018-05-16T23:19:12Z</time>
      </trkpt>
      <trkpt lat="44.53811" lon="0.73452">
        <ele>121.9</ele>
        <time>2018-05-16T23:19:13Z</time>
      </trkpt>
      <trkpt lat="44.5381" lon="0.7346">
        <ele>121.6</ele>
        <time>2018-05-16T23:19:14Z</time>
      </trkpt>
      <trkpt lat="44.53809" lon="0.73469">
        <ele>121.4</ele>
        <time>2018-05-16T23:19:15Z</time>
      </trkpt>
      <trkpt lat="44.53808" lon="0.73478">
        <ele>121.4</ele>
        <time>2018-05-16T23:19:16Z</time>
      </trkpt>
      <trkpt lat="44.53807" lon="0.73487">
        <ele>121.1</ele>
        <time>2018-05-16T23:19:17Z</time>
      </trkpt>
      <trkpt lat="44.53805" lon="0.73497">
        <ele>120.8</ele>
        <time>2018-05-16T23:19:18Z</time>
      </trkpt>
      <trkpt lat="44.53803" lon="0.73506">
        <ele>120.4</ele>
        <time>2018-05-16T23:19:19Z</time>
      </trkpt>
      <trkpt lat="44.53802" lon="0.73516">
        <ele>120.2</ele>
        <time>2018-05-16T23:19:20Z</time>
      </trkpt>
      <trkpt lat="44.538" lon="0.73525">
        <ele>120.2</ele>
        <time>2018-05-16T23:19:21Z</time>
      </trkpt>
      <trkpt lat="44.53798" lon="0.73534">
        <ele>119.8</ele>
        <time>2018-05-16T23:19:22Z</time>
      </trkpt>
      <trkpt lat="44.53796" lon="0.73543">
        <ele>119.8</ele>
        <time>2018-05-16T23:19:23Z</time>
      </trkpt>
      <trkpt lat="44.53794" lon="0.73551">
        <ele>119.4</ele>
        <time>2018-05-16T23:19:24Z</time>
      </trkpt>
      <trkpt lat="44.53792" lon="0.7356">
        <ele>119.3</ele>
        <time>2018-05-16T23:19:25Z</time>
      </trkpt>
      <trkpt lat="44.5379" lon="0.73568">
        <ele>119.2</ele>
        <time>2018-05-16T23:19:26Z</time>
      </trkpt>
      <trkpt lat="44.53787" lon="0.73575">
        <ele>119.1</ele>
        <time>2018-05-16T23:19:27Z</time>
      </trkpt>
      <trkpt lat="44.53785" lon="0.73583">
        <ele>118.9</ele>
        <time>2018-05-16T23:19:28Z</time>
      </trkpt>
      <trkpt lat="44.53783" lon="0.7359">
        <ele>118.8</ele>
        <time>2018-05-16T23:19:29Z</time>
      </trkpt>
      <trkpt lat="44.5378" lon="0.73597">
        <ele>118.8</ele>
        <time>2018-05-16T23:19:30Z</time>
      </trkpt>
      <trkpt lat="44.53778" lon="0.73603">
        <ele>119</ele>
        <time>2018-05-16T23:19:31Z</time>
      </trkpt>
      <trkpt lat="44.53776" lon="0.7361">
        <ele>118.5</ele>
        <time>2018-05-16T23:19:32Z</time>
      </trkpt>
      <trkpt lat="44.53773" lon="0.73616">
        <ele>118.7</ele>
        <time>2018-05-16T23:19:33Z</time>
      </trkpt>
      <trkpt lat="44.53771" lon="0.73622">
        <ele>118.6</ele>
        <time>2018-05-16T23:19:34Z</time>
      </trkpt>
      <trkpt lat="44.53769" lon="0.73628">
        <ele>118.7</ele>
        <time>2018-05-16T23:19:35Z</time>
      </trkpt>
      <trkpt lat="44.53766" lon="0.73633">
        <ele>118.7</ele>
        <time>2018-05-16T23:19:36Z</time>
      </trkpt>
      <trkpt lat="44.53764" lon="0.73639">
        <ele>118.2</ele>
        <time>2018-05-16T23:19:37Z</time>
      </trkpt>
      <trkpt lat="44.53761" lon="0.73644">
        <ele>118.2</ele>
        <time>2018-05-16T23:19:38Z</time>
      </trkpt>
      <trkpt lat="44.53759" lon="0.7365">
        <ele>118.1</ele>
        <time>2018-05-16T23:19:39Z</time>
      </trkpt>
      <trkpt lat="44.53756" lon="0.73655">
        <ele>117.9</ele>
        <time>2018-05-16T23:19:40Z</time>
      </trkpt>
      <trkpt lat="44.53754" lon="0.73661">
        <ele>117.6</ele>
        <time>2018-05-16T23:19:41Z</time>
      </trkpt>
      <trkpt lat="44.53751" lon="0.73666">
        <ele>117.4</ele>
        <time>2018-05-16T23:19:42Z</time>
      </trkpt>
      <trkpt lat="44.53748" lon="0.73671">
        <ele>117.3</ele>
        <time>2018-05-16T23:19:43Z</time>
      </trkpt>
      <trkpt lat="44.53746" lon="0.73675">
        <ele>117.2</ele>
        <time>2018-05-16T23:19:44Z</time>
      </trkpt>
      <trkpt lat="44.53743" lon="0.7368">
        <ele>117</ele>
        <time>2018-05-16T23:19:45Z</time>
      </trkpt>
      <trkpt lat="44.53741" lon="0.73685">
        <ele>116.9</ele>
        <time>2018-05-16T23:19:46Z</time>
      </trkpt>
      <trkpt lat="44.53738" lon="0.73691">
        <ele>116.4</ele>
        <time>2018-05-16T23:19:47Z</time>
      </trkpt>
      <trkpt lat="44.53735" lon="0.73696">
        <ele>116.1</ele>
        <time>2018-05-16T23:19:48Z</time>
      </trkpt>
      <trkpt lat="44.53733" lon="0.73701">
        <ele>115.8</ele>
        <time>2018-05-16T23:19:49Z</time>
      </trkpt>
      <trkpt lat="44.5373" lon="0.73706">
        <ele>115.5</ele>
        <time>2018-05-16T23:19:50Z</time>
      </trkpt>
      <trkpt lat="44.53728" lon="0.73712">
        <ele>114.9</ele>
        <time>2018-05-16T23:19:51Z</time>
      </trkpt>
      <trkpt lat="44.53725" lon="0.73719">
        <ele>114.6</ele>
        <time>2018-05-16T23:19:52Z</time>
      </trkpt>
      <trkpt lat="44.53724" lon="0.73726">
        <ele>114</ele>
        <time>2018-05-16T23:19:53Z</time>
      </trkpt>
      <trkpt lat="44.53723" lon="0.73734">
        <ele>113.3</ele>
        <time>2018-05-16T23:19:54Z</time>
      </trkpt>
      <trkpt lat="44.53721" lon="0.7374">
        <ele>113.3</ele>
        <time>2018-05-16T23:19:55Z</time>
      </trkpt>
      <trkpt lat="44.53719" lon="0.73745">
        <ele>113.2</ele>
        <time>2018-05-16T23:19:56Z</time>
      </trkpt>
      <trkpt lat="44.53716" lon="0.7375">
        <ele>113.1</ele>
        <time>2018-05-16T23:19:57Z</time>
      </trkpt>
      <trkpt lat="44.53712" lon="0.73752">
        <ele>112.9</ele>
        <time>2018-05-16T23:19:58Z</time>
      </trkpt>
      <trkpt lat="44.53707" lon="0.73753">
        <ele>112.8</ele>
        <time>2018-05-16T23:19:59Z</time>
      </trkpt>
      <trkpt lat="44.53701" lon="0.73754">
        <ele>112.6</ele>
        <time>2018-05-16T23:20:00Z</time>
      </trkpt>
      <trkpt lat="44.53696" lon="0.73755">
        <ele>112.5</ele>
        <time>2018-05-16T23:20:01Z</time>
      </trkpt>
      <trkpt lat="44.53689" lon="0.73757">
        <ele>112.3</ele>
        <time>2018-05-16T23:20:02Z</time>
      </trkpt>
      <trkpt lat="44.53683" lon="0.73759">
        <ele>112.1</ele>
        <time>2018-05-16T23:20:03Z</time>
      </trkpt>
      <trkpt lat="44.53677" lon="0.73761">
        <ele>111.9</ele>
        <time>2018-05-16T23:20:04Z</time>
      </trkpt>
      <trkpt lat="44.5367" lon="0.73764">
        <ele>111.7</ele>
        <time>2018-05-16T23:20:05Z</time>
      </trkpt>
      <trkpt lat="44.53663" lon="0.73767">
        <ele>111.4</ele>
        <time>2018-05-16T23:20:06Z</time>
      </trkpt>
      <trkpt lat="44.53656" lon="0.73771">
        <ele>111.2</ele>
        <time>2018-05-16T23:20:07Z</time>
      </trkpt>
      <trkpt lat="44.53649" lon="0.73775">
        <ele>111</ele>
        <time>2018-05-16T23:20:08Z</time>
      </trkpt>
      <trkpt lat="44.53642" lon="0.73778">
        <ele>110.8</ele>
        <time>2018-05-16T23:20:09Z</time>
      </trkpt>
      <trkpt lat="44.53634" lon="0.73782">
        <ele>110.6</ele>
        <time>2018-05-16T23:20:10Z</time>
      </trkpt>
      <trkpt lat="44.53627" lon="0.73786">
        <ele>110.3</ele>
        <time>2018-05-16T23:20:11Z</time>
      </trkpt>
      <trkpt lat="44.5362" lon="0.7379">
        <ele>110.1</ele>
        <time>2018-05-16T23:20:12Z</time>
      </trkpt>
      <trkpt lat="44.53613" lon="0.73794">
        <ele>109.9</ele>
        <time>2018-05-16T23:20:13Z</time>
      </trkpt>
      <trkpt lat="44.53606" lon="0.73799">
        <ele>109.7</ele>
        <time>2018-05-16T23:20:14Z</time>
      </trkpt>
      <trkpt lat="44.53599" lon="0.73803">
        <ele>109.5</ele>
        <time>2018-05-16T23:20:15Z</time>
      </trkpt>
      <trkpt lat="44.53592" lon="0.73809">
        <ele>109.3</ele>
        <time>2018-05-16T23:20:16Z</time>
      </trkpt>
      <trkpt lat="44.53585" lon="0.73813">
        <ele>109.1</ele>
        <time>2018-05-16T23:20:17Z</time>
      </trkpt>
      <trkpt lat="44.53578" lon="0.73819">
        <ele>108.9</ele>
        <time>2018-05-16T23:20:18Z</time>
      </trkpt>
      <trkpt lat="44.53571" lon="0.73824">
        <ele>108.8</ele>
        <time>2018-05-16T23:20:19Z</time>
      </trkpt>
      <trkpt lat="44.53564" lon="0.73829">
        <ele>108.6</ele>
        <time>2018-05-16T23:20:20Z</time>
      </trkpt>
      <trkpt lat="44.53557" lon="0.73835">
        <ele>108.5</ele>
        <time>2018-05-16T23:20:21Z</time>
      </trkpt>
      <trkpt lat="44.5355" lon="0.73841">
        <ele>108.3</ele>
        <time>2018-05-16T23:20:22Z</time>
      </trkpt>
      <trkpt lat="44.53543" lon="0.73846">
        <ele>108.2</ele>
        <time>2018-05-16T23:20:23Z</time>
      </trkpt>
      <trkpt lat="44.53536" lon="0.73852">
        <ele>108.1</ele>
        <time>2018-05-16T23:20:24Z</time>
      </trkpt>
      <trkpt lat="44.53529" lon="0.73858">
        <ele>108</ele>
        <time>2018-05-16T23:20:25Z</time>
      </trkpt>
      <trkpt lat="44.53521" lon="0.73863">
        <ele>107.9</ele>
        <time>2018-05-16T23:20:26Z</time>
      </trkpt>
      <trkpt lat="44.53513" lon="0.73867">
        <ele>107.9</ele>
        <time>2018-05-16T23:20:27Z</time>
      </trkpt>
      <trkpt lat="44.53505" lon="0.73871">
        <ele>107.8</ele>
        <time>2018-05-16T23:20:28Z</time>
      </trkpt>
      <trkpt lat="44.53497" lon="0.73873">
        <ele>107.8</ele>
        <time>2018-05-16T23:20:29Z</time>
      </trkpt>
      <trkpt lat="44.5349" lon="0.73873">
        <ele>107.8</ele>
        <time>2018-05-16T23:20:30Z</time>
      </trkpt>
      <trkpt lat="44.53482" lon="0.73871">
        <ele>107.9</ele>
        <time>2018-05-16T23:20:31Z</time>
      </trkpt>
      <trkpt lat="44.53475" lon="0.73867">
        <ele>108</ele>
        <time>2018-05-16T23:20:32Z</time>
      </trkpt>
      <trkpt lat="44.53468" lon="0.73862">
        <ele>108.1</ele>
        <time>2018-05-16T23:20:33Z</time>
      </trkpt>
      <trkpt lat="44.53462" lon="0.73857">
        <ele>108.2</ele>
        <time>2018-05-16T23:20:34Z</time>
      </trkpt>
      <trkpt lat="44.53455" lon="0.73852">
        <ele>108.3</ele>
        <time>2018-05-16T23:20:35Z</time>
      </trkpt>
      <trkpt lat="44.53449" lon="0.73848">
        <ele>108.4</ele>
        <time>2018-05-16T23:20:36Z</time>
      </trkpt>
      <trkpt lat="44.53442" lon="0.73843">
        <ele>108.5</ele>
        <time>2018-05-16T23:20:37Z</time>
      </trkpt>
      <trkpt lat="44.53436" lon="0.73839">
        <ele>108.5</ele>
        <time>2018-05-16T23:20:38Z</time>
      </trkpt>
      <trkpt lat="44.53431" lon="0.73835">
        <ele>108.6</ele>
        <time>2018-05-16T23:20:39Z</time>
      </trkpt>
      <trkpt lat="44.53426" lon="0.73831">
        <ele>108.7</ele>
        <time>2018-05-16T23:20:40Z</time>
      </trkpt>
      <trkpt lat="44.53421" lon="0.73827">
        <ele>108.8</ele>
        <time>2018-05-16T23:20:41Z</time>
      </trkpt>
      <trkpt lat="44.53416" lon="0.73823">
        <ele>108.9</ele>
        <time>2018-05-16T23:20:42Z</time>
      </trkpt>
      <trkpt lat="44.53412" lon="0.7382">
        <ele>109</ele>
        <time>2018-05-16T23:20:43Z</time>
      </trkpt>
      <trkpt lat="44.53407" lon="0.73816">
        <ele>109.1</ele>
        <time>2018-05-16T23:20:44Z</time>
      </trkpt>
      <trkpt lat="44.53403" lon="0.73813">
        <ele>109.1</ele>
        <time>2018-05-16T23:20:45Z</time>
      </trkpt>
      <trkpt lat="44.534" lon="0.73809">
        <ele>109.2</ele>
        <time>2018-05-16T23:20:46Z</time>
      </trkpt>
      <trkpt lat="44.53396" lon="0.73805">
        <ele>109.2</ele>
        <time>2018-05-16T23:20:47Z</time>
      </trkpt>
      <trkpt lat="44.53393" lon="0.73801">
        <ele>109.2</ele>
        <time>2018-05-16T23:20:48Z</time>
      </trkpt>
      <trkpt lat="44.5339" lon="0.73797">
        <ele>109.2</ele>
        <time>2018-05-16T23:20:49Z</time>
      </trkpt>
      <trkpt lat="44.53387" lon="0.73794">
        <ele>109.2</ele>
        <time>2018-05-16T23:20:50Z</time>
      </trkpt>
      <trkpt lat="44.53385" lon="0.7379">
        <ele>109.3</ele>
        <time>2018-05-16T23:20:51Z</time>
      </trkpt>
      <trkpt lat="44.53382" lon="0.73786">
        <ele>109.3</ele>
        <time>2018-05-16T23:20:52Z</time>
      </trkpt>
      <trkpt lat="44.53379" lon="0.73783">
        <ele>109.3</ele>
        <time>2018-05-16T23:20:53Z</time>
      </trkpt>
      <trkpt lat="44.53376" lon="0.73779">
        <ele>109.2</ele>
        <time>2018-05-16T23:20:54Z</time>
      </trkpt>
      <trkpt lat="44.53372" lon="0.73776">
        <ele>109.2</ele>
        <time>2018-05-16T23:20:55Z</time>
      </trkpt>
      <trkpt lat="44.53369" lon="0.73773">
        <ele>109.1</ele>
        <time>2018-05-16T23:20:56Z</time>
      </trkpt>
      <trkpt lat="44.53364" lon="0.73772">
        <ele>109</ele>
        <time>2018-05-16T23:20:57Z</time>
      </trkpt>
      <trkpt lat="44.5336" lon="0.73772">
        <ele>108.9</ele>
        <time>2018-05-16T23:20:58Z</time>
      </trkpt>
      <trkpt lat="44.53355" lon="0.73774">
        <ele>108.8</ele>
        <time>2018-05-16T23:20:59Z</time>
      </trkpt>
      <trkpt lat="44.5335" lon="0.73777">
        <ele>108.7</ele>
        <time>2018-05-16T23:21:00Z</time>
      </trkpt>
      <trkpt lat="44.53346" lon="0.7378">
        <ele>108.6</ele>
        <time>2018-05-16T23:21:01Z</time>
      </trkpt>
      <trkpt lat="44.53343" lon="0.73783">
        <ele>108.5</ele>
        <time>2018-05-16T23:21:02Z</time>
      </trkpt>
      <trkpt lat="44.5334" lon="0.73785">
        <ele>108.4</ele>
        <time>2018-05-16T23:21:03Z</time>
      </trkpt>
      <trkpt lat="44.53338" lon="0.73787">
        <ele>108.3</ele>
        <time>2018-05-16T23:21:04Z</time>
      </trkpt>
      <trkpt lat="44.53335" lon="0.7379">
        <ele>108.2</ele>
        <time>2018-05-16T23:21:06Z</time>
      </trkpt>
      <trkpt lat="44.53333" lon="0.73797">
        <ele>108.1</ele>
        <time>2018-05-16T23:21:36Z</time>
      </trkpt>
      <trkpt lat="44.53332" lon="0.738">
        <ele>108</ele>
        <time>2018-05-16T23:21:37Z</time>
      </trkpt>
      <trkpt lat="44.53331" lon="0.73805">
        <ele>108</ele>
        <time>2018-05-16T23:21:38Z</time>
      </trkpt>
      <trkpt lat="44.53328" lon="0.73809">
        <ele>107.9</ele>
        <time>2018-05-16T23:21:39Z</time>
      </trkpt>
      <trkpt lat="44.53327" lon="0.73815">
        <ele>107.9</ele>
        <time>2018-05-16T23:21:40Z</time>
      </trkpt>
      <trkpt lat="44.53325" lon="0.73822">
        <ele>107.5</ele>
        <time>2018-05-16T23:21:41Z</time>
      </trkpt>
      <trkpt lat="44.5332" lon="0.73826">
        <ele>107</ele>
        <time>2018-05-16T23:21:42Z</time>
      </trkpt>
      <trkpt lat="44.53314" lon="0.73834">
        <ele>105.5</ele>
        <time>2018-05-16T23:21:43Z</time>
      </trkpt>
      <trkpt lat="44.53307" lon="0.73842">
        <ele>104.2</ele>
        <time>2018-05-16T23:21:44Z</time>
      </trkpt>
      <trkpt lat="44.53301" lon="0.73848">
        <ele>103.3</ele>
        <time>2018-05-16T23:21:45Z</time>
      </trkpt>
      <trkpt lat="44.53295" lon="0.73854">
        <ele>102.4</ele>
        <time>2018-05-16T23:21:46Z</time>
      </trkpt>
      <trkpt lat="44.53289" lon="0.73859">
        <ele>101.6</ele>
        <time>2018-05-16T23:21:47Z</time>
      </trkpt>
      <trkpt lat="44.53283" lon="0.73866">
        <ele>100.7</ele>
        <time>2018-05-16T23:21:48Z</time>
      </trkpt>
      <trkpt lat="44.53276" lon="0.7387">
        <ele>100</ele>
        <time>2018-05-16T23:21:49Z</time>
      </trkpt>
      <trkpt lat="44.5327" lon="0.73873">
        <ele>99.1</ele>
        <time>2018-05-16T23:21:50Z</time>
      </trkpt>
      <trkpt lat="44.53264" lon="0.73879">
        <ele>98.2</ele>
        <time>2018-05-16T23:21:51Z</time>
      </trkpt>
      <trkpt lat="44.53257" lon="0.73883">
        <ele>96.8</ele>
        <time>2018-05-16T23:21:52Z</time>
      </trkpt>
      <trkpt lat="44.53251" lon="0.73889">
        <ele>95.8</ele>
        <time>2018-05-16T23:21:53Z</time>
      </trkpt>
      <trkpt lat="44.53247" lon="0.73894">
        <ele>95.1</ele>
        <time>2018-05-16T23:21:54Z</time>
      </trkpt>
      <trkpt lat="44.53244" lon="0.73898">
        <ele>94.4</ele>
        <time>2018-05-16T23:21:55Z</time>
      </trkpt>
      <trkpt lat="44.53242" lon="0.73904">
        <ele>93.8</ele>
        <time>2018-05-16T23:21:56Z</time>
      </trkpt>
      <trkpt lat="44.53242" lon="0.73909">
        <ele>93</ele>
        <time>2018-05-16T23:21:57Z</time>
      </trkpt>
      <trkpt lat="44.53242" lon="0.73916">
        <ele>92.5</ele>
        <time>2018-05-16T23:21:58Z</time>
      </trkpt>
      <trkpt lat="44.53241" lon="0.73929">
        <ele>91</ele>
        <time>2018-05-16T23:21:59Z</time>
      </trkpt>
      <trkpt lat="44.53242" lon="0.73939">
        <ele>90</ele>
        <time>2018-05-16T23:22:00Z</time>
      </trkpt>
      <trkpt lat="44.53244" lon="0.73946">
        <ele>89.3</ele>
        <time>2018-05-16T23:22:01Z</time>
      </trkpt>
      <trkpt lat="44.53246" lon="0.73953">
        <ele>88.5</ele>
        <time>2018-05-16T23:22:02Z</time>
      </trkpt>
      <trkpt lat="44.53251" lon="0.73956">
        <ele>88.7</ele>
        <time>2018-05-16T23:22:03Z</time>
      </trkpt>
      <trkpt lat="44.5326" lon="0.73962">
        <ele>88.1</ele>
        <time>2018-05-16T23:22:04Z</time>
      </trkpt>
      <trkpt lat="44.53266" lon="0.73966">
        <ele>87.8</ele>
        <time>2018-05-16T23:22:05Z</time>
      </trkpt>
      <trkpt lat="44.53277" lon="0.7397">
        <ele>87.9</ele>
        <time>2018-05-16T23:22:06Z</time>
      </trkpt>
      <trkpt lat="44.53284" lon="0.73976">
        <ele>88.1</ele>
        <time>2018-05-16T23:22:07Z</time>
      </trkpt>
      <trkpt lat="44.5329" lon="0.73981">
        <ele>88.2</ele>
        <time>2018-05-16T23:22:08Z</time>
      </trkpt>
      <trkpt lat="44.53297" lon="0.73984">
        <ele>88.3</ele>
        <time>2018-05-16T23:22:09Z</time>
      </trkpt>
      <trkpt lat="44.53304" lon="0.73989">
        <ele>88.5</ele>
        <time>2018-05-16T23:22:10Z</time>
      </trkpt>
      <trkpt lat="44.53311" lon="0.73989">
        <ele>89</ele>
        <time>2018-05-16T23:22:11Z</time>
      </trkpt>
      <trkpt lat="44.53318" lon="0.73989">
        <ele>89.3</ele>
        <time>2018-05-16T23:22:12Z</time>
      </trkpt>
      <trkpt lat="44.53325" lon="0.73988">
        <ele>89.5</ele>
        <time>2018-05-16T23:22:13Z</time>
      </trkpt>
      <trkpt lat="44.53331" lon="0.73984">
        <ele>90</ele>
        <time>2018-05-16T23:22:14Z</time>
      </trkpt>
      <trkpt lat="44.53337" lon="0.73983">
        <ele>90.1</ele>
        <time>2018-05-16T23:22:15Z</time>
      </trkpt>
      <trkpt lat="44.53343" lon="0.73981">
        <ele>90.6</ele>
        <time>2018-05-16T23:22:16Z</time>
      </trkpt>
      <trkpt lat="44.53349" lon="0.7398">
        <ele>90.6</ele>
        <time>2018-05-16T23:22:17Z</time>
      </trkpt>
      <trkpt lat="44.53354" lon="0.73978">
        <ele>90.7</ele>
        <time>2018-05-16T23:22:18Z</time>
      </trkpt>
      <trkpt lat="44.5336" lon="0.73978">
        <ele>90.8</ele>
        <time>2018-05-16T23:22:19Z</time>
      </trkpt>
      <trkpt lat="44.53366" lon="0.73978">
        <ele>90.8</ele>
        <time>2018-05-16T23:22:20Z</time>
      </trkpt>
      <trkpt lat="44.53373" lon="0.7398">
        <ele>90.8</ele>
        <time>2018-05-16T23:22:21Z</time>
      </trkpt>
      <trkpt lat="44.53379" lon="0.73982">
        <ele>90.5</ele>
        <time>2018-05-16T23:22:22Z</time>
      </trkpt>
      <trkpt lat="44.53385" lon="0.73985">
        <ele>90.5</ele>
        <time>2018-05-16T23:22:23Z</time>
      </trkpt>
      <trkpt lat="44.53391" lon="0.73987">
        <ele>90</ele>
        <time>2018-05-16T23:22:24Z</time>
      </trkpt>
      <trkpt lat="44.53397" lon="0.7399">
        <ele>89.9</ele>
        <time>2018-05-16T23:22:25Z</time>
      </trkpt>
      <trkpt lat="44.53402" lon="0.73991">
        <ele>89.5</ele>
        <time>2018-05-16T23:22:26Z</time>
      </trkpt>
      <trkpt lat="44.53405" lon="0.73997">
        <ele>89</ele>
        <time>2018-05-16T23:22:27Z</time>
      </trkpt>
      <trkpt lat="44.53405" lon="0.74006">
        <ele>88.1</ele>
        <time>2018-05-16T23:22:28Z</time>
      </trkpt>
      <trkpt lat="44.53406" lon="0.74012">
        <ele>87.5</ele>
        <time>2018-05-16T23:22:29Z</time>
      </trkpt>
      <trkpt lat="44.53406" lon="0.74018">
        <ele>86.3</ele>
        <time>2018-05-16T23:22:30Z</time>
      </trkpt>
      <trkpt lat="44.53406" lon="0.74024">
        <ele>85.6</ele>
        <time>2018-05-16T23:22:31Z</time>
      </trkpt>
      <trkpt lat="44.53408" lon="0.74032">
        <ele>84.2</ele>
        <time>2018-05-16T23:22:32Z</time>
      </trkpt>
      <trkpt lat="44.53406" lon="0.7404">
        <ele>82.9</ele>
        <time>2018-05-16T23:22:33Z</time>
      </trkpt>
      <trkpt lat="44.53407" lon="0.74048">
        <ele>81.7</ele>
        <time>2018-05-16T23:22:34Z</time>
      </trkpt>
      <trkpt lat="44.53407" lon="0.74055">
        <ele>80.7</ele>
        <time>2018-05-16T23:22:35Z</time>
      </trkpt>
      <trkpt lat="44.53408" lon="0.74063">
        <ele>80.2</ele>
        <time>2018-05-16T23:22:36Z</time>
      </trkpt>
      <trkpt lat="44.53407" lon="0.74071">
        <ele>79.6</ele>
        <time>2018-05-16T23:22:37Z</time>
      </trkpt>
      <trkpt lat="44.53407" lon="0.74078">
        <ele>79.1</ele>
        <time>2018-05-16T23:22:38Z</time>
      </trkpt>
      <trkpt lat="44.53406" lon="0.74083">
        <ele>78.9</ele>
        <time>2018-05-16T23:22:39Z</time>
      </trkpt>
      <trkpt lat="44.53404" lon="0.74087">
        <ele>78.7</ele>
        <time>2018-05-16T23:22:40Z</time>
      </trkpt>
      <trkpt lat="44.53401" lon="0.74092">
        <ele>78.6</ele>
        <time>2018-05-16T23:22:42Z</time>
      </trkpt>
      <trkpt lat="44.53396" lon="0.74093">
        <ele>78.6</ele>
        <time>2018-05-16T23:22:43Z</time>
      </trkpt>
      <trkpt lat="44.53394" lon="0.74098">
        <ele>78.3</ele>
        <time>2018-05-16T23:22:44Z</time>
      </trkpt>
      <trkpt lat="44.53393" lon="0.74102">
        <ele>78.1</ele>
        <time>2018-05-16T23:22:48Z</time>
      </trkpt>
      <trkpt lat="44.53397" lon="0.74116">
        <ele>77.6</ele>
        <time>2018-05-16T23:23:02Z</time>
      </trkpt>
      <trkpt lat="44.53397" lon="0.74122">
        <ele>77.4</ele>
        <time>2018-05-16T23:23:04Z</time>
      </trkpt>
      <trkpt lat="44.53399" lon="0.74129">
        <ele>77.2</ele>
        <time>2018-05-16T23:23:06Z</time>
      </trkpt>
      <trkpt lat="44.534" lon="0.74136">
        <ele>77.1</ele>
        <time>2018-05-16T23:23:08Z</time>
      </trkpt>
      <trkpt lat="44.53401" lon="0.7414">
        <ele>77</ele>
        <time>2018-05-16T23:23:09Z</time>
      </trkpt>
      <trkpt lat="44.534" lon="0.74146">
        <ele>76.9</ele>
        <time>2018-05-16T23:23:10Z</time>
      </trkpt>
      <trkpt lat="44.534" lon="0.74151">
        <ele>76.8</ele>
        <time>2018-05-16T23:23:11Z</time>
      </trkpt>
      <trkpt lat="44.534" lon="0.74157">
        <ele>76.8</ele>
        <time>2018-05-16T23:23:12Z</time>
      </trkpt>
      <trkpt lat="44.53398" lon="0.74163">
        <ele>76.7</ele>
        <time>2018-05-16T23:23:13Z</time>
      </trkpt>
      <trkpt lat="44.53398" lon="0.74168">
        <ele>76.6</ele>
        <time>2018-05-16T23:23:14Z</time>
      </trkpt>
      <trkpt lat="44.53398" lon="0.74172">
        <ele>76.6</ele>
        <time>2018-05-16T23:23:15Z</time>
      </trkpt>
      <trkpt lat="44.53398" lon="0.74178">
        <ele>76.5</ele>
        <time>2018-05-16T23:23:16Z</time>
      </trkpt>
      <trkpt lat="44.53398" lon="0.74183">
        <ele>76.4</ele>
        <time>2018-05-16T23:23:17Z</time>
      </trkpt>
      <trkpt lat="44.53398" lon="0.74189">
        <ele>76.4</ele>
        <time>2018-05-16T23:23:18Z</time>
      </trkpt>
      <trkpt lat="44.53399" lon="0.74197">
        <ele>76.3</ele>
        <time>2018-05-16T23:23:19Z</time>
      </trkpt>
      <trkpt lat="44.53399" lon="0.74203">
        <ele>76.3</ele>
        <time>2018-05-16T23:23:20Z</time>
      </trkpt>
      <trkpt lat="44.53399" lon="0.74209">
        <ele>76.2</ele>
        <time>2018-05-16T23:23:21Z</time>
      </trkpt>
      <trkpt lat="44.53399" lon="0.74215">
        <ele>76.2</ele>
        <time>2018-05-16T23:23:22Z</time>
      </trkpt>
      <trkpt lat="44.534" lon="0.74222">
        <ele>76.2</ele>
        <time>2018-05-16T23:23:23Z</time>
      </trkpt>
      <trkpt lat="44.53401" lon="0.74229">
        <ele>76.2</ele>
        <time>2018-05-16T23:23:24Z</time>
      </trkpt>
      <trkpt lat="44.53401" lon="0.74236">
        <ele>76.1</ele>
        <time>2018-05-16T23:23:25Z</time>
      </trkpt>
      <trkpt lat="44.53401" lon="0.74241">
        <ele>76.1</ele>
        <time>2018-05-16T23:23:26Z</time>
      </trkpt>
      <trkpt lat="44.53402" lon="0.74247">
        <ele>76.1</ele>
        <time>2018-05-16T23:23:27Z</time>
      </trkpt>
      <trkpt lat="44.53404" lon="0.74254">
        <ele>76.1</ele>
        <time>2018-05-16T23:23:28Z</time>
      </trkpt>
      <trkpt lat="44.53405" lon="0.7426">
        <ele>76.1</ele>
        <time>2018-05-16T23:23:29Z</time>
      </trkpt>
      <trkpt lat="44.53407" lon="0.74266">
        <ele>76.1</ele>
        <time>2018-05-16T23:23:30Z</time>
      </trkpt>
      <trkpt lat="44.53408" lon="0.74272">
        <ele>76</ele>
        <time>2018-05-16T23:23:31Z</time>
      </trkpt>
      <trkpt lat="44.5341" lon="0.74278">
        <ele>76</ele>
        <time>2018-05-16T23:23:32Z</time>
      </trkpt>
      <trkpt lat="44.53411" lon="0.74284">
        <ele>76</ele>
        <time>2018-05-16T23:23:33Z</time>
      </trkpt>
      <trkpt lat="44.53412" lon="0.7429">
        <ele>76</ele>
        <time>2018-05-16T23:23:34Z</time>
      </trkpt>
      <trkpt lat="44.53413" lon="0.74296">
        <ele>76</ele>
        <time>2018-05-16T23:23:35Z</time>
      </trkpt>
      <trkpt lat="44.53413" lon="0.74302">
        <ele>76.1</ele>
        <time>2018-05-16T23:23:36Z</time>
      </trkpt>
      <trkpt lat="44.53412" lon="0.74307">
        <ele>76.1</ele>
        <time>2018-05-16T23:23:37Z</time>
      </trkpt>
      <trkpt lat="44.53412" lon="0.74312">
        <ele>76.2</ele>
        <time>2018-05-16T23:23:38Z</time>
      </trkpt>
      <trkpt lat="44.53413" lon="0.74317">
        <ele>76.3</ele>
        <time>2018-05-16T23:23:39Z</time>
      </trkpt>
      <trkpt lat="44.53417" lon="0.74321">
        <ele>76.3</ele>
        <time>2018-05-16T23:23:41Z</time>
      </trkpt>
      <trkpt lat="44.5342" lon="0.74318">
        <ele>76.4</ele>
        <time>2018-05-16T23:23:42Z</time>
      </trkpt>
      <trkpt lat="44.53423" lon="0.74319">
        <ele>76.4</ele>
        <time>2018-05-16T23:23:43Z</time>
      </trkpt>
      <trkpt lat="44.53426" lon="0.74319">
        <ele>76.5</ele>
        <time>2018-05-16T23:23:44Z</time>
      </trkpt>
      <trkpt lat="44.53429" lon="0.7432">
        <ele>76.5</ele>
        <time>2018-05-16T23:23:45Z</time>
      </trkpt>
      <trkpt lat="44.53433" lon="0.74322">
        <ele>76.5</ele>
        <time>2018-05-16T23:23:46Z</time>
      </trkpt>
      <trkpt lat="44.53437" lon="0.74322">
        <ele>76.6</ele>
        <time>2018-05-16T23:23:47Z</time>
      </trkpt>
      <trkpt lat="44.53439" lon="0.74326">
        <ele>76.6</ele>
        <time>2018-05-16T23:23:48Z</time>
      </trkpt>
      <trkpt lat="44.53443" lon="0.74328">
        <ele>76.7</ele>
        <time>2018-05-16T23:23:49Z</time>
      </trkpt>
      <trkpt lat="44.53446" lon="0.7433">
        <ele>76.7</ele>
        <time>2018-05-16T23:23:50Z</time>
      </trkpt>
      <trkpt lat="44.53451" lon="0.7433">
        <ele>76.7</ele>
        <time>2018-05-16T23:23:51Z</time>
      </trkpt>
      <trkpt lat="44.53455" lon="0.7433">
        <ele>76.8</ele>
        <time>2018-05-16T23:23:52Z</time>
      </trkpt>
      <trkpt lat="44.53459" lon="0.74331">
        <ele>76.8</ele>
        <time>2018-05-16T23:23:53Z</time>
      </trkpt>
      <trkpt lat="44.53464" lon="0.74332">
        <ele>76.8</ele>
        <time>2018-05-16T23:23:54Z</time>
      </trkpt>
      <trkpt lat="44.53468" lon="0.74333">
        <ele>76.9</ele>
        <time>2018-05-16T23:23:55Z</time>
      </trkpt>
      <trkpt lat="44.53473" lon="0.74334">
        <ele>76.9</ele>
        <time>2018-05-16T23:23:56Z</time>
      </trkpt>
      <trkpt lat="44.53477" lon="0.74335">
        <ele>76.9</ele>
        <time>2018-05-16T23:23:57Z</time>
      </trkpt>
      <trkpt lat="44.53483" lon="0.74336">
        <ele>77</ele>
        <time>2018-05-16T23:23:58Z</time>
      </trkpt>
      <trkpt lat="44.53487" lon="0.74337">
        <ele>77</ele>
        <time>2018-05-16T23:23:59Z</time>
      </trkpt>
      <trkpt lat="44.53492" lon="0.74337">
        <ele>77.1</ele>
        <time>2018-05-16T23:24:00Z</time>
      </trkpt>
      <trkpt lat="44.53497" lon="0.74337">
        <ele>77.1</ele>
        <time>2018-05-16T23:24:01Z</time>
      </trkpt>
      <trkpt lat="44.53501" lon="0.74338">
        <ele>77.1</ele>
        <time>2018-05-16T23:24:02Z</time>
      </trkpt>
      <trkpt lat="44.53505" lon="0.74337">
        <ele>77.2</ele>
        <time>2018-05-16T23:24:03Z</time>
      </trkpt>
      <trkpt lat="44.53509" lon="0.74338">
        <ele>77.2</ele>
        <time>2018-05-16T23:24:04Z</time>
      </trkpt>
      <trkpt lat="44.53513" lon="0.74339">
        <ele>77.3</ele>
        <time>2018-05-16T23:24:05Z</time>
      </trkpt>
      <trkpt lat="44.53517" lon="0.7434">
        <ele>77.3</ele>
        <time>2018-05-16T23:24:06Z</time>
      </trkpt>
      <trkpt lat="44.53521" lon="0.74341">
        <ele>77.4</ele>
        <time>2018-05-16T23:24:07Z</time>
      </trkpt>
      <trkpt lat="44.53526" lon="0.74342">
        <ele>77.5</ele>
        <time>2018-05-16T23:24:08Z</time>
      </trkpt>
      <trkpt lat="44.53531" lon="0.74344">
        <ele>77.5</ele>
        <time>2018-05-16T23:24:09Z</time>
      </trkpt>
      <trkpt lat="44.53535" lon="0.74344">
        <ele>77.6</ele>
        <time>2018-05-16T23:24:10Z</time>
      </trkpt>
      <trkpt lat="44.5354" lon="0.74346">
        <ele>77.6</ele>
        <time>2018-05-16T23:24:11Z</time>
      </trkpt>
      <trkpt lat="44.53544" lon="0.74347">
        <ele>77.7</ele>
        <time>2018-05-16T23:24:12Z</time>
      </trkpt>
      <trkpt lat="44.53549" lon="0.74349">
        <ele>77.7</ele>
        <time>2018-05-16T23:24:13Z</time>
      </trkpt>
      <trkpt lat="44.53552" lon="0.74352">
        <ele>77.8</ele>
        <time>2018-05-16T23:24:14Z</time>
      </trkpt>
      <trkpt lat="44.53556" lon="0.74354">
        <ele>77.8</ele>
        <time>2018-05-16T23:24:15Z</time>
      </trkpt>
      <trkpt lat="44.53559" lon="0.74356">
        <ele>77.9</ele>
        <time>2018-05-16T23:24:16Z</time>
      </trkpt>
      <trkpt lat="44.53563" lon="0.74359">
        <ele>78</ele>
        <time>2018-05-16T23:24:17Z</time>
      </trkpt>
      <trkpt lat="44.53567" lon="0.74362">
        <ele>78</ele>
        <time>2018-05-16T23:24:18Z</time>
      </trkpt>
      <trkpt lat="44.5357" lon="0.74364">
        <ele>78.1</ele>
        <time>2018-05-16T23:24:19Z</time>
      </trkpt>
      <trkpt lat="44.53574" lon="0.74367">
        <ele>78.1</ele>
        <time>2018-05-16T23:24:20Z</time>
      </trkpt>
      <trkpt lat="44.53577" lon="0.74371">
        <ele>78.2</ele>
        <time>2018-05-16T23:24:21Z</time>
      </trkpt>
      <trkpt lat="44.5358" lon="0.74374">
        <ele>78.2</ele>
        <time>2018-05-16T23:24:22Z</time>
      </trkpt>
      <trkpt lat="44.53583" lon="0.74376">
        <ele>78.3</ele>
        <time>2018-05-16T23:24:23Z</time>
      </trkpt>
      <trkpt lat="44.53586" lon="0.74379">
        <ele>78.3</ele>
        <time>2018-05-16T23:24:24Z</time>
      </trkpt>
      <trkpt lat="44.53591" lon="0.74382">
        <ele>78.4</ele>
        <time>2018-05-16T23:24:25Z</time>
      </trkpt>
      <trkpt lat="44.53593" lon="0.74384">
        <ele>78.4</ele>
        <time>2018-05-16T23:24:26Z</time>
      </trkpt>
      <trkpt lat="44.53594" lon="0.74388">
        <ele>78.5</ele>
        <time>2018-05-16T23:24:27Z</time>
      </trkpt>
      <trkpt lat="44.53596" lon="0.74394">
        <ele>78.5</ele>
        <time>2018-05-16T23:24:28Z</time>
      </trkpt>
      <trkpt lat="44.53598" lon="0.74399">
        <ele>78.6</ele>
        <time>2018-05-16T23:24:29Z</time>
      </trkpt>
      <trkpt lat="44.536" lon="0.74403">
        <ele>78.7</ele>
        <time>2018-05-16T23:24:30Z</time>
      </trkpt>
      <trkpt lat="44.53601" lon="0.74407">
        <ele>78.7</ele>
        <time>2018-05-16T23:24:31Z</time>
      </trkpt>
      <trkpt lat="44.53603" lon="0.74411">
        <ele>78.8</ele>
        <time>2018-05-16T23:24:32Z</time>
      </trkpt>
      <trkpt lat="44.53605" lon="0.74414">
        <ele>78.8</ele>
        <time>2018-05-16T23:24:33Z</time>
      </trkpt>
      <trkpt lat="44.53606" lon="0.74418">
        <ele>78.9</ele>
        <time>2018-05-16T23:24:34Z</time>
      </trkpt>
      <trkpt lat="44.53608" lon="0.74422">
        <ele>78.9</ele>
        <time>2018-05-16T23:24:35Z</time>
      </trkpt>
      <trkpt lat="44.5361" lon="0.74426">
        <ele>79</ele>
        <time>2018-05-16T23:24:36Z</time>
      </trkpt>
      <trkpt lat="44.53611" lon="0.74431">
        <ele>79</ele>
        <time>2018-05-16T23:24:37Z</time>
      </trkpt>
      <trkpt lat="44.53612" lon="0.74435">
        <ele>79</ele>
        <time>2018-05-16T23:24:38Z</time>
      </trkpt>
      <trkpt lat="44.53614" lon="0.7444">
        <ele>79</ele>
        <time>2018-05-16T23:24:39Z</time>
      </trkpt>
      <trkpt lat="44.53615" lon="0.74445">
        <ele>78.9</ele>
        <time>2018-05-16T23:24:40Z</time>
      </trkpt>
      <trkpt lat="44.53617" lon="0.7445">
        <ele>78.9</ele>
        <time>2018-05-16T23:24:41Z</time>
      </trkpt>
      <trkpt lat="44.53619" lon="0.74454">
        <ele>78.9</ele>
        <time>2018-05-16T23:24:42Z</time>
      </trkpt>
      <trkpt lat="44.53621" lon="0.74458">
        <ele>78.9</ele>
        <time>2018-05-16T23:24:43Z</time>
      </trkpt>
      <trkpt lat="44.53623" lon="0.74463">
        <ele>78.9</ele>
        <time>2018-05-16T23:24:44Z</time>
      </trkpt>
      <trkpt lat="44.53625" lon="0.74467">
        <ele>78.9</ele>
        <time>2018-05-16T23:24:45Z</time>
      </trkpt>
      <trkpt lat="44.53627" lon="0.74472">
        <ele>78.8</ele>
        <time>2018-05-16T23:24:46Z</time>
      </trkpt>
      <trkpt lat="44.53629" lon="0.74476">
        <ele>78.8</ele>
        <time>2018-05-16T23:24:47Z</time>
      </trkpt>
      <trkpt lat="44.53631" lon="0.74481">
        <ele>78.8</ele>
        <time>2018-05-16T23:24:48Z</time>
      </trkpt>
      <trkpt lat="44.53633" lon="0.74485">
        <ele>78.8</ele>
        <time>2018-05-16T23:24:49Z</time>
      </trkpt>
      <trkpt lat="44.53635" lon="0.74488">
        <ele>78.7</ele>
        <time>2018-05-16T23:24:50Z</time>
      </trkpt>
      <trkpt lat="44.53638" lon="0.74492">
        <ele>78.7</ele>
        <time>2018-05-16T23:24:51Z</time>
      </trkpt>
      <trkpt lat="44.53639" lon="0.74497">
        <ele>78.7</ele>
        <time>2018-05-16T23:24:52Z</time>
      </trkpt>
      <trkpt lat="44.53641" lon="0.74501">
        <ele>78.7</ele>
        <time>2018-05-16T23:24:53Z</time>
      </trkpt>
      <trkpt lat="44.53643" lon="0.74505">
        <ele>78.7</ele>
        <time>2018-05-16T23:24:54Z</time>
      </trkpt>
      <trkpt lat="44.53644" lon="0.74509">
        <ele>78.7</ele>
        <time>2018-05-16T23:24:55Z</time>
      </trkpt>
      <trkpt lat="44.53646" lon="0.74514">
        <ele>78.6</ele>
        <time>2018-05-16T23:24:56Z</time>
      </trkpt>
      <trkpt lat="44.53648" lon="0.74518">
        <ele>78.6</ele>
        <time>2018-05-16T23:24:57Z</time>
      </trkpt>
      <trkpt lat="44.5365" lon="0.74522">
        <ele>78.6</ele>
        <time>2018-05-16T23:24:58Z</time>
      </trkpt>
      <trkpt lat="44.53651" lon="0.74527">
        <ele>78.6</ele>
        <time>2018-05-16T23:24:59Z</time>
      </trkpt>
      <trkpt lat="44.53653" lon="0.74531">
        <ele>78.6</ele>
        <time>2018-05-16T23:25:00Z</time>
      </trkpt>
      <trkpt lat="44.53655" lon="0.74535">
        <ele>78.6</ele>
        <time>2018-05-16T23:25:01Z</time>
      </trkpt>
      <trkpt lat="44.53656" lon="0.74539">
        <ele>78.6</ele>
        <time>2018-05-16T23:25:02Z</time>
      </trkpt>
      <trkpt lat="44.53658" lon="0.74543">
        <ele>78.6</ele>
        <time>2018-05-16T23:25:03Z</time>
      </trkpt>
      <trkpt lat="44.5366" lon="0.74547">
        <ele>78.5</ele>
        <time>2018-05-16T23:25:04Z</time>
      </trkpt>
      <trkpt lat="44.53661" lon="0.74551">
        <ele>78.5</ele>
        <time>2018-05-16T23:25:05Z</time>
      </trkpt>
      <trkpt lat="44.53663" lon="0.74555">
        <ele>78.5</ele>
        <time>2018-05-16T23:25:06Z</time>
      </trkpt>
      <trkpt lat="44.53664" lon="0.74559">
        <ele>78.5</ele>
        <time>2018-05-16T23:25:07Z</time>
      </trkpt>
      <trkpt lat="44.53666" lon="0.74563">
        <ele>78.5</ele>
        <time>2018-05-16T23:25:08Z</time>
      </trkpt>
      <trkpt lat="44.53667" lon="0.74567">
        <ele>78.5</ele>
        <time>2018-05-16T23:25:09Z</time>
      </trkpt>
      <trkpt lat="44.53669" lon="0.74571">
        <ele>78.5</ele>
        <time>2018-05-16T23:25:10Z</time>
      </trkpt>
      <trkpt lat="44.5367" lon="0.74575">
        <ele>78.5</ele>
        <time>2018-05-16T23:25:11Z</time>
      </trkpt>
      <trkpt lat="44.53672" lon="0.74579">
        <ele>78.5</ele>
        <time>2018-05-16T23:25:12Z</time>
      </trkpt>
      <trkpt lat="44.53673" lon="0.74583">
        <ele>78.5</ele>
        <time>2018-05-16T23:25:13Z</time>
      </trkpt>
      <trkpt lat="44.53675" lon="0.74587">
        <ele>78.5</ele>
        <time>2018-05-16T23:25:14Z</time>
      </trkpt>
      <trkpt lat="44.53676" lon="0.74591">
        <ele>78.5</ele>
        <time>2018-05-16T23:25:15Z</time>
      </trkpt>
      <trkpt lat="44.53678" lon="0.74595">
        <ele>78.5</ele>
        <time>2018-05-16T23:25:16Z</time>
      </trkpt>
      <trkpt lat="44.53679" lon="0.74599">
        <ele>78.6</ele>
        <time>2018-05-16T23:25:17Z</time>
      </trkpt>
      <trkpt lat="44.53681" lon="0.74602">
        <ele>78.6</ele>
        <time>2018-05-16T23:25:18Z</time>
      </trkpt>
      <trkpt lat="44.53683" lon="0.74606">
        <ele>78.6</ele>
        <time>2018-05-16T23:25:19Z</time>
      </trkpt>
      <trkpt lat="44.53685" lon="0.74609">
        <ele>78.7</ele>
        <time>2018-05-16T23:25:20Z</time>
      </trkpt>
      <trkpt lat="44.53688" lon="0.74612">
        <ele>78.8</ele>
        <time>2018-05-16T23:25:21Z</time>
      </trkpt>
      <trkpt lat="44.53691" lon="0.74615">
        <ele>79</ele>
        <time>2018-05-16T23:25:22Z</time>
      </trkpt>
      <trkpt lat="44.53694" lon="0.74619">
        <ele>79.1</ele>
        <time>2018-05-16T23:25:23Z</time>
      </trkpt>
      <trkpt lat="44.53697" lon="0.74622">
        <ele>79.2</ele>
        <time>2018-05-16T23:25:24Z</time>
      </trkpt>
      <trkpt lat="44.537" lon="0.74627">
        <ele>79.3</ele>
        <time>2018-05-16T23:25:26Z</time>
      </trkpt>
      <trkpt lat="44.53705" lon="0.74632">
        <ele>79.4</ele>
        <time>2018-05-16T23:25:28Z</time>
      </trkpt>
      <trkpt lat="44.53708" lon="0.74636">
        <ele>79.4</ele>
        <time>2018-05-16T23:25:29Z</time>
      </trkpt>
      <trkpt lat="44.5371" lon="0.74639">
        <ele>79.4</ele>
        <time>2018-05-16T23:25:30Z</time>
      </trkpt>
      <trkpt lat="44.53713" lon="0.74644">
        <ele>79.4</ele>
        <time>2018-05-16T23:25:31Z</time>
      </trkpt>
      <trkpt lat="44.53715" lon="0.74647">
        <ele>79.4</ele>
        <time>2018-05-16T23:25:32Z</time>
      </trkpt>
      <trkpt lat="44.53718" lon="0.74651">
        <ele>79.4</ele>
        <time>2018-05-16T23:25:33Z</time>
      </trkpt>
      <trkpt lat="44.5372" lon="0.74655">
        <ele>79.4</ele>
        <time>2018-05-16T23:25:34Z</time>
      </trkpt>
      <trkpt lat="44.53722" lon="0.74658">
        <ele>79.4</ele>
        <time>2018-05-16T23:25:35Z</time>
      </trkpt>
      <trkpt lat="44.53724" lon="0.74661">
        <ele>79.4</ele>
        <time>2018-05-16T23:25:36Z</time>
      </trkpt>
      <trkpt lat="44.53726" lon="0.74664">
        <ele>79.4</ele>
        <time>2018-05-16T23:25:37Z</time>
      </trkpt>
      <trkpt lat="44.53729" lon="0.74667">
        <ele>79.3</ele>
        <time>2018-05-16T23:25:38Z</time>
      </trkpt>
      <trkpt lat="44.53731" lon="0.74671">
        <ele>79.3</ele>
        <time>2018-05-16T23:25:39Z</time>
      </trkpt>
      <trkpt lat="44.53734" lon="0.74674">
        <ele>79.3</ele>
        <time>2018-05-16T23:25:40Z</time>
      </trkpt>
      <trkpt lat="44.53736" lon="0.74677">
        <ele>79.3</ele>
        <time>2018-05-16T23:25:41Z</time>
      </trkpt>
      <trkpt lat="44.53738" lon="0.7468">
        <ele>79.2</ele>
        <time>2018-05-16T23:25:42Z</time>
      </trkpt>
      <trkpt lat="44.5374" lon="0.74683">
        <ele>79.2</ele>
        <time>2018-05-16T23:25:43Z</time>
      </trkpt>
      <trkpt lat="44.53743" lon="0.74687">
        <ele>79.2</ele>
        <time>2018-05-16T23:25:44Z</time>
      </trkpt>
      <trkpt lat="44.53745" lon="0.74691">
        <ele>79.2</ele>
        <time>2018-05-16T23:25:45Z</time>
      </trkpt>
      <trkpt lat="44.53747" lon="0.74694">
        <ele>79.2</ele>
        <time>2018-05-16T23:25:46Z</time>
      </trkpt>
      <trkpt lat="44.53749" lon="0.74697">
        <ele>79.1</ele>
        <time>2018-05-16T23:25:47Z</time>
      </trkpt>
      <trkpt lat="44.53752" lon="0.74702">
        <ele>79.1</ele>
        <time>2018-05-16T23:25:49Z</time>
      </trkpt>
      <trkpt lat="44.53756" lon="0.74705">
        <ele>79.1</ele>
        <time>2018-05-16T23:25:51Z</time>
      </trkpt>
      <trkpt lat="44.53759" lon="0.74708">
        <ele>79</ele>
        <time>2018-05-16T23:25:53Z</time>
      </trkpt>
      <trkpt lat="44.53763" lon="0.7471">
        <ele>79</ele>
        <time>2018-05-16T23:25:55Z</time>
      </trkpt>
      <trkpt lat="44.53766" lon="0.74714">
        <ele>79</ele>
        <time>2018-05-16T23:25:57Z</time>
      </trkpt>
      <trkpt lat="44.53769" lon="0.74717">
        <ele>79</ele>
        <time>2018-05-16T23:25:58Z</time>
      </trkpt>
      <trkpt lat="44.53771" lon="0.7472">
        <ele>79</ele>
        <time>2018-05-16T23:25:59Z</time>
      </trkpt>
      <trkpt lat="44.53774" lon="0.74724">
        <ele>79</ele>
        <time>2018-05-16T23:26:00Z</time>
      </trkpt>
      <trkpt lat="44.53776" lon="0.74727">
        <ele>79</ele>
        <time>2018-05-16T23:26:01Z</time>
      </trkpt>
      <trkpt lat="44.53778" lon="0.7473">
        <ele>79.1</ele>
        <time>2018-05-16T23:26:02Z</time>
      </trkpt>
      <trkpt lat="44.5378" lon="0.74734">
        <ele>79.1</ele>
        <time>2018-05-16T23:26:03Z</time>
      </trkpt>
      <trkpt lat="44.53782" lon="0.74738">
        <ele>79.1</ele>
        <time>2018-05-16T23:26:04Z</time>
      </trkpt>
      <trkpt lat="44.53785" lon="0.74741">
        <ele>79.1</ele>
        <time>2018-05-16T23:26:05Z</time>
      </trkpt>
      <trkpt lat="44.53787" lon="0.74745">
        <ele>79.1</ele>
        <time>2018-05-16T23:26:06Z</time>
      </trkpt>
      <trkpt lat="44.5379" lon="0.74748">
        <ele>79.1</ele>
        <time>2018-05-16T23:26:07Z</time>
      </trkpt>
      <trkpt lat="44.53793" lon="0.74751">
        <ele>79.1</ele>
        <time>2018-05-16T23:26:08Z</time>
      </trkpt>
      <trkpt lat="44.53795" lon="0.74754">
        <ele>79.1</ele>
        <time>2018-05-16T23:26:09Z</time>
      </trkpt>
      <trkpt lat="44.53797" lon="0.74758">
        <ele>79.1</ele>
        <time>2018-05-16T23:26:10Z</time>
      </trkpt>
      <trkpt lat="44.538" lon="0.7476">
        <ele>79.1</ele>
        <time>2018-05-16T23:26:11Z</time>
      </trkpt>
      <trkpt lat="44.53802" lon="0.74764">
        <ele>79.1</ele>
        <time>2018-05-16T23:26:12Z</time>
      </trkpt>
      <trkpt lat="44.53804" lon="0.74767">
        <ele>79.1</ele>
        <time>2018-05-16T23:26:13Z</time>
      </trkpt>
      <trkpt lat="44.53806" lon="0.7477">
        <ele>79.1</ele>
        <time>2018-05-16T23:26:14Z</time>
      </trkpt>
      <trkpt lat="44.53808" lon="0.74774">
        <ele>79.1</ele>
        <time>2018-05-16T23:26:15Z</time>
      </trkpt>
      <trkpt lat="44.53811" lon="0.74776">
        <ele>79.1</ele>
        <time>2018-05-16T23:26:16Z</time>
      </trkpt>
      <trkpt lat="44.53813" lon="0.74779">
        <ele>79.1</ele>
        <time>2018-05-16T23:26:17Z</time>
      </trkpt>
      <trkpt lat="44.53816" lon="0.74782">
        <ele>79.1</ele>
        <time>2018-05-16T23:26:18Z</time>
      </trkpt>
      <trkpt lat="44.53819" lon="0.74784">
        <ele>79.2</ele>
        <time>2018-05-16T23:26:19Z</time>
      </trkpt>
      <trkpt lat="44.53822" lon="0.74787">
        <ele>79.2</ele>
        <time>2018-05-16T23:26:20Z</time>
      </trkpt>
      <trkpt lat="44.53825" lon="0.74789">
        <ele>79.2</ele>
        <time>2018-05-16T23:26:21Z</time>
      </trkpt>
      <trkpt lat="44.53829" lon="0.7479">
        <ele>79.2</ele>
        <time>2018-05-16T23:26:22Z</time>
      </trkpt>
      <trkpt lat="44.53832" lon="0.74792">
        <ele>79.2</ele>
        <time>2018-05-16T23:26:23Z</time>
      </trkpt>
      <trkpt lat="44.53836" lon="0.74793">
        <ele>79.2</ele>
        <time>2018-05-16T23:26:24Z</time>
      </trkpt>
      <trkpt lat="44.53839" lon="0.74794">
        <ele>79.2</ele>
        <time>2018-05-16T23:26:25Z</time>
      </trkpt>
      <trkpt lat="44.53842" lon="0.74795">
        <ele>79.2</ele>
        <time>2018-05-16T23:26:26Z</time>
      </trkpt>
      <trkpt lat="44.53846" lon="0.74796">
        <ele>79.2</ele>
        <time>2018-05-16T23:26:27Z</time>
      </trkpt>
      <trkpt lat="44.53849" lon="0.74797">
        <ele>79.2</ele>
        <time>2018-05-16T23:26:28Z</time>
      </trkpt>
      <trkpt lat="44.53852" lon="0.74798">
        <ele>79.2</ele>
        <time>2018-05-16T23:26:29Z</time>
      </trkpt>
      <trkpt lat="44.53855" lon="0.74799">
        <ele>79.2</ele>
        <time>2018-05-16T23:26:30Z</time>
      </trkpt>
      <trkpt lat="44.53859" lon="0.748">
        <ele>79.2</ele>
        <time>2018-05-16T23:26:31Z</time>
      </trkpt>
      <trkpt lat="44.53861" lon="0.74801">
        <ele>79.2</ele>
        <time>2018-05-16T23:26:32Z</time>
      </trkpt>
      <trkpt lat="44.53864" lon="0.74803">
        <ele>79.2</ele>
        <time>2018-05-16T23:26:33Z</time>
      </trkpt>
      <trkpt lat="44.53868" lon="0.74804">
        <ele>79.2</ele>
        <time>2018-05-16T23:26:34Z</time>
      </trkpt>
      <trkpt lat="44.53871" lon="0.74806">
        <ele>79.2</ele>
        <time>2018-05-16T23:26:35Z</time>
      </trkpt>
      <trkpt lat="44.53874" lon="0.74807">
        <ele>79.2</ele>
        <time>2018-05-16T23:26:36Z</time>
      </trkpt>
      <trkpt lat="44.53877" lon="0.74808">
        <ele>79.2</ele>
        <time>2018-05-16T23:26:37Z</time>
      </trkpt>
      <trkpt lat="44.5388" lon="0.74809">
        <ele>79.2</ele>
        <time>2018-05-16T23:26:38Z</time>
      </trkpt>
      <trkpt lat="44.53883" lon="0.7481">
        <ele>79.2</ele>
        <time>2018-05-16T23:26:39Z</time>
      </trkpt>
      <trkpt lat="44.53886" lon="0.74811">
        <ele>79.2</ele>
        <time>2018-05-16T23:26:40Z</time>
      </trkpt>
      <trkpt lat="44.53888" lon="0.74813">
        <ele>79.2</ele>
        <time>2018-05-16T23:26:41Z</time>
      </trkpt>
      <trkpt lat="44.53891" lon="0.74815">
        <ele>79.2</ele>
        <time>2018-05-16T23:26:42Z</time>
      </trkpt>
      <trkpt lat="44.53894" lon="0.74816">
        <ele>79.2</ele>
        <time>2018-05-16T23:26:43Z</time>
      </trkpt>
      <trkpt lat="44.53897" lon="0.74817">
        <ele>79.2</ele>
        <time>2018-05-16T23:26:44Z</time>
      </trkpt>
      <trkpt lat="44.539" lon="0.74817">
        <ele>79.2</ele>
        <time>2018-05-16T23:26:45Z</time>
      </trkpt>
      <trkpt lat="44.53903" lon="0.74818">
        <ele>79.2</ele>
        <time>2018-05-16T23:26:46Z</time>
      </trkpt>
      <trkpt lat="44.53906" lon="0.74819">
        <ele>79.3</ele>
        <time>2018-05-16T23:26:47Z</time>
      </trkpt>
      <trkpt lat="44.53909" lon="0.7482">
        <ele>79.3</ele>
        <time>2018-05-16T23:26:48Z</time>
      </trkpt>
      <trkpt lat="44.53912" lon="0.74821">
        <ele>79.3</ele>
        <time>2018-05-16T23:26:49Z</time>
      </trkpt>
      <trkpt lat="44.53915" lon="0.74823">
        <ele>79.3</ele>
        <time>2018-05-16T23:26:50Z</time>
      </trkpt>
      <trkpt lat="44.53918" lon="0.74824">
        <ele>79.3</ele>
        <time>2018-05-16T23:26:51Z</time>
      </trkpt>
      <trkpt lat="44.53921" lon="0.74825">
        <ele>79.3</ele>
        <time>2018-05-16T23:26:52Z</time>
      </trkpt>
      <trkpt lat="44.53924" lon="0.74827">
        <ele>79.3</ele>
        <time>2018-05-16T23:26:53Z</time>
      </trkpt>
      <trkpt lat="44.53927" lon="0.74828">
        <ele>79.3</ele>
        <time>2018-05-16T23:26:54Z</time>
      </trkpt>
      <trkpt lat="44.5393" lon="0.7483">
        <ele>79.3</ele>
        <time>2018-05-16T23:26:55Z</time>
      </trkpt>
      <trkpt lat="44.53933" lon="0.74831">
        <ele>79.3</ele>
        <time>2018-05-16T23:26:56Z</time>
      </trkpt>
      <trkpt lat="44.53937" lon="0.74832">
        <ele>79.3</ele>
        <time>2018-05-16T23:26:57Z</time>
      </trkpt>
      <trkpt lat="44.5394" lon="0.74834">
        <ele>79.3</ele>
        <time>2018-05-16T23:26:58Z</time>
      </trkpt>
      <trkpt lat="44.53943" lon="0.74836">
        <ele>79.3</ele>
        <time>2018-05-16T23:26:59Z</time>
      </trkpt>
      <trkpt lat="44.53946" lon="0.74837">
        <ele>79.3</ele>
        <time>2018-05-16T23:27:00Z</time>
      </trkpt>
      <trkpt lat="44.53949" lon="0.74839">
        <ele>79.3</ele>
        <time>2018-05-16T23:27:01Z</time>
      </trkpt>
      <trkpt lat="44.53952" lon="0.7484">
        <ele>79.3</ele>
        <time>2018-05-16T23:27:02Z</time>
      </trkpt>
      <trkpt lat="44.53956" lon="0.74841">
        <ele>79.3</ele>
        <time>2018-05-16T23:27:03Z</time>
      </trkpt>
      <trkpt lat="44.53959" lon="0.74842">
        <ele>79.3</ele>
        <time>2018-05-16T23:27:04Z</time>
      </trkpt>
      <trkpt lat="44.53962" lon="0.74844">
        <ele>79.3</ele>
        <time>2018-05-16T23:27:05Z</time>
      </trkpt>
      <trkpt lat="44.53964" lon="0.74846">
        <ele>79.3</ele>
        <time>2018-05-16T23:27:06Z</time>
      </trkpt>
      <trkpt lat="44.53969" lon="0.74849">
        <ele>79.3</ele>
        <time>2018-05-16T23:27:08Z</time>
      </trkpt>
      <trkpt lat="44.53972" lon="0.7485">
        <ele>79.3</ele>
        <time>2018-05-16T23:27:09Z</time>
      </trkpt>
      <trkpt lat="44.53974" lon="0.74851">
        <ele>79.3</ele>
        <time>2018-05-16T23:27:10Z</time>
      </trkpt>
      <trkpt lat="44.53978" lon="0.74852">
        <ele>79.3</ele>
        <time>2018-05-16T23:27:11Z</time>
      </trkpt>
      <trkpt lat="44.53981" lon="0.74853">
        <ele>79.3</ele>
        <time>2018-05-16T23:27:12Z</time>
      </trkpt>
      <trkpt lat="44.53984" lon="0.74854">
        <ele>79.3</ele>
        <time>2018-05-16T23:27:13Z</time>
      </trkpt>
      <trkpt lat="44.53987" lon="0.74856">
        <ele>79.3</ele>
        <time>2018-05-16T23:27:14Z</time>
      </trkpt>
      <trkpt lat="44.5399" lon="0.74858">
        <ele>79.3</ele>
        <time>2018-05-16T23:27:15Z</time>
      </trkpt>
      <trkpt lat="44.53993" lon="0.7486">
        <ele>79.3</ele>
        <time>2018-05-16T23:27:16Z</time>
      </trkpt>
      <trkpt lat="44.53996" lon="0.74861">
        <ele>79.4</ele>
        <time>2018-05-16T23:27:17Z</time>
      </trkpt>
      <trkpt lat="44.53998" lon="0.74862">
        <ele>79.4</ele>
        <time>2018-05-16T23:27:18Z</time>
      </trkpt>
      <trkpt lat="44.54001" lon="0.74863">
        <ele>79.4</ele>
        <time>2018-05-16T23:27:19Z</time>
      </trkpt>
      <trkpt lat="44.54004" lon="0.74864">
        <ele>79.4</ele>
        <time>2018-05-16T23:27:20Z</time>
      </trkpt>
      <trkpt lat="44.54007" lon="0.74865">
        <ele>79.4</ele>
        <time>2018-05-16T23:27:21Z</time>
      </trkpt>
      <trkpt lat="44.54012" lon="0.74867">
        <ele>79.4</ele>
        <time>2018-05-16T23:27:23Z</time>
      </trkpt>
      <trkpt lat="44.54015" lon="0.74868">
        <ele>79.4</ele>
        <time>2018-05-16T23:27:24Z</time>
      </trkpt>
      <trkpt lat="44.54018" lon="0.7487">
        <ele>79.4</ele>
        <time>2018-05-16T23:27:25Z</time>
      </trkpt>
      <trkpt lat="44.54021" lon="0.74871">
        <ele>79.4</ele>
        <time>2018-05-16T23:27:26Z</time>
      </trkpt>
      <trkpt lat="44.54024" lon="0.74872">
        <ele>79.4</ele>
        <time>2018-05-16T23:27:27Z</time>
      </trkpt>
      <trkpt lat="44.54027" lon="0.74873">
        <ele>79.4</ele>
        <time>2018-05-16T23:27:28Z</time>
      </trkpt>
      <trkpt lat="44.54031" lon="0.74874">
        <ele>79.4</ele>
        <time>2018-05-16T23:27:29Z</time>
      </trkpt>
      <trkpt lat="44.54034" lon="0.74876">
        <ele>79.5</ele>
        <time>2018-05-16T23:27:30Z</time>
      </trkpt>
      <trkpt lat="44.54039" lon="0.74879">
        <ele>79.5</ele>
        <time>2018-05-16T23:27:31Z</time>
      </trkpt>
      <trkpt lat="44.54043" lon="0.74881">
        <ele>79.5</ele>
        <time>2018-05-16T23:27:32Z</time>
      </trkpt>
      <trkpt lat="44.54047" lon="0.74883">
        <ele>79.5</ele>
        <time>2018-05-16T23:27:33Z</time>
      </trkpt>
      <trkpt lat="44.5405" lon="0.74885">
        <ele>79.5</ele>
        <time>2018-05-16T23:27:34Z</time>
      </trkpt>
      <trkpt lat="44.54054" lon="0.74887">
        <ele>79.5</ele>
        <time>2018-05-16T23:27:35Z</time>
      </trkpt>
      <trkpt lat="44.54058" lon="0.7489">
        <ele>79.5</ele>
        <time>2018-05-16T23:27:36Z</time>
      </trkpt>
      <trkpt lat="44.54061" lon="0.74892">
        <ele>79.6</ele>
        <time>2018-05-16T23:27:37Z</time>
      </trkpt>
      <trkpt lat="44.54064" lon="0.74894">
        <ele>79.6</ele>
        <time>2018-05-16T23:27:38Z</time>
      </trkpt>
      <trkpt lat="44.54067" lon="0.74896">
        <ele>79.6</ele>
        <time>2018-05-16T23:27:39Z</time>
      </trkpt>
      <trkpt lat="44.5407" lon="0.74899">
        <ele>79.6</ele>
        <time>2018-05-16T23:27:40Z</time>
      </trkpt>
      <trkpt lat="44.54073" lon="0.74901">
        <ele>79.6</ele>
        <time>2018-05-16T23:27:41Z</time>
      </trkpt>
      <trkpt lat="44.54076" lon="0.74904">
        <ele>79.6</ele>
        <time>2018-05-16T23:27:42Z</time>
      </trkpt>
      <trkpt lat="44.54079" lon="0.74907">
        <ele>79.6</ele>
        <time>2018-05-16T23:27:43Z</time>
      </trkpt>
      <trkpt lat="44.54082" lon="0.74909">
        <ele>79.6</ele>
        <time>2018-05-16T23:27:44Z</time>
      </trkpt>
      <trkpt lat="44.54085" lon="0.74912">
        <ele>79.6</ele>
        <time>2018-05-16T23:27:45Z</time>
      </trkpt>
      <trkpt lat="44.54087" lon="0.74915">
        <ele>79.6</ele>
        <time>2018-05-16T23:27:46Z</time>
      </trkpt>
      <trkpt lat="44.5409" lon="0.74918">
        <ele>79.6</ele>
        <time>2018-05-16T23:27:47Z</time>
      </trkpt>
      <trkpt lat="44.54093" lon="0.74921">
        <ele>79.6</ele>
        <time>2018-05-16T23:27:48Z</time>
      </trkpt>
      <trkpt lat="44.54096" lon="0.74924">
        <ele>79.6</ele>
        <time>2018-05-16T23:27:49Z</time>
      </trkpt>
      <trkpt lat="44.54099" lon="0.74927">
        <ele>79.6</ele>
        <time>2018-05-16T23:27:50Z</time>
      </trkpt>
      <trkpt lat="44.54101" lon="0.7493">
        <ele>79.6</ele>
        <time>2018-05-16T23:27:51Z</time>
      </trkpt>
      <trkpt lat="44.54104" lon="0.74934">
        <ele>79.6</ele>
        <time>2018-05-16T23:27:52Z</time>
      </trkpt>
      <trkpt lat="44.54107" lon="0.74938">
        <ele>79.6</ele>
        <time>2018-05-16T23:27:53Z</time>
      </trkpt>
      <trkpt lat="44.5411" lon="0.74942">
        <ele>79.6</ele>
        <time>2018-05-16T23:27:54Z</time>
      </trkpt>
      <trkpt lat="44.54113" lon="0.74946">
        <ele>79.6</ele>
        <time>2018-05-16T23:27:55Z</time>
      </trkpt>
      <trkpt lat="44.54115" lon="0.74949">
        <ele>79.7</ele>
        <time>2018-05-16T23:27:56Z</time>
      </trkpt>
      <trkpt lat="44.54118" lon="0.74953">
        <ele>79.7</ele>
        <time>2018-05-16T23:27:57Z</time>
      </trkpt>
      <trkpt lat="44.54121" lon="0.74957">
        <ele>79.7</ele>
        <time>2018-05-16T23:27:58Z</time>
      </trkpt>
      <trkpt lat="44.54124" lon="0.74961">
        <ele>79.7</ele>
        <time>2018-05-16T23:27:59Z</time>
      </trkpt>
      <trkpt lat="44.54126" lon="0.74965">
        <ele>79.7</ele>
        <time>2018-05-16T23:28:00Z</time>
      </trkpt>
      <trkpt lat="44.54128" lon="0.74969">
        <ele>79.7</ele>
        <time>2018-05-16T23:28:01Z</time>
      </trkpt>
      <trkpt lat="44.54131" lon="0.74973">
        <ele>79.7</ele>
        <time>2018-05-16T23:28:02Z</time>
      </trkpt>
      <trkpt lat="44.54133" lon="0.74977">
        <ele>79.7</ele>
        <time>2018-05-16T23:28:03Z</time>
      </trkpt>
      <trkpt lat="44.54135" lon="0.74981">
        <ele>79.7</ele>
        <time>2018-05-16T23:28:04Z</time>
      </trkpt>
      <trkpt lat="44.54137" lon="0.74985">
        <ele>79.7</ele>
        <time>2018-05-16T23:28:05Z</time>
      </trkpt>
      <trkpt lat="44.54139" lon="0.74989">
        <ele>79.7</ele>
        <time>2018-05-16T23:28:06Z</time>
      </trkpt>
      <trkpt lat="44.54142" lon="0.74994">
        <ele>79.7</ele>
        <time>2018-05-16T23:28:07Z</time>
      </trkpt>
      <trkpt lat="44.54143" lon="0.74998">
        <ele>79.7</ele>
        <time>2018-05-16T23:28:08Z</time>
      </trkpt>
      <trkpt lat="44.54145" lon="0.75002">
        <ele>79.7</ele>
        <time>2018-05-16T23:28:09Z</time>
      </trkpt>
      <trkpt lat="44.54147" lon="0.75006">
        <ele>79.7</ele>
        <time>2018-05-16T23:28:10Z</time>
      </trkpt>
      <trkpt lat="44.54149" lon="0.7501">
        <ele>79.7</ele>
        <time>2018-05-16T23:28:11Z</time>
      </trkpt>
      <trkpt lat="44.54151" lon="0.75014">
        <ele>79.7</ele>
        <time>2018-05-16T23:28:12Z</time>
      </trkpt>
      <trkpt lat="44.54154" lon="0.75018">
        <ele>79.7</ele>
        <time>2018-05-16T23:28:13Z</time>
      </trkpt>
      <trkpt lat="44.54156" lon="0.75023">
        <ele>79.7</ele>
        <time>2018-05-16T23:28:14Z</time>
      </trkpt>
      <trkpt lat="44.54158" lon="0.75028">
        <ele>79.7</ele>
        <time>2018-05-16T23:28:15Z</time>
      </trkpt>
      <trkpt lat="44.5416" lon="0.75032">
        <ele>79.7</ele>
        <time>2018-05-16T23:28:16Z</time>
      </trkpt>
      <trkpt lat="44.54162" lon="0.75037">
        <ele>79.7</ele>
        <time>2018-05-16T23:28:17Z</time>
      </trkpt>
      <trkpt lat="44.54164" lon="0.75041">
        <ele>79.7</ele>
        <time>2018-05-16T23:28:18Z</time>
      </trkpt>
      <trkpt lat="44.54166" lon="0.75045">
        <ele>79.7</ele>
        <time>2018-05-16T23:28:19Z</time>
      </trkpt>
      <trkpt lat="44.54167" lon="0.75048">
        <ele>79.7</ele>
        <time>2018-05-16T23:28:20Z</time>
      </trkpt>
      <trkpt lat="44.54169" lon="0.75052">
        <ele>79.7</ele>
        <time>2018-05-16T23:28:21Z</time>
      </trkpt>
      <trkpt lat="44.5417" lon="0.75057">
        <ele>79.7</ele>
        <time>2018-05-16T23:28:22Z</time>
      </trkpt>
      <trkpt lat="44.54172" lon="0.75061">
        <ele>79.7</ele>
        <time>2018-05-16T23:28:23Z</time>
      </trkpt>
      <trkpt lat="44.54174" lon="0.75066">
        <ele>79.7</ele>
        <time>2018-05-16T23:28:24Z</time>
      </trkpt>
      <trkpt lat="44.54176" lon="0.7507">
        <ele>79.8</ele>
        <time>2018-05-16T23:28:25Z</time>
      </trkpt>
      <trkpt lat="44.54179" lon="0.75074">
        <ele>79.8</ele>
        <time>2018-05-16T23:28:26Z</time>
      </trkpt>
      <trkpt lat="44.54181" lon="0.75078">
        <ele>79.8</ele>
        <time>2018-05-16T23:28:27Z</time>
      </trkpt>
      <trkpt lat="44.54183" lon="0.75081">
        <ele>79.8</ele>
        <time>2018-05-16T23:28:28Z</time>
      </trkpt>
      <trkpt lat="44.54186" lon="0.75084">
        <ele>79.8</ele>
        <time>2018-05-16T23:28:29Z</time>
      </trkpt>
      <trkpt lat="44.54188" lon="0.75086">
        <ele>79.8</ele>
        <time>2018-05-16T23:28:30Z</time>
      </trkpt>
      <trkpt lat="44.54191" lon="0.75089">
        <ele>79.8</ele>
        <time>2018-05-16T23:28:31Z</time>
      </trkpt>
      <trkpt lat="44.54194" lon="0.75091">
        <ele>79.8</ele>
        <time>2018-05-16T23:28:32Z</time>
      </trkpt>
      <trkpt lat="44.54198" lon="0.75093">
        <ele>79.8</ele>
        <time>2018-05-16T23:28:33Z</time>
      </trkpt>
      <trkpt lat="44.54201" lon="0.75095">
        <ele>79.8</ele>
        <time>2018-05-16T23:28:34Z</time>
      </trkpt>
      <trkpt lat="44.54204" lon="0.75097">
        <ele>79.8</ele>
        <time>2018-05-16T23:28:35Z</time>
      </trkpt>
      <trkpt lat="44.54207" lon="0.75099">
        <ele>79.8</ele>
        <time>2018-05-16T23:28:36Z</time>
      </trkpt>
      <trkpt lat="44.5421" lon="0.75101">
        <ele>79.8</ele>
        <time>2018-05-16T23:28:37Z</time>
      </trkpt>
      <trkpt lat="44.54213" lon="0.75103">
        <ele>79.8</ele>
        <time>2018-05-16T23:28:38Z</time>
      </trkpt>
      <trkpt lat="44.54216" lon="0.75105">
        <ele>79.8</ele>
        <time>2018-05-16T23:28:39Z</time>
      </trkpt>
      <trkpt lat="44.54219" lon="0.75107">
        <ele>79.8</ele>
        <time>2018-05-16T23:28:40Z</time>
      </trkpt>
      <trkpt lat="44.54221" lon="0.75109">
        <ele>79.8</ele>
        <time>2018-05-16T23:28:41Z</time>
      </trkpt>
      <trkpt lat="44.54224" lon="0.75111">
        <ele>79.8</ele>
        <time>2018-05-16T23:28:42Z</time>
      </trkpt>
      <trkpt lat="44.54227" lon="0.75114">
        <ele>79.8</ele>
        <time>2018-05-16T23:28:43Z</time>
      </trkpt>
      <trkpt lat="44.5423" lon="0.75116">
        <ele>79.8</ele>
        <time>2018-05-16T23:28:44Z</time>
      </trkpt>
      <trkpt lat="44.54232" lon="0.75119">
        <ele>79.8</ele>
        <time>2018-05-16T23:28:45Z</time>
      </trkpt>
      <trkpt lat="44.54235" lon="0.75122">
        <ele>79.9</ele>
        <time>2018-05-16T23:28:46Z</time>
      </trkpt>
      <trkpt lat="44.54237" lon="0.75124">
        <ele>79.9</ele>
        <time>2018-05-16T23:28:47Z</time>
      </trkpt>
      <trkpt lat="44.5424" lon="0.75127">
        <ele>79.9</ele>
        <time>2018-05-16T23:28:48Z</time>
      </trkpt>
      <trkpt lat="44.54242" lon="0.7513">
        <ele>79.9</ele>
        <time>2018-05-16T23:28:49Z</time>
      </trkpt>
      <trkpt lat="44.54243" lon="0.75134">
        <ele>79.9</ele>
        <time>2018-05-16T23:28:50Z</time>
      </trkpt>
      <trkpt lat="44.54245" lon="0.75138">
        <ele>79.9</ele>
        <time>2018-05-16T23:28:51Z</time>
      </trkpt>
      <trkpt lat="44.54246" lon="0.75142">
        <ele>79.9</ele>
        <time>2018-05-16T23:28:52Z</time>
      </trkpt>
      <trkpt lat="44.54248" lon="0.75146">
        <ele>79.9</ele>
        <time>2018-05-16T23:28:53Z</time>
      </trkpt>
      <trkpt lat="44.5425" lon="0.75151">
        <ele>79.9</ele>
        <time>2018-05-16T23:28:54Z</time>
      </trkpt>
      <trkpt lat="44.54251" lon="0.75155">
        <ele>79.9</ele>
        <time>2018-05-16T23:28:55Z</time>
      </trkpt>
      <trkpt lat="44.54252" lon="0.7516">
        <ele>79.9</ele>
        <time>2018-05-16T23:28:56Z</time>
      </trkpt>
      <trkpt lat="44.54253" lon="0.75165">
        <ele>80</ele>
        <time>2018-05-16T23:28:57Z</time>
      </trkpt>
      <trkpt lat="44.54254" lon="0.7517">
        <ele>80</ele>
        <time>2018-05-16T23:28:58Z</time>
      </trkpt>
      <trkpt lat="44.54255" lon="0.75174">
        <ele>80</ele>
        <time>2018-05-16T23:28:59Z</time>
      </trkpt>
      <trkpt lat="44.54255" lon="0.75179">
        <ele>80</ele>
        <time>2018-05-16T23:29:00Z</time>
      </trkpt>
      <trkpt lat="44.54255" lon="0.75184">
        <ele>80</ele>
        <time>2018-05-16T23:29:01Z</time>
      </trkpt>
      <trkpt lat="44.54255" lon="0.75189">
        <ele>80</ele>
        <time>2018-05-16T23:29:02Z</time>
      </trkpt>
      <trkpt lat="44.54255" lon="0.75193">
        <ele>80</ele>
        <time>2018-05-16T23:29:03Z</time>
      </trkpt>
      <trkpt lat="44.54256" lon="0.75198">
        <ele>80</ele>
        <time>2018-05-16T23:29:04Z</time>
      </trkpt>
      <trkpt lat="44.54256" lon="0.75204">
        <ele>80</ele>
        <time>2018-05-16T23:29:05Z</time>
      </trkpt>
      <trkpt lat="44.54256" lon="0.75209">
        <ele>79.9</ele>
        <time>2018-05-16T23:29:06Z</time>
      </trkpt>
      <trkpt lat="44.54256" lon="0.75214">
        <ele>79.9</ele>
        <time>2018-05-16T23:29:07Z</time>
      </trkpt>
      <trkpt lat="44.54257" lon="0.75219">
        <ele>79.9</ele>
        <time>2018-05-16T23:29:08Z</time>
      </trkpt>
      <trkpt lat="44.54258" lon="0.75224">
        <ele>79.9</ele>
        <time>2018-05-16T23:29:09Z</time>
      </trkpt>
      <trkpt lat="44.54259" lon="0.75228">
        <ele>79.9</ele>
        <time>2018-05-16T23:29:10Z</time>
      </trkpt>
      <trkpt lat="44.5426" lon="0.75233">
        <ele>79.8</ele>
        <time>2018-05-16T23:29:11Z</time>
      </trkpt>
      <trkpt lat="44.54261" lon="0.75237">
        <ele>79.9</ele>
        <time>2018-05-16T23:29:12Z</time>
      </trkpt>
      <trkpt lat="44.54262" lon="0.75241">
        <ele>79.8</ele>
        <time>2018-05-16T23:29:13Z</time>
      </trkpt>
      <trkpt lat="44.54263" lon="0.75245">
        <ele>79.8</ele>
        <time>2018-05-16T23:29:14Z</time>
      </trkpt>
      <trkpt lat="44.54265" lon="0.75249">
        <ele>79.9</ele>
        <time>2018-05-16T23:29:15Z</time>
      </trkpt>
      <trkpt lat="44.54266" lon="0.75253">
        <ele>79.8</ele>
        <time>2018-05-16T23:29:16Z</time>
      </trkpt>
      <trkpt lat="44.54267" lon="0.75257">
        <ele>79.9</ele>
        <time>2018-05-16T23:29:17Z</time>
      </trkpt>
      <trkpt lat="44.54269" lon="0.75261">
        <ele>79.8</ele>
        <time>2018-05-16T23:29:18Z</time>
      </trkpt>
      <trkpt lat="44.5427" lon="0.75265">
        <ele>79.8</ele>
        <time>2018-05-16T23:29:19Z</time>
      </trkpt>
      <trkpt lat="44.54272" lon="0.75269">
        <ele>79.8</ele>
        <time>2018-05-16T23:29:20Z</time>
      </trkpt>
      <trkpt lat="44.54273" lon="0.75272">
        <ele>79.9</ele>
        <time>2018-05-16T23:29:21Z</time>
      </trkpt>
      <trkpt lat="44.54275" lon="0.75276">
        <ele>80</ele>
        <time>2018-05-16T23:29:22Z</time>
      </trkpt>
      <trkpt lat="44.54276" lon="0.7528">
        <ele>80.2</ele>
        <time>2018-05-16T23:29:23Z</time>
      </trkpt>
      <trkpt lat="44.54277" lon="0.75283">
        <ele>80.3</ele>
        <time>2018-05-16T23:29:24Z</time>
      </trkpt>
      <trkpt lat="44.54276" lon="0.7529">
        <ele>80.5</ele>
        <time>2018-05-16T23:29:26Z</time>
      </trkpt>
      <trkpt lat="44.54276" lon="0.75294">
        <ele>80.7</ele>
        <time>2018-05-16T23:29:27Z</time>
      </trkpt>
      <trkpt lat="44.54276" lon="0.75299">
        <ele>81.2</ele>
        <time>2018-05-16T23:29:28Z</time>
      </trkpt>
      <trkpt lat="44.54275" lon="0.75304">
        <ele>81.6</ele>
        <time>2018-05-16T23:29:29Z</time>
      </trkpt>
      <trkpt lat="44.54275" lon="0.75308">
        <ele>81.9</ele>
        <time>2018-05-16T23:29:30Z</time>
      </trkpt>
      <trkpt lat="44.54275" lon="0.75312">
        <ele>81.9</ele>
        <time>2018-05-16T23:29:31Z</time>
      </trkpt>
      <trkpt lat="44.54275" lon="0.75319">
        <ele>82.8</ele>
        <time>2018-05-16T23:29:33Z</time>
      </trkpt>
      <trkpt lat="44.54275" lon="0.75323">
        <ele>83.2</ele>
        <time>2018-05-16T23:29:34Z</time>
      </trkpt>
      <trkpt lat="44.54276" lon="0.7533">
        <ele>84.1</ele>
        <time>2018-05-16T23:29:36Z</time>
      </trkpt>
      <trkpt lat="44.54278" lon="0.75337">
        <ele>84.4</ele>
        <time>2018-05-16T23:29:38Z</time>
      </trkpt>
      <trkpt lat="44.54279" lon="0.75341">
        <ele>84.9</ele>
        <time>2018-05-16T23:29:39Z</time>
      </trkpt>
      <trkpt lat="44.54281" lon="0.75345">
        <ele>85.2</ele>
        <time>2018-05-16T23:29:40Z</time>
      </trkpt>
      <trkpt lat="44.54283" lon="0.75348">
        <ele>85.6</ele>
        <time>2018-05-16T23:29:41Z</time>
      </trkpt>
      <trkpt lat="44.54285" lon="0.75351">
        <ele>85.4</ele>
        <time>2018-05-16T23:29:42Z</time>
      </trkpt>
      <trkpt lat="44.54287" lon="0.75354">
        <ele>85.6</ele>
        <time>2018-05-16T23:29:43Z</time>
      </trkpt>
      <trkpt lat="44.5429" lon="0.75357">
        <ele>85.8</ele>
        <time>2018-05-16T23:29:44Z</time>
      </trkpt>
      <trkpt lat="44.54292" lon="0.7536">
        <ele>86.3</ele>
        <time>2018-05-16T23:29:45Z</time>
      </trkpt>
      <trkpt lat="44.54295" lon="0.75363">
        <ele>86</ele>
        <time>2018-05-16T23:29:46Z</time>
      </trkpt>
      <trkpt lat="44.54297" lon="0.75367">
        <ele>86.1</ele>
        <time>2018-05-16T23:29:47Z</time>
      </trkpt>
      <trkpt lat="44.54299" lon="0.7537">
        <ele>86.2</ele>
        <time>2018-05-16T23:29:48Z</time>
      </trkpt>
      <trkpt lat="44.54301" lon="0.75373">
        <ele>86.7</ele>
        <time>2018-05-16T23:29:49Z</time>
      </trkpt>
      <trkpt lat="44.54304" lon="0.75376">
        <ele>86.3</ele>
        <time>2018-05-16T23:29:50Z</time>
      </trkpt>
      <trkpt lat="44.54306" lon="0.75378">
        <ele>86.3</ele>
        <time>2018-05-16T23:29:51Z</time>
      </trkpt>
      <trkpt lat="44.5431" lon="0.75384">
        <ele>86.3</ele>
        <time>2018-05-16T23:29:53Z</time>
      </trkpt>
      <trkpt lat="44.54312" lon="0.75387">
        <ele>86.4</ele>
        <time>2018-05-16T23:29:54Z</time>
      </trkpt>
      <trkpt lat="44.54315" lon="0.7539">
        <ele>86.4</ele>
        <time>2018-05-16T23:29:55Z</time>
      </trkpt>
      <trkpt lat="44.54319" lon="0.75393">
        <ele>86</ele>
        <time>2018-05-16T23:29:56Z</time>
      </trkpt>
      <trkpt lat="44.54322" lon="0.75397">
        <ele>86</ele>
        <time>2018-05-16T23:29:57Z</time>
      </trkpt>
      <trkpt lat="44.54325" lon="0.754">
        <ele>86</ele>
        <time>2018-05-16T23:29:58Z</time>
      </trkpt>
      <trkpt lat="44.54329" lon="0.75404">
        <ele>85.9</ele>
        <time>2018-05-16T23:29:59Z</time>
      </trkpt>
      <trkpt lat="44.54332" lon="0.75408">
        <ele>85.9</ele>
        <time>2018-05-16T23:30:00Z</time>
      </trkpt>
      <trkpt lat="44.54335" lon="0.75412">
        <ele>85.9</ele>
        <time>2018-05-16T23:30:01Z</time>
      </trkpt>
      <trkpt lat="44.54338" lon="0.75416">
        <ele>85.9</ele>
        <time>2018-05-16T23:30:02Z</time>
      </trkpt>
      <trkpt lat="44.54339" lon="0.75419">
        <ele>85.5</ele>
        <time>2018-05-16T23:30:03Z</time>
      </trkpt>
      <trkpt lat="44.54342" lon="0.75422">
        <ele>85.5</ele>
        <time>2018-05-16T23:30:06Z</time>
      </trkpt>
      <trkpt lat="44.54345" lon="0.75425">
        <ele>85.4</ele>
        <time>2018-05-16T23:30:08Z</time>
      </trkpt>
      <trkpt lat="44.54347" lon="0.75427">
        <ele>85.4</ele>
        <time>2018-05-16T23:30:09Z</time>
      </trkpt>
      <trkpt lat="44.5435" lon="0.7543">
        <ele>85.3</ele>
        <time>2018-05-16T23:30:10Z</time>
      </trkpt>
      <trkpt lat="44.54354" lon="0.75435">
        <ele>84.6</ele>
        <time>2018-05-16T23:30:12Z</time>
      </trkpt>
      <trkpt lat="44.54356" lon="0.75438">
        <ele>84.8</ele>
        <time>2018-05-16T23:30:13Z</time>
      </trkpt>
      <trkpt lat="44.54358" lon="0.75441">
        <ele>84.3</ele>
        <time>2018-05-16T23:30:14Z</time>
      </trkpt>
      <trkpt lat="44.5436" lon="0.75445">
        <ele>84</ele>
        <time>2018-05-16T23:30:15Z</time>
      </trkpt>
      <trkpt lat="44.54361" lon="0.7545">
        <ele>84.3</ele>
        <time>2018-05-16T23:30:16Z</time>
      </trkpt>
      <trkpt lat="44.54362" lon="0.75455">
        <ele>84.5</ele>
        <time>2018-05-16T23:30:17Z</time>
      </trkpt>
      <trkpt lat="44.54363" lon="0.75459">
        <ele>84.1</ele>
        <time>2018-05-16T23:30:18Z</time>
      </trkpt>
      <trkpt lat="44.54365" lon="0.75464">
        <ele>84.2</ele>
        <time>2018-05-16T23:30:19Z</time>
      </trkpt>
      <trkpt lat="44.54366" lon="0.75469">
        <ele>83.9</ele>
        <time>2018-05-16T23:30:20Z</time>
      </trkpt>
      <trkpt lat="44.54368" lon="0.75474">
        <ele>84</ele>
        <time>2018-05-16T23:30:21Z</time>
      </trkpt>
      <trkpt lat="44.54369" lon="0.75479">
        <ele>84.1</ele>
        <time>2018-05-16T23:30:22Z</time>
      </trkpt>
      <trkpt lat="44.5437" lon="0.75484">
        <ele>84</ele>
        <time>2018-05-16T23:30:23Z</time>
      </trkpt>
      <trkpt lat="44.5437" lon="0.75489">
        <ele>84.2</ele>
        <time>2018-05-16T23:30:24Z</time>
      </trkpt>
      <trkpt lat="44.54372" lon="0.75493">
        <ele>84.5</ele>
        <time>2018-05-16T23:30:25Z</time>
      </trkpt>
      <trkpt lat="44.54373" lon="0.75498">
        <ele>84.3</ele>
        <time>2018-05-16T23:30:26Z</time>
      </trkpt>
      <trkpt lat="44.54374" lon="0.75502">
        <ele>84.6</ele>
        <time>2018-05-16T23:30:27Z</time>
      </trkpt>
      <trkpt lat="44.54375" lon="0.75508">
        <ele>84.8</ele>
        <time>2018-05-16T23:30:28Z</time>
      </trkpt>
      <trkpt lat="44.54376" lon="0.75514">
        <ele>84.6</ele>
        <time>2018-05-16T23:30:29Z</time>
      </trkpt>
      <trkpt lat="44.54377" lon="0.75518">
        <ele>84.9</ele>
        <time>2018-05-16T23:30:30Z</time>
      </trkpt>
      <trkpt lat="44.54379" lon="0.75523">
        <ele>84.5</ele>
        <time>2018-05-16T23:30:31Z</time>
      </trkpt>
      <trkpt lat="44.54381" lon="0.75527">
        <ele>84.6</ele>
        <time>2018-05-16T23:30:32Z</time>
      </trkpt>
      <trkpt lat="44.54384" lon="0.7553">
        <ele>84.1</ele>
        <time>2018-05-16T23:30:33Z</time>
      </trkpt>
      <trkpt lat="44.54387" lon="0.75533">
        <ele>83.6</ele>
        <time>2018-05-16T23:30:34Z</time>
      </trkpt>
      <trkpt lat="44.5439" lon="0.75537">
        <ele>83.2</ele>
        <time>2018-05-16T23:30:35Z</time>
      </trkpt>
      <trkpt lat="44.54393" lon="0.75542">
        <ele>82.8</ele>
        <time>2018-05-16T23:30:36Z</time>
      </trkpt>
      <trkpt lat="44.54395" lon="0.75547">
        <ele>82.5</ele>
        <time>2018-05-16T23:30:37Z</time>
      </trkpt>
      <trkpt lat="44.54397" lon="0.75552">
        <ele>82.1</ele>
        <time>2018-05-16T23:30:38Z</time>
      </trkpt>
      <trkpt lat="44.54399" lon="0.75557">
        <ele>82.3</ele>
        <time>2018-05-16T23:30:39Z</time>
      </trkpt>
      <trkpt lat="44.544" lon="0.75563">
        <ele>81.9</ele>
        <time>2018-05-16T23:30:40Z</time>
      </trkpt>
      <trkpt lat="44.54402" lon="0.75568">
        <ele>81.9</ele>
        <time>2018-05-16T23:30:41Z</time>
      </trkpt>
      <trkpt lat="44.54404" lon="0.75573">
        <ele>81.5</ele>
        <time>2018-05-16T23:30:42Z</time>
      </trkpt>
      <trkpt lat="44.54405" lon="0.75577">
        <ele>81.5</ele>
        <time>2018-05-16T23:30:43Z</time>
      </trkpt>
      <trkpt lat="44.54406" lon="0.75582">
        <ele>81.1</ele>
        <time>2018-05-16T23:30:44Z</time>
      </trkpt>
      <trkpt lat="44.54407" lon="0.75588">
        <ele>81.1</ele>
        <time>2018-05-16T23:30:45Z</time>
      </trkpt>
      <trkpt lat="44.54409" lon="0.75594">
        <ele>81.1</ele>
        <time>2018-05-16T23:30:46Z</time>
      </trkpt>
      <trkpt lat="44.5441" lon="0.756">
        <ele>80.7</ele>
        <time>2018-05-16T23:30:47Z</time>
      </trkpt>
      <trkpt lat="44.54411" lon="0.75605">
        <ele>80.8</ele>
        <time>2018-05-16T23:30:48Z</time>
      </trkpt>
      <trkpt lat="44.54413" lon="0.75611">
        <ele>80.5</ele>
        <time>2018-05-16T23:30:49Z</time>
      </trkpt>
      <trkpt lat="44.54414" lon="0.75616">
        <ele>80.6</ele>
        <time>2018-05-16T23:30:50Z</time>
      </trkpt>
      <trkpt lat="44.54416" lon="0.75621">
        <ele>80.3</ele>
        <time>2018-05-16T23:30:51Z</time>
      </trkpt>
      <trkpt lat="44.54418" lon="0.75625">
        <ele>80.1</ele>
        <time>2018-05-16T23:30:52Z</time>
      </trkpt>
      <trkpt lat="44.54421" lon="0.7563">
        <ele>80.2</ele>
        <time>2018-05-16T23:30:53Z</time>
      </trkpt>
      <trkpt lat="44.54423" lon="0.75634">
        <ele>80</ele>
        <time>2018-05-16T23:30:54Z</time>
      </trkpt>
      <trkpt lat="44.54424" lon="0.75639">
        <ele>79.9</ele>
        <time>2018-05-16T23:30:55Z</time>
      </trkpt>
      <trkpt lat="44.54426" lon="0.75644">
        <ele>79.9</ele>
        <time>2018-05-16T23:30:56Z</time>
      </trkpt>
      <trkpt lat="44.54427" lon="0.75648">
        <ele>79.8</ele>
        <time>2018-05-16T23:30:57Z</time>
      </trkpt>
      <trkpt lat="44.54429" lon="0.75653">
        <ele>79.9</ele>
        <time>2018-05-16T23:30:58Z</time>
      </trkpt>
      <trkpt lat="44.54431" lon="0.75658">
        <ele>79.8</ele>
        <time>2018-05-16T23:30:59Z</time>
      </trkpt>
      <trkpt lat="44.54432" lon="0.75662">
        <ele>79.9</ele>
        <time>2018-05-16T23:31:00Z</time>
      </trkpt>
      <trkpt lat="44.54434" lon="0.75667">
        <ele>79.9</ele>
        <time>2018-05-16T23:31:01Z</time>
      </trkpt>
      <trkpt lat="44.54436" lon="0.75671">
        <ele>79.9</ele>
        <time>2018-05-16T23:31:02Z</time>
      </trkpt>
      <trkpt lat="44.54438" lon="0.75675">
        <ele>80</ele>
        <time>2018-05-16T23:31:03Z</time>
      </trkpt>
      <trkpt lat="44.5444" lon="0.75679">
        <ele>80</ele>
        <time>2018-05-16T23:31:04Z</time>
      </trkpt>
      <trkpt lat="44.54442" lon="0.75683">
        <ele>80.1</ele>
        <time>2018-05-16T23:31:05Z</time>
      </trkpt>
      <trkpt lat="44.54444" lon="0.75686">
        <ele>80.1</ele>
        <time>2018-05-16T23:31:06Z</time>
      </trkpt>
      <trkpt lat="44.54446" lon="0.7569">
        <ele>80.2</ele>
        <time>2018-05-16T23:31:07Z</time>
      </trkpt>
      <trkpt lat="44.54448" lon="0.75695">
        <ele>80.2</ele>
        <time>2018-05-16T23:31:08Z</time>
      </trkpt>
      <trkpt lat="44.5445" lon="0.757">
        <ele>80.3</ele>
        <time>2018-05-16T23:31:09Z</time>
      </trkpt>
      <trkpt lat="44.54452" lon="0.75704">
        <ele>80.4</ele>
        <time>2018-05-16T23:31:10Z</time>
      </trkpt>
      <trkpt lat="44.54454" lon="0.75709">
        <ele>80.4</ele>
        <time>2018-05-16T23:31:11Z</time>
      </trkpt>
      <trkpt lat="44.54456" lon="0.75713">
        <ele>80.5</ele>
        <time>2018-05-16T23:31:12Z</time>
      </trkpt>
      <trkpt lat="44.54457" lon="0.75717">
        <ele>80.4</ele>
        <time>2018-05-16T23:31:13Z</time>
      </trkpt>
      <trkpt lat="44.5446" lon="0.75722">
        <ele>80.5</ele>
        <time>2018-05-16T23:31:14Z</time>
      </trkpt>
      <trkpt lat="44.54462" lon="0.75726">
        <ele>80.5</ele>
        <time>2018-05-16T23:31:15Z</time>
      </trkpt>
      <trkpt lat="44.54465" lon="0.75731">
        <ele>80.5</ele>
        <time>2018-05-16T23:31:16Z</time>
      </trkpt>
      <trkpt lat="44.54467" lon="0.75735">
        <ele>80.5</ele>
        <time>2018-05-16T23:31:17Z</time>
      </trkpt>
      <trkpt lat="44.5447" lon="0.75741">
        <ele>80.4</ele>
        <time>2018-05-16T23:31:18Z</time>
      </trkpt>
      <trkpt lat="44.54472" lon="0.75746">
        <ele>80.4</ele>
        <time>2018-05-16T23:31:19Z</time>
      </trkpt>
      <trkpt lat="44.54475" lon="0.75751">
        <ele>80.3</ele>
        <time>2018-05-16T23:31:20Z</time>
      </trkpt>
      <trkpt lat="44.54477" lon="0.75756">
        <ele>80.2</ele>
        <time>2018-05-16T23:31:21Z</time>
      </trkpt>
      <trkpt lat="44.5448" lon="0.75761">
        <ele>80.1</ele>
        <time>2018-05-16T23:31:22Z</time>
      </trkpt>
      <trkpt lat="44.54482" lon="0.75767">
        <ele>80</ele>
        <time>2018-05-16T23:31:23Z</time>
      </trkpt>
      <trkpt lat="44.54484" lon="0.75772">
        <ele>79.9</ele>
        <time>2018-05-16T23:31:24Z</time>
      </trkpt>
      <trkpt lat="44.54487" lon="0.75777">
        <ele>79.9</ele>
        <time>2018-05-16T23:31:25Z</time>
      </trkpt>
      <trkpt lat="44.54489" lon="0.75781">
        <ele>79.8</ele>
        <time>2018-05-16T23:31:26Z</time>
      </trkpt>
      <trkpt lat="44.54491" lon="0.75786">
        <ele>79.7</ele>
        <time>2018-05-16T23:31:27Z</time>
      </trkpt>
      <trkpt lat="44.54493" lon="0.7579">
        <ele>79.7</ele>
        <time>2018-05-16T23:31:28Z</time>
      </trkpt>
      <trkpt lat="44.54495" lon="0.75795">
        <ele>79.6</ele>
        <time>2018-05-16T23:31:29Z</time>
      </trkpt>
      <trkpt lat="44.54497" lon="0.75799">
        <ele>79.6</ele>
        <time>2018-05-16T23:31:30Z</time>
      </trkpt>
      <trkpt lat="44.545" lon="0.75804">
        <ele>79.5</ele>
        <time>2018-05-16T23:31:31Z</time>
      </trkpt>
      <trkpt lat="44.54502" lon="0.75809">
        <ele>79.4</ele>
        <time>2018-05-16T23:31:32Z</time>
      </trkpt>
      <trkpt lat="44.54504" lon="0.75814">
        <ele>79.3</ele>
        <time>2018-05-16T23:31:33Z</time>
      </trkpt>
      <trkpt lat="44.54505" lon="0.75819">
        <ele>79.3</ele>
        <time>2018-05-16T23:31:34Z</time>
      </trkpt>
      <trkpt lat="44.54507" lon="0.75823">
        <ele>79.3</ele>
        <time>2018-05-16T23:31:35Z</time>
      </trkpt>
      <trkpt lat="44.54509" lon="0.75828">
        <ele>79.2</ele>
        <time>2018-05-16T23:31:36Z</time>
      </trkpt>
      <trkpt lat="44.5451" lon="0.75832">
        <ele>79.2</ele>
        <time>2018-05-16T23:31:37Z</time>
      </trkpt>
      <trkpt lat="44.54512" lon="0.75838">
        <ele>79.2</ele>
        <time>2018-05-16T23:31:38Z</time>
      </trkpt>
      <trkpt lat="44.54513" lon="0.75843">
        <ele>79.2</ele>
        <time>2018-05-16T23:31:39Z</time>
      </trkpt>
      <trkpt lat="44.54514" lon="0.75848">
        <ele>79.2</ele>
        <time>2018-05-16T23:31:40Z</time>
      </trkpt>
      <trkpt lat="44.54514" lon="0.75852">
        <ele>79.2</ele>
        <time>2018-05-16T23:31:41Z</time>
      </trkpt>
      <trkpt lat="44.54515" lon="0.75858">
        <ele>79.3</ele>
        <time>2018-05-16T23:31:42Z</time>
      </trkpt>
      <trkpt lat="44.54516" lon="0.75863">
        <ele>79.4</ele>
        <time>2018-05-16T23:31:43Z</time>
      </trkpt>
      <trkpt lat="44.54517" lon="0.75867">
        <ele>79.4</ele>
        <time>2018-05-16T23:31:44Z</time>
      </trkpt>
      <trkpt lat="44.54518" lon="0.75873">
        <ele>79.5</ele>
        <time>2018-05-16T23:31:45Z</time>
      </trkpt>
      <trkpt lat="44.54519" lon="0.75878">
        <ele>79.5</ele>
        <time>2018-05-16T23:31:46Z</time>
      </trkpt>
      <trkpt lat="44.5452" lon="0.75883">
        <ele>79.6</ele>
        <time>2018-05-16T23:31:47Z</time>
      </trkpt>
      <trkpt lat="44.54521" lon="0.75887">
        <ele>79.8</ele>
        <time>2018-05-16T23:31:48Z</time>
      </trkpt>
      <trkpt lat="44.54522" lon="0.75892">
        <ele>79.9</ele>
        <time>2018-05-16T23:31:49Z</time>
      </trkpt>
      <trkpt lat="44.54523" lon="0.75897">
        <ele>80</ele>
        <time>2018-05-16T23:31:50Z</time>
      </trkpt>
      <trkpt lat="44.54524" lon="0.75902">
        <ele>80</ele>
        <time>2018-05-16T23:31:51Z</time>
      </trkpt>
      <trkpt lat="44.54526" lon="0.75907">
        <ele>80.1</ele>
        <time>2018-05-16T23:31:52Z</time>
      </trkpt>
      <trkpt lat="44.54527" lon="0.75912">
        <ele>80.2</ele>
        <time>2018-05-16T23:31:53Z</time>
      </trkpt>
      <trkpt lat="44.54529" lon="0.75917">
        <ele>80.4</ele>
        <time>2018-05-16T23:31:54Z</time>
      </trkpt>
      <trkpt lat="44.5453" lon="0.75923">
        <ele>80.4</ele>
        <time>2018-05-16T23:31:55Z</time>
      </trkpt>
      <trkpt lat="44.54532" lon="0.75928">
        <ele>80.5</ele>
        <time>2018-05-16T23:31:56Z</time>
      </trkpt>
      <trkpt lat="44.54533" lon="0.75934">
        <ele>80.6</ele>
        <time>2018-05-16T23:31:57Z</time>
      </trkpt>
      <trkpt lat="44.54535" lon="0.7594">
        <ele>80.7</ele>
        <time>2018-05-16T23:31:58Z</time>
      </trkpt>
      <trkpt lat="44.54536" lon="0.75946">
        <ele>80.7</ele>
        <time>2018-05-16T23:31:59Z</time>
      </trkpt>
      <trkpt lat="44.54538" lon="0.75951">
        <ele>80.8</ele>
        <time>2018-05-16T23:32:00Z</time>
      </trkpt>
      <trkpt lat="44.54539" lon="0.75956">
        <ele>80.8</ele>
        <time>2018-05-16T23:32:01Z</time>
      </trkpt>
      <trkpt lat="44.54541" lon="0.7596">
        <ele>80.9</ele>
        <time>2018-05-16T23:32:02Z</time>
      </trkpt>
      <trkpt lat="44.54542" lon="0.75965">
        <ele>80.9</ele>
        <time>2018-05-16T23:32:03Z</time>
      </trkpt>
      <trkpt lat="44.54544" lon="0.75969">
        <ele>81</ele>
        <time>2018-05-16T23:32:04Z</time>
      </trkpt>
      <trkpt lat="44.54545" lon="0.75973">
        <ele>81</ele>
        <time>2018-05-16T23:32:05Z</time>
      </trkpt>
      <trkpt lat="44.54547" lon="0.75977">
        <ele>81</ele>
        <time>2018-05-16T23:32:06Z</time>
      </trkpt>
      <trkpt lat="44.54549" lon="0.75983">
        <ele>81</ele>
        <time>2018-05-16T23:32:08Z</time>
      </trkpt>
      <trkpt lat="44.54552" lon="0.75987">
        <ele>81</ele>
        <time>2018-05-16T23:32:10Z</time>
      </trkpt>
      <trkpt lat="44.54557" lon="0.75987">
        <ele>81.1</ele>
        <time>2018-05-16T23:32:12Z</time>
      </trkpt>
      <trkpt lat="44.5456" lon="0.75986">
        <ele>81</ele>
        <time>2018-05-16T23:32:13Z</time>
      </trkpt>
      <trkpt lat="44.54563" lon="0.75984">
        <ele>81.1</ele>
        <time>2018-05-16T23:32:14Z</time>
      </trkpt>
      <trkpt lat="44.54566" lon="0.75983">
        <ele>81.1</ele>
        <time>2018-05-16T23:32:15Z</time>
      </trkpt>
      <trkpt lat="44.54569" lon="0.7598">
        <ele>81.1</ele>
        <time>2018-05-16T23:32:16Z</time>
      </trkpt>
      <trkpt lat="44.54572" lon="0.75979">
        <ele>81.1</ele>
        <time>2018-05-16T23:32:17Z</time>
      </trkpt>
      <trkpt lat="44.54575" lon="0.75977">
        <ele>81.1</ele>
        <time>2018-05-16T23:32:18Z</time>
      </trkpt>
      <trkpt lat="44.54578" lon="0.75973">
        <ele>81</ele>
        <time>2018-05-16T23:32:19Z</time>
      </trkpt>
      <trkpt lat="44.54581" lon="0.75971">
        <ele>81.1</ele>
        <time>2018-05-16T23:32:20Z</time>
      </trkpt>
      <trkpt lat="44.54583" lon="0.75969">
        <ele>81</ele>
        <time>2018-05-16T23:32:21Z</time>
      </trkpt>
      <trkpt lat="44.54586" lon="0.75967">
        <ele>81.1</ele>
        <time>2018-05-16T23:32:22Z</time>
      </trkpt>
      <trkpt lat="44.54589" lon="0.75965">
        <ele>81.1</ele>
        <time>2018-05-16T23:32:23Z</time>
      </trkpt>
      <trkpt lat="44.54591" lon="0.75963">
        <ele>81.1</ele>
        <time>2018-05-16T23:32:24Z</time>
      </trkpt>
      <trkpt lat="44.54594" lon="0.75961">
        <ele>81</ele>
        <time>2018-05-16T23:32:25Z</time>
      </trkpt>
      <trkpt lat="44.54597" lon="0.7596">
        <ele>81.1</ele>
        <time>2018-05-16T23:32:26Z</time>
      </trkpt>
      <trkpt lat="44.54601" lon="0.75957">
        <ele>81</ele>
        <time>2018-05-16T23:32:27Z</time>
      </trkpt>
      <trkpt lat="44.54604" lon="0.75954">
        <ele>81</ele>
        <time>2018-05-16T23:32:28Z</time>
      </trkpt>
      <trkpt lat="44.54606" lon="0.75951">
        <ele>81.1</ele>
        <time>2018-05-16T23:32:29Z</time>
      </trkpt>
      <trkpt lat="44.54609" lon="0.75949">
        <ele>81</ele>
        <time>2018-05-16T23:32:30Z</time>
      </trkpt>
      <trkpt lat="44.54612" lon="0.75947">
        <ele>81</ele>
        <time>2018-05-16T23:32:31Z</time>
      </trkpt>
      <trkpt lat="44.54615" lon="0.75946">
        <ele>81.1</ele>
        <time>2018-05-16T23:32:32Z</time>
      </trkpt>
      <trkpt lat="44.54618" lon="0.75945">
        <ele>81.1</ele>
        <time>2018-05-16T23:32:33Z</time>
      </trkpt>
      <trkpt lat="44.54621" lon="0.75944">
        <ele>81.1</ele>
        <time>2018-05-16T23:32:34Z</time>
      </trkpt>
      <trkpt lat="44.54624" lon="0.75943">
        <ele>81.1</ele>
        <time>2018-05-16T23:32:35Z</time>
      </trkpt>
      <trkpt lat="44.54628" lon="0.75941">
        <ele>81.1</ele>
        <time>2018-05-16T23:32:36Z</time>
      </trkpt>
      <trkpt lat="44.5463" lon="0.75939">
        <ele>81.1</ele>
        <time>2018-05-16T23:32:37Z</time>
      </trkpt>
      <trkpt lat="44.54632" lon="0.75936">
        <ele>81.1</ele>
        <time>2018-05-16T23:32:38Z</time>
      </trkpt>
      <trkpt lat="44.54635" lon="0.75934">
        <ele>81.2</ele>
        <time>2018-05-16T23:32:39Z</time>
      </trkpt>
      <trkpt lat="44.54638" lon="0.75932">
        <ele>81.2</ele>
        <time>2018-05-16T23:32:40Z</time>
      </trkpt>
      <trkpt lat="44.5464" lon="0.7593">
        <ele>81.2</ele>
        <time>2018-05-16T23:32:41Z</time>
      </trkpt>
      <trkpt lat="44.54644" lon="0.75928">
        <ele>81.3</ele>
        <time>2018-05-16T23:32:42Z</time>
      </trkpt>
      <trkpt lat="44.54647" lon="0.75926">
        <ele>81.3</ele>
        <time>2018-05-16T23:32:43Z</time>
      </trkpt>
      <trkpt lat="44.54649" lon="0.75924">
        <ele>81.4</ele>
        <time>2018-05-16T23:32:44Z</time>
      </trkpt>
      <trkpt lat="44.54652" lon="0.75923">
        <ele>81.4</ele>
        <time>2018-05-16T23:32:45Z</time>
      </trkpt>
      <trkpt lat="44.54655" lon="0.75923">
        <ele>81.5</ele>
        <time>2018-05-16T23:32:46Z</time>
      </trkpt>
      <trkpt lat="44.54658" lon="0.75921">
        <ele>81.5</ele>
        <time>2018-05-16T23:32:47Z</time>
      </trkpt>
      <trkpt lat="44.54662" lon="0.75919">
        <ele>81.6</ele>
        <time>2018-05-16T23:32:48Z</time>
      </trkpt>
      <trkpt lat="44.54665" lon="0.75917">
        <ele>81.7</ele>
        <time>2018-05-16T23:32:49Z</time>
      </trkpt>
      <trkpt lat="44.54668" lon="0.75915">
        <ele>81.7</ele>
        <time>2018-05-16T23:32:50Z</time>
      </trkpt>
      <trkpt lat="44.54671" lon="0.75912">
        <ele>81.8</ele>
        <time>2018-05-16T23:32:51Z</time>
      </trkpt>
      <trkpt lat="44.54674" lon="0.7591">
        <ele>81.9</ele>
        <time>2018-05-16T23:32:52Z</time>
      </trkpt>
      <trkpt lat="44.54678" lon="0.75907">
        <ele>82.1</ele>
        <time>2018-05-16T23:32:53Z</time>
      </trkpt>
      <trkpt lat="44.54681" lon="0.75904">
        <ele>82.2</ele>
        <time>2018-05-16T23:32:54Z</time>
      </trkpt>
      <trkpt lat="44.54685" lon="0.75901">
        <ele>82.2</ele>
        <time>2018-05-16T23:32:55Z</time>
      </trkpt>
      <trkpt lat="44.54689" lon="0.75898">
        <ele>82.3</ele>
        <time>2018-05-16T23:32:56Z</time>
      </trkpt>
      <trkpt lat="44.54693" lon="0.75895">
        <ele>82.4</ele>
        <time>2018-05-16T23:32:57Z</time>
      </trkpt>
      <trkpt lat="44.54696" lon="0.75893">
        <ele>82.5</ele>
        <time>2018-05-16T23:32:58Z</time>
      </trkpt>
      <trkpt lat="44.54699" lon="0.75891">
        <ele>82.6</ele>
        <time>2018-05-16T23:32:59Z</time>
      </trkpt>
      <trkpt lat="44.54702" lon="0.75888">
        <ele>82.7</ele>
        <time>2018-05-16T23:33:00Z</time>
      </trkpt>
      <trkpt lat="44.54705" lon="0.75885">
        <ele>82.7</ele>
        <time>2018-05-16T23:33:01Z</time>
      </trkpt>
      <trkpt lat="44.54709" lon="0.75882">
        <ele>82.8</ele>
        <time>2018-05-16T23:33:02Z</time>
      </trkpt>
      <trkpt lat="44.54712" lon="0.7588">
        <ele>82.9</ele>
        <time>2018-05-16T23:33:03Z</time>
      </trkpt>
      <trkpt lat="44.54715" lon="0.75878">
        <ele>82.9</ele>
        <time>2018-05-16T23:33:04Z</time>
      </trkpt>
      <trkpt lat="44.54718" lon="0.75876">
        <ele>83</ele>
        <time>2018-05-16T23:33:05Z</time>
      </trkpt>
      <trkpt lat="44.54722" lon="0.75874">
        <ele>83</ele>
        <time>2018-05-16T23:33:06Z</time>
      </trkpt>
      <trkpt lat="44.54726" lon="0.75874">
        <ele>83.1</ele>
        <time>2018-05-16T23:33:07Z</time>
      </trkpt>
      <trkpt lat="44.54729" lon="0.75873">
        <ele>83.1</ele>
        <time>2018-05-16T23:33:08Z</time>
      </trkpt>
      <trkpt lat="44.54733" lon="0.75871">
        <ele>83.2</ele>
        <time>2018-05-16T23:33:09Z</time>
      </trkpt>
      <trkpt lat="44.54736" lon="0.7587">
        <ele>83.3</ele>
        <time>2018-05-16T23:33:10Z</time>
      </trkpt>
      <trkpt lat="44.54739" lon="0.75868">
        <ele>83.3</ele>
        <time>2018-05-16T23:33:11Z</time>
      </trkpt>
      <trkpt lat="44.54742" lon="0.75867">
        <ele>83.4</ele>
        <time>2018-05-16T23:33:12Z</time>
      </trkpt>
      <trkpt lat="44.54745" lon="0.75865">
        <ele>83.5</ele>
        <time>2018-05-16T23:33:13Z</time>
      </trkpt>
      <trkpt lat="44.54748" lon="0.75863">
        <ele>83.6</ele>
        <time>2018-05-16T23:33:14Z</time>
      </trkpt>
      <trkpt lat="44.54752" lon="0.75861">
        <ele>83.7</ele>
        <time>2018-05-16T23:33:15Z</time>
      </trkpt>
      <trkpt lat="44.54757" lon="0.75859">
        <ele>83.8</ele>
        <time>2018-05-16T23:33:17Z</time>
      </trkpt>
      <trkpt lat="44.54759" lon="0.75864">
        <ele>83.7</ele>
        <time>2018-05-16T23:33:19Z</time>
      </trkpt>
      <trkpt lat="44.5476" lon="0.75868">
        <ele>83.7</ele>
        <time>2018-05-16T23:33:20Z</time>
      </trkpt>
      <trkpt lat="44.5476" lon="0.75873">
        <ele>83.6</ele>
        <time>2018-05-16T23:33:21Z</time>
      </trkpt>
      <trkpt lat="44.5476" lon="0.75879">
        <ele>83.6</ele>
        <time>2018-05-16T23:33:22Z</time>
      </trkpt>
      <trkpt lat="44.54761" lon="0.75884">
        <ele>83.5</ele>
        <time>2018-05-16T23:33:23Z</time>
      </trkpt>
      <trkpt lat="44.54761" lon="0.75889">
        <ele>83.5</ele>
        <time>2018-05-16T23:33:24Z</time>
      </trkpt>
      <trkpt lat="44.54761" lon="0.75893">
        <ele>83.4</ele>
        <time>2018-05-16T23:33:25Z</time>
      </trkpt>
      <trkpt lat="44.54762" lon="0.75898">
        <ele>83.4</ele>
        <time>2018-05-16T23:33:26Z</time>
      </trkpt>
      <trkpt lat="44.54763" lon="0.75902">
        <ele>83.3</ele>
        <time>2018-05-16T23:33:27Z</time>
      </trkpt>
      <trkpt lat="44.54763" lon="0.75906">
        <ele>83.3</ele>
        <time>2018-05-16T23:33:28Z</time>
      </trkpt>
      <trkpt lat="44.54763" lon="0.75911">
        <ele>83.2</ele>
        <time>2018-05-16T23:33:29Z</time>
      </trkpt>
      <trkpt lat="44.54763" lon="0.75916">
        <ele>83.2</ele>
        <time>2018-05-16T23:33:30Z</time>
      </trkpt>
      <trkpt lat="44.54762" lon="0.75922">
        <ele>83.1</ele>
        <time>2018-05-16T23:33:31Z</time>
      </trkpt>
      <trkpt lat="44.54761" lon="0.75928">
        <ele>83.1</ele>
        <time>2018-05-16T23:33:32Z</time>
      </trkpt>
      <trkpt lat="44.5476" lon="0.75933">
        <ele>83</ele>
        <time>2018-05-16T23:33:33Z</time>
      </trkpt>
      <trkpt lat="44.54759" lon="0.75938">
        <ele>82.9</ele>
        <time>2018-05-16T23:33:34Z</time>
      </trkpt>
      <trkpt lat="44.54759" lon="0.75943">
        <ele>82.9</ele>
        <time>2018-05-16T23:33:35Z</time>
      </trkpt>
      <trkpt lat="44.54759" lon="0.75951">
        <ele>82.8</ele>
        <time>2018-05-16T23:33:36Z</time>
      </trkpt>
      <trkpt lat="44.5476" lon="0.75961">
        <ele>82.7</ele>
        <time>2018-05-16T23:33:37Z</time>
      </trkpt>
      <trkpt lat="44.54761" lon="0.7597">
        <ele>82.6</ele>
        <time>2018-05-16T23:33:38Z</time>
      </trkpt>
      <trkpt lat="44.54761" lon="0.75979">
        <ele>82.5</ele>
        <time>2018-05-16T23:33:39Z</time>
      </trkpt>
      <trkpt lat="44.54763" lon="0.75989">
        <ele>82.3</ele>
        <time>2018-05-16T23:33:40Z</time>
      </trkpt>
      <trkpt lat="44.54763" lon="0.76">
        <ele>82.2</ele>
        <time>2018-05-16T23:33:41Z</time>
      </trkpt>
      <trkpt lat="44.54764" lon="0.7601">
        <ele>82.1</ele>
        <time>2018-05-16T23:33:42Z</time>
      </trkpt>
      <trkpt lat="44.54765" lon="0.76017">
        <ele>82</ele>
        <time>2018-05-16T23:33:43Z</time>
      </trkpt>
      <trkpt lat="44.54765" lon="0.76025">
        <ele>81.9</ele>
        <time>2018-05-16T23:33:44Z</time>
      </trkpt>
      <trkpt lat="44.54765" lon="0.76033">
        <ele>81.7</ele>
        <time>2018-05-16T23:33:45Z</time>
      </trkpt>
      <trkpt lat="44.54764" lon="0.76041">
        <ele>81.6</ele>
        <time>2018-05-16T23:33:46Z</time>
      </trkpt>
      <trkpt lat="44.54764" lon="0.7605">
        <ele>81.5</ele>
        <time>2018-05-16T23:33:47Z</time>
      </trkpt>
      <trkpt lat="44.54763" lon="0.76059">
        <ele>81.3</ele>
        <time>2018-05-16T23:33:48Z</time>
      </trkpt>
      <trkpt lat="44.54762" lon="0.76067">
        <ele>81.2</ele>
        <time>2018-05-16T23:33:49Z</time>
      </trkpt>
      <trkpt lat="44.54761" lon="0.76075">
        <ele>81.1</ele>
        <time>2018-05-16T23:33:50Z</time>
      </trkpt>
      <trkpt lat="44.54759" lon="0.76082">
        <ele>80.9</ele>
        <time>2018-05-16T23:33:51Z</time>
      </trkpt>
      <trkpt lat="44.54758" lon="0.7609">
        <ele>80.8</ele>
        <time>2018-05-16T23:33:52Z</time>
      </trkpt>
      <trkpt lat="44.54756" lon="0.76098">
        <ele>80.7</ele>
        <time>2018-05-16T23:33:53Z</time>
      </trkpt>
      <trkpt lat="44.54754" lon="0.76105">
        <ele>80.6</ele>
        <time>2018-05-16T23:33:54Z</time>
      </trkpt>
      <trkpt lat="44.54753" lon="0.76113">
        <ele>80.6</ele>
        <time>2018-05-16T23:33:55Z</time>
      </trkpt>
      <trkpt lat="44.54752" lon="0.7612">
        <ele>80.5</ele>
        <time>2018-05-16T23:33:56Z</time>
      </trkpt>
      <trkpt lat="44.54753" lon="0.76127">
        <ele>80.6</ele>
        <time>2018-05-16T23:33:57Z</time>
      </trkpt>
      <trkpt lat="44.54754" lon="0.76135">
        <ele>80.6</ele>
        <time>2018-05-16T23:33:58Z</time>
      </trkpt>
      <trkpt lat="44.54756" lon="0.76141">
        <ele>80.8</ele>
        <time>2018-05-16T23:33:59Z</time>
      </trkpt>
      <trkpt lat="44.54758" lon="0.76148">
        <ele>80.9</ele>
        <time>2018-05-16T23:34:00Z</time>
      </trkpt>
      <trkpt lat="44.54761" lon="0.76153">
        <ele>81.1</ele>
        <time>2018-05-16T23:34:01Z</time>
      </trkpt>
      <trkpt lat="44.54765" lon="0.76158">
        <ele>81.3</ele>
        <time>2018-05-16T23:34:02Z</time>
      </trkpt>
      <trkpt lat="44.54769" lon="0.76163">
        <ele>81.5</ele>
        <time>2018-05-16T23:34:03Z</time>
      </trkpt>
      <trkpt lat="44.54773" lon="0.76167">
        <ele>81.7</ele>
        <time>2018-05-16T23:34:04Z</time>
      </trkpt>
      <trkpt lat="44.54777" lon="0.76172">
        <ele>82</ele>
        <time>2018-05-16T23:34:05Z</time>
      </trkpt>
      <trkpt lat="44.54783" lon="0.76179">
        <ele>82.3</ele>
        <time>2018-05-16T23:34:06Z</time>
      </trkpt>
      <trkpt lat="44.54787" lon="0.76184">
        <ele>82.5</ele>
        <time>2018-05-16T23:34:07Z</time>
      </trkpt>
      <trkpt lat="44.54791" lon="0.76189">
        <ele>82.7</ele>
        <time>2018-05-16T23:34:08Z</time>
      </trkpt>
      <trkpt lat="44.54795" lon="0.76195">
        <ele>83</ele>
        <time>2018-05-16T23:34:09Z</time>
      </trkpt>
      <trkpt lat="44.54797" lon="0.762">
        <ele>83.1</ele>
        <time>2018-05-16T23:34:10Z</time>
      </trkpt>
      <trkpt lat="44.548" lon="0.76206">
        <ele>83.3</ele>
        <time>2018-05-16T23:34:11Z</time>
      </trkpt>
      <trkpt lat="44.54803" lon="0.76212">
        <ele>83.5</ele>
        <time>2018-05-16T23:34:12Z</time>
      </trkpt>
      <trkpt lat="44.54805" lon="0.76217">
        <ele>83.6</ele>
        <time>2018-05-16T23:34:13Z</time>
      </trkpt>
      <trkpt lat="44.54807" lon="0.76222">
        <ele>83.8</ele>
        <time>2018-05-16T23:34:14Z</time>
      </trkpt>
      <trkpt lat="44.54808" lon="0.76227">
        <ele>83.9</ele>
        <time>2018-05-16T23:34:15Z</time>
      </trkpt>
      <trkpt lat="44.5481" lon="0.76232">
        <ele>84.1</ele>
        <time>2018-05-16T23:34:16Z</time>
      </trkpt>
      <trkpt lat="44.54812" lon="0.76236">
        <ele>84.2</ele>
        <time>2018-05-16T23:34:17Z</time>
      </trkpt>
      <trkpt lat="44.54814" lon="0.76241">
        <ele>84.3</ele>
        <time>2018-05-16T23:34:18Z</time>
      </trkpt>
      <trkpt lat="44.54815" lon="0.76245">
        <ele>84.3</ele>
        <time>2018-05-16T23:34:19Z</time>
      </trkpt>
      <trkpt lat="44.54816" lon="0.76248">
        <ele>84.3</ele>
        <time>2018-05-16T23:34:20Z</time>
      </trkpt>
      <trkpt lat="44.54817" lon="0.76254">
        <ele>84.3</ele>
        <time>2018-05-16T23:34:22Z</time>
      </trkpt>
      <trkpt lat="44.54818" lon="0.76259">
        <ele>84.2</ele>
        <time>2018-05-16T23:34:24Z</time>
      </trkpt>
      <trkpt lat="44.54819" lon="0.76263">
        <ele>84.1</ele>
        <time>2018-05-16T23:34:28Z</time>
      </trkpt>
      <trkpt lat="44.5482" lon="0.76267">
        <ele>84</ele>
        <time>2018-05-16T23:34:47Z</time>
      </trkpt>
      <trkpt lat="44.54821" lon="0.76273">
        <ele>84.1</ele>
        <time>2018-05-16T23:34:49Z</time>
      </trkpt>
      <trkpt lat="44.54823" lon="0.76276">
        <ele>84.1</ele>
        <time>2018-05-16T23:34:50Z</time>
      </trkpt>
      <trkpt lat="44.54824" lon="0.7628">
        <ele>84.2</ele>
        <time>2018-05-16T23:34:51Z</time>
      </trkpt>
      <trkpt lat="44.54826" lon="0.76285">
        <ele>84.3</ele>
        <time>2018-05-16T23:34:52Z</time>
      </trkpt>
      <trkpt lat="44.54828" lon="0.76289">
        <ele>84.4</ele>
        <time>2018-05-16T23:34:53Z</time>
      </trkpt>
      <trkpt lat="44.54829" lon="0.76293">
        <ele>84.5</ele>
        <time>2018-05-16T23:34:54Z</time>
      </trkpt>
      <trkpt lat="44.5483" lon="0.76297">
        <ele>84.7</ele>
        <time>2018-05-16T23:34:55Z</time>
      </trkpt>
      <trkpt lat="44.54832" lon="0.76302">
        <ele>84.8</ele>
        <time>2018-05-16T23:34:56Z</time>
      </trkpt>
      <trkpt lat="44.54833" lon="0.76306">
        <ele>85</ele>
        <time>2018-05-16T23:34:57Z</time>
      </trkpt>
      <trkpt lat="44.54834" lon="0.7631">
        <ele>85.2</ele>
        <time>2018-05-16T23:34:58Z</time>
      </trkpt>
      <trkpt lat="44.54835" lon="0.76314">
        <ele>85.4</ele>
        <time>2018-05-16T23:34:59Z</time>
      </trkpt>
      <trkpt lat="44.54836" lon="0.76322">
        <ele>85.7</ele>
        <time>2018-05-16T23:35:01Z</time>
      </trkpt>
      <trkpt lat="44.54836" lon="0.76326">
        <ele>85.9</ele>
        <time>2018-05-16T23:35:02Z</time>
      </trkpt>
      <trkpt lat="44.54836" lon="0.7633">
        <ele>86.1</ele>
        <time>2018-05-16T23:35:03Z</time>
      </trkpt>
      <trkpt lat="44.54835" lon="0.76334">
        <ele>86.3</ele>
        <time>2018-05-16T23:35:04Z</time>
      </trkpt>
      <trkpt lat="44.54833" lon="0.7634">
        <ele>86.6</ele>
        <time>2018-05-16T23:35:06Z</time>
      </trkpt>
      <trkpt lat="44.54831" lon="0.76343">
        <ele>86.7</ele>
        <time>2018-05-16T23:35:07Z</time>
      </trkpt>
      <trkpt lat="44.54828" lon="0.76345">
        <ele>86.9</ele>
        <time>2018-05-16T23:35:08Z</time>
      </trkpt>
      <trkpt lat="44.54826" lon="0.76348">
        <ele>87.1</ele>
        <time>2018-05-16T23:35:09Z</time>
      </trkpt>
      <trkpt lat="44.54823" lon="0.76351">
        <ele>87.2</ele>
        <time>2018-05-16T23:35:10Z</time>
      </trkpt>
      <trkpt lat="44.54821" lon="0.76353">
        <ele>87.3</ele>
        <time>2018-05-16T23:35:11Z</time>
      </trkpt>
      <trkpt lat="44.54818" lon="0.76356">
        <ele>87.4</ele>
        <time>2018-05-16T23:35:12Z</time>
      </trkpt>
      <trkpt lat="44.54815" lon="0.76359">
        <ele>87.4</ele>
        <time>2018-05-16T23:35:13Z</time>
      </trkpt>
      <trkpt lat="44.54812" lon="0.76362">
        <ele>87.5</ele>
        <time>2018-05-16T23:35:14Z</time>
      </trkpt>
      <trkpt lat="44.54809" lon="0.76365">
        <ele>87.5</ele>
        <time>2018-05-16T23:35:15Z</time>
      </trkpt>
      <trkpt lat="44.54806" lon="0.76368">
        <ele>87.5</ele>
        <time>2018-05-16T23:35:16Z</time>
      </trkpt>
      <trkpt lat="44.54803" lon="0.76371">
        <ele>87.6</ele>
        <time>2018-05-16T23:35:17Z</time>
      </trkpt>
      <trkpt lat="44.548" lon="0.76375">
        <ele>87.6</ele>
        <time>2018-05-16T23:35:18Z</time>
      </trkpt>
      <trkpt lat="44.54798" lon="0.76378">
        <ele>87.7</ele>
        <time>2018-05-16T23:35:19Z</time>
      </trkpt>
      <trkpt lat="44.54795" lon="0.76382">
        <ele>87.7</ele>
        <time>2018-05-16T23:35:20Z</time>
      </trkpt>
      <trkpt lat="44.54793" lon="0.76386">
        <ele>87.8</ele>
        <time>2018-05-16T23:35:21Z</time>
      </trkpt>
      <trkpt lat="44.54791" lon="0.7639">
        <ele>87.9</ele>
        <time>2018-05-16T23:35:22Z</time>
      </trkpt>
      <trkpt lat="44.5479" lon="0.76395">
        <ele>87.9</ele>
        <time>2018-05-16T23:35:23Z</time>
      </trkpt>
      <trkpt lat="44.5479" lon="0.764">
        <ele>88</ele>
        <time>2018-05-16T23:35:24Z</time>
      </trkpt>
      <trkpt lat="44.5479" lon="0.76406">
        <ele>88</ele>
        <time>2018-05-16T23:35:25Z</time>
      </trkpt>
      <trkpt lat="44.54792" lon="0.76411">
        <ele>88</ele>
        <time>2018-05-16T23:35:26Z</time>
      </trkpt>
      <trkpt lat="44.54793" lon="0.76415">
        <ele>88</ele>
        <time>2018-05-16T23:35:27Z</time>
      </trkpt>
      <trkpt lat="44.54794" lon="0.7642">
        <ele>88</ele>
        <time>2018-05-16T23:35:28Z</time>
      </trkpt>
      <trkpt lat="44.54795" lon="0.76424">
        <ele>88</ele>
        <time>2018-05-16T23:35:29Z</time>
      </trkpt>
      <trkpt lat="44.54796" lon="0.76428">
        <ele>87.9</ele>
        <time>2018-05-16T23:35:30Z</time>
      </trkpt>
      <trkpt lat="44.54797" lon="0.76432">
        <ele>87.9</ele>
        <time>2018-05-16T23:35:31Z</time>
      </trkpt>
      <trkpt lat="44.54799" lon="0.76436">
        <ele>87.9</ele>
        <time>2018-05-16T23:35:32Z</time>
      </trkpt>
      <trkpt lat="44.54801" lon="0.76441">
        <ele>87.9</ele>
        <time>2018-05-16T23:35:33Z</time>
      </trkpt>
      <trkpt lat="44.54803" lon="0.76447">
        <ele>87.9</ele>
        <time>2018-05-16T23:35:34Z</time>
      </trkpt>
      <trkpt lat="44.54805" lon="0.76452">
        <ele>87.9</ele>
        <time>2018-05-16T23:35:35Z</time>
      </trkpt>
      <trkpt lat="44.54807" lon="0.76457">
        <ele>87.9</ele>
        <time>2018-05-16T23:35:36Z</time>
      </trkpt>
      <trkpt lat="44.54809" lon="0.76462">
        <ele>87.9</ele>
        <time>2018-05-16T23:35:37Z</time>
      </trkpt>
      <trkpt lat="44.54811" lon="0.76466">
        <ele>87.9</ele>
        <time>2018-05-16T23:35:38Z</time>
      </trkpt>
      <trkpt lat="44.54812" lon="0.76471">
        <ele>87.9</ele>
        <time>2018-05-16T23:35:39Z</time>
      </trkpt>
      <trkpt lat="44.54813" lon="0.76475">
        <ele>87.9</ele>
        <time>2018-05-16T23:35:40Z</time>
      </trkpt>
      <trkpt lat="44.54816" lon="0.76481">
        <ele>87.9</ele>
        <time>2018-05-16T23:35:41Z</time>
      </trkpt>
      <trkpt lat="44.54817" lon="0.76486">
        <ele>87.9</ele>
        <time>2018-05-16T23:35:42Z</time>
      </trkpt>
      <trkpt lat="44.54819" lon="0.7649">
        <ele>87.9</ele>
        <time>2018-05-16T23:35:43Z</time>
      </trkpt>
      <trkpt lat="44.54821" lon="0.76494">
        <ele>87.9</ele>
        <time>2018-05-16T23:35:44Z</time>
      </trkpt>
      <trkpt lat="44.54822" lon="0.76499">
        <ele>87.9</ele>
        <time>2018-05-16T23:35:45Z</time>
      </trkpt>
      <trkpt lat="44.54824" lon="0.76504">
        <ele>88</ele>
        <time>2018-05-16T23:35:46Z</time>
      </trkpt>
      <trkpt lat="44.54826" lon="0.76509">
        <ele>88</ele>
        <time>2018-05-16T23:35:47Z</time>
      </trkpt>
      <trkpt lat="44.54828" lon="0.76513">
        <ele>88.1</ele>
        <time>2018-05-16T23:35:48Z</time>
      </trkpt>
      <trkpt lat="44.54831" lon="0.76517">
        <ele>88.2</ele>
        <time>2018-05-16T23:35:49Z</time>
      </trkpt>
      <trkpt lat="44.54833" lon="0.76521">
        <ele>88.4</ele>
        <time>2018-05-16T23:35:50Z</time>
      </trkpt>
      <trkpt lat="44.54835" lon="0.76524">
        <ele>88.5</ele>
        <time>2018-05-16T23:35:51Z</time>
      </trkpt>
      <trkpt lat="44.54837" lon="0.76528">
        <ele>88.6</ele>
        <time>2018-05-16T23:35:52Z</time>
      </trkpt>
      <trkpt lat="44.54839" lon="0.76532">
        <ele>88.8</ele>
        <time>2018-05-16T23:35:53Z</time>
      </trkpt>
      <trkpt lat="44.54842" lon="0.76536">
        <ele>88.9</ele>
        <time>2018-05-16T23:35:54Z</time>
      </trkpt>
      <trkpt lat="44.54845" lon="0.76541">
        <ele>89.1</ele>
        <time>2018-05-16T23:35:55Z</time>
      </trkpt>
      <trkpt lat="44.54847" lon="0.76546">
        <ele>89.2</ele>
        <time>2018-05-16T23:35:56Z</time>
      </trkpt>
      <trkpt lat="44.5485" lon="0.76551">
        <ele>89.4</ele>
        <time>2018-05-16T23:35:57Z</time>
      </trkpt>
      <trkpt lat="44.54852" lon="0.76558">
        <ele>89.6</ele>
        <time>2018-05-16T23:35:58Z</time>
      </trkpt>
      <trkpt lat="44.54854" lon="0.76564">
        <ele>89.6</ele>
        <time>2018-05-16T23:35:59Z</time>
      </trkpt>
      <trkpt lat="44.54855" lon="0.7657">
        <ele>89.6</ele>
        <time>2018-05-16T23:36:00Z</time>
      </trkpt>
      <trkpt lat="44.54854" lon="0.76577">
        <ele>89.6</ele>
        <time>2018-05-16T23:36:01Z</time>
      </trkpt>
      <trkpt lat="44.54854" lon="0.76583">
        <ele>89.6</ele>
        <time>2018-05-16T23:36:02Z</time>
      </trkpt>
      <trkpt lat="44.54853" lon="0.76589">
        <ele>89.5</ele>
        <time>2018-05-16T23:36:03Z</time>
      </trkpt>
      <trkpt lat="44.54853" lon="0.76597">
        <ele>89.5</ele>
        <time>2018-05-16T23:36:23Z</time>
      </trkpt>
      <trkpt lat="44.54855" lon="0.76603">
        <ele>89.4</ele>
        <time>2018-05-16T23:36:25Z</time>
      </trkpt>
      <trkpt lat="44.54855" lon="0.76608">
        <ele>89.4</ele>
        <time>2018-05-16T23:36:26Z</time>
      </trkpt>
      <trkpt lat="44.54856" lon="0.76612">
        <ele>89.3</ele>
        <time>2018-05-16T23:36:27Z</time>
      </trkpt>
      <trkpt lat="44.54856" lon="0.76616">
        <ele>89.3</ele>
        <time>2018-05-16T23:36:28Z</time>
      </trkpt>
      <trkpt lat="44.54856" lon="0.7662">
        <ele>89.3</ele>
        <time>2018-05-16T23:36:29Z</time>
      </trkpt>
      <trkpt lat="44.54855" lon="0.76625">
        <ele>89.2</ele>
        <time>2018-05-16T23:36:30Z</time>
      </trkpt>
      <trkpt lat="44.54855" lon="0.76629">
        <ele>89.2</ele>
        <time>2018-05-16T23:36:31Z</time>
      </trkpt>
      <trkpt lat="44.54854" lon="0.76634">
        <ele>89.1</ele>
        <time>2018-05-16T23:36:32Z</time>
      </trkpt>
      <trkpt lat="44.54852" lon="0.76637">
        <ele>89.1</ele>
        <time>2018-05-16T23:36:33Z</time>
      </trkpt>
      <trkpt lat="44.54851" lon="0.76641">
        <ele>89.1</ele>
        <time>2018-05-16T23:36:34Z</time>
      </trkpt>
      <trkpt lat="44.54848" lon="0.76643">
        <ele>89</ele>
        <time>2018-05-16T23:36:35Z</time>
      </trkpt>
      <trkpt lat="44.54845" lon="0.76645">
        <ele>89</ele>
        <time>2018-05-16T23:36:36Z</time>
      </trkpt>
      <trkpt lat="44.54842" lon="0.76647">
        <ele>88.9</ele>
        <time>2018-05-16T23:36:37Z</time>
      </trkpt>
      <trkpt lat="44.54839" lon="0.76649">
        <ele>88.9</ele>
        <time>2018-05-16T23:36:38Z</time>
      </trkpt>
      <trkpt lat="44.54835" lon="0.76651">
        <ele>88.8</ele>
        <time>2018-05-16T23:36:39Z</time>
      </trkpt>
      <trkpt lat="44.5483" lon="0.76653">
        <ele>88.8</ele>
        <time>2018-05-16T23:36:40Z</time>
      </trkpt>
      <trkpt lat="44.54826" lon="0.76655">
        <ele>88.7</ele>
        <time>2018-05-16T23:36:41Z</time>
      </trkpt>
      <trkpt lat="44.54822" lon="0.76658">
        <ele>88.6</ele>
        <time>2018-05-16T23:36:42Z</time>
      </trkpt>
      <trkpt lat="44.54818" lon="0.76661">
        <ele>88.6</ele>
        <time>2018-05-16T23:36:43Z</time>
      </trkpt>
      <trkpt lat="44.54813" lon="0.76664">
        <ele>88.5</ele>
        <time>2018-05-16T23:36:44Z</time>
      </trkpt>
      <trkpt lat="44.54809" lon="0.76667">
        <ele>88.4</ele>
        <time>2018-05-16T23:36:45Z</time>
      </trkpt>
      <trkpt lat="44.54805" lon="0.76671">
        <ele>88.4</ele>
        <time>2018-05-16T23:36:46Z</time>
      </trkpt>
      <trkpt lat="44.54801" lon="0.76673">
        <ele>88.4</ele>
        <time>2018-05-16T23:36:47Z</time>
      </trkpt>
      <trkpt lat="44.54797" lon="0.76676">
        <ele>88.4</ele>
        <time>2018-05-16T23:36:48Z</time>
      </trkpt>
      <trkpt lat="44.54793" lon="0.76679">
        <ele>88.3</ele>
        <time>2018-05-16T23:36:49Z</time>
      </trkpt>
      <trkpt lat="44.54789" lon="0.76681">
        <ele>88.3</ele>
        <time>2018-05-16T23:36:50Z</time>
      </trkpt>
      <trkpt lat="44.54785" lon="0.76684">
        <ele>88.3</ele>
        <time>2018-05-16T23:36:51Z</time>
      </trkpt>
      <trkpt lat="44.54782" lon="0.76687">
        <ele>88.2</ele>
        <time>2018-05-16T23:36:52Z</time>
      </trkpt>
      <trkpt lat="44.54778" lon="0.7669">
        <ele>88.2</ele>
        <time>2018-05-16T23:36:53Z</time>
      </trkpt>
      <trkpt lat="44.54775" lon="0.76692">
        <ele>88.2</ele>
        <time>2018-05-16T23:36:54Z</time>
      </trkpt>
      <trkpt lat="44.54771" lon="0.76695">
        <ele>88.1</ele>
        <time>2018-05-16T23:36:55Z</time>
      </trkpt>
      <trkpt lat="44.54769" lon="0.76699">
        <ele>88.1</ele>
        <time>2018-05-16T23:36:56Z</time>
      </trkpt>
      <trkpt lat="44.54767" lon="0.76705">
        <ele>88.1</ele>
        <time>2018-05-16T23:36:57Z</time>
      </trkpt>
      <trkpt lat="44.54766" lon="0.76714">
        <ele>88</ele>
        <time>2018-05-16T23:36:58Z</time>
      </trkpt>
      <trkpt lat="44.54765" lon="0.76722">
        <ele>88</ele>
        <time>2018-05-16T23:36:59Z</time>
      </trkpt>
      <trkpt lat="44.54765" lon="0.7673">
        <ele>88.1</ele>
        <time>2018-05-16T23:37:00Z</time>
      </trkpt>
      <trkpt lat="44.54763" lon="0.76739">
        <ele>88.1</ele>
        <time>2018-05-16T23:37:01Z</time>
      </trkpt>
      <trkpt lat="44.54763" lon="0.76748">
        <ele>88.1</ele>
        <time>2018-05-16T23:37:02Z</time>
      </trkpt>
      <trkpt lat="44.54763" lon="0.76758">
        <ele>88</ele>
        <time>2018-05-16T23:37:03Z</time>
      </trkpt>
      <trkpt lat="44.54762" lon="0.76768">
        <ele>87.9</ele>
        <time>2018-05-16T23:37:04Z</time>
      </trkpt>
      <trkpt lat="44.54761" lon="0.76778">
        <ele>87.8</ele>
        <time>2018-05-16T23:37:05Z</time>
      </trkpt>
      <trkpt lat="44.5476" lon="0.76789">
        <ele>87.5</ele>
        <time>2018-05-16T23:37:06Z</time>
      </trkpt>
      <trkpt lat="44.54759" lon="0.76801">
        <ele>87.3</ele>
        <time>2018-05-16T23:37:07Z</time>
      </trkpt>
      <trkpt lat="44.54759" lon="0.76812">
        <ele>86.9</ele>
        <time>2018-05-16T23:37:08Z</time>
      </trkpt>
      <trkpt lat="44.54758" lon="0.76824">
        <ele>86.6</ele>
        <time>2018-05-16T23:37:09Z</time>
      </trkpt>
      <trkpt lat="44.54757" lon="0.76835">
        <ele>86.4</ele>
        <time>2018-05-16T23:37:10Z</time>
      </trkpt>
      <trkpt lat="44.54757" lon="0.76845">
        <ele>86.1</ele>
        <time>2018-05-16T23:37:11Z</time>
      </trkpt>
      <trkpt lat="44.54756" lon="0.76855">
        <ele>85.9</ele>
        <time>2018-05-16T23:37:12Z</time>
      </trkpt>
      <trkpt lat="44.54755" lon="0.76865">
        <ele>85.7</ele>
        <time>2018-05-16T23:37:13Z</time>
      </trkpt>
      <trkpt lat="44.54754" lon="0.76872">
        <ele>85.5</ele>
        <time>2018-05-16T23:37:14Z</time>
      </trkpt>
      <trkpt lat="44.54752" lon="0.76878">
        <ele>85.4</ele>
        <time>2018-05-16T23:37:15Z</time>
      </trkpt>
      <trkpt lat="44.54749" lon="0.76883">
        <ele>85.3</ele>
        <time>2018-05-16T23:37:16Z</time>
      </trkpt>
      <trkpt lat="44.54744" lon="0.76885">
        <ele>85.2</ele>
        <time>2018-05-16T23:37:17Z</time>
      </trkpt>
      <trkpt lat="44.5474" lon="0.76886">
        <ele>85.2</ele>
        <time>2018-05-16T23:37:18Z</time>
      </trkpt>
      <trkpt lat="44.54736" lon="0.76886">
        <ele>85.1</ele>
        <time>2018-05-16T23:37:19Z</time>
      </trkpt>
      <trkpt lat="44.54732" lon="0.76887">
        <ele>85.1</ele>
        <time>2018-05-16T23:37:20Z</time>
      </trkpt>
      <trkpt lat="44.54728" lon="0.76887">
        <ele>85.1</ele>
        <time>2018-05-16T23:37:21Z</time>
      </trkpt>
      <trkpt lat="44.54724" lon="0.76887">
        <ele>85</ele>
        <time>2018-05-16T23:37:22Z</time>
      </trkpt>
      <trkpt lat="44.54721" lon="0.76888">
        <ele>85</ele>
        <time>2018-05-16T23:37:23Z</time>
      </trkpt>
      <trkpt lat="44.54717" lon="0.76888">
        <ele>85</ele>
        <time>2018-05-16T23:37:24Z</time>
      </trkpt>
      <trkpt lat="44.54714" lon="0.76889">
        <ele>85</ele>
        <time>2018-05-16T23:37:25Z</time>
      </trkpt>
      <trkpt lat="44.54711" lon="0.76891">
        <ele>85</ele>
        <time>2018-05-16T23:37:26Z</time>
      </trkpt>
      <trkpt lat="44.54709" lon="0.76895">
        <ele>84.9</ele>
        <time>2018-05-16T23:37:27Z</time>
      </trkpt>
      <trkpt lat="44.54708" lon="0.76899">
        <ele>84.9</ele>
        <time>2018-05-16T23:37:28Z</time>
      </trkpt>
      <trkpt lat="44.5471" lon="0.76903">
        <ele>84.8</ele>
        <time>2018-05-16T23:37:29Z</time>
      </trkpt>
      <trkpt lat="44.54712" lon="0.76909">
        <ele>84.7</ele>
        <time>2018-05-16T23:37:30Z</time>
      </trkpt>
      <trkpt lat="44.54713" lon="0.76914">
        <ele>84.6</ele>
        <time>2018-05-16T23:37:31Z</time>
      </trkpt>
      <trkpt lat="44.54714" lon="0.76919">
        <ele>84.6</ele>
        <time>2018-05-16T23:37:32Z</time>
      </trkpt>
      <trkpt lat="44.54715" lon="0.76924">
        <ele>84.5</ele>
        <time>2018-05-16T23:37:33Z</time>
      </trkpt>
      <trkpt lat="44.54717" lon="0.7693">
        <ele>84.5</ele>
        <time>2018-05-16T23:37:34Z</time>
      </trkpt>
      <trkpt lat="44.54717" lon="0.76936">
        <ele>84.4</ele>
        <time>2018-05-16T23:37:35Z</time>
      </trkpt>
      <trkpt lat="44.54718" lon="0.76941">
        <ele>84.4</ele>
        <time>2018-05-16T23:37:36Z</time>
      </trkpt>
      <trkpt lat="44.54718" lon="0.76946">
        <ele>84.4</ele>
        <time>2018-05-16T23:37:37Z</time>
      </trkpt>
      <trkpt lat="44.54717" lon="0.76951">
        <ele>84.4</ele>
        <time>2018-05-16T23:37:38Z</time>
      </trkpt>
      <trkpt lat="44.54717" lon="0.76956">
        <ele>84.3</ele>
        <time>2018-05-16T23:37:39Z</time>
      </trkpt>
      <trkpt lat="44.54716" lon="0.76961">
        <ele>84.3</ele>
        <time>2018-05-16T23:37:40Z</time>
      </trkpt>
      <trkpt lat="44.54716" lon="0.76967">
        <ele>84.3</ele>
        <time>2018-05-16T23:37:42Z</time>
      </trkpt>
      <trkpt lat="44.54708" lon="0.76976">
        <ele>84.4</ele>
        <time>2018-05-16T23:37:59Z</time>
      </trkpt>
      <trkpt lat="44.54704" lon="0.76979">
        <ele>84.4</ele>
        <time>2018-05-16T23:38:01Z</time>
      </trkpt>
      <trkpt lat="44.547" lon="0.76981">
        <ele>84.4</ele>
        <time>2018-05-16T23:38:03Z</time>
      </trkpt>
      <trkpt lat="44.54696" lon="0.76983">
        <ele>84.4</ele>
        <time>2018-05-16T23:38:05Z</time>
      </trkpt>
      <trkpt lat="44.54694" lon="0.76985">
        <ele>84.4</ele>
        <time>2018-05-16T23:38:06Z</time>
      </trkpt>
      <trkpt lat="44.5469" lon="0.76987">
        <ele>84.4</ele>
        <time>2018-05-16T23:38:07Z</time>
      </trkpt>
      <trkpt lat="44.54688" lon="0.76992">
        <ele>84.5</ele>
        <time>2018-05-16T23:38:08Z</time>
      </trkpt>
      <trkpt lat="44.54685" lon="0.76996">
        <ele>84.5</ele>
        <time>2018-05-16T23:38:09Z</time>
      </trkpt>
      <trkpt lat="44.54682" lon="0.77">
        <ele>84.5</ele>
        <time>2018-05-16T23:38:10Z</time>
      </trkpt>
      <trkpt lat="44.5468" lon="0.77005">
        <ele>84.5</ele>
        <time>2018-05-16T23:38:11Z</time>
      </trkpt>
      <trkpt lat="44.54676" lon="0.77009">
        <ele>84.6</ele>
        <time>2018-05-16T23:38:12Z</time>
      </trkpt>
      <trkpt lat="44.54674" lon="0.77014">
        <ele>84.7</ele>
        <time>2018-05-16T23:38:13Z</time>
      </trkpt>
      <trkpt lat="44.54671" lon="0.77018">
        <ele>84.7</ele>
        <time>2018-05-16T23:38:14Z</time>
      </trkpt>
      <trkpt lat="44.54668" lon="0.77021">
        <ele>84.8</ele>
        <time>2018-05-16T23:38:15Z</time>
      </trkpt>
      <trkpt lat="44.54665" lon="0.77026">
        <ele>84.9</ele>
        <time>2018-05-16T23:38:16Z</time>
      </trkpt>
      <trkpt lat="44.54663" lon="0.7703">
        <ele>85.1</ele>
        <time>2018-05-16T23:38:17Z</time>
      </trkpt>
      <trkpt lat="44.54661" lon="0.77034">
        <ele>85.2</ele>
        <time>2018-05-16T23:38:18Z</time>
      </trkpt>
      <trkpt lat="44.54659" lon="0.77038">
        <ele>85.4</ele>
        <time>2018-05-16T23:38:19Z</time>
      </trkpt>
      <trkpt lat="44.54656" lon="0.77041">
        <ele>85.4</ele>
        <time>2018-05-16T23:38:20Z</time>
      </trkpt>
      <trkpt lat="44.54653" lon="0.77044">
        <ele>85.6</ele>
        <time>2018-05-16T23:38:21Z</time>
      </trkpt>
      <trkpt lat="44.54651" lon="0.77047">
        <ele>85.8</ele>
        <time>2018-05-16T23:38:22Z</time>
      </trkpt>
      <trkpt lat="44.54649" lon="0.7705">
        <ele>85.8</ele>
        <time>2018-05-16T23:38:23Z</time>
      </trkpt>
      <trkpt lat="44.54646" lon="0.77053">
        <ele>86</ele>
        <time>2018-05-16T23:38:24Z</time>
      </trkpt>
      <trkpt lat="44.54644" lon="0.77055">
        <ele>86.2</ele>
        <time>2018-05-16T23:38:25Z</time>
      </trkpt>
      <trkpt lat="44.54642" lon="0.77058">
        <ele>86.2</ele>
        <time>2018-05-16T23:38:26Z</time>
      </trkpt>
      <trkpt lat="44.5464" lon="0.7706">
        <ele>86.4</ele>
        <time>2018-05-16T23:38:28Z</time>
      </trkpt>
      <trkpt lat="44.54632" lon="0.77069">
        <ele>86.6</ele>
        <time>2018-05-16T23:41:49Z</time>
      </trkpt>
      <trkpt lat="44.54629" lon="0.77072">
        <ele>86.7</ele>
        <time>2018-05-16T23:41:51Z</time>
      </trkpt>
      <trkpt lat="44.54626" lon="0.77074">
        <ele>86.7</ele>
        <time>2018-05-16T23:41:52Z</time>
      </trkpt>
      <trkpt lat="44.54622" lon="0.77079">
        <ele>86.8</ele>
        <time>2018-05-16T23:41:54Z</time>
      </trkpt>
      <trkpt lat="44.54617" lon="0.77084">
        <ele>86.8</ele>
        <time>2018-05-16T23:41:56Z</time>
      </trkpt>
      <trkpt lat="44.54614" lon="0.77086">
        <ele>86.8</ele>
        <time>2018-05-16T23:41:57Z</time>
      </trkpt>
      <trkpt lat="44.54611" lon="0.77089">
        <ele>86.8</ele>
        <time>2018-05-16T23:41:59Z</time>
      </trkpt>
      <trkpt lat="44.54607" lon="0.77092">
        <ele>86.8</ele>
        <time>2018-05-16T23:42:00Z</time>
      </trkpt>
      <trkpt lat="44.54604" lon="0.77096">
        <ele>86.9</ele>
        <time>2018-05-16T23:42:01Z</time>
      </trkpt>
      <trkpt lat="44.54601" lon="0.77101">
        <ele>86.9</ele>
        <time>2018-05-16T23:42:02Z</time>
      </trkpt>
      <trkpt lat="44.54598" lon="0.77103">
        <ele>87</ele>
        <time>2018-05-16T23:42:03Z</time>
      </trkpt>
      <trkpt lat="44.54595" lon="0.77105">
        <ele>87</ele>
        <time>2018-05-16T23:42:04Z</time>
      </trkpt>
      <trkpt lat="44.54592" lon="0.77107">
        <ele>87</ele>
        <time>2018-05-16T23:42:05Z</time>
      </trkpt>
      <trkpt lat="44.54588" lon="0.77109">
        <ele>87.1</ele>
        <time>2018-05-16T23:42:06Z</time>
      </trkpt>
      <trkpt lat="44.54585" lon="0.77111">
        <ele>87.2</ele>
        <time>2018-05-16T23:42:07Z</time>
      </trkpt>
      <trkpt lat="44.54582" lon="0.77112">
        <ele>87.2</ele>
        <time>2018-05-16T23:42:08Z</time>
      </trkpt>
      <trkpt lat="44.54579" lon="0.77114">
        <ele>87.3</ele>
        <time>2018-05-16T23:42:09Z</time>
      </trkpt>
      <trkpt lat="44.54575" lon="0.77116">
        <ele>87.4</ele>
        <time>2018-05-16T23:42:11Z</time>
      </trkpt>
      <trkpt lat="44.5457" lon="0.77119">
        <ele>87.6</ele>
        <time>2018-05-16T23:42:13Z</time>
      </trkpt>
      <trkpt lat="44.54567" lon="0.77121">
        <ele>87.6</ele>
        <time>2018-05-16T23:42:14Z</time>
      </trkpt>
      <trkpt lat="44.54563" lon="0.77123">
        <ele>87.8</ele>
        <time>2018-05-16T23:42:16Z</time>
      </trkpt>
      <trkpt lat="44.54559" lon="0.77127">
        <ele>87.8</ele>
        <time>2018-05-16T23:42:18Z</time>
      </trkpt>
      <trkpt lat="44.54557" lon="0.77128">
        <ele>88</ele>
        <time>2018-05-16T23:42:19Z</time>
      </trkpt>
      <trkpt lat="44.54552" lon="0.77131">
        <ele>88.1</ele>
        <time>2018-05-16T23:42:21Z</time>
      </trkpt>
      <trkpt lat="44.54548" lon="0.77133">
        <ele>88.3</ele>
        <time>2018-05-16T23:42:23Z</time>
      </trkpt>
      <trkpt lat="44.54545" lon="0.77135">
        <ele>88.4</ele>
        <time>2018-05-16T23:42:25Z</time>
      </trkpt>
      <trkpt lat="44.54542" lon="0.77135">
        <ele>88.4</ele>
        <time>2018-05-16T23:42:27Z</time>
      </trkpt>
      <trkpt lat="44.54539" lon="0.77136">
        <ele>88.6</ele>
        <time>2018-05-16T23:42:29Z</time>
      </trkpt>
      <trkpt lat="44.54537" lon="0.77139">
        <ele>88.7</ele>
        <time>2018-05-16T23:42:31Z</time>
      </trkpt>
      <trkpt lat="44.54534" lon="0.77141">
        <ele>88.8</ele>
        <time>2018-05-16T23:42:34Z</time>
      </trkpt>
      <trkpt lat="44.54525" lon="0.77146">
        <ele>89.1</ele>
        <time>2018-05-16T23:42:55Z</time>
      </trkpt>
      <trkpt lat="44.54522" lon="0.77148">
        <ele>89.3</ele>
        <time>2018-05-16T23:42:57Z</time>
      </trkpt>
      <trkpt lat="44.54518" lon="0.7715">
        <ele>89.4</ele>
        <time>2018-05-16T23:42:59Z</time>
      </trkpt>
      <trkpt lat="44.54515" lon="0.77151">
        <ele>89.5</ele>
        <time>2018-05-16T23:43:01Z</time>
      </trkpt>
      <trkpt lat="44.54512" lon="0.77152">
        <ele>89.6</ele>
        <time>2018-05-16T23:43:03Z</time>
      </trkpt>
      <trkpt lat="44.54508" lon="0.77154">
        <ele>89.7</ele>
        <time>2018-05-16T23:43:05Z</time>
      </trkpt>
      <trkpt lat="44.54504" lon="0.77155">
        <ele>89.8</ele>
        <time>2018-05-16T23:43:07Z</time>
      </trkpt>
      <trkpt lat="44.545" lon="0.77156">
        <ele>90</ele>
        <time>2018-05-16T23:43:09Z</time>
      </trkpt>
      <trkpt lat="44.54496" lon="0.77156">
        <ele>90.1</ele>
        <time>2018-05-16T23:43:11Z</time>
      </trkpt>
      <trkpt lat="44.54493" lon="0.77158">
        <ele>90.3</ele>
        <time>2018-05-16T23:43:13Z</time>
      </trkpt>
      <trkpt lat="44.54489" lon="0.77159">
        <ele>90.4</ele>
        <time>2018-05-16T23:43:15Z</time>
      </trkpt>
      <trkpt lat="44.54486" lon="0.7716">
        <ele>90.5</ele>
        <time>2018-05-16T23:43:17Z</time>
      </trkpt>
      <trkpt lat="44.54482" lon="0.77161">
        <ele>90.6</ele>
        <time>2018-05-16T23:43:19Z</time>
      </trkpt>
      <trkpt lat="44.54478" lon="0.77162">
        <ele>90.7</ele>
        <time>2018-05-16T23:43:21Z</time>
      </trkpt>
      <trkpt lat="44.54474" lon="0.77163">
        <ele>90.9</ele>
        <time>2018-05-16T23:43:23Z</time>
      </trkpt>
      <trkpt lat="44.5447" lon="0.77165">
        <ele>91.1</ele>
        <time>2018-05-16T23:43:25Z</time>
      </trkpt>
      <trkpt lat="44.54466" lon="0.77167">
        <ele>91.3</ele>
        <time>2018-05-16T23:43:27Z</time>
      </trkpt>
      <trkpt lat="44.54463" lon="0.77167">
        <ele>91.4</ele>
        <time>2018-05-16T23:43:29Z</time>
      </trkpt>
      <trkpt lat="44.54459" lon="0.77168">
        <ele>91.4</ele>
        <time>2018-05-16T23:43:31Z</time>
      </trkpt>
      <trkpt lat="44.54455" lon="0.77171">
        <ele>91.6</ele>
        <time>2018-05-16T23:43:33Z</time>
      </trkpt>
      <trkpt lat="44.54451" lon="0.77173">
        <ele>91.8</ele>
        <time>2018-05-16T23:43:35Z</time>
      </trkpt>
      <trkpt lat="44.54447" lon="0.77174">
        <ele>91.9</ele>
        <time>2018-05-16T23:43:37Z</time>
      </trkpt>
      <trkpt lat="44.54443" lon="0.77176">
        <ele>92.1</ele>
        <time>2018-05-16T23:43:39Z</time>
      </trkpt>
      <trkpt lat="44.54439" lon="0.77179">
        <ele>92.3</ele>
        <time>2018-05-16T23:43:41Z</time>
      </trkpt>
      <trkpt lat="44.54434" lon="0.77181">
        <ele>92.5</ele>
        <time>2018-05-16T23:43:43Z</time>
      </trkpt>
      <trkpt lat="44.5443" lon="0.77183">
        <ele>92.6</ele>
        <time>2018-05-16T23:43:45Z</time>
      </trkpt>
      <trkpt lat="44.54427" lon="0.77186">
        <ele>92.9</ele>
        <time>2018-05-16T23:43:47Z</time>
      </trkpt>
      <trkpt lat="44.54423" lon="0.77188">
        <ele>93</ele>
        <time>2018-05-16T23:43:49Z</time>
      </trkpt>
      <trkpt lat="44.54419" lon="0.7719">
        <ele>93.2</ele>
        <time>2018-05-16T23:43:51Z</time>
      </trkpt>
      <trkpt lat="44.54415" lon="0.77192">
        <ele>93.4</ele>
        <time>2018-05-16T23:43:53Z</time>
      </trkpt>
      <trkpt lat="44.54411" lon="0.77194">
        <ele>93.7</ele>
        <time>2018-05-16T23:43:55Z</time>
      </trkpt>
      <trkpt lat="44.54407" lon="0.77195">
        <ele>93.8</ele>
        <time>2018-05-16T23:43:57Z</time>
      </trkpt>
      <trkpt lat="44.54402" lon="0.77196">
        <ele>94</ele>
        <time>2018-05-16T23:43:59Z</time>
      </trkpt>
      <trkpt lat="44.54398" lon="0.77197">
        <ele>94.1</ele>
        <time>2018-05-16T23:44:01Z</time>
      </trkpt>
      <trkpt lat="44.54395" lon="0.77198">
        <ele>94.2</ele>
        <time>2018-05-16T23:44:03Z</time>
      </trkpt>
      <trkpt lat="44.54391" lon="0.77199">
        <ele>94.3</ele>
        <time>2018-05-16T23:44:05Z</time>
      </trkpt>
      <trkpt lat="44.54387" lon="0.772">
        <ele>94.6</ele>
        <time>2018-05-16T23:44:07Z</time>
      </trkpt>
      <trkpt lat="44.54383" lon="0.77201">
        <ele>94.8</ele>
        <time>2018-05-16T23:44:09Z</time>
      </trkpt>
      <trkpt lat="44.54379" lon="0.77202">
        <ele>94.9</ele>
        <time>2018-05-16T23:44:11Z</time>
      </trkpt>
      <trkpt lat="44.54375" lon="0.77203">
        <ele>95.1</ele>
        <time>2018-05-16T23:44:13Z</time>
      </trkpt>
      <trkpt lat="44.54371" lon="0.77203">
        <ele>95.3</ele>
        <time>2018-05-16T23:44:15Z</time>
      </trkpt>
      <trkpt lat="44.54367" lon="0.77204">
        <ele>95.4</ele>
        <time>2018-05-16T23:44:17Z</time>
      </trkpt>
      <trkpt lat="44.54363" lon="0.77205">
        <ele>95.8</ele>
        <time>2018-05-16T23:44:19Z</time>
      </trkpt>
      <trkpt lat="44.54358" lon="0.77205">
        <ele>96.1</ele>
        <time>2018-05-16T23:44:21Z</time>
      </trkpt>
      <trkpt lat="44.54354" lon="0.77205">
        <ele>96.3</ele>
        <time>2018-05-16T23:44:23Z</time>
      </trkpt>
      <trkpt lat="44.54349" lon="0.77205">
        <ele>96.7</ele>
        <time>2018-05-16T23:44:25Z</time>
      </trkpt>
      <trkpt lat="44.54345" lon="0.77205">
        <ele>96.9</ele>
        <time>2018-05-16T23:44:27Z</time>
      </trkpt>
      <trkpt lat="44.54341" lon="0.77205">
        <ele>97.4</ele>
        <time>2018-05-16T23:44:29Z</time>
      </trkpt>
      <trkpt lat="44.54336" lon="0.77206">
        <ele>97.7</ele>
        <time>2018-05-16T23:44:31Z</time>
      </trkpt>
      <trkpt lat="44.54332" lon="0.77207">
        <ele>98.3</ele>
        <time>2018-05-16T23:44:33Z</time>
      </trkpt>
      <trkpt lat="44.54328" lon="0.77208">
        <ele>98.6</ele>
        <time>2018-05-16T23:44:35Z</time>
      </trkpt>
      <trkpt lat="44.54324" lon="0.77209">
        <ele>98.6</ele>
        <time>2018-05-16T23:44:37Z</time>
      </trkpt>
      <trkpt lat="44.5432" lon="0.7721">
        <ele>98.9</ele>
        <time>2018-05-16T23:44:39Z</time>
      </trkpt>
      <trkpt lat="44.54316" lon="0.77211">
        <ele>99.5</ele>
        <time>2018-05-16T23:44:41Z</time>
      </trkpt>
      <trkpt lat="44.54313" lon="0.77213">
        <ele>99.4</ele>
        <time>2018-05-16T23:44:43Z</time>
      </trkpt>
      <trkpt lat="44.5431" lon="0.77216">
        <ele>99.7</ele>
        <time>2018-05-16T23:44:45Z</time>
      </trkpt>
      <trkpt lat="44.54306" lon="0.77217">
        <ele>100.1</ele>
        <time>2018-05-16T23:44:47Z</time>
      </trkpt>
      <trkpt lat="44.54303" lon="0.7722">
        <ele>100</ele>
        <time>2018-05-16T23:44:49Z</time>
      </trkpt>
      <trkpt lat="44.54298" lon="0.77222">
        <ele>100.7</ele>
        <time>2018-05-16T23:44:51Z</time>
      </trkpt>
      <trkpt lat="44.54295" lon="0.77223">
        <ele>100.6</ele>
        <time>2018-05-16T23:44:53Z</time>
      </trkpt>
      <trkpt lat="44.54291" lon="0.77223">
        <ele>100.9</ele>
        <time>2018-05-16T23:44:56Z</time>
      </trkpt>
      <trkpt lat="44.54287" lon="0.77225">
        <ele>101.2</ele>
        <time>2018-05-16T23:44:58Z</time>
      </trkpt>
      <trkpt lat="44.54285" lon="0.77227">
        <ele>101.6</ele>
        <time>2018-05-16T23:45:00Z</time>
      </trkpt>
      <trkpt lat="44.54281" lon="0.77228">
        <ele>102</ele>
        <time>2018-05-16T23:45:03Z</time>
      </trkpt>
      <trkpt lat="44.54278" lon="0.77229">
        <ele>102.5</ele>
        <time>2018-05-16T23:45:05Z</time>
      </trkpt>
      <trkpt lat="44.54275" lon="0.77228">
        <ele>103.1</ele>
        <time>2018-05-16T23:45:07Z</time>
      </trkpt>
      <trkpt lat="44.54273" lon="0.77225">
        <ele>103.6</ele>
        <time>2018-05-16T23:45:10Z</time>
      </trkpt>
      <trkpt lat="44.5427" lon="0.77222">
        <ele>104.1</ele>
        <time>2018-05-16T23:45:12Z</time>
      </trkpt>
      <trkpt lat="44.54266" lon="0.77219">
        <ele>104.5</ele>
        <time>2018-05-16T23:45:14Z</time>
      </trkpt>
      <trkpt lat="44.54262" lon="0.77218">
        <ele>104.7</ele>
        <time>2018-05-16T23:45:16Z</time>
      </trkpt>
      <trkpt lat="44.54258" lon="0.77216">
        <ele>105</ele>
        <time>2018-05-16T23:45:18Z</time>
      </trkpt>
      <trkpt lat="44.54254" lon="0.77214">
        <ele>105.5</ele>
        <time>2018-05-16T23:45:20Z</time>
      </trkpt>
      <trkpt lat="44.54251" lon="0.77212">
        <ele>105.8</ele>
        <time>2018-05-16T23:45:22Z</time>
      </trkpt>
      <trkpt lat="44.54247" lon="0.77212">
        <ele>105.9</ele>
        <time>2018-05-16T23:45:24Z</time>
      </trkpt>
      <trkpt lat="44.54244" lon="0.7721">
        <ele>105.9</ele>
        <time>2018-05-16T23:45:26Z</time>
      </trkpt>
      <trkpt lat="44.54241" lon="0.77208">
        <ele>106.1</ele>
        <time>2018-05-16T23:45:28Z</time>
      </trkpt>
      <trkpt lat="44.54238" lon="0.77206">
        <ele>106.4</ele>
        <time>2018-05-16T23:45:30Z</time>
      </trkpt>
      <trkpt lat="44.54234" lon="0.77203">
        <ele>106.5</ele>
        <time>2018-05-16T23:45:33Z</time>
      </trkpt>
      <trkpt lat="44.54231" lon="0.77203">
        <ele>106.6</ele>
        <time>2018-05-16T23:45:35Z</time>
      </trkpt>
      <trkpt lat="44.54226" lon="0.77204">
        <ele>106.7</ele>
        <time>2018-05-16T23:45:38Z</time>
      </trkpt>
      <trkpt lat="44.54224" lon="0.77203">
        <ele>106.9</ele>
        <time>2018-05-16T23:45:40Z</time>
      </trkpt>
      <trkpt lat="44.5422" lon="0.77204">
        <ele>107</ele>
        <time>2018-05-16T23:45:42Z</time>
      </trkpt>
      <trkpt lat="44.54217" lon="0.77203">
        <ele>107.1</ele>
        <time>2018-05-16T23:45:44Z</time>
      </trkpt>
      <trkpt lat="44.54213" lon="0.77202">
        <ele>107.1</ele>
        <time>2018-05-16T23:45:46Z</time>
      </trkpt>
      <trkpt lat="44.5421" lon="0.77201">
        <ele>107.2</ele>
        <time>2018-05-16T23:45:48Z</time>
      </trkpt>
      <trkpt lat="44.54207" lon="0.77199">
        <ele>107.3</ele>
        <time>2018-05-16T23:45:50Z</time>
      </trkpt>
      <trkpt lat="44.54204" lon="0.77198">
        <ele>107.4</ele>
        <time>2018-05-16T23:45:53Z</time>
      </trkpt>
      <trkpt lat="44.54197" lon="0.772">
        <ele>107.6</ele>
        <time>2018-05-16T23:45:59Z</time>
      </trkpt>
      <trkpt lat="44.54194" lon="0.77202">
        <ele>107.8</ele>
        <time>2018-05-16T23:46:01Z</time>
      </trkpt>
      <trkpt lat="44.5419" lon="0.77204">
        <ele>107.8</ele>
        <time>2018-05-16T23:46:03Z</time>
      </trkpt>
      <trkpt lat="44.54187" lon="0.77206">
        <ele>107.7</ele>
        <time>2018-05-16T23:46:05Z</time>
      </trkpt>
      <trkpt lat="44.54182" lon="0.77208">
        <ele>107.7</ele>
        <time>2018-05-16T23:46:07Z</time>
      </trkpt>
      <trkpt lat="44.54178" lon="0.7721">
        <ele>107.7</ele>
        <time>2018-05-16T23:46:09Z</time>
      </trkpt>
      <trkpt lat="44.54174" lon="0.77211">
        <ele>107.6</ele>
        <time>2018-05-16T23:46:11Z</time>
      </trkpt>
      <trkpt lat="44.54171" lon="0.77212">
        <ele>107.6</ele>
        <time>2018-05-16T23:46:13Z</time>
      </trkpt>
      <trkpt lat="44.54167" lon="0.77214">
        <ele>107.6</ele>
        <time>2018-05-16T23:46:15Z</time>
      </trkpt>
      <trkpt lat="44.54163" lon="0.77215">
        <ele>107.7</ele>
        <time>2018-05-16T23:46:17Z</time>
      </trkpt>
      <trkpt lat="44.5416" lon="0.77215">
        <ele>107.8</ele>
        <time>2018-05-16T23:46:19Z</time>
      </trkpt>
      <trkpt lat="44.54157" lon="0.77217">
        <ele>107.8</ele>
        <time>2018-05-16T23:46:21Z</time>
      </trkpt>
      <trkpt lat="44.54153" lon="0.77218">
        <ele>107.9</ele>
        <time>2018-05-16T23:46:23Z</time>
      </trkpt>
      <trkpt lat="44.54149" lon="0.7722">
        <ele>108</ele>
        <time>2018-05-16T23:46:25Z</time>
      </trkpt>
      <trkpt lat="44.54146" lon="0.77221">
        <ele>108.1</ele>
        <time>2018-05-16T23:46:27Z</time>
      </trkpt>
      <trkpt lat="44.54141" lon="0.77222">
        <ele>108.2</ele>
        <time>2018-05-16T23:46:29Z</time>
      </trkpt>
      <trkpt lat="44.54138" lon="0.77222">
        <ele>108.3</ele>
        <time>2018-05-16T23:46:30Z</time>
      </trkpt>
      <trkpt lat="44.54133" lon="0.77222">
        <ele>108.5</ele>
        <time>2018-05-16T23:46:32Z</time>
      </trkpt>
      <trkpt lat="44.54129" lon="0.77221">
        <ele>108.6</ele>
        <time>2018-05-16T23:46:34Z</time>
      </trkpt>
      <trkpt lat="44.54126" lon="0.7722">
        <ele>108.7</ele>
        <time>2018-05-16T23:46:35Z</time>
      </trkpt>
      <trkpt lat="44.54121" lon="0.77219">
        <ele>108.9</ele>
        <time>2018-05-16T23:46:37Z</time>
      </trkpt>
      <trkpt lat="44.54117" lon="0.77218">
        <ele>109.1</ele>
        <time>2018-05-16T23:46:39Z</time>
      </trkpt>
      <trkpt lat="44.54114" lon="0.77219">
        <ele>109.3</ele>
        <time>2018-05-16T23:46:40Z</time>
      </trkpt>
      <trkpt lat="44.54109" lon="0.77219">
        <ele>109.7</ele>
        <time>2018-05-16T23:46:42Z</time>
      </trkpt>
      <trkpt lat="44.54104" lon="0.77217">
        <ele>110</ele>
        <time>2018-05-16T23:46:44Z</time>
      </trkpt>
      <trkpt lat="44.54099" lon="0.77216">
        <ele>110.3</ele>
        <time>2018-05-16T23:46:46Z</time>
      </trkpt>
      <trkpt lat="44.54097" lon="0.77214">
        <ele>110.4</ele>
        <time>2018-05-16T23:46:47Z</time>
      </trkpt>
      <trkpt lat="44.54093" lon="0.77212">
        <ele>110.5</ele>
        <time>2018-05-16T23:46:49Z</time>
      </trkpt>
      <trkpt lat="44.54087" lon="0.7721">
        <ele>110.8</ele>
        <time>2018-05-16T23:46:51Z</time>
      </trkpt>
      <trkpt lat="44.54084" lon="0.77208">
        <ele>111.1</ele>
        <time>2018-05-16T23:46:52Z</time>
      </trkpt>
      <trkpt lat="44.54081" lon="0.77207">
        <ele>111.3</ele>
        <time>2018-05-16T23:46:53Z</time>
      </trkpt>
      <trkpt lat="44.54078" lon="0.77205">
        <ele>111.6</ele>
        <time>2018-05-16T23:46:54Z</time>
      </trkpt>
      <trkpt lat="44.54075" lon="0.77203">
        <ele>111.9</ele>
        <time>2018-05-16T23:46:55Z</time>
      </trkpt>
      <trkpt lat="44.54073" lon="0.77202">
        <ele>112.1</ele>
        <time>2018-05-16T23:46:56Z</time>
      </trkpt>
      <trkpt lat="44.5407" lon="0.772">
        <ele>112.2</ele>
        <time>2018-05-16T23:46:57Z</time>
      </trkpt>
      <trkpt lat="44.54065" lon="0.77198">
        <ele>112.3</ele>
        <time>2018-05-16T23:46:59Z</time>
      </trkpt>
      <trkpt lat="44.54062" lon="0.77196">
        <ele>112.6</ele>
        <time>2018-05-16T23:47:00Z</time>
      </trkpt>
      <trkpt lat="44.54059" lon="0.77194">
        <ele>112.9</ele>
        <time>2018-05-16T23:47:01Z</time>
      </trkpt>
      <trkpt lat="44.54057" lon="0.77193">
        <ele>113.1</ele>
        <time>2018-05-16T23:47:02Z</time>
      </trkpt>
      <trkpt lat="44.54054" lon="0.77191">
        <ele>113.4</ele>
        <time>2018-05-16T23:47:03Z</time>
      </trkpt>
      <trkpt lat="44.54049" lon="0.7719">
        <ele>113.8</ele>
        <time>2018-05-16T23:47:05Z</time>
      </trkpt>
      <trkpt lat="44.54045" lon="0.77188">
        <ele>114</ele>
        <time>2018-05-16T23:47:07Z</time>
      </trkpt>
      <trkpt lat="44.5404" lon="0.77187">
        <ele>114.2</ele>
        <time>2018-05-16T23:47:09Z</time>
      </trkpt>
      <trkpt lat="44.54037" lon="0.77186">
        <ele>114.4</ele>
        <time>2018-05-16T23:47:10Z</time>
      </trkpt>
      <trkpt lat="44.54034" lon="0.77185">
        <ele>114.7</ele>
        <time>2018-05-16T23:47:11Z</time>
      </trkpt>
      <trkpt lat="44.54031" lon="0.77184">
        <ele>114.9</ele>
        <time>2018-05-16T23:47:12Z</time>
      </trkpt>
      <trkpt lat="44.54027" lon="0.77183">
        <ele>115.3</ele>
        <time>2018-05-16T23:47:14Z</time>
      </trkpt>
      <trkpt lat="44.54024" lon="0.77182">
        <ele>115.6</ele>
        <time>2018-05-16T23:47:15Z</time>
      </trkpt>
      <trkpt lat="44.54021" lon="0.77181">
        <ele>115.7</ele>
        <time>2018-05-16T23:47:16Z</time>
      </trkpt>
      <trkpt lat="44.54018" lon="0.77179">
        <ele>115.8</ele>
        <time>2018-05-16T23:47:17Z</time>
      </trkpt>
      <trkpt lat="44.54013" lon="0.77177">
        <ele>116</ele>
        <time>2018-05-16T23:47:19Z</time>
      </trkpt>
      <trkpt lat="44.5401" lon="0.77176">
        <ele>116.2</ele>
        <time>2018-05-16T23:47:20Z</time>
      </trkpt>
      <trkpt lat="44.54007" lon="0.77175">
        <ele>116.3</ele>
        <time>2018-05-16T23:47:21Z</time>
      </trkpt>
      <trkpt lat="44.54004" lon="0.77174">
        <ele>116.5</ele>
        <time>2018-05-16T23:47:22Z</time>
      </trkpt>
      <trkpt lat="44.54001" lon="0.77172">
        <ele>116.7</ele>
        <time>2018-05-16T23:47:23Z</time>
      </trkpt>
      <trkpt lat="44.53998" lon="0.77171">
        <ele>116.8</ele>
        <time>2018-05-16T23:47:24Z</time>
      </trkpt>
      <trkpt lat="44.53995" lon="0.7717">
        <ele>116.9</ele>
        <time>2018-05-16T23:47:25Z</time>
      </trkpt>
      <trkpt lat="44.53992" lon="0.77169">
        <ele>117</ele>
        <time>2018-05-16T23:47:26Z</time>
      </trkpt>
      <trkpt lat="44.53987" lon="0.77167">
        <ele>117</ele>
        <time>2018-05-16T23:47:28Z</time>
      </trkpt>
      <trkpt lat="44.53984" lon="0.77166">
        <ele>117</ele>
        <time>2018-05-16T23:47:29Z</time>
      </trkpt>
      <trkpt lat="44.53981" lon="0.77166">
        <ele>117</ele>
        <time>2018-05-16T23:47:30Z</time>
      </trkpt>
      <trkpt lat="44.53976" lon="0.77163">
        <ele>117</ele>
        <time>2018-05-16T23:47:32Z</time>
      </trkpt>
      <trkpt lat="44.53973" lon="0.77162">
        <ele>117.1</ele>
        <time>2018-05-16T23:47:33Z</time>
      </trkpt>
      <trkpt lat="44.5397" lon="0.77162">
        <ele>117.1</ele>
        <time>2018-05-16T23:47:34Z</time>
      </trkpt>
      <trkpt lat="44.53967" lon="0.77162">
        <ele>117.1</ele>
        <time>2018-05-16T23:47:35Z</time>
      </trkpt>
      <trkpt lat="44.53964" lon="0.77162">
        <ele>117.2</ele>
        <time>2018-05-16T23:47:36Z</time>
      </trkpt>
      <trkpt lat="44.53962" lon="0.77161">
        <ele>117.2</ele>
        <time>2018-05-16T23:47:37Z</time>
      </trkpt>
      <trkpt lat="44.53959" lon="0.7716">
        <ele>117.2</ele>
        <time>2018-05-16T23:47:38Z</time>
      </trkpt>
      <trkpt lat="44.53956" lon="0.77159">
        <ele>117.3</ele>
        <time>2018-05-16T23:47:39Z</time>
      </trkpt>
      <trkpt lat="44.53953" lon="0.77158">
        <ele>117.3</ele>
        <time>2018-05-16T23:47:40Z</time>
      </trkpt>
      <trkpt lat="44.5395" lon="0.77157">
        <ele>117.4</ele>
        <time>2018-05-16T23:47:41Z</time>
      </trkpt>
      <trkpt lat="44.53946" lon="0.77156">
        <ele>117.5</ele>
        <time>2018-05-16T23:47:42Z</time>
      </trkpt>
      <trkpt lat="44.53943" lon="0.77155">
        <ele>117.6</ele>
        <time>2018-05-16T23:47:43Z</time>
      </trkpt>
      <trkpt lat="44.5394" lon="0.77155">
        <ele>117.7</ele>
        <time>2018-05-16T23:47:44Z</time>
      </trkpt>
      <trkpt lat="44.53936" lon="0.77154">
        <ele>117.8</ele>
        <time>2018-05-16T23:47:45Z</time>
      </trkpt>
      <trkpt lat="44.53933" lon="0.77153">
        <ele>117.8</ele>
        <time>2018-05-16T23:47:46Z</time>
      </trkpt>
      <trkpt lat="44.5393" lon="0.77153">
        <ele>117.9</ele>
        <time>2018-05-16T23:47:47Z</time>
      </trkpt>
      <trkpt lat="44.53926" lon="0.77152">
        <ele>118.1</ele>
        <time>2018-05-16T23:47:48Z</time>
      </trkpt>
      <trkpt lat="44.53923" lon="0.77152">
        <ele>118.3</ele>
        <time>2018-05-16T23:47:49Z</time>
      </trkpt>
      <trkpt lat="44.5392" lon="0.77152">
        <ele>118.5</ele>
        <time>2018-05-16T23:47:50Z</time>
      </trkpt>
      <trkpt lat="44.53917" lon="0.77153">
        <ele>118.8</ele>
        <time>2018-05-16T23:47:51Z</time>
      </trkpt>
      <trkpt lat="44.53914" lon="0.77153">
        <ele>119.1</ele>
        <time>2018-05-16T23:47:52Z</time>
      </trkpt>
      <trkpt lat="44.53911" lon="0.77154">
        <ele>119.3</ele>
        <time>2018-05-16T23:47:53Z</time>
      </trkpt>
      <trkpt lat="44.53909" lon="0.77155">
        <ele>119.5</ele>
        <time>2018-05-16T23:47:54Z</time>
      </trkpt>
      <trkpt lat="44.53906" lon="0.77155">
        <ele>119.8</ele>
        <time>2018-05-16T23:47:55Z</time>
      </trkpt>
      <trkpt lat="44.53901" lon="0.77158">
        <ele>120</ele>
        <time>2018-05-16T23:47:57Z</time>
      </trkpt>
      <trkpt lat="44.53898" lon="0.77159">
        <ele>120.1</ele>
        <time>2018-05-16T23:47:58Z</time>
      </trkpt>
      <trkpt lat="44.53895" lon="0.7716">
        <ele>120.3</ele>
        <time>2018-05-16T23:47:59Z</time>
      </trkpt>
      <trkpt lat="44.5389" lon="0.77163">
        <ele>120.5</ele>
        <time>2018-05-16T23:48:01Z</time>
      </trkpt>
      <trkpt lat="44.53885" lon="0.77165">
        <ele>120.9</ele>
        <time>2018-05-16T23:48:03Z</time>
      </trkpt>
      <trkpt lat="44.53882" lon="0.77166">
        <ele>121.2</ele>
        <time>2018-05-16T23:48:04Z</time>
      </trkpt>
      <trkpt lat="44.53879" lon="0.77167">
        <ele>121.4</ele>
        <time>2018-05-16T23:48:05Z</time>
      </trkpt>
      <trkpt lat="44.53876" lon="0.77168">
        <ele>121.7</ele>
        <time>2018-05-16T23:48:06Z</time>
      </trkpt>
      <trkpt lat="44.53873" lon="0.77169">
        <ele>122</ele>
        <time>2018-05-16T23:48:07Z</time>
      </trkpt>
      <trkpt lat="44.53869" lon="0.7717">
        <ele>122.2</ele>
        <time>2018-05-16T23:48:08Z</time>
      </trkpt>
      <trkpt lat="44.53866" lon="0.77171">
        <ele>122.4</ele>
        <time>2018-05-16T23:48:09Z</time>
      </trkpt>
      <trkpt lat="44.53863" lon="0.77172">
        <ele>122.6</ele>
        <time>2018-05-16T23:48:10Z</time>
      </trkpt>
      <trkpt lat="44.5386" lon="0.77173">
        <ele>122.8</ele>
        <time>2018-05-16T23:48:11Z</time>
      </trkpt>
      <trkpt lat="44.53857" lon="0.77174">
        <ele>122.9</ele>
        <time>2018-05-16T23:48:12Z</time>
      </trkpt>
      <trkpt lat="44.53854" lon="0.77175">
        <ele>122.9</ele>
        <time>2018-05-16T23:48:13Z</time>
      </trkpt>
      <trkpt lat="44.53851" lon="0.77176">
        <ele>123</ele>
        <time>2018-05-16T23:48:14Z</time>
      </trkpt>
      <trkpt lat="44.53848" lon="0.77177">
        <ele>123</ele>
        <time>2018-05-16T23:48:15Z</time>
      </trkpt>
      <trkpt lat="44.53845" lon="0.77178">
        <ele>123.1</ele>
        <time>2018-05-16T23:48:16Z</time>
      </trkpt>
      <trkpt lat="44.53842" lon="0.77179">
        <ele>123.1</ele>
        <time>2018-05-16T23:48:17Z</time>
      </trkpt>
      <trkpt lat="44.53839" lon="0.77179">
        <ele>123.2</ele>
        <time>2018-05-16T23:48:18Z</time>
      </trkpt>
      <trkpt lat="44.53836" lon="0.77181">
        <ele>123.2</ele>
        <time>2018-05-16T23:48:19Z</time>
      </trkpt>
      <trkpt lat="44.53833" lon="0.77182">
        <ele>123.3</ele>
        <time>2018-05-16T23:48:20Z</time>
      </trkpt>
      <trkpt lat="44.5383" lon="0.77184">
        <ele>123.3</ele>
        <time>2018-05-16T23:48:21Z</time>
      </trkpt>
      <trkpt lat="44.53827" lon="0.77185">
        <ele>123.4</ele>
        <time>2018-05-16T23:48:22Z</time>
      </trkpt>
      <trkpt lat="44.53824" lon="0.77187">
        <ele>123.4</ele>
        <time>2018-05-16T23:48:23Z</time>
      </trkpt>
      <trkpt lat="44.53821" lon="0.77188">
        <ele>123.5</ele>
        <time>2018-05-16T23:48:24Z</time>
      </trkpt>
      <trkpt lat="44.53818" lon="0.77188">
        <ele>123.5</ele>
        <time>2018-05-16T23:48:25Z</time>
      </trkpt>
      <trkpt lat="44.53814" lon="0.77189">
        <ele>123.6</ele>
        <time>2018-05-16T23:48:26Z</time>
      </trkpt>
      <trkpt lat="44.53812" lon="0.7719">
        <ele>123.6</ele>
        <time>2018-05-16T23:48:27Z</time>
      </trkpt>
      <trkpt lat="44.53809" lon="0.77191">
        <ele>123.7</ele>
        <time>2018-05-16T23:48:28Z</time>
      </trkpt>
      <trkpt lat="44.53806" lon="0.77192">
        <ele>123.8</ele>
        <time>2018-05-16T23:48:29Z</time>
      </trkpt>
      <trkpt lat="44.53801" lon="0.77193">
        <ele>123.9</ele>
        <time>2018-05-16T23:48:31Z</time>
      </trkpt>
      <trkpt lat="44.53796" lon="0.77195">
        <ele>124</ele>
        <time>2018-05-16T23:48:33Z</time>
      </trkpt>
      <trkpt lat="44.53793" lon="0.77196">
        <ele>124.1</ele>
        <time>2018-05-16T23:48:34Z</time>
      </trkpt>
      <trkpt lat="44.5379" lon="0.77197">
        <ele>124.1</ele>
        <time>2018-05-16T23:48:35Z</time>
      </trkpt>
      <trkpt lat="44.53787" lon="0.77198">
        <ele>124.2</ele>
        <time>2018-05-16T23:48:36Z</time>
      </trkpt>
      <trkpt lat="44.53783" lon="0.772">
        <ele>124.4</ele>
        <time>2018-05-16T23:48:38Z</time>
      </trkpt>
      <trkpt lat="44.5378" lon="0.77201">
        <ele>124.6</ele>
        <time>2018-05-16T23:48:39Z</time>
      </trkpt>
      <trkpt lat="44.53775" lon="0.77202">
        <ele>124.9</ele>
        <time>2018-05-16T23:48:41Z</time>
      </trkpt>
      <trkpt lat="44.5377" lon="0.77205">
        <ele>125.3</ele>
        <time>2018-05-16T23:48:43Z</time>
      </trkpt>
      <trkpt lat="44.53767" lon="0.77206">
        <ele>125.6</ele>
        <time>2018-05-16T23:48:44Z</time>
      </trkpt>
      <trkpt lat="44.53764" lon="0.77207">
        <ele>125.7</ele>
        <time>2018-05-16T23:48:45Z</time>
      </trkpt>
      <trkpt lat="44.53761" lon="0.77208">
        <ele>125.9</ele>
        <time>2018-05-16T23:48:46Z</time>
      </trkpt>
      <trkpt lat="44.53758" lon="0.77209">
        <ele>126</ele>
        <time>2018-05-16T23:48:47Z</time>
      </trkpt>
      <trkpt lat="44.53756" lon="0.7721">
        <ele>126.1</ele>
        <time>2018-05-16T23:48:48Z</time>
      </trkpt>
      <trkpt lat="44.53753" lon="0.77211">
        <ele>126.2</ele>
        <time>2018-05-16T23:48:49Z</time>
      </trkpt>
      <trkpt lat="44.5375" lon="0.77211">
        <ele>126.4</ele>
        <time>2018-05-16T23:48:50Z</time>
      </trkpt>
      <trkpt lat="44.53747" lon="0.77212">
        <ele>126.7</ele>
        <time>2018-05-16T23:48:51Z</time>
      </trkpt>
      <trkpt lat="44.53744" lon="0.77213">
        <ele>126.9</ele>
        <time>2018-05-16T23:48:52Z</time>
      </trkpt>
      <trkpt lat="44.53741" lon="0.77214">
        <ele>127.2</ele>
        <time>2018-05-16T23:48:53Z</time>
      </trkpt>
      <trkpt lat="44.53738" lon="0.77214">
        <ele>127.4</ele>
        <time>2018-05-16T23:48:54Z</time>
      </trkpt>
      <trkpt lat="44.53735" lon="0.77215">
        <ele>127.6</ele>
        <time>2018-05-16T23:48:55Z</time>
      </trkpt>
      <trkpt lat="44.53732" lon="0.77216">
        <ele>127.9</ele>
        <time>2018-05-16T23:48:56Z</time>
      </trkpt>
      <trkpt lat="44.53729" lon="0.77217">
        <ele>128.2</ele>
        <time>2018-05-16T23:48:57Z</time>
      </trkpt>
      <trkpt lat="44.53726" lon="0.77218">
        <ele>128.4</ele>
        <time>2018-05-16T23:48:58Z</time>
      </trkpt>
      <trkpt lat="44.53723" lon="0.77219">
        <ele>128.5</ele>
        <time>2018-05-16T23:48:59Z</time>
      </trkpt>
      <trkpt lat="44.53719" lon="0.7722">
        <ele>128.6</ele>
        <time>2018-05-16T23:49:00Z</time>
      </trkpt>
      <trkpt lat="44.53717" lon="0.77221">
        <ele>128.7</ele>
        <time>2018-05-16T23:49:01Z</time>
      </trkpt>
      <trkpt lat="44.53714" lon="0.77222">
        <ele>128.9</ele>
        <time>2018-05-16T23:49:02Z</time>
      </trkpt>
      <trkpt lat="44.53711" lon="0.77223">
        <ele>129</ele>
        <time>2018-05-16T23:49:03Z</time>
      </trkpt>
      <trkpt lat="44.53708" lon="0.77224">
        <ele>129.1</ele>
        <time>2018-05-16T23:49:04Z</time>
      </trkpt>
      <trkpt lat="44.53705" lon="0.77225">
        <ele>129.3</ele>
        <time>2018-05-16T23:49:05Z</time>
      </trkpt>
      <trkpt lat="44.53702" lon="0.77226">
        <ele>129.5</ele>
        <time>2018-05-16T23:49:06Z</time>
      </trkpt>
      <trkpt lat="44.537" lon="0.77227">
        <ele>129.7</ele>
        <time>2018-05-16T23:49:07Z</time>
      </trkpt>
      <trkpt lat="44.53697" lon="0.77228">
        <ele>129.9</ele>
        <time>2018-05-16T23:49:08Z</time>
      </trkpt>
      <trkpt lat="44.53694" lon="0.77228">
        <ele>130.1</ele>
        <time>2018-05-16T23:49:09Z</time>
      </trkpt>
      <trkpt lat="44.53691" lon="0.77229">
        <ele>130.3</ele>
        <time>2018-05-16T23:49:10Z</time>
      </trkpt>
      <trkpt lat="44.53686" lon="0.7723">
        <ele>130.6</ele>
        <time>2018-05-16T23:49:12Z</time>
      </trkpt>
      <trkpt lat="44.53684" lon="0.7723">
        <ele>130.7</ele>
        <time>2018-05-16T23:49:13Z</time>
      </trkpt>
      <trkpt lat="44.53678" lon="0.77232">
        <ele>130.8</ele>
        <time>2018-05-16T23:49:15Z</time>
      </trkpt>
      <trkpt lat="44.53675" lon="0.77233">
        <ele>130.9</ele>
        <time>2018-05-16T23:49:16Z</time>
      </trkpt>
      <trkpt lat="44.53673" lon="0.77234">
        <ele>130.9</ele>
        <time>2018-05-16T23:49:17Z</time>
      </trkpt>
      <trkpt lat="44.5367" lon="0.77235">
        <ele>131</ele>
        <time>2018-05-16T23:49:18Z</time>
      </trkpt>
      <trkpt lat="44.53667" lon="0.77236">
        <ele>131</ele>
        <time>2018-05-16T23:49:19Z</time>
      </trkpt>
      <trkpt lat="44.53664" lon="0.77237">
        <ele>131.1</ele>
        <time>2018-05-16T23:49:20Z</time>
      </trkpt>
      <trkpt lat="44.53661" lon="0.77238">
        <ele>131.2</ele>
        <time>2018-05-16T23:49:21Z</time>
      </trkpt>
      <trkpt lat="44.53658" lon="0.77239">
        <ele>131.2</ele>
        <time>2018-05-16T23:49:22Z</time>
      </trkpt>
      <trkpt lat="44.53655" lon="0.7724">
        <ele>131.3</ele>
        <time>2018-05-16T23:49:23Z</time>
      </trkpt>
      <trkpt lat="44.53652" lon="0.77241">
        <ele>131.3</ele>
        <time>2018-05-16T23:49:24Z</time>
      </trkpt>
      <trkpt lat="44.5365" lon="0.77242">
        <ele>131.4</ele>
        <time>2018-05-16T23:49:25Z</time>
      </trkpt>
      <trkpt lat="44.53647" lon="0.77243">
        <ele>131.5</ele>
        <time>2018-05-16T23:49:26Z</time>
      </trkpt>
      <trkpt lat="44.53644" lon="0.77243">
        <ele>131.5</ele>
        <time>2018-05-16T23:49:27Z</time>
      </trkpt>
      <trkpt lat="44.5364" lon="0.77244">
        <ele>131.6</ele>
        <time>2018-05-16T23:49:28Z</time>
      </trkpt>
      <trkpt lat="44.53637" lon="0.77245">
        <ele>131.7</ele>
        <time>2018-05-16T23:49:29Z</time>
      </trkpt>
      <trkpt lat="44.53634" lon="0.77246">
        <ele>131.7</ele>
        <time>2018-05-16T23:49:30Z</time>
      </trkpt>
      <trkpt lat="44.5363" lon="0.77247">
        <ele>131.8</ele>
        <time>2018-05-16T23:49:31Z</time>
      </trkpt>
      <trkpt lat="44.53624" lon="0.77248">
        <ele>131.9</ele>
        <time>2018-05-16T23:49:33Z</time>
      </trkpt>
      <trkpt lat="44.53621" lon="0.77248">
        <ele>132</ele>
        <time>2018-05-16T23:49:34Z</time>
      </trkpt>
      <trkpt lat="44.53618" lon="0.77248">
        <ele>132.1</ele>
        <time>2018-05-16T23:49:35Z</time>
      </trkpt>
      <trkpt lat="44.53615" lon="0.77249">
        <ele>132.3</ele>
        <time>2018-05-16T23:49:36Z</time>
      </trkpt>
      <trkpt lat="44.53612" lon="0.77249">
        <ele>132.5</ele>
        <time>2018-05-16T23:49:37Z</time>
      </trkpt>
      <trkpt lat="44.53608" lon="0.7725">
        <ele>132.7</ele>
        <time>2018-05-16T23:49:38Z</time>
      </trkpt>
      <trkpt lat="44.53605" lon="0.7725">
        <ele>132.9</ele>
        <time>2018-05-16T23:49:39Z</time>
      </trkpt>
      <trkpt lat="44.53602" lon="0.77251">
        <ele>133.1</ele>
        <time>2018-05-16T23:49:40Z</time>
      </trkpt>
      <trkpt lat="44.53599" lon="0.77252">
        <ele>133.3</ele>
        <time>2018-05-16T23:49:41Z</time>
      </trkpt>
      <trkpt lat="44.53596" lon="0.77253">
        <ele>133.4</ele>
        <time>2018-05-16T23:49:42Z</time>
      </trkpt>
      <trkpt lat="44.53593" lon="0.77253">
        <ele>133.4</ele>
        <time>2018-05-16T23:49:43Z</time>
      </trkpt>
      <trkpt lat="44.53589" lon="0.77254">
        <ele>133.5</ele>
        <time>2018-05-16T23:49:44Z</time>
      </trkpt>
      <trkpt lat="44.53586" lon="0.77254">
        <ele>133.6</ele>
        <time>2018-05-16T23:49:45Z</time>
      </trkpt>
      <trkpt lat="44.53583" lon="0.77254">
        <ele>133.7</ele>
        <time>2018-05-16T23:49:46Z</time>
      </trkpt>
      <trkpt lat="44.5358" lon="0.77255">
        <ele>133.7</ele>
        <time>2018-05-16T23:49:47Z</time>
      </trkpt>
      <trkpt lat="44.53577" lon="0.77256">
        <ele>133.7</ele>
        <time>2018-05-16T23:49:48Z</time>
      </trkpt>
      <trkpt lat="44.53574" lon="0.77256">
        <ele>133.7</ele>
        <time>2018-05-16T23:49:49Z</time>
      </trkpt>
      <trkpt lat="44.53571" lon="0.77257">
        <ele>133.8</ele>
        <time>2018-05-16T23:49:50Z</time>
      </trkpt>
      <trkpt lat="44.53568" lon="0.77258">
        <ele>133.8</ele>
        <time>2018-05-16T23:49:51Z</time>
      </trkpt>
      <trkpt lat="44.53565" lon="0.77259">
        <ele>133.8</ele>
        <time>2018-05-16T23:49:52Z</time>
      </trkpt>
      <trkpt lat="44.53562" lon="0.7726">
        <ele>133.9</ele>
        <time>2018-05-16T23:49:53Z</time>
      </trkpt>
      <trkpt lat="44.53558" lon="0.7726">
        <ele>133.9</ele>
        <time>2018-05-16T23:49:54Z</time>
      </trkpt>
      <trkpt lat="44.53555" lon="0.7726">
        <ele>133.9</ele>
        <time>2018-05-16T23:49:55Z</time>
      </trkpt>
      <trkpt lat="44.53552" lon="0.77258">
        <ele>134.3</ele>
        <time>2018-05-16T23:49:56Z</time>
      </trkpt>
      <trkpt lat="44.53549" lon="0.77257">
        <ele>134.5</ele>
        <time>2018-05-16T23:49:57Z</time>
      </trkpt>
      <trkpt lat="44.53547" lon="0.77255">
        <ele>134.6</ele>
        <time>2018-05-16T23:49:58Z</time>
      </trkpt>
      <trkpt lat="44.53545" lon="0.77252">
        <ele>134.8</ele>
        <time>2018-05-16T23:49:59Z</time>
      </trkpt>
      <trkpt lat="44.53543" lon="0.77248">
        <ele>135</ele>
        <time>2018-05-16T23:50:00Z</time>
      </trkpt>
      <trkpt lat="44.53541" lon="0.77245">
        <ele>135.2</ele>
        <time>2018-05-16T23:50:01Z</time>
      </trkpt>
      <trkpt lat="44.53539" lon="0.77241">
        <ele>135.3</ele>
        <time>2018-05-16T23:50:02Z</time>
      </trkpt>
      <trkpt lat="44.53537" lon="0.77238">
        <ele>135.5</ele>
        <time>2018-05-16T23:50:03Z</time>
      </trkpt>
      <trkpt lat="44.53536" lon="0.77235">
        <ele>135.6</ele>
        <time>2018-05-16T23:50:04Z</time>
      </trkpt>
      <trkpt lat="44.53533" lon="0.77229">
        <ele>135.9</ele>
        <time>2018-05-16T23:50:06Z</time>
      </trkpt>
      <trkpt lat="44.53531" lon="0.77223">
        <ele>136.2</ele>
        <time>2018-05-16T23:50:08Z</time>
      </trkpt>
      <trkpt lat="44.53527" lon="0.77218">
        <ele>136.4</ele>
        <time>2018-05-16T23:50:10Z</time>
      </trkpt>
      <trkpt lat="44.53524" lon="0.77213">
        <ele>136.8</ele>
        <time>2018-05-16T23:50:12Z</time>
      </trkpt>
      <trkpt lat="44.53521" lon="0.77207">
        <ele>137.1</ele>
        <time>2018-05-16T23:50:14Z</time>
      </trkpt>
      <trkpt lat="44.53518" lon="0.77201">
        <ele>137.5</ele>
        <time>2018-05-16T23:50:16Z</time>
      </trkpt>
      <trkpt lat="44.53516" lon="0.77196">
        <ele>137.8</ele>
        <time>2018-05-16T23:50:18Z</time>
      </trkpt>
      <trkpt lat="44.53513" lon="0.77191">
        <ele>138.1</ele>
        <time>2018-05-16T23:50:20Z</time>
      </trkpt>
      <trkpt lat="44.53511" lon="0.77186">
        <ele>138.5</ele>
        <time>2018-05-16T23:50:22Z</time>
      </trkpt>
      <trkpt lat="44.53509" lon="0.77181">
        <ele>138.8</ele>
        <time>2018-05-16T23:50:24Z</time>
      </trkpt>
      <trkpt lat="44.53505" lon="0.77177">
        <ele>139.1</ele>
        <time>2018-05-16T23:50:26Z</time>
      </trkpt>
      <trkpt lat="44.53503" lon="0.77173">
        <ele>139.5</ele>
        <time>2018-05-16T23:50:28Z</time>
      </trkpt>
      <trkpt lat="44.535" lon="0.77169">
        <ele>139.9</ele>
        <time>2018-05-16T23:50:30Z</time>
      </trkpt>
      <trkpt lat="44.53498" lon="0.77166">
        <ele>140.2</ele>
        <time>2018-05-16T23:50:32Z</time>
      </trkpt>
      <trkpt lat="44.53496" lon="0.77162">
        <ele>140.5</ele>
        <time>2018-05-16T23:50:34Z</time>
      </trkpt>
      <trkpt lat="44.53495" lon="0.77158">
        <ele>140.8</ele>
        <time>2018-05-16T23:50:36Z</time>
      </trkpt>
      <trkpt lat="44.53493" lon="0.77155">
        <ele>141.1</ele>
        <time>2018-05-16T23:50:39Z</time>
      </trkpt>
      <trkpt lat="44.53491" lon="0.77152">
        <ele>141.4</ele>
        <time>2018-05-16T23:50:41Z</time>
      </trkpt>
      <trkpt lat="44.53489" lon="0.77149">
        <ele>141.8</ele>
        <time>2018-05-16T23:50:43Z</time>
      </trkpt>
      <trkpt lat="44.53487" lon="0.77146">
        <ele>142.2</ele>
        <time>2018-05-16T23:50:45Z</time>
      </trkpt>
      <trkpt lat="44.53485" lon="0.77143">
        <ele>142.6</ele>
        <time>2018-05-16T23:50:47Z</time>
      </trkpt>
      <trkpt lat="44.53482" lon="0.7714">
        <ele>143.1</ele>
        <time>2018-05-16T23:50:49Z</time>
      </trkpt>
      <trkpt lat="44.53478" lon="0.77137">
        <ele>143.7</ele>
        <time>2018-05-16T23:50:51Z</time>
      </trkpt>
      <trkpt lat="44.53476" lon="0.77133">
        <ele>144.2</ele>
        <time>2018-05-16T23:50:53Z</time>
      </trkpt>
      <trkpt lat="44.53475" lon="0.7713">
        <ele>144.6</ele>
        <time>2018-05-16T23:50:55Z</time>
      </trkpt>
      <trkpt lat="44.53473" lon="0.77127">
        <ele>145</ele>
        <time>2018-05-16T23:50:57Z</time>
      </trkpt>
      <trkpt lat="44.5347" lon="0.77123">
        <ele>145.6</ele>
        <time>2018-05-16T23:51:00Z</time>
      </trkpt>
      <trkpt lat="44.53467" lon="0.77122">
        <ele>146</ele>
        <time>2018-05-16T23:51:02Z</time>
      </trkpt>
      <trkpt lat="44.53464" lon="0.77119">
        <ele>146.5</ele>
        <time>2018-05-16T23:51:04Z</time>
      </trkpt>
      <trkpt lat="44.53461" lon="0.77116">
        <ele>147</ele>
        <time>2018-05-16T23:51:06Z</time>
      </trkpt>
      <trkpt lat="44.53459" lon="0.77113">
        <ele>147.5</ele>
        <time>2018-05-16T23:51:08Z</time>
      </trkpt>
      <trkpt lat="44.53456" lon="0.7711">
        <ele>147.9</ele>
        <time>2018-05-16T23:51:10Z</time>
      </trkpt>
      <trkpt lat="44.53452" lon="0.77107">
        <ele>148.5</ele>
        <time>2018-05-16T23:51:12Z</time>
      </trkpt>
      <trkpt lat="44.53449" lon="0.77104">
        <ele>149.1</ele>
        <time>2018-05-16T23:51:14Z</time>
      </trkpt>
      <trkpt lat="44.53446" lon="0.771">
        <ele>149.6</ele>
        <time>2018-05-16T23:51:16Z</time>
      </trkpt>
      <trkpt lat="44.53443" lon="0.77098">
        <ele>150</ele>
        <time>2018-05-16T23:51:18Z</time>
      </trkpt>
      <trkpt lat="44.5344" lon="0.77095">
        <ele>150.4</ele>
        <time>2018-05-16T23:51:20Z</time>
      </trkpt>
      <trkpt lat="44.53437" lon="0.77093">
        <ele>150.9</ele>
        <time>2018-05-16T23:51:22Z</time>
      </trkpt>
      <trkpt lat="44.53434" lon="0.7709">
        <ele>151.2</ele>
        <time>2018-05-16T23:51:24Z</time>
      </trkpt>
      <trkpt lat="44.53431" lon="0.77088">
        <ele>151.5</ele>
        <time>2018-05-16T23:51:26Z</time>
      </trkpt>
      <trkpt lat="44.53428" lon="0.77085">
        <ele>151.8</ele>
        <time>2018-05-16T23:51:28Z</time>
      </trkpt>
      <trkpt lat="44.53425" lon="0.77082">
        <ele>152</ele>
        <time>2018-05-16T23:51:30Z</time>
      </trkpt>
      <trkpt lat="44.53423" lon="0.77078">
        <ele>152.3</ele>
        <time>2018-05-16T23:51:32Z</time>
      </trkpt>
      <trkpt lat="44.53421" lon="0.77075">
        <ele>152.6</ele>
        <time>2018-05-16T23:51:34Z</time>
      </trkpt>
      <trkpt lat="44.53419" lon="0.77073">
        <ele>152.8</ele>
        <time>2018-05-16T23:51:36Z</time>
      </trkpt>
      <trkpt lat="44.53416" lon="0.77075">
        <ele>153</ele>
        <time>2018-05-16T23:55:41Z</time>
      </trkpt>
      <trkpt lat="44.53412" lon="0.77069">
        <ele>153.5</ele>
        <time>2018-05-16T23:55:43Z</time>
      </trkpt>
      <trkpt lat="44.5341" lon="0.77066">
        <ele>153.9</ele>
        <time>2018-05-16T23:55:44Z</time>
      </trkpt>
      <trkpt lat="44.53407" lon="0.77063">
        <ele>154.2</ele>
        <time>2018-05-16T23:55:45Z</time>
      </trkpt>
      <trkpt lat="44.53405" lon="0.77061">
        <ele>154.4</ele>
        <time>2018-05-16T23:55:46Z</time>
      </trkpt>
      <trkpt lat="44.534" lon="0.77056">
        <ele>154.8</ele>
        <time>2018-05-16T23:55:48Z</time>
      </trkpt>
      <trkpt lat="44.53398" lon="0.77053">
        <ele>155</ele>
        <time>2018-05-16T23:55:49Z</time>
      </trkpt>
      <trkpt lat="44.53394" lon="0.77049">
        <ele>155.3</ele>
        <time>2018-05-16T23:55:51Z</time>
      </trkpt>
      <trkpt lat="44.53392" lon="0.77047">
        <ele>155.5</ele>
        <time>2018-05-16T23:55:52Z</time>
      </trkpt>
      <trkpt lat="44.53388" lon="0.77043">
        <ele>155.8</ele>
        <time>2018-05-16T23:55:54Z</time>
      </trkpt>
      <trkpt lat="44.53384" lon="0.77038">
        <ele>156</ele>
        <time>2018-05-16T23:55:56Z</time>
      </trkpt>
      <trkpt lat="44.53381" lon="0.77033">
        <ele>156</ele>
        <time>2018-05-16T23:55:58Z</time>
      </trkpt>
      <trkpt lat="44.53376" lon="0.77028">
        <ele>156</ele>
        <time>2018-05-16T23:56:00Z</time>
      </trkpt>
      <trkpt lat="44.53373" lon="0.77025">
        <ele>156</ele>
        <time>2018-05-16T23:56:02Z</time>
      </trkpt>
      <trkpt lat="44.53369" lon="0.77022">
        <ele>156</ele>
        <time>2018-05-16T23:56:04Z</time>
      </trkpt>
      <trkpt lat="44.53366" lon="0.77019">
        <ele>156</ele>
        <time>2018-05-16T23:56:06Z</time>
      </trkpt>
      <trkpt lat="44.53362" lon="0.77016">
        <ele>156</ele>
        <time>2018-05-16T23:56:08Z</time>
      </trkpt>
      <trkpt lat="44.53361" lon="0.77012">
        <ele>157.3</ele>
        <time>2018-05-16T23:56:10Z</time>
      </trkpt>
      <trkpt lat="44.53362" lon="0.77008">
        <ele>159</ele>
        <time>2018-05-16T23:56:12Z</time>
      </trkpt>
      <trkpt lat="44.53366" lon="0.77005">
        <ele>160.8</ele>
        <time>2018-05-16T23:56:14Z</time>
      </trkpt>
      <trkpt lat="44.53369" lon="0.77003">
        <ele>162.4</ele>
        <time>2018-05-16T23:56:16Z</time>
      </trkpt>
      <trkpt lat="44.53372" lon="0.77">
        <ele>163.9</ele>
        <time>2018-05-16T23:56:18Z</time>
      </trkpt>
      <trkpt lat="44.53375" lon="0.76998">
        <ele>165.3</ele>
        <time>2018-05-16T23:56:20Z</time>
      </trkpt>
      <trkpt lat="44.53378" lon="0.76996">
        <ele>166.6</ele>
        <time>2018-05-16T23:56:22Z</time>
      </trkpt>
      <trkpt lat="44.53381" lon="0.76994">
        <ele>167.9</ele>
        <time>2018-05-16T23:56:24Z</time>
      </trkpt>
      <trkpt lat="44.53384" lon="0.76992">
        <ele>169.3</ele>
        <time>2018-05-16T23:56:26Z</time>
      </trkpt>
      <trkpt lat="44.53387" lon="0.76989">
        <ele>170.8</ele>
        <time>2018-05-16T23:56:28Z</time>
      </trkpt>
      <trkpt lat="44.5339" lon="0.76987">
        <ele>172.2</ele>
        <time>2018-05-16T23:56:30Z</time>
      </trkpt>
      <trkpt lat="44.53393" lon="0.76984">
        <ele>173.6</ele>
        <time>2018-05-16T23:56:32Z</time>
      </trkpt>
      <trkpt lat="44.53395" lon="0.76981">
        <ele>174.9</ele>
        <time>2018-05-16T23:56:34Z</time>
      </trkpt>
      <trkpt lat="44.53397" lon="0.76977">
        <ele>175.9</ele>
        <time>2018-05-16T23:56:36Z</time>
      </trkpt>
      <trkpt lat="44.53398" lon="0.76973">
        <ele>177.1</ele>
        <time>2018-05-16T23:56:38Z</time>
      </trkpt>
      <trkpt lat="44.534" lon="0.7697">
        <ele>177.8</ele>
        <time>2018-05-16T23:56:40Z</time>
      </trkpt>
      <trkpt lat="44.53401" lon="0.76966">
        <ele>177.1</ele>
        <time>2018-05-16T23:56:42Z</time>
      </trkpt>
      <trkpt lat="44.53403" lon="0.76963">
        <ele>176.5</ele>
        <time>2018-05-16T23:56:44Z</time>
      </trkpt>
      <trkpt lat="44.53405" lon="0.76961">
        <ele>175.9</ele>
        <time>2018-05-16T23:56:46Z</time>
      </trkpt>
      <trkpt lat="44.53408" lon="0.76958">
        <ele>175.2</ele>
        <time>2018-05-16T23:56:49Z</time>
      </trkpt>
      <trkpt lat="44.53402" lon="0.76957">
        <ele>174.2</ele>
        <time>2018-05-16T23:57:10Z</time>
      </trkpt>
      <trkpt lat="44.53398" lon="0.76957">
        <ele>174.7</ele>
        <time>2018-05-16T23:57:13Z</time>
      </trkpt>
      <trkpt lat="44.53394" lon="0.76957">
        <ele>175</ele>
        <time>2018-05-16T23:57:15Z</time>
      </trkpt>
      <trkpt lat="44.53391" lon="0.76958">
        <ele>175.3</ele>
        <time>2018-05-16T23:57:17Z</time>
      </trkpt>
      <trkpt lat="44.53388" lon="0.76959">
        <ele>175.5</ele>
        <time>2018-05-16T23:57:19Z</time>
      </trkpt>
      <trkpt lat="44.53385" lon="0.76959">
        <ele>175.7</ele>
        <time>2018-05-16T23:57:21Z</time>
      </trkpt>
      <trkpt lat="44.53382" lon="0.76958">
        <ele>176</ele>
        <time>2018-05-16T23:57:23Z</time>
      </trkpt>
      <trkpt lat="44.53378" lon="0.76955">
        <ele>176.5</ele>
        <time>2018-05-16T23:57:26Z</time>
      </trkpt>
      <trkpt lat="44.53376" lon="0.76952">
        <ele>176.9</ele>
        <time>2018-05-16T23:57:29Z</time>
      </trkpt>
      <trkpt lat="44.53374" lon="0.7695">
        <ele>177.2</ele>
        <time>2018-05-16T23:57:31Z</time>
      </trkpt>
      <trkpt lat="44.5337" lon="0.76951">
        <ele>177.5</ele>
        <time>2018-05-16T23:57:34Z</time>
      </trkpt>
      <trkpt lat="44.53366" lon="0.7695">
        <ele>177.9</ele>
        <time>2018-05-16T23:57:37Z</time>
      </trkpt>
      <trkpt lat="44.53362" lon="0.7695">
        <ele>178</ele>
        <time>2018-05-16T23:57:39Z</time>
      </trkpt>
      <trkpt lat="44.5336" lon="0.76948">
        <ele>178</ele>
        <time>2018-05-16T23:57:42Z</time>
      </trkpt>
      <trkpt lat="44.53363" lon="0.76949">
        <ele>178</ele>
        <time>2018-05-16T23:57:48Z</time>
      </trkpt>
      <trkpt lat="44.53366" lon="0.76948">
        <ele>178</ele>
        <time>2018-05-16T23:57:51Z</time>
      </trkpt>
      <trkpt lat="44.53369" lon="0.76948">
        <ele>178</ele>
        <time>2018-05-16T23:57:53Z</time>
      </trkpt>
      <trkpt lat="44.53372" lon="0.76949">
        <ele>177.9</ele>
        <time>2018-05-16T23:57:55Z</time>
      </trkpt>
      <trkpt lat="44.53376" lon="0.76948">
        <ele>177.4</ele>
        <time>2018-05-16T23:57:57Z</time>
      </trkpt>
      <trkpt lat="44.53379" lon="0.76946">
        <ele>177</ele>
        <time>2018-05-16T23:57:59Z</time>
      </trkpt>
      <trkpt lat="44.53381" lon="0.76943">
        <ele>176.5</ele>
        <time>2018-05-16T23:58:01Z</time>
      </trkpt>
      <trkpt lat="44.53383" lon="0.7694">
        <ele>175.9</ele>
        <time>2018-05-16T23:58:03Z</time>
      </trkpt>
      <trkpt lat="44.53386" lon="0.76937">
        <ele>175.5</ele>
        <time>2018-05-16T23:58:05Z</time>
      </trkpt>
      <trkpt lat="44.53388" lon="0.76933">
        <ele>175.2</ele>
        <time>2018-05-16T23:58:07Z</time>
      </trkpt>
      <trkpt lat="44.53389" lon="0.7693">
        <ele>174.9</ele>
        <time>2018-05-16T23:58:09Z</time>
      </trkpt>
      <trkpt lat="44.53388" lon="0.76926">
        <ele>176.3</ele>
        <time>2018-05-16T23:58:12Z</time>
      </trkpt>
      <trkpt lat="44.53385" lon="0.76924">
        <ele>179</ele>
        <time>2018-05-16T23:58:14Z</time>
      </trkpt>
      <trkpt lat="44.53385" lon="0.7692">
        <ele>179</ele>
        <time>2018-05-16T23:58:18Z</time>
      </trkpt>
      <trkpt lat="44.53388" lon="0.76918">
        <ele>178.9</ele>
        <time>2018-05-16T23:58:20Z</time>
      </trkpt>
      <trkpt lat="44.53391" lon="0.76916">
        <ele>178.9</ele>
        <time>2018-05-16T23:58:22Z</time>
      </trkpt>
      <trkpt lat="44.53394" lon="0.76914">
        <ele>178.8</ele>
        <time>2018-05-16T23:58:24Z</time>
      </trkpt>
      <trkpt lat="44.53398" lon="0.76911">
        <ele>178.7</ele>
        <time>2018-05-16T23:58:26Z</time>
      </trkpt>
      <trkpt lat="44.53402" lon="0.76907">
        <ele>178.7</ele>
        <time>2018-05-16T23:58:28Z</time>
      </trkpt>
      <trkpt lat="44.53406" lon="0.76903">
        <ele>178.7</ele>
        <time>2018-05-16T23:58:30Z</time>
      </trkpt>
      <trkpt lat="44.5341" lon="0.76899">
        <ele>178.8</ele>
        <time>2018-05-16T23:58:32Z</time>
      </trkpt>
      <trkpt lat="44.53413" lon="0.76895">
        <ele>178.9</ele>
        <time>2018-05-16T23:58:34Z</time>
      </trkpt>
      <trkpt lat="44.53416" lon="0.76891">
        <ele>179</ele>
        <time>2018-05-16T23:58:36Z</time>
      </trkpt>
      <trkpt lat="44.53419" lon="0.76887">
        <ele>179</ele>
        <time>2018-05-16T23:58:38Z</time>
      </trkpt>
      <trkpt lat="44.53422" lon="0.76883">
        <ele>179</ele>
        <time>2018-05-16T23:58:40Z</time>
      </trkpt>
      <trkpt lat="44.53424" lon="0.76877">
        <ele>178.6</ele>
        <time>2018-05-16T23:58:42Z</time>
      </trkpt>
      <trkpt lat="44.53425" lon="0.76871">
        <ele>178.1</ele>
        <time>2018-05-16T23:58:44Z</time>
      </trkpt>
      <trkpt lat="44.53425" lon="0.76866">
        <ele>177.8</ele>
        <time>2018-05-16T23:58:46Z</time>
      </trkpt>
      <trkpt lat="44.53425" lon="0.76861">
        <ele>177.7</ele>
        <time>2018-05-16T23:58:48Z</time>
      </trkpt>
      <trkpt lat="44.53422" lon="0.76858">
        <ele>177.5</ele>
        <time>2018-05-16T23:58:50Z</time>
      </trkpt>
      <trkpt lat="44.53419" lon="0.76862">
        <ele>177.7</ele>
        <time>2018-05-16T23:58:52Z</time>
      </trkpt>
      <trkpt lat="44.53417" lon="0.76865">
        <ele>177.8</ele>
        <time>2018-05-16T23:58:53Z</time>
      </trkpt>
      <trkpt lat="44.53414" lon="0.76871">
        <ele>178.2</ele>
        <time>2018-05-16T23:58:55Z</time>
      </trkpt>
      <trkpt lat="44.53413" lon="0.76874">
        <ele>178.6</ele>
        <time>2018-05-16T23:58:56Z</time>
      </trkpt>
      <trkpt lat="44.53409" lon="0.76879">
        <ele>178.9</ele>
        <time>2018-05-16T23:58:58Z</time>
      </trkpt>
      <trkpt lat="44.53405" lon="0.76883">
        <ele>178.9</ele>
        <time>2018-05-16T23:59:00Z</time>
      </trkpt>
      <trkpt lat="44.53401" lon="0.76887">
        <ele>178.8</ele>
        <time>2018-05-16T23:59:02Z</time>
      </trkpt>
      <trkpt lat="44.53398" lon="0.7689">
        <ele>178.7</ele>
        <time>2018-05-16T23:59:04Z</time>
      </trkpt>
      <trkpt lat="44.53394" lon="0.76894">
        <ele>178.7</ele>
        <time>2018-05-16T23:59:06Z</time>
      </trkpt>
      <trkpt lat="44.53392" lon="0.76896">
        <ele>178.8</ele>
        <time>2018-05-16T23:59:07Z</time>
      </trkpt>
      <trkpt lat="44.5339" lon="0.76898">
        <ele>178.9</ele>
        <time>2018-05-16T23:59:08Z</time>
      </trkpt>
      <trkpt lat="44.53385" lon="0.76901">
        <ele>179</ele>
        <time>2018-05-16T23:59:10Z</time>
      </trkpt>
      <trkpt lat="44.53382" lon="0.76903">
        <ele>179</ele>
        <time>2018-05-16T23:59:12Z</time>
      </trkpt>
      <trkpt lat="44.5338" lon="0.76904">
        <ele>179.1</ele>
        <time>2018-05-16T23:59:14Z</time>
      </trkpt>
      <trkpt lat="44.53376" lon="0.76904">
        <ele>179.6</ele>
        <time>2018-05-16T23:59:16Z</time>
      </trkpt>
      <trkpt lat="44.53373" lon="0.76901">
        <ele>184.9</ele>
        <time>2018-05-16T23:59:18Z</time>
      </trkpt>
      <trkpt lat="44.53373" lon="0.76897">
        <ele>185</ele>
        <time>2018-05-16T23:59:20Z</time>
      </trkpt>
      <trkpt lat="44.53377" lon="0.76893">
        <ele>185</ele>
        <time>2018-05-16T23:59:22Z</time>
      </trkpt>
      <trkpt lat="44.53381" lon="0.7689">
        <ele>185.1</ele>
        <time>2018-05-16T23:59:24Z</time>
      </trkpt>
      <trkpt lat="44.53384" lon="0.76885">
        <ele>185.2</ele>
        <time>2018-05-16T23:59:26Z</time>
      </trkpt>
      <trkpt lat="44.53386" lon="0.76883">
        <ele>185.2</ele>
        <time>2018-05-16T23:59:27Z</time>
      </trkpt>
      <trkpt lat="44.53391" lon="0.76879">
        <ele>185.2</ele>
        <time>2018-05-16T23:59:29Z</time>
      </trkpt>
      <trkpt lat="44.53395" lon="0.76877">
        <ele>185.2</ele>
        <time>2018-05-16T23:59:31Z</time>
      </trkpt>
      <trkpt lat="44.53398" lon="0.76865">
        <ele>185.2</ele>
        <time>2018-05-17T00:00:53Z</time>
      </trkpt>
      <trkpt lat="44.53399" lon="0.76863">
        <ele>185.2</ele>
        <time>2018-05-17T00:00:54Z</time>
      </trkpt>
      <trkpt lat="44.53401" lon="0.7686">
        <ele>185.1</ele>
        <time>2018-05-17T00:00:55Z</time>
      </trkpt>
      <trkpt lat="44.53405" lon="0.76855">
        <ele>185.1</ele>
        <time>2018-05-17T00:00:57Z</time>
      </trkpt>
      <trkpt lat="44.53407" lon="0.76851">
        <ele>185.1</ele>
        <time>2018-05-17T00:00:58Z</time>
      </trkpt>
      <trkpt lat="44.53408" lon="0.76846">
        <ele>185</ele>
        <time>2018-05-17T00:00:59Z</time>
      </trkpt>
      <trkpt lat="44.53409" lon="0.7684">
        <ele>185</ele>
        <time>2018-05-17T00:01:00Z</time>
      </trkpt>
      <trkpt lat="44.53409" lon="0.76834">
        <ele>184.8</ele>
        <time>2018-05-17T00:01:01Z</time>
      </trkpt>
      <trkpt lat="44.53408" lon="0.76827">
        <ele>184.7</ele>
        <time>2018-05-17T00:01:02Z</time>
      </trkpt>
      <trkpt lat="44.53407" lon="0.7682">
        <ele>184.5</ele>
        <time>2018-05-17T00:01:03Z</time>
      </trkpt>
      <trkpt lat="44.53406" lon="0.76813">
        <ele>184.3</ele>
        <time>2018-05-17T00:01:04Z</time>
      </trkpt>
      <trkpt lat="44.53405" lon="0.76804">
        <ele>184</ele>
        <time>2018-05-17T00:01:05Z</time>
      </trkpt>
      <trkpt lat="44.53404" lon="0.76796">
        <ele>183.8</ele>
        <time>2018-05-17T00:01:06Z</time>
      </trkpt>
      <trkpt lat="44.53402" lon="0.76789">
        <ele>183.6</ele>
        <time>2018-05-17T00:01:07Z</time>
      </trkpt>
      <trkpt lat="44.534" lon="0.76781">
        <ele>183.1</ele>
        <time>2018-05-17T00:01:08Z</time>
      </trkpt>
      <trkpt lat="44.53397" lon="0.76774">
        <ele>182.7</ele>
        <time>2018-05-17T00:01:09Z</time>
      </trkpt>
      <trkpt lat="44.53394" lon="0.76768">
        <ele>182.4</ele>
        <time>2018-05-17T00:01:10Z</time>
      </trkpt>
      <trkpt lat="44.5339" lon="0.76763">
        <ele>182.2</ele>
        <time>2018-05-17T00:01:11Z</time>
      </trkpt>
      <trkpt lat="44.53387" lon="0.76758">
        <ele>181</ele>
        <time>2018-05-17T00:01:12Z</time>
      </trkpt>
      <trkpt lat="44.53384" lon="0.76755">
        <ele>179.3</ele>
        <time>2018-05-17T00:01:13Z</time>
      </trkpt>
      <trkpt lat="44.53382" lon="0.76752">
        <ele>178.8</ele>
        <time>2018-05-17T00:01:14Z</time>
      </trkpt>
      <trkpt lat="44.53378" lon="0.7675">
        <ele>177.9</ele>
        <time>2018-05-17T00:01:27Z</time>
      </trkpt>
      <trkpt lat="44.53372" lon="0.76745">
        <ele>176.1</ele>
        <time>2018-05-17T00:01:29Z</time>
      </trkpt>
      <trkpt lat="44.53369" lon="0.76742">
        <ele>174.9</ele>
        <time>2018-05-17T00:01:30Z</time>
      </trkpt>
      <trkpt lat="44.53365" lon="0.76738">
        <ele>173.5</ele>
        <time>2018-05-17T00:01:31Z</time>
      </trkpt>
      <trkpt lat="44.5336" lon="0.76733">
        <ele>172.2</ele>
        <time>2018-05-17T00:01:32Z</time>
      </trkpt>
      <trkpt lat="44.53355" lon="0.76729">
        <ele>170.3</ele>
        <time>2018-05-17T00:01:33Z</time>
      </trkpt>
      <trkpt lat="44.5335" lon="0.76724">
        <ele>168.6</ele>
        <time>2018-05-17T00:01:34Z</time>
      </trkpt>
      <trkpt lat="44.53345" lon="0.76719">
        <ele>168</ele>
        <time>2018-05-17T00:01:35Z</time>
      </trkpt>
      <trkpt lat="44.53339" lon="0.76714">
        <ele>168</ele>
        <time>2018-05-17T00:01:36Z</time>
      </trkpt>
      <trkpt lat="44.53333" lon="0.76709">
        <ele>168</ele>
        <time>2018-05-17T00:01:37Z</time>
      </trkpt>
      <trkpt lat="44.53327" lon="0.76704">
        <ele>168</ele>
        <time>2018-05-17T00:01:38Z</time>
      </trkpt>
      <trkpt lat="44.53321" lon="0.767">
        <ele>168</ele>
        <time>2018-05-17T00:01:39Z</time>
      </trkpt>
      <trkpt lat="44.53315" lon="0.76696">
        <ele>168</ele>
        <time>2018-05-17T00:01:40Z</time>
      </trkpt>
      <trkpt lat="44.53308" lon="0.76691">
        <ele>168</ele>
        <time>2018-05-17T00:01:41Z</time>
      </trkpt>
      <trkpt lat="44.53302" lon="0.76687">
        <ele>168</ele>
        <time>2018-05-17T00:01:42Z</time>
      </trkpt>
      <trkpt lat="44.53293" lon="0.76683">
        <ele>168</ele>
        <time>2018-05-17T00:01:43Z</time>
      </trkpt>
      <trkpt lat="44.53285" lon="0.76678">
        <ele>168</ele>
        <time>2018-05-17T00:01:44Z</time>
      </trkpt>
      <trkpt lat="44.53277" lon="0.76675">
        <ele>168</ele>
        <time>2018-05-17T00:01:45Z</time>
      </trkpt>
      <trkpt lat="44.53268" lon="0.76672">
        <ele>165.7</ele>
        <time>2018-05-17T00:01:46Z</time>
      </trkpt>
      <trkpt lat="44.53259" lon="0.76669">
        <ele>160.6</ele>
        <time>2018-05-17T00:01:47Z</time>
      </trkpt>
      <trkpt lat="44.53249" lon="0.76667">
        <ele>155.2</ele>
        <time>2018-05-17T00:01:48Z</time>
      </trkpt>
      <trkpt lat="44.5324" lon="0.76666">
        <ele>150</ele>
        <time>2018-05-17T00:01:49Z</time>
      </trkpt>
      <trkpt lat="44.5323" lon="0.76664">
        <ele>145</ele>
        <time>2018-05-17T00:01:50Z</time>
      </trkpt>
      <trkpt lat="44.53218" lon="0.76665">
        <ele>148.8</ele>
        <time>2018-05-17T00:01:51Z</time>
      </trkpt>
      <trkpt lat="44.53209" lon="0.76665">
        <ele>151.4</ele>
        <time>2018-05-17T00:01:52Z</time>
      </trkpt>
      <trkpt lat="44.53202" lon="0.76667">
        <ele>153.9</ele>
        <time>2018-05-17T00:01:53Z</time>
      </trkpt>
      <trkpt lat="44.53194" lon="0.76671">
        <ele>156</ele>
        <time>2018-05-17T00:01:54Z</time>
      </trkpt>
      <trkpt lat="44.53185" lon="0.76677">
        <ele>155.9</ele>
        <time>2018-05-17T00:01:55Z</time>
      </trkpt>
      <trkpt lat="44.53177" lon="0.76684">
        <ele>154.1</ele>
        <time>2018-05-17T00:01:56Z</time>
      </trkpt>
      <trkpt lat="44.53168" lon="0.76691">
        <ele>152.4</ele>
        <time>2018-05-17T00:01:57Z</time>
      </trkpt>
      <trkpt lat="44.53161" lon="0.76697">
        <ele>150.7</ele>
        <time>2018-05-17T00:01:58Z</time>
      </trkpt>
      <trkpt lat="44.53154" lon="0.76703">
        <ele>149.2</ele>
        <time>2018-05-17T00:01:59Z</time>
      </trkpt>
      <trkpt lat="44.53148" lon="0.76709">
        <ele>147.2</ele>
        <time>2018-05-17T00:02:00Z</time>
      </trkpt>
      <trkpt lat="44.53144" lon="0.76714">
        <ele>145.5</ele>
        <time>2018-05-17T00:02:01Z</time>
      </trkpt>
      <trkpt lat="44.5314" lon="0.76715">
        <ele>145</ele>
        <time>2018-05-17T00:02:02Z</time>
      </trkpt>
      <trkpt lat="44.53137" lon="0.76715">
        <ele>145</ele>
        <time>2018-05-17T00:02:03Z</time>
      </trkpt>
      <trkpt lat="44.53135" lon="0.76712">
        <ele>145</ele>
        <time>2018-05-17T00:02:04Z</time>
      </trkpt>
      <trkpt lat="44.53131" lon="0.7671">
        <ele>145</ele>
        <time>2018-05-17T00:02:06Z</time>
      </trkpt>
      <trkpt lat="44.53128" lon="0.7671">
        <ele>145</ele>
        <time>2018-05-17T00:02:07Z</time>
      </trkpt>
      <trkpt lat="44.53124" lon="0.76713">
        <ele>145</ele>
        <time>2018-05-17T00:02:08Z</time>
      </trkpt>
      <trkpt lat="44.53121" lon="0.76718">
        <ele>145</ele>
        <time>2018-05-17T00:02:09Z</time>
      </trkpt>
      <trkpt lat="44.53116" lon="0.76723">
        <ele>145</ele>
        <time>2018-05-17T00:02:10Z</time>
      </trkpt>
      <trkpt lat="44.53111" lon="0.76729">
        <ele>144.9</ele>
        <time>2018-05-17T00:02:11Z</time>
      </trkpt>
      <trkpt lat="44.53105" lon="0.76734">
        <ele>144.8</ele>
        <time>2018-05-17T00:02:12Z</time>
      </trkpt>
      <trkpt lat="44.531" lon="0.7674">
        <ele>144.7</ele>
        <time>2018-05-17T00:02:13Z</time>
      </trkpt>
      <trkpt lat="44.53093" lon="0.76746">
        <ele>144.6</ele>
        <time>2018-05-17T00:02:14Z</time>
      </trkpt>
      <trkpt lat="44.53087" lon="0.76752">
        <ele>144.6</ele>
        <time>2018-05-17T00:02:15Z</time>
      </trkpt>
      <trkpt lat="44.53081" lon="0.76761">
        <ele>144.6</ele>
        <time>2018-05-17T00:02:16Z</time>
      </trkpt>
      <trkpt lat="44.53075" lon="0.76769">
        <ele>144.6</ele>
        <time>2018-05-17T00:02:17Z</time>
      </trkpt>
      <trkpt lat="44.5307" lon="0.7678">
        <ele>144.7</ele>
        <time>2018-05-17T00:02:18Z</time>
      </trkpt>
      <trkpt lat="44.53066" lon="0.76792">
        <ele>144.8</ele>
        <time>2018-05-17T00:02:19Z</time>
      </trkpt>
      <trkpt lat="44.53062" lon="0.76803">
        <ele>144.9</ele>
        <time>2018-05-17T00:02:20Z</time>
      </trkpt>
      <trkpt lat="44.53059" lon="0.76815">
        <ele>145</ele>
        <time>2018-05-17T00:02:21Z</time>
      </trkpt>
      <trkpt lat="44.53055" lon="0.76826">
        <ele>145.1</ele>
        <time>2018-05-17T00:02:22Z</time>
      </trkpt>
      <trkpt lat="44.53051" lon="0.76839">
        <ele>145.1</ele>
        <time>2018-05-17T00:02:23Z</time>
      </trkpt>
      <trkpt lat="44.53048" lon="0.76851">
        <ele>145.3</ele>
        <time>2018-05-17T00:02:24Z</time>
      </trkpt>
      <trkpt lat="44.53044" lon="0.76863">
        <ele>145.5</ele>
        <time>2018-05-17T00:02:25Z</time>
      </trkpt>
      <trkpt lat="44.53039" lon="0.76874">
        <ele>145.8</ele>
        <time>2018-05-17T00:02:26Z</time>
      </trkpt>
      <trkpt lat="44.53033" lon="0.76884">
        <ele>146.2</ele>
        <time>2018-05-17T00:02:27Z</time>
      </trkpt>
      <trkpt lat="44.53026" lon="0.76892">
        <ele>146.6</ele>
        <time>2018-05-17T00:02:28Z</time>
      </trkpt>
      <trkpt lat="44.53018" lon="0.76898">
        <ele>145.8</ele>
        <time>2018-05-17T00:02:29Z</time>
      </trkpt>
      <trkpt lat="44.53009" lon="0.76901">
        <ele>144.1</ele>
        <time>2018-05-17T00:02:30Z</time>
      </trkpt>
      <trkpt lat="44.53" lon="0.76904">
        <ele>142.6</ele>
        <time>2018-05-17T00:02:31Z</time>
      </trkpt>
      <trkpt lat="44.52992" lon="0.76906">
        <ele>141.1</ele>
        <time>2018-05-17T00:02:32Z</time>
      </trkpt>
      <trkpt lat="44.52984" lon="0.76909">
        <ele>139.8</ele>
        <time>2018-05-17T00:02:33Z</time>
      </trkpt>
      <trkpt lat="44.52975" lon="0.76913">
        <ele>139.8</ele>
        <time>2018-05-17T00:02:34Z</time>
      </trkpt>
      <trkpt lat="44.52966" lon="0.76917">
        <ele>139.2</ele>
        <time>2018-05-17T00:02:35Z</time>
      </trkpt>
      <trkpt lat="44.52957" lon="0.76921">
        <ele>139.2</ele>
        <time>2018-05-17T00:02:36Z</time>
      </trkpt>
      <trkpt lat="44.52947" lon="0.76925">
        <ele>139</ele>
        <time>2018-05-17T00:02:37Z</time>
      </trkpt>
      <trkpt lat="44.52937" lon="0.76928">
        <ele>139.1</ele>
        <time>2018-05-17T00:02:38Z</time>
      </trkpt>
      <trkpt lat="44.5293" lon="0.7693">
        <ele>139</ele>
        <time>2018-05-17T00:02:39Z</time>
      </trkpt>
      <trkpt lat="44.52919" lon="0.76932">
        <ele>139</ele>
        <time>2018-05-17T00:02:40Z</time>
      </trkpt>
      <trkpt lat="44.52911" lon="0.76932">
        <ele>138.1</ele>
        <time>2018-05-17T00:02:41Z</time>
      </trkpt>
      <trkpt lat="44.52899" lon="0.76934">
        <ele>137</ele>
        <time>2018-05-17T00:02:42Z</time>
      </trkpt>
      <trkpt lat="44.52886" lon="0.76938">
        <ele>135.9</ele>
        <time>2018-05-17T00:02:43Z</time>
      </trkpt>
      <trkpt lat="44.52874" lon="0.76941">
        <ele>134.3</ele>
        <time>2018-05-17T00:02:44Z</time>
      </trkpt>
      <trkpt lat="44.52863" lon="0.76943">
        <ele>133.4</ele>
        <time>2018-05-17T00:02:45Z</time>
      </trkpt>
      <trkpt lat="44.52851" lon="0.76944">
        <ele>132.5</ele>
        <time>2018-05-17T00:02:46Z</time>
      </trkpt>
      <trkpt lat="44.5284" lon="0.76945">
        <ele>131.6</ele>
        <time>2018-05-17T00:02:47Z</time>
      </trkpt>
      <trkpt lat="44.52831" lon="0.76944">
        <ele>130.8</ele>
        <time>2018-05-17T00:02:48Z</time>
      </trkpt>
      <trkpt lat="44.52821" lon="0.76941">
        <ele>130.1</ele>
        <time>2018-05-17T00:02:49Z</time>
      </trkpt>
      <trkpt lat="44.52808" lon="0.76938">
        <ele>129.1</ele>
        <time>2018-05-17T00:02:50Z</time>
      </trkpt>
      <trkpt lat="44.528" lon="0.76936">
        <ele>128.4</ele>
        <time>2018-05-17T00:02:51Z</time>
      </trkpt>
      <trkpt lat="44.52789" lon="0.76933">
        <ele>127.6</ele>
        <time>2018-05-17T00:02:52Z</time>
      </trkpt>
      <trkpt lat="44.52779" lon="0.76929">
        <ele>126.8</ele>
        <time>2018-05-17T00:02:53Z</time>
      </trkpt>
      <trkpt lat="44.52769" lon="0.76923">
        <ele>125.9</ele>
        <time>2018-05-17T00:02:54Z</time>
      </trkpt>
      <trkpt lat="44.52759" lon="0.76917">
        <ele>125</ele>
        <time>2018-05-17T00:02:55Z</time>
      </trkpt>
      <trkpt lat="44.5275" lon="0.76912">
        <ele>124.1</ele>
        <time>2018-05-17T00:02:56Z</time>
      </trkpt>
      <trkpt lat="44.52742" lon="0.76908">
        <ele>123</ele>
        <time>2018-05-17T00:02:57Z</time>
      </trkpt>
      <trkpt lat="44.52732" lon="0.76905">
        <ele>121.9</ele>
        <time>2018-05-17T00:02:58Z</time>
      </trkpt>
      <trkpt lat="44.52722" lon="0.76902">
        <ele>121.5</ele>
        <time>2018-05-17T00:02:59Z</time>
      </trkpt>
      <trkpt lat="44.52713" lon="0.769">
        <ele>121.1</ele>
        <time>2018-05-17T00:03:00Z</time>
      </trkpt>
      <trkpt lat="44.52701" lon="0.769">
        <ele>120.6</ele>
        <time>2018-05-17T00:03:01Z</time>
      </trkpt>
      <trkpt lat="44.5269" lon="0.769">
        <ele>120.1</ele>
        <time>2018-05-17T00:03:02Z</time>
      </trkpt>
      <trkpt lat="44.52678" lon="0.76899">
        <ele>119.6</ele>
        <time>2018-05-17T00:03:03Z</time>
      </trkpt>
      <trkpt lat="44.52669" lon="0.76899">
        <ele>119.2</ele>
        <time>2018-05-17T00:03:04Z</time>
      </trkpt>
      <trkpt lat="44.5266" lon="0.769">
        <ele>118.8</ele>
        <time>2018-05-17T00:03:05Z</time>
      </trkpt>
      <trkpt lat="44.52649" lon="0.76899">
        <ele>118.4</ele>
        <time>2018-05-17T00:03:06Z</time>
      </trkpt>
      <trkpt lat="44.52639" lon="0.76898">
        <ele>118</ele>
        <time>2018-05-17T00:03:07Z</time>
      </trkpt>
      <trkpt lat="44.52629" lon="0.76897">
        <ele>117.6</ele>
        <time>2018-05-17T00:03:08Z</time>
      </trkpt>
      <trkpt lat="44.52618" lon="0.76895">
        <ele>117.2</ele>
        <time>2018-05-17T00:03:09Z</time>
      </trkpt>
      <trkpt lat="44.52609" lon="0.76895">
        <ele>116.9</ele>
        <time>2018-05-17T00:03:10Z</time>
      </trkpt>
      <trkpt lat="44.526" lon="0.76896">
        <ele>116.6</ele>
        <time>2018-05-17T00:03:11Z</time>
      </trkpt>
      <trkpt lat="44.52589" lon="0.76897">
        <ele>116.2</ele>
        <time>2018-05-17T00:03:12Z</time>
      </trkpt>
      <trkpt lat="44.52581" lon="0.76897">
        <ele>115.9</ele>
        <time>2018-05-17T00:03:13Z</time>
      </trkpt>
      <trkpt lat="44.52571" lon="0.76897">
        <ele>115.6</ele>
        <time>2018-05-17T00:03:14Z</time>
      </trkpt>
      <trkpt lat="44.52559" lon="0.76892">
        <ele>115.2</ele>
        <time>2018-05-17T00:03:15Z</time>
      </trkpt>
      <trkpt lat="44.52551" lon="0.76891">
        <ele>114.8</ele>
        <time>2018-05-17T00:03:16Z</time>
      </trkpt>
      <trkpt lat="44.52541" lon="0.7689">
        <ele>114.5</ele>
        <time>2018-05-17T00:03:17Z</time>
      </trkpt>
      <trkpt lat="44.52531" lon="0.76888">
        <ele>114.2</ele>
        <time>2018-05-17T00:03:18Z</time>
      </trkpt>
      <trkpt lat="44.52523" lon="0.76888">
        <ele>113.9</ele>
        <time>2018-05-17T00:03:19Z</time>
      </trkpt>
      <trkpt lat="44.52513" lon="0.76886">
        <ele>113.6</ele>
        <time>2018-05-17T00:03:20Z</time>
      </trkpt>
      <trkpt lat="44.52499" lon="0.76884">
        <ele>113.2</ele>
        <time>2018-05-17T00:03:21Z</time>
      </trkpt>
      <trkpt lat="44.52492" lon="0.7688">
        <ele>112.9</ele>
        <time>2018-05-17T00:03:22Z</time>
      </trkpt>
      <trkpt lat="44.52481" lon="0.7687">
        <ele>112.5</ele>
        <time>2018-05-17T00:03:23Z</time>
      </trkpt>
      <trkpt lat="44.52471" lon="0.76864">
        <ele>112.2</ele>
        <time>2018-05-17T00:03:24Z</time>
      </trkpt>
      <trkpt lat="44.52462" lon="0.76859">
        <ele>112</ele>
        <time>2018-05-17T00:03:25Z</time>
      </trkpt>
      <trkpt lat="44.52455" lon="0.76852">
        <ele>111.7</ele>
        <time>2018-05-17T00:03:26Z</time>
      </trkpt>
      <trkpt lat="44.52448" lon="0.76844">
        <ele>111.4</ele>
        <time>2018-05-17T00:03:27Z</time>
      </trkpt>
      <trkpt lat="44.52442" lon="0.76836">
        <ele>111.2</ele>
        <time>2018-05-17T00:03:28Z</time>
      </trkpt>
      <trkpt lat="44.52435" lon="0.7683">
        <ele>111</ele>
        <time>2018-05-17T00:03:29Z</time>
      </trkpt>
      <trkpt lat="44.52429" lon="0.76822">
        <ele>110.7</ele>
        <time>2018-05-17T00:03:30Z</time>
      </trkpt>
      <trkpt lat="44.52421" lon="0.76815">
        <ele>110.5</ele>
        <time>2018-05-17T00:03:31Z</time>
      </trkpt>
      <trkpt lat="44.52413" lon="0.76809">
        <ele>110.3</ele>
        <time>2018-05-17T00:03:32Z</time>
      </trkpt>
      <trkpt lat="44.52405" lon="0.76802">
        <ele>110.1</ele>
        <time>2018-05-17T00:03:33Z</time>
      </trkpt>
      <trkpt lat="44.52397" lon="0.76799">
        <ele>110</ele>
        <time>2018-05-17T00:03:34Z</time>
      </trkpt>
      <trkpt lat="44.52388" lon="0.76795">
        <ele>109.8</ele>
        <time>2018-05-17T00:03:35Z</time>
      </trkpt>
      <trkpt lat="44.52376" lon="0.76803">
        <ele>109.6</ele>
        <time>2018-05-17T00:03:36Z</time>
      </trkpt>
      <trkpt lat="44.52366" lon="0.76809">
        <ele>109.3</ele>
        <time>2018-05-17T00:03:37Z</time>
      </trkpt>
      <trkpt lat="44.52356" lon="0.76816">
        <ele>109.1</ele>
        <time>2018-05-17T00:03:38Z</time>
      </trkpt>
      <trkpt lat="44.52347" lon="0.76822">
        <ele>109</ele>
        <time>2018-05-17T00:03:39Z</time>
      </trkpt>
      <trkpt lat="44.52338" lon="0.76825">
        <ele>108.7</ele>
        <time>2018-05-17T00:03:40Z</time>
      </trkpt>
      <trkpt lat="44.5233" lon="0.76828">
        <ele>108.5</ele>
        <time>2018-05-17T00:03:41Z</time>
      </trkpt>
      <trkpt lat="44.52321" lon="0.7683">
        <ele>108.4</ele>
        <time>2018-05-17T00:03:42Z</time>
      </trkpt>
      <trkpt lat="44.52312" lon="0.7683">
        <ele>108.2</ele>
        <time>2018-05-17T00:03:43Z</time>
      </trkpt>
      <trkpt lat="44.52303" lon="0.76831">
        <ele>108.1</ele>
        <time>2018-05-17T00:03:44Z</time>
      </trkpt>
      <trkpt lat="44.52294" lon="0.76831">
        <ele>107.9</ele>
        <time>2018-05-17T00:03:45Z</time>
      </trkpt>
      <trkpt lat="44.52284" lon="0.76832">
        <ele>107.8</ele>
        <time>2018-05-17T00:03:46Z</time>
      </trkpt>
      <trkpt lat="44.52275" lon="0.76834">
        <ele>107.6</ele>
        <time>2018-05-17T00:03:47Z</time>
      </trkpt>
      <trkpt lat="44.52265" lon="0.76836">
        <ele>107.4</ele>
        <time>2018-05-17T00:03:48Z</time>
      </trkpt>
      <trkpt lat="44.52256" lon="0.76837">
        <ele>107.2</ele>
        <time>2018-05-17T00:03:49Z</time>
      </trkpt>
      <trkpt lat="44.52246" lon="0.76839">
        <ele>106.9</ele>
        <time>2018-05-17T00:03:50Z</time>
      </trkpt>
      <trkpt lat="44.52236" lon="0.76838">
        <ele>106.7</ele>
        <time>2018-05-17T00:03:51Z</time>
      </trkpt>
      <trkpt lat="44.52228" lon="0.76839">
        <ele>106.5</ele>
        <time>2018-05-17T00:03:52Z</time>
      </trkpt>
      <trkpt lat="44.52218" lon="0.76839">
        <ele>106.3</ele>
        <time>2018-05-17T00:03:53Z</time>
      </trkpt>
      <trkpt lat="44.5221" lon="0.76839">
        <ele>106.2</ele>
        <time>2018-05-17T00:03:54Z</time>
      </trkpt>
      <trkpt lat="44.52202" lon="0.76838">
        <ele>106</ele>
        <time>2018-05-17T00:03:55Z</time>
      </trkpt>
      <trkpt lat="44.52194" lon="0.76837">
        <ele>105.8</ele>
        <time>2018-05-17T00:03:56Z</time>
      </trkpt>
      <trkpt lat="44.52186" lon="0.76834">
        <ele>105.7</ele>
        <time>2018-05-17T00:03:57Z</time>
      </trkpt>
      <trkpt lat="44.52178" lon="0.76829">
        <ele>105.5</ele>
        <time>2018-05-17T00:03:58Z</time>
      </trkpt>
      <trkpt lat="44.52172" lon="0.7682">
        <ele>105.4</ele>
        <time>2018-05-17T00:03:59Z</time>
      </trkpt>
      <trkpt lat="44.52168" lon="0.76809">
        <ele>105.2</ele>
        <time>2018-05-17T00:04:00Z</time>
      </trkpt>
      <trkpt lat="44.52163" lon="0.76798">
        <ele>105</ele>
        <time>2018-05-17T00:04:01Z</time>
      </trkpt>
      <trkpt lat="44.52159" lon="0.76786">
        <ele>104.8</ele>
        <time>2018-05-17T00:04:02Z</time>
      </trkpt>
      <trkpt lat="44.52155" lon="0.76774">
        <ele>104.7</ele>
        <time>2018-05-17T00:04:03Z</time>
      </trkpt>
      <trkpt lat="44.5215" lon="0.76759">
        <ele>104.5</ele>
        <time>2018-05-17T00:04:04Z</time>
      </trkpt>
      <trkpt lat="44.52145" lon="0.76745">
        <ele>104.3</ele>
        <time>2018-05-17T00:04:05Z</time>
      </trkpt>
      <trkpt lat="44.52139" lon="0.76734">
        <ele>104.1</ele>
        <time>2018-05-17T00:04:06Z</time>
      </trkpt>
      <trkpt lat="44.52131" lon="0.76724">
        <ele>103.8</ele>
        <time>2018-05-17T00:04:07Z</time>
      </trkpt>
      <trkpt lat="44.52122" lon="0.76717">
        <ele>103.5</ele>
        <time>2018-05-17T00:04:08Z</time>
      </trkpt>
      <trkpt lat="44.52114" lon="0.7671">
        <ele>103.3</ele>
        <time>2018-05-17T00:04:09Z</time>
      </trkpt>
      <trkpt lat="44.52105" lon="0.76703">
        <ele>103</ele>
        <time>2018-05-17T00:04:10Z</time>
      </trkpt>
      <trkpt lat="44.52095" lon="0.76698">
        <ele>102.7</ele>
        <time>2018-05-17T00:04:11Z</time>
      </trkpt>
      <trkpt lat="44.52087" lon="0.76695">
        <ele>102.4</ele>
        <time>2018-05-17T00:04:12Z</time>
      </trkpt>
      <trkpt lat="44.52078" lon="0.76694">
        <ele>102.2</ele>
        <time>2018-05-17T00:04:13Z</time>
      </trkpt>
      <trkpt lat="44.5207" lon="0.76692">
        <ele>102</ele>
        <time>2018-05-17T00:04:14Z</time>
      </trkpt>
      <trkpt lat="44.52062" lon="0.7669">
        <ele>101.7</ele>
        <time>2018-05-17T00:04:15Z</time>
      </trkpt>
      <trkpt lat="44.52055" lon="0.76686">
        <ele>101.4</ele>
        <time>2018-05-17T00:04:16Z</time>
      </trkpt>
      <trkpt lat="44.52048" lon="0.7668">
        <ele>101.2</ele>
        <time>2018-05-17T00:04:17Z</time>
      </trkpt>
      <trkpt lat="44.52044" lon="0.76672">
        <ele>101.1</ele>
        <time>2018-05-17T00:04:18Z</time>
      </trkpt>
      <trkpt lat="44.52041" lon="0.76662">
        <ele>101</ele>
        <time>2018-05-17T00:04:19Z</time>
      </trkpt>
      <trkpt lat="44.52041" lon="0.76652">
        <ele>101</ele>
        <time>2018-05-17T00:04:20Z</time>
      </trkpt>
      <trkpt lat="44.52043" lon="0.76643">
        <ele>101.1</ele>
        <time>2018-05-17T00:04:21Z</time>
      </trkpt>
      <trkpt lat="44.52046" lon="0.76634">
        <ele>101.2</ele>
        <time>2018-05-17T00:04:22Z</time>
      </trkpt>
      <trkpt lat="44.52049" lon="0.76625">
        <ele>101.2</ele>
        <time>2018-05-17T00:04:23Z</time>
      </trkpt>
      <trkpt lat="44.5205" lon="0.76617">
        <ele>101.3</ele>
        <time>2018-05-17T00:04:24Z</time>
      </trkpt>
      <trkpt lat="44.52052" lon="0.76609">
        <ele>101.4</ele>
        <time>2018-05-17T00:04:25Z</time>
      </trkpt>
      <trkpt lat="44.52053" lon="0.76601">
        <ele>101.5</ele>
        <time>2018-05-17T00:04:26Z</time>
      </trkpt>
      <trkpt lat="44.52054" lon="0.76593">
        <ele>101.6</ele>
        <time>2018-05-17T00:04:27Z</time>
      </trkpt>
      <trkpt lat="44.52056" lon="0.76585">
        <ele>101.8</ele>
        <time>2018-05-17T00:04:28Z</time>
      </trkpt>
      <trkpt lat="44.52057" lon="0.76577">
        <ele>101.9</ele>
        <time>2018-05-17T00:04:29Z</time>
      </trkpt>
      <trkpt lat="44.52059" lon="0.76569">
        <ele>102</ele>
        <time>2018-05-17T00:04:30Z</time>
      </trkpt>
      <trkpt lat="44.5206" lon="0.76562">
        <ele>102.1</ele>
        <time>2018-05-17T00:04:31Z</time>
      </trkpt>
      <trkpt lat="44.52061" lon="0.76554">
        <ele>102.3</ele>
        <time>2018-05-17T00:04:32Z</time>
      </trkpt>
      <trkpt lat="44.52062" lon="0.76546">
        <ele>102.4</ele>
        <time>2018-05-17T00:04:33Z</time>
      </trkpt>
      <trkpt lat="44.52063" lon="0.76539">
        <ele>102.5</ele>
        <time>2018-05-17T00:04:34Z</time>
      </trkpt>
      <trkpt lat="44.52065" lon="0.76531">
        <ele>102.6</ele>
        <time>2018-05-17T00:04:35Z</time>
      </trkpt>
      <trkpt lat="44.52067" lon="0.76524">
        <ele>102.8</ele>
        <time>2018-05-17T00:04:36Z</time>
      </trkpt>
      <trkpt lat="44.52068" lon="0.76517">
        <ele>102.9</ele>
        <time>2018-05-17T00:04:37Z</time>
      </trkpt>
      <trkpt lat="44.5207" lon="0.7651">
        <ele>103.1</ele>
        <time>2018-05-17T00:04:38Z</time>
      </trkpt>
      <trkpt lat="44.52072" lon="0.76504">
        <ele>103.3</ele>
        <time>2018-05-17T00:04:39Z</time>
      </trkpt>
      <trkpt lat="44.52074" lon="0.76497">
        <ele>103.4</ele>
        <time>2018-05-17T00:04:40Z</time>
      </trkpt>
      <trkpt lat="44.52076" lon="0.76491">
        <ele>103.5</ele>
        <time>2018-05-17T00:04:41Z</time>
      </trkpt>
      <trkpt lat="44.52079" lon="0.76486">
        <ele>103.6</ele>
        <time>2018-05-17T00:04:42Z</time>
      </trkpt>
      <trkpt lat="44.5208" lon="0.76481">
        <ele>103.7</ele>
        <time>2018-05-17T00:04:43Z</time>
      </trkpt>
      <trkpt lat="44.52081" lon="0.76477">
        <ele>103.8</ele>
        <time>2018-05-17T00:04:44Z</time>
      </trkpt>
      <trkpt lat="44.5208" lon="0.76473">
        <ele>103.9</ele>
        <time>2018-05-17T00:04:45Z</time>
      </trkpt>
      <trkpt lat="44.52078" lon="0.7647">
        <ele>104</ele>
        <time>2018-05-17T00:04:46Z</time>
      </trkpt>
      <trkpt lat="44.52075" lon="0.76468">
        <ele>104</ele>
        <time>2018-05-17T00:04:47Z</time>
      </trkpt>
      <trkpt lat="44.52072" lon="0.76466">
        <ele>104.2</ele>
        <time>2018-05-17T00:04:48Z</time>
      </trkpt>
      <trkpt lat="44.52069" lon="0.76464">
        <ele>104.2</ele>
        <time>2018-05-17T00:04:49Z</time>
      </trkpt>
      <trkpt lat="44.52066" lon="0.76461">
        <ele>104.3</ele>
        <time>2018-05-17T00:04:50Z</time>
      </trkpt>
      <trkpt lat="44.52063" lon="0.76459">
        <ele>104.3</ele>
        <time>2018-05-17T00:04:51Z</time>
      </trkpt>
      <trkpt lat="44.5206" lon="0.76456">
        <ele>104.5</ele>
        <time>2018-05-17T00:04:52Z</time>
      </trkpt>
      <trkpt lat="44.52057" lon="0.76453">
        <ele>104.6</ele>
        <time>2018-05-17T00:04:53Z</time>
      </trkpt>
      <trkpt lat="44.52053" lon="0.7645">
        <ele>104.5</ele>
        <time>2018-05-17T00:04:54Z</time>
      </trkpt>
      <trkpt lat="44.5205" lon="0.76447">
        <ele>104.6</ele>
        <time>2018-05-17T00:04:55Z</time>
      </trkpt>
      <trkpt lat="44.52046" lon="0.76443">
        <ele>104.7</ele>
        <time>2018-05-17T00:04:56Z</time>
      </trkpt>
      <trkpt lat="44.52043" lon="0.7644">
        <ele>104.8</ele>
        <time>2018-05-17T00:04:57Z</time>
      </trkpt>
      <trkpt lat="44.5204" lon="0.76437">
        <ele>104.8</ele>
        <time>2018-05-17T00:04:58Z</time>
      </trkpt>
      <trkpt lat="44.52037" lon="0.76433">
        <ele>104.9</ele>
        <time>2018-05-17T00:04:59Z</time>
      </trkpt>
      <trkpt lat="44.52034" lon="0.7643">
        <ele>105</ele>
        <time>2018-05-17T00:05:00Z</time>
      </trkpt>
      <trkpt lat="44.5203" lon="0.76426">
        <ele>105.1</ele>
        <time>2018-05-17T00:05:01Z</time>
      </trkpt>
      <trkpt lat="44.52027" lon="0.76422">
        <ele>105.2</ele>
        <time>2018-05-17T00:05:02Z</time>
      </trkpt>
      <trkpt lat="44.52024" lon="0.76419">
        <ele>105.2</ele>
        <time>2018-05-17T00:05:03Z</time>
      </trkpt>
      <trkpt lat="44.52021" lon="0.76415">
        <ele>105.3</ele>
        <time>2018-05-17T00:05:04Z</time>
      </trkpt>
      <trkpt lat="44.52018" lon="0.76411">
        <ele>105.3</ele>
        <time>2018-05-17T00:05:05Z</time>
      </trkpt>
      <trkpt lat="44.52015" lon="0.76407">
        <ele>105.4</ele>
        <time>2018-05-17T00:05:06Z</time>
      </trkpt>
      <trkpt lat="44.52012" lon="0.76403">
        <ele>105.5</ele>
        <time>2018-05-17T00:05:07Z</time>
      </trkpt>
      <trkpt lat="44.52009" lon="0.76399">
        <ele>105.6</ele>
        <time>2018-05-17T00:05:08Z</time>
      </trkpt>
      <trkpt lat="44.52005" lon="0.76396">
        <ele>105.7</ele>
        <time>2018-05-17T00:05:09Z</time>
      </trkpt>
      <trkpt lat="44.52003" lon="0.76392">
        <ele>105.8</ele>
        <time>2018-05-17T00:05:10Z</time>
      </trkpt>
      <trkpt lat="44.52" lon="0.76389">
        <ele>105.9</ele>
        <time>2018-05-17T00:05:11Z</time>
      </trkpt>
      <trkpt lat="44.51997" lon="0.76385">
        <ele>106</ele>
        <time>2018-05-17T00:05:12Z</time>
      </trkpt>
      <trkpt lat="44.51994" lon="0.76382">
        <ele>106</ele>
        <time>2018-05-17T00:05:13Z</time>
      </trkpt>
      <trkpt lat="44.51991" lon="0.76378">
        <ele>106.1</ele>
        <time>2018-05-17T00:05:14Z</time>
      </trkpt>
      <trkpt lat="44.51988" lon="0.76375">
        <ele>106.2</ele>
        <time>2018-05-17T00:05:15Z</time>
      </trkpt>
      <trkpt lat="44.51985" lon="0.76371">
        <ele>106.3</ele>
        <time>2018-05-17T00:05:16Z</time>
      </trkpt>
      <trkpt lat="44.51983" lon="0.76368">
        <ele>106.3</ele>
        <time>2018-05-17T00:05:17Z</time>
      </trkpt>
      <trkpt lat="44.5198" lon="0.76365">
        <ele>106.4</ele>
        <time>2018-05-17T00:05:18Z</time>
      </trkpt>
      <trkpt lat="44.51977" lon="0.76362">
        <ele>106.5</ele>
        <time>2018-05-17T00:05:19Z</time>
      </trkpt>
      <trkpt lat="44.51974" lon="0.76358">
        <ele>106.6</ele>
        <time>2018-05-17T00:05:20Z</time>
      </trkpt>
      <trkpt lat="44.51971" lon="0.76355">
        <ele>106.6</ele>
        <time>2018-05-17T00:05:21Z</time>
      </trkpt>
      <trkpt lat="44.51969" lon="0.76352">
        <ele>106.6</ele>
        <time>2018-05-17T00:05:22Z</time>
      </trkpt>
      <trkpt lat="44.51966" lon="0.76348">
        <ele>106.6</ele>
        <time>2018-05-17T00:05:23Z</time>
      </trkpt>
      <trkpt lat="44.51963" lon="0.76345">
        <ele>106.7</ele>
        <time>2018-05-17T00:05:24Z</time>
      </trkpt>
      <trkpt lat="44.5196" lon="0.76342">
        <ele>106.7</ele>
        <time>2018-05-17T00:05:25Z</time>
      </trkpt>
      <trkpt lat="44.51958" lon="0.76338">
        <ele>106.6</ele>
        <time>2018-05-17T00:05:26Z</time>
      </trkpt>
      <trkpt lat="44.51954" lon="0.76335">
        <ele>106.6</ele>
        <time>2018-05-17T00:05:27Z</time>
      </trkpt>
      <trkpt lat="44.51952" lon="0.76331">
        <ele>106.6</ele>
        <time>2018-05-17T00:05:28Z</time>
      </trkpt>
      <trkpt lat="44.51949" lon="0.76328">
        <ele>106.6</ele>
        <time>2018-05-17T00:05:29Z</time>
      </trkpt>
      <trkpt lat="44.51946" lon="0.76324">
        <ele>106.6</ele>
        <time>2018-05-17T00:05:30Z</time>
      </trkpt>
      <trkpt lat="44.51943" lon="0.76321">
        <ele>106.5</ele>
        <time>2018-05-17T00:05:31Z</time>
      </trkpt>
      <trkpt lat="44.5194" lon="0.76317">
        <ele>106.5</ele>
        <time>2018-05-17T00:05:32Z</time>
      </trkpt>
      <trkpt lat="44.51937" lon="0.76314">
        <ele>106.4</ele>
        <time>2018-05-17T00:05:33Z</time>
      </trkpt>
      <trkpt lat="44.51934" lon="0.7631">
        <ele>106.4</ele>
        <time>2018-05-17T00:05:34Z</time>
      </trkpt>
      <trkpt lat="44.5193" lon="0.76307">
        <ele>106.3</ele>
        <time>2018-05-17T00:05:35Z</time>
      </trkpt>
      <trkpt lat="44.51927" lon="0.76303">
        <ele>106.3</ele>
        <time>2018-05-17T00:05:36Z</time>
      </trkpt>
      <trkpt lat="44.51923" lon="0.76299">
        <ele>106.2</ele>
        <time>2018-05-17T00:05:37Z</time>
      </trkpt>
      <trkpt lat="44.5192" lon="0.76295">
        <ele>106.2</ele>
        <time>2018-05-17T00:05:38Z</time>
      </trkpt>
      <trkpt lat="44.51916" lon="0.76291">
        <ele>106.1</ele>
        <time>2018-05-17T00:05:39Z</time>
      </trkpt>
      <trkpt lat="44.51913" lon="0.76287">
        <ele>106.1</ele>
        <time>2018-05-17T00:05:40Z</time>
      </trkpt>
      <trkpt lat="44.5191" lon="0.76284">
        <ele>106</ele>
        <time>2018-05-17T00:05:41Z</time>
      </trkpt>
      <trkpt lat="44.51906" lon="0.7628">
        <ele>105.9</ele>
        <time>2018-05-17T00:05:42Z</time>
      </trkpt>
      <trkpt lat="44.51902" lon="0.76276">
        <ele>105.9</ele>
        <time>2018-05-17T00:05:43Z</time>
      </trkpt>
      <trkpt lat="44.51898" lon="0.76272">
        <ele>105.9</ele>
        <time>2018-05-17T00:05:44Z</time>
      </trkpt>
      <trkpt lat="44.51895" lon="0.76268">
        <ele>105.9</ele>
        <time>2018-05-17T00:05:45Z</time>
      </trkpt>
      <trkpt lat="44.51891" lon="0.76264">
        <ele>105.8</ele>
        <time>2018-05-17T00:05:46Z</time>
      </trkpt>
      <trkpt lat="44.51887" lon="0.7626">
        <ele>105.8</ele>
        <time>2018-05-17T00:05:47Z</time>
      </trkpt>
      <trkpt lat="44.51883" lon="0.76257">
        <ele>105.7</ele>
        <time>2018-05-17T00:05:48Z</time>
      </trkpt>
      <trkpt lat="44.51878" lon="0.76254">
        <ele>105.6</ele>
        <time>2018-05-17T00:05:49Z</time>
      </trkpt>
      <trkpt lat="44.51874" lon="0.76251">
        <ele>105.6</ele>
        <time>2018-05-17T00:05:50Z</time>
      </trkpt>
      <trkpt lat="44.51869" lon="0.76248">
        <ele>105.5</ele>
        <time>2018-05-17T00:05:51Z</time>
      </trkpt>
      <trkpt lat="44.51864" lon="0.76245">
        <ele>105.4</ele>
        <time>2018-05-17T00:05:52Z</time>
      </trkpt>
      <trkpt lat="44.51859" lon="0.76242">
        <ele>105.3</ele>
        <time>2018-05-17T00:05:53Z</time>
      </trkpt>
      <trkpt lat="44.51853" lon="0.76238">
        <ele>105.1</ele>
        <time>2018-05-17T00:05:54Z</time>
      </trkpt>
      <trkpt lat="44.51847" lon="0.76235">
        <ele>105</ele>
        <time>2018-05-17T00:05:55Z</time>
      </trkpt>
      <trkpt lat="44.51841" lon="0.76233">
        <ele>104.9</ele>
        <time>2018-05-17T00:05:56Z</time>
      </trkpt>
      <trkpt lat="44.51835" lon="0.76231">
        <ele>104.9</ele>
        <time>2018-05-17T00:05:57Z</time>
      </trkpt>
      <trkpt lat="44.51829" lon="0.76231">
        <ele>104.8</ele>
        <time>2018-05-17T00:05:58Z</time>
      </trkpt>
      <trkpt lat="44.51823" lon="0.7623">
        <ele>104.8</ele>
        <time>2018-05-17T00:05:59Z</time>
      </trkpt>
      <trkpt lat="44.51818" lon="0.76231">
        <ele>104.9</ele>
        <time>2018-05-17T00:06:00Z</time>
      </trkpt>
      <trkpt lat="44.51812" lon="0.76231">
        <ele>104.9</ele>
        <time>2018-05-17T00:06:01Z</time>
      </trkpt>
      <trkpt lat="44.51806" lon="0.76232">
        <ele>104.9</ele>
        <time>2018-05-17T00:06:02Z</time>
      </trkpt>
      <trkpt lat="44.51801" lon="0.76233">
        <ele>105</ele>
        <time>2018-05-17T00:06:03Z</time>
      </trkpt>
      <trkpt lat="44.51796" lon="0.76233">
        <ele>105.1</ele>
        <time>2018-05-17T00:06:04Z</time>
      </trkpt>
      <trkpt lat="44.51791" lon="0.76234">
        <ele>105.2</ele>
        <time>2018-05-17T00:06:05Z</time>
      </trkpt>
      <trkpt lat="44.51787" lon="0.76233">
        <ele>105.3</ele>
        <time>2018-05-17T00:06:06Z</time>
      </trkpt>
      <trkpt lat="44.51782" lon="0.76234">
        <ele>105.4</ele>
        <time>2018-05-17T00:06:07Z</time>
      </trkpt>
      <trkpt lat="44.51777" lon="0.76234">
        <ele>105.6</ele>
        <time>2018-05-17T00:06:08Z</time>
      </trkpt>
      <trkpt lat="44.51772" lon="0.76235">
        <ele>105.6</ele>
        <time>2018-05-17T00:06:09Z</time>
      </trkpt>
      <trkpt lat="44.51767" lon="0.76235">
        <ele>105.8</ele>
        <time>2018-05-17T00:06:10Z</time>
      </trkpt>
      <trkpt lat="44.51763" lon="0.76235">
        <ele>105.9</ele>
        <time>2018-05-17T00:06:11Z</time>
      </trkpt>
      <trkpt lat="44.51758" lon="0.76235">
        <ele>106</ele>
        <time>2018-05-17T00:06:12Z</time>
      </trkpt>
      <trkpt lat="44.51755" lon="0.76235">
        <ele>106</ele>
        <time>2018-05-17T00:06:13Z</time>
      </trkpt>
      <trkpt lat="44.5175" lon="0.76235">
        <ele>106.1</ele>
        <time>2018-05-17T00:06:14Z</time>
      </trkpt>
      <trkpt lat="44.51746" lon="0.76235">
        <ele>106.2</ele>
        <time>2018-05-17T00:06:15Z</time>
      </trkpt>
      <trkpt lat="44.51742" lon="0.76236">
        <ele>106.2</ele>
        <time>2018-05-17T00:06:16Z</time>
      </trkpt>
      <trkpt lat="44.51738" lon="0.76236">
        <ele>106.3</ele>
        <time>2018-05-17T00:06:17Z</time>
      </trkpt>
      <trkpt lat="44.51733" lon="0.76237">
        <ele>106.4</ele>
        <time>2018-05-17T00:06:18Z</time>
      </trkpt>
      <trkpt lat="44.51729" lon="0.76237">
        <ele>106.4</ele>
        <time>2018-05-17T00:06:19Z</time>
      </trkpt>
      <trkpt lat="44.51724" lon="0.76237">
        <ele>106.5</ele>
        <time>2018-05-17T00:06:20Z</time>
      </trkpt>
      <trkpt lat="44.51719" lon="0.76236">
        <ele>106.5</ele>
        <time>2018-05-17T00:06:21Z</time>
      </trkpt>
      <trkpt lat="44.51714" lon="0.76235">
        <ele>106.5</ele>
        <time>2018-05-17T00:06:22Z</time>
      </trkpt>
      <trkpt lat="44.51709" lon="0.76235">
        <ele>106.6</ele>
        <time>2018-05-17T00:06:23Z</time>
      </trkpt>
      <trkpt lat="44.51704" lon="0.76234">
        <ele>106.6</ele>
        <time>2018-05-17T00:06:24Z</time>
      </trkpt>
      <trkpt lat="44.51698" lon="0.76233">
        <ele>106.6</ele>
        <time>2018-05-17T00:06:25Z</time>
      </trkpt>
      <trkpt lat="44.51693" lon="0.76231">
        <ele>106.6</ele>
        <time>2018-05-17T00:06:26Z</time>
      </trkpt>
      <trkpt lat="44.51688" lon="0.76229">
        <ele>106.7</ele>
        <time>2018-05-17T00:06:27Z</time>
      </trkpt>
      <trkpt lat="44.51682" lon="0.76227">
        <ele>106.7</ele>
        <time>2018-05-17T00:06:28Z</time>
      </trkpt>
      <trkpt lat="44.51677" lon="0.76224">
        <ele>106.7</ele>
        <time>2018-05-17T00:06:29Z</time>
      </trkpt>
      <trkpt lat="44.51672" lon="0.76222">
        <ele>106.7</ele>
        <time>2018-05-17T00:06:30Z</time>
      </trkpt>
      <trkpt lat="44.51667" lon="0.76219">
        <ele>106.6</ele>
        <time>2018-05-17T00:06:31Z</time>
      </trkpt>
      <trkpt lat="44.51662" lon="0.76216">
        <ele>106.6</ele>
        <time>2018-05-17T00:06:32Z</time>
      </trkpt>
      <trkpt lat="44.51657" lon="0.76213">
        <ele>106.6</ele>
        <time>2018-05-17T00:06:33Z</time>
      </trkpt>
      <trkpt lat="44.51653" lon="0.76209">
        <ele>106.6</ele>
        <time>2018-05-17T00:06:34Z</time>
      </trkpt>
      <trkpt lat="44.51648" lon="0.76207">
        <ele>106.5</ele>
        <time>2018-05-17T00:06:35Z</time>
      </trkpt>
      <trkpt lat="44.51643" lon="0.76202">
        <ele>106.4</ele>
        <time>2018-05-17T00:06:36Z</time>
      </trkpt>
      <trkpt lat="44.51639" lon="0.76197">
        <ele>106.3</ele>
        <time>2018-05-17T00:06:37Z</time>
      </trkpt>
      <trkpt lat="44.51634" lon="0.76191">
        <ele>106.1</ele>
        <time>2018-05-17T00:06:38Z</time>
      </trkpt>
      <trkpt lat="44.51627" lon="0.76187">
        <ele>105.9</ele>
        <time>2018-05-17T00:06:39Z</time>
      </trkpt>
      <trkpt lat="44.5162" lon="0.76181">
        <ele>105.8</ele>
        <time>2018-05-17T00:06:40Z</time>
      </trkpt>
      <trkpt lat="44.51613" lon="0.76177">
        <ele>105.6</ele>
        <time>2018-05-17T00:06:41Z</time>
      </trkpt>
      <trkpt lat="44.51607" lon="0.76172">
        <ele>105.4</ele>
        <time>2018-05-17T00:06:42Z</time>
      </trkpt>
      <trkpt lat="44.51601" lon="0.7617">
        <ele>105.3</ele>
        <time>2018-05-17T00:06:43Z</time>
      </trkpt>
      <trkpt lat="44.51593" lon="0.76171">
        <ele>105.1</ele>
        <time>2018-05-17T00:06:44Z</time>
      </trkpt>
      <trkpt lat="44.51586" lon="0.76172">
        <ele>105</ele>
        <time>2018-05-17T00:06:45Z</time>
      </trkpt>
      <trkpt lat="44.51579" lon="0.76172">
        <ele>104.9</ele>
        <time>2018-05-17T00:06:46Z</time>
      </trkpt>
      <trkpt lat="44.51571" lon="0.76169">
        <ele>104.9</ele>
        <time>2018-05-17T00:06:47Z</time>
      </trkpt>
      <trkpt lat="44.51563" lon="0.76166">
        <ele>104.9</ele>
        <time>2018-05-17T00:06:48Z</time>
      </trkpt>
      <trkpt lat="44.51556" lon="0.76162">
        <ele>105</ele>
        <time>2018-05-17T00:06:49Z</time>
      </trkpt>
      <trkpt lat="44.51549" lon="0.7616">
        <ele>105.1</ele>
        <time>2018-05-17T00:06:50Z</time>
      </trkpt>
      <trkpt lat="44.51543" lon="0.76156">
        <ele>105.2</ele>
        <time>2018-05-17T00:06:51Z</time>
      </trkpt>
      <trkpt lat="44.51537" lon="0.76153">
        <ele>105.2</ele>
        <time>2018-05-17T00:06:52Z</time>
      </trkpt>
      <trkpt lat="44.51531" lon="0.76152">
        <ele>105.4</ele>
        <time>2018-05-17T00:06:53Z</time>
      </trkpt>
      <trkpt lat="44.51526" lon="0.7615">
        <ele>105.5</ele>
        <time>2018-05-17T00:06:54Z</time>
      </trkpt>
      <trkpt lat="44.5152" lon="0.76148">
        <ele>105.6</ele>
        <time>2018-05-17T00:06:55Z</time>
      </trkpt>
      <trkpt lat="44.51514" lon="0.76146">
        <ele>105.7</ele>
        <time>2018-05-17T00:06:56Z</time>
      </trkpt>
      <trkpt lat="44.51508" lon="0.76145">
        <ele>105.8</ele>
        <time>2018-05-17T00:06:57Z</time>
      </trkpt>
      <trkpt lat="44.51503" lon="0.76143">
        <ele>106.1</ele>
        <time>2018-05-17T00:06:58Z</time>
      </trkpt>
      <trkpt lat="44.51497" lon="0.76142">
        <ele>106.2</ele>
        <time>2018-05-17T00:06:59Z</time>
      </trkpt>
      <trkpt lat="44.51492" lon="0.76141">
        <ele>106.4</ele>
        <time>2018-05-17T00:07:00Z</time>
      </trkpt>
      <trkpt lat="44.51486" lon="0.76141">
        <ele>106.6</ele>
        <time>2018-05-17T00:07:01Z</time>
      </trkpt>
      <trkpt lat="44.51482" lon="0.7614">
        <ele>106.6</ele>
        <time>2018-05-17T00:07:02Z</time>
      </trkpt>
      <trkpt lat="44.51478" lon="0.76139">
        <ele>106.6</ele>
        <time>2018-05-17T00:07:03Z</time>
      </trkpt>
      <trkpt lat="44.51473" lon="0.76138">
        <ele>106.5</ele>
        <time>2018-05-17T00:07:04Z</time>
      </trkpt>
      <trkpt lat="44.51469" lon="0.76138">
        <ele>106.6</ele>
        <time>2018-05-17T00:07:05Z</time>
      </trkpt>
      <trkpt lat="44.51465" lon="0.76138">
        <ele>106.7</ele>
        <time>2018-05-17T00:07:06Z</time>
      </trkpt>
      <trkpt lat="44.51461" lon="0.76138">
        <ele>106.9</ele>
        <time>2018-05-17T00:07:07Z</time>
      </trkpt>
      <trkpt lat="44.51456" lon="0.76138">
        <ele>106.9</ele>
        <time>2018-05-17T00:07:08Z</time>
      </trkpt>
      <trkpt lat="44.51451" lon="0.76139">
        <ele>107</ele>
        <time>2018-05-17T00:07:09Z</time>
      </trkpt>
      <trkpt lat="44.51446" lon="0.7614">
        <ele>107</ele>
        <time>2018-05-17T00:07:10Z</time>
      </trkpt>
      <trkpt lat="44.5144" lon="0.76141">
        <ele>106.5</ele>
        <time>2018-05-17T00:07:11Z</time>
      </trkpt>
      <trkpt lat="44.51435" lon="0.76142">
        <ele>105.8</ele>
        <time>2018-05-17T00:07:12Z</time>
      </trkpt>
      <trkpt lat="44.51431" lon="0.76143">
        <ele>105.3</ele>
        <time>2018-05-17T00:07:13Z</time>
      </trkpt>
      <trkpt lat="44.51427" lon="0.76144">
        <ele>104.8</ele>
        <time>2018-05-17T00:07:14Z</time>
      </trkpt>
      <trkpt lat="44.51423" lon="0.76145">
        <ele>104.3</ele>
        <time>2018-05-17T00:07:15Z</time>
      </trkpt>
      <trkpt lat="44.5141" lon="0.76148">
        <ele>103.1</ele>
        <time>2018-05-17T00:07:18Z</time>
      </trkpt>
      <trkpt lat="44.51404" lon="0.76149">
        <ele>102.5</ele>
        <time>2018-05-17T00:07:19Z</time>
      </trkpt>
      <trkpt lat="44.51397" lon="0.76148">
        <ele>101.9</ele>
        <time>2018-05-17T00:07:20Z</time>
      </trkpt>
      <trkpt lat="44.51392" lon="0.76149">
        <ele>101.5</ele>
        <time>2018-05-17T00:07:21Z</time>
      </trkpt>
      <trkpt lat="44.51387" lon="0.7615">
        <ele>101.2</ele>
        <time>2018-05-17T00:07:22Z</time>
      </trkpt>
      <trkpt lat="44.51382" lon="0.76151">
        <ele>100.9</ele>
        <time>2018-05-17T00:07:23Z</time>
      </trkpt>
      <trkpt lat="44.51377" lon="0.76152">
        <ele>100.6</ele>
        <time>2018-05-17T00:07:24Z</time>
      </trkpt>
      <trkpt lat="44.51372" lon="0.76153">
        <ele>100.3</ele>
        <time>2018-05-17T00:07:25Z</time>
      </trkpt>
      <trkpt lat="44.51368" lon="0.76155">
        <ele>100.1</ele>
        <time>2018-05-17T00:07:26Z</time>
      </trkpt>
      <trkpt lat="44.51363" lon="0.76156">
        <ele>99.9</ele>
        <time>2018-05-17T00:07:27Z</time>
      </trkpt>
      <trkpt lat="44.51359" lon="0.76157">
        <ele>99.7</ele>
        <time>2018-05-17T00:07:28Z</time>
      </trkpt>
      <trkpt lat="44.51354" lon="0.76158">
        <ele>99.6</ele>
        <time>2018-05-17T00:07:29Z</time>
      </trkpt>
      <trkpt lat="44.51349" lon="0.76158">
        <ele>99.5</ele>
        <time>2018-05-17T00:07:30Z</time>
      </trkpt>
      <trkpt lat="44.51344" lon="0.76157">
        <ele>99.4</ele>
        <time>2018-05-17T00:07:31Z</time>
      </trkpt>
      <trkpt lat="44.5134" lon="0.76155">
        <ele>99.3</ele>
        <time>2018-05-17T00:07:32Z</time>
      </trkpt>
      <trkpt lat="44.51336" lon="0.76152">
        <ele>99.2</ele>
        <time>2018-05-17T00:07:33Z</time>
      </trkpt>
      <trkpt lat="44.51331" lon="0.76149">
        <ele>99.1</ele>
        <time>2018-05-17T00:07:34Z</time>
      </trkpt>
      <trkpt lat="44.51327" lon="0.76148">
        <ele>99</ele>
        <time>2018-05-17T00:07:35Z</time>
      </trkpt>
      <trkpt lat="44.51322" lon="0.76144">
        <ele>99.1</ele>
        <time>2018-05-17T00:07:36Z</time>
      </trkpt>
      <trkpt lat="44.51317" lon="0.76139">
        <ele>99.3</ele>
        <time>2018-05-17T00:07:37Z</time>
      </trkpt>
      <trkpt lat="44.51311" lon="0.76134">
        <ele>99.3</ele>
        <time>2018-05-17T00:07:38Z</time>
      </trkpt>
      <trkpt lat="44.51305" lon="0.76126">
        <ele>99.4</ele>
        <time>2018-05-17T00:07:39Z</time>
      </trkpt>
      <trkpt lat="44.51301" lon="0.76124">
        <ele>99.5</ele>
        <time>2018-05-17T00:07:40Z</time>
      </trkpt>
      <trkpt lat="44.51296" lon="0.76117">
        <ele>99.5</ele>
        <time>2018-05-17T00:07:41Z</time>
      </trkpt>
      <trkpt lat="44.51291" lon="0.76111">
        <ele>99.6</ele>
        <time>2018-05-17T00:07:42Z</time>
      </trkpt>
      <trkpt lat="44.51284" lon="0.76103">
        <ele>99.6</ele>
        <time>2018-05-17T00:07:43Z</time>
      </trkpt>
      <trkpt lat="44.5128" lon="0.76096">
        <ele>99.6</ele>
        <time>2018-05-17T00:07:44Z</time>
      </trkpt>
      <trkpt lat="44.51274" lon="0.76089">
        <ele>99.7</ele>
        <time>2018-05-17T00:07:45Z</time>
      </trkpt>
      <trkpt lat="44.51268" lon="0.76082">
        <ele>99.7</ele>
        <time>2018-05-17T00:07:46Z</time>
      </trkpt>
      <trkpt lat="44.51262" lon="0.76076">
        <ele>99.7</ele>
        <time>2018-05-17T00:07:47Z</time>
      </trkpt>
      <trkpt lat="44.51255" lon="0.7607">
        <ele>99.7</ele>
        <time>2018-05-17T00:07:48Z</time>
      </trkpt>
      <trkpt lat="44.5125" lon="0.76064">
        <ele>99.7</ele>
        <time>2018-05-17T00:07:49Z</time>
      </trkpt>
      <trkpt lat="44.51244" lon="0.76057">
        <ele>99.7</ele>
        <time>2018-05-17T00:07:50Z</time>
      </trkpt>
      <trkpt lat="44.51239" lon="0.76051">
        <ele>99.7</ele>
        <time>2018-05-17T00:07:51Z</time>
      </trkpt>
      <trkpt lat="44.51234" lon="0.76046">
        <ele>99.8</ele>
        <time>2018-05-17T00:07:52Z</time>
      </trkpt>
      <trkpt lat="44.51229" lon="0.7604">
        <ele>99.8</ele>
        <time>2018-05-17T00:07:53Z</time>
      </trkpt>
      <trkpt lat="44.51224" lon="0.76035">
        <ele>99.8</ele>
        <time>2018-05-17T00:07:54Z</time>
      </trkpt>
      <trkpt lat="44.5122" lon="0.76029">
        <ele>99.8</ele>
        <time>2018-05-17T00:07:55Z</time>
      </trkpt>
      <trkpt lat="44.51215" lon="0.76025">
        <ele>99.8</ele>
        <time>2018-05-17T00:07:56Z</time>
      </trkpt>
      <trkpt lat="44.51211" lon="0.76022">
        <ele>99.8</ele>
        <time>2018-05-17T00:07:57Z</time>
      </trkpt>
      <trkpt lat="44.51205" lon="0.76021">
        <ele>99.8</ele>
        <time>2018-05-17T00:07:58Z</time>
      </trkpt>
      <trkpt lat="44.51199" lon="0.76025">
        <ele>99.8</ele>
        <time>2018-05-17T00:07:59Z</time>
      </trkpt>
      <trkpt lat="44.51195" lon="0.7603">
        <ele>99.9</ele>
        <time>2018-05-17T00:08:00Z</time>
      </trkpt>
      <trkpt lat="44.5119" lon="0.76035">
        <ele>99.9</ele>
        <time>2018-05-17T00:08:01Z</time>
      </trkpt>
      <trkpt lat="44.51186" lon="0.76041">
        <ele>99.9</ele>
        <time>2018-05-17T00:08:02Z</time>
      </trkpt>
      <trkpt lat="44.51182" lon="0.76046">
        <ele>99.9</ele>
        <time>2018-05-17T00:08:03Z</time>
      </trkpt>
      <trkpt lat="44.51179" lon="0.76049">
        <ele>100</ele>
        <time>2018-05-17T00:08:04Z</time>
      </trkpt>
      <trkpt lat="44.51174" lon="0.76049">
        <ele>100</ele>
        <time>2018-05-17T00:08:05Z</time>
      </trkpt>
      <trkpt lat="44.51169" lon="0.76047">
        <ele>100</ele>
        <time>2018-05-17T00:08:06Z</time>
      </trkpt>
      <trkpt lat="44.51164" lon="0.76044">
        <ele>100</ele>
        <time>2018-05-17T00:08:07Z</time>
      </trkpt>
      <trkpt lat="44.51159" lon="0.7604">
        <ele>100</ele>
        <time>2018-05-17T00:08:08Z</time>
      </trkpt>
      <trkpt lat="44.51154" lon="0.76034">
        <ele>100</ele>
        <time>2018-05-17T00:08:09Z</time>
      </trkpt>
      <trkpt lat="44.51149" lon="0.76029">
        <ele>100</ele>
        <time>2018-05-17T00:08:10Z</time>
      </trkpt>
      <trkpt lat="44.51145" lon="0.76023">
        <ele>100</ele>
        <time>2018-05-17T00:08:11Z</time>
      </trkpt>
      <trkpt lat="44.5114" lon="0.76018">
        <ele>99.9</ele>
        <time>2018-05-17T00:08:12Z</time>
      </trkpt>
      <trkpt lat="44.51134" lon="0.76012">
        <ele>99.8</ele>
        <time>2018-05-17T00:08:13Z</time>
      </trkpt>
      <trkpt lat="44.51128" lon="0.76007">
        <ele>99.7</ele>
        <time>2018-05-17T00:08:14Z</time>
      </trkpt>
      <trkpt lat="44.51122" lon="0.76001">
        <ele>99.5</ele>
        <time>2018-05-17T00:08:15Z</time>
      </trkpt>
      <trkpt lat="44.51116" lon="0.75995">
        <ele>99.3</ele>
        <time>2018-05-17T00:08:16Z</time>
      </trkpt>
      <trkpt lat="44.51109" lon="0.75989">
        <ele>99</ele>
        <time>2018-05-17T00:08:17Z</time>
      </trkpt>
      <trkpt lat="44.51102" lon="0.75983">
        <ele>98.6</ele>
        <time>2018-05-17T00:08:18Z</time>
      </trkpt>
      <trkpt lat="44.51097" lon="0.75979">
        <ele>98.3</ele>
        <time>2018-05-17T00:08:19Z</time>
      </trkpt>
      <trkpt lat="44.51093" lon="0.75976">
        <ele>98</ele>
        <time>2018-05-17T00:08:20Z</time>
      </trkpt>
      <trkpt lat="44.51088" lon="0.75973">
        <ele>97.6</ele>
        <time>2018-05-17T00:08:21Z</time>
      </trkpt>
      <trkpt lat="44.51083" lon="0.75971">
        <ele>97.3</ele>
        <time>2018-05-17T00:08:22Z</time>
      </trkpt>
      <trkpt lat="44.51079" lon="0.75972">
        <ele>97</ele>
        <time>2018-05-17T00:08:23Z</time>
      </trkpt>
      <trkpt lat="44.51075" lon="0.75973">
        <ele>96.7</ele>
        <time>2018-05-17T00:08:24Z</time>
      </trkpt>
      <trkpt lat="44.5107" lon="0.75975">
        <ele>96.4</ele>
        <time>2018-05-17T00:08:25Z</time>
      </trkpt>
      <trkpt lat="44.51064" lon="0.75977">
        <ele>96</ele>
        <time>2018-05-17T00:08:26Z</time>
      </trkpt>
      <trkpt lat="44.51057" lon="0.75978">
        <ele>95</ele>
        <time>2018-05-17T00:08:27Z</time>
      </trkpt>
      <trkpt lat="44.5105" lon="0.75979">
        <ele>94</ele>
        <time>2018-05-17T00:08:28Z</time>
      </trkpt>
      <trkpt lat="44.51043" lon="0.75979">
        <ele>92.8</ele>
        <time>2018-05-17T00:08:29Z</time>
      </trkpt>
      <trkpt lat="44.51036" lon="0.75979">
        <ele>92</ele>
        <time>2018-05-17T00:08:30Z</time>
      </trkpt>
      <trkpt lat="44.5103" lon="0.75979">
        <ele>91.1</ele>
        <time>2018-05-17T00:08:31Z</time>
      </trkpt>
      <trkpt lat="44.51024" lon="0.75978">
        <ele>90.3</ele>
        <time>2018-05-17T00:08:32Z</time>
      </trkpt>
      <trkpt lat="44.51016" lon="0.75976">
        <ele>89.4</ele>
        <time>2018-05-17T00:08:33Z</time>
      </trkpt>
      <trkpt lat="44.51009" lon="0.75974">
        <ele>88.2</ele>
        <time>2018-05-17T00:08:34Z</time>
      </trkpt>
      <trkpt lat="44.51002" lon="0.75972">
        <ele>87.2</ele>
        <time>2018-05-17T00:08:35Z</time>
      </trkpt>
      <trkpt lat="44.50995" lon="0.7597">
        <ele>86.3</ele>
        <time>2018-05-17T00:08:36Z</time>
      </trkpt>
      <trkpt lat="44.50988" lon="0.75968">
        <ele>85.2</ele>
        <time>2018-05-17T00:08:37Z</time>
      </trkpt>
      <trkpt lat="44.5098" lon="0.75967">
        <ele>84.5</ele>
        <time>2018-05-17T00:08:38Z</time>
      </trkpt>
      <trkpt lat="44.50972" lon="0.75967">
        <ele>83.7</ele>
        <time>2018-05-17T00:08:39Z</time>
      </trkpt>
      <trkpt lat="44.50965" lon="0.75965">
        <ele>83</ele>
        <time>2018-05-17T00:08:40Z</time>
      </trkpt>
      <trkpt lat="44.50958" lon="0.75963">
        <ele>82.6</ele>
        <time>2018-05-17T00:08:41Z</time>
      </trkpt>
      <trkpt lat="44.50952" lon="0.7596">
        <ele>82.2</ele>
        <time>2018-05-17T00:08:42Z</time>
      </trkpt>
      <trkpt lat="44.50946" lon="0.75956">
        <ele>81.7</ele>
        <time>2018-05-17T00:08:43Z</time>
      </trkpt>
      <trkpt lat="44.50941" lon="0.75952">
        <ele>81.3</ele>
        <time>2018-05-17T00:08:44Z</time>
      </trkpt>
      <trkpt lat="44.50936" lon="0.75948">
        <ele>81.1</ele>
        <time>2018-05-17T00:08:45Z</time>
      </trkpt>
      <trkpt lat="44.50931" lon="0.75944">
        <ele>80.7</ele>
        <time>2018-05-17T00:08:46Z</time>
      </trkpt>
      <trkpt lat="44.50927" lon="0.75941">
        <ele>80.3</ele>
        <time>2018-05-17T00:08:47Z</time>
      </trkpt>
      <trkpt lat="44.50923" lon="0.75938">
        <ele>80</ele>
        <time>2018-05-17T00:08:48Z</time>
      </trkpt>
      <trkpt lat="44.50921" lon="0.75936">
        <ele>79.9</ele>
        <time>2018-05-17T00:08:49Z</time>
      </trkpt>
      <trkpt lat="44.50915" lon="0.75937">
        <ele>79.5</ele>
        <time>2018-05-17T00:08:51Z</time>
      </trkpt>
      <trkpt lat="44.50912" lon="0.7594">
        <ele>79.2</ele>
        <time>2018-05-17T00:08:52Z</time>
      </trkpt>
      <trkpt lat="44.50908" lon="0.75944">
        <ele>78.9</ele>
        <time>2018-05-17T00:08:53Z</time>
      </trkpt>
      <trkpt lat="44.50903" lon="0.75949">
        <ele>78.5</ele>
        <time>2018-05-17T00:08:54Z</time>
      </trkpt>
      <trkpt lat="44.50898" lon="0.75954">
        <ele>78</ele>
        <time>2018-05-17T00:08:55Z</time>
      </trkpt>
      <trkpt lat="44.50892" lon="0.7596">
        <ele>77.2</ele>
        <time>2018-05-17T00:08:56Z</time>
      </trkpt>
      <trkpt lat="44.50885" lon="0.75965">
        <ele>76.5</ele>
        <time>2018-05-17T00:08:57Z</time>
      </trkpt>
      <trkpt lat="44.50877" lon="0.75971">
        <ele>75.8</ele>
        <time>2018-05-17T00:08:58Z</time>
      </trkpt>
      <trkpt lat="44.50869" lon="0.75977">
        <ele>75.1</ele>
        <time>2018-05-17T00:08:59Z</time>
      </trkpt>
      <trkpt lat="44.50861" lon="0.75983">
        <ele>74.4</ele>
        <time>2018-05-17T00:09:00Z</time>
      </trkpt>
      <trkpt lat="44.50852" lon="0.75989">
        <ele>73.7</ele>
        <time>2018-05-17T00:09:01Z</time>
      </trkpt>
      <trkpt lat="44.50843" lon="0.75997">
        <ele>73.3</ele>
        <time>2018-05-17T00:09:02Z</time>
      </trkpt>
      <trkpt lat="44.50835" lon="0.76006">
        <ele>73</ele>
        <time>2018-05-17T00:09:03Z</time>
      </trkpt>
      <trkpt lat="44.50829" lon="0.76018">
        <ele>72.9</ele>
        <time>2018-05-17T00:09:04Z</time>
      </trkpt>
      <trkpt lat="44.50825" lon="0.76031">
        <ele>72.7</ele>
        <time>2018-05-17T00:09:05Z</time>
      </trkpt>
      <trkpt lat="44.50822" lon="0.76045">
        <ele>72.6</ele>
        <time>2018-05-17T00:09:06Z</time>
      </trkpt>
      <trkpt lat="44.5082" lon="0.7606">
        <ele>72.5</ele>
        <time>2018-05-17T00:09:07Z</time>
      </trkpt>
      <trkpt lat="44.50819" lon="0.76074">
        <ele>72.5</ele>
        <time>2018-05-17T00:09:08Z</time>
      </trkpt>
      <trkpt lat="44.5082" lon="0.76088">
        <ele>72.4</ele>
        <time>2018-05-17T00:09:09Z</time>
      </trkpt>
      <trkpt lat="44.50821" lon="0.76102">
        <ele>72.3</ele>
        <time>2018-05-17T00:09:10Z</time>
      </trkpt>
      <trkpt lat="44.50822" lon="0.76115">
        <ele>72.3</ele>
        <time>2018-05-17T00:09:11Z</time>
      </trkpt>
      <trkpt lat="44.50822" lon="0.76128">
        <ele>72.3</ele>
        <time>2018-05-17T00:09:12Z</time>
      </trkpt>
      <trkpt lat="44.50823" lon="0.7614">
        <ele>72.3</ele>
        <time>2018-05-17T00:09:13Z</time>
      </trkpt>
      <trkpt lat="44.50824" lon="0.76152">
        <ele>72.3</ele>
        <time>2018-05-17T00:09:14Z</time>
      </trkpt>
      <trkpt lat="44.50824" lon="0.76164">
        <ele>72.3</ele>
        <time>2018-05-17T00:09:15Z</time>
      </trkpt>
      <trkpt lat="44.50824" lon="0.76176">
        <ele>72.2</ele>
        <time>2018-05-17T00:09:16Z</time>
      </trkpt>
      <trkpt lat="44.50824" lon="0.76189">
        <ele>72.2</ele>
        <time>2018-05-17T00:09:17Z</time>
      </trkpt>
      <trkpt lat="44.50824" lon="0.76202">
        <ele>72.2</ele>
        <time>2018-05-17T00:09:18Z</time>
      </trkpt>
      <trkpt lat="44.50823" lon="0.76214">
        <ele>72.3</ele>
        <time>2018-05-17T00:09:19Z</time>
      </trkpt>
      <trkpt lat="44.50822" lon="0.76227">
        <ele>72.3</ele>
        <time>2018-05-17T00:09:20Z</time>
      </trkpt>
      <trkpt lat="44.50822" lon="0.76239">
        <ele>72.3</ele>
        <time>2018-05-17T00:09:21Z</time>
      </trkpt>
      <trkpt lat="44.50822" lon="0.7625">
        <ele>72.3</ele>
        <time>2018-05-17T00:09:22Z</time>
      </trkpt>
      <trkpt lat="44.50822" lon="0.76261">
        <ele>72.3</ele>
        <time>2018-05-17T00:09:23Z</time>
      </trkpt>
      <trkpt lat="44.50821" lon="0.76273">
        <ele>72.3</ele>
        <time>2018-05-17T00:09:24Z</time>
      </trkpt>
      <trkpt lat="44.5082" lon="0.76284">
        <ele>72.4</ele>
        <time>2018-05-17T00:09:25Z</time>
      </trkpt>
      <trkpt lat="44.50817" lon="0.76295">
        <ele>72.4</ele>
        <time>2018-05-17T00:09:26Z</time>
      </trkpt>
      <trkpt lat="44.50814" lon="0.76305">
        <ele>72.4</ele>
        <time>2018-05-17T00:09:27Z</time>
      </trkpt>
      <trkpt lat="44.50811" lon="0.76315">
        <ele>72.5</ele>
        <time>2018-05-17T00:09:28Z</time>
      </trkpt>
      <trkpt lat="44.50807" lon="0.76325">
        <ele>72.6</ele>
        <time>2018-05-17T00:09:29Z</time>
      </trkpt>
      <trkpt lat="44.50803" lon="0.76334">
        <ele>72.7</ele>
        <time>2018-05-17T00:09:30Z</time>
      </trkpt>
      <trkpt lat="44.508" lon="0.76345">
        <ele>72.7</ele>
        <time>2018-05-17T00:09:31Z</time>
      </trkpt>
      <trkpt lat="44.50798" lon="0.76355">
        <ele>72.8</ele>
        <time>2018-05-17T00:09:32Z</time>
      </trkpt>
      <trkpt lat="44.50797" lon="0.76365">
        <ele>72.9</ele>
        <time>2018-05-17T00:09:33Z</time>
      </trkpt>
      <trkpt lat="44.50796" lon="0.76376">
        <ele>73.1</ele>
        <time>2018-05-17T00:09:34Z</time>
      </trkpt>
      <trkpt lat="44.50795" lon="0.76385">
        <ele>73.2</ele>
        <time>2018-05-17T00:09:35Z</time>
      </trkpt>
      <trkpt lat="44.50794" lon="0.76395">
        <ele>73.3</ele>
        <time>2018-05-17T00:09:36Z</time>
      </trkpt>
      <trkpt lat="44.50793" lon="0.76403">
        <ele>73.5</ele>
        <time>2018-05-17T00:09:37Z</time>
      </trkpt>
      <trkpt lat="44.50793" lon="0.76411">
        <ele>73.6</ele>
        <time>2018-05-17T00:09:38Z</time>
      </trkpt>
      <trkpt lat="44.50794" lon="0.76416">
        <ele>73.7</ele>
        <time>2018-05-17T00:09:39Z</time>
      </trkpt>
      <trkpt lat="44.50797" lon="0.76421">
        <ele>73.8</ele>
        <time>2018-05-17T00:09:41Z</time>
      </trkpt>
      <trkpt lat="44.508" lon="0.7642">
        <ele>74</ele>
        <time>2018-05-17T00:09:42Z</time>
      </trkpt>
      <trkpt lat="44.50804" lon="0.76419">
        <ele>74</ele>
        <time>2018-05-17T00:09:43Z</time>
      </trkpt>
      <trkpt lat="44.50809" lon="0.7642">
        <ele>74</ele>
        <time>2018-05-17T00:09:44Z</time>
      </trkpt>
      <trkpt lat="44.50813" lon="0.76422">
        <ele>74</ele>
        <time>2018-05-17T00:09:45Z</time>
      </trkpt>
      <trkpt lat="44.50817" lon="0.76424">
        <ele>74.1</ele>
        <time>2018-05-17T00:09:46Z</time>
      </trkpt>
      <trkpt lat="44.50821" lon="0.76427">
        <ele>74.1</ele>
        <time>2018-05-17T00:09:47Z</time>
      </trkpt>
      <trkpt lat="44.50826" lon="0.76431">
        <ele>74.2</ele>
        <time>2018-05-17T00:09:48Z</time>
      </trkpt>
      <trkpt lat="44.5083" lon="0.76434">
        <ele>74.3</ele>
        <time>2018-05-17T00:09:49Z</time>
      </trkpt>
      <trkpt lat="44.50835" lon="0.76437">
        <ele>74.4</ele>
        <time>2018-05-17T00:09:50Z</time>
      </trkpt>
      <trkpt lat="44.5084" lon="0.7644">
        <ele>74.4</ele>
        <time>2018-05-17T00:09:51Z</time>
      </trkpt>
      <trkpt lat="44.50845" lon="0.76442">
        <ele>74.5</ele>
        <time>2018-05-17T00:09:52Z</time>
      </trkpt>
      <trkpt lat="44.5085" lon="0.76445">
        <ele>74.5</ele>
        <time>2018-05-17T00:09:53Z</time>
      </trkpt>
      <trkpt lat="44.50855" lon="0.76447">
        <ele>74.6</ele>
        <time>2018-05-17T00:09:54Z</time>
      </trkpt>
      <trkpt lat="44.5086" lon="0.7645">
        <ele>74.7</ele>
        <time>2018-05-17T00:09:55Z</time>
      </trkpt>
      <trkpt lat="44.50864" lon="0.76452">
        <ele>74.7</ele>
        <time>2018-05-17T00:09:56Z</time>
      </trkpt>
      <trkpt lat="44.50869" lon="0.76454">
        <ele>74.6</ele>
        <time>2018-05-17T00:09:57Z</time>
      </trkpt>
      <trkpt lat="44.50875" lon="0.76455">
        <ele>74.7</ele>
        <time>2018-05-17T00:09:58Z</time>
      </trkpt>
      <trkpt lat="44.5088" lon="0.76456">
        <ele>74.7</ele>
        <time>2018-05-17T00:09:59Z</time>
      </trkpt>
      <trkpt lat="44.50885" lon="0.76458">
        <ele>74.8</ele>
        <time>2018-05-17T00:10:00Z</time>
      </trkpt>
      <trkpt lat="44.5089" lon="0.7646">
        <ele>74.7</ele>
        <time>2018-05-17T00:10:01Z</time>
      </trkpt>
      <trkpt lat="44.50894" lon="0.76462">
        <ele>74.7</ele>
        <time>2018-05-17T00:10:02Z</time>
      </trkpt>
      <trkpt lat="44.50899" lon="0.76463">
        <ele>74.8</ele>
        <time>2018-05-17T00:10:03Z</time>
      </trkpt>
      <trkpt lat="44.50903" lon="0.76464">
        <ele>74.8</ele>
        <time>2018-05-17T00:10:04Z</time>
      </trkpt>
      <trkpt lat="44.50907" lon="0.76465">
        <ele>74.7</ele>
        <time>2018-05-17T00:10:05Z</time>
      </trkpt>
      <trkpt lat="44.50911" lon="0.76467">
        <ele>74.7</ele>
        <time>2018-05-17T00:10:06Z</time>
      </trkpt>
      <trkpt lat="44.50915" lon="0.76467">
        <ele>74.8</ele>
        <time>2018-05-17T00:10:07Z</time>
      </trkpt>
      <trkpt lat="44.50919" lon="0.76468">
        <ele>74.8</ele>
        <time>2018-05-17T00:10:08Z</time>
      </trkpt>
      <trkpt lat="44.50922" lon="0.76469">
        <ele>74.7</ele>
        <time>2018-05-17T00:10:09Z</time>
      </trkpt>
      <trkpt lat="44.50925" lon="0.76469">
        <ele>74.7</ele>
        <time>2018-05-17T00:10:10Z</time>
      </trkpt>
      <trkpt lat="44.50928" lon="0.7647">
        <ele>74.7</ele>
        <time>2018-05-17T00:10:11Z</time>
      </trkpt>
      <trkpt lat="44.50931" lon="0.76471">
        <ele>74.7</ele>
        <time>2018-05-17T00:10:12Z</time>
      </trkpt>
      <trkpt lat="44.50935" lon="0.76472">
        <ele>74.7</ele>
        <time>2018-05-17T00:10:13Z</time>
      </trkpt>
      <trkpt lat="44.50938" lon="0.76472">
        <ele>74.7</ele>
        <time>2018-05-17T00:10:14Z</time>
      </trkpt>
      <trkpt lat="44.50942" lon="0.76473">
        <ele>74.6</ele>
        <time>2018-05-17T00:10:15Z</time>
      </trkpt>
      <trkpt lat="44.50945" lon="0.76474">
        <ele>74.6</ele>
        <time>2018-05-17T00:10:16Z</time>
      </trkpt>
      <trkpt lat="44.50949" lon="0.76475">
        <ele>74.6</ele>
        <time>2018-05-17T00:10:17Z</time>
      </trkpt>
      <trkpt lat="44.50952" lon="0.76476">
        <ele>74.6</ele>
        <time>2018-05-17T00:10:18Z</time>
      </trkpt>
      <trkpt lat="44.50956" lon="0.76477">
        <ele>74.6</ele>
        <time>2018-05-17T00:10:19Z</time>
      </trkpt>
      <trkpt lat="44.5096" lon="0.76478">
        <ele>74.5</ele>
        <time>2018-05-17T00:10:20Z</time>
      </trkpt>
      <trkpt lat="44.50964" lon="0.76479">
        <ele>74.5</ele>
        <time>2018-05-17T00:10:21Z</time>
      </trkpt>
      <trkpt lat="44.50967" lon="0.76479">
        <ele>74.5</ele>
        <time>2018-05-17T00:10:22Z</time>
      </trkpt>
      <trkpt lat="44.50971" lon="0.7648">
        <ele>74.5</ele>
        <time>2018-05-17T00:10:23Z</time>
      </trkpt>
      <trkpt lat="44.50975" lon="0.76481">
        <ele>74.6</ele>
        <time>2018-05-17T00:10:24Z</time>
      </trkpt>
      <trkpt lat="44.50978" lon="0.76482">
        <ele>74.6</ele>
        <time>2018-05-17T00:10:25Z</time>
      </trkpt>
      <trkpt lat="44.50982" lon="0.76483">
        <ele>74.6</ele>
        <time>2018-05-17T00:10:26Z</time>
      </trkpt>
      <trkpt lat="44.50986" lon="0.76484">
        <ele>74.8</ele>
        <time>2018-05-17T00:10:27Z</time>
      </trkpt>
      <trkpt lat="44.5099" lon="0.76485">
        <ele>74.8</ele>
        <time>2018-05-17T00:10:28Z</time>
      </trkpt>
      <trkpt lat="44.50993" lon="0.76486">
        <ele>74.9</ele>
        <time>2018-05-17T00:10:29Z</time>
      </trkpt>
      <trkpt lat="44.50997" lon="0.76487">
        <ele>75</ele>
        <time>2018-05-17T00:10:30Z</time>
      </trkpt>
      <trkpt lat="44.51001" lon="0.76488">
        <ele>75.3</ele>
        <time>2018-05-17T00:10:31Z</time>
      </trkpt>
      <trkpt lat="44.51005" lon="0.76489">
        <ele>75.4</ele>
        <time>2018-05-17T00:10:32Z</time>
      </trkpt>
      <trkpt lat="44.51009" lon="0.7649">
        <ele>75.5</ele>
        <time>2018-05-17T00:10:33Z</time>
      </trkpt>
      <trkpt lat="44.51012" lon="0.76491">
        <ele>75.6</ele>
        <time>2018-05-17T00:10:34Z</time>
      </trkpt>
      <trkpt lat="44.51016" lon="0.76493">
        <ele>76.1</ele>
        <time>2018-05-17T00:10:35Z</time>
      </trkpt>
      <trkpt lat="44.5102" lon="0.76494">
        <ele>76.2</ele>
        <time>2018-05-17T00:10:36Z</time>
      </trkpt>
      <trkpt lat="44.51024" lon="0.76495">
        <ele>76.3</ele>
        <time>2018-05-17T00:10:37Z</time>
      </trkpt>
      <trkpt lat="44.51028" lon="0.76497">
        <ele>76.7</ele>
        <time>2018-05-17T00:10:38Z</time>
      </trkpt>
      <trkpt lat="44.51032" lon="0.76498">
        <ele>76.9</ele>
        <time>2018-05-17T00:10:39Z</time>
      </trkpt>
      <trkpt lat="44.51036" lon="0.76499">
        <ele>76.9</ele>
        <time>2018-05-17T00:10:40Z</time>
      </trkpt>
      <trkpt lat="44.5104" lon="0.765">
        <ele>77</ele>
        <time>2018-05-17T00:10:41Z</time>
      </trkpt>
      <trkpt lat="44.51044" lon="0.76502">
        <ele>77.4</ele>
        <time>2018-05-17T00:10:42Z</time>
      </trkpt>
      <trkpt lat="44.51048" lon="0.76503">
        <ele>77.5</ele>
        <time>2018-05-17T00:10:43Z</time>
      </trkpt>
      <trkpt lat="44.51052" lon="0.76504">
        <ele>77.5</ele>
        <time>2018-05-17T00:10:44Z</time>
      </trkpt>
      <trkpt lat="44.51057" lon="0.76505">
        <ele>77.9</ele>
        <time>2018-05-17T00:10:45Z</time>
      </trkpt>
      <trkpt lat="44.51061" lon="0.76506">
        <ele>77.9</ele>
        <time>2018-05-17T00:10:46Z</time>
      </trkpt>
      <trkpt lat="44.51065" lon="0.76508">
        <ele>77.9</ele>
        <time>2018-05-17T00:10:47Z</time>
      </trkpt>
      <trkpt lat="44.51069" lon="0.76509">
        <ele>77.8</ele>
        <time>2018-05-17T00:10:48Z</time>
      </trkpt>
      <trkpt lat="44.51074" lon="0.76511">
        <ele>78.1</ele>
        <time>2018-05-17T00:10:49Z</time>
      </trkpt>
      <trkpt lat="44.51078" lon="0.76512">
        <ele>78</ele>
        <time>2018-05-17T00:10:50Z</time>
      </trkpt>
      <trkpt lat="44.51082" lon="0.76514">
        <ele>78.3</ele>
        <time>2018-05-17T00:10:51Z</time>
      </trkpt>
      <trkpt lat="44.51086" lon="0.76517">
        <ele>78.2</ele>
        <time>2018-05-17T00:10:52Z</time>
      </trkpt>
      <trkpt lat="44.5109" lon="0.76519">
        <ele>78.4</ele>
        <time>2018-05-17T00:10:53Z</time>
      </trkpt>
      <trkpt lat="44.51093" lon="0.76521">
        <ele>78.3</ele>
        <time>2018-05-17T00:10:54Z</time>
      </trkpt>
      <trkpt lat="44.51097" lon="0.76524">
        <ele>78.5</ele>
        <time>2018-05-17T00:10:55Z</time>
      </trkpt>
      <trkpt lat="44.51101" lon="0.76526">
        <ele>78.4</ele>
        <time>2018-05-17T00:10:56Z</time>
      </trkpt>
      <trkpt lat="44.51105" lon="0.76529">
        <ele>78.6</ele>
        <time>2018-05-17T00:10:57Z</time>
      </trkpt>
      <trkpt lat="44.51109" lon="0.76532">
        <ele>78.8</ele>
        <time>2018-05-17T00:10:58Z</time>
      </trkpt>
      <trkpt lat="44.51112" lon="0.76535">
        <ele>79</ele>
        <time>2018-05-17T00:10:59Z</time>
      </trkpt>
      <trkpt lat="44.51116" lon="0.76538">
        <ele>79</ele>
        <time>2018-05-17T00:11:00Z</time>
      </trkpt>
      <trkpt lat="44.5112" lon="0.76542">
        <ele>79.1</ele>
        <time>2018-05-17T00:11:01Z</time>
      </trkpt>
      <trkpt lat="44.51123" lon="0.76545">
        <ele>79.2</ele>
        <time>2018-05-17T00:11:02Z</time>
      </trkpt>
      <trkpt lat="44.51127" lon="0.76548">
        <ele>79.1</ele>
        <time>2018-05-17T00:11:03Z</time>
      </trkpt>
      <trkpt lat="44.51131" lon="0.76552">
        <ele>79.1</ele>
        <time>2018-05-17T00:11:04Z</time>
      </trkpt>
      <trkpt lat="44.51135" lon="0.76557">
        <ele>79.2</ele>
        <time>2018-05-17T00:11:05Z</time>
      </trkpt>
      <trkpt lat="44.51139" lon="0.76561">
        <ele>79.1</ele>
        <time>2018-05-17T00:11:06Z</time>
      </trkpt>
      <trkpt lat="44.51142" lon="0.76564">
        <ele>79.1</ele>
        <time>2018-05-17T00:11:07Z</time>
      </trkpt>
      <trkpt lat="44.51145" lon="0.76567">
        <ele>79.2</ele>
        <time>2018-05-17T00:11:08Z</time>
      </trkpt>
      <trkpt lat="44.51149" lon="0.76571">
        <ele>79.3</ele>
        <time>2018-05-17T00:11:09Z</time>
      </trkpt>
      <trkpt lat="44.51152" lon="0.76575">
        <ele>79.4</ele>
        <time>2018-05-17T00:11:10Z</time>
      </trkpt>
      <trkpt lat="44.51156" lon="0.76579">
        <ele>79.6</ele>
        <time>2018-05-17T00:11:11Z</time>
      </trkpt>
      <trkpt lat="44.51159" lon="0.76582">
        <ele>79.5</ele>
        <time>2018-05-17T00:11:12Z</time>
      </trkpt>
      <trkpt lat="44.51162" lon="0.76585">
        <ele>79.8</ele>
        <time>2018-05-17T00:11:13Z</time>
      </trkpt>
      <trkpt lat="44.51165" lon="0.76589">
        <ele>80</ele>
        <time>2018-05-17T00:11:14Z</time>
      </trkpt>
      <trkpt lat="44.51168" lon="0.76593">
        <ele>80.2</ele>
        <time>2018-05-17T00:11:15Z</time>
      </trkpt>
      <trkpt lat="44.5117" lon="0.76596">
        <ele>80.4</ele>
        <time>2018-05-17T00:11:16Z</time>
      </trkpt>
      <trkpt lat="44.51173" lon="0.766">
        <ele>80.3</ele>
        <time>2018-05-17T00:11:17Z</time>
      </trkpt>
      <trkpt lat="44.51175" lon="0.76603">
        <ele>80.6</ele>
        <time>2018-05-17T00:11:18Z</time>
      </trkpt>
      <trkpt lat="44.51178" lon="0.76606">
        <ele>80.9</ele>
        <time>2018-05-17T00:11:19Z</time>
      </trkpt>
      <trkpt lat="44.5118" lon="0.76609">
        <ele>81.3</ele>
        <time>2018-05-17T00:11:20Z</time>
      </trkpt>
      <trkpt lat="44.51183" lon="0.76612">
        <ele>81.3</ele>
        <time>2018-05-17T00:11:21Z</time>
      </trkpt>
      <trkpt lat="44.51186" lon="0.76615">
        <ele>81.7</ele>
        <time>2018-05-17T00:11:22Z</time>
      </trkpt>
      <trkpt lat="44.51188" lon="0.76618">
        <ele>82.2</ele>
        <time>2018-05-17T00:11:23Z</time>
      </trkpt>
      <trkpt lat="44.51192" lon="0.76622">
        <ele>82.6</ele>
        <time>2018-05-17T00:11:24Z</time>
      </trkpt>
      <trkpt lat="44.51195" lon="0.76625">
        <ele>82.6</ele>
        <time>2018-05-17T00:11:25Z</time>
      </trkpt>
      <trkpt lat="44.51198" lon="0.76627">
        <ele>83</ele>
        <time>2018-05-17T00:11:26Z</time>
      </trkpt>
      <trkpt lat="44.51202" lon="0.7663">
        <ele>83.5</ele>
        <time>2018-05-17T00:11:27Z</time>
      </trkpt>
      <trkpt lat="44.51206" lon="0.76632">
        <ele>83.7</ele>
        <time>2018-05-17T00:11:28Z</time>
      </trkpt>
      <trkpt lat="44.5121" lon="0.76634">
        <ele>83.7</ele>
        <time>2018-05-17T00:11:29Z</time>
      </trkpt>
      <trkpt lat="44.51214" lon="0.76635">
        <ele>84.2</ele>
        <time>2018-05-17T00:11:30Z</time>
      </trkpt>
      <trkpt lat="44.51219" lon="0.76636">
        <ele>84.3</ele>
        <time>2018-05-17T00:11:31Z</time>
      </trkpt>
      <trkpt lat="44.51223" lon="0.76638">
        <ele>84.3</ele>
        <time>2018-05-17T00:11:32Z</time>
      </trkpt>
      <trkpt lat="44.51227" lon="0.76639">
        <ele>84.9</ele>
        <time>2018-05-17T00:11:33Z</time>
      </trkpt>
      <trkpt lat="44.5123" lon="0.76641">
        <ele>84.9</ele>
        <time>2018-05-17T00:11:34Z</time>
      </trkpt>
      <trkpt lat="44.51234" lon="0.76642">
        <ele>85</ele>
        <time>2018-05-17T00:11:35Z</time>
      </trkpt>
      <trkpt lat="44.51238" lon="0.76643">
        <ele>85.7</ele>
        <time>2018-05-17T00:11:36Z</time>
      </trkpt>
      <trkpt lat="44.51241" lon="0.76644">
        <ele>85.7</ele>
        <time>2018-05-17T00:11:37Z</time>
      </trkpt>
      <trkpt lat="44.51245" lon="0.76644">
        <ele>85.8</ele>
        <time>2018-05-17T00:11:38Z</time>
      </trkpt>
      <trkpt lat="44.51248" lon="0.76645">
        <ele>85.9</ele>
        <time>2018-05-17T00:11:39Z</time>
      </trkpt>
      <trkpt lat="44.51252" lon="0.76644">
        <ele>85.9</ele>
        <time>2018-05-17T00:11:40Z</time>
      </trkpt>
      <trkpt lat="44.51256" lon="0.76648">
        <ele>86.6</ele>
        <time>2018-05-17T00:11:41Z</time>
      </trkpt>
      <trkpt lat="44.51259" lon="0.76648">
        <ele>86.5</ele>
        <time>2018-05-17T00:11:42Z</time>
      </trkpt>
      <trkpt lat="44.51264" lon="0.76652">
        <ele>87.1</ele>
        <time>2018-05-17T00:11:43Z</time>
      </trkpt>
      <trkpt lat="44.5127" lon="0.76652">
        <ele>86.6</ele>
        <time>2018-05-17T00:11:44Z</time>
      </trkpt>
      <trkpt lat="44.51275" lon="0.76654">
        <ele>86.4</ele>
        <time>2018-05-17T00:11:45Z</time>
      </trkpt>
      <trkpt lat="44.5128" lon="0.76659">
        <ele>86.4</ele>
        <time>2018-05-17T00:11:46Z</time>
      </trkpt>
      <trkpt lat="44.51285" lon="0.76662">
        <ele>86.4</ele>
        <time>2018-05-17T00:11:47Z</time>
      </trkpt>
      <trkpt lat="44.5129" lon="0.76665">
        <ele>86.8</ele>
        <time>2018-05-17T00:11:48Z</time>
      </trkpt>
      <trkpt lat="44.51294" lon="0.76669">
        <ele>86.7</ele>
        <time>2018-05-17T00:11:49Z</time>
      </trkpt>
      <trkpt lat="44.51299" lon="0.76672">
        <ele>86.3</ele>
        <time>2018-05-17T00:11:50Z</time>
      </trkpt>
      <trkpt lat="44.51304" lon="0.76675">
        <ele>86</ele>
        <time>2018-05-17T00:11:51Z</time>
      </trkpt>
      <trkpt lat="44.51308" lon="0.76677">
        <ele>86.2</ele>
        <time>2018-05-17T00:11:52Z</time>
      </trkpt>
      <trkpt lat="44.51313" lon="0.7668">
        <ele>85.2</ele>
        <time>2018-05-17T00:11:53Z</time>
      </trkpt>
      <trkpt lat="44.51318" lon="0.76684">
        <ele>85.4</ele>
        <time>2018-05-17T00:11:54Z</time>
      </trkpt>
      <trkpt lat="44.51322" lon="0.76689">
        <ele>85</ele>
        <time>2018-05-17T00:11:55Z</time>
      </trkpt>
      <trkpt lat="44.51327" lon="0.76691">
        <ele>85.2</ele>
        <time>2018-05-17T00:11:56Z</time>
      </trkpt>
      <trkpt lat="44.51332" lon="0.76693">
        <ele>84.1</ele>
        <time>2018-05-17T00:11:57Z</time>
      </trkpt>
      <trkpt lat="44.51337" lon="0.76695">
        <ele>83.8</ele>
        <time>2018-05-17T00:11:58Z</time>
      </trkpt>
      <trkpt lat="44.51342" lon="0.76697">
        <ele>83.3</ele>
        <time>2018-05-17T00:11:59Z</time>
      </trkpt>
      <trkpt lat="44.51347" lon="0.76699">
        <ele>83</ele>
        <time>2018-05-17T00:12:00Z</time>
      </trkpt>
      <trkpt lat="44.51352" lon="0.76701">
        <ele>82.2</ele>
        <time>2018-05-17T00:12:01Z</time>
      </trkpt>
      <trkpt lat="44.51358" lon="0.76703">
        <ele>82.4</ele>
        <time>2018-05-17T00:12:02Z</time>
      </trkpt>
      <trkpt lat="44.51363" lon="0.76705">
        <ele>81.7</ele>
        <time>2018-05-17T00:12:03Z</time>
      </trkpt>
      <trkpt lat="44.51368" lon="0.76707">
        <ele>81.5</ele>
        <time>2018-05-17T00:12:04Z</time>
      </trkpt>
      <trkpt lat="44.51373" lon="0.76709">
        <ele>81.3</ele>
        <time>2018-05-17T00:12:05Z</time>
      </trkpt>
      <trkpt lat="44.51378" lon="0.76711">
        <ele>81.2</ele>
        <time>2018-05-17T00:12:06Z</time>
      </trkpt>
      <trkpt lat="44.51384" lon="0.76714">
        <ele>80.8</ele>
        <time>2018-05-17T00:12:07Z</time>
      </trkpt>
      <trkpt lat="44.51389" lon="0.76716">
        <ele>80.8</ele>
        <time>2018-05-17T00:12:08Z</time>
      </trkpt>
      <trkpt lat="44.51394" lon="0.76718">
        <ele>80.5</ele>
        <time>2018-05-17T00:12:09Z</time>
      </trkpt>
      <trkpt lat="44.51399" lon="0.7672">
        <ele>80.5</ele>
        <time>2018-05-17T00:12:10Z</time>
      </trkpt>
      <trkpt lat="44.51404" lon="0.76722">
        <ele>80.4</ele>
        <time>2018-05-17T00:12:11Z</time>
      </trkpt>
      <trkpt lat="44.5141" lon="0.76725">
        <ele>80.4</ele>
        <time>2018-05-17T00:12:12Z</time>
      </trkpt>
      <trkpt lat="44.51415" lon="0.76727">
        <ele>80.2</ele>
        <time>2018-05-17T00:12:13Z</time>
      </trkpt>
      <trkpt lat="44.5142" lon="0.76729">
        <ele>80.2</ele>
        <time>2018-05-17T00:12:14Z</time>
      </trkpt>
      <trkpt lat="44.51425" lon="0.76731">
        <ele>80.1</ele>
        <time>2018-05-17T00:12:15Z</time>
      </trkpt>
      <trkpt lat="44.5143" lon="0.76734">
        <ele>80.2</ele>
        <time>2018-05-17T00:12:16Z</time>
      </trkpt>
      <trkpt lat="44.51435" lon="0.76736">
        <ele>80.1</ele>
        <time>2018-05-17T00:12:17Z</time>
      </trkpt>
      <trkpt lat="44.5144" lon="0.76738">
        <ele>80.2</ele>
        <time>2018-05-17T00:12:18Z</time>
      </trkpt>
      <trkpt lat="44.51444" lon="0.7674">
        <ele>80.2</ele>
        <time>2018-05-17T00:12:19Z</time>
      </trkpt>
      <trkpt lat="44.51449" lon="0.76741">
        <ele>80.2</ele>
        <time>2018-05-17T00:12:20Z</time>
      </trkpt>
      <trkpt lat="44.51453" lon="0.76743">
        <ele>80.4</ele>
        <time>2018-05-17T00:12:21Z</time>
      </trkpt>
      <trkpt lat="44.51457" lon="0.76745">
        <ele>80.4</ele>
        <time>2018-05-17T00:12:22Z</time>
      </trkpt>
      <trkpt lat="44.51461" lon="0.76748">
        <ele>80.6</ele>
        <time>2018-05-17T00:12:23Z</time>
      </trkpt>
      <trkpt lat="44.51463" lon="0.76753">
        <ele>80.8</ele>
        <time>2018-05-17T00:12:24Z</time>
      </trkpt>
      <trkpt lat="44.51465" lon="0.76758">
        <ele>81</ele>
        <time>2018-05-17T00:12:25Z</time>
      </trkpt>
      <trkpt lat="44.51466" lon="0.76763">
        <ele>81.2</ele>
        <time>2018-05-17T00:12:26Z</time>
      </trkpt>
      <trkpt lat="44.51466" lon="0.76766">
        <ele>81.5</ele>
        <time>2018-05-17T00:12:27Z</time>
      </trkpt>
      <trkpt lat="44.51466" lon="0.76771">
        <ele>81.7</ele>
        <time>2018-05-17T00:12:28Z</time>
      </trkpt>
      <trkpt lat="44.51466" lon="0.76775">
        <ele>81.9</ele>
        <time>2018-05-17T00:12:29Z</time>
      </trkpt>
      <trkpt lat="44.51465" lon="0.7678">
        <ele>82.2</ele>
        <time>2018-05-17T00:12:30Z</time>
      </trkpt>
      <trkpt lat="44.51464" lon="0.76784">
        <ele>82.4</ele>
        <time>2018-05-17T00:12:31Z</time>
      </trkpt>
      <trkpt lat="44.51463" lon="0.76787">
        <ele>82.7</ele>
        <time>2018-05-17T00:12:32Z</time>
      </trkpt>
      <trkpt lat="44.5146" lon="0.76793">
        <ele>83.3</ele>
        <time>2018-05-17T00:12:34Z</time>
      </trkpt>
      <trkpt lat="44.51458" lon="0.76799">
        <ele>83.7</ele>
        <time>2018-05-17T00:12:36Z</time>
      </trkpt>
      <trkpt lat="44.51455" lon="0.76804">
        <ele>84</ele>
        <time>2018-05-17T00:12:38Z</time>
      </trkpt>
      <trkpt lat="44.51453" lon="0.7681">
        <ele>84.4</ele>
        <time>2018-05-17T00:12:40Z</time>
      </trkpt>
      <trkpt lat="44.51451" lon="0.76817">
        <ele>85</ele>
        <time>2018-05-17T00:12:42Z</time>
      </trkpt>
      <trkpt lat="44.51447" lon="0.76823">
        <ele>85.3</ele>
        <time>2018-05-17T00:12:44Z</time>
      </trkpt>
      <trkpt lat="44.51445" lon="0.76826">
        <ele>85.6</ele>
        <time>2018-05-17T00:12:45Z</time>
      </trkpt>
      <trkpt lat="44.51443" lon="0.76829">
        <ele>85.8</ele>
        <time>2018-05-17T00:12:46Z</time>
      </trkpt>
      <trkpt lat="44.51442" lon="0.76833">
        <ele>86.1</ele>
        <time>2018-05-17T00:12:47Z</time>
      </trkpt>
      <trkpt lat="44.51441" lon="0.76837">
        <ele>86.4</ele>
        <time>2018-05-17T00:12:48Z</time>
      </trkpt>
      <trkpt lat="44.5144" lon="0.76841">
        <ele>86.6</ele>
        <time>2018-05-17T00:12:49Z</time>
      </trkpt>
      <trkpt lat="44.51439" lon="0.76844">
        <ele>86.9</ele>
        <time>2018-05-17T00:12:50Z</time>
      </trkpt>
      <trkpt lat="44.51438" lon="0.76848">
        <ele>86.9</ele>
        <time>2018-05-17T00:12:51Z</time>
      </trkpt>
      <trkpt lat="44.51436" lon="0.76851">
        <ele>87.1</ele>
        <time>2018-05-17T00:12:52Z</time>
      </trkpt>
      <trkpt lat="44.51434" lon="0.76855">
        <ele>87.4</ele>
        <time>2018-05-17T00:12:53Z</time>
      </trkpt>
      <trkpt lat="44.51433" lon="0.76858">
        <ele>87.6</ele>
        <time>2018-05-17T00:12:54Z</time>
      </trkpt>
      <trkpt lat="44.51431" lon="0.76862">
        <ele>87.9</ele>
        <time>2018-05-17T00:12:55Z</time>
      </trkpt>
      <trkpt lat="44.51429" lon="0.76866">
        <ele>88.2</ele>
        <time>2018-05-17T00:12:56Z</time>
      </trkpt>
      <trkpt lat="44.51428" lon="0.7687">
        <ele>88.6</ele>
        <time>2018-05-17T00:12:57Z</time>
      </trkpt>
      <trkpt lat="44.51427" lon="0.76874">
        <ele>88.9</ele>
        <time>2018-05-17T00:12:58Z</time>
      </trkpt>
      <trkpt lat="44.51425" lon="0.76878">
        <ele>88.9</ele>
        <time>2018-05-17T00:12:59Z</time>
      </trkpt>
      <trkpt lat="44.51424" lon="0.76882">
        <ele>89.2</ele>
        <time>2018-05-17T00:13:00Z</time>
      </trkpt>
      <trkpt lat="44.51422" lon="0.76885">
        <ele>89.6</ele>
        <time>2018-05-17T00:13:01Z</time>
      </trkpt>
      <trkpt lat="44.5142" lon="0.76889">
        <ele>90</ele>
        <time>2018-05-17T00:13:02Z</time>
      </trkpt>
      <trkpt lat="44.51418" lon="0.76893">
        <ele>90.3</ele>
        <time>2018-05-17T00:13:03Z</time>
      </trkpt>
      <trkpt lat="44.51417" lon="0.76897">
        <ele>90.7</ele>
        <time>2018-05-17T00:13:04Z</time>
      </trkpt>
      <trkpt lat="44.51416" lon="0.76901">
        <ele>91</ele>
        <time>2018-05-17T00:13:05Z</time>
      </trkpt>
      <trkpt lat="44.51415" lon="0.76904">
        <ele>91</ele>
        <time>2018-05-17T00:13:06Z</time>
      </trkpt>
      <trkpt lat="44.51413" lon="0.76907">
        <ele>91.6</ele>
        <time>2018-05-17T00:13:07Z</time>
      </trkpt>
      <trkpt lat="44.51411" lon="0.76911">
        <ele>91.9</ele>
        <time>2018-05-17T00:13:08Z</time>
      </trkpt>
      <trkpt lat="44.51409" lon="0.76914">
        <ele>92.2</ele>
        <time>2018-05-17T00:13:09Z</time>
      </trkpt>
      <trkpt lat="44.51406" lon="0.7692">
        <ele>92.6</ele>
        <time>2018-05-17T00:13:11Z</time>
      </trkpt>
      <trkpt lat="44.51404" lon="0.76923">
        <ele>92.9</ele>
        <time>2018-05-17T00:13:12Z</time>
      </trkpt>
      <trkpt lat="44.51403" lon="0.76926">
        <ele>93.2</ele>
        <time>2018-05-17T00:13:13Z</time>
      </trkpt>
      <trkpt lat="44.51402" lon="0.7693">
        <ele>93.3</ele>
        <time>2018-05-17T00:13:14Z</time>
      </trkpt>
      <trkpt lat="44.514" lon="0.76934">
        <ele>93.6</ele>
        <time>2018-05-17T00:13:15Z</time>
      </trkpt>
      <trkpt lat="44.51398" lon="0.76941">
        <ele>94.1</ele>
        <time>2018-05-17T00:13:17Z</time>
      </trkpt>
      <trkpt lat="44.51396" lon="0.76944">
        <ele>94.3</ele>
        <time>2018-05-17T00:13:18Z</time>
      </trkpt>
      <trkpt lat="44.51395" lon="0.76948">
        <ele>94.5</ele>
        <time>2018-05-17T00:13:19Z</time>
      </trkpt>
      <trkpt lat="44.51394" lon="0.76952">
        <ele>94.7</ele>
        <time>2018-05-17T00:13:20Z</time>
      </trkpt>
      <trkpt lat="44.51392" lon="0.76956">
        <ele>94.9</ele>
        <time>2018-05-17T00:13:21Z</time>
      </trkpt>
      <trkpt lat="44.51391" lon="0.7696">
        <ele>94.9</ele>
        <time>2018-05-17T00:13:22Z</time>
      </trkpt>
      <trkpt lat="44.51389" lon="0.76964">
        <ele>95.1</ele>
        <time>2018-05-17T00:13:23Z</time>
      </trkpt>
      <trkpt lat="44.51387" lon="0.76968">
        <ele>95.3</ele>
        <time>2018-05-17T00:13:24Z</time>
      </trkpt>
      <trkpt lat="44.51386" lon="0.76972">
        <ele>95.5</ele>
        <time>2018-05-17T00:13:25Z</time>
      </trkpt>
      <trkpt lat="44.51385" lon="0.76976">
        <ele>95.7</ele>
        <time>2018-05-17T00:13:26Z</time>
      </trkpt>
      <trkpt lat="44.51384" lon="0.7698">
        <ele>95.9</ele>
        <time>2018-05-17T00:13:27Z</time>
      </trkpt>
      <trkpt lat="44.51382" lon="0.76984">
        <ele>96.1</ele>
        <time>2018-05-17T00:13:28Z</time>
      </trkpt>
      <trkpt lat="44.51381" lon="0.76989">
        <ele>96.2</ele>
        <time>2018-05-17T00:13:29Z</time>
      </trkpt>
      <trkpt lat="44.5138" lon="0.76994">
        <ele>96.3</ele>
        <time>2018-05-17T00:13:30Z</time>
      </trkpt>
      <trkpt lat="44.5138" lon="0.76998">
        <ele>96.5</ele>
        <time>2018-05-17T00:13:31Z</time>
      </trkpt>
      <trkpt lat="44.5138" lon="0.77004">
        <ele>96.7</ele>
        <time>2018-05-17T00:13:32Z</time>
      </trkpt>
      <trkpt lat="44.5138" lon="0.77008">
        <ele>96.8</ele>
        <time>2018-05-17T00:13:33Z</time>
      </trkpt>
      <trkpt lat="44.5138" lon="0.77013">
        <ele>96.9</ele>
        <time>2018-05-17T00:13:34Z</time>
      </trkpt>
      <trkpt lat="44.5138" lon="0.77017">
        <ele>97</ele>
        <time>2018-05-17T00:13:35Z</time>
      </trkpt>
      <trkpt lat="44.5138" lon="0.77021">
        <ele>97.1</ele>
        <time>2018-05-17T00:13:36Z</time>
      </trkpt>
      <trkpt lat="44.51379" lon="0.77026">
        <ele>97.2</ele>
        <time>2018-05-17T00:13:37Z</time>
      </trkpt>
      <trkpt lat="44.51379" lon="0.7703">
        <ele>97.3</ele>
        <time>2018-05-17T00:13:38Z</time>
      </trkpt>
      <trkpt lat="44.51378" lon="0.77034">
        <ele>97.3</ele>
        <time>2018-05-17T00:13:39Z</time>
      </trkpt>
      <trkpt lat="44.51377" lon="0.7704">
        <ele>97.4</ele>
        <time>2018-05-17T00:13:40Z</time>
      </trkpt>
      <trkpt lat="44.51377" lon="0.77044">
        <ele>97.4</ele>
        <time>2018-05-17T00:13:41Z</time>
      </trkpt>
      <trkpt lat="44.51375" lon="0.77048">
        <ele>97.4</ele>
        <time>2018-05-17T00:13:42Z</time>
      </trkpt>
      <trkpt lat="44.51374" lon="0.77057">
        <ele>97.5</ele>
        <time>2018-05-17T00:13:44Z</time>
      </trkpt>
      <trkpt lat="44.51372" lon="0.77062">
        <ele>97.5</ele>
        <time>2018-05-17T00:13:45Z</time>
      </trkpt>
      <trkpt lat="44.51371" lon="0.77066">
        <ele>97.6</ele>
        <time>2018-05-17T00:13:46Z</time>
      </trkpt>
      <trkpt lat="44.5137" lon="0.7707">
        <ele>97.6</ele>
        <time>2018-05-17T00:13:47Z</time>
      </trkpt>
      <trkpt lat="44.51369" lon="0.77075">
        <ele>97.7</ele>
        <time>2018-05-17T00:13:48Z</time>
      </trkpt>
      <trkpt lat="44.51368" lon="0.77079">
        <ele>97.7</ele>
        <time>2018-05-17T00:13:49Z</time>
      </trkpt>
      <trkpt lat="44.51366" lon="0.77083">
        <ele>97.8</ele>
        <time>2018-05-17T00:13:50Z</time>
      </trkpt>
      <trkpt lat="44.51365" lon="0.77087">
        <ele>98</ele>
        <time>2018-05-17T00:13:51Z</time>
      </trkpt>
      <trkpt lat="44.51365" lon="0.77091">
        <ele>98</ele>
        <time>2018-05-17T00:13:52Z</time>
      </trkpt>
      <trkpt lat="44.51364" lon="0.77095">
        <ele>98.1</ele>
        <time>2018-05-17T00:13:53Z</time>
      </trkpt>
      <trkpt lat="44.51364" lon="0.771">
        <ele>98.3</ele>
        <time>2018-05-17T00:13:54Z</time>
      </trkpt>
      <trkpt lat="44.51365" lon="0.77105">
        <ele>98.6</ele>
        <time>2018-05-17T00:13:55Z</time>
      </trkpt>
      <trkpt lat="44.51365" lon="0.7711">
        <ele>98.7</ele>
        <time>2018-05-17T00:13:56Z</time>
      </trkpt>
      <trkpt lat="44.51366" lon="0.77114">
        <ele>98.9</ele>
        <time>2018-05-17T00:13:57Z</time>
      </trkpt>
      <trkpt lat="44.51366" lon="0.77119">
        <ele>99.3</ele>
        <time>2018-05-17T00:13:58Z</time>
      </trkpt>
      <trkpt lat="44.51366" lon="0.77123">
        <ele>99.3</ele>
        <time>2018-05-17T00:13:59Z</time>
      </trkpt>
      <trkpt lat="44.51366" lon="0.77127">
        <ele>99.4</ele>
        <time>2018-05-17T00:14:00Z</time>
      </trkpt>
      <trkpt lat="44.51366" lon="0.77131">
        <ele>99.6</ele>
        <time>2018-05-17T00:14:01Z</time>
      </trkpt>
      <trkpt lat="44.51365" lon="0.77138">
        <ele>99.9</ele>
        <time>2018-05-17T00:14:03Z</time>
      </trkpt>
      <trkpt lat="44.51365" lon="0.77142">
        <ele>100.1</ele>
        <time>2018-05-17T00:14:04Z</time>
      </trkpt>
      <trkpt lat="44.51365" lon="0.77146">
        <ele>100.2</ele>
        <time>2018-05-17T00:14:05Z</time>
      </trkpt>
      <trkpt lat="44.51364" lon="0.77154">
        <ele>100.4</ele>
        <time>2018-05-17T00:14:07Z</time>
      </trkpt>
      <trkpt lat="44.51363" lon="0.77161">
        <ele>100.5</ele>
        <time>2018-05-17T00:14:09Z</time>
      </trkpt>
      <trkpt lat="44.51362" lon="0.77167">
        <ele>100.8</ele>
        <time>2018-05-17T00:14:10Z</time>
      </trkpt>
      <trkpt lat="44.51361" lon="0.77171">
        <ele>100.8</ele>
        <time>2018-05-17T00:14:11Z</time>
      </trkpt>
      <trkpt lat="44.5136" lon="0.77176">
        <ele>100.8</ele>
        <time>2018-05-17T00:14:12Z</time>
      </trkpt>
      <trkpt lat="44.51359" lon="0.77182">
        <ele>100.9</ele>
        <time>2018-05-17T00:14:13Z</time>
      </trkpt>
      <trkpt lat="44.51358" lon="0.77188">
        <ele>100.9</ele>
        <time>2018-05-17T00:14:14Z</time>
      </trkpt>
      <trkpt lat="44.51358" lon="0.77192">
        <ele>101</ele>
        <time>2018-05-17T00:14:15Z</time>
      </trkpt>
      <trkpt lat="44.51357" lon="0.77197">
        <ele>101.1</ele>
        <time>2018-05-17T00:14:16Z</time>
      </trkpt>
      <trkpt lat="44.51357" lon="0.77202">
        <ele>101.1</ele>
        <time>2018-05-17T00:14:17Z</time>
      </trkpt>
      <trkpt lat="44.51356" lon="0.77207">
        <ele>101.2</ele>
        <time>2018-05-17T00:14:18Z</time>
      </trkpt>
      <trkpt lat="44.51355" lon="0.77215">
        <ele>101.3</ele>
        <time>2018-05-17T00:14:20Z</time>
      </trkpt>
      <trkpt lat="44.51355" lon="0.77221">
        <ele>101.3</ele>
        <time>2018-05-17T00:14:21Z</time>
      </trkpt>
      <trkpt lat="44.51354" lon="0.77225">
        <ele>101.4</ele>
        <time>2018-05-17T00:14:22Z</time>
      </trkpt>
      <trkpt lat="44.51354" lon="0.77229">
        <ele>101.5</ele>
        <time>2018-05-17T00:14:23Z</time>
      </trkpt>
      <trkpt lat="44.51353" lon="0.77234">
        <ele>101.5</ele>
        <time>2018-05-17T00:14:24Z</time>
      </trkpt>
      <trkpt lat="44.51352" lon="0.77241">
        <ele>101.6</ele>
        <time>2018-05-17T00:14:26Z</time>
      </trkpt>
      <trkpt lat="44.5135" lon="0.77246">
        <ele>101.7</ele>
        <time>2018-05-17T00:14:27Z</time>
      </trkpt>
      <trkpt lat="44.5135" lon="0.77251">
        <ele>101.8</ele>
        <time>2018-05-17T00:14:28Z</time>
      </trkpt>
      <trkpt lat="44.51349" lon="0.77257">
        <ele>101.9</ele>
        <time>2018-05-17T00:14:29Z</time>
      </trkpt>
      <trkpt lat="44.51349" lon="0.77262">
        <ele>101.9</ele>
        <time>2018-05-17T00:14:30Z</time>
      </trkpt>
      <trkpt lat="44.51349" lon="0.77267">
        <ele>102</ele>
        <time>2018-05-17T00:14:31Z</time>
      </trkpt>
      <trkpt lat="44.51347" lon="0.77271">
        <ele>102.1</ele>
        <time>2018-05-17T00:14:32Z</time>
      </trkpt>
      <trkpt lat="44.51346" lon="0.77275">
        <ele>102.1</ele>
        <time>2018-05-17T00:14:33Z</time>
      </trkpt>
      <trkpt lat="44.51345" lon="0.77279">
        <ele>102.2</ele>
        <time>2018-05-17T00:14:34Z</time>
      </trkpt>
      <trkpt lat="44.51345" lon="0.77285">
        <ele>102.2</ele>
        <time>2018-05-17T00:14:35Z</time>
      </trkpt>
      <trkpt lat="44.51344" lon="0.7729">
        <ele>102.3</ele>
        <time>2018-05-17T00:14:36Z</time>
      </trkpt>
      <trkpt lat="44.51344" lon="0.77294">
        <ele>102.3</ele>
        <time>2018-05-17T00:14:37Z</time>
      </trkpt>
      <trkpt lat="44.51343" lon="0.77298">
        <ele>102.4</ele>
        <time>2018-05-17T00:14:38Z</time>
      </trkpt>
      <trkpt lat="44.51343" lon="0.77303">
        <ele>102.4</ele>
        <time>2018-05-17T00:14:39Z</time>
      </trkpt>
      <trkpt lat="44.51342" lon="0.77308">
        <ele>102.5</ele>
        <time>2018-05-17T00:14:40Z</time>
      </trkpt>
      <trkpt lat="44.51341" lon="0.77313">
        <ele>102.5</ele>
        <time>2018-05-17T00:14:41Z</time>
      </trkpt>
      <trkpt lat="44.5134" lon="0.77317">
        <ele>102.6</ele>
        <time>2018-05-17T00:14:42Z</time>
      </trkpt>
      <trkpt lat="44.51339" lon="0.77322">
        <ele>102.6</ele>
        <time>2018-05-17T00:14:43Z</time>
      </trkpt>
      <trkpt lat="44.51338" lon="0.77327">
        <ele>102.7</ele>
        <time>2018-05-17T00:14:44Z</time>
      </trkpt>
      <trkpt lat="44.51337" lon="0.77332">
        <ele>102.7</ele>
        <time>2018-05-17T00:14:45Z</time>
      </trkpt>
      <trkpt lat="44.51336" lon="0.77336">
        <ele>102.8</ele>
        <time>2018-05-17T00:14:46Z</time>
      </trkpt>
      <trkpt lat="44.51334" lon="0.77341">
        <ele>102.9</ele>
        <time>2018-05-17T00:14:47Z</time>
      </trkpt>
      <trkpt lat="44.51333" lon="0.77345">
        <ele>103</ele>
        <time>2018-05-17T00:14:48Z</time>
      </trkpt>
      <trkpt lat="44.51332" lon="0.77349">
        <ele>103.1</ele>
        <time>2018-05-17T00:14:49Z</time>
      </trkpt>
      <trkpt lat="44.5133" lon="0.77354">
        <ele>103.3</ele>
        <time>2018-05-17T00:14:50Z</time>
      </trkpt>
      <trkpt lat="44.51329" lon="0.77358">
        <ele>103.4</ele>
        <time>2018-05-17T00:14:51Z</time>
      </trkpt>
      <trkpt lat="44.51328" lon="0.77363">
        <ele>103.5</ele>
        <time>2018-05-17T00:14:52Z</time>
      </trkpt>
      <trkpt lat="44.51327" lon="0.77367">
        <ele>103.6</ele>
        <time>2018-05-17T00:14:53Z</time>
      </trkpt>
      <trkpt lat="44.51326" lon="0.77371">
        <ele>103.7</ele>
        <time>2018-05-17T00:14:54Z</time>
      </trkpt>
      <trkpt lat="44.51325" lon="0.77376">
        <ele>103.9</ele>
        <time>2018-05-17T00:14:55Z</time>
      </trkpt>
      <trkpt lat="44.51323" lon="0.7738">
        <ele>104</ele>
        <time>2018-05-17T00:14:56Z</time>
      </trkpt>
      <trkpt lat="44.51322" lon="0.77384">
        <ele>104.1</ele>
        <time>2018-05-17T00:14:57Z</time>
      </trkpt>
      <trkpt lat="44.51321" lon="0.77389">
        <ele>104.2</ele>
        <time>2018-05-17T00:14:58Z</time>
      </trkpt>
      <trkpt lat="44.51319" lon="0.77392">
        <ele>104.3</ele>
        <time>2018-05-17T00:14:59Z</time>
      </trkpt>
      <trkpt lat="44.51317" lon="0.77398">
        <ele>104.4</ele>
        <time>2018-05-17T00:15:01Z</time>
      </trkpt>
      <trkpt lat="44.51317" lon="0.77402">
        <ele>104.5</ele>
        <time>2018-05-17T00:15:02Z</time>
      </trkpt>
      <trkpt lat="44.51316" lon="0.77407">
        <ele>104.6</ele>
        <time>2018-05-17T00:15:03Z</time>
      </trkpt>
      <trkpt lat="44.51315" lon="0.77412">
        <ele>104.7</ele>
        <time>2018-05-17T00:15:04Z</time>
      </trkpt>
      <trkpt lat="44.51315" lon="0.77417">
        <ele>104.8</ele>
        <time>2018-05-17T00:15:05Z</time>
      </trkpt>
      <trkpt lat="44.51315" lon="0.77421">
        <ele>104.9</ele>
        <time>2018-05-17T00:15:06Z</time>
      </trkpt>
      <trkpt lat="44.51315" lon="0.77426">
        <ele>104.9</ele>
        <time>2018-05-17T00:15:07Z</time>
      </trkpt>
      <trkpt lat="44.51314" lon="0.77429">
        <ele>104.9</ele>
        <time>2018-05-17T00:15:08Z</time>
      </trkpt>
      <trkpt lat="44.51311" lon="0.77436">
        <ele>105</ele>
        <time>2018-05-17T00:15:10Z</time>
      </trkpt>
      <trkpt lat="44.51309" lon="0.77437">
        <ele>105</ele>
        <time>2018-05-17T00:15:11Z</time>
      </trkpt>
      <trkpt lat="44.51305" lon="0.77438">
        <ele>105.1</ele>
        <time>2018-05-17T00:15:12Z</time>
      </trkpt>
      <trkpt lat="44.51302" lon="0.7744">
        <ele>105.1</ele>
        <time>2018-05-17T00:15:13Z</time>
      </trkpt>
      <trkpt lat="44.51298" lon="0.7744">
        <ele>105.1</ele>
        <time>2018-05-17T00:15:14Z</time>
      </trkpt>
      <trkpt lat="44.51295" lon="0.77441">
        <ele>105.2</ele>
        <time>2018-05-17T00:15:15Z</time>
      </trkpt>
      <trkpt lat="44.51291" lon="0.77441">
        <ele>105.2</ele>
        <time>2018-05-17T00:15:16Z</time>
      </trkpt>
      <trkpt lat="44.51288" lon="0.77442">
        <ele>105.2</ele>
        <time>2018-05-17T00:15:17Z</time>
      </trkpt>
      <trkpt lat="44.51284" lon="0.77443">
        <ele>105.3</ele>
        <time>2018-05-17T00:15:18Z</time>
      </trkpt>
      <trkpt lat="44.51281" lon="0.77445">
        <ele>105.3</ele>
        <time>2018-05-17T00:15:19Z</time>
      </trkpt>
      <trkpt lat="44.51278" lon="0.77448">
        <ele>105.4</ele>
        <time>2018-05-17T00:15:20Z</time>
      </trkpt>
      <trkpt lat="44.51277" lon="0.77454">
        <ele>105.4</ele>
        <time>2018-05-17T00:15:21Z</time>
      </trkpt>
      <trkpt lat="44.51277" lon="0.7746">
        <ele>105.3</ele>
        <time>2018-05-17T00:15:22Z</time>
      </trkpt>
      <trkpt lat="44.51278" lon="0.77465">
        <ele>105.2</ele>
        <time>2018-05-17T00:15:23Z</time>
      </trkpt>
      <trkpt lat="44.5128" lon="0.77471">
        <ele>105.1</ele>
        <time>2018-05-17T00:15:24Z</time>
      </trkpt>
      <trkpt lat="44.51281" lon="0.77476">
        <ele>104.9</ele>
        <time>2018-05-17T00:15:25Z</time>
      </trkpt>
      <trkpt lat="44.51283" lon="0.77481">
        <ele>104.8</ele>
        <time>2018-05-17T00:15:26Z</time>
      </trkpt>
      <trkpt lat="44.51284" lon="0.77486">
        <ele>104.7</ele>
        <time>2018-05-17T00:15:27Z</time>
      </trkpt>
      <trkpt lat="44.51286" lon="0.77491">
        <ele>104.6</ele>
        <time>2018-05-17T00:15:28Z</time>
      </trkpt>
      <trkpt lat="44.51288" lon="0.77496">
        <ele>104.5</ele>
        <time>2018-05-17T00:15:29Z</time>
      </trkpt>
      <trkpt lat="44.5129" lon="0.77501">
        <ele>104.4</ele>
        <time>2018-05-17T00:15:30Z</time>
      </trkpt>
      <trkpt lat="44.51291" lon="0.77506">
        <ele>104.4</ele>
        <time>2018-05-17T00:15:31Z</time>
      </trkpt>
      <trkpt lat="44.51292" lon="0.77511">
        <ele>104.3</ele>
        <time>2018-05-17T00:15:32Z</time>
      </trkpt>
      <trkpt lat="44.51293" lon="0.77516">
        <ele>104.3</ele>
        <time>2018-05-17T00:15:33Z</time>
      </trkpt>
      <trkpt lat="44.51294" lon="0.77521">
        <ele>104.3</ele>
        <time>2018-05-17T00:15:34Z</time>
      </trkpt>
      <trkpt lat="44.51296" lon="0.77526">
        <ele>104.2</ele>
        <time>2018-05-17T00:15:35Z</time>
      </trkpt>
      <trkpt lat="44.51297" lon="0.77531">
        <ele>104.2</ele>
        <time>2018-05-17T00:15:36Z</time>
      </trkpt>
      <trkpt lat="44.51298" lon="0.77536">
        <ele>104.2</ele>
        <time>2018-05-17T00:15:37Z</time>
      </trkpt>
      <trkpt lat="44.513" lon="0.7754">
        <ele>104.2</ele>
        <time>2018-05-17T00:15:38Z</time>
      </trkpt>
      <trkpt lat="44.51301" lon="0.77544">
        <ele>104.2</ele>
        <time>2018-05-17T00:15:39Z</time>
      </trkpt>
      <trkpt lat="44.51302" lon="0.77548">
        <ele>104.3</ele>
        <time>2018-05-17T00:15:40Z</time>
      </trkpt>
      <trkpt lat="44.51303" lon="0.77553">
        <ele>104.3</ele>
        <time>2018-05-17T00:15:41Z</time>
      </trkpt>
      <trkpt lat="44.51304" lon="0.77558">
        <ele>104.3</ele>
        <time>2018-05-17T00:15:42Z</time>
      </trkpt>
      <trkpt lat="44.51305" lon="0.77561">
        <ele>104.3</ele>
        <time>2018-05-17T00:15:43Z</time>
      </trkpt>
      <trkpt lat="44.51306" lon="0.77565">
        <ele>104.4</ele>
        <time>2018-05-17T00:15:44Z</time>
      </trkpt>
      <trkpt lat="44.51306" lon="0.77571">
        <ele>104.4</ele>
        <time>2018-05-17T00:15:46Z</time>
      </trkpt>
      <trkpt lat="44.51309" lon="0.77576">
        <ele>104.5</ele>
        <time>2018-05-17T00:15:48Z</time>
      </trkpt>
      <trkpt lat="44.5131" lon="0.77579">
        <ele>104.6</ele>
        <time>2018-05-17T00:15:49Z</time>
      </trkpt>
      <trkpt lat="44.51313" lon="0.77584">
        <ele>104.7</ele>
        <time>2018-05-17T00:15:50Z</time>
      </trkpt>
      <trkpt lat="44.51314" lon="0.77588">
        <ele>104.7</ele>
        <time>2018-05-17T00:15:51Z</time>
      </trkpt>
      <trkpt lat="44.51316" lon="0.77592">
        <ele>104.8</ele>
        <time>2018-05-17T00:15:52Z</time>
      </trkpt>
      <trkpt lat="44.51317" lon="0.77596">
        <ele>104.8</ele>
        <time>2018-05-17T00:15:53Z</time>
      </trkpt>
      <trkpt lat="44.51318" lon="0.77601">
        <ele>104.9</ele>
        <time>2018-05-17T00:15:54Z</time>
      </trkpt>
      <trkpt lat="44.5132" lon="0.77605">
        <ele>105</ele>
        <time>2018-05-17T00:15:55Z</time>
      </trkpt>
      <trkpt lat="44.51321" lon="0.77609">
        <ele>105</ele>
        <time>2018-05-17T00:15:56Z</time>
      </trkpt>
      <trkpt lat="44.51323" lon="0.77614">
        <ele>105.1</ele>
        <time>2018-05-17T00:15:57Z</time>
      </trkpt>
      <trkpt lat="44.51325" lon="0.77618">
        <ele>105.1</ele>
        <time>2018-05-17T00:15:58Z</time>
      </trkpt>
      <trkpt lat="44.51327" lon="0.77623">
        <ele>105.2</ele>
        <time>2018-05-17T00:15:59Z</time>
      </trkpt>
      <trkpt lat="44.51328" lon="0.77627">
        <ele>105.3</ele>
        <time>2018-05-17T00:16:00Z</time>
      </trkpt>
      <trkpt lat="44.5133" lon="0.77632">
        <ele>105.3</ele>
        <time>2018-05-17T00:16:01Z</time>
      </trkpt>
      <trkpt lat="44.51332" lon="0.77636">
        <ele>105.4</ele>
        <time>2018-05-17T00:16:02Z</time>
      </trkpt>
      <trkpt lat="44.51335" lon="0.77641">
        <ele>105.4</ele>
        <time>2018-05-17T00:16:03Z</time>
      </trkpt>
      <trkpt lat="44.51337" lon="0.77645">
        <ele>105.5</ele>
        <time>2018-05-17T00:16:04Z</time>
      </trkpt>
      <trkpt lat="44.51339" lon="0.7765">
        <ele>105.5</ele>
        <time>2018-05-17T00:16:05Z</time>
      </trkpt>
      <trkpt lat="44.51341" lon="0.77655">
        <ele>105.6</ele>
        <time>2018-05-17T00:16:06Z</time>
      </trkpt>
      <trkpt lat="44.51344" lon="0.77659">
        <ele>105.7</ele>
        <time>2018-05-17T00:16:07Z</time>
      </trkpt>
      <trkpt lat="44.51347" lon="0.77663">
        <ele>105.7</ele>
        <time>2018-05-17T00:16:08Z</time>
      </trkpt>
      <trkpt lat="44.5135" lon="0.77668">
        <ele>105.8</ele>
        <time>2018-05-17T00:16:09Z</time>
      </trkpt>
      <trkpt lat="44.51352" lon="0.77672">
        <ele>105.8</ele>
        <time>2018-05-17T00:16:10Z</time>
      </trkpt>
      <trkpt lat="44.51354" lon="0.77676">
        <ele>105.9</ele>
        <time>2018-05-17T00:16:11Z</time>
      </trkpt>
      <trkpt lat="44.51355" lon="0.7768">
        <ele>105.9</ele>
        <time>2018-05-17T00:16:12Z</time>
      </trkpt>
      <trkpt lat="44.51357" lon="0.77684">
        <ele>106</ele>
        <time>2018-05-17T00:16:13Z</time>
      </trkpt>
      <trkpt lat="44.51358" lon="0.77688">
        <ele>106</ele>
        <time>2018-05-17T00:16:14Z</time>
      </trkpt>
      <trkpt lat="44.51359" lon="0.77694">
        <ele>106</ele>
        <time>2018-05-17T00:16:15Z</time>
      </trkpt>
      <trkpt lat="44.51361" lon="0.77698">
        <ele>106.1</ele>
        <time>2018-05-17T00:16:16Z</time>
      </trkpt>
      <trkpt lat="44.51362" lon="0.77703">
        <ele>106.2</ele>
        <time>2018-05-17T00:16:17Z</time>
      </trkpt>
      <trkpt lat="44.51363" lon="0.77708">
        <ele>106.2</ele>
        <time>2018-05-17T00:16:18Z</time>
      </trkpt>
      <trkpt lat="44.51365" lon="0.77712">
        <ele>106.3</ele>
        <time>2018-05-17T00:16:19Z</time>
      </trkpt>
      <trkpt lat="44.51366" lon="0.77717">
        <ele>106.3</ele>
        <time>2018-05-17T00:16:20Z</time>
      </trkpt>
      <trkpt lat="44.51368" lon="0.77722">
        <ele>106.4</ele>
        <time>2018-05-17T00:16:21Z</time>
      </trkpt>
      <trkpt lat="44.51369" lon="0.77727">
        <ele>106.4</ele>
        <time>2018-05-17T00:16:22Z</time>
      </trkpt>
      <trkpt lat="44.5137" lon="0.77731">
        <ele>106.5</ele>
        <time>2018-05-17T00:16:23Z</time>
      </trkpt>
      <trkpt lat="44.51371" lon="0.77736">
        <ele>106.5</ele>
        <time>2018-05-17T00:16:24Z</time>
      </trkpt>
      <trkpt lat="44.51373" lon="0.7774">
        <ele>106.6</ele>
        <time>2018-05-17T00:16:25Z</time>
      </trkpt>
      <trkpt lat="44.51374" lon="0.77745">
        <ele>106.6</ele>
        <time>2018-05-17T00:16:26Z</time>
      </trkpt>
      <trkpt lat="44.51375" lon="0.77749">
        <ele>106.6</ele>
        <time>2018-05-17T00:16:27Z</time>
      </trkpt>
      <trkpt lat="44.51376" lon="0.77753">
        <ele>106.6</ele>
        <time>2018-05-17T00:16:28Z</time>
      </trkpt>
      <trkpt lat="44.51377" lon="0.77757">
        <ele>106.7</ele>
        <time>2018-05-17T00:16:29Z</time>
      </trkpt>
      <trkpt lat="44.51379" lon="0.77762">
        <ele>106.6</ele>
        <time>2018-05-17T00:16:30Z</time>
      </trkpt>
      <trkpt lat="44.5138" lon="0.77766">
        <ele>106.7</ele>
        <time>2018-05-17T00:16:31Z</time>
      </trkpt>
      <trkpt lat="44.51382" lon="0.77771">
        <ele>106.6</ele>
        <time>2018-05-17T00:16:32Z</time>
      </trkpt>
      <trkpt lat="44.51383" lon="0.77775">
        <ele>106.6</ele>
        <time>2018-05-17T00:16:33Z</time>
      </trkpt>
      <trkpt lat="44.51384" lon="0.7778">
        <ele>106.5</ele>
        <time>2018-05-17T00:16:34Z</time>
      </trkpt>
      <trkpt lat="44.51386" lon="0.77784">
        <ele>106.5</ele>
        <time>2018-05-17T00:16:35Z</time>
      </trkpt>
      <trkpt lat="44.51387" lon="0.77789">
        <ele>106.3</ele>
        <time>2018-05-17T00:16:37Z</time>
      </trkpt>
      <trkpt lat="44.51384" lon="0.77801">
        <ele>106.2</ele>
        <time>2018-05-17T00:17:22Z</time>
      </trkpt>
      <trkpt lat="44.51383" lon="0.77806">
        <ele>106</ele>
        <time>2018-05-17T00:17:23Z</time>
      </trkpt>
      <trkpt lat="44.51382" lon="0.77811">
        <ele>106</ele>
        <time>2018-05-17T00:17:24Z</time>
      </trkpt>
      <trkpt lat="44.51381" lon="0.77817">
        <ele>105.9</ele>
        <time>2018-05-17T00:17:25Z</time>
      </trkpt>
      <trkpt lat="44.51379" lon="0.77823">
        <ele>105.8</ele>
        <time>2018-05-17T00:17:26Z</time>
      </trkpt>
      <trkpt lat="44.51377" lon="0.77828">
        <ele>105.8</ele>
        <time>2018-05-17T00:17:27Z</time>
      </trkpt>
      <trkpt lat="44.51375" lon="0.77832">
        <ele>105.8</ele>
        <time>2018-05-17T00:17:28Z</time>
      </trkpt>
      <trkpt lat="44.51372" lon="0.77837">
        <ele>105.8</ele>
        <time>2018-05-17T00:17:29Z</time>
      </trkpt>
      <trkpt lat="44.51369" lon="0.77841">
        <ele>105.8</ele>
        <time>2018-05-17T00:17:30Z</time>
      </trkpt>
      <trkpt lat="44.51366" lon="0.77843">
        <ele>105.8</ele>
        <time>2018-05-17T00:17:31Z</time>
      </trkpt>
      <trkpt lat="44.51361" lon="0.77844">
        <ele>105.9</ele>
        <time>2018-05-17T00:17:32Z</time>
      </trkpt>
      <trkpt lat="44.51358" lon="0.77845">
        <ele>106</ele>
        <time>2018-05-17T00:17:33Z</time>
      </trkpt>
      <trkpt lat="44.51355" lon="0.77845">
        <ele>106</ele>
        <time>2018-05-17T00:17:34Z</time>
      </trkpt>
      <trkpt lat="44.51351" lon="0.77846">
        <ele>106.1</ele>
        <time>2018-05-17T00:17:35Z</time>
      </trkpt>
      <trkpt lat="44.51348" lon="0.77847">
        <ele>106.1</ele>
        <time>2018-05-17T00:17:36Z</time>
      </trkpt>
      <trkpt lat="44.51344" lon="0.77848">
        <ele>106.1</ele>
        <time>2018-05-17T00:17:37Z</time>
      </trkpt>
      <trkpt lat="44.51341" lon="0.77849">
        <ele>106.2</ele>
        <time>2018-05-17T00:17:38Z</time>
      </trkpt>
      <trkpt lat="44.51337" lon="0.77851">
        <ele>106.2</ele>
        <time>2018-05-17T00:17:39Z</time>
      </trkpt>
      <trkpt lat="44.51333" lon="0.77852">
        <ele>106.3</ele>
        <time>2018-05-17T00:17:40Z</time>
      </trkpt>
      <trkpt lat="44.51329" lon="0.77855">
        <ele>106.3</ele>
        <time>2018-05-17T00:17:41Z</time>
      </trkpt>
      <trkpt lat="44.51326" lon="0.77856">
        <ele>106.4</ele>
        <time>2018-05-17T00:17:42Z</time>
      </trkpt>
      <trkpt lat="44.51322" lon="0.77858">
        <ele>106.4</ele>
        <time>2018-05-17T00:17:43Z</time>
      </trkpt>
      <trkpt lat="44.51318" lon="0.77859">
        <ele>106.4</ele>
        <time>2018-05-17T00:17:44Z</time>
      </trkpt>
      <trkpt lat="44.51314" lon="0.7786">
        <ele>106.4</ele>
        <time>2018-05-17T00:17:45Z</time>
      </trkpt>
      <trkpt lat="44.51311" lon="0.77862">
        <ele>106.5</ele>
        <time>2018-05-17T00:17:46Z</time>
      </trkpt>
      <trkpt lat="44.51307" lon="0.77863">
        <ele>106.5</ele>
        <time>2018-05-17T00:17:47Z</time>
      </trkpt>
      <trkpt lat="44.51303" lon="0.77865">
        <ele>106.5</ele>
        <time>2018-05-17T00:17:48Z</time>
      </trkpt>
      <trkpt lat="44.51299" lon="0.77867">
        <ele>106.5</ele>
        <time>2018-05-17T00:17:49Z</time>
      </trkpt>
      <trkpt lat="44.51295" lon="0.77869">
        <ele>106.5</ele>
        <time>2018-05-17T00:17:50Z</time>
      </trkpt>
      <trkpt lat="44.51291" lon="0.77872">
        <ele>106.5</ele>
        <time>2018-05-17T00:17:51Z</time>
      </trkpt>
      <trkpt lat="44.51287" lon="0.77874">
        <ele>106.4</ele>
        <time>2018-05-17T00:17:52Z</time>
      </trkpt>
      <trkpt lat="44.51283" lon="0.77876">
        <ele>106.4</ele>
        <time>2018-05-17T00:17:53Z</time>
      </trkpt>
      <trkpt lat="44.5128" lon="0.77879">
        <ele>106.4</ele>
        <time>2018-05-17T00:17:54Z</time>
      </trkpt>
      <trkpt lat="44.51276" lon="0.77881">
        <ele>106.4</ele>
        <time>2018-05-17T00:17:55Z</time>
      </trkpt>
      <trkpt lat="44.51273" lon="0.77884">
        <ele>106.4</ele>
        <time>2018-05-17T00:17:56Z</time>
      </trkpt>
      <trkpt lat="44.51269" lon="0.77887">
        <ele>106.4</ele>
        <time>2018-05-17T00:17:57Z</time>
      </trkpt>
      <trkpt lat="44.51266" lon="0.77889">
        <ele>106.3</ele>
        <time>2018-05-17T00:17:58Z</time>
      </trkpt>
      <trkpt lat="44.51263" lon="0.77892">
        <ele>106.3</ele>
        <time>2018-05-17T00:17:59Z</time>
      </trkpt>
      <trkpt lat="44.5126" lon="0.77893">
        <ele>106.3</ele>
        <time>2018-05-17T00:18:00Z</time>
      </trkpt>
      <trkpt lat="44.51257" lon="0.77895">
        <ele>106.3</ele>
        <time>2018-05-17T00:18:01Z</time>
      </trkpt>
      <trkpt lat="44.51253" lon="0.77897">
        <ele>106.3</ele>
        <time>2018-05-17T00:18:02Z</time>
      </trkpt>
      <trkpt lat="44.51249" lon="0.779">
        <ele>106.3</ele>
        <time>2018-05-17T00:18:03Z</time>
      </trkpt>
      <trkpt lat="44.51245" lon="0.77901">
        <ele>106.3</ele>
        <time>2018-05-17T00:18:04Z</time>
      </trkpt>
      <trkpt lat="44.51242" lon="0.77902">
        <ele>106.4</ele>
        <time>2018-05-17T00:18:05Z</time>
      </trkpt>
      <trkpt lat="44.51238" lon="0.77904">
        <ele>106.4</ele>
        <time>2018-05-17T00:18:06Z</time>
      </trkpt>
      <trkpt lat="44.51235" lon="0.77904">
        <ele>106.4</ele>
        <time>2018-05-17T00:18:07Z</time>
      </trkpt>
      <trkpt lat="44.51231" lon="0.77904">
        <ele>106.4</ele>
        <time>2018-05-17T00:18:08Z</time>
      </trkpt>
      <trkpt lat="44.51227" lon="0.77905">
        <ele>106.5</ele>
        <time>2018-05-17T00:18:09Z</time>
      </trkpt>
      <trkpt lat="44.51223" lon="0.77905">
        <ele>106.6</ele>
        <time>2018-05-17T00:18:10Z</time>
      </trkpt>
      <trkpt lat="44.51218" lon="0.77906">
        <ele>106.6</ele>
        <time>2018-05-17T00:18:11Z</time>
      </trkpt>
      <trkpt lat="44.51214" lon="0.77907">
        <ele>106.8</ele>
        <time>2018-05-17T00:18:12Z</time>
      </trkpt>
      <trkpt lat="44.5121" lon="0.77908">
        <ele>106.8</ele>
        <time>2018-05-17T00:18:13Z</time>
      </trkpt>
      <trkpt lat="44.51206" lon="0.77909">
        <ele>106.9</ele>
        <time>2018-05-17T00:18:14Z</time>
      </trkpt>
      <trkpt lat="44.51201" lon="0.77911">
        <ele>107</ele>
        <time>2018-05-17T00:18:15Z</time>
      </trkpt>
      <trkpt lat="44.51197" lon="0.77912">
        <ele>107.1</ele>
        <time>2018-05-17T00:18:16Z</time>
      </trkpt>
      <trkpt lat="44.51194" lon="0.77912">
        <ele>107.1</ele>
        <time>2018-05-17T00:18:17Z</time>
      </trkpt>
      <trkpt lat="44.5119" lon="0.77913">
        <ele>107.3</ele>
        <time>2018-05-17T00:18:18Z</time>
      </trkpt>
      <trkpt lat="44.51186" lon="0.77914">
        <ele>107.4</ele>
        <time>2018-05-17T00:18:19Z</time>
      </trkpt>
      <trkpt lat="44.51181" lon="0.77915">
        <ele>107.5</ele>
        <time>2018-05-17T00:18:20Z</time>
      </trkpt>
      <trkpt lat="44.51177" lon="0.77915">
        <ele>107.6</ele>
        <time>2018-05-17T00:18:21Z</time>
      </trkpt>
      <trkpt lat="44.51174" lon="0.77916">
        <ele>107.7</ele>
        <time>2018-05-17T00:18:22Z</time>
      </trkpt>
      <trkpt lat="44.5117" lon="0.77917">
        <ele>107.8</ele>
        <time>2018-05-17T00:18:23Z</time>
      </trkpt>
      <trkpt lat="44.51166" lon="0.77918">
        <ele>107.9</ele>
        <time>2018-05-17T00:18:24Z</time>
      </trkpt>
      <trkpt lat="44.51163" lon="0.7792">
        <ele>108.1</ele>
        <time>2018-05-17T00:18:25Z</time>
      </trkpt>
      <trkpt lat="44.51159" lon="0.77922">
        <ele>108.3</ele>
        <time>2018-05-17T00:18:26Z</time>
      </trkpt>
      <trkpt lat="44.51156" lon="0.77925">
        <ele>108.4</ele>
        <time>2018-05-17T00:18:27Z</time>
      </trkpt>
      <trkpt lat="44.51151" lon="0.77927">
        <ele>108.5</ele>
        <time>2018-05-17T00:18:28Z</time>
      </trkpt>
      <trkpt lat="44.51147" lon="0.7793">
        <ele>108.7</ele>
        <time>2018-05-17T00:18:29Z</time>
      </trkpt>
      <trkpt lat="44.51144" lon="0.77933">
        <ele>109</ele>
        <time>2018-05-17T00:18:30Z</time>
      </trkpt>
      <trkpt lat="44.51141" lon="0.77936">
        <ele>109.2</ele>
        <time>2018-05-17T00:18:31Z</time>
      </trkpt>
      <trkpt lat="44.51138" lon="0.77938">
        <ele>109.4</ele>
        <time>2018-05-17T00:18:32Z</time>
      </trkpt>
      <trkpt lat="44.51136" lon="0.77941">
        <ele>109.4</ele>
        <time>2018-05-17T00:18:33Z</time>
      </trkpt>
      <trkpt lat="44.51132" lon="0.77945">
        <ele>109.8</ele>
        <time>2018-05-17T00:18:35Z</time>
      </trkpt>
      <trkpt lat="44.51129" lon="0.77949">
        <ele>109.9</ele>
        <time>2018-05-17T00:18:37Z</time>
      </trkpt>
      <trkpt lat="44.51126" lon="0.77952">
        <ele>109.9</ele>
        <time>2018-05-17T00:18:39Z</time>
      </trkpt>
      <trkpt lat="44.51122" lon="0.77954">
        <ele>110.3</ele>
        <time>2018-05-17T00:18:41Z</time>
      </trkpt>
      <trkpt lat="44.51119" lon="0.77957">
        <ele>110.5</ele>
        <time>2018-05-17T00:18:42Z</time>
      </trkpt>
      <trkpt lat="44.51117" lon="0.77959">
        <ele>110.5</ele>
        <time>2018-05-17T00:18:43Z</time>
      </trkpt>
      <trkpt lat="44.51115" lon="0.77962">
        <ele>110.6</ele>
        <time>2018-05-17T00:18:44Z</time>
      </trkpt>
      <trkpt lat="44.51112" lon="0.77965">
        <ele>110.8</ele>
        <time>2018-05-17T00:18:45Z</time>
      </trkpt>
      <trkpt lat="44.5111" lon="0.77966">
        <ele>111</ele>
        <time>2018-05-17T00:18:46Z</time>
      </trkpt>
      <trkpt lat="44.51106" lon="0.77967">
        <ele>111.1</ele>
        <time>2018-05-17T00:18:48Z</time>
      </trkpt>
      <trkpt lat="44.51103" lon="0.77969">
        <ele>111.3</ele>
        <time>2018-05-17T00:18:49Z</time>
      </trkpt>
      <trkpt lat="44.51099" lon="0.77969">
        <ele>111.4</ele>
        <time>2018-05-17T00:18:50Z</time>
      </trkpt>
      <trkpt lat="44.51096" lon="0.7797">
        <ele>111.5</ele>
        <time>2018-05-17T00:18:51Z</time>
      </trkpt>
      <trkpt lat="44.51092" lon="0.77971">
        <ele>111.8</ele>
        <time>2018-05-17T00:18:53Z</time>
      </trkpt>
      <trkpt lat="44.51088" lon="0.77972">
        <ele>111.9</ele>
        <time>2018-05-17T00:18:54Z</time>
      </trkpt>
      <trkpt lat="44.51086" lon="0.77974">
        <ele>112</ele>
        <time>2018-05-17T00:18:55Z</time>
      </trkpt>
      <trkpt lat="44.51082" lon="0.77974">
        <ele>112.1</ele>
        <time>2018-05-17T00:18:56Z</time>
      </trkpt>
      <trkpt lat="44.51078" lon="0.77977">
        <ele>112.2</ele>
        <time>2018-05-17T00:18:58Z</time>
      </trkpt>
      <trkpt lat="44.51074" lon="0.77979">
        <ele>112.2</ele>
        <time>2018-05-17T00:19:00Z</time>
      </trkpt>
      <trkpt lat="44.51071" lon="0.77981">
        <ele>112.3</ele>
        <time>2018-05-17T00:19:02Z</time>
      </trkpt>
      <trkpt lat="44.51068" lon="0.77986">
        <ele>112.4</ele>
        <time>2018-05-17T00:19:04Z</time>
      </trkpt>
      <trkpt lat="44.51065" lon="0.77989">
        <ele>112.4</ele>
        <time>2018-05-17T00:19:06Z</time>
      </trkpt>
      <trkpt lat="44.51062" lon="0.77995">
        <ele>112.5</ele>
        <time>2018-05-17T00:19:08Z</time>
      </trkpt>
      <trkpt lat="44.51058" lon="0.77999">
        <ele>112.5</ele>
        <time>2018-05-17T00:19:10Z</time>
      </trkpt>
      <trkpt lat="44.51053" lon="0.78004">
        <ele>112.4</ele>
        <time>2018-05-17T00:19:12Z</time>
      </trkpt>
      <trkpt lat="44.51049" lon="0.78007">
        <ele>112.4</ele>
        <time>2018-05-17T00:19:13Z</time>
      </trkpt>
      <trkpt lat="44.51046" lon="0.78011">
        <ele>112.4</ele>
        <time>2018-05-17T00:19:14Z</time>
      </trkpt>
      <trkpt lat="44.51043" lon="0.78016">
        <ele>112.4</ele>
        <time>2018-05-17T00:19:15Z</time>
      </trkpt>
      <trkpt lat="44.51042" lon="0.78021">
        <ele>112.3</ele>
        <time>2018-05-17T00:19:16Z</time>
      </trkpt>
      <trkpt lat="44.51039" lon="0.78025">
        <ele>112.2</ele>
        <time>2018-05-17T00:19:17Z</time>
      </trkpt>
      <trkpt lat="44.51037" lon="0.7803">
        <ele>112.2</ele>
        <time>2018-05-17T00:19:18Z</time>
      </trkpt>
      <trkpt lat="44.51034" lon="0.78035">
        <ele>112.2</ele>
        <time>2018-05-17T00:19:19Z</time>
      </trkpt>
      <trkpt lat="44.51031" lon="0.78039">
        <ele>112.2</ele>
        <time>2018-05-17T00:19:20Z</time>
      </trkpt>
      <trkpt lat="44.51028" lon="0.78043">
        <ele>112.1</ele>
        <time>2018-05-17T00:19:21Z</time>
      </trkpt>
      <trkpt lat="44.51025" lon="0.78047">
        <ele>112.1</ele>
        <time>2018-05-17T00:19:22Z</time>
      </trkpt>
      <trkpt lat="44.51022" lon="0.78053">
        <ele>112</ele>
        <time>2018-05-17T00:19:23Z</time>
      </trkpt>
      <trkpt lat="44.5102" lon="0.78057">
        <ele>111.9</ele>
        <time>2018-05-17T00:19:24Z</time>
      </trkpt>
      <trkpt lat="44.51017" lon="0.7806">
        <ele>111.9</ele>
        <time>2018-05-17T00:19:25Z</time>
      </trkpt>
      <trkpt lat="44.51014" lon="0.78064">
        <ele>111.8</ele>
        <time>2018-05-17T00:19:26Z</time>
      </trkpt>
      <trkpt lat="44.51012" lon="0.78068">
        <ele>111.8</ele>
        <time>2018-05-17T00:19:27Z</time>
      </trkpt>
      <trkpt lat="44.51008" lon="0.78071">
        <ele>111.8</ele>
        <time>2018-05-17T00:19:28Z</time>
      </trkpt>
      <trkpt lat="44.51005" lon="0.78074">
        <ele>111.7</ele>
        <time>2018-05-17T00:19:29Z</time>
      </trkpt>
      <trkpt lat="44.51001" lon="0.78077">
        <ele>111.7</ele>
        <time>2018-05-17T00:19:30Z</time>
      </trkpt>
      <trkpt lat="44.50997" lon="0.7808">
        <ele>111.7</ele>
        <time>2018-05-17T00:19:31Z</time>
      </trkpt>
      <trkpt lat="44.50994" lon="0.78083">
        <ele>111.7</ele>
        <time>2018-05-17T00:19:32Z</time>
      </trkpt>
      <trkpt lat="44.5099" lon="0.78087">
        <ele>111.6</ele>
        <time>2018-05-17T00:19:33Z</time>
      </trkpt>
      <trkpt lat="44.50986" lon="0.7809">
        <ele>111.5</ele>
        <time>2018-05-17T00:19:34Z</time>
      </trkpt>
      <trkpt lat="44.50982" lon="0.78094">
        <ele>111.5</ele>
        <time>2018-05-17T00:19:35Z</time>
      </trkpt>
      <trkpt lat="44.50978" lon="0.78098">
        <ele>111.4</ele>
        <time>2018-05-17T00:19:36Z</time>
      </trkpt>
      <trkpt lat="44.50974" lon="0.78101">
        <ele>111.3</ele>
        <time>2018-05-17T00:19:37Z</time>
      </trkpt>
      <trkpt lat="44.5097" lon="0.78105">
        <ele>111.2</ele>
        <time>2018-05-17T00:19:38Z</time>
      </trkpt>
      <trkpt lat="44.50966" lon="0.78109">
        <ele>111.1</ele>
        <time>2018-05-17T00:19:39Z</time>
      </trkpt>
      <trkpt lat="44.50962" lon="0.78113">
        <ele>111</ele>
        <time>2018-05-17T00:19:40Z</time>
      </trkpt>
      <trkpt lat="44.50958" lon="0.78117">
        <ele>111</ele>
        <time>2018-05-17T00:19:41Z</time>
      </trkpt>
      <trkpt lat="44.50954" lon="0.78121">
        <ele>110.9</ele>
        <time>2018-05-17T00:19:42Z</time>
      </trkpt>
      <trkpt lat="44.50949" lon="0.78125">
        <ele>110.8</ele>
        <time>2018-05-17T00:19:43Z</time>
      </trkpt>
      <trkpt lat="44.50945" lon="0.78129">
        <ele>110.7</ele>
        <time>2018-05-17T00:19:44Z</time>
      </trkpt>
      <trkpt lat="44.50941" lon="0.78132">
        <ele>110.6</ele>
        <time>2018-05-17T00:19:45Z</time>
      </trkpt>
      <trkpt lat="44.50937" lon="0.78135">
        <ele>110.5</ele>
        <time>2018-05-17T00:19:46Z</time>
      </trkpt>
      <trkpt lat="44.50933" lon="0.78138">
        <ele>110.4</ele>
        <time>2018-05-17T00:19:47Z</time>
      </trkpt>
      <trkpt lat="44.50929" lon="0.78142">
        <ele>110.4</ele>
        <time>2018-05-17T00:19:48Z</time>
      </trkpt>
      <trkpt lat="44.50924" lon="0.78146">
        <ele>110.3</ele>
        <time>2018-05-17T00:19:49Z</time>
      </trkpt>
      <trkpt lat="44.5092" lon="0.78151">
        <ele>110.2</ele>
        <time>2018-05-17T00:19:50Z</time>
      </trkpt>
      <trkpt lat="44.50916" lon="0.78157">
        <ele>110.2</ele>
        <time>2018-05-17T00:19:51Z</time>
      </trkpt>
      <trkpt lat="44.50911" lon="0.78161">
        <ele>110</ele>
        <time>2018-05-17T00:19:52Z</time>
      </trkpt>
      <trkpt lat="44.50906" lon="0.78165">
        <ele>109.9</ele>
        <time>2018-05-17T00:19:53Z</time>
      </trkpt>
      <trkpt lat="44.50901" lon="0.78167">
        <ele>109.8</ele>
        <time>2018-05-17T00:19:54Z</time>
      </trkpt>
      <trkpt lat="44.50896" lon="0.78163">
        <ele>109.5</ele>
        <time>2018-05-17T00:19:55Z</time>
      </trkpt>
      <trkpt lat="44.50891" lon="0.78158">
        <ele>109.3</ele>
        <time>2018-05-17T00:19:56Z</time>
      </trkpt>
      <trkpt lat="44.50886" lon="0.78152">
        <ele>108.8</ele>
        <time>2018-05-17T00:19:57Z</time>
      </trkpt>
      <trkpt lat="44.50882" lon="0.78146">
        <ele>108.6</ele>
        <time>2018-05-17T00:19:58Z</time>
      </trkpt>
      <trkpt lat="44.50877" lon="0.78142">
        <ele>108.3</ele>
        <time>2018-05-17T00:19:59Z</time>
      </trkpt>
      <trkpt lat="44.50872" lon="0.78139">
        <ele>108.1</ele>
        <time>2018-05-17T00:20:00Z</time>
      </trkpt>
      <trkpt lat="44.50867" lon="0.78137">
        <ele>107.8</ele>
        <time>2018-05-17T00:20:01Z</time>
      </trkpt>
      <trkpt lat="44.50862" lon="0.78138">
        <ele>107.5</ele>
        <time>2018-05-17T00:20:02Z</time>
      </trkpt>
      <trkpt lat="44.50859" lon="0.7814">
        <ele>107.3</ele>
        <time>2018-05-17T00:20:03Z</time>
      </trkpt>
      <trkpt lat="44.50855" lon="0.78141">
        <ele>107.2</ele>
        <time>2018-05-17T00:20:04Z</time>
      </trkpt>
      <trkpt lat="44.5085" lon="0.78142">
        <ele>107</ele>
        <time>2018-05-17T00:20:05Z</time>
      </trkpt>
      <trkpt lat="44.50845" lon="0.78143">
        <ele>106.9</ele>
        <time>2018-05-17T00:20:06Z</time>
      </trkpt>
      <trkpt lat="44.5084" lon="0.78143">
        <ele>106.6</ele>
        <time>2018-05-17T00:20:07Z</time>
      </trkpt>
      <trkpt lat="44.50835" lon="0.78144">
        <ele>106.3</ele>
        <time>2018-05-17T00:20:08Z</time>
      </trkpt>
      <trkpt lat="44.5083" lon="0.78146">
        <ele>106.2</ele>
        <time>2018-05-17T00:20:09Z</time>
      </trkpt>
      <trkpt lat="44.50825" lon="0.78148">
        <ele>105.9</ele>
        <time>2018-05-17T00:20:11Z</time>
      </trkpt>
      <trkpt lat="44.50822" lon="0.78149">
        <ele>105.9</ele>
        <time>2018-05-17T00:20:12Z</time>
      </trkpt>
      <trkpt lat="44.50819" lon="0.78151">
        <ele>105.8</ele>
        <time>2018-05-17T00:20:13Z</time>
      </trkpt>
      <trkpt lat="44.50816" lon="0.78153">
        <ele>105.7</ele>
        <time>2018-05-17T00:20:14Z</time>
      </trkpt>
      <trkpt lat="44.50812" lon="0.78155">
        <ele>105.6</ele>
        <time>2018-05-17T00:20:15Z</time>
      </trkpt>
      <trkpt lat="44.50809" lon="0.78157">
        <ele>105.5</ele>
        <time>2018-05-17T00:20:16Z</time>
      </trkpt>
      <trkpt lat="44.50806" lon="0.78158">
        <ele>105.4</ele>
        <time>2018-05-17T00:20:17Z</time>
      </trkpt>
      <trkpt lat="44.50801" lon="0.78159">
        <ele>105.2</ele>
        <time>2018-05-17T00:20:18Z</time>
      </trkpt>
      <trkpt lat="44.50797" lon="0.7816">
        <ele>105.1</ele>
        <time>2018-05-17T00:20:19Z</time>
      </trkpt>
      <trkpt lat="44.50792" lon="0.78163">
        <ele>104.9</ele>
        <time>2018-05-17T00:20:20Z</time>
      </trkpt>
      <trkpt lat="44.50787" lon="0.78167">
        <ele>104.9</ele>
        <time>2018-05-17T00:20:21Z</time>
      </trkpt>
      <trkpt lat="44.5078" lon="0.78174">
        <ele>104.7</ele>
        <time>2018-05-17T00:20:22Z</time>
      </trkpt>
      <trkpt lat="44.50775" lon="0.78179">
        <ele>104.8</ele>
        <time>2018-05-17T00:20:23Z</time>
      </trkpt>
      <trkpt lat="44.50771" lon="0.78185">
        <ele>104.8</ele>
        <time>2018-05-17T00:20:24Z</time>
      </trkpt>
      <trkpt lat="44.50767" lon="0.78192">
        <ele>104.7</ele>
        <time>2018-05-17T00:20:25Z</time>
      </trkpt>
      <trkpt lat="44.50764" lon="0.78198">
        <ele>104.8</ele>
        <time>2018-05-17T00:20:26Z</time>
      </trkpt>
      <trkpt lat="44.5076" lon="0.78205">
        <ele>104.8</ele>
        <time>2018-05-17T00:20:27Z</time>
      </trkpt>
      <trkpt lat="44.50758" lon="0.78211">
        <ele>104.8</ele>
        <time>2018-05-17T00:20:28Z</time>
      </trkpt>
      <trkpt lat="44.50756" lon="0.78216">
        <ele>104.9</ele>
        <time>2018-05-17T00:20:29Z</time>
      </trkpt>
      <trkpt lat="44.50755" lon="0.78222">
        <ele>104.9</ele>
        <time>2018-05-17T00:20:30Z</time>
      </trkpt>
      <trkpt lat="44.50752" lon="0.78228">
        <ele>104.9</ele>
        <time>2018-05-17T00:20:31Z</time>
      </trkpt>
      <trkpt lat="44.5075" lon="0.78234">
        <ele>105</ele>
        <time>2018-05-17T00:20:32Z</time>
      </trkpt>
      <trkpt lat="44.50749" lon="0.7824">
        <ele>105</ele>
        <time>2018-05-17T00:20:33Z</time>
      </trkpt>
      <trkpt lat="44.50747" lon="0.78247">
        <ele>105</ele>
        <time>2018-05-17T00:20:34Z</time>
      </trkpt>
      <trkpt lat="44.50745" lon="0.78252">
        <ele>105.1</ele>
        <time>2018-05-17T00:20:35Z</time>
      </trkpt>
      <trkpt lat="44.50742" lon="0.78259">
        <ele>105.1</ele>
        <time>2018-05-17T00:20:36Z</time>
      </trkpt>
      <trkpt lat="44.5074" lon="0.78266">
        <ele>105.1</ele>
        <time>2018-05-17T00:20:37Z</time>
      </trkpt>
      <trkpt lat="44.50739" lon="0.78273">
        <ele>105.1</ele>
        <time>2018-05-17T00:20:38Z</time>
      </trkpt>
      <trkpt lat="44.50737" lon="0.7828">
        <ele>105.2</ele>
        <time>2018-05-17T00:20:39Z</time>
      </trkpt>
      <trkpt lat="44.50735" lon="0.78286">
        <ele>105.2</ele>
        <time>2018-05-17T00:20:40Z</time>
      </trkpt>
      <trkpt lat="44.50733" lon="0.78293">
        <ele>105.2</ele>
        <time>2018-05-17T00:20:41Z</time>
      </trkpt>
      <trkpt lat="44.50731" lon="0.78299">
        <ele>105.2</ele>
        <time>2018-05-17T00:20:42Z</time>
      </trkpt>
      <trkpt lat="44.50729" lon="0.78306">
        <ele>105.2</ele>
        <time>2018-05-17T00:20:43Z</time>
      </trkpt>
      <trkpt lat="44.50727" lon="0.78313">
        <ele>105.1</ele>
        <time>2018-05-17T00:20:44Z</time>
      </trkpt>
      <trkpt lat="44.50725" lon="0.78319">
        <ele>105.1</ele>
        <time>2018-05-17T00:20:45Z</time>
      </trkpt>
      <trkpt lat="44.50724" lon="0.78326">
        <ele>105.1</ele>
        <time>2018-05-17T00:20:46Z</time>
      </trkpt>
      <trkpt lat="44.50722" lon="0.78332">
        <ele>105.1</ele>
        <time>2018-05-17T00:20:47Z</time>
      </trkpt>
      <trkpt lat="44.5072" lon="0.78339">
        <ele>105.1</ele>
        <time>2018-05-17T00:20:48Z</time>
      </trkpt>
      <trkpt lat="44.50719" lon="0.78345">
        <ele>105.1</ele>
        <time>2018-05-17T00:20:49Z</time>
      </trkpt>
      <trkpt lat="44.50718" lon="0.78352">
        <ele>105.1</ele>
        <time>2018-05-17T00:20:50Z</time>
      </trkpt>
      <trkpt lat="44.50716" lon="0.78359">
        <ele>105.1</ele>
        <time>2018-05-17T00:20:51Z</time>
      </trkpt>
      <trkpt lat="44.50713" lon="0.78365">
        <ele>105.2</ele>
        <time>2018-05-17T00:20:52Z</time>
      </trkpt>
      <trkpt lat="44.50711" lon="0.78371">
        <ele>105.2</ele>
        <time>2018-05-17T00:20:53Z</time>
      </trkpt>
      <trkpt lat="44.50708" lon="0.78376">
        <ele>105.2</ele>
        <time>2018-05-17T00:20:54Z</time>
      </trkpt>
      <trkpt lat="44.50706" lon="0.78382">
        <ele>105.3</ele>
        <time>2018-05-17T00:20:55Z</time>
      </trkpt>
      <trkpt lat="44.50704" lon="0.78388">
        <ele>105.3</ele>
        <time>2018-05-17T00:20:56Z</time>
      </trkpt>
      <trkpt lat="44.50701" lon="0.78394">
        <ele>105.4</ele>
        <time>2018-05-17T00:20:57Z</time>
      </trkpt>
      <trkpt lat="44.50699" lon="0.784">
        <ele>105.4</ele>
        <time>2018-05-17T00:20:58Z</time>
      </trkpt>
      <trkpt lat="44.50696" lon="0.78406">
        <ele>105.4</ele>
        <time>2018-05-17T00:20:59Z</time>
      </trkpt>
      <trkpt lat="44.50694" lon="0.7841">
        <ele>105.4</ele>
        <time>2018-05-17T00:21:00Z</time>
      </trkpt>
      <trkpt lat="44.50691" lon="0.78415">
        <ele>105.4</ele>
        <time>2018-05-17T00:21:01Z</time>
      </trkpt>
      <trkpt lat="44.50688" lon="0.7842">
        <ele>105.3</ele>
        <time>2018-05-17T00:21:02Z</time>
      </trkpt>
      <trkpt lat="44.50685" lon="0.78425">
        <ele>105.3</ele>
        <time>2018-05-17T00:21:03Z</time>
      </trkpt>
      <trkpt lat="44.50682" lon="0.7843">
        <ele>105.3</ele>
        <time>2018-05-17T00:21:04Z</time>
      </trkpt>
      <trkpt lat="44.5068" lon="0.78435">
        <ele>105.3</ele>
        <time>2018-05-17T00:21:05Z</time>
      </trkpt>
      <trkpt lat="44.50678" lon="0.78441">
        <ele>105.2</ele>
        <time>2018-05-17T00:21:06Z</time>
      </trkpt>
      <trkpt lat="44.50676" lon="0.78447">
        <ele>105.2</ele>
        <time>2018-05-17T00:21:07Z</time>
      </trkpt>
      <trkpt lat="44.50674" lon="0.78454">
        <ele>105.1</ele>
        <time>2018-05-17T00:21:08Z</time>
      </trkpt>
      <trkpt lat="44.50672" lon="0.78461">
        <ele>105.1</ele>
        <time>2018-05-17T00:21:09Z</time>
      </trkpt>
      <trkpt lat="44.5067" lon="0.78467">
        <ele>105</ele>
        <time>2018-05-17T00:21:10Z</time>
      </trkpt>
      <trkpt lat="44.50668" lon="0.78474">
        <ele>104.9</ele>
        <time>2018-05-17T00:21:11Z</time>
      </trkpt>
      <trkpt lat="44.50667" lon="0.7848">
        <ele>104.8</ele>
        <time>2018-05-17T00:21:12Z</time>
      </trkpt>
      <trkpt lat="44.50665" lon="0.78487">
        <ele>104.7</ele>
        <time>2018-05-17T00:21:13Z</time>
      </trkpt>
      <trkpt lat="44.50664" lon="0.78493">
        <ele>104.6</ele>
        <time>2018-05-17T00:21:14Z</time>
      </trkpt>
      <trkpt lat="44.50663" lon="0.785">
        <ele>104.5</ele>
        <time>2018-05-17T00:21:15Z</time>
      </trkpt>
      <trkpt lat="44.50662" lon="0.78506">
        <ele>104.4</ele>
        <time>2018-05-17T00:21:16Z</time>
      </trkpt>
      <trkpt lat="44.50662" lon="0.78513">
        <ele>104.4</ele>
        <time>2018-05-17T00:21:17Z</time>
      </trkpt>
      <trkpt lat="44.50661" lon="0.7852">
        <ele>104.4</ele>
        <time>2018-05-17T00:21:18Z</time>
      </trkpt>
      <trkpt lat="44.5066" lon="0.78526">
        <ele>104.3</ele>
        <time>2018-05-17T00:21:19Z</time>
      </trkpt>
      <trkpt lat="44.50659" lon="0.78533">
        <ele>104.3</ele>
        <time>2018-05-17T00:21:20Z</time>
      </trkpt>
      <trkpt lat="44.50658" lon="0.7854">
        <ele>104.3</ele>
        <time>2018-05-17T00:21:21Z</time>
      </trkpt>
      <trkpt lat="44.50657" lon="0.78546">
        <ele>104.3</ele>
        <time>2018-05-17T00:21:22Z</time>
      </trkpt>
      <trkpt lat="44.50655" lon="0.78552">
        <ele>104.3</ele>
        <time>2018-05-17T00:21:23Z</time>
      </trkpt>
      <trkpt lat="44.50653" lon="0.78557">
        <ele>104.3</ele>
        <time>2018-05-17T00:21:24Z</time>
      </trkpt>
      <trkpt lat="44.50651" lon="0.78563">
        <ele>104.3</ele>
        <time>2018-05-17T00:21:25Z</time>
      </trkpt>
      <trkpt lat="44.50649" lon="0.78568">
        <ele>104.4</ele>
        <time>2018-05-17T00:21:26Z</time>
      </trkpt>
      <trkpt lat="44.50647" lon="0.78573">
        <ele>104.4</ele>
        <time>2018-05-17T00:21:27Z</time>
      </trkpt>
      <trkpt lat="44.50645" lon="0.78578">
        <ele>104.4</ele>
        <time>2018-05-17T00:21:28Z</time>
      </trkpt>
      <trkpt lat="44.50644" lon="0.78583">
        <ele>104.5</ele>
        <time>2018-05-17T00:21:29Z</time>
      </trkpt>
      <trkpt lat="44.50642" lon="0.78586">
        <ele>104.6</ele>
        <time>2018-05-17T00:21:30Z</time>
      </trkpt>
      <trkpt lat="44.50639" lon="0.7859">
        <ele>104.7</ele>
        <time>2018-05-17T00:21:31Z</time>
      </trkpt>
      <trkpt lat="44.50637" lon="0.78593">
        <ele>104.8</ele>
        <time>2018-05-17T00:21:32Z</time>
      </trkpt>
      <trkpt lat="44.50634" lon="0.78596">
        <ele>104.9</ele>
        <time>2018-05-17T00:21:33Z</time>
      </trkpt>
      <trkpt lat="44.50631" lon="0.786">
        <ele>105</ele>
        <time>2018-05-17T00:21:34Z</time>
      </trkpt>
      <trkpt lat="44.50629" lon="0.78605">
        <ele>105.1</ele>
        <time>2018-05-17T00:21:35Z</time>
      </trkpt>
      <trkpt lat="44.50626" lon="0.78609">
        <ele>105.2</ele>
        <time>2018-05-17T00:21:36Z</time>
      </trkpt>
      <trkpt lat="44.50624" lon="0.78614">
        <ele>105.4</ele>
        <time>2018-05-17T00:21:37Z</time>
      </trkpt>
      <trkpt lat="44.50621" lon="0.78619">
        <ele>105.6</ele>
        <time>2018-05-17T00:21:38Z</time>
      </trkpt>
      <trkpt lat="44.50619" lon="0.78624">
        <ele>105.8</ele>
        <time>2018-05-17T00:21:39Z</time>
      </trkpt>
      <trkpt lat="44.50616" lon="0.78629">
        <ele>105.9</ele>
        <time>2018-05-17T00:21:40Z</time>
      </trkpt>
      <trkpt lat="44.50613" lon="0.78634">
        <ele>106</ele>
        <time>2018-05-17T00:21:41Z</time>
      </trkpt>
      <trkpt lat="44.50611" lon="0.78639">
        <ele>106</ele>
        <time>2018-05-17T00:21:42Z</time>
      </trkpt>
      <trkpt lat="44.5061" lon="0.78646">
        <ele>106</ele>
        <time>2018-05-17T00:21:43Z</time>
      </trkpt>
      <trkpt lat="44.50611" lon="0.78653">
        <ele>106.3</ele>
        <time>2018-05-17T00:21:44Z</time>
      </trkpt>
      <trkpt lat="44.50612" lon="0.78659">
        <ele>106.5</ele>
        <time>2018-05-17T00:21:45Z</time>
      </trkpt>
      <trkpt lat="44.50613" lon="0.78665">
        <ele>106.7</ele>
        <time>2018-05-17T00:21:46Z</time>
      </trkpt>
      <trkpt lat="44.50614" lon="0.78671">
        <ele>106.9</ele>
        <time>2018-05-17T00:21:47Z</time>
      </trkpt>
      <trkpt lat="44.50615" lon="0.78676">
        <ele>107.1</ele>
        <time>2018-05-17T00:21:48Z</time>
      </trkpt>
      <trkpt lat="44.50617" lon="0.78682">
        <ele>107.3</ele>
        <time>2018-05-17T00:21:49Z</time>
      </trkpt>
      <trkpt lat="44.50618" lon="0.78688">
        <ele>107.5</ele>
        <time>2018-05-17T00:21:50Z</time>
      </trkpt>
      <trkpt lat="44.5062" lon="0.78695">
        <ele>107.7</ele>
        <time>2018-05-17T00:21:51Z</time>
      </trkpt>
      <trkpt lat="44.50621" lon="0.78701">
        <ele>107.9</ele>
        <time>2018-05-17T00:21:52Z</time>
      </trkpt>
      <trkpt lat="44.50623" lon="0.78707">
        <ele>108.1</ele>
        <time>2018-05-17T00:21:53Z</time>
      </trkpt>
      <trkpt lat="44.50624" lon="0.78713">
        <ele>108.3</ele>
        <time>2018-05-17T00:21:54Z</time>
      </trkpt>
      <trkpt lat="44.50626" lon="0.78719">
        <ele>108.5</ele>
        <time>2018-05-17T00:21:55Z</time>
      </trkpt>
      <trkpt lat="44.50628" lon="0.78725">
        <ele>108.7</ele>
        <time>2018-05-17T00:21:56Z</time>
      </trkpt>
      <trkpt lat="44.5063" lon="0.78731">
        <ele>108.9</ele>
        <time>2018-05-17T00:21:57Z</time>
      </trkpt>
      <trkpt lat="44.50631" lon="0.78736">
        <ele>109.1</ele>
        <time>2018-05-17T00:21:58Z</time>
      </trkpt>
      <trkpt lat="44.50633" lon="0.78741">
        <ele>109.2</ele>
        <time>2018-05-17T00:21:59Z</time>
      </trkpt>
      <trkpt lat="44.50635" lon="0.78747">
        <ele>109.4</ele>
        <time>2018-05-17T00:22:00Z</time>
      </trkpt>
      <trkpt lat="44.50637" lon="0.78752">
        <ele>109.6</ele>
        <time>2018-05-17T00:22:01Z</time>
      </trkpt>
      <trkpt lat="44.50639" lon="0.78757">
        <ele>109.9</ele>
        <time>2018-05-17T00:22:02Z</time>
      </trkpt>
      <trkpt lat="44.5064" lon="0.78763">
        <ele>110.1</ele>
        <time>2018-05-17T00:22:03Z</time>
      </trkpt>
      <trkpt lat="44.50643" lon="0.78769">
        <ele>110.3</ele>
        <time>2018-05-17T00:22:04Z</time>
      </trkpt>
      <trkpt lat="44.50645" lon="0.78775">
        <ele>110.5</ele>
        <time>2018-05-17T00:22:05Z</time>
      </trkpt>
      <trkpt lat="44.50646" lon="0.78781">
        <ele>110.8</ele>
        <time>2018-05-17T00:22:06Z</time>
      </trkpt>
      <trkpt lat="44.50648" lon="0.78786">
        <ele>110.9</ele>
        <time>2018-05-17T00:22:07Z</time>
      </trkpt>
      <trkpt lat="44.50649" lon="0.78791">
        <ele>111.1</ele>
        <time>2018-05-17T00:22:08Z</time>
      </trkpt>
      <trkpt lat="44.5065" lon="0.78797">
        <ele>111.3</ele>
        <time>2018-05-17T00:22:09Z</time>
      </trkpt>
      <trkpt lat="44.50653" lon="0.78804">
        <ele>111.6</ele>
        <time>2018-05-17T00:22:10Z</time>
      </trkpt>
      <trkpt lat="44.50655" lon="0.7881">
        <ele>111.8</ele>
        <time>2018-05-17T00:22:11Z</time>
      </trkpt>
      <trkpt lat="44.50657" lon="0.78815">
        <ele>112</ele>
        <time>2018-05-17T00:22:12Z</time>
      </trkpt>
      <trkpt lat="44.50659" lon="0.7882">
        <ele>112.2</ele>
        <time>2018-05-17T00:22:13Z</time>
      </trkpt>
      <trkpt lat="44.5066" lon="0.78826">
        <ele>112.4</ele>
        <time>2018-05-17T00:22:14Z</time>
      </trkpt>
      <trkpt lat="44.50662" lon="0.78831">
        <ele>112.5</ele>
        <time>2018-05-17T00:22:15Z</time>
      </trkpt>
      <trkpt lat="44.50664" lon="0.78836">
        <ele>112.7</ele>
        <time>2018-05-17T00:22:16Z</time>
      </trkpt>
      <trkpt lat="44.50666" lon="0.78841">
        <ele>112.9</ele>
        <time>2018-05-17T00:22:17Z</time>
      </trkpt>
      <trkpt lat="44.50669" lon="0.78846">
        <ele>113</ele>
        <time>2018-05-17T00:22:18Z</time>
      </trkpt>
      <trkpt lat="44.50672" lon="0.78851">
        <ele>113</ele>
        <time>2018-05-17T00:22:19Z</time>
      </trkpt>
      <trkpt lat="44.50675" lon="0.78856">
        <ele>113.1</ele>
        <time>2018-05-17T00:22:20Z</time>
      </trkpt>
      <trkpt lat="44.50678" lon="0.7886">
        <ele>113.2</ele>
        <time>2018-05-17T00:22:21Z</time>
      </trkpt>
      <trkpt lat="44.50682" lon="0.78865">
        <ele>113.2</ele>
        <time>2018-05-17T00:22:22Z</time>
      </trkpt>
      <trkpt lat="44.50685" lon="0.78869">
        <ele>113.3</ele>
        <time>2018-05-17T00:22:23Z</time>
      </trkpt>
      <trkpt lat="44.50689" lon="0.78873">
        <ele>113.4</ele>
        <time>2018-05-17T00:22:24Z</time>
      </trkpt>
      <trkpt lat="44.50693" lon="0.78877">
        <ele>113.5</ele>
        <time>2018-05-17T00:22:25Z</time>
      </trkpt>
      <trkpt lat="44.50696" lon="0.78881">
        <ele>113.6</ele>
        <time>2018-05-17T00:22:26Z</time>
      </trkpt>
      <trkpt lat="44.507" lon="0.78885">
        <ele>113.7</ele>
        <time>2018-05-17T00:22:27Z</time>
      </trkpt>
      <trkpt lat="44.50704" lon="0.78889">
        <ele>114</ele>
        <time>2018-05-17T00:22:28Z</time>
      </trkpt>
      <trkpt lat="44.50709" lon="0.78893">
        <ele>114.2</ele>
        <time>2018-05-17T00:22:29Z</time>
      </trkpt>
      <trkpt lat="44.50713" lon="0.78896">
        <ele>114.4</ele>
        <time>2018-05-17T00:22:30Z</time>
      </trkpt>
      <trkpt lat="44.50717" lon="0.789">
        <ele>114.7</ele>
        <time>2018-05-17T00:22:31Z</time>
      </trkpt>
      <trkpt lat="44.5072" lon="0.78903">
        <ele>114.9</ele>
        <time>2018-05-17T00:22:32Z</time>
      </trkpt>
      <trkpt lat="44.50723" lon="0.78906">
        <ele>115</ele>
        <time>2018-05-17T00:22:33Z</time>
      </trkpt>
      <trkpt lat="44.50726" lon="0.78909">
        <ele>115.2</ele>
        <time>2018-05-17T00:22:34Z</time>
      </trkpt>
      <trkpt lat="44.5073" lon="0.78912">
        <ele>115.3</ele>
        <time>2018-05-17T00:22:35Z</time>
      </trkpt>
      <trkpt lat="44.50734" lon="0.78915">
        <ele>115.5</ele>
        <time>2018-05-17T00:22:36Z</time>
      </trkpt>
      <trkpt lat="44.50737" lon="0.78917">
        <ele>115.7</ele>
        <time>2018-05-17T00:22:37Z</time>
      </trkpt>
      <trkpt lat="44.50739" lon="0.7892">
        <ele>115.9</ele>
        <time>2018-05-17T00:22:38Z</time>
      </trkpt>
      <trkpt lat="44.50742" lon="0.78922">
        <ele>116</ele>
        <time>2018-05-17T00:22:39Z</time>
      </trkpt>
      <trkpt lat="44.50744" lon="0.78924">
        <ele>116.1</ele>
        <time>2018-05-17T00:22:40Z</time>
      </trkpt>
      <trkpt lat="44.50747" lon="0.78926">
        <ele>116.2</ele>
        <time>2018-05-17T00:22:41Z</time>
      </trkpt>
      <trkpt lat="44.5075" lon="0.78928">
        <ele>116.4</ele>
        <time>2018-05-17T00:22:42Z</time>
      </trkpt>
      <trkpt lat="44.50752" lon="0.7893">
        <ele>116.5</ele>
        <time>2018-05-17T00:22:43Z</time>
      </trkpt>
      <trkpt lat="44.50756" lon="0.7893">
        <ele>116.7</ele>
        <time>2018-05-17T00:22:44Z</time>
      </trkpt>
      <trkpt lat="44.50759" lon="0.78931">
        <ele>116.9</ele>
        <time>2018-05-17T00:22:45Z</time>
      </trkpt>
      <trkpt lat="44.50762" lon="0.78932">
        <ele>117</ele>
        <time>2018-05-17T00:22:46Z</time>
      </trkpt>
      <trkpt lat="44.50764" lon="0.78935">
        <ele>117.2</ele>
        <time>2018-05-17T00:22:47Z</time>
      </trkpt>
      <trkpt lat="44.50766" lon="0.78937">
        <ele>117.3</ele>
        <time>2018-05-17T00:22:48Z</time>
      </trkpt>
      <trkpt lat="44.50769" lon="0.78939">
        <ele>117.5</ele>
        <time>2018-05-17T00:22:49Z</time>
      </trkpt>
      <trkpt lat="44.50771" lon="0.78942">
        <ele>117.7</ele>
        <time>2018-05-17T00:22:50Z</time>
      </trkpt>
      <trkpt lat="44.50773" lon="0.78944">
        <ele>117.8</ele>
        <time>2018-05-17T00:22:51Z</time>
      </trkpt>
      <trkpt lat="44.50776" lon="0.78946">
        <ele>118</ele>
        <time>2018-05-17T00:22:52Z</time>
      </trkpt>
      <trkpt lat="44.50778" lon="0.78949">
        <ele>118.3</ele>
        <time>2018-05-17T00:22:53Z</time>
      </trkpt>
      <trkpt lat="44.50781" lon="0.78952">
        <ele>118.5</ele>
        <time>2018-05-17T00:22:54Z</time>
      </trkpt>
      <trkpt lat="44.50783" lon="0.78954">
        <ele>118.8</ele>
        <time>2018-05-17T00:22:55Z</time>
      </trkpt>
      <trkpt lat="44.50785" lon="0.78957">
        <ele>119.1</ele>
        <time>2018-05-17T00:22:56Z</time>
      </trkpt>
      <trkpt lat="44.50788" lon="0.78959">
        <ele>119.4</ele>
        <time>2018-05-17T00:22:57Z</time>
      </trkpt>
      <trkpt lat="44.50791" lon="0.78961">
        <ele>119.6</ele>
        <time>2018-05-17T00:22:58Z</time>
      </trkpt>
      <trkpt lat="44.50793" lon="0.78963">
        <ele>119.8</ele>
        <time>2018-05-17T00:22:59Z</time>
      </trkpt>
      <trkpt lat="44.50795" lon="0.78966">
        <ele>120.1</ele>
        <time>2018-05-17T00:23:00Z</time>
      </trkpt>
      <trkpt lat="44.50797" lon="0.7897">
        <ele>120.4</ele>
        <time>2018-05-17T00:23:01Z</time>
      </trkpt>
      <trkpt lat="44.508" lon="0.78973">
        <ele>120.7</ele>
        <time>2018-05-17T00:23:02Z</time>
      </trkpt>
      <trkpt lat="44.50801" lon="0.78976">
        <ele>120.9</ele>
        <time>2018-05-17T00:23:03Z</time>
      </trkpt>
      <trkpt lat="44.50804" lon="0.78979">
        <ele>121.2</ele>
        <time>2018-05-17T00:23:04Z</time>
      </trkpt>
      <trkpt lat="44.50806" lon="0.78982">
        <ele>121.5</ele>
        <time>2018-05-17T00:23:05Z</time>
      </trkpt>
      <trkpt lat="44.50808" lon="0.78985">
        <ele>121.8</ele>
        <time>2018-05-17T00:23:06Z</time>
      </trkpt>
      <trkpt lat="44.5081" lon="0.78988">
        <ele>122.2</ele>
        <time>2018-05-17T00:23:07Z</time>
      </trkpt>
      <trkpt lat="44.50812" lon="0.78992">
        <ele>122.4</ele>
        <time>2018-05-17T00:23:08Z</time>
      </trkpt>
      <trkpt lat="44.50814" lon="0.78995">
        <ele>122.5</ele>
        <time>2018-05-17T00:23:09Z</time>
      </trkpt>
      <trkpt lat="44.50816" lon="0.78999">
        <ele>122.8</ele>
        <time>2018-05-17T00:23:10Z</time>
      </trkpt>
      <trkpt lat="44.50817" lon="0.79002">
        <ele>123.1</ele>
        <time>2018-05-17T00:23:11Z</time>
      </trkpt>
      <trkpt lat="44.50819" lon="0.79006">
        <ele>123.3</ele>
        <time>2018-05-17T00:23:12Z</time>
      </trkpt>
      <trkpt lat="44.50821" lon="0.79012">
        <ele>123.6</ele>
        <time>2018-05-17T00:23:14Z</time>
      </trkpt>
      <trkpt lat="44.50824" lon="0.79018">
        <ele>124.1</ele>
        <time>2018-05-17T00:23:16Z</time>
      </trkpt>
      <trkpt lat="44.50826" lon="0.79021">
        <ele>124.3</ele>
        <time>2018-05-17T00:23:17Z</time>
      </trkpt>
      <trkpt lat="44.50829" lon="0.79027">
        <ele>124.7</ele>
        <time>2018-05-17T00:23:19Z</time>
      </trkpt>
      <trkpt lat="44.50832" lon="0.79033">
        <ele>125</ele>
        <time>2018-05-17T00:23:21Z</time>
      </trkpt>
      <trkpt lat="44.50834" lon="0.79036">
        <ele>125.2</ele>
        <time>2018-05-17T00:23:22Z</time>
      </trkpt>
      <trkpt lat="44.50836" lon="0.79039">
        <ele>125.4</ele>
        <time>2018-05-17T00:23:23Z</time>
      </trkpt>
      <trkpt lat="44.50839" lon="0.79045">
        <ele>125.9</ele>
        <time>2018-05-17T00:23:25Z</time>
      </trkpt>
      <trkpt lat="44.5084" lon="0.79048">
        <ele>126.2</ele>
        <time>2018-05-17T00:23:26Z</time>
      </trkpt>
      <trkpt lat="44.50842" lon="0.79051">
        <ele>126.4</ele>
        <time>2018-05-17T00:23:27Z</time>
      </trkpt>
      <trkpt lat="44.50845" lon="0.79057">
        <ele>126.9</ele>
        <time>2018-05-17T00:23:29Z</time>
      </trkpt>
      <trkpt lat="44.50846" lon="0.79061">
        <ele>127.1</ele>
        <time>2018-05-17T00:23:30Z</time>
      </trkpt>
      <trkpt lat="44.50847" lon="0.79065">
        <ele>127.4</ele>
        <time>2018-05-17T00:23:31Z</time>
      </trkpt>
      <trkpt lat="44.50848" lon="0.79068">
        <ele>127.6</ele>
        <time>2018-05-17T00:23:32Z</time>
      </trkpt>
      <trkpt lat="44.50849" lon="0.79071">
        <ele>127.8</ele>
        <time>2018-05-17T00:23:33Z</time>
      </trkpt>
      <trkpt lat="44.50851" lon="0.79075">
        <ele>128</ele>
        <time>2018-05-17T00:23:34Z</time>
      </trkpt>
      <trkpt lat="44.50853" lon="0.79078">
        <ele>128.3</ele>
        <time>2018-05-17T00:23:35Z</time>
      </trkpt>
      <trkpt lat="44.50856" lon="0.79083">
        <ele>128.9</ele>
        <time>2018-05-17T00:23:37Z</time>
      </trkpt>
      <trkpt lat="44.50859" lon="0.79089">
        <ele>129.4</ele>
        <time>2018-05-17T00:23:39Z</time>
      </trkpt>
      <trkpt lat="44.50862" lon="0.79094">
        <ele>129.8</ele>
        <time>2018-05-17T00:23:41Z</time>
      </trkpt>
      <trkpt lat="44.50865" lon="0.79099">
        <ele>130.3</ele>
        <time>2018-05-17T00:23:43Z</time>
      </trkpt>
      <trkpt lat="44.50867" lon="0.79106">
        <ele>130.9</ele>
        <time>2018-05-17T00:23:45Z</time>
      </trkpt>
      <trkpt lat="44.50871" lon="0.79111">
        <ele>131.5</ele>
        <time>2018-05-17T00:23:47Z</time>
      </trkpt>
      <trkpt lat="44.50872" lon="0.79114">
        <ele>131.9</ele>
        <time>2018-05-17T00:23:48Z</time>
      </trkpt>
      <trkpt lat="44.50874" lon="0.79117">
        <ele>132.2</ele>
        <time>2018-05-17T00:23:49Z</time>
      </trkpt>
      <trkpt lat="44.50877" lon="0.79124">
        <ele>132.7</ele>
        <time>2018-05-17T00:23:51Z</time>
      </trkpt>
      <trkpt lat="44.50879" lon="0.79131">
        <ele>133.3</ele>
        <time>2018-05-17T00:23:53Z</time>
      </trkpt>
      <trkpt lat="44.5088" lon="0.79135">
        <ele>133.6</ele>
        <time>2018-05-17T00:23:54Z</time>
      </trkpt>
      <trkpt lat="44.50881" lon="0.79139">
        <ele>134</ele>
        <time>2018-05-17T00:23:55Z</time>
      </trkpt>
      <trkpt lat="44.50884" lon="0.79145">
        <ele>134.9</ele>
        <time>2018-05-17T00:23:57Z</time>
      </trkpt>
      <trkpt lat="44.50886" lon="0.79148">
        <ele>135.3</ele>
        <time>2018-05-17T00:23:58Z</time>
      </trkpt>
      <trkpt lat="44.50889" lon="0.79155">
        <ele>136</ele>
        <time>2018-05-17T00:24:00Z</time>
      </trkpt>
      <trkpt lat="44.5089" lon="0.79162">
        <ele>136.5</ele>
        <time>2018-05-17T00:24:02Z</time>
      </trkpt>
      <trkpt lat="44.50892" lon="0.79168">
        <ele>137</ele>
        <time>2018-05-17T00:24:04Z</time>
      </trkpt>
      <trkpt lat="44.50893" lon="0.79171">
        <ele>137.4</ele>
        <time>2018-05-17T00:24:05Z</time>
      </trkpt>
      <trkpt lat="44.50894" lon="0.79175">
        <ele>137.8</ele>
        <time>2018-05-17T00:24:06Z</time>
      </trkpt>
      <trkpt lat="44.50896" lon="0.79179">
        <ele>138.3</ele>
        <time>2018-05-17T00:24:07Z</time>
      </trkpt>
      <trkpt lat="44.50897" lon="0.79183">
        <ele>138.5</ele>
        <time>2018-05-17T00:24:08Z</time>
      </trkpt>
      <trkpt lat="44.50901" lon="0.79188">
        <ele>138.9</ele>
        <time>2018-05-17T00:24:10Z</time>
      </trkpt>
      <trkpt lat="44.50904" lon="0.7919">
        <ele>139.1</ele>
        <time>2018-05-17T00:24:11Z</time>
      </trkpt>
      <trkpt lat="44.50907" lon="0.79195">
        <ele>139.4</ele>
        <time>2018-05-17T00:24:13Z</time>
      </trkpt>
      <trkpt lat="44.5091" lon="0.79201">
        <ele>139.7</ele>
        <time>2018-05-17T00:24:15Z</time>
      </trkpt>
      <trkpt lat="44.50913" lon="0.79206">
        <ele>140</ele>
        <time>2018-05-17T00:24:17Z</time>
      </trkpt>
      <trkpt lat="44.50915" lon="0.79209">
        <ele>140.2</ele>
        <time>2018-05-17T00:24:18Z</time>
      </trkpt>
      <trkpt lat="44.50916" lon="0.79213">
        <ele>140.4</ele>
        <time>2018-05-17T00:24:19Z</time>
      </trkpt>
      <trkpt lat="44.50918" lon="0.79216">
        <ele>140.5</ele>
        <time>2018-05-17T00:24:20Z</time>
      </trkpt>
      <trkpt lat="44.5092" lon="0.79219">
        <ele>140.7</ele>
        <time>2018-05-17T00:24:21Z</time>
      </trkpt>
      <trkpt lat="44.50921" lon="0.79222">
        <ele>140.8</ele>
        <time>2018-05-17T00:24:22Z</time>
      </trkpt>
      <trkpt lat="44.50923" lon="0.79226">
        <ele>140.9</ele>
        <time>2018-05-17T00:24:23Z</time>
      </trkpt>
      <trkpt lat="44.50925" lon="0.79229">
        <ele>141.1</ele>
        <time>2018-05-17T00:24:24Z</time>
      </trkpt>
      <trkpt lat="44.50927" lon="0.79232">
        <ele>141.2</ele>
        <time>2018-05-17T00:24:25Z</time>
      </trkpt>
      <trkpt lat="44.50929" lon="0.79235">
        <ele>141.4</ele>
        <time>2018-05-17T00:24:26Z</time>
      </trkpt>
      <trkpt lat="44.50931" lon="0.79239">
        <ele>141.5</ele>
        <time>2018-05-17T00:24:27Z</time>
      </trkpt>
      <trkpt lat="44.50932" lon="0.79242">
        <ele>141.6</ele>
        <time>2018-05-17T00:24:28Z</time>
      </trkpt>
      <trkpt lat="44.50934" lon="0.79245">
        <ele>141.7</ele>
        <time>2018-05-17T00:24:29Z</time>
      </trkpt>
      <trkpt lat="44.50936" lon="0.79248">
        <ele>141.7</ele>
        <time>2018-05-17T00:24:30Z</time>
      </trkpt>
      <trkpt lat="44.50939" lon="0.79254">
        <ele>141.9</ele>
        <time>2018-05-17T00:24:32Z</time>
      </trkpt>
      <trkpt lat="44.50942" lon="0.79259">
        <ele>142</ele>
        <time>2018-05-17T00:24:34Z</time>
      </trkpt>
      <trkpt lat="44.50944" lon="0.79266">
        <ele>142</ele>
        <time>2018-05-17T00:24:36Z</time>
      </trkpt>
      <trkpt lat="44.50944" lon="0.7927">
        <ele>142</ele>
        <time>2018-05-17T00:24:38Z</time>
      </trkpt>
      <trkpt lat="44.50941" lon="0.79272">
        <ele>142</ele>
        <time>2018-05-17T00:24:40Z</time>
      </trkpt>
      <trkpt lat="44.50936" lon="0.7927">
        <ele>142</ele>
        <time>2018-05-17T00:24:42Z</time>
      </trkpt>
      <trkpt lat="44.50931" lon="0.79271">
        <ele>141.9</ele>
        <time>2018-05-17T00:24:44Z</time>
      </trkpt>
      <trkpt lat="44.50928" lon="0.79271">
        <ele>141.8</ele>
        <time>2018-05-17T00:24:45Z</time>
      </trkpt>
      <trkpt lat="44.50925" lon="0.79273">
        <ele>141.7</ele>
        <time>2018-05-17T00:24:46Z</time>
      </trkpt>
      <trkpt lat="44.50921" lon="0.79271">
        <ele>141.6</ele>
        <time>2018-05-17T00:24:47Z</time>
      </trkpt>
      <trkpt lat="44.50918" lon="0.79272">
        <ele>141.5</ele>
        <time>2018-05-17T00:24:48Z</time>
      </trkpt>
      <trkpt lat="44.50914" lon="0.79276">
        <ele>141.4</ele>
        <time>2018-05-17T00:24:49Z</time>
      </trkpt>
      <trkpt lat="44.50911" lon="0.79278">
        <ele>141.2</ele>
        <time>2018-05-17T00:24:50Z</time>
      </trkpt>
      <trkpt lat="44.50908" lon="0.79281">
        <ele>141.1</ele>
        <time>2018-05-17T00:24:51Z</time>
      </trkpt>
      <trkpt lat="44.50904" lon="0.79286">
        <ele>140.9</ele>
        <time>2018-05-17T00:24:52Z</time>
      </trkpt>
      <trkpt lat="44.50901" lon="0.79292">
        <ele>140.7</ele>
        <time>2018-05-17T00:24:53Z</time>
      </trkpt>
      <trkpt lat="44.50898" lon="0.79298">
        <ele>140.4</ele>
        <time>2018-05-17T00:24:54Z</time>
      </trkpt>
      <trkpt lat="44.50895" lon="0.79303">
        <ele>140.1</ele>
        <time>2018-05-17T00:24:55Z</time>
      </trkpt>
      <trkpt lat="44.50892" lon="0.79309">
        <ele>139.7</ele>
        <time>2018-05-17T00:24:56Z</time>
      </trkpt>
      <trkpt lat="44.50889" lon="0.79315">
        <ele>139.6</ele>
        <time>2018-05-17T00:24:57Z</time>
      </trkpt>
      <trkpt lat="44.50886" lon="0.79321">
        <ele>139.5</ele>
        <time>2018-05-17T00:24:58Z</time>
      </trkpt>
      <trkpt lat="44.50882" lon="0.79327">
        <ele>139.4</ele>
        <time>2018-05-17T00:24:59Z</time>
      </trkpt>
      <trkpt lat="44.50878" lon="0.79335">
        <ele>139.2</ele>
        <time>2018-05-17T00:25:00Z</time>
      </trkpt>
      <trkpt lat="44.50874" lon="0.79341">
        <ele>138.9</ele>
        <time>2018-05-17T00:25:01Z</time>
      </trkpt>
      <trkpt lat="44.5087" lon="0.79349">
        <ele>138.6</ele>
        <time>2018-05-17T00:25:02Z</time>
      </trkpt>
      <trkpt lat="44.50866" lon="0.79356">
        <ele>138.2</ele>
        <time>2018-05-17T00:25:03Z</time>
      </trkpt>
      <trkpt lat="44.50862" lon="0.79364">
        <ele>137.5</ele>
        <time>2018-05-17T00:25:04Z</time>
      </trkpt>
      <trkpt lat="44.50857" lon="0.79371">
        <ele>137.1</ele>
        <time>2018-05-17T00:25:05Z</time>
      </trkpt>
      <trkpt lat="44.50852" lon="0.79377">
        <ele>136.4</ele>
        <time>2018-05-17T00:25:06Z</time>
      </trkpt>
      <trkpt lat="44.50848" lon="0.79383">
        <ele>136.1</ele>
        <time>2018-05-17T00:25:07Z</time>
      </trkpt>
      <trkpt lat="44.50843" lon="0.79388">
        <ele>135.6</ele>
        <time>2018-05-17T00:25:08Z</time>
      </trkpt>
      <trkpt lat="44.50837" lon="0.79392">
        <ele>135</ele>
        <time>2018-05-17T00:25:09Z</time>
      </trkpt>
      <trkpt lat="44.50831" lon="0.79393">
        <ele>134.6</ele>
        <time>2018-05-17T00:25:10Z</time>
      </trkpt>
      <trkpt lat="44.50827" lon="0.79393">
        <ele>134.4</ele>
        <time>2018-05-17T00:25:11Z</time>
      </trkpt>
      <trkpt lat="44.50822" lon="0.7939">
        <ele>134.1</ele>
        <time>2018-05-17T00:25:12Z</time>
      </trkpt>
      <trkpt lat="44.5082" lon="0.79387">
        <ele>134.1</ele>
        <time>2018-05-17T00:25:13Z</time>
      </trkpt>
      <trkpt lat="44.50817" lon="0.79383">
        <ele>134.2</ele>
        <time>2018-05-17T00:25:14Z</time>
      </trkpt>
      <trkpt lat="44.50813" lon="0.79379">
        <ele>134.2</ele>
        <time>2018-05-17T00:25:15Z</time>
      </trkpt>
      <trkpt lat="44.5081" lon="0.79375">
        <ele>134.3</ele>
        <time>2018-05-17T00:25:16Z</time>
      </trkpt>
      <trkpt lat="44.50806" lon="0.79371">
        <ele>134.4</ele>
        <time>2018-05-17T00:25:17Z</time>
      </trkpt>
      <trkpt lat="44.50803" lon="0.79367">
        <ele>134.5</ele>
        <time>2018-05-17T00:25:18Z</time>
      </trkpt>
      <trkpt lat="44.50799" lon="0.79364">
        <ele>134.4</ele>
        <time>2018-05-17T00:25:19Z</time>
      </trkpt>
      <trkpt lat="44.50796" lon="0.79361">
        <ele>134.5</ele>
        <time>2018-05-17T00:25:20Z</time>
      </trkpt>
      <trkpt lat="44.50792" lon="0.79359">
        <ele>134.6</ele>
        <time>2018-05-17T00:25:21Z</time>
      </trkpt>
      <trkpt lat="44.50789" lon="0.79356">
        <ele>134.6</ele>
        <time>2018-05-17T00:25:22Z</time>
      </trkpt>
      <trkpt lat="44.50786" lon="0.79354">
        <ele>134.7</ele>
        <time>2018-05-17T00:25:23Z</time>
      </trkpt>
      <trkpt lat="44.50782" lon="0.79353">
        <ele>134.6</ele>
        <time>2018-05-17T00:25:24Z</time>
      </trkpt>
      <trkpt lat="44.50778" lon="0.79351">
        <ele>134.5</ele>
        <time>2018-05-17T00:25:25Z</time>
      </trkpt>
      <trkpt lat="44.50774" lon="0.7935">
        <ele>134.5</ele>
        <time>2018-05-17T00:25:26Z</time>
      </trkpt>
      <trkpt lat="44.50769" lon="0.7935">
        <ele>134.4</ele>
        <time>2018-05-17T00:25:27Z</time>
      </trkpt>
      <trkpt lat="44.50764" lon="0.7935">
        <ele>134.3</ele>
        <time>2018-05-17T00:25:28Z</time>
      </trkpt>
      <trkpt lat="44.50759" lon="0.79351">
        <ele>134.1</ele>
        <time>2018-05-17T00:25:29Z</time>
      </trkpt>
      <trkpt lat="44.50755" lon="0.79353">
        <ele>134</ele>
        <time>2018-05-17T00:25:30Z</time>
      </trkpt>
      <trkpt lat="44.50751" lon="0.79354">
        <ele>133.9</ele>
        <time>2018-05-17T00:25:31Z</time>
      </trkpt>
      <trkpt lat="44.50746" lon="0.79359">
        <ele>133.6</ele>
        <time>2018-05-17T00:25:32Z</time>
      </trkpt>
      <trkpt lat="44.50742" lon="0.79363">
        <ele>133.3</ele>
        <time>2018-05-17T00:25:33Z</time>
      </trkpt>
      <trkpt lat="44.50737" lon="0.79368">
        <ele>132.7</ele>
        <time>2018-05-17T00:25:34Z</time>
      </trkpt>
      <trkpt lat="44.50734" lon="0.79373">
        <ele>132.3</ele>
        <time>2018-05-17T00:25:35Z</time>
      </trkpt>
      <trkpt lat="44.50732" lon="0.79379">
        <ele>132</ele>
        <time>2018-05-17T00:25:36Z</time>
      </trkpt>
      <trkpt lat="44.50729" lon="0.79386">
        <ele>131.5</ele>
        <time>2018-05-17T00:25:37Z</time>
      </trkpt>
      <trkpt lat="44.50727" lon="0.79393">
        <ele>131.2</ele>
        <time>2018-05-17T00:25:38Z</time>
      </trkpt>
      <trkpt lat="44.50725" lon="0.79399">
        <ele>130.8</ele>
        <time>2018-05-17T00:25:39Z</time>
      </trkpt>
      <trkpt lat="44.50722" lon="0.79407">
        <ele>130.3</ele>
        <time>2018-05-17T00:25:40Z</time>
      </trkpt>
      <trkpt lat="44.5072" lon="0.79415">
        <ele>130.2</ele>
        <time>2018-05-17T00:25:41Z</time>
      </trkpt>
      <trkpt lat="44.50718" lon="0.79423">
        <ele>129.9</ele>
        <time>2018-05-17T00:25:42Z</time>
      </trkpt>
      <trkpt lat="44.50716" lon="0.79431">
        <ele>129.6</ele>
        <time>2018-05-17T00:25:43Z</time>
      </trkpt>
      <trkpt lat="44.50714" lon="0.79439">
        <ele>129.4</ele>
        <time>2018-05-17T00:25:44Z</time>
      </trkpt>
      <trkpt lat="44.50712" lon="0.79446">
        <ele>129.2</ele>
        <time>2018-05-17T00:25:45Z</time>
      </trkpt>
      <trkpt lat="44.5071" lon="0.79455">
        <ele>128.9</ele>
        <time>2018-05-17T00:25:46Z</time>
      </trkpt>
      <trkpt lat="44.50707" lon="0.79463">
        <ele>128.7</ele>
        <time>2018-05-17T00:25:47Z</time>
      </trkpt>
      <trkpt lat="44.50705" lon="0.79471">
        <ele>128.5</ele>
        <time>2018-05-17T00:25:48Z</time>
      </trkpt>
      <trkpt lat="44.50702" lon="0.79479">
        <ele>128.5</ele>
        <time>2018-05-17T00:25:49Z</time>
      </trkpt>
      <trkpt lat="44.50699" lon="0.79487">
        <ele>128.3</ele>
        <time>2018-05-17T00:25:50Z</time>
      </trkpt>
      <trkpt lat="44.50697" lon="0.79493">
        <ele>128.1</ele>
        <time>2018-05-17T00:25:51Z</time>
      </trkpt>
      <trkpt lat="44.50693" lon="0.795">
        <ele>128.1</ele>
        <time>2018-05-17T00:25:52Z</time>
      </trkpt>
      <trkpt lat="44.5069" lon="0.79505">
        <ele>127.9</ele>
        <time>2018-05-17T00:25:53Z</time>
      </trkpt>
      <trkpt lat="44.50686" lon="0.79511">
        <ele>127.9</ele>
        <time>2018-05-17T00:25:54Z</time>
      </trkpt>
      <trkpt lat="44.50683" lon="0.79518">
        <ele>127.8</ele>
        <time>2018-05-17T00:25:55Z</time>
      </trkpt>
      <trkpt lat="44.50679" lon="0.79524">
        <ele>127.6</ele>
        <time>2018-05-17T00:25:56Z</time>
      </trkpt>
      <trkpt lat="44.50676" lon="0.7953">
        <ele>127.7</ele>
        <time>2018-05-17T00:25:57Z</time>
      </trkpt>
      <trkpt lat="44.50672" lon="0.79536">
        <ele>127.4</ele>
        <time>2018-05-17T00:25:58Z</time>
      </trkpt>
      <trkpt lat="44.50669" lon="0.79541">
        <ele>127.3</ele>
        <time>2018-05-17T00:25:59Z</time>
      </trkpt>
      <trkpt lat="44.50665" lon="0.79545">
        <ele>127.3</ele>
        <time>2018-05-17T00:26:00Z</time>
      </trkpt>
      <trkpt lat="44.50662" lon="0.7955">
        <ele>127.2</ele>
        <time>2018-05-17T00:26:01Z</time>
      </trkpt>
      <trkpt lat="44.50658" lon="0.79555">
        <ele>127.1</ele>
        <time>2018-05-17T00:26:02Z</time>
      </trkpt>
      <trkpt lat="44.50655" lon="0.7956">
        <ele>127</ele>
        <time>2018-05-17T00:26:03Z</time>
      </trkpt>
      <trkpt lat="44.50651" lon="0.79564">
        <ele>127.1</ele>
        <time>2018-05-17T00:26:04Z</time>
      </trkpt>
      <trkpt lat="44.50647" lon="0.79567">
        <ele>127</ele>
        <time>2018-05-17T00:26:05Z</time>
      </trkpt>
      <trkpt lat="44.50643" lon="0.7957">
        <ele>126.9</ele>
        <time>2018-05-17T00:26:06Z</time>
      </trkpt>
      <trkpt lat="44.50639" lon="0.79572">
        <ele>127</ele>
        <time>2018-05-17T00:26:07Z</time>
      </trkpt>
      <trkpt lat="44.50635" lon="0.79576">
        <ele>127</ele>
        <time>2018-05-17T00:26:08Z</time>
      </trkpt>
      <trkpt lat="44.5063" lon="0.79578">
        <ele>127.2</ele>
        <time>2018-05-17T00:26:09Z</time>
      </trkpt>
      <trkpt lat="44.50624" lon="0.79579">
        <ele>127.1</ele>
        <time>2018-05-17T00:26:10Z</time>
      </trkpt>
      <trkpt lat="44.50619" lon="0.79582">
        <ele>127.1</ele>
        <time>2018-05-17T00:26:11Z</time>
      </trkpt>
      <trkpt lat="44.50615" lon="0.79586">
        <ele>127.4</ele>
        <time>2018-05-17T00:26:12Z</time>
      </trkpt>
      <trkpt lat="44.50611" lon="0.79589">
        <ele>127.3</ele>
        <time>2018-05-17T00:26:13Z</time>
      </trkpt>
      <trkpt lat="44.50607" lon="0.79593">
        <ele>127.3</ele>
        <time>2018-05-17T00:26:14Z</time>
      </trkpt>
      <trkpt lat="44.50604" lon="0.79599">
        <ele>127.3</ele>
        <time>2018-05-17T00:26:15Z</time>
      </trkpt>
      <trkpt lat="44.50601" lon="0.79603">
        <ele>127.4</ele>
        <time>2018-05-17T00:26:16Z</time>
      </trkpt>
      <trkpt lat="44.50597" lon="0.79607">
        <ele>127.4</ele>
        <time>2018-05-17T00:26:17Z</time>
      </trkpt>
      <trkpt lat="44.50592" lon="0.79611">
        <ele>127.5</ele>
        <time>2018-05-17T00:26:18Z</time>
      </trkpt>
      <trkpt lat="44.50588" lon="0.79616">
        <ele>127.4</ele>
        <time>2018-05-17T00:26:19Z</time>
      </trkpt>
      <trkpt lat="44.50584" lon="0.79621">
        <ele>127.5</ele>
        <time>2018-05-17T00:26:20Z</time>
      </trkpt>
      <trkpt lat="44.50579" lon="0.79625">
        <ele>127.4</ele>
        <time>2018-05-17T00:26:21Z</time>
      </trkpt>
      <trkpt lat="44.50574" lon="0.79629">
        <ele>127.5</ele>
        <time>2018-05-17T00:26:22Z</time>
      </trkpt>
      <trkpt lat="44.5057" lon="0.79632">
        <ele>127.4</ele>
        <time>2018-05-17T00:26:23Z</time>
      </trkpt>
      <trkpt lat="44.50565" lon="0.79636">
        <ele>127.4</ele>
        <time>2018-05-17T00:26:24Z</time>
      </trkpt>
      <trkpt lat="44.50561" lon="0.79638">
        <ele>127.4</ele>
        <time>2018-05-17T00:26:25Z</time>
      </trkpt>
      <trkpt lat="44.50557" lon="0.79643">
        <ele>127.4</ele>
        <time>2018-05-17T00:26:27Z</time>
      </trkpt>
      <trkpt lat="44.50547" lon="0.79647">
        <ele>127.8</ele>
        <time>2018-05-17T00:26:28Z</time>
      </trkpt>
      <trkpt lat="44.50542" lon="0.79652">
        <ele>127.7</ele>
        <time>2018-05-17T00:26:29Z</time>
      </trkpt>
      <trkpt lat="44.50539" lon="0.79657">
        <ele>127.7</ele>
        <time>2018-05-17T00:26:30Z</time>
      </trkpt>
      <trkpt lat="44.50535" lon="0.79663">
        <ele>127.7</ele>
        <time>2018-05-17T00:26:31Z</time>
      </trkpt>
      <trkpt lat="44.50533" lon="0.79673">
        <ele>127.1</ele>
        <time>2018-05-17T00:26:32Z</time>
      </trkpt>
      <trkpt lat="44.50536" lon="0.79686">
        <ele>126.4</ele>
        <time>2018-05-17T00:26:33Z</time>
      </trkpt>
      <trkpt lat="44.50538" lon="0.79698">
        <ele>125.9</ele>
        <time>2018-05-17T00:26:34Z</time>
      </trkpt>
      <trkpt lat="44.50539" lon="0.79708">
        <ele>125.1</ele>
        <time>2018-05-17T00:26:35Z</time>
      </trkpt>
      <trkpt lat="44.5054" lon="0.79721">
        <ele>124.3</ele>
        <time>2018-05-17T00:26:36Z</time>
      </trkpt>
      <trkpt lat="44.50542" lon="0.79731">
        <ele>123.8</ele>
        <time>2018-05-17T00:26:37Z</time>
      </trkpt>
      <trkpt lat="44.50542" lon="0.7974">
        <ele>123.3</ele>
        <time>2018-05-17T00:26:38Z</time>
      </trkpt>
      <trkpt lat="44.50543" lon="0.7975">
        <ele>122.7</ele>
        <time>2018-05-17T00:26:39Z</time>
      </trkpt>
      <trkpt lat="44.50545" lon="0.79758">
        <ele>122</ele>
        <time>2018-05-17T00:26:40Z</time>
      </trkpt>
      <trkpt lat="44.50546" lon="0.79767">
        <ele>121.9</ele>
        <time>2018-05-17T00:26:41Z</time>
      </trkpt>
      <trkpt lat="44.50547" lon="0.79775">
        <ele>121.8</ele>
        <time>2018-05-17T00:26:42Z</time>
      </trkpt>
      <trkpt lat="44.50547" lon="0.79783">
        <ele>121.7</ele>
        <time>2018-05-17T00:26:43Z</time>
      </trkpt>
      <trkpt lat="44.50545" lon="0.7979">
        <ele>121.6</ele>
        <time>2018-05-17T00:26:44Z</time>
      </trkpt>
      <trkpt lat="44.50541" lon="0.79796">
        <ele>121.5</ele>
        <time>2018-05-17T00:26:45Z</time>
      </trkpt>
      <trkpt lat="44.50536" lon="0.79802">
        <ele>121.4</ele>
        <time>2018-05-17T00:26:46Z</time>
      </trkpt>
      <trkpt lat="44.5053" lon="0.79807">
        <ele>121.4</ele>
        <time>2018-05-17T00:26:47Z</time>
      </trkpt>
      <trkpt lat="44.50525" lon="0.79813">
        <ele>121.2</ele>
        <time>2018-05-17T00:26:48Z</time>
      </trkpt>
      <trkpt lat="44.5052" lon="0.79818">
        <ele>121.1</ele>
        <time>2018-05-17T00:26:49Z</time>
      </trkpt>
      <trkpt lat="44.50515" lon="0.79824">
        <ele>121</ele>
        <time>2018-05-17T00:26:50Z</time>
      </trkpt>
      <trkpt lat="44.5051" lon="0.7983">
        <ele>120.8</ele>
        <time>2018-05-17T00:26:51Z</time>
      </trkpt>
      <trkpt lat="44.50504" lon="0.79836">
        <ele>120.6</ele>
        <time>2018-05-17T00:26:52Z</time>
      </trkpt>
      <trkpt lat="44.50499" lon="0.79842">
        <ele>120.6</ele>
        <time>2018-05-17T00:26:53Z</time>
      </trkpt>
      <trkpt lat="44.50493" lon="0.79847">
        <ele>120.5</ele>
        <time>2018-05-17T00:26:54Z</time>
      </trkpt>
      <trkpt lat="44.50487" lon="0.79853">
        <ele>120.4</ele>
        <time>2018-05-17T00:26:55Z</time>
      </trkpt>
      <trkpt lat="44.50482" lon="0.79858">
        <ele>120.4</ele>
        <time>2018-05-17T00:26:56Z</time>
      </trkpt>
      <trkpt lat="44.50476" lon="0.79863">
        <ele>120.5</ele>
        <time>2018-05-17T00:26:57Z</time>
      </trkpt>
      <trkpt lat="44.5047" lon="0.79868">
        <ele>120.4</ele>
        <time>2018-05-17T00:26:58Z</time>
      </trkpt>
      <trkpt lat="44.50464" lon="0.79874">
        <ele>120.3</ele>
        <time>2018-05-17T00:26:59Z</time>
      </trkpt>
      <trkpt lat="44.50458" lon="0.79878">
        <ele>120.2</ele>
        <time>2018-05-17T00:27:00Z</time>
      </trkpt>
      <trkpt lat="44.50452" lon="0.79884">
        <ele>120.1</ele>
        <time>2018-05-17T00:27:01Z</time>
      </trkpt>
      <trkpt lat="44.50446" lon="0.79888">
        <ele>119.8</ele>
        <time>2018-05-17T00:27:02Z</time>
      </trkpt>
      <trkpt lat="44.50439" lon="0.79892">
        <ele>119.5</ele>
        <time>2018-05-17T00:27:03Z</time>
      </trkpt>
      <trkpt lat="44.50433" lon="0.79897">
        <ele>119.3</ele>
        <time>2018-05-17T00:27:04Z</time>
      </trkpt>
      <trkpt lat="44.50426" lon="0.799">
        <ele>119.1</ele>
        <time>2018-05-17T00:27:05Z</time>
      </trkpt>
      <trkpt lat="44.50419" lon="0.79904">
        <ele>118.9</ele>
        <time>2018-05-17T00:27:06Z</time>
      </trkpt>
      <trkpt lat="44.50412" lon="0.79908">
        <ele>118.7</ele>
        <time>2018-05-17T00:27:07Z</time>
      </trkpt>
      <trkpt lat="44.50405" lon="0.79912">
        <ele>118.4</ele>
        <time>2018-05-17T00:27:08Z</time>
      </trkpt>
      <trkpt lat="44.504" lon="0.79919">
        <ele>118</ele>
        <time>2018-05-17T00:27:09Z</time>
      </trkpt>
      <trkpt lat="44.50396" lon="0.79927">
        <ele>117.4</ele>
        <time>2018-05-17T00:27:10Z</time>
      </trkpt>
      <trkpt lat="44.50391" lon="0.79937">
        <ele>116.7</ele>
        <time>2018-05-17T00:27:11Z</time>
      </trkpt>
      <trkpt lat="44.50389" lon="0.79949">
        <ele>116</ele>
        <time>2018-05-17T00:27:12Z</time>
      </trkpt>
      <trkpt lat="44.50386" lon="0.79962">
        <ele>115.1</ele>
        <time>2018-05-17T00:27:13Z</time>
      </trkpt>
      <trkpt lat="44.50383" lon="0.79975">
        <ele>114</ele>
        <time>2018-05-17T00:27:14Z</time>
      </trkpt>
      <trkpt lat="44.50379" lon="0.79988">
        <ele>112.8</ele>
        <time>2018-05-17T00:27:15Z</time>
      </trkpt>
      <trkpt lat="44.50375" lon="0.80003">
        <ele>111.7</ele>
        <time>2018-05-17T00:27:16Z</time>
      </trkpt>
      <trkpt lat="44.50361" lon="0.80013">
        <ele>110.2</ele>
        <time>2018-05-17T00:27:17Z</time>
      </trkpt>
      <trkpt lat="44.50365" lon="0.80031">
        <ele>109.4</ele>
        <time>2018-05-17T00:27:18Z</time>
      </trkpt>
      <trkpt lat="44.50364" lon="0.80049">
        <ele>108.5</ele>
        <time>2018-05-17T00:27:19Z</time>
      </trkpt>
      <trkpt lat="44.50361" lon="0.80068">
        <ele>107.8</ele>
        <time>2018-05-17T00:27:20Z</time>
      </trkpt>
      <trkpt lat="44.50359" lon="0.80084">
        <ele>107.3</ele>
        <time>2018-05-17T00:27:21Z</time>
      </trkpt>
      <trkpt lat="44.50355" lon="0.80099">
        <ele>106.8</ele>
        <time>2018-05-17T00:27:22Z</time>
      </trkpt>
      <trkpt lat="44.50351" lon="0.80115">
        <ele>106.4</ele>
        <time>2018-05-17T00:27:23Z</time>
      </trkpt>
      <trkpt lat="44.50347" lon="0.80132">
        <ele>105.8</ele>
        <time>2018-05-17T00:27:24Z</time>
      </trkpt>
      <trkpt lat="44.50344" lon="0.80148">
        <ele>105.3</ele>
        <time>2018-05-17T00:27:25Z</time>
      </trkpt>
      <trkpt lat="44.50341" lon="0.80164">
        <ele>104.9</ele>
        <time>2018-05-17T00:27:26Z</time>
      </trkpt>
      <trkpt lat="44.50337" lon="0.80179">
        <ele>104.7</ele>
        <time>2018-05-17T00:27:27Z</time>
      </trkpt>
      <trkpt lat="44.50334" lon="0.80194">
        <ele>104.6</ele>
        <time>2018-05-17T00:27:28Z</time>
      </trkpt>
      <trkpt lat="44.5033" lon="0.80208">
        <ele>104.5</ele>
        <time>2018-05-17T00:27:29Z</time>
      </trkpt>
      <trkpt lat="44.50327" lon="0.80223">
        <ele>104.5</ele>
        <time>2018-05-17T00:27:30Z</time>
      </trkpt>
      <trkpt lat="44.50323" lon="0.80237">
        <ele>104.6</ele>
        <time>2018-05-17T00:27:31Z</time>
      </trkpt>
      <trkpt lat="44.5032" lon="0.80251">
        <ele>104.7</ele>
        <time>2018-05-17T00:27:32Z</time>
      </trkpt>
      <trkpt lat="44.50316" lon="0.80264">
        <ele>104.8</ele>
        <time>2018-05-17T00:27:33Z</time>
      </trkpt>
      <trkpt lat="44.50313" lon="0.80275">
        <ele>104.9</ele>
        <time>2018-05-17T00:27:34Z</time>
      </trkpt>
      <trkpt lat="44.50308" lon="0.80285">
        <ele>105.1</ele>
        <time>2018-05-17T00:27:35Z</time>
      </trkpt>
      <trkpt lat="44.50304" lon="0.80293">
        <ele>105.3</ele>
        <time>2018-05-17T00:27:36Z</time>
      </trkpt>
      <trkpt lat="44.50299" lon="0.80301">
        <ele>105.5</ele>
        <time>2018-05-17T00:27:37Z</time>
      </trkpt>
      <trkpt lat="44.50297" lon="0.8031">
        <ele>105.7</ele>
        <time>2018-05-17T00:27:38Z</time>
      </trkpt>
      <trkpt lat="44.50293" lon="0.80318">
        <ele>105.9</ele>
        <time>2018-05-17T00:27:39Z</time>
      </trkpt>
      <trkpt lat="44.5029" lon="0.80325">
        <ele>106.2</ele>
        <time>2018-05-17T00:27:40Z</time>
      </trkpt>
      <trkpt lat="44.50287" lon="0.80333">
        <ele>106.5</ele>
        <time>2018-05-17T00:27:41Z</time>
      </trkpt>
      <trkpt lat="44.50284" lon="0.8034">
        <ele>106.7</ele>
        <time>2018-05-17T00:27:42Z</time>
      </trkpt>
      <trkpt lat="44.50281" lon="0.80346">
        <ele>107</ele>
        <time>2018-05-17T00:27:43Z</time>
      </trkpt>
      <trkpt lat="44.5028" lon="0.80353">
        <ele>107.3</ele>
        <time>2018-05-17T00:27:44Z</time>
      </trkpt>
      <trkpt lat="44.50278" lon="0.80359">
        <ele>107.6</ele>
        <time>2018-05-17T00:27:45Z</time>
      </trkpt>
      <trkpt lat="44.50276" lon="0.80366">
        <ele>107.9</ele>
        <time>2018-05-17T00:27:46Z</time>
      </trkpt>
      <trkpt lat="44.50274" lon="0.80373">
        <ele>108.2</ele>
        <time>2018-05-17T00:27:47Z</time>
      </trkpt>
      <trkpt lat="44.50273" lon="0.80378">
        <ele>108.4</ele>
        <time>2018-05-17T00:27:48Z</time>
      </trkpt>
      <trkpt lat="44.50271" lon="0.80384">
        <ele>108.6</ele>
        <time>2018-05-17T00:27:49Z</time>
      </trkpt>
      <trkpt lat="44.5027" lon="0.80389">
        <ele>108.9</ele>
        <time>2018-05-17T00:27:50Z</time>
      </trkpt>
      <trkpt lat="44.50268" lon="0.80394">
        <ele>109</ele>
        <time>2018-05-17T00:27:51Z</time>
      </trkpt>
      <trkpt lat="44.50267" lon="0.80399">
        <ele>109</ele>
        <time>2018-05-17T00:27:52Z</time>
      </trkpt>
      <trkpt lat="44.50265" lon="0.80403">
        <ele>109</ele>
        <time>2018-05-17T00:27:53Z</time>
      </trkpt>
      <trkpt lat="44.50261" lon="0.80402">
        <ele>108.9</ele>
        <time>2018-05-17T00:27:54Z</time>
      </trkpt>
      <trkpt lat="44.50257" lon="0.80397">
        <ele>108.8</ele>
        <time>2018-05-17T00:27:56Z</time>
      </trkpt>
      <trkpt lat="44.50255" lon="0.80391">
        <ele>108.8</ele>
        <time>2018-05-17T00:27:57Z</time>
      </trkpt>
      <trkpt lat="44.50252" lon="0.80385">
        <ele>108.7</ele>
        <time>2018-05-17T00:27:58Z</time>
      </trkpt>
      <trkpt lat="44.50248" lon="0.80378">
        <ele>108.6</ele>
        <time>2018-05-17T00:27:59Z</time>
      </trkpt>
      <trkpt lat="44.50243" lon="0.80372">
        <ele>108.5</ele>
        <time>2018-05-17T00:28:00Z</time>
      </trkpt>
      <trkpt lat="44.50236" lon="0.80366">
        <ele>108.4</ele>
        <time>2018-05-17T00:28:01Z</time>
      </trkpt>
      <trkpt lat="44.50229" lon="0.8036">
        <ele>108.2</ele>
        <time>2018-05-17T00:28:02Z</time>
      </trkpt>
      <trkpt lat="44.50221" lon="0.80355">
        <ele>108</ele>
        <time>2018-05-17T00:28:03Z</time>
      </trkpt>
      <trkpt lat="44.50213" lon="0.8035">
        <ele>107.7</ele>
        <time>2018-05-17T00:28:04Z</time>
      </trkpt>
      <trkpt lat="44.50204" lon="0.80345">
        <ele>107.5</ele>
        <time>2018-05-17T00:28:05Z</time>
      </trkpt>
      <trkpt lat="44.50195" lon="0.8034">
        <ele>107.1</ele>
        <time>2018-05-17T00:28:06Z</time>
      </trkpt>
      <trkpt lat="44.50186" lon="0.80335">
        <ele>106.8</ele>
        <time>2018-05-17T00:28:07Z</time>
      </trkpt>
      <trkpt lat="44.50177" lon="0.80331">
        <ele>106.4</ele>
        <time>2018-05-17T00:28:08Z</time>
      </trkpt>
      <trkpt lat="44.50167" lon="0.80326">
        <ele>106</ele>
        <time>2018-05-17T00:28:09Z</time>
      </trkpt>
      <trkpt lat="44.50157" lon="0.80322">
        <ele>105.4</ele>
        <time>2018-05-17T00:28:10Z</time>
      </trkpt>
      <trkpt lat="44.50147" lon="0.80321">
        <ele>104.9</ele>
        <time>2018-05-17T00:28:11Z</time>
      </trkpt>
      <trkpt lat="44.50136" lon="0.80321">
        <ele>104.2</ele>
        <time>2018-05-17T00:28:12Z</time>
      </trkpt>
      <trkpt lat="44.50124" lon="0.80322">
        <ele>103.5</ele>
        <time>2018-05-17T00:28:13Z</time>
      </trkpt>
      <trkpt lat="44.50113" lon="0.80322">
        <ele>102.8</ele>
        <time>2018-05-17T00:28:14Z</time>
      </trkpt>
      <trkpt lat="44.501" lon="0.80321">
        <ele>102.1</ele>
        <time>2018-05-17T00:28:15Z</time>
      </trkpt>
      <trkpt lat="44.5009" lon="0.8032">
        <ele>101.6</ele>
        <time>2018-05-17T00:28:16Z</time>
      </trkpt>
      <trkpt lat="44.5008" lon="0.8032">
        <ele>101.3</ele>
        <time>2018-05-17T00:28:17Z</time>
      </trkpt>
      <trkpt lat="44.5007" lon="0.80319">
        <ele>101</ele>
        <time>2018-05-17T00:28:18Z</time>
      </trkpt>
      <trkpt lat="44.50061" lon="0.80319">
        <ele>100.9</ele>
        <time>2018-05-17T00:28:19Z</time>
      </trkpt>
      <trkpt lat="44.50052" lon="0.80319">
        <ele>100.9</ele>
        <time>2018-05-17T00:28:20Z</time>
      </trkpt>
      <trkpt lat="44.50043" lon="0.80318">
        <ele>100.9</ele>
        <time>2018-05-17T00:28:21Z</time>
      </trkpt>
      <trkpt lat="44.50034" lon="0.80318">
        <ele>101</ele>
        <time>2018-05-17T00:28:22Z</time>
      </trkpt>
      <trkpt lat="44.50026" lon="0.80316">
        <ele>101.1</ele>
        <time>2018-05-17T00:28:23Z</time>
      </trkpt>
      <trkpt lat="44.50019" lon="0.80313">
        <ele>101.2</ele>
        <time>2018-05-17T00:28:24Z</time>
      </trkpt>
      <trkpt lat="44.50011" lon="0.80308">
        <ele>101.4</ele>
        <time>2018-05-17T00:28:25Z</time>
      </trkpt>
      <trkpt lat="44.50007" lon="0.80305">
        <ele>101.4</ele>
        <time>2018-05-17T00:28:26Z</time>
      </trkpt>
      <trkpt lat="44.50002" lon="0.80303">
        <ele>101.6</ele>
        <time>2018-05-17T00:28:27Z</time>
      </trkpt>
      <trkpt lat="44.49998" lon="0.80297">
        <ele>101.7</ele>
        <time>2018-05-17T00:28:28Z</time>
      </trkpt>
      <trkpt lat="44.49995" lon="0.80291">
        <ele>101.9</ele>
        <time>2018-05-17T00:28:29Z</time>
      </trkpt>
      <trkpt lat="44.49992" lon="0.80285">
        <ele>102</ele>
        <time>2018-05-17T00:28:30Z</time>
      </trkpt>
      <trkpt lat="44.49989" lon="0.8028">
        <ele>102</ele>
        <time>2018-05-17T00:28:31Z</time>
      </trkpt>
      <trkpt lat="44.49986" lon="0.80274">
        <ele>102.2</ele>
        <time>2018-05-17T00:28:32Z</time>
      </trkpt>
      <trkpt lat="44.49982" lon="0.80269">
        <ele>102.3</ele>
        <time>2018-05-17T00:28:33Z</time>
      </trkpt>
      <trkpt lat="44.49978" lon="0.80264">
        <ele>102.4</ele>
        <time>2018-05-17T00:28:34Z</time>
      </trkpt>
      <trkpt lat="44.49975" lon="0.80259">
        <ele>102.5</ele>
        <time>2018-05-17T00:28:35Z</time>
      </trkpt>
      <trkpt lat="44.49971" lon="0.80254">
        <ele>102.7</ele>
        <time>2018-05-17T00:28:36Z</time>
      </trkpt>
      <trkpt lat="44.49968" lon="0.8025">
        <ele>102.8</ele>
        <time>2018-05-17T00:28:37Z</time>
      </trkpt>
      <trkpt lat="44.49965" lon="0.80245">
        <ele>102.9</ele>
        <time>2018-05-17T00:28:38Z</time>
      </trkpt>
      <trkpt lat="44.49961" lon="0.80241">
        <ele>103.2</ele>
        <time>2018-05-17T00:28:39Z</time>
      </trkpt>
      <trkpt lat="44.49957" lon="0.80237">
        <ele>103.5</ele>
        <time>2018-05-17T00:28:40Z</time>
      </trkpt>
      <trkpt lat="44.49953" lon="0.80234">
        <ele>103.9</ele>
        <time>2018-05-17T00:28:41Z</time>
      </trkpt>
      <trkpt lat="44.4995" lon="0.8023">
        <ele>104.2</ele>
        <time>2018-05-17T00:28:42Z</time>
      </trkpt>
      <trkpt lat="44.49945" lon="0.80226">
        <ele>104.6</ele>
        <time>2018-05-17T00:28:43Z</time>
      </trkpt>
      <trkpt lat="44.49941" lon="0.80222">
        <ele>104.9</ele>
        <time>2018-05-17T00:28:44Z</time>
      </trkpt>
      <trkpt lat="44.49937" lon="0.80218">
        <ele>105</ele>
        <time>2018-05-17T00:28:45Z</time>
      </trkpt>
      <trkpt lat="44.49931" lon="0.80214">
        <ele>105.1</ele>
        <time>2018-05-17T00:28:46Z</time>
      </trkpt>
      <trkpt lat="44.49925" lon="0.80211">
        <ele>105.3</ele>
        <time>2018-05-17T00:28:47Z</time>
      </trkpt>
      <trkpt lat="44.49919" lon="0.80208">
        <ele>105.4</ele>
        <time>2018-05-17T00:28:48Z</time>
      </trkpt>
      <trkpt lat="44.49914" lon="0.80204">
        <ele>105.5</ele>
        <time>2018-05-17T00:28:49Z</time>
      </trkpt>
      <trkpt lat="44.49909" lon="0.80201">
        <ele>105.6</ele>
        <time>2018-05-17T00:28:50Z</time>
      </trkpt>
      <trkpt lat="44.49905" lon="0.80198">
        <ele>105.7</ele>
        <time>2018-05-17T00:28:51Z</time>
      </trkpt>
      <trkpt lat="44.49902" lon="0.80194">
        <ele>105.7</ele>
        <time>2018-05-17T00:28:52Z</time>
      </trkpt>
      <trkpt lat="44.49898" lon="0.80191">
        <ele>105.8</ele>
        <time>2018-05-17T00:28:53Z</time>
      </trkpt>
      <trkpt lat="44.49894" lon="0.80187">
        <ele>105.9</ele>
        <time>2018-05-17T00:28:54Z</time>
      </trkpt>
      <trkpt lat="44.49891" lon="0.80183">
        <ele>105.9</ele>
        <time>2018-05-17T00:28:55Z</time>
      </trkpt>
      <trkpt lat="44.49887" lon="0.80179">
        <ele>106.1</ele>
        <time>2018-05-17T00:28:56Z</time>
      </trkpt>
      <trkpt lat="44.49883" lon="0.80176">
        <ele>106.2</ele>
        <time>2018-05-17T00:28:57Z</time>
      </trkpt>
      <trkpt lat="44.49879" lon="0.80173">
        <ele>106.3</ele>
        <time>2018-05-17T00:28:58Z</time>
      </trkpt>
      <trkpt lat="44.49876" lon="0.8017">
        <ele>106.4</ele>
        <time>2018-05-17T00:28:59Z</time>
      </trkpt>
      <trkpt lat="44.49873" lon="0.80167">
        <ele>106.5</ele>
        <time>2018-05-17T00:29:00Z</time>
      </trkpt>
      <trkpt lat="44.49869" lon="0.80164">
        <ele>106.6</ele>
        <time>2018-05-17T00:29:01Z</time>
      </trkpt>
      <trkpt lat="44.49865" lon="0.80162">
        <ele>106.7</ele>
        <time>2018-05-17T00:29:02Z</time>
      </trkpt>
      <trkpt lat="44.49862" lon="0.8016">
        <ele>106.8</ele>
        <time>2018-05-17T00:29:03Z</time>
      </trkpt>
      <trkpt lat="44.49858" lon="0.80157">
        <ele>107</ele>
        <time>2018-05-17T00:29:04Z</time>
      </trkpt>
      <trkpt lat="44.49855" lon="0.80154">
        <ele>107.3</ele>
        <time>2018-05-17T00:29:05Z</time>
      </trkpt>
      <trkpt lat="44.49852" lon="0.80152">
        <ele>107.6</ele>
        <time>2018-05-17T00:29:06Z</time>
      </trkpt>
      <trkpt lat="44.49849" lon="0.80151">
        <ele>107.8</ele>
        <time>2018-05-17T00:29:07Z</time>
      </trkpt>
      <trkpt lat="44.49845" lon="0.80153">
        <ele>108.1</ele>
        <time>2018-05-17T00:29:08Z</time>
      </trkpt>
      <trkpt lat="44.49843" lon="0.80155">
        <ele>108.4</ele>
        <time>2018-05-17T00:29:09Z</time>
      </trkpt>
      <trkpt lat="44.49841" lon="0.80158">
        <ele>108.6</ele>
        <time>2018-05-17T00:29:10Z</time>
      </trkpt>
      <trkpt lat="44.49839" lon="0.80164">
        <ele>109</ele>
        <time>2018-05-17T00:29:12Z</time>
      </trkpt>
      <trkpt lat="44.49839" lon="0.80169">
        <ele>108.8</ele>
        <time>2018-05-17T00:29:13Z</time>
      </trkpt>
      <trkpt lat="44.49838" lon="0.80175">
        <ele>108.5</ele>
        <time>2018-05-17T00:29:14Z</time>
      </trkpt>
      <trkpt lat="44.49837" lon="0.80181">
        <ele>108.4</ele>
        <time>2018-05-17T00:29:15Z</time>
      </trkpt>
      <trkpt lat="44.49836" lon="0.80187">
        <ele>108.2</ele>
        <time>2018-05-17T00:29:16Z</time>
      </trkpt>
      <trkpt lat="44.49834" lon="0.80193">
        <ele>107.9</ele>
        <time>2018-05-17T00:29:17Z</time>
      </trkpt>
      <trkpt lat="44.49831" lon="0.80199">
        <ele>107.8</ele>
        <time>2018-05-17T00:29:18Z</time>
      </trkpt>
      <trkpt lat="44.49829" lon="0.80205">
        <ele>107.3</ele>
        <time>2018-05-17T00:29:19Z</time>
      </trkpt>
      <trkpt lat="44.49827" lon="0.80211">
        <ele>107.1</ele>
        <time>2018-05-17T00:29:20Z</time>
      </trkpt>
      <trkpt lat="44.49825" lon="0.80215">
        <ele>107</ele>
        <time>2018-05-17T00:29:21Z</time>
      </trkpt>
      <trkpt lat="44.49822" lon="0.80219">
        <ele>106.8</ele>
        <time>2018-05-17T00:29:22Z</time>
      </trkpt>
      <trkpt lat="44.49819" lon="0.80222">
        <ele>106.6</ele>
        <time>2018-05-17T00:29:23Z</time>
      </trkpt>
      <trkpt lat="44.49815" lon="0.80224">
        <ele>106.6</ele>
        <time>2018-05-17T00:29:24Z</time>
      </trkpt>
      <trkpt lat="44.49811" lon="0.80226">
        <ele>106.5</ele>
        <time>2018-05-17T00:29:25Z</time>
      </trkpt>
      <trkpt lat="44.49807" lon="0.80228">
        <ele>106.5</ele>
        <time>2018-05-17T00:29:26Z</time>
      </trkpt>
      <trkpt lat="44.49803" lon="0.8023">
        <ele>106.5</ele>
        <time>2018-05-17T00:29:27Z</time>
      </trkpt>
      <trkpt lat="44.49799" lon="0.80233">
        <ele>106.5</ele>
        <time>2018-05-17T00:29:28Z</time>
      </trkpt>
      <trkpt lat="44.49795" lon="0.80235">
        <ele>106.4</ele>
        <time>2018-05-17T00:29:29Z</time>
      </trkpt>
      <trkpt lat="44.49791" lon="0.80237">
        <ele>106.6</ele>
        <time>2018-05-17T00:29:30Z</time>
      </trkpt>
      <trkpt lat="44.49787" lon="0.8024">
        <ele>106.5</ele>
        <time>2018-05-17T00:29:31Z</time>
      </trkpt>
      <trkpt lat="44.49783" lon="0.80242">
        <ele>106.6</ele>
        <time>2018-05-17T00:29:32Z</time>
      </trkpt>
      <trkpt lat="44.49779" lon="0.80244">
        <ele>106.5</ele>
        <time>2018-05-17T00:29:33Z</time>
      </trkpt>
      <trkpt lat="44.49774" lon="0.80247">
        <ele>106.7</ele>
        <time>2018-05-17T00:29:35Z</time>
      </trkpt>
      <trkpt lat="44.49773" lon="0.80251">
        <ele>106.7</ele>
        <time>2018-05-17T00:29:37Z</time>
      </trkpt>
      <trkpt lat="44.49769" lon="0.80255">
        <ele>106.6</ele>
        <time>2018-05-17T00:29:39Z</time>
      </trkpt>
      <trkpt lat="44.49767" lon="0.80257">
        <ele>106.6</ele>
        <time>2018-05-17T00:29:40Z</time>
      </trkpt>
      <trkpt lat="44.49763" lon="0.80261">
        <ele>106.5</ele>
        <time>2018-05-17T00:29:42Z</time>
      </trkpt>
      <trkpt lat="44.4976" lon="0.80263">
        <ele>106.6</ele>
        <time>2018-05-17T00:29:43Z</time>
      </trkpt>
      <trkpt lat="44.49758" lon="0.80266">
        <ele>106.6</ele>
        <time>2018-05-17T00:29:44Z</time>
      </trkpt>
      <trkpt lat="44.49754" lon="0.8027">
        <ele>106.5</ele>
        <time>2018-05-17T00:29:45Z</time>
      </trkpt>
      <trkpt lat="44.4975" lon="0.80274">
        <ele>106.5</ele>
        <time>2018-05-17T00:29:46Z</time>
      </trkpt>
      <trkpt lat="44.49746" lon="0.80278">
        <ele>106.4</ele>
        <time>2018-05-17T00:29:47Z</time>
      </trkpt>
      <trkpt lat="44.49742" lon="0.80281">
        <ele>106.5</ele>
        <time>2018-05-17T00:29:48Z</time>
      </trkpt>
      <trkpt lat="44.49738" lon="0.80283">
        <ele>106.3</ele>
        <time>2018-05-17T00:29:49Z</time>
      </trkpt>
      <trkpt lat="44.49734" lon="0.80286">
        <ele>106.4</ele>
        <time>2018-05-17T00:29:50Z</time>
      </trkpt>
      <trkpt lat="44.49731" lon="0.80289">
        <ele>106.2</ele>
        <time>2018-05-17T00:29:51Z</time>
      </trkpt>
      <trkpt lat="44.49727" lon="0.80291">
        <ele>106.1</ele>
        <time>2018-05-17T00:29:52Z</time>
      </trkpt>
      <trkpt lat="44.49724" lon="0.80294">
        <ele>106.1</ele>
        <time>2018-05-17T00:29:53Z</time>
      </trkpt>
      <trkpt lat="44.49721" lon="0.80297">
        <ele>105.9</ele>
        <time>2018-05-17T00:29:54Z</time>
      </trkpt>
      <trkpt lat="44.49716" lon="0.80301">
        <ele>105.8</ele>
        <time>2018-05-17T00:29:56Z</time>
      </trkpt>
      <trkpt lat="44.49713" lon="0.80304">
        <ele>105.7</ele>
        <time>2018-05-17T00:29:58Z</time>
      </trkpt>
      <trkpt lat="44.49711" lon="0.80309">
        <ele>105.6</ele>
        <time>2018-05-17T00:30:00Z</time>
      </trkpt>
      <trkpt lat="44.49709" lon="0.80313">
        <ele>105.5</ele>
        <time>2018-05-17T00:30:02Z</time>
      </trkpt>
      <trkpt lat="44.49706" lon="0.80316">
        <ele>105.5</ele>
        <time>2018-05-17T00:30:04Z</time>
      </trkpt>
      <trkpt lat="44.49701" lon="0.80316">
        <ele>105.3</ele>
        <time>2018-05-17T00:30:06Z</time>
      </trkpt>
      <trkpt lat="44.49696" lon="0.80317">
        <ele>105.3</ele>
        <time>2018-05-17T00:30:07Z</time>
      </trkpt>
      <trkpt lat="44.49692" lon="0.80318">
        <ele>105.3</ele>
        <time>2018-05-17T00:30:08Z</time>
      </trkpt>
      <trkpt lat="44.49688" lon="0.80319">
        <ele>105.3</ele>
        <time>2018-05-17T00:30:09Z</time>
      </trkpt>
      <trkpt lat="44.49682" lon="0.80319">
        <ele>105.3</ele>
        <time>2018-05-17T00:30:10Z</time>
      </trkpt>
      <trkpt lat="44.49677" lon="0.8032">
        <ele>105.3</ele>
        <time>2018-05-17T00:30:11Z</time>
      </trkpt>
      <trkpt lat="44.49672" lon="0.8032">
        <ele>105.4</ele>
        <time>2018-05-17T00:30:12Z</time>
      </trkpt>
      <trkpt lat="44.49667" lon="0.8032">
        <ele>105.4</ele>
        <time>2018-05-17T00:30:13Z</time>
      </trkpt>
      <trkpt lat="44.49663" lon="0.80318">
        <ele>105.5</ele>
        <time>2018-05-17T00:30:14Z</time>
      </trkpt>
      <trkpt lat="44.4966" lon="0.80315">
        <ele>105.7</ele>
        <time>2018-05-17T00:30:15Z</time>
      </trkpt>
      <trkpt lat="44.49657" lon="0.80315">
        <ele>105.8</ele>
        <time>2018-05-17T00:30:16Z</time>
      </trkpt>
      <trkpt lat="44.49647" lon="0.80315">
        <ele>106.2</ele>
        <time>2018-05-17T00:30:17Z</time>
      </trkpt>
      <trkpt lat="44.4964" lon="0.80315">
        <ele>106.5</ele>
        <time>2018-05-17T00:30:18Z</time>
      </trkpt>
      <trkpt lat="44.49635" lon="0.80315">
        <ele>106.8</ele>
        <time>2018-05-17T00:30:19Z</time>
      </trkpt>
      <trkpt lat="44.49628" lon="0.80316">
        <ele>107.1</ele>
        <time>2018-05-17T00:30:20Z</time>
      </trkpt>
      <trkpt lat="44.49624" lon="0.80315">
        <ele>107.3</ele>
        <time>2018-05-17T00:30:21Z</time>
      </trkpt>
      <trkpt lat="44.4962" lon="0.80319">
        <ele>107.4</ele>
        <time>2018-05-17T00:30:23Z</time>
      </trkpt>
      <trkpt lat="44.49615" lon="0.80319">
        <ele>107.6</ele>
        <time>2018-05-17T00:30:25Z</time>
      </trkpt>
      <trkpt lat="44.4961" lon="0.80319">
        <ele>107.9</ele>
        <time>2018-05-17T00:30:27Z</time>
      </trkpt>
      <trkpt lat="44.49604" lon="0.80322">
        <ele>107.9</ele>
        <time>2018-05-17T00:30:29Z</time>
      </trkpt>
      <trkpt lat="44.49601" lon="0.80322">
        <ele>108</ele>
        <time>2018-05-17T00:30:30Z</time>
      </trkpt>
      <trkpt lat="44.49598" lon="0.80321">
        <ele>108.1</ele>
        <time>2018-05-17T00:30:31Z</time>
      </trkpt>
      <trkpt lat="44.49595" lon="0.80321">
        <ele>108.2</ele>
        <time>2018-05-17T00:30:32Z</time>
      </trkpt>
      <trkpt lat="44.4959" lon="0.80323">
        <ele>108.3</ele>
        <time>2018-05-17T00:30:34Z</time>
      </trkpt>
      <trkpt lat="44.49587" lon="0.80325">
        <ele>108.2</ele>
        <time>2018-05-17T00:30:35Z</time>
      </trkpt>
      <trkpt lat="44.49583" lon="0.80327">
        <ele>108.4</ele>
        <time>2018-05-17T00:30:36Z</time>
      </trkpt>
      <trkpt lat="44.49577" lon="0.80328">
        <ele>108.5</ele>
        <time>2018-05-17T00:30:37Z</time>
      </trkpt>
      <trkpt lat="44.49574" lon="0.80329">
        <ele>108.4</ele>
        <time>2018-05-17T00:30:38Z</time>
      </trkpt>
      <trkpt lat="44.49569" lon="0.8033">
        <ele>108.4</ele>
        <time>2018-05-17T00:30:39Z</time>
      </trkpt>
      <trkpt lat="44.49566" lon="0.80331">
        <ele>108.5</ele>
        <time>2018-05-17T00:30:40Z</time>
      </trkpt>
      <trkpt lat="44.49562" lon="0.8033">
        <ele>108.5</ele>
        <time>2018-05-17T00:30:41Z</time>
      </trkpt>
      <trkpt lat="44.49559" lon="0.80331">
        <ele>108.6</ele>
        <time>2018-05-17T00:30:42Z</time>
      </trkpt>
      <trkpt lat="44.49555" lon="0.80331">
        <ele>108.6</ele>
        <time>2018-05-17T00:30:43Z</time>
      </trkpt>
      <trkpt lat="44.49552" lon="0.80331">
        <ele>108.7</ele>
        <time>2018-05-17T00:30:44Z</time>
      </trkpt>
      <trkpt lat="44.49548" lon="0.80331">
        <ele>108.7</ele>
        <time>2018-05-17T00:30:45Z</time>
      </trkpt>
      <trkpt lat="44.49544" lon="0.80331">
        <ele>108.7</ele>
        <time>2018-05-17T00:30:46Z</time>
      </trkpt>
      <trkpt lat="44.49541" lon="0.80331">
        <ele>108.7</ele>
        <time>2018-05-17T00:30:47Z</time>
      </trkpt>
      <trkpt lat="44.49538" lon="0.80332">
        <ele>108.7</ele>
        <time>2018-05-17T00:30:48Z</time>
      </trkpt>
      <trkpt lat="44.49534" lon="0.80333">
        <ele>108.6</ele>
        <time>2018-05-17T00:30:49Z</time>
      </trkpt>
      <trkpt lat="44.4953" lon="0.80337">
        <ele>108.2</ele>
        <time>2018-05-17T00:30:51Z</time>
      </trkpt>
      <trkpt lat="44.49527" lon="0.8034">
        <ele>107.6</ele>
        <time>2018-05-17T00:30:52Z</time>
      </trkpt>
      <trkpt lat="44.49524" lon="0.80342">
        <ele>107.5</ele>
        <time>2018-05-17T00:30:53Z</time>
      </trkpt>
      <trkpt lat="44.49521" lon="0.80344">
        <ele>106.9</ele>
        <time>2018-05-17T00:30:54Z</time>
      </trkpt>
      <trkpt lat="44.49517" lon="0.80345">
        <ele>106.9</ele>
        <time>2018-05-17T00:30:55Z</time>
      </trkpt>
      <trkpt lat="44.49514" lon="0.80346">
        <ele>106.8</ele>
        <time>2018-05-17T00:30:56Z</time>
      </trkpt>
      <trkpt lat="44.4951" lon="0.80348">
        <ele>106.2</ele>
        <time>2018-05-17T00:30:57Z</time>
      </trkpt>
      <trkpt lat="44.49506" lon="0.8035">
        <ele>106.2</ele>
        <time>2018-05-17T00:30:58Z</time>
      </trkpt>
      <trkpt lat="44.49502" lon="0.80351">
        <ele>105.6</ele>
        <time>2018-05-17T00:30:59Z</time>
      </trkpt>
      <trkpt lat="44.49498" lon="0.80352">
        <ele>105.6</ele>
        <time>2018-05-17T00:31:00Z</time>
      </trkpt>
      <trkpt lat="44.49493" lon="0.80357">
        <ele>105</ele>
        <time>2018-05-17T00:31:01Z</time>
      </trkpt>
      <trkpt lat="44.49488" lon="0.80358">
        <ele>105.1</ele>
        <time>2018-05-17T00:31:02Z</time>
      </trkpt>
      <trkpt lat="44.49483" lon="0.80361">
        <ele>104.7</ele>
        <time>2018-05-17T00:31:03Z</time>
      </trkpt>
      <trkpt lat="44.49478" lon="0.80362">
        <ele>104.9</ele>
        <time>2018-05-17T00:31:04Z</time>
      </trkpt>
      <trkpt lat="44.49474" lon="0.80364">
        <ele>104.6</ele>
        <time>2018-05-17T00:31:05Z</time>
      </trkpt>
      <trkpt lat="44.49471" lon="0.80366">
        <ele>104.8</ele>
        <time>2018-05-17T00:31:06Z</time>
      </trkpt>
      <trkpt lat="44.49469" lon="0.80368">
        <ele>105</ele>
        <time>2018-05-17T00:31:07Z</time>
      </trkpt>
      <trkpt lat="44.49466" lon="0.8037">
        <ele>104.8</ele>
        <time>2018-05-17T00:31:08Z</time>
      </trkpt>
      <trkpt lat="44.49463" lon="0.80373">
        <ele>104.6</ele>
        <time>2018-05-17T00:31:09Z</time>
      </trkpt>
      <trkpt lat="44.49458" lon="0.80374">
        <ele>104.9</ele>
        <time>2018-05-17T00:31:10Z</time>
      </trkpt>
      <trkpt lat="44.49453" lon="0.80375">
        <ele>105.4</ele>
        <time>2018-05-17T00:31:11Z</time>
      </trkpt>
      <trkpt lat="44.49449" lon="0.80376">
        <ele>105.7</ele>
        <time>2018-05-17T00:31:12Z</time>
      </trkpt>
      <trkpt lat="44.49445" lon="0.80377">
        <ele>105.9</ele>
        <time>2018-05-17T00:31:13Z</time>
      </trkpt>
      <trkpt lat="44.49442" lon="0.80378">
        <ele>106.2</ele>
        <time>2018-05-17T00:31:14Z</time>
      </trkpt>
      <trkpt lat="44.49438" lon="0.8038">
        <ele>106.5</ele>
        <time>2018-05-17T00:31:15Z</time>
      </trkpt>
      <trkpt lat="44.49431" lon="0.80383">
        <ele>106.7</ele>
        <time>2018-05-17T00:31:16Z</time>
      </trkpt>
      <trkpt lat="44.49428" lon="0.80387">
        <ele>106.6</ele>
        <time>2018-05-17T00:31:17Z</time>
      </trkpt>
      <trkpt lat="44.49424" lon="0.80391">
        <ele>106.7</ele>
        <time>2018-05-17T00:31:18Z</time>
      </trkpt>
      <trkpt lat="44.4942" lon="0.80397">
        <ele>106.6</ele>
        <time>2018-05-17T00:31:19Z</time>
      </trkpt>
      <trkpt lat="44.49417" lon="0.80401">
        <ele>106.4</ele>
        <time>2018-05-17T00:31:20Z</time>
      </trkpt>
      <trkpt lat="44.49414" lon="0.80406">
        <ele>106.3</ele>
        <time>2018-05-17T00:31:21Z</time>
      </trkpt>
      <trkpt lat="44.49411" lon="0.8041">
        <ele>106.1</ele>
        <time>2018-05-17T00:31:22Z</time>
      </trkpt>
      <trkpt lat="44.49409" lon="0.80414">
        <ele>105.9</ele>
        <time>2018-05-17T00:31:23Z</time>
      </trkpt>
      <trkpt lat="44.49406" lon="0.80418">
        <ele>105.7</ele>
        <time>2018-05-17T00:31:24Z</time>
      </trkpt>
      <trkpt lat="44.49403" lon="0.80421">
        <ele>105.5</ele>
        <time>2018-05-17T00:31:25Z</time>
      </trkpt>
      <trkpt lat="44.49401" lon="0.80424">
        <ele>105.3</ele>
        <time>2018-05-17T00:31:26Z</time>
      </trkpt>
      <trkpt lat="44.49398" lon="0.80429">
        <ele>105.1</ele>
        <time>2018-05-17T00:31:27Z</time>
      </trkpt>
      <trkpt lat="44.49395" lon="0.80433">
        <ele>104.9</ele>
        <time>2018-05-17T00:31:28Z</time>
      </trkpt>
      <trkpt lat="44.49392" lon="0.80436">
        <ele>105</ele>
        <time>2018-05-17T00:31:29Z</time>
      </trkpt>
      <trkpt lat="44.49389" lon="0.80439">
        <ele>104.8</ele>
        <time>2018-05-17T00:31:30Z</time>
      </trkpt>
      <trkpt lat="44.49378" lon="0.80437">
        <ele>105.3</ele>
        <time>2018-05-17T00:31:31Z</time>
      </trkpt>
      <trkpt lat="44.49375" lon="0.80441">
        <ele>105.2</ele>
        <time>2018-05-17T00:31:32Z</time>
      </trkpt>
      <trkpt lat="44.49372" lon="0.80444">
        <ele>105.6</ele>
        <time>2018-05-17T00:31:33Z</time>
      </trkpt>
      <trkpt lat="44.49369" lon="0.80448">
        <ele>105.3</ele>
        <time>2018-05-17T00:31:34Z</time>
      </trkpt>
      <trkpt lat="44.49366" lon="0.80452">
        <ele>105.4</ele>
        <time>2018-05-17T00:31:35Z</time>
      </trkpt>
      <trkpt lat="44.49364" lon="0.80458">
        <ele>104.8</ele>
        <time>2018-05-17T00:31:36Z</time>
      </trkpt>
      <trkpt lat="44.49362" lon="0.80464">
        <ele>104.8</ele>
        <time>2018-05-17T00:31:37Z</time>
      </trkpt>
      <trkpt lat="44.49359" lon="0.8047">
        <ele>104.7</ele>
        <time>2018-05-17T00:31:38Z</time>
      </trkpt>
      <trkpt lat="44.49356" lon="0.80475">
        <ele>104.6</ele>
        <time>2018-05-17T00:31:39Z</time>
      </trkpt>
      <trkpt lat="44.49354" lon="0.8048">
        <ele>103.9</ele>
        <time>2018-05-17T00:31:40Z</time>
      </trkpt>
      <trkpt lat="44.49352" lon="0.80485">
        <ele>103.9</ele>
        <time>2018-05-17T00:31:41Z</time>
      </trkpt>
      <trkpt lat="44.49349" lon="0.80491">
        <ele>104</ele>
        <time>2018-05-17T00:31:42Z</time>
      </trkpt>
      <trkpt lat="44.49347" lon="0.80496">
        <ele>104.1</ele>
        <time>2018-05-17T00:31:43Z</time>
      </trkpt>
      <trkpt lat="44.49345" lon="0.80501">
        <ele>103.6</ele>
        <time>2018-05-17T00:31:44Z</time>
      </trkpt>
      <trkpt lat="44.49343" lon="0.80506">
        <ele>103.7</ele>
        <time>2018-05-17T00:31:45Z</time>
      </trkpt>
      <trkpt lat="44.49342" lon="0.80513">
        <ele>103.4</ele>
        <time>2018-05-17T00:31:46Z</time>
      </trkpt>
      <trkpt lat="44.4934" lon="0.80519">
        <ele>103.2</ele>
        <time>2018-05-17T00:31:47Z</time>
      </trkpt>
      <trkpt lat="44.49339" lon="0.80525">
        <ele>102.9</ele>
        <time>2018-05-17T00:31:48Z</time>
      </trkpt>
      <trkpt lat="44.49338" lon="0.80531">
        <ele>103</ele>
        <time>2018-05-17T00:31:49Z</time>
      </trkpt>
      <trkpt lat="44.49336" lon="0.80535">
        <ele>102.7</ele>
        <time>2018-05-17T00:31:50Z</time>
      </trkpt>
      <trkpt lat="44.49335" lon="0.80539">
        <ele>102.8</ele>
        <time>2018-05-17T00:31:51Z</time>
      </trkpt>
      <trkpt lat="44.49333" lon="0.80542">
        <ele>102.5</ele>
        <time>2018-05-17T00:31:52Z</time>
      </trkpt>
      <trkpt lat="44.49331" lon="0.80546">
        <ele>102.7</ele>
        <time>2018-05-17T00:31:53Z</time>
      </trkpt>
      <trkpt lat="44.4933" lon="0.8055">
        <ele>102.4</ele>
        <time>2018-05-17T00:31:54Z</time>
      </trkpt>
      <trkpt lat="44.49329" lon="0.80556">
        <ele>102.4</ele>
        <time>2018-05-17T00:31:55Z</time>
      </trkpt>
      <trkpt lat="44.49328" lon="0.80561">
        <ele>101.9</ele>
        <time>2018-05-17T00:31:56Z</time>
      </trkpt>
      <trkpt lat="44.49326" lon="0.80566">
        <ele>101.8</ele>
        <time>2018-05-17T00:31:57Z</time>
      </trkpt>
      <trkpt lat="44.49321" lon="0.80569">
        <ele>102.1</ele>
        <time>2018-05-17T00:31:58Z</time>
      </trkpt>
      <trkpt lat="44.49317" lon="0.80572">
        <ele>102</ele>
        <time>2018-05-17T00:31:59Z</time>
      </trkpt>
      <trkpt lat="44.49314" lon="0.80578">
        <ele>101.9</ele>
        <time>2018-05-17T00:32:00Z</time>
      </trkpt>
      <trkpt lat="44.4931" lon="0.80585">
        <ele>101.9</ele>
        <time>2018-05-17T00:32:01Z</time>
      </trkpt>
      <trkpt lat="44.49306" lon="0.80591">
        <ele>101.5</ele>
        <time>2018-05-17T00:32:02Z</time>
      </trkpt>
      <trkpt lat="44.49302" lon="0.80596">
        <ele>101.4</ele>
        <time>2018-05-17T00:32:03Z</time>
      </trkpt>
      <trkpt lat="44.49298" lon="0.80599">
        <ele>101.5</ele>
        <time>2018-05-17T00:32:04Z</time>
      </trkpt>
      <trkpt lat="44.49293" lon="0.806">
        <ele>101.2</ele>
        <time>2018-05-17T00:32:05Z</time>
      </trkpt>
      <trkpt lat="44.49289" lon="0.80601">
        <ele>101.2</ele>
        <time>2018-05-17T00:32:06Z</time>
      </trkpt>
      <trkpt lat="44.49284" lon="0.80601">
        <ele>101.1</ele>
        <time>2018-05-17T00:32:08Z</time>
      </trkpt>
      <trkpt lat="44.49282" lon="0.80595">
        <ele>101.8</ele>
        <time>2018-05-17T00:32:09Z</time>
      </trkpt>
      <trkpt lat="44.4928" lon="0.8059">
        <ele>102.1</ele>
        <time>2018-05-17T00:32:10Z</time>
      </trkpt>
      <trkpt lat="44.49278" lon="0.80587">
        <ele>102.1</ele>
        <time>2018-05-17T00:32:11Z</time>
      </trkpt>
      <trkpt lat="44.49276" lon="0.80584">
        <ele>102.4</ele>
        <time>2018-05-17T00:32:12Z</time>
      </trkpt>
      <trkpt lat="44.49272" lon="0.8058">
        <ele>102.7</ele>
        <time>2018-05-17T00:32:13Z</time>
      </trkpt>
      <trkpt lat="44.49269" lon="0.80576">
        <ele>102.9</ele>
        <time>2018-05-17T00:32:14Z</time>
      </trkpt>
      <trkpt lat="44.49266" lon="0.80574">
        <ele>103.1</ele>
        <time>2018-05-17T00:32:15Z</time>
      </trkpt>
      <trkpt lat="44.49262" lon="0.80567">
        <ele>103.2</ele>
        <time>2018-05-17T00:32:16Z</time>
      </trkpt>
      <trkpt lat="44.49258" lon="0.80562">
        <ele>103.4</ele>
        <time>2018-05-17T00:32:17Z</time>
      </trkpt>
      <trkpt lat="44.49254" lon="0.80557">
        <ele>103.6</ele>
        <time>2018-05-17T00:32:18Z</time>
      </trkpt>
      <trkpt lat="44.49251" lon="0.80553">
        <ele>103.7</ele>
        <time>2018-05-17T00:32:19Z</time>
      </trkpt>
      <trkpt lat="44.49249" lon="0.8055">
        <ele>103.7</ele>
        <time>2018-05-17T00:32:20Z</time>
      </trkpt>
      <trkpt lat="44.49249" lon="0.80544">
        <ele>104</ele>
        <time>2018-05-17T00:32:21Z</time>
      </trkpt>
      <trkpt lat="44.49249" lon="0.80538">
        <ele>104.5</ele>
        <time>2018-05-17T00:32:22Z</time>
      </trkpt>
      <trkpt lat="44.49248" lon="0.80532">
        <ele>104.8</ele>
        <time>2018-05-17T00:32:23Z</time>
      </trkpt>
      <trkpt lat="44.49245" lon="0.80526">
        <ele>105</ele>
        <time>2018-05-17T00:32:24Z</time>
      </trkpt>
      <trkpt lat="44.49241" lon="0.80523">
        <ele>104.7</ele>
        <time>2018-05-17T00:32:25Z</time>
      </trkpt>
      <trkpt lat="44.49238" lon="0.80516">
        <ele>104.9</ele>
        <time>2018-05-17T00:32:26Z</time>
      </trkpt>
      <trkpt lat="44.49235" lon="0.80511">
        <ele>104.9</ele>
        <time>2018-05-17T00:32:27Z</time>
      </trkpt>
      <trkpt lat="44.49232" lon="0.80505">
        <ele>104.8</ele>
        <time>2018-05-17T00:32:28Z</time>
      </trkpt>
      <trkpt lat="44.49228" lon="0.805">
        <ele>104.5</ele>
        <time>2018-05-17T00:32:29Z</time>
      </trkpt>
      <trkpt lat="44.49226" lon="0.80493">
        <ele>104.7</ele>
        <time>2018-05-17T00:32:30Z</time>
      </trkpt>
      <trkpt lat="44.49221" lon="0.80485">
        <ele>104.3</ele>
        <time>2018-05-17T00:32:31Z</time>
      </trkpt>
      <trkpt lat="44.4922" lon="0.80478">
        <ele>104.7</ele>
        <time>2018-05-17T00:32:32Z</time>
      </trkpt>
      <trkpt lat="44.49218" lon="0.80472">
        <ele>104.4</ele>
        <time>2018-05-17T00:32:33Z</time>
      </trkpt>
      <trkpt lat="44.49217" lon="0.80466">
        <ele>104.7</ele>
        <time>2018-05-17T00:32:34Z</time>
      </trkpt>
      <trkpt lat="44.49216" lon="0.8046">
        <ele>104.9</ele>
        <time>2018-05-17T00:32:35Z</time>
      </trkpt>
      <trkpt lat="44.49214" lon="0.80455">
        <ele>104.5</ele>
        <time>2018-05-17T00:32:36Z</time>
      </trkpt>
      <trkpt lat="44.49213" lon="0.80441">
        <ele>104.9</ele>
        <time>2018-05-17T00:32:37Z</time>
      </trkpt>
      <trkpt lat="44.49209" lon="0.80437">
        <ele>104.2</ele>
        <time>2018-05-17T00:32:39Z</time>
      </trkpt>
      <trkpt lat="44.49206" lon="0.80435">
        <ele>103.9</ele>
        <time>2018-05-17T00:32:40Z</time>
      </trkpt>
      <trkpt lat="44.49204" lon="0.80433">
        <ele>103.5</ele>
        <time>2018-05-17T00:32:41Z</time>
      </trkpt>
      <trkpt lat="44.49198" lon="0.80432">
        <ele>103.1</ele>
        <time>2018-05-17T00:32:42Z</time>
      </trkpt>
      <trkpt lat="44.49194" lon="0.80431">
        <ele>102.1</ele>
        <time>2018-05-17T00:32:43Z</time>
      </trkpt>
      <trkpt lat="44.49189" lon="0.8043">
        <ele>101.6</ele>
        <time>2018-05-17T00:32:44Z</time>
      </trkpt>
      <trkpt lat="44.49186" lon="0.80429">
        <ele>101.1</ele>
        <time>2018-05-17T00:32:45Z</time>
      </trkpt>
      <trkpt lat="44.49182" lon="0.80429">
        <ele>100.1</ele>
        <time>2018-05-17T00:32:46Z</time>
      </trkpt>
      <trkpt lat="44.49177" lon="0.8043">
        <ele>99.6</ele>
        <time>2018-05-17T00:32:47Z</time>
      </trkpt>
      <trkpt lat="44.49174" lon="0.80429">
        <ele>99.1</ele>
        <time>2018-05-17T00:32:48Z</time>
      </trkpt>
      <trkpt lat="44.49171" lon="0.80429">
        <ele>98.5</ele>
        <time>2018-05-17T00:32:49Z</time>
      </trkpt>
      <trkpt lat="44.49167" lon="0.80429">
        <ele>97.4</ele>
        <time>2018-05-17T00:32:50Z</time>
      </trkpt>
      <trkpt lat="44.49164" lon="0.80428">
        <ele>97.4</ele>
        <time>2018-05-17T00:32:51Z</time>
      </trkpt>
      <trkpt lat="44.49159" lon="0.80428">
        <ele>96.3</ele>
        <time>2018-05-17T00:32:53Z</time>
      </trkpt>
      <trkpt lat="44.49156" lon="0.80428">
        <ele>95.7</ele>
        <time>2018-05-17T00:32:54Z</time>
      </trkpt>
      <trkpt lat="44.49152" lon="0.80428">
        <ele>95.2</ele>
        <time>2018-05-17T00:32:56Z</time>
      </trkpt>
      <trkpt lat="44.49149" lon="0.80429">
        <ele>94.7</ele>
        <time>2018-05-17T00:32:57Z</time>
      </trkpt>
      <trkpt lat="44.49146" lon="0.80428">
        <ele>94.3</ele>
        <time>2018-05-17T00:32:58Z</time>
      </trkpt>
      <trkpt lat="44.49139" lon="0.80428">
        <ele>92.9</ele>
        <time>2018-05-17T00:33:00Z</time>
      </trkpt>
      <trkpt lat="44.49136" lon="0.80428">
        <ele>92.5</ele>
        <time>2018-05-17T00:33:01Z</time>
      </trkpt>
      <trkpt lat="44.49133" lon="0.80426">
        <ele>92.1</ele>
        <time>2018-05-17T00:33:04Z</time>
      </trkpt>
      <trkpt lat="44.4913" lon="0.80424">
        <ele>91.7</ele>
        <time>2018-05-17T00:33:07Z</time>
      </trkpt>
      <trkpt lat="44.49127" lon="0.80424">
        <ele>91.4</ele>
        <time>2018-05-17T00:33:10Z</time>
      </trkpt>
      <trkpt lat="44.49121" lon="0.80427">
        <ele>90.9</ele>
        <time>2018-05-17T00:33:12Z</time>
      </trkpt>
      <trkpt lat="44.49117" lon="0.80429">
        <ele>90.6</ele>
        <time>2018-05-17T00:33:15Z</time>
      </trkpt>
      <trkpt lat="44.49115" lon="0.80432">
        <ele>90.7</ele>
        <time>2018-05-17T00:33:16Z</time>
      </trkpt>
      <trkpt lat="44.49113" lon="0.80439">
        <ele>90.4</ele>
        <time>2018-05-17T00:33:18Z</time>
      </trkpt>
      <trkpt lat="44.49113" lon="0.80444">
        <ele>90.5</ele>
        <time>2018-05-17T00:33:19Z</time>
      </trkpt>
      <trkpt lat="44.49113" lon="0.8045">
        <ele>90.6</ele>
        <time>2018-05-17T00:33:21Z</time>
      </trkpt>
      <trkpt lat="44.49114" lon="0.80456">
        <ele>90.6</ele>
        <time>2018-05-17T00:33:23Z</time>
      </trkpt>
      <trkpt lat="44.49116" lon="0.80462">
        <ele>90.8</ele>
        <time>2018-05-17T00:33:25Z</time>
      </trkpt>
      <trkpt lat="44.49117" lon="0.80466">
        <ele>90.8</ele>
        <time>2018-05-17T00:33:26Z</time>
      </trkpt>
      <trkpt lat="44.49118" lon="0.80473">
        <ele>90.9</ele>
        <time>2018-05-17T00:33:28Z</time>
      </trkpt>
      <trkpt lat="44.4912" lon="0.8048">
        <ele>91</ele>
        <time>2018-05-17T00:33:30Z</time>
      </trkpt>
      <trkpt lat="44.49121" lon="0.80487">
        <ele>91.1</ele>
        <time>2018-05-17T00:33:32Z</time>
      </trkpt>
      <trkpt lat="44.49121" lon="0.80492">
        <ele>91.1</ele>
        <time>2018-05-17T00:33:33Z</time>
      </trkpt>
      <trkpt lat="44.49121" lon="0.80496">
        <ele>91.2</ele>
        <time>2018-05-17T00:33:34Z</time>
      </trkpt>
      <trkpt lat="44.49121" lon="0.80501">
        <ele>91.2</ele>
        <time>2018-05-17T00:33:35Z</time>
      </trkpt>
      <trkpt lat="44.49119" lon="0.80506">
        <ele>91.1</ele>
        <time>2018-05-17T00:33:36Z</time>
      </trkpt>
      <trkpt lat="44.49116" lon="0.8051">
        <ele>91.1</ele>
        <time>2018-05-17T00:33:37Z</time>
      </trkpt>
      <trkpt lat="44.49116" lon="0.80517">
        <ele>91.1</ele>
        <time>2018-05-17T00:33:39Z</time>
      </trkpt>
      <trkpt lat="44.49115" lon="0.80523">
        <ele>91.1</ele>
        <time>2018-05-17T00:33:41Z</time>
      </trkpt>
      <trkpt lat="44.49116" lon="0.80531">
        <ele>91.1</ele>
        <time>2018-05-17T00:33:43Z</time>
      </trkpt>
      <trkpt lat="44.49115" lon="0.80536">
        <ele>91.1</ele>
        <time>2018-05-17T00:33:44Z</time>
      </trkpt>
      <trkpt lat="44.49115" lon="0.8054">
        <ele>91.1</ele>
        <time>2018-05-17T00:33:45Z</time>
      </trkpt>
      <trkpt lat="44.49115" lon="0.80544">
        <ele>91.2</ele>
        <time>2018-05-17T00:33:46Z</time>
      </trkpt>
      <trkpt lat="44.49115" lon="0.80551">
        <ele>91.1</ele>
        <time>2018-05-17T00:33:48Z</time>
      </trkpt>
      <trkpt lat="44.49114" lon="0.80558">
        <ele>91.2</ele>
        <time>2018-05-17T00:33:50Z</time>
      </trkpt>
      <trkpt lat="44.49113" lon="0.80562">
        <ele>91.2</ele>
        <time>2018-05-17T00:33:51Z</time>
      </trkpt>
      <trkpt lat="44.49112" lon="0.80566">
        <ele>91.2</ele>
        <time>2018-05-17T00:33:52Z</time>
      </trkpt>
      <trkpt lat="44.49112" lon="0.8057">
        <ele>91.3</ele>
        <time>2018-05-17T00:33:53Z</time>
      </trkpt>
      <trkpt lat="44.4911" lon="0.80576">
        <ele>91.3</ele>
        <time>2018-05-17T00:33:54Z</time>
      </trkpt>
      <trkpt lat="44.49109" lon="0.8058">
        <ele>91.3</ele>
        <time>2018-05-17T00:33:55Z</time>
      </trkpt>
      <trkpt lat="44.49108" lon="0.80584">
        <ele>91.5</ele>
        <time>2018-05-17T00:33:56Z</time>
      </trkpt>
      <trkpt lat="44.49106" lon="0.80589">
        <ele>91.5</ele>
        <time>2018-05-17T00:33:58Z</time>
      </trkpt>
      <trkpt lat="44.49104" lon="0.80592">
        <ele>91.7</ele>
        <time>2018-05-17T00:34:00Z</time>
      </trkpt>
      <trkpt lat="44.491" lon="0.80593">
        <ele>91.9</ele>
        <time>2018-05-17T00:34:02Z</time>
      </trkpt>
      <trkpt lat="44.49096" lon="0.80598">
        <ele>92</ele>
        <time>2018-05-17T00:34:04Z</time>
      </trkpt>
      <trkpt lat="44.49091" lon="0.80601">
        <ele>92.2</ele>
        <time>2018-05-17T00:34:06Z</time>
      </trkpt>
      <trkpt lat="44.4909" lon="0.80606">
        <ele>92.4</ele>
        <time>2018-05-17T00:34:08Z</time>
      </trkpt>
      <trkpt lat="44.49087" lon="0.80614">
        <ele>92.5</ele>
        <time>2018-05-17T00:34:10Z</time>
      </trkpt>
      <trkpt lat="44.49087" lon="0.80619">
        <ele>92.7</ele>
        <time>2018-05-17T00:34:11Z</time>
      </trkpt>
      <trkpt lat="44.49084" lon="0.80623">
        <ele>92.7</ele>
        <time>2018-05-17T00:34:12Z</time>
      </trkpt>
      <trkpt lat="44.49083" lon="0.80629">
        <ele>92.8</ele>
        <time>2018-05-17T00:34:13Z</time>
      </trkpt>
      <trkpt lat="44.49082" lon="0.80634">
        <ele>92.8</ele>
        <time>2018-05-17T00:34:14Z</time>
      </trkpt>
      <trkpt lat="44.4908" lon="0.80638">
        <ele>92.9</ele>
        <time>2018-05-17T00:34:15Z</time>
      </trkpt>
      <trkpt lat="44.4908" lon="0.80645">
        <ele>92.8</ele>
        <time>2018-05-17T00:34:17Z</time>
      </trkpt>
      <trkpt lat="44.49081" lon="0.80649">
        <ele>92.7</ele>
        <time>2018-05-17T00:34:18Z</time>
      </trkpt>
      <trkpt lat="44.49081" lon="0.80655">
        <ele>92.6</ele>
        <time>2018-05-17T00:34:20Z</time>
      </trkpt>
      <trkpt lat="44.4908" lon="0.8066">
        <ele>92.4</ele>
        <time>2018-05-17T00:34:22Z</time>
      </trkpt>
      <trkpt lat="44.49079" lon="0.80666">
        <ele>92.3</ele>
        <time>2018-05-17T00:34:24Z</time>
      </trkpt>
      <trkpt lat="44.49077" lon="0.80673">
        <ele>92.2</ele>
        <time>2018-05-17T00:34:26Z</time>
      </trkpt>
      <trkpt lat="44.49075" lon="0.80679">
        <ele>92</ele>
        <time>2018-05-17T00:34:28Z</time>
      </trkpt>
      <trkpt lat="44.49073" lon="0.80685">
        <ele>92</ele>
        <time>2018-05-17T00:34:30Z</time>
      </trkpt>
      <trkpt lat="44.49071" lon="0.80688">
        <ele>92</ele>
        <time>2018-05-17T00:34:31Z</time>
      </trkpt>
      <trkpt lat="44.4907" lon="0.80691">
        <ele>91.9</ele>
        <time>2018-05-17T00:34:32Z</time>
      </trkpt>
      <trkpt lat="44.49068" lon="0.80697">
        <ele>91.9</ele>
        <time>2018-05-17T00:34:34Z</time>
      </trkpt>
      <trkpt lat="44.49066" lon="0.80702">
        <ele>91.8</ele>
        <time>2018-05-17T00:34:36Z</time>
      </trkpt>
      <trkpt lat="44.49065" lon="0.80705">
        <ele>91.9</ele>
        <time>2018-05-17T00:34:38Z</time>
      </trkpt>
      <trkpt lat="44.49062" lon="0.80705">
        <ele>92.1</ele>
        <time>2018-05-17T00:34:40Z</time>
      </trkpt>
      <trkpt lat="44.49058" lon="0.80706">
        <ele>92.3</ele>
        <time>2018-05-17T00:34:45Z</time>
      </trkpt>
      <trkpt lat="44.49054" lon="0.80707">
        <ele>92.4</ele>
        <time>2018-05-17T00:34:47Z</time>
      </trkpt>
      <trkpt lat="44.4905" lon="0.80709">
        <ele>93</ele>
        <time>2018-05-17T00:34:50Z</time>
      </trkpt>
      <trkpt lat="44.49047" lon="0.8071">
        <ele>93.3</ele>
        <time>2018-05-17T00:34:52Z</time>
      </trkpt>
      <trkpt lat="44.49044" lon="0.80711">
        <ele>93.3</ele>
        <time>2018-05-17T00:34:54Z</time>
      </trkpt>
      <trkpt lat="44.49041" lon="0.80713">
        <ele>93.6</ele>
        <time>2018-05-17T00:34:56Z</time>
      </trkpt>
      <trkpt lat="44.49038" lon="0.80715">
        <ele>93.5</ele>
        <time>2018-05-17T00:34:58Z</time>
      </trkpt>
      <trkpt lat="44.49034" lon="0.80717">
        <ele>93.7</ele>
        <time>2018-05-17T00:35:00Z</time>
      </trkpt>
      <trkpt lat="44.49031" lon="0.80717">
        <ele>94.1</ele>
        <time>2018-05-17T00:35:02Z</time>
      </trkpt>
      <trkpt lat="44.49026" lon="0.80719">
        <ele>94.8</ele>
        <time>2018-05-17T00:35:05Z</time>
      </trkpt>
      <trkpt lat="44.49022" lon="0.80718">
        <ele>95.2</ele>
        <time>2018-05-17T00:35:07Z</time>
      </trkpt>
      <trkpt lat="44.49017" lon="0.80719">
        <ele>95.5</ele>
        <time>2018-05-17T00:35:09Z</time>
      </trkpt>
      <trkpt lat="44.49012" lon="0.80719">
        <ele>96.3</ele>
        <time>2018-05-17T00:35:11Z</time>
      </trkpt>
      <trkpt lat="44.49008" lon="0.8072">
        <ele>96.7</ele>
        <time>2018-05-17T00:35:13Z</time>
      </trkpt>
      <trkpt lat="44.49005" lon="0.80721">
        <ele>97.7</ele>
        <time>2018-05-17T00:35:15Z</time>
      </trkpt>
      <trkpt lat="44.49001" lon="0.80722">
        <ele>98.1</ele>
        <time>2018-05-17T00:35:18Z</time>
      </trkpt>
      <trkpt lat="44.48997" lon="0.80722">
        <ele>98.5</ele>
        <time>2018-05-17T00:35:20Z</time>
      </trkpt>
      <trkpt lat="44.48994" lon="0.80722">
        <ele>98.8</ele>
        <time>2018-05-17T00:35:22Z</time>
      </trkpt>
      <trkpt lat="44.4899" lon="0.80722">
        <ele>99.2</ele>
        <time>2018-05-17T00:35:24Z</time>
      </trkpt>
      <trkpt lat="44.48988" lon="0.80718">
        <ele>99.6</ele>
        <time>2018-05-17T00:35:31Z</time>
      </trkpt>
      <trkpt lat="44.48987" lon="0.80712">
        <ele>100</ele>
        <time>2018-05-17T00:35:34Z</time>
      </trkpt>
      <trkpt lat="44.48985" lon="0.80709">
        <ele>100.3</ele>
        <time>2018-05-17T00:35:36Z</time>
      </trkpt>
      <trkpt lat="44.48982" lon="0.80707">
        <ele>100.5</ele>
        <time>2018-05-17T00:35:38Z</time>
      </trkpt>
      <trkpt lat="44.48981" lon="0.80703">
        <ele>100.8</ele>
        <time>2018-05-17T00:35:40Z</time>
      </trkpt>
      <trkpt lat="44.48978" lon="0.80702">
        <ele>101</ele>
        <time>2018-05-17T00:35:43Z</time>
      </trkpt>
      <trkpt lat="44.48974" lon="0.80699">
        <ele>101.4</ele>
        <time>2018-05-17T00:35:46Z</time>
      </trkpt>
      <trkpt lat="44.48971" lon="0.80696">
        <ele>101.7</ele>
        <time>2018-05-17T00:35:48Z</time>
      </trkpt>
      <trkpt lat="44.48967" lon="0.80693">
        <ele>101.9</ele>
        <time>2018-05-17T00:35:50Z</time>
      </trkpt>
      <trkpt lat="44.48963" lon="0.80689">
        <ele>102.1</ele>
        <time>2018-05-17T00:35:52Z</time>
      </trkpt>
      <trkpt lat="44.48959" lon="0.80688">
        <ele>102.6</ele>
        <time>2018-05-17T00:35:53Z</time>
      </trkpt>
      <trkpt lat="44.48956" lon="0.80686">
        <ele>102.9</ele>
        <time>2018-05-17T00:35:54Z</time>
      </trkpt>
      <trkpt lat="44.48953" lon="0.80685">
        <ele>103.2</ele>
        <time>2018-05-17T00:35:55Z</time>
      </trkpt>
      <trkpt lat="44.48951" lon="0.80684">
        <ele>103.4</ele>
        <time>2018-05-17T00:35:56Z</time>
      </trkpt>
      <trkpt lat="44.48948" lon="0.80683">
        <ele>103.7</ele>
        <time>2018-05-17T00:35:57Z</time>
      </trkpt>
      <trkpt lat="44.48945" lon="0.80683">
        <ele>103.9</ele>
        <time>2018-05-17T00:35:58Z</time>
      </trkpt>
      <trkpt lat="44.48941" lon="0.80682">
        <ele>104</ele>
        <time>2018-05-17T00:35:59Z</time>
      </trkpt>
      <trkpt lat="44.48938" lon="0.80682">
        <ele>104</ele>
        <time>2018-05-17T00:36:00Z</time>
      </trkpt>
      <trkpt lat="44.48935" lon="0.80683">
        <ele>104</ele>
        <time>2018-05-17T00:36:01Z</time>
      </trkpt>
      <trkpt lat="44.48932" lon="0.80683">
        <ele>104</ele>
        <time>2018-05-17T00:36:02Z</time>
      </trkpt>
      <trkpt lat="44.48929" lon="0.80683">
        <ele>104.1</ele>
        <time>2018-05-17T00:36:03Z</time>
      </trkpt>
      <trkpt lat="44.48926" lon="0.80683">
        <ele>104.3</ele>
        <time>2018-05-17T00:36:04Z</time>
      </trkpt>
      <trkpt lat="44.48921" lon="0.80684">
        <ele>104.6</ele>
        <time>2018-05-17T00:36:06Z</time>
      </trkpt>
      <trkpt lat="44.48918" lon="0.80684">
        <ele>104.9</ele>
        <time>2018-05-17T00:36:07Z</time>
      </trkpt>
      <trkpt lat="44.48915" lon="0.80686">
        <ele>105.3</ele>
        <time>2018-05-17T00:36:08Z</time>
      </trkpt>
      <trkpt lat="44.48912" lon="0.80687">
        <ele>105.6</ele>
        <time>2018-05-17T00:36:09Z</time>
      </trkpt>
      <trkpt lat="44.4891" lon="0.80687">
        <ele>105.9</ele>
        <time>2018-05-17T00:36:10Z</time>
      </trkpt>
      <trkpt lat="44.48906" lon="0.80687">
        <ele>106.2</ele>
        <time>2018-05-17T00:36:11Z</time>
      </trkpt>
      <trkpt lat="44.48903" lon="0.80687">
        <ele>106.5</ele>
        <time>2018-05-17T00:36:12Z</time>
      </trkpt>
      <trkpt lat="44.489" lon="0.80687">
        <ele>106.6</ele>
        <time>2018-05-17T00:36:13Z</time>
      </trkpt>
      <trkpt lat="44.48897" lon="0.80688">
        <ele>106.7</ele>
        <time>2018-05-17T00:36:14Z</time>
      </trkpt>
      <trkpt lat="44.48894" lon="0.80689">
        <ele>106.8</ele>
        <time>2018-05-17T00:36:15Z</time>
      </trkpt>
      <trkpt lat="44.48888" lon="0.8069">
        <ele>107.1</ele>
        <time>2018-05-17T00:36:17Z</time>
      </trkpt>
      <trkpt lat="44.48885" lon="0.80691">
        <ele>107.2</ele>
        <time>2018-05-17T00:36:18Z</time>
      </trkpt>
      <trkpt lat="44.48882" lon="0.80692">
        <ele>107.3</ele>
        <time>2018-05-17T00:36:19Z</time>
      </trkpt>
      <trkpt lat="44.48878" lon="0.80692">
        <ele>107.3</ele>
        <time>2018-05-17T00:36:20Z</time>
      </trkpt>
      <trkpt lat="44.48875" lon="0.80694">
        <ele>107.4</ele>
        <time>2018-05-17T00:36:21Z</time>
      </trkpt>
      <trkpt lat="44.48871" lon="0.80695">
        <ele>107.4</ele>
        <time>2018-05-17T00:36:22Z</time>
      </trkpt>
      <trkpt lat="44.48867" lon="0.80697">
        <ele>107.3</ele>
        <time>2018-05-17T00:36:23Z</time>
      </trkpt>
      <trkpt lat="44.48864" lon="0.80699">
        <ele>107.3</ele>
        <time>2018-05-17T00:36:24Z</time>
      </trkpt>
      <trkpt lat="44.4886" lon="0.807">
        <ele>107.2</ele>
        <time>2018-05-17T00:36:25Z</time>
      </trkpt>
      <trkpt lat="44.48857" lon="0.80703">
        <ele>107.1</ele>
        <time>2018-05-17T00:36:26Z</time>
      </trkpt>
      <trkpt lat="44.48853" lon="0.80705">
        <ele>107</ele>
        <time>2018-05-17T00:36:27Z</time>
      </trkpt>
      <trkpt lat="44.4885" lon="0.80707">
        <ele>107</ele>
        <time>2018-05-17T00:36:28Z</time>
      </trkpt>
      <trkpt lat="44.48846" lon="0.80709">
        <ele>106.9</ele>
        <time>2018-05-17T00:36:29Z</time>
      </trkpt>
      <trkpt lat="44.48842" lon="0.8071">
        <ele>106.9</ele>
        <time>2018-05-17T00:36:30Z</time>
      </trkpt>
      <trkpt lat="44.48838" lon="0.80712">
        <ele>106.8</ele>
        <time>2018-05-17T00:36:31Z</time>
      </trkpt>
      <trkpt lat="44.48835" lon="0.80713">
        <ele>106.7</ele>
        <time>2018-05-17T00:36:32Z</time>
      </trkpt>
      <trkpt lat="44.48831" lon="0.80716">
        <ele>106.6</ele>
        <time>2018-05-17T00:36:33Z</time>
      </trkpt>
      <trkpt lat="44.48827" lon="0.80717">
        <ele>106.5</ele>
        <time>2018-05-17T00:36:34Z</time>
      </trkpt>
      <trkpt lat="44.48824" lon="0.80719">
        <ele>106.4</ele>
        <time>2018-05-17T00:36:35Z</time>
      </trkpt>
      <trkpt lat="44.48821" lon="0.80721">
        <ele>106.3</ele>
        <time>2018-05-17T00:36:36Z</time>
      </trkpt>
      <trkpt lat="44.48817" lon="0.80723">
        <ele>106.2</ele>
        <time>2018-05-17T00:36:37Z</time>
      </trkpt>
      <trkpt lat="44.48813" lon="0.80726">
        <ele>106.1</ele>
        <time>2018-05-17T00:36:38Z</time>
      </trkpt>
      <trkpt lat="44.48809" lon="0.80728">
        <ele>106.1</ele>
        <time>2018-05-17T00:36:39Z</time>
      </trkpt>
      <trkpt lat="44.48806" lon="0.80732">
        <ele>106</ele>
        <time>2018-05-17T00:36:40Z</time>
      </trkpt>
      <trkpt lat="44.48802" lon="0.80734">
        <ele>106</ele>
        <time>2018-05-17T00:36:41Z</time>
      </trkpt>
      <trkpt lat="44.48799" lon="0.80737">
        <ele>105.9</ele>
        <time>2018-05-17T00:36:42Z</time>
      </trkpt>
      <trkpt lat="44.48795" lon="0.8074">
        <ele>105.8</ele>
        <time>2018-05-17T00:36:43Z</time>
      </trkpt>
      <trkpt lat="44.4879" lon="0.80743">
        <ele>105.7</ele>
        <time>2018-05-17T00:36:44Z</time>
      </trkpt>
      <trkpt lat="44.48786" lon="0.80746">
        <ele>105.6</ele>
        <time>2018-05-17T00:36:45Z</time>
      </trkpt>
      <trkpt lat="44.48782" lon="0.8075">
        <ele>105.5</ele>
        <time>2018-05-17T00:36:46Z</time>
      </trkpt>
      <trkpt lat="44.48779" lon="0.80754">
        <ele>105.4</ele>
        <time>2018-05-17T00:36:47Z</time>
      </trkpt>
      <trkpt lat="44.48775" lon="0.80758">
        <ele>105.4</ele>
        <time>2018-05-17T00:36:48Z</time>
      </trkpt>
      <trkpt lat="44.48772" lon="0.80764">
        <ele>105.4</ele>
        <time>2018-05-17T00:36:49Z</time>
      </trkpt>
      <trkpt lat="44.48769" lon="0.80769">
        <ele>105.3</ele>
        <time>2018-05-17T00:36:50Z</time>
      </trkpt>
      <trkpt lat="44.48765" lon="0.80774">
        <ele>105.3</ele>
        <time>2018-05-17T00:36:51Z</time>
      </trkpt>
      <trkpt lat="44.48762" lon="0.80777">
        <ele>105.3</ele>
        <time>2018-05-17T00:36:52Z</time>
      </trkpt>
      <trkpt lat="44.48759" lon="0.80778">
        <ele>105.3</ele>
        <time>2018-05-17T00:36:53Z</time>
      </trkpt>
      <trkpt lat="44.48756" lon="0.80779">
        <ele>105.3</ele>
        <time>2018-05-17T00:36:54Z</time>
      </trkpt>
      <trkpt lat="44.48753" lon="0.80775">
        <ele>105.3</ele>
        <time>2018-05-17T00:36:55Z</time>
      </trkpt>
      <trkpt lat="44.4875" lon="0.80772">
        <ele>105.3</ele>
        <time>2018-05-17T00:36:56Z</time>
      </trkpt>
      <trkpt lat="44.48747" lon="0.80768">
        <ele>105.3</ele>
        <time>2018-05-17T00:36:57Z</time>
      </trkpt>
      <trkpt lat="44.48744" lon="0.80765">
        <ele>105.3</ele>
        <time>2018-05-17T00:36:58Z</time>
      </trkpt>
      <trkpt lat="44.48739" lon="0.80762">
        <ele>105.3</ele>
        <time>2018-05-17T00:36:59Z</time>
      </trkpt>
      <trkpt lat="44.48734" lon="0.8076">
        <ele>105.3</ele>
        <time>2018-05-17T00:37:00Z</time>
      </trkpt>
      <trkpt lat="44.48729" lon="0.80759">
        <ele>105.3</ele>
        <time>2018-05-17T00:37:01Z</time>
      </trkpt>
      <trkpt lat="44.48724" lon="0.80757">
        <ele>105.4</ele>
        <time>2018-05-17T00:37:02Z</time>
      </trkpt>
      <trkpt lat="44.48719" lon="0.80756">
        <ele>105.3</ele>
        <time>2018-05-17T00:37:03Z</time>
      </trkpt>
      <trkpt lat="44.48714" lon="0.80754">
        <ele>105.3</ele>
        <time>2018-05-17T00:37:04Z</time>
      </trkpt>
      <trkpt lat="44.4871" lon="0.80752">
        <ele>105.3</ele>
        <time>2018-05-17T00:37:05Z</time>
      </trkpt>
      <trkpt lat="44.48706" lon="0.80749">
        <ele>105.3</ele>
        <time>2018-05-17T00:37:06Z</time>
      </trkpt>
      <trkpt lat="44.48702" lon="0.80746">
        <ele>105.2</ele>
        <time>2018-05-17T00:37:07Z</time>
      </trkpt>
      <trkpt lat="44.48698" lon="0.80745">
        <ele>105.2</ele>
        <time>2018-05-17T00:37:08Z</time>
      </trkpt>
      <trkpt lat="44.48694" lon="0.80743">
        <ele>105.1</ele>
        <time>2018-05-17T00:37:09Z</time>
      </trkpt>
      <trkpt lat="44.4869" lon="0.80741">
        <ele>105.1</ele>
        <time>2018-05-17T00:37:10Z</time>
      </trkpt>
      <trkpt lat="44.48686" lon="0.8074">
        <ele>105</ele>
        <time>2018-05-17T00:37:11Z</time>
      </trkpt>
      <trkpt lat="44.48682" lon="0.80739">
        <ele>105</ele>
        <time>2018-05-17T00:37:12Z</time>
      </trkpt>
      <trkpt lat="44.48678" lon="0.80737">
        <ele>104.9</ele>
        <time>2018-05-17T00:37:13Z</time>
      </trkpt>
      <trkpt lat="44.48673" lon="0.80735">
        <ele>104.8</ele>
        <time>2018-05-17T00:37:14Z</time>
      </trkpt>
      <trkpt lat="44.48668" lon="0.80733">
        <ele>104.8</ele>
        <time>2018-05-17T00:37:15Z</time>
      </trkpt>
      <trkpt lat="44.48663" lon="0.80731">
        <ele>104.7</ele>
        <time>2018-05-17T00:37:16Z</time>
      </trkpt>
      <trkpt lat="44.48658" lon="0.80729">
        <ele>104.5</ele>
        <time>2018-05-17T00:37:17Z</time>
      </trkpt>
      <trkpt lat="44.48651" lon="0.80725">
        <ele>104.3</ele>
        <time>2018-05-17T00:37:18Z</time>
      </trkpt>
      <trkpt lat="44.48644" lon="0.80721">
        <ele>104.1</ele>
        <time>2018-05-17T00:37:19Z</time>
      </trkpt>
      <trkpt lat="44.48637" lon="0.80718">
        <ele>103.6</ele>
        <time>2018-05-17T00:37:20Z</time>
      </trkpt>
      <trkpt lat="44.48629" lon="0.80715">
        <ele>103.2</ele>
        <time>2018-05-17T00:37:21Z</time>
      </trkpt>
      <trkpt lat="44.48621" lon="0.80711">
        <ele>102.6</ele>
        <time>2018-05-17T00:37:22Z</time>
      </trkpt>
      <trkpt lat="44.48613" lon="0.80708">
        <ele>102.2</ele>
        <time>2018-05-17T00:37:23Z</time>
      </trkpt>
      <trkpt lat="44.48605" lon="0.80704">
        <ele>101.4</ele>
        <time>2018-05-17T00:37:24Z</time>
      </trkpt>
      <trkpt lat="44.48597" lon="0.80701">
        <ele>100.6</ele>
        <time>2018-05-17T00:37:25Z</time>
      </trkpt>
      <trkpt lat="44.4859" lon="0.80698">
        <ele>99.9</ele>
        <time>2018-05-17T00:37:26Z</time>
      </trkpt>
      <trkpt lat="44.48582" lon="0.80695">
        <ele>99.2</ele>
        <time>2018-05-17T00:37:27Z</time>
      </trkpt>
      <trkpt lat="44.48575" lon="0.80691">
        <ele>98.1</ele>
        <time>2018-05-17T00:37:28Z</time>
      </trkpt>
      <trkpt lat="44.48567" lon="0.80687">
        <ele>97</ele>
        <time>2018-05-17T00:37:29Z</time>
      </trkpt>
      <trkpt lat="44.48559" lon="0.80684">
        <ele>96</ele>
        <time>2018-05-17T00:37:30Z</time>
      </trkpt>
      <trkpt lat="44.48552" lon="0.80682">
        <ele>95</ele>
        <time>2018-05-17T00:37:31Z</time>
      </trkpt>
      <trkpt lat="44.48546" lon="0.8068">
        <ele>94.1</ele>
        <time>2018-05-17T00:37:32Z</time>
      </trkpt>
      <trkpt lat="44.48539" lon="0.80679">
        <ele>93</ele>
        <time>2018-05-17T00:37:33Z</time>
      </trkpt>
      <trkpt lat="44.48532" lon="0.80679">
        <ele>92.3</ele>
        <time>2018-05-17T00:37:34Z</time>
      </trkpt>
      <trkpt lat="44.48525" lon="0.80681">
        <ele>91.8</ele>
        <time>2018-05-17T00:37:35Z</time>
      </trkpt>
      <trkpt lat="44.48519" lon="0.80684">
        <ele>91.2</ele>
        <time>2018-05-17T00:37:36Z</time>
      </trkpt>
      <trkpt lat="44.48512" lon="0.80687">
        <ele>90.7</ele>
        <time>2018-05-17T00:37:37Z</time>
      </trkpt>
      <trkpt lat="44.48506" lon="0.80691">
        <ele>90.2</ele>
        <time>2018-05-17T00:37:38Z</time>
      </trkpt>
      <trkpt lat="44.485" lon="0.80694">
        <ele>89.6</ele>
        <time>2018-05-17T00:37:39Z</time>
      </trkpt>
      <trkpt lat="44.48493" lon="0.80695">
        <ele>88.4</ele>
        <time>2018-05-17T00:37:40Z</time>
      </trkpt>
      <trkpt lat="44.48486" lon="0.80694">
        <ele>87.7</ele>
        <time>2018-05-17T00:37:41Z</time>
      </trkpt>
      <trkpt lat="44.48478" lon="0.80692">
        <ele>86.9</ele>
        <time>2018-05-17T00:37:42Z</time>
      </trkpt>
      <trkpt lat="44.48471" lon="0.8069">
        <ele>85.9</ele>
        <time>2018-05-17T00:37:43Z</time>
      </trkpt>
      <trkpt lat="44.48465" lon="0.80687">
        <ele>85.3</ele>
        <time>2018-05-17T00:37:44Z</time>
      </trkpt>
      <trkpt lat="44.48459" lon="0.80685">
        <ele>84.8</ele>
        <time>2018-05-17T00:37:45Z</time>
      </trkpt>
      <trkpt lat="44.48455" lon="0.80684">
        <ele>84.7</ele>
        <time>2018-05-17T00:37:46Z</time>
      </trkpt>
      <trkpt lat="44.48451" lon="0.80683">
        <ele>84.6</ele>
        <time>2018-05-17T00:37:47Z</time>
      </trkpt>
      <trkpt lat="44.48448" lon="0.80683">
        <ele>84.5</ele>
        <time>2018-05-17T00:37:48Z</time>
      </trkpt>
      <trkpt lat="44.48445" lon="0.80683">
        <ele>84.4</ele>
        <time>2018-05-17T00:37:50Z</time>
      </trkpt>
      <trkpt lat="44.48442" lon="0.80683">
        <ele>84.3</ele>
        <time>2018-05-17T00:37:52Z</time>
      </trkpt>
      <trkpt lat="44.48438" lon="0.80682">
        <ele>84.3</ele>
        <time>2018-05-17T00:37:54Z</time>
      </trkpt>
      <trkpt lat="44.48435" lon="0.80682">
        <ele>84.1</ele>
        <time>2018-05-17T00:37:56Z</time>
      </trkpt>
      <trkpt lat="44.48431" lon="0.80681">
        <ele>84</ele>
        <time>2018-05-17T00:37:58Z</time>
      </trkpt>
      <trkpt lat="44.48427" lon="0.80681">
        <ele>83.8</ele>
        <time>2018-05-17T00:38:00Z</time>
      </trkpt>
      <trkpt lat="44.48422" lon="0.8068">
        <ele>83.4</ele>
        <time>2018-05-17T00:38:02Z</time>
      </trkpt>
      <trkpt lat="44.48419" lon="0.8068">
        <ele>83.2</ele>
        <time>2018-05-17T00:38:03Z</time>
      </trkpt>
      <trkpt lat="44.48414" lon="0.80679">
        <ele>83</ele>
        <time>2018-05-17T00:38:05Z</time>
      </trkpt>
      <trkpt lat="44.48409" lon="0.80678">
        <ele>82.7</ele>
        <time>2018-05-17T00:38:07Z</time>
      </trkpt>
      <trkpt lat="44.48404" lon="0.80677">
        <ele>82.5</ele>
        <time>2018-05-17T00:38:09Z</time>
      </trkpt>
      <trkpt lat="44.48398" lon="0.80676">
        <ele>82.4</ele>
        <time>2018-05-17T00:38:11Z</time>
      </trkpt>
      <trkpt lat="44.48395" lon="0.80676">
        <ele>82.4</ele>
        <time>2018-05-17T00:38:12Z</time>
      </trkpt>
      <trkpt lat="44.48392" lon="0.80675">
        <ele>82.5</ele>
        <time>2018-05-17T00:38:13Z</time>
      </trkpt>
      <trkpt lat="44.48388" lon="0.80673">
        <ele>82.7</ele>
        <time>2018-05-17T00:38:14Z</time>
      </trkpt>
      <trkpt lat="44.48385" lon="0.80672">
        <ele>82.8</ele>
        <time>2018-05-17T00:38:15Z</time>
      </trkpt>
      <trkpt lat="44.48381" lon="0.80673">
        <ele>83</ele>
        <time>2018-05-17T00:38:16Z</time>
      </trkpt>
      <trkpt lat="44.48377" lon="0.80673">
        <ele>83.3</ele>
        <time>2018-05-17T00:38:17Z</time>
      </trkpt>
      <trkpt lat="44.48374" lon="0.80673">
        <ele>83.5</ele>
        <time>2018-05-17T00:38:18Z</time>
      </trkpt>
      <trkpt lat="44.48368" lon="0.80673">
        <ele>83.7</ele>
        <time>2018-05-17T00:38:20Z</time>
      </trkpt>
      <trkpt lat="44.48366" lon="0.80673">
        <ele>83.8</ele>
        <time>2018-05-17T00:38:21Z</time>
      </trkpt>
      <trkpt lat="44.48362" lon="0.80673">
        <ele>84</ele>
        <time>2018-05-17T00:38:22Z</time>
      </trkpt>
      <trkpt lat="44.48359" lon="0.80673">
        <ele>84.2</ele>
        <time>2018-05-17T00:38:23Z</time>
      </trkpt>
      <trkpt lat="44.48356" lon="0.80673">
        <ele>84.4</ele>
        <time>2018-05-17T00:38:24Z</time>
      </trkpt>
      <trkpt lat="44.48352" lon="0.80673">
        <ele>84.9</ele>
        <time>2018-05-17T00:38:25Z</time>
      </trkpt>
      <trkpt lat="44.48349" lon="0.80673">
        <ele>85.1</ele>
        <time>2018-05-17T00:38:26Z</time>
      </trkpt>
      <trkpt lat="44.48345" lon="0.80673">
        <ele>85.4</ele>
        <time>2018-05-17T00:38:27Z</time>
      </trkpt>
      <trkpt lat="44.48342" lon="0.80672">
        <ele>85.7</ele>
        <time>2018-05-17T00:38:28Z</time>
      </trkpt>
      <trkpt lat="44.48339" lon="0.80673">
        <ele>86</ele>
        <time>2018-05-17T00:38:29Z</time>
      </trkpt>
      <trkpt lat="44.48336" lon="0.80672">
        <ele>86.3</ele>
        <time>2018-05-17T00:38:30Z</time>
      </trkpt>
      <trkpt lat="44.48332" lon="0.80672">
        <ele>87</ele>
        <time>2018-05-17T00:38:31Z</time>
      </trkpt>
      <trkpt lat="44.48329" lon="0.80672">
        <ele>87.4</ele>
        <time>2018-05-17T00:38:32Z</time>
      </trkpt>
      <trkpt lat="44.48324" lon="0.80671">
        <ele>88.1</ele>
        <time>2018-05-17T00:38:34Z</time>
      </trkpt>
      <trkpt lat="44.48321" lon="0.80671">
        <ele>88.4</ele>
        <time>2018-05-17T00:38:35Z</time>
      </trkpt>
      <trkpt lat="44.48317" lon="0.8067">
        <ele>88.7</ele>
        <time>2018-05-17T00:38:37Z</time>
      </trkpt>
      <trkpt lat="44.48313" lon="0.80669">
        <ele>88.9</ele>
        <time>2018-05-17T00:38:39Z</time>
      </trkpt>
      <trkpt lat="44.4831" lon="0.80669">
        <ele>89.2</ele>
        <time>2018-05-17T00:38:41Z</time>
      </trkpt>
      <trkpt lat="44.48306" lon="0.80668">
        <ele>90.1</ele>
        <time>2018-05-17T00:38:43Z</time>
      </trkpt>
      <trkpt lat="44.48302" lon="0.80668">
        <ele>90.4</ele>
        <time>2018-05-17T00:38:45Z</time>
      </trkpt>
      <trkpt lat="44.48299" lon="0.80668">
        <ele>90.6</ele>
        <time>2018-05-17T00:38:46Z</time>
      </trkpt>
      <trkpt lat="44.48296" lon="0.80668">
        <ele>90.7</ele>
        <time>2018-05-17T00:38:48Z</time>
      </trkpt>
      <trkpt lat="44.48292" lon="0.80667">
        <ele>90.9</ele>
        <time>2018-05-17T00:38:51Z</time>
      </trkpt>
      <trkpt lat="44.48289" lon="0.80666">
        <ele>91</ele>
        <time>2018-05-17T00:38:54Z</time>
      </trkpt>
      <trkpt lat="44.48286" lon="0.80664">
        <ele>91.1</ele>
        <time>2018-05-17T00:38:57Z</time>
      </trkpt>
      <trkpt lat="44.48283" lon="0.80663">
        <ele>91.6</ele>
        <time>2018-05-17T00:38:59Z</time>
      </trkpt>
      <trkpt lat="44.48279" lon="0.80663">
        <ele>91.7</ele>
        <time>2018-05-17T00:39:02Z</time>
      </trkpt>
      <trkpt lat="44.48259" lon="0.80661">
        <ele>92.5</ele>
        <time>2018-05-17T00:39:15Z</time>
      </trkpt>
      <trkpt lat="44.48256" lon="0.8066">
        <ele>92.6</ele>
        <time>2018-05-17T00:39:18Z</time>
      </trkpt>
      <trkpt lat="44.48253" lon="0.80661">
        <ele>92.8</ele>
        <time>2018-05-17T00:39:20Z</time>
      </trkpt>
      <trkpt lat="44.4825" lon="0.80663">
        <ele>93</ele>
        <time>2018-05-17T00:39:22Z</time>
      </trkpt>
      <trkpt lat="44.48245" lon="0.80662">
        <ele>93.4</ele>
        <time>2018-05-17T00:39:24Z</time>
      </trkpt>
      <trkpt lat="44.48242" lon="0.80661">
        <ele>93.6</ele>
        <time>2018-05-17T00:39:26Z</time>
      </trkpt>
      <trkpt lat="44.48239" lon="0.80662">
        <ele>93.6</ele>
        <time>2018-05-17T00:39:27Z</time>
      </trkpt>
      <trkpt lat="44.48235" lon="0.80659">
        <ele>94.4</ele>
        <time>2018-05-17T00:39:29Z</time>
      </trkpt>
      <trkpt lat="44.48232" lon="0.80658">
        <ele>94.7</ele>
        <time>2018-05-17T00:39:31Z</time>
      </trkpt>
      <trkpt lat="44.48229" lon="0.80662">
        <ele>94.8</ele>
        <time>2018-05-17T00:39:33Z</time>
      </trkpt>
      <trkpt lat="44.48226" lon="0.80665">
        <ele>95</ele>
        <time>2018-05-17T00:39:36Z</time>
      </trkpt>
      <trkpt lat="44.48223" lon="0.80665">
        <ele>95.4</ele>
        <time>2018-05-17T00:39:38Z</time>
      </trkpt>
      <trkpt lat="44.4822" lon="0.80665">
        <ele>95.7</ele>
        <time>2018-05-17T00:39:40Z</time>
      </trkpt>
      <trkpt lat="44.48217" lon="0.80664">
        <ele>96.1</ele>
        <time>2018-05-17T00:39:41Z</time>
      </trkpt>
      <trkpt lat="44.48213" lon="0.80665">
        <ele>96.4</ele>
        <time>2018-05-17T00:39:43Z</time>
      </trkpt>
      <trkpt lat="44.48208" lon="0.80665">
        <ele>97</ele>
        <time>2018-05-17T00:39:45Z</time>
      </trkpt>
      <trkpt lat="44.48203" lon="0.80665">
        <ele>97.2</ele>
        <time>2018-05-17T00:39:47Z</time>
      </trkpt>
      <trkpt lat="44.482" lon="0.80664">
        <ele>97.4</ele>
        <time>2018-05-17T00:39:48Z</time>
      </trkpt>
      <trkpt lat="44.48195" lon="0.80662">
        <ele>97.8</ele>
        <time>2018-05-17T00:39:50Z</time>
      </trkpt>
      <trkpt lat="44.48192" lon="0.80662">
        <ele>97.9</ele>
        <time>2018-05-17T00:39:51Z</time>
      </trkpt>
      <trkpt lat="44.48188" lon="0.80661">
        <ele>98</ele>
        <time>2018-05-17T00:39:52Z</time>
      </trkpt>
      <trkpt lat="44.48184" lon="0.8066">
        <ele>98.1</ele>
        <time>2018-05-17T00:39:53Z</time>
      </trkpt>
      <trkpt lat="44.4818" lon="0.80659">
        <ele>98.1</ele>
        <time>2018-05-17T00:39:54Z</time>
      </trkpt>
      <trkpt lat="44.48176" lon="0.80657">
        <ele>98.1</ele>
        <time>2018-05-17T00:39:55Z</time>
      </trkpt>
      <trkpt lat="44.48172" lon="0.80657">
        <ele>98.1</ele>
        <time>2018-05-17T00:39:56Z</time>
      </trkpt>
      <trkpt lat="44.48169" lon="0.80657">
        <ele>98.1</ele>
        <time>2018-05-17T00:39:57Z</time>
      </trkpt>
      <trkpt lat="44.48166" lon="0.80656">
        <ele>98.1</ele>
        <time>2018-05-17T00:39:58Z</time>
      </trkpt>
      <trkpt lat="44.48161" lon="0.80654">
        <ele>98.2</ele>
        <time>2018-05-17T00:40:00Z</time>
      </trkpt>
      <trkpt lat="44.48158" lon="0.80653">
        <ele>98.2</ele>
        <time>2018-05-17T00:40:01Z</time>
      </trkpt>
      <trkpt lat="44.48154" lon="0.80652">
        <ele>98.2</ele>
        <time>2018-05-17T00:40:02Z</time>
      </trkpt>
      <trkpt lat="44.48151" lon="0.80651">
        <ele>98.3</ele>
        <time>2018-05-17T00:40:03Z</time>
      </trkpt>
      <trkpt lat="44.48148" lon="0.8065">
        <ele>98.3</ele>
        <time>2018-05-17T00:40:04Z</time>
      </trkpt>
      <trkpt lat="44.48144" lon="0.80649">
        <ele>98.3</ele>
        <time>2018-05-17T00:40:05Z</time>
      </trkpt>
      <trkpt lat="44.48141" lon="0.80649">
        <ele>98.3</ele>
        <time>2018-05-17T00:40:06Z</time>
      </trkpt>
      <trkpt lat="44.48138" lon="0.80648">
        <ele>98.4</ele>
        <time>2018-05-17T00:40:07Z</time>
      </trkpt>
      <trkpt lat="44.48133" lon="0.80647">
        <ele>98.4</ele>
        <time>2018-05-17T00:40:08Z</time>
      </trkpt>
      <trkpt lat="44.4813" lon="0.80647">
        <ele>98.5</ele>
        <time>2018-05-17T00:40:09Z</time>
      </trkpt>
      <trkpt lat="44.48126" lon="0.80646">
        <ele>98.5</ele>
        <time>2018-05-17T00:40:10Z</time>
      </trkpt>
      <trkpt lat="44.48123" lon="0.80645">
        <ele>98.6</ele>
        <time>2018-05-17T00:40:11Z</time>
      </trkpt>
      <trkpt lat="44.4812" lon="0.80644">
        <ele>98.6</ele>
        <time>2018-05-17T00:40:12Z</time>
      </trkpt>
      <trkpt lat="44.48117" lon="0.80642">
        <ele>98.6</ele>
        <time>2018-05-17T00:40:13Z</time>
      </trkpt>
      <trkpt lat="44.48114" lon="0.80641">
        <ele>98.7</ele>
        <time>2018-05-17T00:40:14Z</time>
      </trkpt>
      <trkpt lat="44.4811" lon="0.8064">
        <ele>98.8</ele>
        <time>2018-05-17T00:40:15Z</time>
      </trkpt>
      <trkpt lat="44.48106" lon="0.80641">
        <ele>98.8</ele>
        <time>2018-05-17T00:40:16Z</time>
      </trkpt>
      <trkpt lat="44.48102" lon="0.80642">
        <ele>98.9</ele>
        <time>2018-05-17T00:40:17Z</time>
      </trkpt>
      <trkpt lat="44.48099" lon="0.80641">
        <ele>98.9</ele>
        <time>2018-05-17T00:40:18Z</time>
      </trkpt>
      <trkpt lat="44.48095" lon="0.8064">
        <ele>99</ele>
        <time>2018-05-17T00:40:19Z</time>
      </trkpt>
      <trkpt lat="44.48093" lon="0.80639">
        <ele>99</ele>
        <time>2018-05-17T00:40:20Z</time>
      </trkpt>
      <trkpt lat="44.48089" lon="0.80639">
        <ele>99.1</ele>
        <time>2018-05-17T00:40:21Z</time>
      </trkpt>
      <trkpt lat="44.48086" lon="0.80638">
        <ele>99.2</ele>
        <time>2018-05-17T00:40:22Z</time>
      </trkpt>
      <trkpt lat="44.48083" lon="0.80637">
        <ele>99.3</ele>
        <time>2018-05-17T00:40:23Z</time>
      </trkpt>
      <trkpt lat="44.48079" lon="0.80635">
        <ele>99.4</ele>
        <time>2018-05-17T00:40:24Z</time>
      </trkpt>
      <trkpt lat="44.48076" lon="0.80634">
        <ele>99.4</ele>
        <time>2018-05-17T00:40:25Z</time>
      </trkpt>
      <trkpt lat="44.48072" lon="0.80633">
        <ele>99.5</ele>
        <time>2018-05-17T00:40:26Z</time>
      </trkpt>
      <trkpt lat="44.48069" lon="0.80631">
        <ele>99.5</ele>
        <time>2018-05-17T00:40:27Z</time>
      </trkpt>
      <trkpt lat="44.48065" lon="0.8063">
        <ele>99.6</ele>
        <time>2018-05-17T00:40:28Z</time>
      </trkpt>
      <trkpt lat="44.48061" lon="0.80629">
        <ele>99.7</ele>
        <time>2018-05-17T00:40:29Z</time>
      </trkpt>
      <trkpt lat="44.48058" lon="0.80628">
        <ele>99.7</ele>
        <time>2018-05-17T00:40:30Z</time>
      </trkpt>
      <trkpt lat="44.48054" lon="0.80627">
        <ele>99.8</ele>
        <time>2018-05-17T00:40:31Z</time>
      </trkpt>
      <trkpt lat="44.48051" lon="0.80626">
        <ele>99.9</ele>
        <time>2018-05-17T00:40:32Z</time>
      </trkpt>
      <trkpt lat="44.48047" lon="0.80626">
        <ele>99.9</ele>
        <time>2018-05-17T00:40:33Z</time>
      </trkpt>
      <trkpt lat="44.48044" lon="0.80625">
        <ele>100</ele>
        <time>2018-05-17T00:40:34Z</time>
      </trkpt>
      <trkpt lat="44.4804" lon="0.80624">
        <ele>100.1</ele>
        <time>2018-05-17T00:40:35Z</time>
      </trkpt>
      <trkpt lat="44.48036" lon="0.80623">
        <ele>100.2</ele>
        <time>2018-05-17T00:40:36Z</time>
      </trkpt>
      <trkpt lat="44.48033" lon="0.80622">
        <ele>100.3</ele>
        <time>2018-05-17T00:40:37Z</time>
      </trkpt>
      <trkpt lat="44.48029" lon="0.80621">
        <ele>100.4</ele>
        <time>2018-05-17T00:40:38Z</time>
      </trkpt>
      <trkpt lat="44.48026" lon="0.8062">
        <ele>100.5</ele>
        <time>2018-05-17T00:40:39Z</time>
      </trkpt>
      <trkpt lat="44.48023" lon="0.80619">
        <ele>100.7</ele>
        <time>2018-05-17T00:40:40Z</time>
      </trkpt>
      <trkpt lat="44.48019" lon="0.80618">
        <ele>100.9</ele>
        <time>2018-05-17T00:40:41Z</time>
      </trkpt>
      <trkpt lat="44.48015" lon="0.80618">
        <ele>101</ele>
        <time>2018-05-17T00:40:42Z</time>
      </trkpt>
      <trkpt lat="44.48011" lon="0.80617">
        <ele>101.2</ele>
        <time>2018-05-17T00:40:43Z</time>
      </trkpt>
      <trkpt lat="44.48008" lon="0.80615">
        <ele>101.4</ele>
        <time>2018-05-17T00:40:44Z</time>
      </trkpt>
      <trkpt lat="44.48004" lon="0.80615">
        <ele>101.5</ele>
        <time>2018-05-17T00:40:45Z</time>
      </trkpt>
      <trkpt lat="44.48001" lon="0.80614">
        <ele>101.7</ele>
        <time>2018-05-17T00:40:46Z</time>
      </trkpt>
      <trkpt lat="44.47997" lon="0.80613">
        <ele>102.2</ele>
        <time>2018-05-17T00:40:47Z</time>
      </trkpt>
      <trkpt lat="44.47993" lon="0.80612">
        <ele>102.4</ele>
        <time>2018-05-17T00:40:48Z</time>
      </trkpt>
      <trkpt lat="44.47989" lon="0.80611">
        <ele>102.8</ele>
        <time>2018-05-17T00:40:49Z</time>
      </trkpt>
      <trkpt lat="44.47985" lon="0.8061">
        <ele>103</ele>
        <time>2018-05-17T00:40:50Z</time>
      </trkpt>
      <trkpt lat="44.47981" lon="0.80609">
        <ele>103.6</ele>
        <time>2018-05-17T00:40:51Z</time>
      </trkpt>
      <trkpt lat="44.47978" lon="0.80608">
        <ele>103.9</ele>
        <time>2018-05-17T00:40:52Z</time>
      </trkpt>
      <trkpt lat="44.47974" lon="0.80607">
        <ele>104.3</ele>
        <time>2018-05-17T00:40:53Z</time>
      </trkpt>
      <trkpt lat="44.47971" lon="0.80607">
        <ele>104.7</ele>
        <time>2018-05-17T00:40:54Z</time>
      </trkpt>
      <trkpt lat="44.47967" lon="0.80607">
        <ele>105</ele>
        <time>2018-05-17T00:40:55Z</time>
      </trkpt>
      <trkpt lat="44.47963" lon="0.80606">
        <ele>105.6</ele>
        <time>2018-05-17T00:40:56Z</time>
      </trkpt>
      <trkpt lat="44.47959" lon="0.80605">
        <ele>105.8</ele>
        <time>2018-05-17T00:40:57Z</time>
      </trkpt>
      <trkpt lat="44.47956" lon="0.80605">
        <ele>106</ele>
        <time>2018-05-17T00:40:58Z</time>
      </trkpt>
      <trkpt lat="44.47953" lon="0.80605">
        <ele>106.3</ele>
        <time>2018-05-17T00:40:59Z</time>
      </trkpt>
      <trkpt lat="44.47949" lon="0.80604">
        <ele>106.5</ele>
        <time>2018-05-17T00:41:00Z</time>
      </trkpt>
      <trkpt lat="44.47946" lon="0.80604">
        <ele>106.7</ele>
        <time>2018-05-17T00:41:01Z</time>
      </trkpt>
      <trkpt lat="44.47942" lon="0.80603">
        <ele>107</ele>
        <time>2018-05-17T00:41:02Z</time>
      </trkpt>
      <trkpt lat="44.47938" lon="0.80603">
        <ele>107.3</ele>
        <time>2018-05-17T00:41:03Z</time>
      </trkpt>
      <trkpt lat="44.47935" lon="0.80602">
        <ele>107.4</ele>
        <time>2018-05-17T00:41:04Z</time>
      </trkpt>
      <trkpt lat="44.47932" lon="0.80601">
        <ele>107.6</ele>
        <time>2018-05-17T00:41:05Z</time>
      </trkpt>
      <trkpt lat="44.47928" lon="0.80601">
        <ele>107.7</ele>
        <time>2018-05-17T00:41:06Z</time>
      </trkpt>
      <trkpt lat="44.47924" lon="0.806">
        <ele>107.9</ele>
        <time>2018-05-17T00:41:07Z</time>
      </trkpt>
      <trkpt lat="44.47921" lon="0.80599">
        <ele>108.1</ele>
        <time>2018-05-17T00:41:08Z</time>
      </trkpt>
      <trkpt lat="44.47918" lon="0.80598">
        <ele>108.3</ele>
        <time>2018-05-17T00:41:09Z</time>
      </trkpt>
      <trkpt lat="44.47915" lon="0.80597">
        <ele>108.6</ele>
        <time>2018-05-17T00:41:10Z</time>
      </trkpt>
      <trkpt lat="44.47911" lon="0.80596">
        <ele>108.7</ele>
        <time>2018-05-17T00:41:11Z</time>
      </trkpt>
      <trkpt lat="44.47908" lon="0.80595">
        <ele>108.8</ele>
        <time>2018-05-17T00:41:12Z</time>
      </trkpt>
      <trkpt lat="44.47905" lon="0.80594">
        <ele>109</ele>
        <time>2018-05-17T00:41:13Z</time>
      </trkpt>
      <trkpt lat="44.47901" lon="0.80593">
        <ele>109.1</ele>
        <time>2018-05-17T00:41:14Z</time>
      </trkpt>
      <trkpt lat="44.47898" lon="0.80592">
        <ele>109.2</ele>
        <time>2018-05-17T00:41:15Z</time>
      </trkpt>
      <trkpt lat="44.47895" lon="0.80591">
        <ele>109.3</ele>
        <time>2018-05-17T00:41:16Z</time>
      </trkpt>
      <trkpt lat="44.47892" lon="0.8059">
        <ele>109.4</ele>
        <time>2018-05-17T00:41:17Z</time>
      </trkpt>
      <trkpt lat="44.47888" lon="0.80589">
        <ele>109.5</ele>
        <time>2018-05-17T00:41:18Z</time>
      </trkpt>
      <trkpt lat="44.47885" lon="0.80588">
        <ele>109.6</ele>
        <time>2018-05-17T00:41:19Z</time>
      </trkpt>
      <trkpt lat="44.47882" lon="0.80586">
        <ele>109.7</ele>
        <time>2018-05-17T00:41:20Z</time>
      </trkpt>
      <trkpt lat="44.47879" lon="0.80585">
        <ele>109.8</ele>
        <time>2018-05-17T00:41:21Z</time>
      </trkpt>
      <trkpt lat="44.47877" lon="0.80584">
        <ele>109.9</ele>
        <time>2018-05-17T00:41:22Z</time>
      </trkpt>
      <trkpt lat="44.47872" lon="0.80583">
        <ele>109.9</ele>
        <time>2018-05-17T00:41:24Z</time>
      </trkpt>
      <trkpt lat="44.47867" lon="0.80581">
        <ele>110.2</ele>
        <time>2018-05-17T00:41:26Z</time>
      </trkpt>
      <trkpt lat="44.47864" lon="0.80579">
        <ele>110.3</ele>
        <time>2018-05-17T00:41:27Z</time>
      </trkpt>
      <trkpt lat="44.47862" lon="0.80577">
        <ele>110.4</ele>
        <time>2018-05-17T00:41:28Z</time>
      </trkpt>
      <trkpt lat="44.47859" lon="0.80575">
        <ele>110.5</ele>
        <time>2018-05-17T00:41:29Z</time>
      </trkpt>
      <trkpt lat="44.47854" lon="0.80571">
        <ele>110.7</ele>
        <time>2018-05-17T00:41:31Z</time>
      </trkpt>
      <trkpt lat="44.47851" lon="0.8057">
        <ele>110.8</ele>
        <time>2018-05-17T00:41:32Z</time>
      </trkpt>
      <trkpt lat="44.47849" lon="0.8057">
        <ele>110.9</ele>
        <time>2018-05-17T00:41:33Z</time>
      </trkpt>
      <trkpt lat="44.47846" lon="0.80568">
        <ele>111</ele>
        <time>2018-05-17T00:41:34Z</time>
      </trkpt>
      <trkpt lat="44.47843" lon="0.80566">
        <ele>111.1</ele>
        <time>2018-05-17T00:41:35Z</time>
      </trkpt>
      <trkpt lat="44.4784" lon="0.80564">
        <ele>111.3</ele>
        <time>2018-05-17T00:41:36Z</time>
      </trkpt>
      <trkpt lat="44.47837" lon="0.80562">
        <ele>111.4</ele>
        <time>2018-05-17T00:41:37Z</time>
      </trkpt>
      <trkpt lat="44.47833" lon="0.8056">
        <ele>111.5</ele>
        <time>2018-05-17T00:41:38Z</time>
      </trkpt>
      <trkpt lat="44.4783" lon="0.80558">
        <ele>111.6</ele>
        <time>2018-05-17T00:41:39Z</time>
      </trkpt>
      <trkpt lat="44.47827" lon="0.80556">
        <ele>111.8</ele>
        <time>2018-05-17T00:41:40Z</time>
      </trkpt>
      <trkpt lat="44.47824" lon="0.80554">
        <ele>111.9</ele>
        <time>2018-05-17T00:41:41Z</time>
      </trkpt>
      <trkpt lat="44.47821" lon="0.80552">
        <ele>112</ele>
        <time>2018-05-17T00:41:42Z</time>
      </trkpt>
      <trkpt lat="44.47818" lon="0.8055">
        <ele>112.1</ele>
        <time>2018-05-17T00:41:43Z</time>
      </trkpt>
      <trkpt lat="44.47815" lon="0.80548">
        <ele>112.1</ele>
        <time>2018-05-17T00:41:44Z</time>
      </trkpt>
      <trkpt lat="44.47812" lon="0.80547">
        <ele>112.2</ele>
        <time>2018-05-17T00:41:45Z</time>
      </trkpt>
      <trkpt lat="44.47808" lon="0.80545">
        <ele>112.3</ele>
        <time>2018-05-17T00:41:46Z</time>
      </trkpt>
      <trkpt lat="44.47804" lon="0.80543">
        <ele>112.5</ele>
        <time>2018-05-17T00:41:47Z</time>
      </trkpt>
      <trkpt lat="44.47801" lon="0.80542">
        <ele>112.5</ele>
        <time>2018-05-17T00:41:48Z</time>
      </trkpt>
      <trkpt lat="44.47798" lon="0.8054">
        <ele>112.6</ele>
        <time>2018-05-17T00:41:49Z</time>
      </trkpt>
      <trkpt lat="44.47795" lon="0.80538">
        <ele>112.7</ele>
        <time>2018-05-17T00:41:50Z</time>
      </trkpt>
      <trkpt lat="44.4779" lon="0.80535">
        <ele>112.8</ele>
        <time>2018-05-17T00:41:52Z</time>
      </trkpt>
      <trkpt lat="44.47784" lon="0.80531">
        <ele>113</ele>
        <time>2018-05-17T00:41:54Z</time>
      </trkpt>
      <trkpt lat="44.47782" lon="0.80529">
        <ele>113</ele>
        <time>2018-05-17T00:41:55Z</time>
      </trkpt>
      <trkpt lat="44.4778" lon="0.80527">
        <ele>113.1</ele>
        <time>2018-05-17T00:41:56Z</time>
      </trkpt>
      <trkpt lat="44.47777" lon="0.80525">
        <ele>113.3</ele>
        <time>2018-05-17T00:41:57Z</time>
      </trkpt>
      <trkpt lat="44.47775" lon="0.80523">
        <ele>113.3</ele>
        <time>2018-05-17T00:41:58Z</time>
      </trkpt>
      <trkpt lat="44.47773" lon="0.8052">
        <ele>113.4</ele>
        <time>2018-05-17T00:41:59Z</time>
      </trkpt>
      <trkpt lat="44.47771" lon="0.80516">
        <ele>113.6</ele>
        <time>2018-05-17T00:42:00Z</time>
      </trkpt>
      <trkpt lat="44.4777" lon="0.80511">
        <ele>113.7</ele>
        <time>2018-05-17T00:42:01Z</time>
      </trkpt>
      <trkpt lat="44.47769" lon="0.80507">
        <ele>113.9</ele>
        <time>2018-05-17T00:42:02Z</time>
      </trkpt>
      <trkpt lat="44.47769" lon="0.80502">
        <ele>114</ele>
        <time>2018-05-17T00:42:03Z</time>
      </trkpt>
      <trkpt lat="44.47768" lon="0.80497">
        <ele>114.1</ele>
        <time>2018-05-17T00:42:04Z</time>
      </trkpt>
      <trkpt lat="44.47768" lon="0.80492">
        <ele>114.3</ele>
        <time>2018-05-17T00:42:05Z</time>
      </trkpt>
      <trkpt lat="44.47767" lon="0.80487">
        <ele>114.7</ele>
        <time>2018-05-17T00:42:06Z</time>
      </trkpt>
      <trkpt lat="44.47767" lon="0.80483">
        <ele>114.9</ele>
        <time>2018-05-17T00:42:07Z</time>
      </trkpt>
      <trkpt lat="44.47767" lon="0.80478">
        <ele>115.1</ele>
        <time>2018-05-17T00:42:08Z</time>
      </trkpt>
      <trkpt lat="44.47766" lon="0.80473">
        <ele>115.3</ele>
        <time>2018-05-17T00:42:09Z</time>
      </trkpt>
      <trkpt lat="44.47765" lon="0.80468">
        <ele>115.5</ele>
        <time>2018-05-17T00:42:10Z</time>
      </trkpt>
      <trkpt lat="44.47764" lon="0.80463">
        <ele>115.8</ele>
        <time>2018-05-17T00:42:11Z</time>
      </trkpt>
      <trkpt lat="44.47764" lon="0.80459">
        <ele>116.1</ele>
        <time>2018-05-17T00:42:12Z</time>
      </trkpt>
      <trkpt lat="44.47764" lon="0.80454">
        <ele>116.3</ele>
        <time>2018-05-17T00:42:13Z</time>
      </trkpt>
      <trkpt lat="44.47763" lon="0.8045">
        <ele>116.5</ele>
        <time>2018-05-17T00:42:14Z</time>
      </trkpt>
      <trkpt lat="44.47762" lon="0.80445">
        <ele>116.9</ele>
        <time>2018-05-17T00:42:15Z</time>
      </trkpt>
      <trkpt lat="44.47761" lon="0.8044">
        <ele>117.3</ele>
        <time>2018-05-17T00:42:16Z</time>
      </trkpt>
      <trkpt lat="44.47761" lon="0.80435">
        <ele>117.5</ele>
        <time>2018-05-17T00:42:17Z</time>
      </trkpt>
      <trkpt lat="44.47761" lon="0.80431">
        <ele>117.7</ele>
        <time>2018-05-17T00:42:18Z</time>
      </trkpt>
      <trkpt lat="44.47761" lon="0.80427">
        <ele>117.9</ele>
        <time>2018-05-17T00:42:19Z</time>
      </trkpt>
      <trkpt lat="44.47761" lon="0.80423">
        <ele>118</ele>
        <time>2018-05-17T00:42:20Z</time>
      </trkpt>
      <trkpt lat="44.47761" lon="0.80419">
        <ele>118.2</ele>
        <time>2018-05-17T00:42:21Z</time>
      </trkpt>
      <trkpt lat="44.4776" lon="0.80415">
        <ele>118.3</ele>
        <time>2018-05-17T00:42:22Z</time>
      </trkpt>
      <trkpt lat="44.4776" lon="0.80411">
        <ele>118.3</ele>
        <time>2018-05-17T00:42:23Z</time>
      </trkpt>
      <trkpt lat="44.47759" lon="0.80407">
        <ele>118.4</ele>
        <time>2018-05-17T00:42:24Z</time>
      </trkpt>
      <trkpt lat="44.47759" lon="0.80403">
        <ele>118.5</ele>
        <time>2018-05-17T00:42:25Z</time>
      </trkpt>
      <trkpt lat="44.47758" lon="0.80398">
        <ele>118.8</ele>
        <time>2018-05-17T00:42:26Z</time>
      </trkpt>
      <trkpt lat="44.47757" lon="0.80394">
        <ele>119</ele>
        <time>2018-05-17T00:42:27Z</time>
      </trkpt>
      <trkpt lat="44.47755" lon="0.80388">
        <ele>119.4</ele>
        <time>2018-05-17T00:42:29Z</time>
      </trkpt>
      <trkpt lat="44.47754" lon="0.80384">
        <ele>119.6</ele>
        <time>2018-05-17T00:42:30Z</time>
      </trkpt>
      <trkpt lat="44.47753" lon="0.80381">
        <ele>119.6</ele>
        <time>2018-05-17T00:42:31Z</time>
      </trkpt>
      <trkpt lat="44.47749" lon="0.80376">
        <ele>120.1</ele>
        <time>2018-05-17T00:42:33Z</time>
      </trkpt>
      <trkpt lat="44.47747" lon="0.80374">
        <ele>120.2</ele>
        <time>2018-05-17T00:42:34Z</time>
      </trkpt>
      <trkpt lat="44.47744" lon="0.80373">
        <ele>120.4</ele>
        <time>2018-05-17T00:42:35Z</time>
      </trkpt>
      <trkpt lat="44.4774" lon="0.80371">
        <ele>120.7</ele>
        <time>2018-05-17T00:42:36Z</time>
      </trkpt>
      <trkpt lat="44.47738" lon="0.80369">
        <ele>120.8</ele>
        <time>2018-05-17T00:42:37Z</time>
      </trkpt>
      <trkpt lat="44.47733" lon="0.80367">
        <ele>121.2</ele>
        <time>2018-05-17T00:42:39Z</time>
      </trkpt>
      <trkpt lat="44.47729" lon="0.80364">
        <ele>121.4</ele>
        <time>2018-05-17T00:42:41Z</time>
      </trkpt>
      <trkpt lat="44.47726" lon="0.80358">
        <ele>121.7</ele>
        <time>2018-05-17T00:42:43Z</time>
      </trkpt>
      <trkpt lat="44.47727" lon="0.80353">
        <ele>121.8</ele>
        <time>2018-05-17T00:42:45Z</time>
      </trkpt>
      <trkpt lat="44.47727" lon="0.80347">
        <ele>121.8</ele>
        <time>2018-05-17T00:42:47Z</time>
      </trkpt>
      <trkpt lat="44.47728" lon="0.80342">
        <ele>121.9</ele>
        <time>2018-05-17T00:42:49Z</time>
      </trkpt>
      <trkpt lat="44.47729" lon="0.80336">
        <ele>121.8</ele>
        <time>2018-05-17T00:42:51Z</time>
      </trkpt>
      <trkpt lat="44.47731" lon="0.8033">
        <ele>121.8</ele>
        <time>2018-05-17T00:42:53Z</time>
      </trkpt>
      <trkpt lat="44.47732" lon="0.80324">
        <ele>121.7</ele>
        <time>2018-05-17T00:42:55Z</time>
      </trkpt>
      <trkpt lat="44.47732" lon="0.8032">
        <ele>121.7</ele>
        <time>2018-05-17T00:42:56Z</time>
      </trkpt>
      <trkpt lat="44.47733" lon="0.80313">
        <ele>121.6</ele>
        <time>2018-05-17T00:42:58Z</time>
      </trkpt>
      <trkpt lat="44.47734" lon="0.80309">
        <ele>121.6</ele>
        <time>2018-05-17T00:42:59Z</time>
      </trkpt>
      <trkpt lat="44.47734" lon="0.80305">
        <ele>121.5</ele>
        <time>2018-05-17T00:43:00Z</time>
      </trkpt>
      <trkpt lat="44.47734" lon="0.80301">
        <ele>121.4</ele>
        <time>2018-05-17T00:43:01Z</time>
      </trkpt>
      <trkpt lat="44.47735" lon="0.80297">
        <ele>121.4</ele>
        <time>2018-05-17T00:43:02Z</time>
      </trkpt>
      <trkpt lat="44.47736" lon="0.80293">
        <ele>121.3</ele>
        <time>2018-05-17T00:43:03Z</time>
      </trkpt>
      <trkpt lat="44.47737" lon="0.80289">
        <ele>121.3</ele>
        <time>2018-05-17T00:43:04Z</time>
      </trkpt>
      <trkpt lat="44.47737" lon="0.80284">
        <ele>121.2</ele>
        <time>2018-05-17T00:43:05Z</time>
      </trkpt>
      <trkpt lat="44.47738" lon="0.80279">
        <ele>121.1</ele>
        <time>2018-05-17T00:43:06Z</time>
      </trkpt>
      <trkpt lat="44.47738" lon="0.80274">
        <ele>121.1</ele>
        <time>2018-05-17T00:43:07Z</time>
      </trkpt>
      <trkpt lat="44.47739" lon="0.80269">
        <ele>121</ele>
        <time>2018-05-17T00:43:08Z</time>
      </trkpt>
      <trkpt lat="44.4774" lon="0.80264">
        <ele>120.9</ele>
        <time>2018-05-17T00:43:09Z</time>
      </trkpt>
      <trkpt lat="44.47741" lon="0.8026">
        <ele>120.9</ele>
        <time>2018-05-17T00:43:10Z</time>
      </trkpt>
      <trkpt lat="44.47743" lon="0.80254">
        <ele>120.9</ele>
        <time>2018-05-17T00:43:11Z</time>
      </trkpt>
      <trkpt lat="44.47744" lon="0.80249">
        <ele>120.9</ele>
        <time>2018-05-17T00:43:12Z</time>
      </trkpt>
      <trkpt lat="44.47746" lon="0.80243">
        <ele>120.9</ele>
        <time>2018-05-17T00:43:13Z</time>
      </trkpt>
      <trkpt lat="44.47747" lon="0.80238">
        <ele>120.9</ele>
        <time>2018-05-17T00:43:14Z</time>
      </trkpt>
      <trkpt lat="44.47748" lon="0.80232">
        <ele>120.9</ele>
        <time>2018-05-17T00:43:15Z</time>
      </trkpt>
      <trkpt lat="44.4775" lon="0.80226">
        <ele>120.9</ele>
        <time>2018-05-17T00:43:16Z</time>
      </trkpt>
      <trkpt lat="44.47751" lon="0.80221">
        <ele>120.8</ele>
        <time>2018-05-17T00:43:17Z</time>
      </trkpt>
      <trkpt lat="44.47752" lon="0.80214">
        <ele>120.8</ele>
        <time>2018-05-17T00:43:18Z</time>
      </trkpt>
      <trkpt lat="44.47753" lon="0.80209">
        <ele>120.8</ele>
        <time>2018-05-17T00:43:19Z</time>
      </trkpt>
      <trkpt lat="44.47754" lon="0.80203">
        <ele>120.7</ele>
        <time>2018-05-17T00:43:20Z</time>
      </trkpt>
      <trkpt lat="44.47755" lon="0.80197">
        <ele>120.7</ele>
        <time>2018-05-17T00:43:21Z</time>
      </trkpt>
      <trkpt lat="44.47756" lon="0.80191">
        <ele>120.7</ele>
        <time>2018-05-17T00:43:22Z</time>
      </trkpt>
      <trkpt lat="44.47757" lon="0.80184">
        <ele>120.6</ele>
        <time>2018-05-17T00:43:23Z</time>
      </trkpt>
      <trkpt lat="44.47757" lon="0.80179">
        <ele>120.6</ele>
        <time>2018-05-17T00:43:24Z</time>
      </trkpt>
      <trkpt lat="44.47758" lon="0.80173">
        <ele>120.5</ele>
        <time>2018-05-17T00:43:25Z</time>
      </trkpt>
      <trkpt lat="44.47759" lon="0.80167">
        <ele>120.4</ele>
        <time>2018-05-17T00:43:26Z</time>
      </trkpt>
      <trkpt lat="44.4776" lon="0.80161">
        <ele>120.3</ele>
        <time>2018-05-17T00:43:27Z</time>
      </trkpt>
      <trkpt lat="44.47763" lon="0.80156">
        <ele>120.2</ele>
        <time>2018-05-17T00:43:28Z</time>
      </trkpt>
      <trkpt lat="44.47764" lon="0.8015">
        <ele>120.1</ele>
        <time>2018-05-17T00:43:29Z</time>
      </trkpt>
      <trkpt lat="44.47766" lon="0.80143">
        <ele>119.8</ele>
        <time>2018-05-17T00:43:30Z</time>
      </trkpt>
      <trkpt lat="44.47768" lon="0.80137">
        <ele>119.6</ele>
        <time>2018-05-17T00:43:31Z</time>
      </trkpt>
      <trkpt lat="44.47771" lon="0.8013">
        <ele>119.4</ele>
        <time>2018-05-17T00:43:32Z</time>
      </trkpt>
      <trkpt lat="44.47773" lon="0.80124">
        <ele>119.2</ele>
        <time>2018-05-17T00:43:33Z</time>
      </trkpt>
      <trkpt lat="44.47775" lon="0.80117">
        <ele>119</ele>
        <time>2018-05-17T00:43:34Z</time>
      </trkpt>
      <trkpt lat="44.47777" lon="0.80111">
        <ele>118.9</ele>
        <time>2018-05-17T00:43:35Z</time>
      </trkpt>
      <trkpt lat="44.47778" lon="0.80105">
        <ele>118.7</ele>
        <time>2018-05-17T00:43:36Z</time>
      </trkpt>
      <trkpt lat="44.47778" lon="0.80098">
        <ele>118.6</ele>
        <time>2018-05-17T00:43:37Z</time>
      </trkpt>
      <trkpt lat="44.47779" lon="0.80091">
        <ele>118.6</ele>
        <time>2018-05-17T00:43:38Z</time>
      </trkpt>
      <trkpt lat="44.4778" lon="0.80086">
        <ele>118.5</ele>
        <time>2018-05-17T00:43:39Z</time>
      </trkpt>
      <trkpt lat="44.47781" lon="0.8008">
        <ele>118.5</ele>
        <time>2018-05-17T00:43:40Z</time>
      </trkpt>
      <trkpt lat="44.47782" lon="0.80074">
        <ele>118.5</ele>
        <time>2018-05-17T00:43:41Z</time>
      </trkpt>
      <trkpt lat="44.47783" lon="0.80069">
        <ele>118.5</ele>
        <time>2018-05-17T00:43:42Z</time>
      </trkpt>
      <trkpt lat="44.47784" lon="0.80065">
        <ele>118.5</ele>
        <time>2018-05-17T00:43:43Z</time>
      </trkpt>
      <trkpt lat="44.47786" lon="0.8006">
        <ele>118.5</ele>
        <time>2018-05-17T00:43:44Z</time>
      </trkpt>
      <trkpt lat="44.47788" lon="0.80056">
        <ele>118.5</ele>
        <time>2018-05-17T00:43:45Z</time>
      </trkpt>
      <trkpt lat="44.47789" lon="0.80051">
        <ele>118.6</ele>
        <time>2018-05-17T00:43:46Z</time>
      </trkpt>
      <trkpt lat="44.47791" lon="0.80046">
        <ele>118.6</ele>
        <time>2018-05-17T00:43:47Z</time>
      </trkpt>
      <trkpt lat="44.47793" lon="0.80042">
        <ele>118.6</ele>
        <time>2018-05-17T00:43:48Z</time>
      </trkpt>
      <trkpt lat="44.47794" lon="0.80036">
        <ele>118.7</ele>
        <time>2018-05-17T00:43:49Z</time>
      </trkpt>
      <trkpt lat="44.47796" lon="0.80031">
        <ele>118.7</ele>
        <time>2018-05-17T00:43:50Z</time>
      </trkpt>
      <trkpt lat="44.47799" lon="0.80026">
        <ele>118.7</ele>
        <time>2018-05-17T00:43:51Z</time>
      </trkpt>
      <trkpt lat="44.47801" lon="0.8002">
        <ele>118.7</ele>
        <time>2018-05-17T00:43:52Z</time>
      </trkpt>
      <trkpt lat="44.47804" lon="0.80015">
        <ele>118.7</ele>
        <time>2018-05-17T00:43:53Z</time>
      </trkpt>
      <trkpt lat="44.47806" lon="0.8001">
        <ele>118.6</ele>
        <time>2018-05-17T00:43:54Z</time>
      </trkpt>
      <trkpt lat="44.4781" lon="0.80005">
        <ele>118.6</ele>
        <time>2018-05-17T00:43:55Z</time>
      </trkpt>
      <trkpt lat="44.47813" lon="0.79999">
        <ele>118.5</ele>
        <time>2018-05-17T00:43:56Z</time>
      </trkpt>
      <trkpt lat="44.47816" lon="0.79993">
        <ele>118.4</ele>
        <time>2018-05-17T00:43:57Z</time>
      </trkpt>
      <trkpt lat="44.47819" lon="0.79988">
        <ele>118.3</ele>
        <time>2018-05-17T00:43:58Z</time>
      </trkpt>
      <trkpt lat="44.47823" lon="0.79982">
        <ele>118.2</ele>
        <time>2018-05-17T00:43:59Z</time>
      </trkpt>
      <trkpt lat="44.47826" lon="0.79975">
        <ele>118</ele>
        <time>2018-05-17T00:44:00Z</time>
      </trkpt>
      <trkpt lat="44.4783" lon="0.79969">
        <ele>117.9</ele>
        <time>2018-05-17T00:44:01Z</time>
      </trkpt>
      <trkpt lat="44.47834" lon="0.79962">
        <ele>117.8</ele>
        <time>2018-05-17T00:44:02Z</time>
      </trkpt>
      <trkpt lat="44.47838" lon="0.79955">
        <ele>117.6</ele>
        <time>2018-05-17T00:44:03Z</time>
      </trkpt>
      <trkpt lat="44.47842" lon="0.79947">
        <ele>117.5</ele>
        <time>2018-05-17T00:44:04Z</time>
      </trkpt>
      <trkpt lat="44.47846" lon="0.7994">
        <ele>117.5</ele>
        <time>2018-05-17T00:44:05Z</time>
      </trkpt>
      <trkpt lat="44.4785" lon="0.79932">
        <ele>117.3</ele>
        <time>2018-05-17T00:44:06Z</time>
      </trkpt>
      <trkpt lat="44.47853" lon="0.79926">
        <ele>117.3</ele>
        <time>2018-05-17T00:44:07Z</time>
      </trkpt>
      <trkpt lat="44.47856" lon="0.79919">
        <ele>117.3</ele>
        <time>2018-05-17T00:44:08Z</time>
      </trkpt>
      <trkpt lat="44.4786" lon="0.79912">
        <ele>117.2</ele>
        <time>2018-05-17T00:44:09Z</time>
      </trkpt>
      <trkpt lat="44.47863" lon="0.79905">
        <ele>117.3</ele>
        <time>2018-05-17T00:44:10Z</time>
      </trkpt>
      <trkpt lat="44.47866" lon="0.79899">
        <ele>117.2</ele>
        <time>2018-05-17T00:44:11Z</time>
      </trkpt>
      <trkpt lat="44.47869" lon="0.79893">
        <ele>117.2</ele>
        <time>2018-05-17T00:44:12Z</time>
      </trkpt>
      <trkpt lat="44.47872" lon="0.79888">
        <ele>117.2</ele>
        <time>2018-05-17T00:44:13Z</time>
      </trkpt>
      <trkpt lat="44.47875" lon="0.79883">
        <ele>117.2</ele>
        <time>2018-05-17T00:44:14Z</time>
      </trkpt>
      <trkpt lat="44.47879" lon="0.79878">
        <ele>117.1</ele>
        <time>2018-05-17T00:44:15Z</time>
      </trkpt>
      <trkpt lat="44.47881" lon="0.79873">
        <ele>117</ele>
        <time>2018-05-17T00:44:16Z</time>
      </trkpt>
      <trkpt lat="44.47883" lon="0.79868">
        <ele>117</ele>
        <time>2018-05-17T00:44:17Z</time>
      </trkpt>
      <trkpt lat="44.47886" lon="0.79863">
        <ele>116.9</ele>
        <time>2018-05-17T00:44:18Z</time>
      </trkpt>
      <trkpt lat="44.47889" lon="0.79858">
        <ele>116.8</ele>
        <time>2018-05-17T00:44:19Z</time>
      </trkpt>
      <trkpt lat="44.47892" lon="0.79853">
        <ele>116.6</ele>
        <time>2018-05-17T00:44:20Z</time>
      </trkpt>
      <trkpt lat="44.47895" lon="0.79848">
        <ele>116.5</ele>
        <time>2018-05-17T00:44:21Z</time>
      </trkpt>
      <trkpt lat="44.47897" lon="0.79843">
        <ele>116.4</ele>
        <time>2018-05-17T00:44:22Z</time>
      </trkpt>
      <trkpt lat="44.47899" lon="0.79837">
        <ele>116.2</ele>
        <time>2018-05-17T00:44:23Z</time>
      </trkpt>
      <trkpt lat="44.479" lon="0.7983">
        <ele>115.9</ele>
        <time>2018-05-17T00:44:24Z</time>
      </trkpt>
      <trkpt lat="44.47903" lon="0.79824">
        <ele>115.8</ele>
        <time>2018-05-17T00:44:25Z</time>
      </trkpt>
      <trkpt lat="44.47906" lon="0.79817">
        <ele>115.5</ele>
        <time>2018-05-17T00:44:26Z</time>
      </trkpt>
      <trkpt lat="44.47909" lon="0.79811">
        <ele>115.3</ele>
        <time>2018-05-17T00:44:27Z</time>
      </trkpt>
      <trkpt lat="44.47913" lon="0.79806">
        <ele>115.2</ele>
        <time>2018-05-17T00:44:28Z</time>
      </trkpt>
      <trkpt lat="44.47916" lon="0.79799">
        <ele>114.8</ele>
        <time>2018-05-17T00:44:29Z</time>
      </trkpt>
      <trkpt lat="44.4792" lon="0.79793">
        <ele>114.6</ele>
        <time>2018-05-17T00:44:30Z</time>
      </trkpt>
      <trkpt lat="44.47924" lon="0.79785">
        <ele>114.3</ele>
        <time>2018-05-17T00:44:31Z</time>
      </trkpt>
      <trkpt lat="44.47927" lon="0.79779">
        <ele>114</ele>
        <time>2018-05-17T00:44:32Z</time>
      </trkpt>
      <trkpt lat="44.47928" lon="0.7977">
        <ele>113.6</ele>
        <time>2018-05-17T00:44:33Z</time>
      </trkpt>
      <trkpt lat="44.47927" lon="0.79761">
        <ele>113.2</ele>
        <time>2018-05-17T00:44:34Z</time>
      </trkpt>
      <trkpt lat="44.47923" lon="0.79752">
        <ele>112.9</ele>
        <time>2018-05-17T00:44:35Z</time>
      </trkpt>
      <trkpt lat="44.47918" lon="0.79745">
        <ele>112.5</ele>
        <time>2018-05-17T00:44:36Z</time>
      </trkpt>
      <trkpt lat="44.47913" lon="0.79737">
        <ele>112.3</ele>
        <time>2018-05-17T00:44:37Z</time>
      </trkpt>
      <trkpt lat="44.47907" lon="0.79729">
        <ele>111.8</ele>
        <time>2018-05-17T00:44:38Z</time>
      </trkpt>
      <trkpt lat="44.47902" lon="0.7972">
        <ele>111.2</ele>
        <time>2018-05-17T00:44:39Z</time>
      </trkpt>
      <trkpt lat="44.47896" lon="0.79712">
        <ele>110.5</ele>
        <time>2018-05-17T00:44:40Z</time>
      </trkpt>
      <trkpt lat="44.47891" lon="0.79704">
        <ele>109.9</ele>
        <time>2018-05-17T00:44:41Z</time>
      </trkpt>
      <trkpt lat="44.47885" lon="0.79696">
        <ele>109.2</ele>
        <time>2018-05-17T00:44:42Z</time>
      </trkpt>
      <trkpt lat="44.47879" lon="0.79688">
        <ele>108.5</ele>
        <time>2018-05-17T00:44:43Z</time>
      </trkpt>
      <trkpt lat="44.47874" lon="0.79679">
        <ele>107.9</ele>
        <time>2018-05-17T00:44:44Z</time>
      </trkpt>
      <trkpt lat="44.47871" lon="0.79671">
        <ele>107.4</ele>
        <time>2018-05-17T00:44:45Z</time>
      </trkpt>
      <trkpt lat="44.4787" lon="0.79662">
        <ele>107.1</ele>
        <time>2018-05-17T00:44:46Z</time>
      </trkpt>
      <trkpt lat="44.4787" lon="0.79653">
        <ele>106.9</ele>
        <time>2018-05-17T00:44:47Z</time>
      </trkpt>
      <trkpt lat="44.47871" lon="0.79646">
        <ele>106.7</ele>
        <time>2018-05-17T00:44:48Z</time>
      </trkpt>
      <trkpt lat="44.47875" lon="0.79639">
        <ele>106.8</ele>
        <time>2018-05-17T00:44:49Z</time>
      </trkpt>
      <trkpt lat="44.4788" lon="0.79633">
        <ele>106.6</ele>
        <time>2018-05-17T00:44:50Z</time>
      </trkpt>
      <trkpt lat="44.47885" lon="0.79626">
        <ele>106.7</ele>
        <time>2018-05-17T00:44:51Z</time>
      </trkpt>
      <trkpt lat="44.47891" lon="0.79621">
        <ele>106.7</ele>
        <time>2018-05-17T00:44:52Z</time>
      </trkpt>
      <trkpt lat="44.47896" lon="0.79615">
        <ele>106.7</ele>
        <time>2018-05-17T00:44:53Z</time>
      </trkpt>
      <trkpt lat="44.47901" lon="0.7961">
        <ele>106.7</ele>
        <time>2018-05-17T00:44:54Z</time>
      </trkpt>
      <trkpt lat="44.47906" lon="0.796">
        <ele>106.7</ele>
        <time>2018-05-17T00:44:55Z</time>
      </trkpt>
      <trkpt lat="44.47911" lon="0.79591">
        <ele>106.6</ele>
        <time>2018-05-17T00:44:56Z</time>
      </trkpt>
      <trkpt lat="44.47915" lon="0.79583">
        <ele>106.6</ele>
        <time>2018-05-17T00:44:57Z</time>
      </trkpt>
      <trkpt lat="44.47919" lon="0.79577">
        <ele>106.5</ele>
        <time>2018-05-17T00:44:58Z</time>
      </trkpt>
      <trkpt lat="44.47923" lon="0.79571">
        <ele>106.5</ele>
        <time>2018-05-17T00:44:59Z</time>
      </trkpt>
      <trkpt lat="44.47928" lon="0.79567">
        <ele>106.6</ele>
        <time>2018-05-17T00:45:00Z</time>
      </trkpt>
      <trkpt lat="44.47933" lon="0.79563">
        <ele>106.5</ele>
        <time>2018-05-17T00:45:01Z</time>
      </trkpt>
      <trkpt lat="44.47938" lon="0.7956">
        <ele>106.5</ele>
        <time>2018-05-17T00:45:02Z</time>
      </trkpt>
      <trkpt lat="44.47943" lon="0.79557">
        <ele>106.6</ele>
        <time>2018-05-17T00:45:03Z</time>
      </trkpt>
      <trkpt lat="44.47948" lon="0.79554">
        <ele>106.6</ele>
        <time>2018-05-17T00:45:04Z</time>
      </trkpt>
      <trkpt lat="44.47954" lon="0.79551">
        <ele>106.5</ele>
        <time>2018-05-17T00:45:05Z</time>
      </trkpt>
      <trkpt lat="44.47959" lon="0.79548">
        <ele>106.6</ele>
        <time>2018-05-17T00:45:06Z</time>
      </trkpt>
      <trkpt lat="44.47964" lon="0.79545">
        <ele>106.5</ele>
        <time>2018-05-17T00:45:07Z</time>
      </trkpt>
      <trkpt lat="44.47969" lon="0.79543">
        <ele>106.5</ele>
        <time>2018-05-17T00:45:08Z</time>
      </trkpt>
      <trkpt lat="44.47974" lon="0.7954">
        <ele>106.5</ele>
        <time>2018-05-17T00:45:09Z</time>
      </trkpt>
      <trkpt lat="44.47979" lon="0.79538">
        <ele>106.4</ele>
        <time>2018-05-17T00:45:10Z</time>
      </trkpt>
      <trkpt lat="44.47983" lon="0.79536">
        <ele>106.5</ele>
        <time>2018-05-17T00:45:11Z</time>
      </trkpt>
      <trkpt lat="44.47988" lon="0.79534">
        <ele>106.4</ele>
        <time>2018-05-17T00:45:12Z</time>
      </trkpt>
      <trkpt lat="44.47993" lon="0.79531">
        <ele>106.4</ele>
        <time>2018-05-17T00:45:13Z</time>
      </trkpt>
      <trkpt lat="44.47998" lon="0.79529">
        <ele>106.4</ele>
        <time>2018-05-17T00:45:14Z</time>
      </trkpt>
      <trkpt lat="44.48003" lon="0.79527">
        <ele>106.4</ele>
        <time>2018-05-17T00:45:15Z</time>
      </trkpt>
      <trkpt lat="44.48008" lon="0.79524">
        <ele>106.3</ele>
        <time>2018-05-17T00:45:16Z</time>
      </trkpt>
      <trkpt lat="44.48013" lon="0.79521">
        <ele>106.2</ele>
        <time>2018-05-17T00:45:17Z</time>
      </trkpt>
      <trkpt lat="44.48018" lon="0.79519">
        <ele>106.2</ele>
        <time>2018-05-17T00:45:18Z</time>
      </trkpt>
      <trkpt lat="44.48023" lon="0.79517">
        <ele>106.1</ele>
        <time>2018-05-17T00:45:19Z</time>
      </trkpt>
      <trkpt lat="44.48028" lon="0.79514">
        <ele>106.1</ele>
        <time>2018-05-17T00:45:20Z</time>
      </trkpt>
      <trkpt lat="44.48032" lon="0.79512">
        <ele>106</ele>
        <time>2018-05-17T00:45:21Z</time>
      </trkpt>
      <trkpt lat="44.48036" lon="0.7951">
        <ele>106</ele>
        <time>2018-05-17T00:45:22Z</time>
      </trkpt>
      <trkpt lat="44.4804" lon="0.79506">
        <ele>105.8</ele>
        <time>2018-05-17T00:45:23Z</time>
      </trkpt>
      <trkpt lat="44.48044" lon="0.79502">
        <ele>105.7</ele>
        <time>2018-05-17T00:45:24Z</time>
      </trkpt>
      <trkpt lat="44.48048" lon="0.79497">
        <ele>105.4</ele>
        <time>2018-05-17T00:45:25Z</time>
      </trkpt>
      <trkpt lat="44.48052" lon="0.79494">
        <ele>105.2</ele>
        <time>2018-05-17T00:45:26Z</time>
      </trkpt>
      <trkpt lat="44.48055" lon="0.7949">
        <ele>105</ele>
        <time>2018-05-17T00:45:27Z</time>
      </trkpt>
      <trkpt lat="44.48059" lon="0.79485">
        <ele>104.7</ele>
        <time>2018-05-17T00:45:28Z</time>
      </trkpt>
      <trkpt lat="44.48063" lon="0.7948">
        <ele>104.5</ele>
        <time>2018-05-17T00:45:29Z</time>
      </trkpt>
      <trkpt lat="44.48067" lon="0.79475">
        <ele>104.3</ele>
        <time>2018-05-17T00:45:30Z</time>
      </trkpt>
      <trkpt lat="44.4807" lon="0.79472">
        <ele>104.1</ele>
        <time>2018-05-17T00:45:31Z</time>
      </trkpt>
      <trkpt lat="44.48074" lon="0.79468">
        <ele>103.9</ele>
        <time>2018-05-17T00:45:32Z</time>
      </trkpt>
      <trkpt lat="44.48078" lon="0.79464">
        <ele>103.7</ele>
        <time>2018-05-17T00:45:33Z</time>
      </trkpt>
      <trkpt lat="44.48082" lon="0.79459">
        <ele>103.5</ele>
        <time>2018-05-17T00:45:34Z</time>
      </trkpt>
      <trkpt lat="44.48087" lon="0.79455">
        <ele>103.3</ele>
        <time>2018-05-17T00:45:35Z</time>
      </trkpt>
      <trkpt lat="44.48091" lon="0.79451">
        <ele>103.1</ele>
        <time>2018-05-17T00:45:36Z</time>
      </trkpt>
      <trkpt lat="44.48095" lon="0.79446">
        <ele>102.9</ele>
        <time>2018-05-17T00:45:37Z</time>
      </trkpt>
      <trkpt lat="44.481" lon="0.79441">
        <ele>102.8</ele>
        <time>2018-05-17T00:45:38Z</time>
      </trkpt>
      <trkpt lat="44.48104" lon="0.79437">
        <ele>102.7</ele>
        <time>2018-05-17T00:45:39Z</time>
      </trkpt>
      <trkpt lat="44.48109" lon="0.79433">
        <ele>102.6</ele>
        <time>2018-05-17T00:45:40Z</time>
      </trkpt>
      <trkpt lat="44.48113" lon="0.79429">
        <ele>102.5</ele>
        <time>2018-05-17T00:45:41Z</time>
      </trkpt>
      <trkpt lat="44.48118" lon="0.79425">
        <ele>102.4</ele>
        <time>2018-05-17T00:45:42Z</time>
      </trkpt>
      <trkpt lat="44.48122" lon="0.79421">
        <ele>102.4</ele>
        <time>2018-05-17T00:45:43Z</time>
      </trkpt>
      <trkpt lat="44.48126" lon="0.79418">
        <ele>102.3</ele>
        <time>2018-05-17T00:45:44Z</time>
      </trkpt>
      <trkpt lat="44.48131" lon="0.79415">
        <ele>102.2</ele>
        <time>2018-05-17T00:45:45Z</time>
      </trkpt>
      <trkpt lat="44.48136" lon="0.79412">
        <ele>102.2</ele>
        <time>2018-05-17T00:45:46Z</time>
      </trkpt>
      <trkpt lat="44.4814" lon="0.7941">
        <ele>102.2</ele>
        <time>2018-05-17T00:45:47Z</time>
      </trkpt>
      <trkpt lat="44.48145" lon="0.79407">
        <ele>102.2</ele>
        <time>2018-05-17T00:45:48Z</time>
      </trkpt>
      <trkpt lat="44.48149" lon="0.79405">
        <ele>102.1</ele>
        <time>2018-05-17T00:45:49Z</time>
      </trkpt>
      <trkpt lat="44.48154" lon="0.79403">
        <ele>102.1</ele>
        <time>2018-05-17T00:45:50Z</time>
      </trkpt>
      <trkpt lat="44.4816" lon="0.79401">
        <ele>102.1</ele>
        <time>2018-05-17T00:45:51Z</time>
      </trkpt>
      <trkpt lat="44.48165" lon="0.79399">
        <ele>102.1</ele>
        <time>2018-05-17T00:45:52Z</time>
      </trkpt>
      <trkpt lat="44.4817" lon="0.79397">
        <ele>102.1</ele>
        <time>2018-05-17T00:45:53Z</time>
      </trkpt>
      <trkpt lat="44.48176" lon="0.79395">
        <ele>102.2</ele>
        <time>2018-05-17T00:45:54Z</time>
      </trkpt>
      <trkpt lat="44.48181" lon="0.79394">
        <ele>102.2</ele>
        <time>2018-05-17T00:45:55Z</time>
      </trkpt>
      <trkpt lat="44.48187" lon="0.79392">
        <ele>102.2</ele>
        <time>2018-05-17T00:45:56Z</time>
      </trkpt>
      <trkpt lat="44.48192" lon="0.79389">
        <ele>102.3</ele>
        <time>2018-05-17T00:45:57Z</time>
      </trkpt>
      <trkpt lat="44.48197" lon="0.79387">
        <ele>102.4</ele>
        <time>2018-05-17T00:45:58Z</time>
      </trkpt>
      <trkpt lat="44.48202" lon="0.79385">
        <ele>102.4</ele>
        <time>2018-05-17T00:45:59Z</time>
      </trkpt>
      <trkpt lat="44.48206" lon="0.79381">
        <ele>102.5</ele>
        <time>2018-05-17T00:46:00Z</time>
      </trkpt>
      <trkpt lat="44.4821" lon="0.79376">
        <ele>102.8</ele>
        <time>2018-05-17T00:46:01Z</time>
      </trkpt>
      <trkpt lat="44.48211" lon="0.79372">
        <ele>103</ele>
        <time>2018-05-17T00:46:02Z</time>
      </trkpt>
      <trkpt lat="44.48213" lon="0.79364">
        <ele>103.3</ele>
        <time>2018-05-17T00:46:03Z</time>
      </trkpt>
      <trkpt lat="44.48213" lon="0.79356">
        <ele>103.6</ele>
        <time>2018-05-17T00:46:04Z</time>
      </trkpt>
      <trkpt lat="44.48212" lon="0.79348">
        <ele>103.9</ele>
        <time>2018-05-17T00:46:05Z</time>
      </trkpt>
      <trkpt lat="44.48211" lon="0.7934">
        <ele>104.2</ele>
        <time>2018-05-17T00:46:06Z</time>
      </trkpt>
      <trkpt lat="44.48209" lon="0.79332">
        <ele>104.4</ele>
        <time>2018-05-17T00:46:07Z</time>
      </trkpt>
      <trkpt lat="44.48208" lon="0.79324">
        <ele>104.7</ele>
        <time>2018-05-17T00:46:08Z</time>
      </trkpt>
      <trkpt lat="44.48205" lon="0.79317">
        <ele>104.9</ele>
        <time>2018-05-17T00:46:09Z</time>
      </trkpt>
      <trkpt lat="44.48202" lon="0.79311">
        <ele>105.1</ele>
        <time>2018-05-17T00:46:10Z</time>
      </trkpt>
      <trkpt lat="44.48199" lon="0.79304">
        <ele>105.4</ele>
        <time>2018-05-17T00:46:11Z</time>
      </trkpt>
      <trkpt lat="44.48196" lon="0.79298">
        <ele>105.6</ele>
        <time>2018-05-17T00:46:12Z</time>
      </trkpt>
      <trkpt lat="44.48194" lon="0.79293">
        <ele>105.8</ele>
        <time>2018-05-17T00:46:13Z</time>
      </trkpt>
      <trkpt lat="44.48191" lon="0.79289">
        <ele>106</ele>
        <time>2018-05-17T00:46:14Z</time>
      </trkpt>
      <trkpt lat="44.48188" lon="0.79285">
        <ele>106.2</ele>
        <time>2018-05-17T00:46:15Z</time>
      </trkpt>
      <trkpt lat="44.48184" lon="0.79281">
        <ele>106.4</ele>
        <time>2018-05-17T00:46:16Z</time>
      </trkpt>
      <trkpt lat="44.4818" lon="0.79278">
        <ele>106.6</ele>
        <time>2018-05-17T00:46:17Z</time>
      </trkpt>
      <trkpt lat="44.48176" lon="0.79274">
        <ele>106.9</ele>
        <time>2018-05-17T00:46:18Z</time>
      </trkpt>
      <trkpt lat="44.48173" lon="0.79271">
        <ele>107.1</ele>
        <time>2018-05-17T00:46:19Z</time>
      </trkpt>
      <trkpt lat="44.4817" lon="0.79267">
        <ele>107.3</ele>
        <time>2018-05-17T00:46:20Z</time>
      </trkpt>
      <trkpt lat="44.48166" lon="0.79263">
        <ele>107.4</ele>
        <time>2018-05-17T00:46:21Z</time>
      </trkpt>
      <trkpt lat="44.48164" lon="0.7926">
        <ele>107.6</ele>
        <time>2018-05-17T00:46:22Z</time>
      </trkpt>
      <trkpt lat="44.48161" lon="0.79257">
        <ele>107.7</ele>
        <time>2018-05-17T00:46:23Z</time>
      </trkpt>
      <trkpt lat="44.48159" lon="0.79254">
        <ele>107.8</ele>
        <time>2018-05-17T00:46:24Z</time>
      </trkpt>
      <trkpt lat="44.48157" lon="0.79251">
        <ele>107.9</ele>
        <time>2018-05-17T00:46:25Z</time>
      </trkpt>
      <trkpt lat="44.48155" lon="0.79248">
        <ele>108</ele>
        <time>2018-05-17T00:46:26Z</time>
      </trkpt>
      <trkpt lat="44.48153" lon="0.79242">
        <ele>108.3</ele>
        <time>2018-05-17T00:46:28Z</time>
      </trkpt>
      <trkpt lat="44.4815" lon="0.79236">
        <ele>108.5</ele>
        <time>2018-05-17T00:46:30Z</time>
      </trkpt>
      <trkpt lat="44.48147" lon="0.79229">
        <ele>108.8</ele>
        <time>2018-05-17T00:46:32Z</time>
      </trkpt>
      <trkpt lat="44.48143" lon="0.79228">
        <ele>109</ele>
        <time>2018-05-17T00:46:33Z</time>
      </trkpt>
      <trkpt lat="44.48141" lon="0.79226">
        <ele>109.1</ele>
        <time>2018-05-17T00:46:34Z</time>
      </trkpt>
      <trkpt lat="44.48138" lon="0.7922">
        <ele>109.4</ele>
        <time>2018-05-17T00:46:36Z</time>
      </trkpt>
      <trkpt lat="44.48136" lon="0.79215">
        <ele>109.6</ele>
        <time>2018-05-17T00:46:38Z</time>
      </trkpt>
      <trkpt lat="44.48134" lon="0.79208">
        <ele>109.8</ele>
        <time>2018-05-17T00:46:40Z</time>
      </trkpt>
      <trkpt lat="44.48133" lon="0.79204">
        <ele>110</ele>
        <time>2018-05-17T00:46:41Z</time>
      </trkpt>
      <trkpt lat="44.48132" lon="0.79201">
        <ele>110</ele>
        <time>2018-05-17T00:46:42Z</time>
      </trkpt>
      <trkpt lat="44.48131" lon="0.79197">
        <ele>110</ele>
        <time>2018-05-17T00:46:43Z</time>
      </trkpt>
      <trkpt lat="44.4813" lon="0.7919">
        <ele>110</ele>
        <time>2018-05-17T00:46:45Z</time>
      </trkpt>
      <trkpt lat="44.48129" lon="0.79184">
        <ele>110</ele>
        <time>2018-05-17T00:46:47Z</time>
      </trkpt>
      <trkpt lat="44.48129" lon="0.79177">
        <ele>110</ele>
        <time>2018-05-17T00:46:49Z</time>
      </trkpt>
      <trkpt lat="44.48128" lon="0.79173">
        <ele>110</ele>
        <time>2018-05-17T00:46:50Z</time>
      </trkpt>
      <trkpt lat="44.48128" lon="0.79166">
        <ele>109.8</ele>
        <time>2018-05-17T00:46:52Z</time>
      </trkpt>
      <trkpt lat="44.4813" lon="0.79161">
        <ele>109.5</ele>
        <time>2018-05-17T00:46:53Z</time>
      </trkpt>
      <trkpt lat="44.4813" lon="0.79157">
        <ele>109.2</ele>
        <time>2018-05-17T00:46:54Z</time>
      </trkpt>
      <trkpt lat="44.4813" lon="0.7915">
        <ele>108.7</ele>
        <time>2018-05-17T00:46:56Z</time>
      </trkpt>
      <trkpt lat="44.48127" lon="0.79142">
        <ele>108.1</ele>
        <time>2018-05-17T00:46:58Z</time>
      </trkpt>
      <trkpt lat="44.48124" lon="0.79138">
        <ele>107.7</ele>
        <time>2018-05-17T00:46:59Z</time>
      </trkpt>
      <trkpt lat="44.4812" lon="0.79136">
        <ele>107.4</ele>
        <time>2018-05-17T00:47:00Z</time>
      </trkpt>
      <trkpt lat="44.48117" lon="0.79134">
        <ele>107</ele>
        <time>2018-05-17T00:47:01Z</time>
      </trkpt>
      <trkpt lat="44.48113" lon="0.79132">
        <ele>107</ele>
        <time>2018-05-17T00:47:02Z</time>
      </trkpt>
      <trkpt lat="44.4811" lon="0.79131">
        <ele>106.8</ele>
        <time>2018-05-17T00:47:03Z</time>
      </trkpt>
      <trkpt lat="44.48105" lon="0.79131">
        <ele>106.7</ele>
        <time>2018-05-17T00:47:04Z</time>
      </trkpt>
      <trkpt lat="44.48102" lon="0.7913">
        <ele>106.6</ele>
        <time>2018-05-17T00:47:05Z</time>
      </trkpt>
      <trkpt lat="44.48098" lon="0.79131">
        <ele>106.5</ele>
        <time>2018-05-17T00:47:06Z</time>
      </trkpt>
      <trkpt lat="44.48093" lon="0.79133">
        <ele>106.3</ele>
        <time>2018-05-17T00:47:07Z</time>
      </trkpt>
      <trkpt lat="44.48089" lon="0.79134">
        <ele>106.2</ele>
        <time>2018-05-17T00:47:08Z</time>
      </trkpt>
      <trkpt lat="44.48084" lon="0.79135">
        <ele>106</ele>
        <time>2018-05-17T00:47:09Z</time>
      </trkpt>
      <trkpt lat="44.48077" lon="0.79134">
        <ele>105.7</ele>
        <time>2018-05-17T00:47:10Z</time>
      </trkpt>
      <trkpt lat="44.48068" lon="0.79134">
        <ele>105.6</ele>
        <time>2018-05-17T00:47:11Z</time>
      </trkpt>
      <trkpt lat="44.48059" lon="0.79139">
        <ele>105.4</ele>
        <time>2018-05-17T00:47:12Z</time>
      </trkpt>
      <trkpt lat="44.48054" lon="0.7914">
        <ele>105.3</ele>
        <time>2018-05-17T00:47:13Z</time>
      </trkpt>
      <trkpt lat="44.48048" lon="0.79139">
        <ele>105.2</ele>
        <time>2018-05-17T00:47:14Z</time>
      </trkpt>
      <trkpt lat="44.48044" lon="0.79137">
        <ele>105.1</ele>
        <time>2018-05-17T00:47:15Z</time>
      </trkpt>
      <trkpt lat="44.48038" lon="0.79132">
        <ele>104.6</ele>
        <time>2018-05-17T00:47:16Z</time>
      </trkpt>
      <trkpt lat="44.48036" lon="0.79125">
        <ele>104.5</ele>
        <time>2018-05-17T00:47:17Z</time>
      </trkpt>
      <trkpt lat="44.48034" lon="0.79117">
        <ele>104.4</ele>
        <time>2018-05-17T00:47:18Z</time>
      </trkpt>
      <trkpt lat="44.48031" lon="0.79108">
        <ele>104.4</ele>
        <time>2018-05-17T00:47:19Z</time>
      </trkpt>
      <trkpt lat="44.4803" lon="0.79099">
        <ele>104.4</ele>
        <time>2018-05-17T00:47:20Z</time>
      </trkpt>
      <trkpt lat="44.48029" lon="0.79091">
        <ele>104.4</ele>
        <time>2018-05-17T00:47:21Z</time>
      </trkpt>
      <trkpt lat="44.48029" lon="0.7908">
        <ele>104.5</ele>
        <time>2018-05-17T00:47:22Z</time>
      </trkpt>
      <trkpt lat="44.48029" lon="0.79068">
        <ele>104.5</ele>
        <time>2018-05-17T00:47:23Z</time>
      </trkpt>
      <trkpt lat="44.48029" lon="0.79057">
        <ele>104.6</ele>
        <time>2018-05-17T00:47:24Z</time>
      </trkpt>
      <trkpt lat="44.48028" lon="0.79045">
        <ele>104.7</ele>
        <time>2018-05-17T00:47:25Z</time>
      </trkpt>
      <trkpt lat="44.48027" lon="0.79034">
        <ele>104.8</ele>
        <time>2018-05-17T00:47:26Z</time>
      </trkpt>
      <trkpt lat="44.48026" lon="0.79023">
        <ele>104.9</ele>
        <time>2018-05-17T00:47:27Z</time>
      </trkpt>
      <trkpt lat="44.48025" lon="0.79012">
        <ele>105.1</ele>
        <time>2018-05-17T00:47:28Z</time>
      </trkpt>
      <trkpt lat="44.48023" lon="0.79002">
        <ele>105.3</ele>
        <time>2018-05-17T00:47:29Z</time>
      </trkpt>
      <trkpt lat="44.48021" lon="0.78992">
        <ele>105.5</ele>
        <time>2018-05-17T00:47:30Z</time>
      </trkpt>
      <trkpt lat="44.48019" lon="0.78982">
        <ele>105.7</ele>
        <time>2018-05-17T00:47:31Z</time>
      </trkpt>
      <trkpt lat="44.48016" lon="0.78973">
        <ele>106</ele>
        <time>2018-05-17T00:47:32Z</time>
      </trkpt>
      <trkpt lat="44.48013" lon="0.78964">
        <ele>106.2</ele>
        <time>2018-05-17T00:47:33Z</time>
      </trkpt>
      <trkpt lat="44.48008" lon="0.78954">
        <ele>106.5</ele>
        <time>2018-05-17T00:47:34Z</time>
      </trkpt>
      <trkpt lat="44.48006" lon="0.78946">
        <ele>106.7</ele>
        <time>2018-05-17T00:47:35Z</time>
      </trkpt>
      <trkpt lat="44.48003" lon="0.78938">
        <ele>106.8</ele>
        <time>2018-05-17T00:47:36Z</time>
      </trkpt>
      <trkpt lat="44.48" lon="0.7893">
        <ele>106.9</ele>
        <time>2018-05-17T00:47:37Z</time>
      </trkpt>
      <trkpt lat="44.47998" lon="0.78922">
        <ele>107.1</ele>
        <time>2018-05-17T00:47:38Z</time>
      </trkpt>
      <trkpt lat="44.47995" lon="0.78915">
        <ele>107.1</ele>
        <time>2018-05-17T00:47:39Z</time>
      </trkpt>
      <trkpt lat="44.47993" lon="0.78908">
        <ele>107.2</ele>
        <time>2018-05-17T00:47:40Z</time>
      </trkpt>
      <trkpt lat="44.47989" lon="0.78902">
        <ele>107.3</ele>
        <time>2018-05-17T00:47:41Z</time>
      </trkpt>
      <trkpt lat="44.47986" lon="0.78897">
        <ele>107.3</ele>
        <time>2018-05-17T00:47:42Z</time>
      </trkpt>
      <trkpt lat="44.47984" lon="0.78894">
        <ele>107.4</ele>
        <time>2018-05-17T00:47:43Z</time>
      </trkpt>
      <trkpt lat="44.47981" lon="0.78892">
        <ele>107.4</ele>
        <time>2018-05-17T00:47:44Z</time>
      </trkpt>
      <trkpt lat="44.47978" lon="0.78892">
        <ele>107.4</ele>
        <time>2018-05-17T00:47:45Z</time>
      </trkpt>
      <trkpt lat="44.47971" lon="0.78893">
        <ele>107.5</ele>
        <time>2018-05-17T00:47:46Z</time>
      </trkpt>
      <trkpt lat="44.47968" lon="0.78895">
        <ele>107.5</ele>
        <time>2018-05-17T00:47:47Z</time>
      </trkpt>
      <trkpt lat="44.47965" lon="0.78897">
        <ele>107.4</ele>
        <time>2018-05-17T00:47:48Z</time>
      </trkpt>
      <trkpt lat="44.47962" lon="0.78899">
        <ele>107.5</ele>
        <time>2018-05-17T00:47:49Z</time>
      </trkpt>
      <trkpt lat="44.47958" lon="0.789">
        <ele>107.5</ele>
        <time>2018-05-17T00:47:50Z</time>
      </trkpt>
      <trkpt lat="44.47953" lon="0.78901">
        <ele>107.6</ele>
        <time>2018-05-17T00:47:51Z</time>
      </trkpt>
      <trkpt lat="44.4795" lon="0.78902">
        <ele>107.6</ele>
        <time>2018-05-17T00:47:52Z</time>
      </trkpt>
      <trkpt lat="44.47946" lon="0.78903">
        <ele>107.7</ele>
        <time>2018-05-17T00:47:53Z</time>
      </trkpt>
      <trkpt lat="44.47942" lon="0.78904">
        <ele>107.7</ele>
        <time>2018-05-17T00:47:54Z</time>
      </trkpt>
      <trkpt lat="44.47938" lon="0.78905">
        <ele>107.8</ele>
        <time>2018-05-17T00:47:55Z</time>
      </trkpt>
      <trkpt lat="44.47935" lon="0.78907">
        <ele>107.8</ele>
        <time>2018-05-17T00:47:56Z</time>
      </trkpt>
      <trkpt lat="44.47931" lon="0.78909">
        <ele>107.8</ele>
        <time>2018-05-17T00:47:57Z</time>
      </trkpt>
      <trkpt lat="44.47927" lon="0.78911">
        <ele>108</ele>
        <time>2018-05-17T00:47:58Z</time>
      </trkpt>
      <trkpt lat="44.47923" lon="0.78913">
        <ele>107.9</ele>
        <time>2018-05-17T00:47:59Z</time>
      </trkpt>
      <trkpt lat="44.47921" lon="0.78915">
        <ele>108</ele>
        <time>2018-05-17T00:48:00Z</time>
      </trkpt>
      <trkpt lat="44.47918" lon="0.78917">
        <ele>108</ele>
        <time>2018-05-17T00:48:01Z</time>
      </trkpt>
      <trkpt lat="44.47916" lon="0.7892">
        <ele>107.9</ele>
        <time>2018-05-17T00:48:02Z</time>
      </trkpt>
      <trkpt lat="44.47913" lon="0.78923">
        <ele>107.9</ele>
        <time>2018-05-17T00:48:03Z</time>
      </trkpt>
      <trkpt lat="44.47911" lon="0.78926">
        <ele>107.9</ele>
        <time>2018-05-17T00:48:04Z</time>
      </trkpt>
      <trkpt lat="44.47908" lon="0.7893">
        <ele>108</ele>
        <time>2018-05-17T00:48:06Z</time>
      </trkpt>
      <trkpt lat="44.47903" lon="0.78933">
        <ele>108</ele>
        <time>2018-05-17T00:48:08Z</time>
      </trkpt>
      <trkpt lat="44.47899" lon="0.78937">
        <ele>108</ele>
        <time>2018-05-17T00:48:10Z</time>
      </trkpt>
      <trkpt lat="44.47896" lon="0.78938">
        <ele>108.1</ele>
        <time>2018-05-17T00:48:11Z</time>
      </trkpt>
      <trkpt lat="44.47893" lon="0.7894">
        <ele>108</ele>
        <time>2018-05-17T00:48:12Z</time>
      </trkpt>
      <trkpt lat="44.47891" lon="0.78942">
        <ele>108</ele>
        <time>2018-05-17T00:48:13Z</time>
      </trkpt>
      <trkpt lat="44.47888" lon="0.78944">
        <ele>108.1</ele>
        <time>2018-05-17T00:48:14Z</time>
      </trkpt>
      <trkpt lat="44.47885" lon="0.78948">
        <ele>108.1</ele>
        <time>2018-05-17T00:48:16Z</time>
      </trkpt>
      <trkpt lat="44.4788" lon="0.7895">
        <ele>108.3</ele>
        <time>2018-05-17T00:48:18Z</time>
      </trkpt>
      <trkpt lat="44.47876" lon="0.78952">
        <ele>108.4</ele>
        <time>2018-05-17T00:48:20Z</time>
      </trkpt>
      <trkpt lat="44.47873" lon="0.78954">
        <ele>108.5</ele>
        <time>2018-05-17T00:48:21Z</time>
      </trkpt>
      <trkpt lat="44.4787" lon="0.78956">
        <ele>108.6</ele>
        <time>2018-05-17T00:48:22Z</time>
      </trkpt>
      <trkpt lat="44.47867" lon="0.78959">
        <ele>108.7</ele>
        <time>2018-05-17T00:48:23Z</time>
      </trkpt>
      <trkpt lat="44.47863" lon="0.78962">
        <ele>108.8</ele>
        <time>2018-05-17T00:48:24Z</time>
      </trkpt>
      <trkpt lat="44.47861" lon="0.78965">
        <ele>108.9</ele>
        <time>2018-05-17T00:48:25Z</time>
      </trkpt>
      <trkpt lat="44.47859" lon="0.7897">
        <ele>109.1</ele>
        <time>2018-05-17T00:48:27Z</time>
      </trkpt>
      <trkpt lat="44.47856" lon="0.78975">
        <ele>109.2</ele>
        <time>2018-05-17T00:48:29Z</time>
      </trkpt>
      <trkpt lat="44.47853" lon="0.7898">
        <ele>109.4</ele>
        <time>2018-05-17T00:48:31Z</time>
      </trkpt>
      <trkpt lat="44.47851" lon="0.78983">
        <ele>109.3</ele>
        <time>2018-05-17T00:48:32Z</time>
      </trkpt>
      <trkpt lat="44.47847" lon="0.7899">
        <ele>109.6</ele>
        <time>2018-05-17T00:48:34Z</time>
      </trkpt>
      <trkpt lat="44.47845" lon="0.78995">
        <ele>109.4</ele>
        <time>2018-05-17T00:48:35Z</time>
      </trkpt>
      <trkpt lat="44.47843" lon="0.78999">
        <ele>109.5</ele>
        <time>2018-05-17T00:48:36Z</time>
      </trkpt>
      <trkpt lat="44.47842" lon="0.79002">
        <ele>109.5</ele>
        <time>2018-05-17T00:48:37Z</time>
      </trkpt>
      <trkpt lat="44.47839" lon="0.79008">
        <ele>109.6</ele>
        <time>2018-05-17T00:48:39Z</time>
      </trkpt>
      <trkpt lat="44.47834" lon="0.7901">
        <ele>110.1</ele>
        <time>2018-05-17T00:48:41Z</time>
      </trkpt>
      <trkpt lat="44.47832" lon="0.79013">
        <ele>110</ele>
        <time>2018-05-17T00:48:43Z</time>
      </trkpt>
      <trkpt lat="44.47829" lon="0.79016">
        <ele>110.5</ele>
        <time>2018-05-17T00:48:45Z</time>
      </trkpt>
      <trkpt lat="44.47825" lon="0.79019">
        <ele>110.7</ele>
        <time>2018-05-17T00:48:47Z</time>
      </trkpt>
      <trkpt lat="44.47822" lon="0.79023">
        <ele>110.9</ele>
        <time>2018-05-17T00:48:49Z</time>
      </trkpt>
      <trkpt lat="44.47819" lon="0.79027">
        <ele>111</ele>
        <time>2018-05-17T00:48:51Z</time>
      </trkpt>
      <trkpt lat="44.47816" lon="0.79031">
        <ele>111.2</ele>
        <time>2018-05-17T00:48:53Z</time>
      </trkpt>
      <trkpt lat="44.47815" lon="0.79037">
        <ele>111.2</ele>
        <time>2018-05-17T00:48:55Z</time>
      </trkpt>
      <trkpt lat="44.47813" lon="0.79041">
        <ele>111.3</ele>
        <time>2018-05-17T00:48:57Z</time>
      </trkpt>
      <trkpt lat="44.47811" lon="0.79044">
        <ele>111.3</ele>
        <time>2018-05-17T00:48:59Z</time>
      </trkpt>
      <trkpt lat="44.47809" lon="0.79047">
        <ele>111.4</ele>
        <time>2018-05-17T00:49:01Z</time>
      </trkpt>
      <trkpt lat="44.47806" lon="0.79051">
        <ele>111.6</ele>
        <time>2018-05-17T00:49:03Z</time>
      </trkpt>
      <trkpt lat="44.47803" lon="0.79055">
        <ele>111.8</ele>
        <time>2018-05-17T00:49:05Z</time>
      </trkpt>
      <trkpt lat="44.478" lon="0.7906">
        <ele>112</ele>
        <time>2018-05-17T00:49:07Z</time>
      </trkpt>
      <trkpt lat="44.478" lon="0.79065">
        <ele>112</ele>
        <time>2018-05-17T00:49:09Z</time>
      </trkpt>
      <trkpt lat="44.47796" lon="0.79068">
        <ele>112.2</ele>
        <time>2018-05-17T00:49:11Z</time>
      </trkpt>
      <trkpt lat="44.47793" lon="0.79071">
        <ele>112.4</ele>
        <time>2018-05-17T00:49:12Z</time>
      </trkpt>
      <trkpt lat="44.4779" lon="0.79073">
        <ele>112.6</ele>
        <time>2018-05-17T00:49:13Z</time>
      </trkpt>
      <trkpt lat="44.47788" lon="0.79078">
        <ele>112.9</ele>
        <time>2018-05-17T00:49:15Z</time>
      </trkpt>
      <trkpt lat="44.47787" lon="0.79083">
        <ele>112.9</ele>
        <time>2018-05-17T00:49:17Z</time>
      </trkpt>
      <trkpt lat="44.47785" lon="0.79087">
        <ele>113.2</ele>
        <time>2018-05-17T00:49:19Z</time>
      </trkpt>
      <trkpt lat="44.47785" lon="0.79093">
        <ele>113.2</ele>
        <time>2018-05-17T00:49:22Z</time>
      </trkpt>
      <trkpt lat="44.47783" lon="0.79098">
        <ele>113.5</ele>
        <time>2018-05-17T00:49:24Z</time>
      </trkpt>
      <trkpt lat="44.4778" lon="0.79101">
        <ele>113.8</ele>
        <time>2018-05-17T00:49:26Z</time>
      </trkpt>
      <trkpt lat="44.47777" lon="0.79104">
        <ele>113.8</ele>
        <time>2018-05-17T00:49:28Z</time>
      </trkpt>
      <trkpt lat="44.47773" lon="0.79108">
        <ele>114.5</ele>
        <time>2018-05-17T00:49:31Z</time>
      </trkpt>
      <trkpt lat="44.4777" lon="0.7911">
        <ele>114.8</ele>
        <time>2018-05-17T00:49:33Z</time>
      </trkpt>
      <trkpt lat="44.47766" lon="0.79113">
        <ele>115.1</ele>
        <time>2018-05-17T00:49:35Z</time>
      </trkpt>
      <trkpt lat="44.47764" lon="0.79115">
        <ele>115.3</ele>
        <time>2018-05-17T00:49:37Z</time>
      </trkpt>
      <trkpt lat="44.47761" lon="0.79117">
        <ele>115.6</ele>
        <time>2018-05-17T00:49:39Z</time>
      </trkpt>
      <trkpt lat="44.47755" lon="0.79118">
        <ele>116.2</ele>
        <time>2018-05-17T00:49:41Z</time>
      </trkpt>
      <trkpt lat="44.4775" lon="0.79119">
        <ele>116.5</ele>
        <time>2018-05-17T00:49:42Z</time>
      </trkpt>
      <trkpt lat="44.47744" lon="0.79121">
        <ele>117.1</ele>
        <time>2018-05-17T00:49:43Z</time>
      </trkpt>
      <trkpt lat="44.47739" lon="0.79124">
        <ele>117.6</ele>
        <time>2018-05-17T00:49:44Z</time>
      </trkpt>
      <trkpt lat="44.47734" lon="0.79128">
        <ele>118.1</ele>
        <time>2018-05-17T00:49:45Z</time>
      </trkpt>
      <trkpt lat="44.4773" lon="0.79133">
        <ele>118.3</ele>
        <time>2018-05-17T00:49:47Z</time>
      </trkpt>
      <trkpt lat="44.47728" lon="0.79137">
        <ele>118.2</ele>
        <time>2018-05-17T00:49:48Z</time>
      </trkpt>
      <trkpt lat="44.47726" lon="0.7914">
        <ele>118.4</ele>
        <time>2018-05-17T00:49:49Z</time>
      </trkpt>
      <trkpt lat="44.47724" lon="0.79143">
        <ele>118.6</ele>
        <time>2018-05-17T00:49:51Z</time>
      </trkpt>
      <trkpt lat="44.47721" lon="0.79145">
        <ele>118.8</ele>
        <time>2018-05-17T00:49:54Z</time>
      </trkpt>
      <trkpt lat="44.47718" lon="0.79145">
        <ele>119</ele>
        <time>2018-05-17T00:49:57Z</time>
      </trkpt>
      <trkpt lat="44.47715" lon="0.79144">
        <ele>119.4</ele>
        <time>2018-05-17T00:50:01Z</time>
      </trkpt>
      <trkpt lat="44.47711" lon="0.79145">
        <ele>119.5</ele>
        <time>2018-05-17T00:50:04Z</time>
      </trkpt>
      <trkpt lat="44.47708" lon="0.79145">
        <ele>119.7</ele>
        <time>2018-05-17T00:50:06Z</time>
      </trkpt>
      <trkpt lat="44.47703" lon="0.79144">
        <ele>120.3</ele>
        <time>2018-05-17T00:50:09Z</time>
      </trkpt>
      <trkpt lat="44.477" lon="0.79143">
        <ele>120.5</ele>
        <time>2018-05-17T00:50:11Z</time>
      </trkpt>
      <trkpt lat="44.47697" lon="0.79143">
        <ele>120.7</ele>
        <time>2018-05-17T00:50:13Z</time>
      </trkpt>
      <trkpt lat="44.47693" lon="0.79143">
        <ele>121</ele>
        <time>2018-05-17T00:50:15Z</time>
      </trkpt>
      <trkpt lat="44.47688" lon="0.79142">
        <ele>121.3</ele>
        <time>2018-05-17T00:50:17Z</time>
      </trkpt>
      <trkpt lat="44.47686" lon="0.79142">
        <ele>121.6</ele>
        <time>2018-05-17T00:50:18Z</time>
      </trkpt>
      <trkpt lat="44.4768" lon="0.79142">
        <ele>122.2</ele>
        <time>2018-05-17T00:50:20Z</time>
      </trkpt>
      <trkpt lat="44.47676" lon="0.79143">
        <ele>122.5</ele>
        <time>2018-05-17T00:50:22Z</time>
      </trkpt>
      <trkpt lat="44.47671" lon="0.79143">
        <ele>123.2</ele>
        <time>2018-05-17T00:50:24Z</time>
      </trkpt>
      <trkpt lat="44.47666" lon="0.79143">
        <ele>124.1</ele>
        <time>2018-05-17T00:50:26Z</time>
      </trkpt>
      <trkpt lat="44.47662" lon="0.79144">
        <ele>124.5</ele>
        <time>2018-05-17T00:50:28Z</time>
      </trkpt>
      <trkpt lat="44.47657" lon="0.79144">
        <ele>125.2</ele>
        <time>2018-05-17T00:50:30Z</time>
      </trkpt>
      <trkpt lat="44.47653" lon="0.79145">
        <ele>125.4</ele>
        <time>2018-05-17T00:50:32Z</time>
      </trkpt>
      <trkpt lat="44.47648" lon="0.79147">
        <ele>125.6</ele>
        <time>2018-05-17T00:50:34Z</time>
      </trkpt>
      <trkpt lat="44.47644" lon="0.79148">
        <ele>126.2</ele>
        <time>2018-05-17T00:50:36Z</time>
      </trkpt>
      <trkpt lat="44.47641" lon="0.79149">
        <ele>126.4</ele>
        <time>2018-05-17T00:50:37Z</time>
      </trkpt>
      <trkpt lat="44.47635" lon="0.79149">
        <ele>126.8</ele>
        <time>2018-05-17T00:50:39Z</time>
      </trkpt>
      <trkpt lat="44.4763" lon="0.79147">
        <ele>127.1</ele>
        <time>2018-05-17T00:50:41Z</time>
      </trkpt>
      <trkpt lat="44.47626" lon="0.79147">
        <ele>127.6</ele>
        <time>2018-05-17T00:50:43Z</time>
      </trkpt>
      <trkpt lat="44.47622" lon="0.79147">
        <ele>127.9</ele>
        <time>2018-05-17T00:50:45Z</time>
      </trkpt>
      <trkpt lat="44.47619" lon="0.79146">
        <ele>128.2</ele>
        <time>2018-05-17T00:50:47Z</time>
      </trkpt>
      <trkpt lat="44.47614" lon="0.79145">
        <ele>128.9</ele>
        <time>2018-05-17T00:50:49Z</time>
      </trkpt>
      <trkpt lat="44.47611" lon="0.79141">
        <ele>129.5</ele>
        <time>2018-05-17T00:50:52Z</time>
      </trkpt>
      <trkpt lat="44.47608" lon="0.79139">
        <ele>130</ele>
        <time>2018-05-17T00:50:54Z</time>
      </trkpt>
      <trkpt lat="44.47603" lon="0.79138">
        <ele>130.4</ele>
        <time>2018-05-17T00:50:56Z</time>
      </trkpt>
      <trkpt lat="44.47599" lon="0.79136">
        <ele>131.1</ele>
        <time>2018-05-17T00:50:58Z</time>
      </trkpt>
      <trkpt lat="44.47596" lon="0.79134">
        <ele>131.1</ele>
        <time>2018-05-17T00:50:59Z</time>
      </trkpt>
      <trkpt lat="44.47594" lon="0.79132">
        <ele>131.3</ele>
        <time>2018-05-17T00:51:02Z</time>
      </trkpt>
      <trkpt lat="44.47591" lon="0.79131">
        <ele>131.6</ele>
        <time>2018-05-17T00:51:05Z</time>
      </trkpt>
      <trkpt lat="44.47588" lon="0.79132">
        <ele>131.6</ele>
        <time>2018-05-17T00:51:08Z</time>
      </trkpt>
      <trkpt lat="44.47584" lon="0.79131">
        <ele>131.9</ele>
        <time>2018-05-17T00:51:12Z</time>
      </trkpt>
      <trkpt lat="44.4758" lon="0.7913">
        <ele>132.3</ele>
        <time>2018-05-17T00:51:14Z</time>
      </trkpt>
      <trkpt lat="44.47573" lon="0.79127">
        <ele>132.9</ele>
        <time>2018-05-17T00:51:17Z</time>
      </trkpt>
      <trkpt lat="44.47569" lon="0.79125">
        <ele>133.3</ele>
        <time>2018-05-17T00:51:19Z</time>
      </trkpt>
      <trkpt lat="44.47566" lon="0.79123">
        <ele>133.2</ele>
        <time>2018-05-17T00:51:21Z</time>
      </trkpt>
      <trkpt lat="44.47562" lon="0.79125">
        <ele>133.7</ele>
        <time>2018-05-17T00:51:23Z</time>
      </trkpt>
      <trkpt lat="44.47557" lon="0.79123">
        <ele>134.2</ele>
        <time>2018-05-17T00:51:26Z</time>
      </trkpt>
      <trkpt lat="44.47472" lon="0.79099">
        <ele>142.2</ele>
        <time>2018-05-17T00:52:44Z</time>
      </trkpt>
      <trkpt lat="44.47467" lon="0.79097">
        <ele>142.5</ele>
        <time>2018-05-17T00:52:46Z</time>
      </trkpt>
      <trkpt lat="44.47464" lon="0.79095">
        <ele>142.6</ele>
        <time>2018-05-17T00:52:48Z</time>
      </trkpt>
      <trkpt lat="44.4746" lon="0.79094">
        <ele>142.7</ele>
        <time>2018-05-17T00:52:49Z</time>
      </trkpt>
      <trkpt lat="44.47455" lon="0.79093">
        <ele>142.9</ele>
        <time>2018-05-17T00:52:51Z</time>
      </trkpt>
      <trkpt lat="44.47451" lon="0.7909">
        <ele>143</ele>
        <time>2018-05-17T00:52:53Z</time>
      </trkpt>
      <trkpt lat="44.47449" lon="0.79087">
        <ele>143.1</ele>
        <time>2018-05-17T00:52:57Z</time>
      </trkpt>
      <trkpt lat="44.4744" lon="0.79089">
        <ele>143.3</ele>
        <time>2018-05-17T00:53:03Z</time>
      </trkpt>
      <trkpt lat="44.47414" lon="0.79087">
        <ele>143.9</ele>
        <time>2018-05-17T00:53:12Z</time>
      </trkpt>
      <trkpt lat="44.47411" lon="0.79086">
        <ele>143.9</ele>
        <time>2018-05-17T00:53:13Z</time>
      </trkpt>
      <trkpt lat="44.47406" lon="0.79086">
        <ele>143.9</ele>
        <time>2018-05-17T00:53:15Z</time>
      </trkpt>
      <trkpt lat="44.47402" lon="0.79085">
        <ele>143.9</ele>
        <time>2018-05-17T00:53:16Z</time>
      </trkpt>
      <trkpt lat="44.47399" lon="0.79085">
        <ele>143.8</ele>
        <time>2018-05-17T00:53:17Z</time>
      </trkpt>
      <trkpt lat="44.47397" lon="0.79084">
        <ele>143.9</ele>
        <time>2018-05-17T00:53:18Z</time>
      </trkpt>
      <trkpt lat="44.47394" lon="0.79084">
        <ele>143.8</ele>
        <time>2018-05-17T00:53:19Z</time>
      </trkpt>
      <trkpt lat="44.47391" lon="0.79082">
        <ele>143.8</ele>
        <time>2018-05-17T00:53:20Z</time>
      </trkpt>
      <trkpt lat="44.47385" lon="0.79079">
        <ele>143.7</ele>
        <time>2018-05-17T00:53:22Z</time>
      </trkpt>
      <trkpt lat="44.47383" lon="0.79075">
        <ele>143.7</ele>
        <time>2018-05-17T00:53:27Z</time>
      </trkpt>
      <trkpt lat="44.47378" lon="0.79071">
        <ele>143.6</ele>
        <time>2018-05-17T00:53:29Z</time>
      </trkpt>
      <trkpt lat="44.47376" lon="0.79068">
        <ele>143.6</ele>
        <time>2018-05-17T00:53:31Z</time>
      </trkpt>
      <trkpt lat="44.47367" lon="0.79067">
        <ele>143.4</ele>
        <time>2018-05-17T00:53:40Z</time>
      </trkpt>
      <trkpt lat="44.47334" lon="0.79057">
        <ele>142.1</ele>
        <time>2018-05-17T00:53:56Z</time>
      </trkpt>
      <trkpt lat="44.47331" lon="0.79061">
        <ele>142.1</ele>
        <time>2018-05-17T00:53:58Z</time>
      </trkpt>
      <trkpt lat="44.47326" lon="0.79061">
        <ele>142.1</ele>
        <time>2018-05-17T00:54:00Z</time>
      </trkpt>
      <trkpt lat="44.47322" lon="0.79064">
        <ele>142.1</ele>
        <time>2018-05-17T00:54:02Z</time>
      </trkpt>
      <trkpt lat="44.47318" lon="0.79066">
        <ele>142.1</ele>
        <time>2018-05-17T00:54:04Z</time>
      </trkpt>
      <trkpt lat="44.47315" lon="0.79063">
        <ele>142.1</ele>
        <time>2018-05-17T00:54:06Z</time>
      </trkpt>
      <trkpt lat="44.47316" lon="0.7906">
        <ele>142.1</ele>
        <time>2018-05-17T00:54:08Z</time>
      </trkpt>
      <trkpt lat="44.47321" lon="0.7906">
        <ele>142.1</ele>
        <time>2018-05-17T00:54:10Z</time>
      </trkpt>
      <trkpt lat="44.47325" lon="0.79061">
        <ele>142.1</ele>
        <time>2018-05-17T00:54:12Z</time>
      </trkpt>
      <trkpt lat="44.47328" lon="0.79058">
        <ele>142.1</ele>
        <time>2018-05-17T00:54:14Z</time>
      </trkpt>
      <trkpt lat="44.47333" lon="0.79055">
        <ele>142.1</ele>
        <time>2018-05-17T00:54:16Z</time>
      </trkpt>
      <trkpt lat="44.47336" lon="0.79053">
        <ele>142.1</ele>
        <time>2018-05-17T00:54:17Z</time>
      </trkpt>
      <trkpt lat="44.47339" lon="0.79051">
        <ele>142.1</ele>
        <time>2018-05-17T00:54:18Z</time>
      </trkpt>
      <trkpt lat="44.47342" lon="0.79047">
        <ele>142.1</ele>
        <time>2018-05-17T00:54:19Z</time>
      </trkpt>
      <trkpt lat="44.47344" lon="0.79042">
        <ele>142.1</ele>
        <time>2018-05-17T00:54:20Z</time>
      </trkpt>
      <trkpt lat="44.47348" lon="0.79037">
        <ele>142.1</ele>
        <time>2018-05-17T00:54:21Z</time>
      </trkpt>
      <trkpt lat="44.4735" lon="0.79034">
        <ele>142.1</ele>
        <time>2018-05-17T00:54:22Z</time>
      </trkpt>
      <trkpt lat="44.47353" lon="0.7903">
        <ele>142.1</ele>
        <time>2018-05-17T00:54:23Z</time>
      </trkpt>
      <trkpt lat="44.47355" lon="0.79026">
        <ele>142.1</ele>
        <time>2018-05-17T00:54:24Z</time>
      </trkpt>
      <trkpt lat="44.47358" lon="0.79021">
        <ele>142.1</ele>
        <time>2018-05-17T00:54:25Z</time>
      </trkpt>
      <trkpt lat="44.47362" lon="0.79017">
        <ele>142.1</ele>
        <time>2018-05-17T00:54:26Z</time>
      </trkpt>
      <trkpt lat="44.47365" lon="0.79012">
        <ele>142.1</ele>
        <time>2018-05-17T00:54:27Z</time>
      </trkpt>
      <trkpt lat="44.47368" lon="0.79008">
        <ele>142.1</ele>
        <time>2018-05-17T00:54:28Z</time>
      </trkpt>
      <trkpt lat="44.47371" lon="0.79004">
        <ele>142.1</ele>
        <time>2018-05-17T00:54:29Z</time>
      </trkpt>
      <trkpt lat="44.47374" lon="0.79">
        <ele>142.1</ele>
        <time>2018-05-17T00:54:30Z</time>
      </trkpt>
      <trkpt lat="44.47378" lon="0.78995">
        <ele>142.1</ele>
        <time>2018-05-17T00:54:31Z</time>
      </trkpt>
      <trkpt lat="44.47381" lon="0.78991">
        <ele>142.1</ele>
        <time>2018-05-17T00:54:32Z</time>
      </trkpt>
      <trkpt lat="44.47384" lon="0.78986">
        <ele>142.1</ele>
        <time>2018-05-17T00:54:33Z</time>
      </trkpt>
      <trkpt lat="44.47387" lon="0.78981">
        <ele>142</ele>
        <time>2018-05-17T00:54:34Z</time>
      </trkpt>
      <trkpt lat="44.47391" lon="0.78978">
        <ele>142</ele>
        <time>2018-05-17T00:54:35Z</time>
      </trkpt>
      <trkpt lat="44.47394" lon="0.78974">
        <ele>142</ele>
        <time>2018-05-17T00:54:36Z</time>
      </trkpt>
      <trkpt lat="44.47397" lon="0.7897">
        <ele>142</ele>
        <time>2018-05-17T00:54:37Z</time>
      </trkpt>
      <trkpt lat="44.47401" lon="0.78965">
        <ele>141.9</ele>
        <time>2018-05-17T00:54:38Z</time>
      </trkpt>
      <trkpt lat="44.47404" lon="0.78962">
        <ele>141.9</ele>
        <time>2018-05-17T00:54:39Z</time>
      </trkpt>
      <trkpt lat="44.47407" lon="0.78957">
        <ele>141.9</ele>
        <time>2018-05-17T00:54:40Z</time>
      </trkpt>
      <trkpt lat="44.47409" lon="0.78954">
        <ele>141.8</ele>
        <time>2018-05-17T00:54:41Z</time>
      </trkpt>
      <trkpt lat="44.47412" lon="0.78951">
        <ele>141.8</ele>
        <time>2018-05-17T00:54:42Z</time>
      </trkpt>
      <trkpt lat="44.47414" lon="0.78948">
        <ele>141.7</ele>
        <time>2018-05-17T00:54:43Z</time>
      </trkpt>
      <trkpt lat="44.47417" lon="0.78945">
        <ele>141.6</ele>
        <time>2018-05-17T00:54:44Z</time>
      </trkpt>
      <trkpt lat="44.4742" lon="0.78942">
        <ele>141.4</ele>
        <time>2018-05-17T00:54:45Z</time>
      </trkpt>
      <trkpt lat="44.47423" lon="0.78938">
        <ele>141.1</ele>
        <time>2018-05-17T00:54:46Z</time>
      </trkpt>
      <trkpt lat="44.47425" lon="0.78932">
        <ele>140.8</ele>
        <time>2018-05-17T00:54:47Z</time>
      </trkpt>
      <trkpt lat="44.47427" lon="0.78928">
        <ele>140.6</ele>
        <time>2018-05-17T00:54:48Z</time>
      </trkpt>
      <trkpt lat="44.4743" lon="0.78924">
        <ele>140.5</ele>
        <time>2018-05-17T00:54:49Z</time>
      </trkpt>
      <trkpt lat="44.47433" lon="0.78919">
        <ele>140.4</ele>
        <time>2018-05-17T00:54:50Z</time>
      </trkpt>
      <trkpt lat="44.47436" lon="0.78914">
        <ele>140.3</ele>
        <time>2018-05-17T00:54:51Z</time>
      </trkpt>
      <trkpt lat="44.47439" lon="0.78908">
        <ele>140.2</ele>
        <time>2018-05-17T00:54:52Z</time>
      </trkpt>
      <trkpt lat="44.47442" lon="0.78901">
        <ele>140.2</ele>
        <time>2018-05-17T00:54:53Z</time>
      </trkpt>
      <trkpt lat="44.47445" lon="0.78894">
        <ele>140.1</ele>
        <time>2018-05-17T00:54:54Z</time>
      </trkpt>
      <trkpt lat="44.47449" lon="0.78886">
        <ele>140</ele>
        <time>2018-05-17T00:54:55Z</time>
      </trkpt>
      <trkpt lat="44.47451" lon="0.78878">
        <ele>139.8</ele>
        <time>2018-05-17T00:54:56Z</time>
      </trkpt>
      <trkpt lat="44.47453" lon="0.7887">
        <ele>139.7</ele>
        <time>2018-05-17T00:54:57Z</time>
      </trkpt>
      <trkpt lat="44.47456" lon="0.78862">
        <ele>139.5</ele>
        <time>2018-05-17T00:54:58Z</time>
      </trkpt>
      <trkpt lat="44.47458" lon="0.78854">
        <ele>139.4</ele>
        <time>2018-05-17T00:54:59Z</time>
      </trkpt>
      <trkpt lat="44.4746" lon="0.78846">
        <ele>139.1</ele>
        <time>2018-05-17T00:55:00Z</time>
      </trkpt>
      <trkpt lat="44.47462" lon="0.78838">
        <ele>138.8</ele>
        <time>2018-05-17T00:55:01Z</time>
      </trkpt>
      <trkpt lat="44.47464" lon="0.78828">
        <ele>138.4</ele>
        <time>2018-05-17T00:55:02Z</time>
      </trkpt>
      <trkpt lat="44.47465" lon="0.78819">
        <ele>138.2</ele>
        <time>2018-05-17T00:55:03Z</time>
      </trkpt>
      <trkpt lat="44.47467" lon="0.78811">
        <ele>138</ele>
        <time>2018-05-17T00:55:04Z</time>
      </trkpt>
      <trkpt lat="44.47468" lon="0.78802">
        <ele>137.9</ele>
        <time>2018-05-17T00:55:05Z</time>
      </trkpt>
      <trkpt lat="44.47469" lon="0.78792">
        <ele>137.8</ele>
        <time>2018-05-17T00:55:06Z</time>
      </trkpt>
      <trkpt lat="44.4747" lon="0.78783">
        <ele>137.6</ele>
        <time>2018-05-17T00:55:07Z</time>
      </trkpt>
      <trkpt lat="44.4747" lon="0.78773">
        <ele>137.4</ele>
        <time>2018-05-17T00:55:08Z</time>
      </trkpt>
      <trkpt lat="44.4747" lon="0.78763">
        <ele>137</ele>
        <time>2018-05-17T00:55:09Z</time>
      </trkpt>
      <trkpt lat="44.4747" lon="0.78753">
        <ele>136.4</ele>
        <time>2018-05-17T00:55:10Z</time>
      </trkpt>
      <trkpt lat="44.4747" lon="0.78741">
        <ele>135.8</ele>
        <time>2018-05-17T00:55:11Z</time>
      </trkpt>
      <trkpt lat="44.4747" lon="0.78731">
        <ele>135.3</ele>
        <time>2018-05-17T00:55:12Z</time>
      </trkpt>
      <trkpt lat="44.4747" lon="0.78721">
        <ele>134.7</ele>
        <time>2018-05-17T00:55:13Z</time>
      </trkpt>
      <trkpt lat="44.4747" lon="0.78711">
        <ele>134.1</ele>
        <time>2018-05-17T00:55:14Z</time>
      </trkpt>
      <trkpt lat="44.4747" lon="0.787">
        <ele>133.8</ele>
        <time>2018-05-17T00:55:15Z</time>
      </trkpt>
      <trkpt lat="44.47469" lon="0.7869">
        <ele>133.5</ele>
        <time>2018-05-17T00:55:16Z</time>
      </trkpt>
      <trkpt lat="44.47469" lon="0.78679">
        <ele>133.2</ele>
        <time>2018-05-17T00:55:17Z</time>
      </trkpt>
      <trkpt lat="44.47471" lon="0.78666">
        <ele>132.7</ele>
        <time>2018-05-17T00:55:18Z</time>
      </trkpt>
      <trkpt lat="44.47472" lon="0.78653">
        <ele>132.1</ele>
        <time>2018-05-17T00:55:19Z</time>
      </trkpt>
      <trkpt lat="44.47473" lon="0.78641">
        <ele>131.5</ele>
        <time>2018-05-17T00:55:20Z</time>
      </trkpt>
      <trkpt lat="44.47475" lon="0.78629">
        <ele>131.1</ele>
        <time>2018-05-17T00:55:21Z</time>
      </trkpt>
      <trkpt lat="44.47477" lon="0.78617">
        <ele>130.4</ele>
        <time>2018-05-17T00:55:22Z</time>
      </trkpt>
      <trkpt lat="44.47479" lon="0.78605">
        <ele>129.7</ele>
        <time>2018-05-17T00:55:23Z</time>
      </trkpt>
      <trkpt lat="44.47482" lon="0.78594">
        <ele>129</ele>
        <time>2018-05-17T00:55:24Z</time>
      </trkpt>
      <trkpt lat="44.47485" lon="0.7858">
        <ele>128.3</ele>
        <time>2018-05-17T00:55:25Z</time>
      </trkpt>
      <trkpt lat="44.47487" lon="0.78567">
        <ele>127.7</ele>
        <time>2018-05-17T00:55:26Z</time>
      </trkpt>
      <trkpt lat="44.4749" lon="0.78553">
        <ele>127.2</ele>
        <time>2018-05-17T00:55:27Z</time>
      </trkpt>
      <trkpt lat="44.47492" lon="0.78539">
        <ele>126.9</ele>
        <time>2018-05-17T00:55:28Z</time>
      </trkpt>
      <trkpt lat="44.47494" lon="0.78524">
        <ele>126.6</ele>
        <time>2018-05-17T00:55:29Z</time>
      </trkpt>
      <trkpt lat="44.47497" lon="0.78511">
        <ele>126.1</ele>
        <time>2018-05-17T00:55:30Z</time>
      </trkpt>
      <trkpt lat="44.47502" lon="0.78498">
        <ele>125.4</ele>
        <time>2018-05-17T00:55:31Z</time>
      </trkpt>
      <trkpt lat="44.47508" lon="0.78487">
        <ele>125</ele>
        <time>2018-05-17T00:55:32Z</time>
      </trkpt>
      <trkpt lat="44.47514" lon="0.78476">
        <ele>124.7</ele>
        <time>2018-05-17T00:55:33Z</time>
      </trkpt>
      <trkpt lat="44.47522" lon="0.78466">
        <ele>124.2</ele>
        <time>2018-05-17T00:55:34Z</time>
      </trkpt>
      <trkpt lat="44.47529" lon="0.78456">
        <ele>123.6</ele>
        <time>2018-05-17T00:55:35Z</time>
      </trkpt>
      <trkpt lat="44.47537" lon="0.78447">
        <ele>123.1</ele>
        <time>2018-05-17T00:55:36Z</time>
      </trkpt>
      <trkpt lat="44.47545" lon="0.78438">
        <ele>122.8</ele>
        <time>2018-05-17T00:55:37Z</time>
      </trkpt>
      <trkpt lat="44.47552" lon="0.78429">
        <ele>122.6</ele>
        <time>2018-05-17T00:55:38Z</time>
      </trkpt>
      <trkpt lat="44.47559" lon="0.7842">
        <ele>122.3</ele>
        <time>2018-05-17T00:55:39Z</time>
      </trkpt>
      <trkpt lat="44.47567" lon="0.78413">
        <ele>122</ele>
        <time>2018-05-17T00:55:40Z</time>
      </trkpt>
      <trkpt lat="44.47574" lon="0.78407">
        <ele>121.4</ele>
        <time>2018-05-17T00:55:41Z</time>
      </trkpt>
      <trkpt lat="44.47582" lon="0.784">
        <ele>120.7</ele>
        <time>2018-05-17T00:55:42Z</time>
      </trkpt>
      <trkpt lat="44.47589" lon="0.78394">
        <ele>120.3</ele>
        <time>2018-05-17T00:55:43Z</time>
      </trkpt>
      <trkpt lat="44.47597" lon="0.78388">
        <ele>120</ele>
        <time>2018-05-17T00:55:44Z</time>
      </trkpt>
      <trkpt lat="44.47605" lon="0.78381">
        <ele>119.6</ele>
        <time>2018-05-17T00:55:45Z</time>
      </trkpt>
      <trkpt lat="44.47613" lon="0.78375">
        <ele>119.1</ele>
        <time>2018-05-17T00:55:46Z</time>
      </trkpt>
      <trkpt lat="44.47621" lon="0.78368">
        <ele>118.6</ele>
        <time>2018-05-17T00:55:47Z</time>
      </trkpt>
      <trkpt lat="44.4763" lon="0.78361">
        <ele>118.4</ele>
        <time>2018-05-17T00:55:48Z</time>
      </trkpt>
      <trkpt lat="44.47638" lon="0.78353">
        <ele>118.3</ele>
        <time>2018-05-17T00:55:49Z</time>
      </trkpt>
      <trkpt lat="44.47645" lon="0.78345">
        <ele>118.3</ele>
        <time>2018-05-17T00:55:50Z</time>
      </trkpt>
      <trkpt lat="44.47653" lon="0.78338">
        <ele>118.2</ele>
        <time>2018-05-17T00:55:51Z</time>
      </trkpt>
      <trkpt lat="44.47661" lon="0.78331">
        <ele>118.1</ele>
        <time>2018-05-17T00:55:52Z</time>
      </trkpt>
      <trkpt lat="44.4767" lon="0.78326">
        <ele>118.1</ele>
        <time>2018-05-17T00:55:53Z</time>
      </trkpt>
      <trkpt lat="44.47678" lon="0.78322">
        <ele>118.1</ele>
        <time>2018-05-17T00:55:54Z</time>
      </trkpt>
      <trkpt lat="44.47686" lon="0.78316">
        <ele>118</ele>
        <time>2018-05-17T00:55:55Z</time>
      </trkpt>
      <trkpt lat="44.47693" lon="0.78312">
        <ele>118</ele>
        <time>2018-05-17T00:55:56Z</time>
      </trkpt>
      <trkpt lat="44.47701" lon="0.78308">
        <ele>118</ele>
        <time>2018-05-17T00:55:57Z</time>
      </trkpt>
      <trkpt lat="44.47707" lon="0.783">
        <ele>117.8</ele>
        <time>2018-05-17T00:55:58Z</time>
      </trkpt>
      <trkpt lat="44.47712" lon="0.78292">
        <ele>117.4</ele>
        <time>2018-05-17T00:55:59Z</time>
      </trkpt>
      <trkpt lat="44.47713" lon="0.78283">
        <ele>117.1</ele>
        <time>2018-05-17T00:56:00Z</time>
      </trkpt>
      <trkpt lat="44.47715" lon="0.78274">
        <ele>116.9</ele>
        <time>2018-05-17T00:56:01Z</time>
      </trkpt>
      <trkpt lat="44.47715" lon="0.78266">
        <ele>116.8</ele>
        <time>2018-05-17T00:56:02Z</time>
      </trkpt>
      <trkpt lat="44.47716" lon="0.7826">
        <ele>116.7</ele>
        <time>2018-05-17T00:56:03Z</time>
      </trkpt>
      <trkpt lat="44.47717" lon="0.78256">
        <ele>116.5</ele>
        <time>2018-05-17T00:56:04Z</time>
      </trkpt>
      <trkpt lat="44.47719" lon="0.78252">
        <ele>116.4</ele>
        <time>2018-05-17T00:56:05Z</time>
      </trkpt>
      <trkpt lat="44.47719" lon="0.78248">
        <ele>116.2</ele>
        <time>2018-05-17T00:56:06Z</time>
      </trkpt>
      <trkpt lat="44.47721" lon="0.78241">
        <ele>115.8</ele>
        <time>2018-05-17T00:56:08Z</time>
      </trkpt>
      <trkpt lat="44.47722" lon="0.78238">
        <ele>115.6</ele>
        <time>2018-05-17T00:56:09Z</time>
      </trkpt>
      <trkpt lat="44.47723" lon="0.78234">
        <ele>115.3</ele>
        <time>2018-05-17T00:56:10Z</time>
      </trkpt>
      <trkpt lat="44.47724" lon="0.78227">
        <ele>115</ele>
        <time>2018-05-17T00:56:12Z</time>
      </trkpt>
      <trkpt lat="44.47725" lon="0.78222">
        <ele>114.7</ele>
        <time>2018-05-17T00:56:14Z</time>
      </trkpt>
      <trkpt lat="44.47726" lon="0.78217">
        <ele>114.3</ele>
        <time>2018-05-17T00:56:16Z</time>
      </trkpt>
      <trkpt lat="44.47727" lon="0.78212">
        <ele>114.2</ele>
        <time>2018-05-17T00:56:18Z</time>
      </trkpt>
      <trkpt lat="44.47728" lon="0.78207">
        <ele>114.1</ele>
        <time>2018-05-17T00:56:20Z</time>
      </trkpt>
      <trkpt lat="44.47728" lon="0.782">
        <ele>113.7</ele>
        <time>2018-05-17T00:56:22Z</time>
      </trkpt>
      <trkpt lat="44.4773" lon="0.78195">
        <ele>113.6</ele>
        <time>2018-05-17T00:56:24Z</time>
      </trkpt>
      <trkpt lat="44.47733" lon="0.7819">
        <ele>113.4</ele>
        <time>2018-05-17T00:56:26Z</time>
      </trkpt>
      <trkpt lat="44.47735" lon="0.78183">
        <ele>113.2</ele>
        <time>2018-05-17T00:56:28Z</time>
      </trkpt>
      <trkpt lat="44.47737" lon="0.7818">
        <ele>113.1</ele>
        <time>2018-05-17T00:56:29Z</time>
      </trkpt>
      <trkpt lat="44.47739" lon="0.78173">
        <ele>112.8</ele>
        <time>2018-05-17T00:56:31Z</time>
      </trkpt>
      <trkpt lat="44.4774" lon="0.78169">
        <ele>112.7</ele>
        <time>2018-05-17T00:56:32Z</time>
      </trkpt>
      <trkpt lat="44.47741" lon="0.78166">
        <ele>112.5</ele>
        <time>2018-05-17T00:56:33Z</time>
      </trkpt>
      <trkpt lat="44.47741" lon="0.78161">
        <ele>112.4</ele>
        <time>2018-05-17T00:56:34Z</time>
      </trkpt>
      <trkpt lat="44.47741" lon="0.78157">
        <ele>112.2</ele>
        <time>2018-05-17T00:56:35Z</time>
      </trkpt>
      <trkpt lat="44.47741" lon="0.78153">
        <ele>112.2</ele>
        <time>2018-05-17T00:56:36Z</time>
      </trkpt>
      <trkpt lat="44.47741" lon="0.78147">
        <ele>112</ele>
        <time>2018-05-17T00:56:38Z</time>
      </trkpt>
      <trkpt lat="44.4774" lon="0.78143">
        <ele>112</ele>
        <time>2018-05-17T00:56:40Z</time>
      </trkpt>
      <trkpt lat="44.47739" lon="0.78139">
        <ele>111.9</ele>
        <time>2018-05-17T00:56:42Z</time>
      </trkpt>
      <trkpt lat="44.47741" lon="0.78132">
        <ele>111.7</ele>
        <time>2018-05-17T00:56:45Z</time>
      </trkpt>
      <trkpt lat="44.47742" lon="0.78128">
        <ele>111.6</ele>
        <time>2018-05-17T00:56:46Z</time>
      </trkpt>
      <trkpt lat="44.47743" lon="0.78123">
        <ele>111.4</ele>
        <time>2018-05-17T00:56:47Z</time>
      </trkpt>
      <trkpt lat="44.47744" lon="0.78115">
        <ele>111.2</ele>
        <time>2018-05-17T00:56:49Z</time>
      </trkpt>
      <trkpt lat="44.47745" lon="0.7811">
        <ele>111</ele>
        <time>2018-05-17T00:56:50Z</time>
      </trkpt>
      <trkpt lat="44.47745" lon="0.78105">
        <ele>110.9</ele>
        <time>2018-05-17T00:56:51Z</time>
      </trkpt>
      <trkpt lat="44.47745" lon="0.78099">
        <ele>110.8</ele>
        <time>2018-05-17T00:56:52Z</time>
      </trkpt>
      <trkpt lat="44.47746" lon="0.78095">
        <ele>110.7</ele>
        <time>2018-05-17T00:56:53Z</time>
      </trkpt>
      <trkpt lat="44.47747" lon="0.78091">
        <ele>110.4</ele>
        <time>2018-05-17T00:56:54Z</time>
      </trkpt>
      <trkpt lat="44.47748" lon="0.78087">
        <ele>110.3</ele>
        <time>2018-05-17T00:56:55Z</time>
      </trkpt>
      <trkpt lat="44.47749" lon="0.78083">
        <ele>110.2</ele>
        <time>2018-05-17T00:56:56Z</time>
      </trkpt>
      <trkpt lat="44.4775" lon="0.78079">
        <ele>109.8</ele>
        <time>2018-05-17T00:56:57Z</time>
      </trkpt>
      <trkpt lat="44.47751" lon="0.78074">
        <ele>109.7</ele>
        <time>2018-05-17T00:56:58Z</time>
      </trkpt>
      <trkpt lat="44.47752" lon="0.7807">
        <ele>109.6</ele>
        <time>2018-05-17T00:56:59Z</time>
      </trkpt>
      <trkpt lat="44.47754" lon="0.78066">
        <ele>109.3</ele>
        <time>2018-05-17T00:57:00Z</time>
      </trkpt>
      <trkpt lat="44.47754" lon="0.78062">
        <ele>109.2</ele>
        <time>2018-05-17T00:57:01Z</time>
      </trkpt>
      <trkpt lat="44.47755" lon="0.78058">
        <ele>109.1</ele>
        <time>2018-05-17T00:57:02Z</time>
      </trkpt>
      <trkpt lat="44.47756" lon="0.78054">
        <ele>108.7</ele>
        <time>2018-05-17T00:57:03Z</time>
      </trkpt>
      <trkpt lat="44.47757" lon="0.78047">
        <ele>108.6</ele>
        <time>2018-05-17T00:57:05Z</time>
      </trkpt>
      <trkpt lat="44.47759" lon="0.78042">
        <ele>108.3</ele>
        <time>2018-05-17T00:57:07Z</time>
      </trkpt>
      <trkpt lat="44.4776" lon="0.78035">
        <ele>108.1</ele>
        <time>2018-05-17T00:57:09Z</time>
      </trkpt>
      <trkpt lat="44.47761" lon="0.78028">
        <ele>107.8</ele>
        <time>2018-05-17T00:57:11Z</time>
      </trkpt>
      <trkpt lat="44.47761" lon="0.78023">
        <ele>107.7</ele>
        <time>2018-05-17T00:57:12Z</time>
      </trkpt>
      <trkpt lat="44.47762" lon="0.78018">
        <ele>107.5</ele>
        <time>2018-05-17T00:57:13Z</time>
      </trkpt>
      <trkpt lat="44.47764" lon="0.78013">
        <ele>107.4</ele>
        <time>2018-05-17T00:57:14Z</time>
      </trkpt>
      <trkpt lat="44.47765" lon="0.78009">
        <ele>107.1</ele>
        <time>2018-05-17T00:57:15Z</time>
      </trkpt>
      <trkpt lat="44.47766" lon="0.78005">
        <ele>107</ele>
        <time>2018-05-17T00:57:16Z</time>
      </trkpt>
      <trkpt lat="44.47768" lon="0.77999">
        <ele>106.8</ele>
        <time>2018-05-17T00:57:18Z</time>
      </trkpt>
      <trkpt lat="44.47768" lon="0.77993">
        <ele>106.5</ele>
        <time>2018-05-17T00:57:20Z</time>
      </trkpt>
      <trkpt lat="44.47769" lon="0.77987">
        <ele>106.4</ele>
        <time>2018-05-17T00:57:22Z</time>
      </trkpt>
      <trkpt lat="44.4777" lon="0.77983">
        <ele>106.3</ele>
        <time>2018-05-17T00:57:23Z</time>
      </trkpt>
      <trkpt lat="44.47771" lon="0.77976">
        <ele>106.1</ele>
        <time>2018-05-17T00:57:25Z</time>
      </trkpt>
      <trkpt lat="44.47773" lon="0.7797">
        <ele>105.9</ele>
        <time>2018-05-17T00:57:27Z</time>
      </trkpt>
      <trkpt lat="44.47774" lon="0.77966">
        <ele>105.8</ele>
        <time>2018-05-17T00:57:28Z</time>
      </trkpt>
      <trkpt lat="44.47775" lon="0.77959">
        <ele>105.5</ele>
        <time>2018-05-17T00:57:30Z</time>
      </trkpt>
      <trkpt lat="44.47777" lon="0.77954">
        <ele>105.4</ele>
        <time>2018-05-17T00:57:31Z</time>
      </trkpt>
      <trkpt lat="44.47779" lon="0.77947">
        <ele>105.1</ele>
        <time>2018-05-17T00:57:33Z</time>
      </trkpt>
      <trkpt lat="44.4778" lon="0.7794">
        <ele>105</ele>
        <time>2018-05-17T00:57:34Z</time>
      </trkpt>
      <trkpt lat="44.47782" lon="0.77936">
        <ele>104.9</ele>
        <time>2018-05-17T00:57:35Z</time>
      </trkpt>
      <trkpt lat="44.47784" lon="0.77932">
        <ele>104.7</ele>
        <time>2018-05-17T00:57:36Z</time>
      </trkpt>
      <trkpt lat="44.47787" lon="0.77929">
        <ele>104.6</ele>
        <time>2018-05-17T00:57:37Z</time>
      </trkpt>
      <trkpt lat="44.47789" lon="0.77925">
        <ele>104.5</ele>
        <time>2018-05-17T00:57:38Z</time>
      </trkpt>
      <trkpt lat="44.47791" lon="0.7792">
        <ele>104.3</ele>
        <time>2018-05-17T00:57:39Z</time>
      </trkpt>
      <trkpt lat="44.47793" lon="0.77916">
        <ele>104.2</ele>
        <time>2018-05-17T00:57:40Z</time>
      </trkpt>
      <trkpt lat="44.47795" lon="0.77911">
        <ele>104.1</ele>
        <time>2018-05-17T00:57:41Z</time>
      </trkpt>
      <trkpt lat="44.47797" lon="0.77905">
        <ele>104</ele>
        <time>2018-05-17T00:57:42Z</time>
      </trkpt>
      <trkpt lat="44.47799" lon="0.77899">
        <ele>103.7</ele>
        <time>2018-05-17T00:57:43Z</time>
      </trkpt>
      <trkpt lat="44.47802" lon="0.77892">
        <ele>103.6</ele>
        <time>2018-05-17T00:57:44Z</time>
      </trkpt>
      <trkpt lat="44.47804" lon="0.77886">
        <ele>103.4</ele>
        <time>2018-05-17T00:57:45Z</time>
      </trkpt>
      <trkpt lat="44.47805" lon="0.77879">
        <ele>103.3</ele>
        <time>2018-05-17T00:57:46Z</time>
      </trkpt>
      <trkpt lat="44.47806" lon="0.77873">
        <ele>103</ele>
        <time>2018-05-17T00:57:47Z</time>
      </trkpt>
      <trkpt lat="44.47808" lon="0.77867">
        <ele>102.9</ele>
        <time>2018-05-17T00:57:48Z</time>
      </trkpt>
      <trkpt lat="44.4781" lon="0.7786">
        <ele>102.7</ele>
        <time>2018-05-17T00:57:49Z</time>
      </trkpt>
      <trkpt lat="44.47811" lon="0.77853">
        <ele>102.6</ele>
        <time>2018-05-17T00:57:50Z</time>
      </trkpt>
      <trkpt lat="44.47812" lon="0.77847">
        <ele>102.4</ele>
        <time>2018-05-17T00:57:51Z</time>
      </trkpt>
      <trkpt lat="44.47814" lon="0.7784">
        <ele>102.3</ele>
        <time>2018-05-17T00:57:52Z</time>
      </trkpt>
      <trkpt lat="44.47816" lon="0.77834">
        <ele>102.1</ele>
        <time>2018-05-17T00:57:53Z</time>
      </trkpt>
      <trkpt lat="44.47818" lon="0.77827">
        <ele>102</ele>
        <time>2018-05-17T00:57:54Z</time>
      </trkpt>
      <trkpt lat="44.4782" lon="0.77821">
        <ele>101.7</ele>
        <time>2018-05-17T00:57:55Z</time>
      </trkpt>
      <trkpt lat="44.47822" lon="0.77815">
        <ele>101.7</ele>
        <time>2018-05-17T00:57:56Z</time>
      </trkpt>
      <trkpt lat="44.47825" lon="0.77809">
        <ele>101.4</ele>
        <time>2018-05-17T00:57:57Z</time>
      </trkpt>
      <trkpt lat="44.47827" lon="0.77804">
        <ele>101.3</ele>
        <time>2018-05-17T00:57:58Z</time>
      </trkpt>
      <trkpt lat="44.4783" lon="0.77799">
        <ele>101.2</ele>
        <time>2018-05-17T00:57:59Z</time>
      </trkpt>
      <trkpt lat="44.47832" lon="0.77794">
        <ele>101.1</ele>
        <time>2018-05-17T00:58:00Z</time>
      </trkpt>
      <trkpt lat="44.47834" lon="0.77789">
        <ele>100.9</ele>
        <time>2018-05-17T00:58:01Z</time>
      </trkpt>
      <trkpt lat="44.47837" lon="0.77783">
        <ele>100.7</ele>
        <time>2018-05-17T00:58:02Z</time>
      </trkpt>
      <trkpt lat="44.47839" lon="0.77779">
        <ele>100.6</ele>
        <time>2018-05-17T00:58:03Z</time>
      </trkpt>
      <trkpt lat="44.47841" lon="0.77775">
        <ele>100.5</ele>
        <time>2018-05-17T00:58:04Z</time>
      </trkpt>
      <trkpt lat="44.47841" lon="0.77771">
        <ele>100.4</ele>
        <time>2018-05-17T00:58:06Z</time>
      </trkpt>
      <trkpt lat="44.47845" lon="0.77761">
        <ele>100.2</ele>
        <time>2018-05-17T00:58:21Z</time>
      </trkpt>
      <trkpt lat="44.47847" lon="0.77755">
        <ele>100.1</ele>
        <time>2018-05-17T00:58:23Z</time>
      </trkpt>
      <trkpt lat="44.4785" lon="0.77749">
        <ele>99.9</ele>
        <time>2018-05-17T00:58:25Z</time>
      </trkpt>
      <trkpt lat="44.47852" lon="0.77744">
        <ele>99.8</ele>
        <time>2018-05-17T00:58:27Z</time>
      </trkpt>
      <trkpt lat="44.47853" lon="0.77741">
        <ele>99.7</ele>
        <time>2018-05-17T00:58:29Z</time>
      </trkpt>
      <trkpt lat="44.47856" lon="0.77737">
        <ele>99.6</ele>
        <time>2018-05-17T00:58:31Z</time>
      </trkpt>
      <trkpt lat="44.47858" lon="0.77731">
        <ele>99.4</ele>
        <time>2018-05-17T00:58:33Z</time>
      </trkpt>
      <trkpt lat="44.4786" lon="0.77726">
        <ele>99.4</ele>
        <time>2018-05-17T00:58:35Z</time>
      </trkpt>
      <trkpt lat="44.47863" lon="0.7772">
        <ele>99.1</ele>
        <time>2018-05-17T00:58:37Z</time>
      </trkpt>
      <trkpt lat="44.47867" lon="0.77716">
        <ele>98.9</ele>
        <time>2018-05-17T00:58:39Z</time>
      </trkpt>
      <trkpt lat="44.47868" lon="0.77711">
        <ele>98.8</ele>
        <time>2018-05-17T00:58:41Z</time>
      </trkpt>
      <trkpt lat="44.47871" lon="0.77707">
        <ele>98.6</ele>
        <time>2018-05-17T00:58:43Z</time>
      </trkpt>
      <trkpt lat="44.47874" lon="0.77704">
        <ele>98.5</ele>
        <time>2018-05-17T00:58:45Z</time>
      </trkpt>
      <trkpt lat="44.47876" lon="0.77698">
        <ele>98.2</ele>
        <time>2018-05-17T00:58:47Z</time>
      </trkpt>
      <trkpt lat="44.47878" lon="0.77694">
        <ele>98.2</ele>
        <time>2018-05-17T00:58:48Z</time>
      </trkpt>
      <trkpt lat="44.4788" lon="0.7769">
        <ele>98.1</ele>
        <time>2018-05-17T00:58:49Z</time>
      </trkpt>
      <trkpt lat="44.47883" lon="0.77685">
        <ele>97.8</ele>
        <time>2018-05-17T00:58:51Z</time>
      </trkpt>
      <trkpt lat="44.47885" lon="0.77681">
        <ele>97.7</ele>
        <time>2018-05-17T00:58:53Z</time>
      </trkpt>
      <trkpt lat="44.47888" lon="0.77675">
        <ele>97.5</ele>
        <time>2018-05-17T00:58:55Z</time>
      </trkpt>
      <trkpt lat="44.47891" lon="0.77669">
        <ele>97.3</ele>
        <time>2018-05-17T00:58:57Z</time>
      </trkpt>
      <trkpt lat="44.47894" lon="0.77664">
        <ele>97.1</ele>
        <time>2018-05-17T00:58:59Z</time>
      </trkpt>
      <trkpt lat="44.47897" lon="0.77657">
        <ele>97</ele>
        <time>2018-05-17T00:59:01Z</time>
      </trkpt>
      <trkpt lat="44.47898" lon="0.77654">
        <ele>97</ele>
        <time>2018-05-17T00:59:02Z</time>
      </trkpt>
      <trkpt lat="44.479" lon="0.7765">
        <ele>96.9</ele>
        <time>2018-05-17T00:59:03Z</time>
      </trkpt>
      <trkpt lat="44.47902" lon="0.77646">
        <ele>96.8</ele>
        <time>2018-05-17T00:59:04Z</time>
      </trkpt>
      <trkpt lat="44.47904" lon="0.77643">
        <ele>96.8</ele>
        <time>2018-05-17T00:59:05Z</time>
      </trkpt>
      <trkpt lat="44.47905" lon="0.77639">
        <ele>96.7</ele>
        <time>2018-05-17T00:59:06Z</time>
      </trkpt>
      <trkpt lat="44.47907" lon="0.77636">
        <ele>96.7</ele>
        <time>2018-05-17T00:59:07Z</time>
      </trkpt>
      <trkpt lat="44.47909" lon="0.77633">
        <ele>96.6</ele>
        <time>2018-05-17T00:59:08Z</time>
      </trkpt>
      <trkpt lat="44.4791" lon="0.77629">
        <ele>96.6</ele>
        <time>2018-05-17T00:59:09Z</time>
      </trkpt>
      <trkpt lat="44.47913" lon="0.77623">
        <ele>96.6</ele>
        <time>2018-05-17T00:59:11Z</time>
      </trkpt>
      <trkpt lat="44.47915" lon="0.77619">
        <ele>96.6</ele>
        <time>2018-05-17T00:59:12Z</time>
      </trkpt>
      <trkpt lat="44.47917" lon="0.77615">
        <ele>96.6</ele>
        <time>2018-05-17T00:59:13Z</time>
      </trkpt>
      <trkpt lat="44.47919" lon="0.77611">
        <ele>96.6</ele>
        <time>2018-05-17T00:59:14Z</time>
      </trkpt>
      <trkpt lat="44.47921" lon="0.77607">
        <ele>96.6</ele>
        <time>2018-05-17T00:59:15Z</time>
      </trkpt>
      <trkpt lat="44.47923" lon="0.77602">
        <ele>96.7</ele>
        <time>2018-05-17T00:59:16Z</time>
      </trkpt>
      <trkpt lat="44.47925" lon="0.77598">
        <ele>96.7</ele>
        <time>2018-05-17T00:59:17Z</time>
      </trkpt>
      <trkpt lat="44.47927" lon="0.77594">
        <ele>96.7</ele>
        <time>2018-05-17T00:59:18Z</time>
      </trkpt>
      <trkpt lat="44.47929" lon="0.7759">
        <ele>96.7</ele>
        <time>2018-05-17T00:59:19Z</time>
      </trkpt>
      <trkpt lat="44.47931" lon="0.77586">
        <ele>96.8</ele>
        <time>2018-05-17T00:59:20Z</time>
      </trkpt>
      <trkpt lat="44.47933" lon="0.77582">
        <ele>96.8</ele>
        <time>2018-05-17T00:59:21Z</time>
      </trkpt>
      <trkpt lat="44.47936" lon="0.77577">
        <ele>96.8</ele>
        <time>2018-05-17T00:59:22Z</time>
      </trkpt>
      <trkpt lat="44.47938" lon="0.77572">
        <ele>96.8</ele>
        <time>2018-05-17T00:59:23Z</time>
      </trkpt>
      <trkpt lat="44.4794" lon="0.77568">
        <ele>96.9</ele>
        <time>2018-05-17T00:59:24Z</time>
      </trkpt>
      <trkpt lat="44.47941" lon="0.77564">
        <ele>96.9</ele>
        <time>2018-05-17T00:59:25Z</time>
      </trkpt>
      <trkpt lat="44.47943" lon="0.7756">
        <ele>96.9</ele>
        <time>2018-05-17T00:59:26Z</time>
      </trkpt>
      <trkpt lat="44.47946" lon="0.77555">
        <ele>96.9</ele>
        <time>2018-05-17T00:59:27Z</time>
      </trkpt>
      <trkpt lat="44.47948" lon="0.77551">
        <ele>96.9</ele>
        <time>2018-05-17T00:59:28Z</time>
      </trkpt>
      <trkpt lat="44.4795" lon="0.77546">
        <ele>97</ele>
        <time>2018-05-17T00:59:29Z</time>
      </trkpt>
      <trkpt lat="44.47953" lon="0.77541">
        <ele>97</ele>
        <time>2018-05-17T00:59:30Z</time>
      </trkpt>
      <trkpt lat="44.47955" lon="0.77536">
        <ele>97</ele>
        <time>2018-05-17T00:59:31Z</time>
      </trkpt>
      <trkpt lat="44.47957" lon="0.77532">
        <ele>97</ele>
        <time>2018-05-17T00:59:32Z</time>
      </trkpt>
      <trkpt lat="44.47959" lon="0.77527">
        <ele>97</ele>
        <time>2018-05-17T00:59:33Z</time>
      </trkpt>
      <trkpt lat="44.47961" lon="0.77523">
        <ele>97</ele>
        <time>2018-05-17T00:59:34Z</time>
      </trkpt>
      <trkpt lat="44.47963" lon="0.77517">
        <ele>96.9</ele>
        <time>2018-05-17T00:59:36Z</time>
      </trkpt>
      <trkpt lat="44.47966" lon="0.77516">
        <ele>96.9</ele>
        <time>2018-05-17T00:59:37Z</time>
      </trkpt>
      <trkpt lat="44.47972" lon="0.77516">
        <ele>96.9</ele>
        <time>2018-05-17T00:59:39Z</time>
      </trkpt>
      <trkpt lat="44.47978" lon="0.77517">
        <ele>96.8</ele>
        <time>2018-05-17T00:59:41Z</time>
      </trkpt>
      <trkpt lat="44.47982" lon="0.77518">
        <ele>96.8</ele>
        <time>2018-05-17T00:59:42Z</time>
      </trkpt>
      <trkpt lat="44.47986" lon="0.77519">
        <ele>96.8</ele>
        <time>2018-05-17T00:59:43Z</time>
      </trkpt>
      <trkpt lat="44.4799" lon="0.77519">
        <ele>96.7</ele>
        <time>2018-05-17T00:59:44Z</time>
      </trkpt>
      <trkpt lat="44.47995" lon="0.77519">
        <ele>96.7</ele>
        <time>2018-05-17T00:59:45Z</time>
      </trkpt>
      <trkpt lat="44.47999" lon="0.7752">
        <ele>96.7</ele>
        <time>2018-05-17T00:59:46Z</time>
      </trkpt>
      <trkpt lat="44.48004" lon="0.77521">
        <ele>96.7</ele>
        <time>2018-05-17T00:59:47Z</time>
      </trkpt>
      <trkpt lat="44.4801" lon="0.77523">
        <ele>96.6</ele>
        <time>2018-05-17T00:59:48Z</time>
      </trkpt>
      <trkpt lat="44.48015" lon="0.77525">
        <ele>96.6</ele>
        <time>2018-05-17T00:59:49Z</time>
      </trkpt>
      <trkpt lat="44.48021" lon="0.77527">
        <ele>96.6</ele>
        <time>2018-05-17T00:59:50Z</time>
      </trkpt>
      <trkpt lat="44.48027" lon="0.77529">
        <ele>96.5</ele>
        <time>2018-05-17T00:59:51Z</time>
      </trkpt>
      <trkpt lat="44.48033" lon="0.77531">
        <ele>96.5</ele>
        <time>2018-05-17T00:59:52Z</time>
      </trkpt>
      <trkpt lat="44.48039" lon="0.77533">
        <ele>96.4</ele>
        <time>2018-05-17T00:59:53Z</time>
      </trkpt>
      <trkpt lat="44.48045" lon="0.77536">
        <ele>96.4</ele>
        <time>2018-05-17T00:59:54Z</time>
      </trkpt>
      <trkpt lat="44.48051" lon="0.77538">
        <ele>96.3</ele>
        <time>2018-05-17T00:59:55Z</time>
      </trkpt>
      <trkpt lat="44.48058" lon="0.77542">
        <ele>96.3</ele>
        <time>2018-05-17T00:59:56Z</time>
      </trkpt>
      <trkpt lat="44.48064" lon="0.77545">
        <ele>96.2</ele>
        <time>2018-05-17T00:59:57Z</time>
      </trkpt>
      <trkpt lat="44.4807" lon="0.77548">
        <ele>96.2</ele>
        <time>2018-05-17T00:59:58Z</time>
      </trkpt>
      <trkpt lat="44.48076" lon="0.77552">
        <ele>96.1</ele>
        <time>2018-05-17T00:59:59Z</time>
      </trkpt>
      <trkpt lat="44.48082" lon="0.77555">
        <ele>96.1</ele>
        <time>2018-05-17T01:00:00Z</time>
      </trkpt>
      <trkpt lat="44.48088" lon="0.77558">
        <ele>96</ele>
        <time>2018-05-17T01:00:01Z</time>
      </trkpt>
      <trkpt lat="44.48094" lon="0.77562">
        <ele>95.9</ele>
        <time>2018-05-17T01:00:02Z</time>
      </trkpt>
      <trkpt lat="44.481" lon="0.77566">
        <ele>95.8</ele>
        <time>2018-05-17T01:00:03Z</time>
      </trkpt>
      <trkpt lat="44.48106" lon="0.77569">
        <ele>95.7</ele>
        <time>2018-05-17T01:00:04Z</time>
      </trkpt>
      <trkpt lat="44.48113" lon="0.77571">
        <ele>95.6</ele>
        <time>2018-05-17T01:00:05Z</time>
      </trkpt>
      <trkpt lat="44.48118" lon="0.77575">
        <ele>95.4</ele>
        <time>2018-05-17T01:00:06Z</time>
      </trkpt>
      <trkpt lat="44.48124" lon="0.77578">
        <ele>95.3</ele>
        <time>2018-05-17T01:00:07Z</time>
      </trkpt>
      <trkpt lat="44.4813" lon="0.77582">
        <ele>95.2</ele>
        <time>2018-05-17T01:00:08Z</time>
      </trkpt>
      <trkpt lat="44.48135" lon="0.77585">
        <ele>95.1</ele>
        <time>2018-05-17T01:00:09Z</time>
      </trkpt>
      <trkpt lat="44.4814" lon="0.77586">
        <ele>95</ele>
        <time>2018-05-17T01:00:10Z</time>
      </trkpt>
      <trkpt lat="44.48146" lon="0.77586">
        <ele>95</ele>
        <time>2018-05-17T01:00:11Z</time>
      </trkpt>
      <trkpt lat="44.48151" lon="0.77584">
        <ele>95</ele>
        <time>2018-05-17T01:00:12Z</time>
      </trkpt>
      <trkpt lat="44.48155" lon="0.77578">
        <ele>95</ele>
        <time>2018-05-17T01:00:13Z</time>
      </trkpt>
      <trkpt lat="44.48158" lon="0.77571">
        <ele>94.9</ele>
        <time>2018-05-17T01:00:14Z</time>
      </trkpt>
      <trkpt lat="44.48159" lon="0.77563">
        <ele>94.8</ele>
        <time>2018-05-17T01:00:15Z</time>
      </trkpt>
      <trkpt lat="44.48158" lon="0.77553">
        <ele>94.7</ele>
        <time>2018-05-17T01:00:16Z</time>
      </trkpt>
      <trkpt lat="44.48157" lon="0.77544">
        <ele>94.6</ele>
        <time>2018-05-17T01:00:17Z</time>
      </trkpt>
      <trkpt lat="44.48156" lon="0.77534">
        <ele>94.4</ele>
        <time>2018-05-17T01:00:18Z</time>
      </trkpt>
      <trkpt lat="44.48154" lon="0.77524">
        <ele>94.2</ele>
        <time>2018-05-17T01:00:19Z</time>
      </trkpt>
      <trkpt lat="44.48153" lon="0.77514">
        <ele>94.1</ele>
        <time>2018-05-17T01:00:20Z</time>
      </trkpt>
      <trkpt lat="44.48152" lon="0.77504">
        <ele>93.9</ele>
        <time>2018-05-17T01:00:21Z</time>
      </trkpt>
      <trkpt lat="44.48151" lon="0.77494">
        <ele>93.7</ele>
        <time>2018-05-17T01:00:22Z</time>
      </trkpt>
      <trkpt lat="44.4815" lon="0.77483">
        <ele>93.5</ele>
        <time>2018-05-17T01:00:23Z</time>
      </trkpt>
      <trkpt lat="44.48149" lon="0.77473">
        <ele>93.4</ele>
        <time>2018-05-17T01:00:24Z</time>
      </trkpt>
      <trkpt lat="44.48149" lon="0.77462">
        <ele>93.3</ele>
        <time>2018-05-17T01:00:25Z</time>
      </trkpt>
      <trkpt lat="44.4815" lon="0.7745">
        <ele>93.2</ele>
        <time>2018-05-17T01:00:26Z</time>
      </trkpt>
      <trkpt lat="44.4815" lon="0.77439">
        <ele>93.2</ele>
        <time>2018-05-17T01:00:27Z</time>
      </trkpt>
      <trkpt lat="44.48152" lon="0.77428">
        <ele>93.1</ele>
        <time>2018-05-17T01:00:28Z</time>
      </trkpt>
      <trkpt lat="44.48154" lon="0.77416">
        <ele>93.1</ele>
        <time>2018-05-17T01:00:29Z</time>
      </trkpt>
      <trkpt lat="44.48156" lon="0.77405">
        <ele>93</ele>
        <time>2018-05-17T01:00:30Z</time>
      </trkpt>
      <trkpt lat="44.48159" lon="0.77394">
        <ele>92.9</ele>
        <time>2018-05-17T01:00:31Z</time>
      </trkpt>
      <trkpt lat="44.48161" lon="0.77383">
        <ele>92.9</ele>
        <time>2018-05-17T01:00:32Z</time>
      </trkpt>
      <trkpt lat="44.48164" lon="0.77372">
        <ele>92.7</ele>
        <time>2018-05-17T01:00:33Z</time>
      </trkpt>
      <trkpt lat="44.48168" lon="0.77361">
        <ele>92.4</ele>
        <time>2018-05-17T01:00:34Z</time>
      </trkpt>
      <trkpt lat="44.48171" lon="0.77349">
        <ele>92.2</ele>
        <time>2018-05-17T01:00:35Z</time>
      </trkpt>
      <trkpt lat="44.48174" lon="0.77337">
        <ele>91.8</ele>
        <time>2018-05-17T01:00:36Z</time>
      </trkpt>
      <trkpt lat="44.48176" lon="0.77326">
        <ele>91.5</ele>
        <time>2018-05-17T01:00:37Z</time>
      </trkpt>
      <trkpt lat="44.48178" lon="0.77314">
        <ele>91.2</ele>
        <time>2018-05-17T01:00:38Z</time>
      </trkpt>
      <trkpt lat="44.48183" lon="0.77304">
        <ele>91</ele>
        <time>2018-05-17T01:00:39Z</time>
      </trkpt>
      <trkpt lat="44.48186" lon="0.77294">
        <ele>90.9</ele>
        <time>2018-05-17T01:00:40Z</time>
      </trkpt>
      <trkpt lat="44.4819" lon="0.77283">
        <ele>90.7</ele>
        <time>2018-05-17T01:00:41Z</time>
      </trkpt>
      <trkpt lat="44.48194" lon="0.77273">
        <ele>90.6</ele>
        <time>2018-05-17T01:00:42Z</time>
      </trkpt>
      <trkpt lat="44.48199" lon="0.77261">
        <ele>90.5</ele>
        <time>2018-05-17T01:00:43Z</time>
      </trkpt>
      <trkpt lat="44.48203" lon="0.77251">
        <ele>90.4</ele>
        <time>2018-05-17T01:00:44Z</time>
      </trkpt>
      <trkpt lat="44.48208" lon="0.77243">
        <ele>90.4</ele>
        <time>2018-05-17T01:00:45Z</time>
      </trkpt>
      <trkpt lat="44.48212" lon="0.77232">
        <ele>90.3</ele>
        <time>2018-05-17T01:00:46Z</time>
      </trkpt>
      <trkpt lat="44.48217" lon="0.77221">
        <ele>90.3</ele>
        <time>2018-05-17T01:00:47Z</time>
      </trkpt>
      <trkpt lat="44.48221" lon="0.7721">
        <ele>90.3</ele>
        <time>2018-05-17T01:00:48Z</time>
      </trkpt>
      <trkpt lat="44.48226" lon="0.77198">
        <ele>90.2</ele>
        <time>2018-05-17T01:00:49Z</time>
      </trkpt>
      <trkpt lat="44.4823" lon="0.77187">
        <ele>90</ele>
        <time>2018-05-17T01:00:50Z</time>
      </trkpt>
      <trkpt lat="44.48234" lon="0.77174">
        <ele>89.8</ele>
        <time>2018-05-17T01:00:51Z</time>
      </trkpt>
      <trkpt lat="44.48237" lon="0.77161">
        <ele>89.5</ele>
        <time>2018-05-17T01:00:52Z</time>
      </trkpt>
      <trkpt lat="44.48241" lon="0.77149">
        <ele>89.3</ele>
        <time>2018-05-17T01:00:53Z</time>
      </trkpt>
      <trkpt lat="44.48245" lon="0.77136">
        <ele>89</ele>
        <time>2018-05-17T01:00:54Z</time>
      </trkpt>
      <trkpt lat="44.48246" lon="0.77124">
        <ele>88.7</ele>
        <time>2018-05-17T01:00:55Z</time>
      </trkpt>
      <trkpt lat="44.48249" lon="0.77112">
        <ele>88.5</ele>
        <time>2018-05-17T01:00:56Z</time>
      </trkpt>
      <trkpt lat="44.48253" lon="0.77099">
        <ele>88.3</ele>
        <time>2018-05-17T01:00:57Z</time>
      </trkpt>
      <trkpt lat="44.48258" lon="0.77087">
        <ele>88.1</ele>
        <time>2018-05-17T01:00:58Z</time>
      </trkpt>
      <trkpt lat="44.48262" lon="0.77076">
        <ele>87.9</ele>
        <time>2018-05-17T01:00:59Z</time>
      </trkpt>
      <trkpt lat="44.48266" lon="0.77066">
        <ele>87.8</ele>
        <time>2018-05-17T01:01:00Z</time>
      </trkpt>
      <trkpt lat="44.48269" lon="0.77054">
        <ele>87.7</ele>
        <time>2018-05-17T01:01:01Z</time>
      </trkpt>
      <trkpt lat="44.48272" lon="0.77043">
        <ele>87.6</ele>
        <time>2018-05-17T01:01:02Z</time>
      </trkpt>
      <trkpt lat="44.48274" lon="0.77032">
        <ele>87.6</ele>
        <time>2018-05-17T01:01:03Z</time>
      </trkpt>
      <trkpt lat="44.48276" lon="0.77021">
        <ele>87.6</ele>
        <time>2018-05-17T01:01:04Z</time>
      </trkpt>
      <trkpt lat="44.4828" lon="0.77009">
        <ele>87.7</ele>
        <time>2018-05-17T01:01:05Z</time>
      </trkpt>
      <trkpt lat="44.48282" lon="0.76998">
        <ele>87.7</ele>
        <time>2018-05-17T01:01:06Z</time>
      </trkpt>
      <trkpt lat="44.48285" lon="0.76988">
        <ele>87.7</ele>
        <time>2018-05-17T01:01:07Z</time>
      </trkpt>
      <trkpt lat="44.48288" lon="0.76977">
        <ele>87.7</ele>
        <time>2018-05-17T01:01:08Z</time>
      </trkpt>
      <trkpt lat="44.4829" lon="0.76968">
        <ele>87.7</ele>
        <time>2018-05-17T01:01:09Z</time>
      </trkpt>
      <trkpt lat="44.48293" lon="0.76958">
        <ele>87.7</ele>
        <time>2018-05-17T01:01:10Z</time>
      </trkpt>
      <trkpt lat="44.48296" lon="0.76948">
        <ele>87.8</ele>
        <time>2018-05-17T01:01:11Z</time>
      </trkpt>
      <trkpt lat="44.48299" lon="0.76938">
        <ele>87.8</ele>
        <time>2018-05-17T01:01:12Z</time>
      </trkpt>
      <trkpt lat="44.48302" lon="0.76928">
        <ele>87.8</ele>
        <time>2018-05-17T01:01:13Z</time>
      </trkpt>
      <trkpt lat="44.48304" lon="0.76917">
        <ele>87.9</ele>
        <time>2018-05-17T01:01:14Z</time>
      </trkpt>
      <trkpt lat="44.48306" lon="0.76907">
        <ele>87.9</ele>
        <time>2018-05-17T01:01:15Z</time>
      </trkpt>
      <trkpt lat="44.48309" lon="0.76896">
        <ele>88</ele>
        <time>2018-05-17T01:01:16Z</time>
      </trkpt>
      <trkpt lat="44.4831" lon="0.76886">
        <ele>88.1</ele>
        <time>2018-05-17T01:01:17Z</time>
      </trkpt>
      <trkpt lat="44.4831" lon="0.76873">
        <ele>88.2</ele>
        <time>2018-05-17T01:01:18Z</time>
      </trkpt>
      <trkpt lat="44.48311" lon="0.76861">
        <ele>88.3</ele>
        <time>2018-05-17T01:01:19Z</time>
      </trkpt>
      <trkpt lat="44.48311" lon="0.7685">
        <ele>88.3</ele>
        <time>2018-05-17T01:01:20Z</time>
      </trkpt>
      <trkpt lat="44.4831" lon="0.7684">
        <ele>88.4</ele>
        <time>2018-05-17T01:01:21Z</time>
      </trkpt>
      <trkpt lat="44.48306" lon="0.76829">
        <ele>88.4</ele>
        <time>2018-05-17T01:01:22Z</time>
      </trkpt>
      <trkpt lat="44.48304" lon="0.76819">
        <ele>88.5</ele>
        <time>2018-05-17T01:01:23Z</time>
      </trkpt>
      <trkpt lat="44.48302" lon="0.76809">
        <ele>88.5</ele>
        <time>2018-05-17T01:01:24Z</time>
      </trkpt>
      <trkpt lat="44.48299" lon="0.76799">
        <ele>88.6</ele>
        <time>2018-05-17T01:01:25Z</time>
      </trkpt>
      <trkpt lat="44.48297" lon="0.7679">
        <ele>88.6</ele>
        <time>2018-05-17T01:01:26Z</time>
      </trkpt>
      <trkpt lat="44.48294" lon="0.7678">
        <ele>88.7</ele>
        <time>2018-05-17T01:01:27Z</time>
      </trkpt>
      <trkpt lat="44.48293" lon="0.7677">
        <ele>88.7</ele>
        <time>2018-05-17T01:01:28Z</time>
      </trkpt>
      <trkpt lat="44.48292" lon="0.76761">
        <ele>88.7</ele>
        <time>2018-05-17T01:01:29Z</time>
      </trkpt>
      <trkpt lat="44.4829" lon="0.76751">
        <ele>88.7</ele>
        <time>2018-05-17T01:01:30Z</time>
      </trkpt>
      <trkpt lat="44.48287" lon="0.76741">
        <ele>88.7</ele>
        <time>2018-05-17T01:01:31Z</time>
      </trkpt>
      <trkpt lat="44.48285" lon="0.76732">
        <ele>88.8</ele>
        <time>2018-05-17T01:01:32Z</time>
      </trkpt>
      <trkpt lat="44.48282" lon="0.76722">
        <ele>88.8</ele>
        <time>2018-05-17T01:01:33Z</time>
      </trkpt>
      <trkpt lat="44.48279" lon="0.76712">
        <ele>88.8</ele>
        <time>2018-05-17T01:01:34Z</time>
      </trkpt>
      <trkpt lat="44.48276" lon="0.76702">
        <ele>88.8</ele>
        <time>2018-05-17T01:01:35Z</time>
      </trkpt>
      <trkpt lat="44.48274" lon="0.76693">
        <ele>88.8</ele>
        <time>2018-05-17T01:01:36Z</time>
      </trkpt>
      <trkpt lat="44.48272" lon="0.76684">
        <ele>88.7</ele>
        <time>2018-05-17T01:01:37Z</time>
      </trkpt>
      <trkpt lat="44.48269" lon="0.76674">
        <ele>88.6</ele>
        <time>2018-05-17T01:01:38Z</time>
      </trkpt>
      <trkpt lat="44.48267" lon="0.76665">
        <ele>88.5</ele>
        <time>2018-05-17T01:01:39Z</time>
      </trkpt>
      <trkpt lat="44.48265" lon="0.76654">
        <ele>88.4</ele>
        <time>2018-05-17T01:01:40Z</time>
      </trkpt>
      <trkpt lat="44.48264" lon="0.76644">
        <ele>88.3</ele>
        <time>2018-05-17T01:01:41Z</time>
      </trkpt>
      <trkpt lat="44.48262" lon="0.76634">
        <ele>88.3</ele>
        <time>2018-05-17T01:01:42Z</time>
      </trkpt>
      <trkpt lat="44.48262" lon="0.76624">
        <ele>88.3</ele>
        <time>2018-05-17T01:01:43Z</time>
      </trkpt>
      <trkpt lat="44.48261" lon="0.76614">
        <ele>88.3</ele>
        <time>2018-05-17T01:01:44Z</time>
      </trkpt>
      <trkpt lat="44.4826" lon="0.76604">
        <ele>88.3</ele>
        <time>2018-05-17T01:01:45Z</time>
      </trkpt>
      <trkpt lat="44.48257" lon="0.76595">
        <ele>88.3</ele>
        <time>2018-05-17T01:01:46Z</time>
      </trkpt>
      <trkpt lat="44.48257" lon="0.76586">
        <ele>88.3</ele>
        <time>2018-05-17T01:01:47Z</time>
      </trkpt>
      <trkpt lat="44.48255" lon="0.76576">
        <ele>88.4</ele>
        <time>2018-05-17T01:01:48Z</time>
      </trkpt>
      <trkpt lat="44.48254" lon="0.76566">
        <ele>88.4</ele>
        <time>2018-05-17T01:01:49Z</time>
      </trkpt>
      <trkpt lat="44.48253" lon="0.76556">
        <ele>88.4</ele>
        <time>2018-05-17T01:01:50Z</time>
      </trkpt>
      <trkpt lat="44.48252" lon="0.76546">
        <ele>88.4</ele>
        <time>2018-05-17T01:01:51Z</time>
      </trkpt>
      <trkpt lat="44.48251" lon="0.76537">
        <ele>88.5</ele>
        <time>2018-05-17T01:01:52Z</time>
      </trkpt>
      <trkpt lat="44.48251" lon="0.76528">
        <ele>88.5</ele>
        <time>2018-05-17T01:01:53Z</time>
      </trkpt>
      <trkpt lat="44.4825" lon="0.76518">
        <ele>88.5</ele>
        <time>2018-05-17T01:01:54Z</time>
      </trkpt>
      <trkpt lat="44.48251" lon="0.76513">
        <ele>88.5</ele>
        <time>2018-05-17T01:01:55Z</time>
      </trkpt>
      <trkpt lat="44.48249" lon="0.76505">
        <ele>88.6</ele>
        <time>2018-05-17T01:01:56Z</time>
      </trkpt>
      <trkpt lat="44.48249" lon="0.76496">
        <ele>88.6</ele>
        <time>2018-05-17T01:01:57Z</time>
      </trkpt>
      <trkpt lat="44.48248" lon="0.76487">
        <ele>88.7</ele>
        <time>2018-05-17T01:01:58Z</time>
      </trkpt>
      <trkpt lat="44.48248" lon="0.76477">
        <ele>88.8</ele>
        <time>2018-05-17T01:01:59Z</time>
      </trkpt>
      <trkpt lat="44.48248" lon="0.76468">
        <ele>88.8</ele>
        <time>2018-05-17T01:02:00Z</time>
      </trkpt>
      <trkpt lat="44.48249" lon="0.76458">
        <ele>88.9</ele>
        <time>2018-05-17T01:02:01Z</time>
      </trkpt>
      <trkpt lat="44.48248" lon="0.7645">
        <ele>88.9</ele>
        <time>2018-05-17T01:02:02Z</time>
      </trkpt>
      <trkpt lat="44.48245" lon="0.76443">
        <ele>89</ele>
        <time>2018-05-17T01:02:03Z</time>
      </trkpt>
      <trkpt lat="44.48245" lon="0.76436">
        <ele>89.1</ele>
        <time>2018-05-17T01:02:04Z</time>
      </trkpt>
      <trkpt lat="44.48243" lon="0.76429">
        <ele>89.2</ele>
        <time>2018-05-17T01:02:05Z</time>
      </trkpt>
      <trkpt lat="44.48243" lon="0.76422">
        <ele>89.3</ele>
        <time>2018-05-17T01:02:06Z</time>
      </trkpt>
      <trkpt lat="44.48243" lon="0.76418">
        <ele>89.4</ele>
        <time>2018-05-17T01:02:07Z</time>
      </trkpt>
      <trkpt lat="44.48243" lon="0.76411">
        <ele>89.5</ele>
        <time>2018-05-17T01:02:08Z</time>
      </trkpt>
      <trkpt lat="44.48242" lon="0.76405">
        <ele>89.6</ele>
        <time>2018-05-17T01:02:09Z</time>
      </trkpt>
      <trkpt lat="44.48243" lon="0.76398">
        <ele>90</ele>
        <time>2018-05-17T01:02:10Z</time>
      </trkpt>
      <trkpt lat="44.48243" lon="0.76391">
        <ele>90.4</ele>
        <time>2018-05-17T01:02:11Z</time>
      </trkpt>
      <trkpt lat="44.48243" lon="0.76384">
        <ele>90.9</ele>
        <time>2018-05-17T01:02:12Z</time>
      </trkpt>
      <trkpt lat="44.48243" lon="0.76377">
        <ele>91.3</ele>
        <time>2018-05-17T01:02:13Z</time>
      </trkpt>
      <trkpt lat="44.48243" lon="0.7637">
        <ele>91.7</ele>
        <time>2018-05-17T01:02:14Z</time>
      </trkpt>
      <trkpt lat="44.48243" lon="0.76364">
        <ele>92</ele>
        <time>2018-05-17T01:02:15Z</time>
      </trkpt>
      <trkpt lat="44.48244" lon="0.76357">
        <ele>92.2</ele>
        <time>2018-05-17T01:02:16Z</time>
      </trkpt>
      <trkpt lat="44.48245" lon="0.76349">
        <ele>92.3</ele>
        <time>2018-05-17T01:02:17Z</time>
      </trkpt>
      <trkpt lat="44.48247" lon="0.76342">
        <ele>92.4</ele>
        <time>2018-05-17T01:02:18Z</time>
      </trkpt>
      <trkpt lat="44.48248" lon="0.76334">
        <ele>92.6</ele>
        <time>2018-05-17T01:02:19Z</time>
      </trkpt>
      <trkpt lat="44.48251" lon="0.76327">
        <ele>92.7</ele>
        <time>2018-05-17T01:02:20Z</time>
      </trkpt>
      <trkpt lat="44.48254" lon="0.76319">
        <ele>92.8</ele>
        <time>2018-05-17T01:02:21Z</time>
      </trkpt>
      <trkpt lat="44.48258" lon="0.76312">
        <ele>92.9</ele>
        <time>2018-05-17T01:02:22Z</time>
      </trkpt>
      <trkpt lat="44.48256" lon="0.76304">
        <ele>92.9</ele>
        <time>2018-05-17T01:02:23Z</time>
      </trkpt>
      <trkpt lat="44.48258" lon="0.76297">
        <ele>92.9</ele>
        <time>2018-05-17T01:02:24Z</time>
      </trkpt>
      <trkpt lat="44.48262" lon="0.76289">
        <ele>92.9</ele>
        <time>2018-05-17T01:02:25Z</time>
      </trkpt>
      <trkpt lat="44.48268" lon="0.76281">
        <ele>92.8</ele>
        <time>2018-05-17T01:02:26Z</time>
      </trkpt>
      <trkpt lat="44.48273" lon="0.76275">
        <ele>92.7</ele>
        <time>2018-05-17T01:02:27Z</time>
      </trkpt>
      <trkpt lat="44.48279" lon="0.76268">
        <ele>92.5</ele>
        <time>2018-05-17T01:02:28Z</time>
      </trkpt>
      <trkpt lat="44.48285" lon="0.76261">
        <ele>92.3</ele>
        <time>2018-05-17T01:02:29Z</time>
      </trkpt>
      <trkpt lat="44.4829" lon="0.76254">
        <ele>92.2</ele>
        <time>2018-05-17T01:02:30Z</time>
      </trkpt>
      <trkpt lat="44.48295" lon="0.76245">
        <ele>92.1</ele>
        <time>2018-05-17T01:02:31Z</time>
      </trkpt>
      <trkpt lat="44.48299" lon="0.76237">
        <ele>92</ele>
        <time>2018-05-17T01:02:32Z</time>
      </trkpt>
      <trkpt lat="44.48303" lon="0.76229">
        <ele>91.6</ele>
        <time>2018-05-17T01:02:33Z</time>
      </trkpt>
      <trkpt lat="44.48306" lon="0.76218">
        <ele>91.2</ele>
        <time>2018-05-17T01:02:34Z</time>
      </trkpt>
      <trkpt lat="44.48308" lon="0.76207">
        <ele>90.8</ele>
        <time>2018-05-17T01:02:35Z</time>
      </trkpt>
      <trkpt lat="44.4831" lon="0.76197">
        <ele>90.4</ele>
        <time>2018-05-17T01:02:36Z</time>
      </trkpt>
      <trkpt lat="44.48311" lon="0.76189">
        <ele>90</ele>
        <time>2018-05-17T01:02:37Z</time>
      </trkpt>
      <trkpt lat="44.48312" lon="0.76182">
        <ele>89.5</ele>
        <time>2018-05-17T01:02:38Z</time>
      </trkpt>
      <trkpt lat="44.48312" lon="0.76175">
        <ele>89.1</ele>
        <time>2018-05-17T01:02:39Z</time>
      </trkpt>
      <trkpt lat="44.48313" lon="0.76169">
        <ele>88.8</ele>
        <time>2018-05-17T01:02:40Z</time>
      </trkpt>
      <trkpt lat="44.48313" lon="0.76161">
        <ele>88.4</ele>
        <time>2018-05-17T01:02:41Z</time>
      </trkpt>
      <trkpt lat="44.48313" lon="0.76155">
        <ele>88.2</ele>
        <time>2018-05-17T01:02:42Z</time>
      </trkpt>
      <trkpt lat="44.48313" lon="0.76149">
        <ele>88</ele>
        <time>2018-05-17T01:02:43Z</time>
      </trkpt>
      <trkpt lat="44.48314" lon="0.76141">
        <ele>87.6</ele>
        <time>2018-05-17T01:02:44Z</time>
      </trkpt>
      <trkpt lat="44.48313" lon="0.76134">
        <ele>87.2</ele>
        <time>2018-05-17T01:02:45Z</time>
      </trkpt>
      <trkpt lat="44.48314" lon="0.76128">
        <ele>86.8</ele>
        <time>2018-05-17T01:02:46Z</time>
      </trkpt>
      <trkpt lat="44.48314" lon="0.76121">
        <ele>86.3</ele>
        <time>2018-05-17T01:02:47Z</time>
      </trkpt>
      <trkpt lat="44.48313" lon="0.76113">
        <ele>85.9</ele>
        <time>2018-05-17T01:02:48Z</time>
      </trkpt>
      <trkpt lat="44.48312" lon="0.76103">
        <ele>85.4</ele>
        <time>2018-05-17T01:02:49Z</time>
      </trkpt>
      <trkpt lat="44.48311" lon="0.76093">
        <ele>84.7</ele>
        <time>2018-05-17T01:02:50Z</time>
      </trkpt>
      <trkpt lat="44.48311" lon="0.76084">
        <ele>84.2</ele>
        <time>2018-05-17T01:02:51Z</time>
      </trkpt>
      <trkpt lat="44.48311" lon="0.76075">
        <ele>83.5</ele>
        <time>2018-05-17T01:02:52Z</time>
      </trkpt>
      <trkpt lat="44.4831" lon="0.76065">
        <ele>82.7</ele>
        <time>2018-05-17T01:02:53Z</time>
      </trkpt>
      <trkpt lat="44.4831" lon="0.76056">
        <ele>82</ele>
        <time>2018-05-17T01:02:54Z</time>
      </trkpt>
      <trkpt lat="44.48309" lon="0.76046">
        <ele>81.3</ele>
        <time>2018-05-17T01:02:55Z</time>
      </trkpt>
      <trkpt lat="44.48308" lon="0.76036">
        <ele>80.4</ele>
        <time>2018-05-17T01:02:56Z</time>
      </trkpt>
      <trkpt lat="44.48307" lon="0.76026">
        <ele>79.4</ele>
        <time>2018-05-17T01:02:57Z</time>
      </trkpt>
      <trkpt lat="44.48304" lon="0.76014">
        <ele>78.2</ele>
        <time>2018-05-17T01:02:58Z</time>
      </trkpt>
      <trkpt lat="44.48301" lon="0.76003">
        <ele>77.1</ele>
        <time>2018-05-17T01:02:59Z</time>
      </trkpt>
      <trkpt lat="44.48301" lon="0.75992">
        <ele>76</ele>
        <time>2018-05-17T01:03:00Z</time>
      </trkpt>
      <trkpt lat="44.48301" lon="0.75979">
        <ele>75</ele>
        <time>2018-05-17T01:03:01Z</time>
      </trkpt>
      <trkpt lat="44.483" lon="0.75968">
        <ele>74.1</ele>
        <time>2018-05-17T01:03:02Z</time>
      </trkpt>
      <trkpt lat="44.483" lon="0.75957">
        <ele>73.2</ele>
        <time>2018-05-17T01:03:03Z</time>
      </trkpt>
      <trkpt lat="44.48299" lon="0.75946">
        <ele>72.5</ele>
        <time>2018-05-17T01:03:04Z</time>
      </trkpt>
      <trkpt lat="44.483" lon="0.75936">
        <ele>72</ele>
        <time>2018-05-17T01:03:05Z</time>
      </trkpt>
      <trkpt lat="44.483" lon="0.75926">
        <ele>72.4</ele>
        <time>2018-05-17T01:03:06Z</time>
      </trkpt>
      <trkpt lat="44.48302" lon="0.75915">
        <ele>74.4</ele>
        <time>2018-05-17T01:03:07Z</time>
      </trkpt>
      <trkpt lat="44.483" lon="0.75905">
        <ele>76.4</ele>
        <time>2018-05-17T01:03:08Z</time>
      </trkpt>
      <trkpt lat="44.48297" lon="0.75896">
        <ele>78.2</ele>
        <time>2018-05-17T01:03:09Z</time>
      </trkpt>
      <trkpt lat="44.48294" lon="0.75886">
        <ele>80</ele>
        <time>2018-05-17T01:03:10Z</time>
      </trkpt>
      <trkpt lat="44.4829" lon="0.75875">
        <ele>79.8</ele>
        <time>2018-05-17T01:03:11Z</time>
      </trkpt>
      <trkpt lat="44.48291" lon="0.75865">
        <ele>79.6</ele>
        <time>2018-05-17T01:03:12Z</time>
      </trkpt>
      <trkpt lat="44.48289" lon="0.75856">
        <ele>79.5</ele>
        <time>2018-05-17T01:03:13Z</time>
      </trkpt>
      <trkpt lat="44.48287" lon="0.75849">
        <ele>79.4</ele>
        <time>2018-05-17T01:03:14Z</time>
      </trkpt>
      <trkpt lat="44.48284" lon="0.75843">
        <ele>79.3</ele>
        <time>2018-05-17T01:03:15Z</time>
      </trkpt>
      <trkpt lat="44.48282" lon="0.75838">
        <ele>79.3</ele>
        <time>2018-05-17T01:03:16Z</time>
      </trkpt>
      <trkpt lat="44.4828" lon="0.75835">
        <ele>79.2</ele>
        <time>2018-05-17T01:03:17Z</time>
      </trkpt>
      <trkpt lat="44.48278" lon="0.75832">
        <ele>79.2</ele>
        <time>2018-05-17T01:03:19Z</time>
      </trkpt>
      <trkpt lat="44.48275" lon="0.75829">
        <ele>79.1</ele>
        <time>2018-05-17T01:03:22Z</time>
      </trkpt>
      <trkpt lat="44.48274" lon="0.75825">
        <ele>79.1</ele>
        <time>2018-05-17T01:03:25Z</time>
      </trkpt>
      <trkpt lat="44.48271" lon="0.75825">
        <ele>79.1</ele>
        <time>2018-05-17T01:03:27Z</time>
      </trkpt>
      <trkpt lat="44.48265" lon="0.75823">
        <ele>79</ele>
        <time>2018-05-17T01:03:29Z</time>
      </trkpt>
      <trkpt lat="44.48261" lon="0.75822">
        <ele>79</ele>
        <time>2018-05-17T01:03:30Z</time>
      </trkpt>
      <trkpt lat="44.48259" lon="0.7582">
        <ele>78.9</ele>
        <time>2018-05-17T01:03:31Z</time>
      </trkpt>
      <trkpt lat="44.48255" lon="0.75818">
        <ele>78.9</ele>
        <time>2018-05-17T01:03:32Z</time>
      </trkpt>
      <trkpt lat="44.48252" lon="0.75816">
        <ele>79</ele>
        <time>2018-05-17T01:03:33Z</time>
      </trkpt>
      <trkpt lat="44.48249" lon="0.75814">
        <ele>79</ele>
        <time>2018-05-17T01:03:34Z</time>
      </trkpt>
      <trkpt lat="44.48246" lon="0.75813">
        <ele>79.1</ele>
        <time>2018-05-17T01:03:35Z</time>
      </trkpt>
      <trkpt lat="44.48241" lon="0.75811">
        <ele>79.2</ele>
        <time>2018-05-17T01:03:37Z</time>
      </trkpt>
      <trkpt lat="44.48238" lon="0.7581">
        <ele>79.4</ele>
        <time>2018-05-17T01:03:38Z</time>
      </trkpt>
      <trkpt lat="44.48232" lon="0.75808">
        <ele>79.6</ele>
        <time>2018-05-17T01:03:40Z</time>
      </trkpt>
      <trkpt lat="44.48227" lon="0.75807">
        <ele>79.9</ele>
        <time>2018-05-17T01:03:42Z</time>
      </trkpt>
      <trkpt lat="44.48222" lon="0.75807">
        <ele>80.1</ele>
        <time>2018-05-17T01:03:43Z</time>
      </trkpt>
      <trkpt lat="44.48219" lon="0.75806">
        <ele>80.3</ele>
        <time>2018-05-17T01:03:44Z</time>
      </trkpt>
      <trkpt lat="44.48216" lon="0.75807">
        <ele>80.4</ele>
        <time>2018-05-17T01:03:45Z</time>
      </trkpt>
      <trkpt lat="44.48211" lon="0.75808">
        <ele>80.7</ele>
        <time>2018-05-17T01:03:47Z</time>
      </trkpt>
      <trkpt lat="44.48208" lon="0.75809">
        <ele>80.9</ele>
        <time>2018-05-17T01:03:48Z</time>
      </trkpt>
      <trkpt lat="44.48205" lon="0.7581">
        <ele>81.1</ele>
        <time>2018-05-17T01:03:49Z</time>
      </trkpt>
      <trkpt lat="44.482" lon="0.75812">
        <ele>81.4</ele>
        <time>2018-05-17T01:03:51Z</time>
      </trkpt>
      <trkpt lat="44.48196" lon="0.75813">
        <ele>81.7</ele>
        <time>2018-05-17T01:03:52Z</time>
      </trkpt>
      <trkpt lat="44.48193" lon="0.75815">
        <ele>81.9</ele>
        <time>2018-05-17T01:03:54Z</time>
      </trkpt>
      <trkpt lat="44.48191" lon="0.75818">
        <ele>82.1</ele>
        <time>2018-05-17T01:03:55Z</time>
      </trkpt>
      <trkpt lat="44.48188" lon="0.7582">
        <ele>82.3</ele>
        <time>2018-05-17T01:03:56Z</time>
      </trkpt>
      <trkpt lat="44.48184" lon="0.75824">
        <ele>82.7</ele>
        <time>2018-05-17T01:03:58Z</time>
      </trkpt>
      <trkpt lat="44.48179" lon="0.75825">
        <ele>83</ele>
        <time>2018-05-17T01:03:59Z</time>
      </trkpt>
      <trkpt lat="44.48176" lon="0.75826">
        <ele>83.2</ele>
        <time>2018-05-17T01:04:00Z</time>
      </trkpt>
      <trkpt lat="44.48173" lon="0.75829">
        <ele>83.4</ele>
        <time>2018-05-17T01:04:01Z</time>
      </trkpt>
      <trkpt lat="44.4817" lon="0.7583">
        <ele>83.6</ele>
        <time>2018-05-17T01:04:02Z</time>
      </trkpt>
      <trkpt lat="44.48164" lon="0.75831">
        <ele>83.9</ele>
        <time>2018-05-17T01:04:04Z</time>
      </trkpt>
      <trkpt lat="44.48159" lon="0.75831">
        <ele>84.1</ele>
        <time>2018-05-17T01:04:06Z</time>
      </trkpt>
      <trkpt lat="44.48155" lon="0.75832">
        <ele>84.2</ele>
        <time>2018-05-17T01:04:07Z</time>
      </trkpt>
      <trkpt lat="44.48152" lon="0.75833">
        <ele>84.4</ele>
        <time>2018-05-17T01:04:08Z</time>
      </trkpt>
      <trkpt lat="44.48149" lon="0.75833">
        <ele>84.5</ele>
        <time>2018-05-17T01:04:09Z</time>
      </trkpt>
      <trkpt lat="44.48146" lon="0.75834">
        <ele>84.6</ele>
        <time>2018-05-17T01:04:10Z</time>
      </trkpt>
      <trkpt lat="44.48143" lon="0.75833">
        <ele>84.8</ele>
        <time>2018-05-17T01:04:11Z</time>
      </trkpt>
      <trkpt lat="44.4814" lon="0.75833">
        <ele>84.9</ele>
        <time>2018-05-17T01:04:12Z</time>
      </trkpt>
      <trkpt lat="44.48137" lon="0.75832">
        <ele>85</ele>
        <time>2018-05-17T01:04:13Z</time>
      </trkpt>
      <trkpt lat="44.48133" lon="0.75831">
        <ele>85.1</ele>
        <time>2018-05-17T01:04:14Z</time>
      </trkpt>
      <trkpt lat="44.4813" lon="0.7583">
        <ele>85.2</ele>
        <time>2018-05-17T01:04:15Z</time>
      </trkpt>
      <trkpt lat="44.48127" lon="0.7583">
        <ele>85.3</ele>
        <time>2018-05-17T01:04:16Z</time>
      </trkpt>
      <trkpt lat="44.48124" lon="0.75831">
        <ele>85.5</ele>
        <time>2018-05-17T01:04:17Z</time>
      </trkpt>
      <trkpt lat="44.48118" lon="0.75829">
        <ele>85.6</ele>
        <time>2018-05-17T01:04:19Z</time>
      </trkpt>
      <trkpt lat="44.48114" lon="0.75827">
        <ele>85.8</ele>
        <time>2018-05-17T01:04:21Z</time>
      </trkpt>
      <trkpt lat="44.4811" lon="0.75827">
        <ele>85.9</ele>
        <time>2018-05-17T01:04:23Z</time>
      </trkpt>
      <trkpt lat="44.48105" lon="0.75829">
        <ele>86.1</ele>
        <time>2018-05-17T01:04:25Z</time>
      </trkpt>
      <trkpt lat="44.48101" lon="0.7583">
        <ele>86.3</ele>
        <time>2018-05-17T01:04:27Z</time>
      </trkpt>
      <trkpt lat="44.48098" lon="0.7583">
        <ele>86.4</ele>
        <time>2018-05-17T01:04:29Z</time>
      </trkpt>
      <trkpt lat="44.48095" lon="0.75829">
        <ele>86.5</ele>
        <time>2018-05-17T01:04:30Z</time>
      </trkpt>
      <trkpt lat="44.48089" lon="0.75829">
        <ele>86.8</ele>
        <time>2018-05-17T01:04:32Z</time>
      </trkpt>
      <trkpt lat="44.48086" lon="0.75829">
        <ele>86.9</ele>
        <time>2018-05-17T01:04:33Z</time>
      </trkpt>
      <trkpt lat="44.48081" lon="0.75829">
        <ele>87.2</ele>
        <time>2018-05-17T01:04:35Z</time>
      </trkpt>
      <trkpt lat="44.48078" lon="0.75827">
        <ele>87.4</ele>
        <time>2018-05-17T01:04:36Z</time>
      </trkpt>
      <trkpt lat="44.48076" lon="0.75825">
        <ele>87.5</ele>
        <time>2018-05-17T01:04:37Z</time>
      </trkpt>
      <trkpt lat="44.48073" lon="0.75823">
        <ele>87.7</ele>
        <time>2018-05-17T01:04:38Z</time>
      </trkpt>
      <trkpt lat="44.48072" lon="0.75818">
        <ele>87.9</ele>
        <time>2018-05-17T01:04:41Z</time>
      </trkpt>
      <trkpt lat="44.48072" lon="0.75811">
        <ele>88.2</ele>
        <time>2018-05-17T01:04:43Z</time>
      </trkpt>
      <trkpt lat="44.48073" lon="0.75807">
        <ele>88.3</ele>
        <time>2018-05-17T01:04:44Z</time>
      </trkpt>
      <trkpt lat="44.48074" lon="0.75803">
        <ele>88.2</ele>
        <time>2018-05-17T01:04:45Z</time>
      </trkpt>
      <trkpt lat="44.48078" lon="0.75797">
        <ele>88.1</ele>
        <time>2018-05-17T01:04:47Z</time>
      </trkpt>
      <trkpt lat="44.48078" lon="0.75792">
        <ele>88.1</ele>
        <time>2018-05-17T01:04:48Z</time>
      </trkpt>
      <trkpt lat="44.48079" lon="0.75787">
        <ele>88.1</ele>
        <time>2018-05-17T01:04:49Z</time>
      </trkpt>
      <trkpt lat="44.48078" lon="0.75783">
        <ele>88.1</ele>
        <time>2018-05-17T01:04:50Z</time>
      </trkpt>
      <trkpt lat="44.48075" lon="0.7578">
        <ele>88.2</ele>
        <time>2018-05-17T01:04:52Z</time>
      </trkpt>
      <trkpt lat="44.4807" lon="0.75779">
        <ele>88.3</ele>
        <time>2018-05-17T01:04:54Z</time>
      </trkpt>
      <trkpt lat="44.48067" lon="0.75779">
        <ele>88.4</ele>
        <time>2018-05-17T01:04:55Z</time>
      </trkpt>
      <trkpt lat="44.48061" lon="0.75777">
        <ele>88.5</ele>
        <time>2018-05-17T01:04:57Z</time>
      </trkpt>
      <trkpt lat="44.48058" lon="0.75776">
        <ele>88.6</ele>
        <time>2018-05-17T01:04:58Z</time>
      </trkpt>
      <trkpt lat="44.48055" lon="0.75775">
        <ele>88.6</ele>
        <time>2018-05-17T01:04:59Z</time>
      </trkpt>
      <trkpt lat="44.48051" lon="0.75773">
        <ele>88.7</ele>
        <time>2018-05-17T01:05:00Z</time>
      </trkpt>
      <trkpt lat="44.48047" lon="0.75772">
        <ele>88.7</ele>
        <time>2018-05-17T01:05:01Z</time>
      </trkpt>
      <trkpt lat="44.48043" lon="0.75771">
        <ele>88.7</ele>
        <time>2018-05-17T01:05:02Z</time>
      </trkpt>
      <trkpt lat="44.4804" lon="0.75769">
        <ele>88.8</ele>
        <time>2018-05-17T01:05:03Z</time>
      </trkpt>
      <trkpt lat="44.48035" lon="0.75767">
        <ele>88.9</ele>
        <time>2018-05-17T01:05:04Z</time>
      </trkpt>
      <trkpt lat="44.48031" lon="0.75765">
        <ele>88.9</ele>
        <time>2018-05-17T01:05:05Z</time>
      </trkpt>
      <trkpt lat="44.48026" lon="0.75764">
        <ele>89</ele>
        <time>2018-05-17T01:05:06Z</time>
      </trkpt>
      <trkpt lat="44.48022" lon="0.75762">
        <ele>89</ele>
        <time>2018-05-17T01:05:07Z</time>
      </trkpt>
      <trkpt lat="44.4802" lon="0.7576">
        <ele>89.1</ele>
        <time>2018-05-17T01:05:08Z</time>
      </trkpt>
      <trkpt lat="44.48016" lon="0.75758">
        <ele>89</ele>
        <time>2018-05-17T01:05:09Z</time>
      </trkpt>
      <trkpt lat="44.48012" lon="0.75756">
        <ele>89.2</ele>
        <time>2018-05-17T01:05:10Z</time>
      </trkpt>
      <trkpt lat="44.48009" lon="0.75754">
        <ele>89.1</ele>
        <time>2018-05-17T01:05:11Z</time>
      </trkpt>
      <trkpt lat="44.48005" lon="0.75751">
        <ele>89.2</ele>
        <time>2018-05-17T01:05:12Z</time>
      </trkpt>
      <trkpt lat="44.48001" lon="0.75749">
        <ele>89.1</ele>
        <time>2018-05-17T01:05:13Z</time>
      </trkpt>
      <trkpt lat="44.47997" lon="0.75748">
        <ele>89.3</ele>
        <time>2018-05-17T01:05:14Z</time>
      </trkpt>
      <trkpt lat="44.47993" lon="0.75746">
        <ele>89.5</ele>
        <time>2018-05-17T01:05:15Z</time>
      </trkpt>
      <trkpt lat="44.47989" lon="0.75745">
        <ele>89.3</ele>
        <time>2018-05-17T01:05:16Z</time>
      </trkpt>
      <trkpt lat="44.47985" lon="0.75743">
        <ele>89.5</ele>
        <time>2018-05-17T01:05:17Z</time>
      </trkpt>
      <trkpt lat="44.47981" lon="0.75742">
        <ele>89.7</ele>
        <time>2018-05-17T01:05:18Z</time>
      </trkpt>
      <trkpt lat="44.47977" lon="0.75741">
        <ele>89.6</ele>
        <time>2018-05-17T01:05:19Z</time>
      </trkpt>
      <trkpt lat="44.47973" lon="0.75739">
        <ele>89.9</ele>
        <time>2018-05-17T01:05:21Z</time>
      </trkpt>
      <trkpt lat="44.47968" lon="0.75736">
        <ele>89.8</ele>
        <time>2018-05-17T01:05:23Z</time>
      </trkpt>
      <trkpt lat="44.47965" lon="0.75735">
        <ele>90</ele>
        <time>2018-05-17T01:05:24Z</time>
      </trkpt>
      <trkpt lat="44.47962" lon="0.75735">
        <ele>90.2</ele>
        <time>2018-05-17T01:05:26Z</time>
      </trkpt>
      <trkpt lat="44.47959" lon="0.75734">
        <ele>90.3</ele>
        <time>2018-05-17T01:05:27Z</time>
      </trkpt>
      <trkpt lat="44.47956" lon="0.75733">
        <ele>90.5</ele>
        <time>2018-05-17T01:05:28Z</time>
      </trkpt>
      <trkpt lat="44.47953" lon="0.75733">
        <ele>90.5</ele>
        <time>2018-05-17T01:05:29Z</time>
      </trkpt>
      <trkpt lat="44.47949" lon="0.75732">
        <ele>90.6</ele>
        <time>2018-05-17T01:05:30Z</time>
      </trkpt>
      <trkpt lat="44.47945" lon="0.75731">
        <ele>91</ele>
        <time>2018-05-17T01:05:31Z</time>
      </trkpt>
      <trkpt lat="44.47942" lon="0.7573">
        <ele>91.3</ele>
        <time>2018-05-17T01:05:32Z</time>
      </trkpt>
      <trkpt lat="44.47938" lon="0.7573">
        <ele>91.5</ele>
        <time>2018-05-17T01:05:33Z</time>
      </trkpt>
      <trkpt lat="44.47933" lon="0.7573">
        <ele>91.9</ele>
        <time>2018-05-17T01:05:35Z</time>
      </trkpt>
      <trkpt lat="44.4793" lon="0.75729">
        <ele>92.2</ele>
        <time>2018-05-17T01:05:36Z</time>
      </trkpt>
      <trkpt lat="44.47926" lon="0.75729">
        <ele>92.4</ele>
        <time>2018-05-17T01:05:37Z</time>
      </trkpt>
      <trkpt lat="44.47921" lon="0.75727">
        <ele>92.5</ele>
        <time>2018-05-17T01:05:39Z</time>
      </trkpt>
      <trkpt lat="44.47917" lon="0.75727">
        <ele>93.1</ele>
        <time>2018-05-17T01:05:41Z</time>
      </trkpt>
      <trkpt lat="44.47914" lon="0.75727">
        <ele>93.4</ele>
        <time>2018-05-17T01:05:42Z</time>
      </trkpt>
      <trkpt lat="44.4791" lon="0.75727">
        <ele>93.7</ele>
        <time>2018-05-17T01:05:43Z</time>
      </trkpt>
      <trkpt lat="44.47904" lon="0.75729">
        <ele>94.3</ele>
        <time>2018-05-17T01:05:44Z</time>
      </trkpt>
      <trkpt lat="44.47901" lon="0.75729">
        <ele>94.5</ele>
        <time>2018-05-17T01:05:45Z</time>
      </trkpt>
      <trkpt lat="44.47898" lon="0.75729">
        <ele>94.8</ele>
        <time>2018-05-17T01:05:46Z</time>
      </trkpt>
      <trkpt lat="44.47895" lon="0.7573">
        <ele>95</ele>
        <time>2018-05-17T01:05:47Z</time>
      </trkpt>
      <trkpt lat="44.47892" lon="0.75732">
        <ele>95.2</ele>
        <time>2018-05-17T01:05:48Z</time>
      </trkpt>
      <trkpt lat="44.47888" lon="0.75733">
        <ele>95.5</ele>
        <time>2018-05-17T01:05:49Z</time>
      </trkpt>
      <trkpt lat="44.47884" lon="0.75735">
        <ele>95.9</ele>
        <time>2018-05-17T01:05:50Z</time>
      </trkpt>
      <trkpt lat="44.47877" lon="0.75736">
        <ele>96.2</ele>
        <time>2018-05-17T01:05:52Z</time>
      </trkpt>
      <trkpt lat="44.47874" lon="0.75736">
        <ele>96.4</ele>
        <time>2018-05-17T01:05:53Z</time>
      </trkpt>
      <trkpt lat="44.47871" lon="0.75735">
        <ele>96.5</ele>
        <time>2018-05-17T01:05:54Z</time>
      </trkpt>
      <trkpt lat="44.47868" lon="0.75732">
        <ele>96.6</ele>
        <time>2018-05-17T01:05:56Z</time>
      </trkpt>
      <trkpt lat="44.47865" lon="0.7573">
        <ele>96.8</ele>
        <time>2018-05-17T01:05:57Z</time>
      </trkpt>
      <trkpt lat="44.47863" lon="0.75728">
        <ele>97</ele>
        <time>2018-05-17T01:05:59Z</time>
      </trkpt>
      <trkpt lat="44.47858" lon="0.75726">
        <ele>97.2</ele>
        <time>2018-05-17T01:06:01Z</time>
      </trkpt>
      <trkpt lat="44.47856" lon="0.75725">
        <ele>97.4</ele>
        <time>2018-05-17T01:06:02Z</time>
      </trkpt>
      <trkpt lat="44.47851" lon="0.75723">
        <ele>97.5</ele>
        <time>2018-05-17T01:06:04Z</time>
      </trkpt>
      <trkpt lat="44.47847" lon="0.75721">
        <ele>97.7</ele>
        <time>2018-05-17T01:06:06Z</time>
      </trkpt>
      <trkpt lat="44.47844" lon="0.75718">
        <ele>98</ele>
        <time>2018-05-17T01:06:08Z</time>
      </trkpt>
      <trkpt lat="44.4784" lon="0.75713">
        <ele>98.1</ele>
        <time>2018-05-17T01:06:10Z</time>
      </trkpt>
      <trkpt lat="44.47837" lon="0.7571">
        <ele>98.1</ele>
        <time>2018-05-17T01:06:11Z</time>
      </trkpt>
      <trkpt lat="44.47834" lon="0.75708">
        <ele>98.4</ele>
        <time>2018-05-17T01:06:12Z</time>
      </trkpt>
      <trkpt lat="44.4783" lon="0.75704">
        <ele>98.5</ele>
        <time>2018-05-17T01:06:14Z</time>
      </trkpt>
      <trkpt lat="44.47826" lon="0.75702">
        <ele>98.6</ele>
        <time>2018-05-17T01:06:15Z</time>
      </trkpt>
      <trkpt lat="44.47823" lon="0.757">
        <ele>98.8</ele>
        <time>2018-05-17T01:06:16Z</time>
      </trkpt>
      <trkpt lat="44.47819" lon="0.75698">
        <ele>99.1</ele>
        <time>2018-05-17T01:06:17Z</time>
      </trkpt>
      <trkpt lat="44.47817" lon="0.75695">
        <ele>99.1</ele>
        <time>2018-05-17T01:06:18Z</time>
      </trkpt>
      <trkpt lat="44.47815" lon="0.75693">
        <ele>99.2</ele>
        <time>2018-05-17T01:06:19Z</time>
      </trkpt>
      <trkpt lat="44.47812" lon="0.7569">
        <ele>99.3</ele>
        <time>2018-05-17T01:06:20Z</time>
      </trkpt>
      <trkpt lat="44.47809" lon="0.75687">
        <ele>99.5</ele>
        <time>2018-05-17T01:06:21Z</time>
      </trkpt>
      <trkpt lat="44.47805" lon="0.75684">
        <ele>99.5</ele>
        <time>2018-05-17T01:06:22Z</time>
      </trkpt>
      <trkpt lat="44.47803" lon="0.75682">
        <ele>99.7</ele>
        <time>2018-05-17T01:06:23Z</time>
      </trkpt>
      <trkpt lat="44.47799" lon="0.75681">
        <ele>99.7</ele>
        <time>2018-05-17T01:06:24Z</time>
      </trkpt>
      <trkpt lat="44.47796" lon="0.75679">
        <ele>99.9</ele>
        <time>2018-05-17T01:06:25Z</time>
      </trkpt>
      <trkpt lat="44.47792" lon="0.75676">
        <ele>99.9</ele>
        <time>2018-05-17T01:06:26Z</time>
      </trkpt>
      <trkpt lat="44.47789" lon="0.75674">
        <ele>100</ele>
        <time>2018-05-17T01:06:27Z</time>
      </trkpt>
      <trkpt lat="44.47785" lon="0.75669">
        <ele>100.1</ele>
        <time>2018-05-17T01:06:29Z</time>
      </trkpt>
      <trkpt lat="44.47781" lon="0.75666">
        <ele>100.1</ele>
        <time>2018-05-17T01:06:30Z</time>
      </trkpt>
      <trkpt lat="44.47777" lon="0.75662">
        <ele>100.3</ele>
        <time>2018-05-17T01:06:31Z</time>
      </trkpt>
      <trkpt lat="44.47774" lon="0.75658">
        <ele>100.3</ele>
        <time>2018-05-17T01:06:32Z</time>
      </trkpt>
      <trkpt lat="44.47771" lon="0.75655">
        <ele>100.3</ele>
        <time>2018-05-17T01:06:33Z</time>
      </trkpt>
      <trkpt lat="44.47768" lon="0.75652">
        <ele>100.4</ele>
        <time>2018-05-17T01:06:34Z</time>
      </trkpt>
      <trkpt lat="44.47764" lon="0.75649">
        <ele>100.6</ele>
        <time>2018-05-17T01:06:35Z</time>
      </trkpt>
      <trkpt lat="44.47761" lon="0.75646">
        <ele>100.6</ele>
        <time>2018-05-17T01:06:36Z</time>
      </trkpt>
      <trkpt lat="44.47757" lon="0.75643">
        <ele>100.8</ele>
        <time>2018-05-17T01:06:37Z</time>
      </trkpt>
      <trkpt lat="44.47754" lon="0.75639">
        <ele>100.8</ele>
        <time>2018-05-17T01:06:38Z</time>
      </trkpt>
      <trkpt lat="44.47749" lon="0.75636">
        <ele>101</ele>
        <time>2018-05-17T01:06:39Z</time>
      </trkpt>
      <trkpt lat="44.47746" lon="0.75632">
        <ele>101.1</ele>
        <time>2018-05-17T01:06:40Z</time>
      </trkpt>
      <trkpt lat="44.47743" lon="0.75629">
        <ele>101.2</ele>
        <time>2018-05-17T01:06:41Z</time>
      </trkpt>
      <trkpt lat="44.4774" lon="0.75626">
        <ele>101.3</ele>
        <time>2018-05-17T01:06:42Z</time>
      </trkpt>
      <trkpt lat="44.47736" lon="0.75622">
        <ele>101.4</ele>
        <time>2018-05-17T01:06:43Z</time>
      </trkpt>
      <trkpt lat="44.47733" lon="0.75618">
        <ele>101.5</ele>
        <time>2018-05-17T01:06:44Z</time>
      </trkpt>
      <trkpt lat="44.4773" lon="0.75613">
        <ele>101.6</ele>
        <time>2018-05-17T01:06:45Z</time>
      </trkpt>
      <trkpt lat="44.47726" lon="0.75607">
        <ele>101.7</ele>
        <time>2018-05-17T01:06:46Z</time>
      </trkpt>
      <trkpt lat="44.47723" lon="0.75602">
        <ele>101.8</ele>
        <time>2018-05-17T01:06:47Z</time>
      </trkpt>
      <trkpt lat="44.4772" lon="0.75596">
        <ele>101.9</ele>
        <time>2018-05-17T01:06:48Z</time>
      </trkpt>
      <trkpt lat="44.47714" lon="0.75592">
        <ele>102.1</ele>
        <time>2018-05-17T01:06:49Z</time>
      </trkpt>
      <trkpt lat="44.47713" lon="0.75587">
        <ele>102.2</ele>
        <time>2018-05-17T01:06:50Z</time>
      </trkpt>
      <trkpt lat="44.47711" lon="0.75582">
        <ele>102.1</ele>
        <time>2018-05-17T01:06:51Z</time>
      </trkpt>
      <trkpt lat="44.47711" lon="0.75578">
        <ele>102.1</ele>
        <time>2018-05-17T01:06:52Z</time>
      </trkpt>
      <trkpt lat="44.47709" lon="0.75574">
        <ele>102.1</ele>
        <time>2018-05-17T01:06:53Z</time>
      </trkpt>
      <trkpt lat="44.47708" lon="0.75569">
        <ele>102.1</ele>
        <time>2018-05-17T01:06:54Z</time>
      </trkpt>
      <trkpt lat="44.47708" lon="0.75565">
        <ele>102.1</ele>
        <time>2018-05-17T01:06:55Z</time>
      </trkpt>
      <trkpt lat="44.47705" lon="0.7556">
        <ele>102.1</ele>
        <time>2018-05-17T01:06:56Z</time>
      </trkpt>
      <trkpt lat="44.47703" lon="0.75557">
        <ele>102.1</ele>
        <time>2018-05-17T01:06:57Z</time>
      </trkpt>
      <trkpt lat="44.47701" lon="0.75552">
        <ele>102.1</ele>
        <time>2018-05-17T01:06:58Z</time>
      </trkpt>
      <trkpt lat="44.47696" lon="0.75547">
        <ele>102.1</ele>
        <time>2018-05-17T01:06:59Z</time>
      </trkpt>
      <trkpt lat="44.47693" lon="0.75543">
        <ele>102.1</ele>
        <time>2018-05-17T01:07:00Z</time>
      </trkpt>
      <trkpt lat="44.47691" lon="0.75538">
        <ele>102.1</ele>
        <time>2018-05-17T01:07:01Z</time>
      </trkpt>
      <trkpt lat="44.47688" lon="0.75535">
        <ele>102.1</ele>
        <time>2018-05-17T01:07:02Z</time>
      </trkpt>
      <trkpt lat="44.47686" lon="0.75526">
        <ele>102</ele>
        <time>2018-05-17T01:07:03Z</time>
      </trkpt>
      <trkpt lat="44.47682" lon="0.75519">
        <ele>101.9</ele>
        <time>2018-05-17T01:07:04Z</time>
      </trkpt>
      <trkpt lat="44.47679" lon="0.75514">
        <ele>101.7</ele>
        <time>2018-05-17T01:07:05Z</time>
      </trkpt>
      <trkpt lat="44.47675" lon="0.75509">
        <ele>101.7</ele>
        <time>2018-05-17T01:07:06Z</time>
      </trkpt>
      <trkpt lat="44.47671" lon="0.75504">
        <ele>101.6</ele>
        <time>2018-05-17T01:07:07Z</time>
      </trkpt>
      <trkpt lat="44.47665" lon="0.75498">
        <ele>101.5</ele>
        <time>2018-05-17T01:07:08Z</time>
      </trkpt>
      <trkpt lat="44.47661" lon="0.75493">
        <ele>101.5</ele>
        <time>2018-05-17T01:07:09Z</time>
      </trkpt>
      <trkpt lat="44.47658" lon="0.75489">
        <ele>101.5</ele>
        <time>2018-05-17T01:07:10Z</time>
      </trkpt>
      <trkpt lat="44.47654" lon="0.75484">
        <ele>101.4</ele>
        <time>2018-05-17T01:07:11Z</time>
      </trkpt>
      <trkpt lat="44.47651" lon="0.75478">
        <ele>101.4</ele>
        <time>2018-05-17T01:07:12Z</time>
      </trkpt>
      <trkpt lat="44.47648" lon="0.75473">
        <ele>101.4</ele>
        <time>2018-05-17T01:07:13Z</time>
      </trkpt>
      <trkpt lat="44.47646" lon="0.75466">
        <ele>101.3</ele>
        <time>2018-05-17T01:07:14Z</time>
      </trkpt>
      <trkpt lat="44.47645" lon="0.7546">
        <ele>101.3</ele>
        <time>2018-05-17T01:07:15Z</time>
      </trkpt>
      <trkpt lat="44.47641" lon="0.75457">
        <ele>101.3</ele>
        <time>2018-05-17T01:07:17Z</time>
      </trkpt>
      <trkpt lat="44.4764" lon="0.75453">
        <ele>101.2</ele>
        <time>2018-05-17T01:07:21Z</time>
      </trkpt>
      <trkpt lat="44.4764" lon="0.75445">
        <ele>101.1</ele>
        <time>2018-05-17T01:07:27Z</time>
      </trkpt>
      <trkpt lat="44.47646" lon="0.75423">
        <ele>100.4</ele>
        <time>2018-05-17T01:07:37Z</time>
      </trkpt>
      <trkpt lat="44.47648" lon="0.7542">
        <ele>100.4</ele>
        <time>2018-05-17T01:07:39Z</time>
      </trkpt>
      <trkpt lat="44.4765" lon="0.75417">
        <ele>100.4</ele>
        <time>2018-05-17T01:07:40Z</time>
      </trkpt>
      <trkpt lat="44.47654" lon="0.75412">
        <ele>100.3</ele>
        <time>2018-05-17T01:07:42Z</time>
      </trkpt>
      <trkpt lat="44.47656" lon="0.75407">
        <ele>100.1</ele>
        <time>2018-05-17T01:07:44Z</time>
      </trkpt>
      <trkpt lat="44.4766" lon="0.754">
        <ele>100</ele>
        <time>2018-05-17T01:07:46Z</time>
      </trkpt>
      <trkpt lat="44.47662" lon="0.75393">
        <ele>99.7</ele>
        <time>2018-05-17T01:07:48Z</time>
      </trkpt>
      <trkpt lat="44.47665" lon="0.75387">
        <ele>99.6</ele>
        <time>2018-05-17T01:07:49Z</time>
      </trkpt>
      <trkpt lat="44.47667" lon="0.75383">
        <ele>99.4</ele>
        <time>2018-05-17T01:07:50Z</time>
      </trkpt>
      <trkpt lat="44.47669" lon="0.75378">
        <ele>99.4</ele>
        <time>2018-05-17T01:07:51Z</time>
      </trkpt>
      <trkpt lat="44.47671" lon="0.75373">
        <ele>99.2</ele>
        <time>2018-05-17T01:07:52Z</time>
      </trkpt>
      <trkpt lat="44.47673" lon="0.75368">
        <ele>99.1</ele>
        <time>2018-05-17T01:07:53Z</time>
      </trkpt>
      <trkpt lat="44.47674" lon="0.75362">
        <ele>98.8</ele>
        <time>2018-05-17T01:07:54Z</time>
      </trkpt>
      <trkpt lat="44.47675" lon="0.75357">
        <ele>98.7</ele>
        <time>2018-05-17T01:07:55Z</time>
      </trkpt>
      <trkpt lat="44.47677" lon="0.75354">
        <ele>98.4</ele>
        <time>2018-05-17T01:07:56Z</time>
      </trkpt>
      <trkpt lat="44.47679" lon="0.75351">
        <ele>98.3</ele>
        <time>2018-05-17T01:07:57Z</time>
      </trkpt>
      <trkpt lat="44.47682" lon="0.75347">
        <ele>97.9</ele>
        <time>2018-05-17T01:07:58Z</time>
      </trkpt>
      <trkpt lat="44.47684" lon="0.75344">
        <ele>97.6</ele>
        <time>2018-05-17T01:07:59Z</time>
      </trkpt>
      <trkpt lat="44.47686" lon="0.75338">
        <ele>96.8</ele>
        <time>2018-05-17T01:08:01Z</time>
      </trkpt>
      <trkpt lat="44.47687" lon="0.75332">
        <ele>96.5</ele>
        <time>2018-05-17T01:08:03Z</time>
      </trkpt>
      <trkpt lat="44.47686" lon="0.75327">
        <ele>96.2</ele>
        <time>2018-05-17T01:08:05Z</time>
      </trkpt>
      <trkpt lat="44.47687" lon="0.75321">
        <ele>95.6</ele>
        <time>2018-05-17T01:08:07Z</time>
      </trkpt>
      <trkpt lat="44.47689" lon="0.75317">
        <ele>95.4</ele>
        <time>2018-05-17T01:08:08Z</time>
      </trkpt>
      <trkpt lat="44.47694" lon="0.7531">
        <ele>94.5</ele>
        <time>2018-05-17T01:08:10Z</time>
      </trkpt>
      <trkpt lat="44.47699" lon="0.75304">
        <ele>93.5</ele>
        <time>2018-05-17T01:08:11Z</time>
      </trkpt>
      <trkpt lat="44.47704" lon="0.75295">
        <ele>92.6</ele>
        <time>2018-05-17T01:08:12Z</time>
      </trkpt>
      <trkpt lat="44.47709" lon="0.75283">
        <ele>92</ele>
        <time>2018-05-17T01:08:13Z</time>
      </trkpt>
      <trkpt lat="44.47713" lon="0.75271">
        <ele>90.7</ele>
        <time>2018-05-17T01:08:14Z</time>
      </trkpt>
      <trkpt lat="44.47715" lon="0.75258">
        <ele>89.9</ele>
        <time>2018-05-17T01:08:15Z</time>
      </trkpt>
      <trkpt lat="44.47719" lon="0.75246">
        <ele>88.5</ele>
        <time>2018-05-17T01:08:16Z</time>
      </trkpt>
      <trkpt lat="44.47723" lon="0.75234">
        <ele>87.4</ele>
        <time>2018-05-17T01:08:17Z</time>
      </trkpt>
      <trkpt lat="44.4773" lon="0.75221">
        <ele>85.7</ele>
        <time>2018-05-17T01:08:18Z</time>
      </trkpt>
      <trkpt lat="44.47738" lon="0.75208">
        <ele>83.7</ele>
        <time>2018-05-17T01:08:19Z</time>
      </trkpt>
      <trkpt lat="44.47746" lon="0.75197">
        <ele>82.6</ele>
        <time>2018-05-17T01:08:20Z</time>
      </trkpt>
      <trkpt lat="44.47753" lon="0.75187">
        <ele>82.2</ele>
        <time>2018-05-17T01:08:21Z</time>
      </trkpt>
      <trkpt lat="44.47757" lon="0.75176">
        <ele>81.9</ele>
        <time>2018-05-17T01:08:22Z</time>
      </trkpt>
      <trkpt lat="44.47762" lon="0.75163">
        <ele>81.5</ele>
        <time>2018-05-17T01:08:23Z</time>
      </trkpt>
      <trkpt lat="44.47766" lon="0.7515">
        <ele>81.1</ele>
        <time>2018-05-17T01:08:24Z</time>
      </trkpt>
      <trkpt lat="44.47769" lon="0.75137">
        <ele>80.7</ele>
        <time>2018-05-17T01:08:25Z</time>
      </trkpt>
      <trkpt lat="44.47771" lon="0.75123">
        <ele>80.2</ele>
        <time>2018-05-17T01:08:26Z</time>
      </trkpt>
      <trkpt lat="44.47771" lon="0.75109">
        <ele>79.8</ele>
        <time>2018-05-17T01:08:27Z</time>
      </trkpt>
      <trkpt lat="44.47769" lon="0.75096">
        <ele>79.4</ele>
        <time>2018-05-17T01:08:28Z</time>
      </trkpt>
      <trkpt lat="44.47768" lon="0.75083">
        <ele>79</ele>
        <time>2018-05-17T01:08:29Z</time>
      </trkpt>
      <trkpt lat="44.47767" lon="0.7507">
        <ele>78.6</ele>
        <time>2018-05-17T01:08:30Z</time>
      </trkpt>
      <trkpt lat="44.47766" lon="0.75058">
        <ele>78.3</ele>
        <time>2018-05-17T01:08:31Z</time>
      </trkpt>
      <trkpt lat="44.47765" lon="0.75046">
        <ele>78.1</ele>
        <time>2018-05-17T01:08:32Z</time>
      </trkpt>
      <trkpt lat="44.47763" lon="0.75036">
        <ele>77.9</ele>
        <time>2018-05-17T01:08:33Z</time>
      </trkpt>
      <trkpt lat="44.47763" lon="0.75026">
        <ele>77.8</ele>
        <time>2018-05-17T01:08:34Z</time>
      </trkpt>
      <trkpt lat="44.47762" lon="0.75016">
        <ele>77.6</ele>
        <time>2018-05-17T01:08:35Z</time>
      </trkpt>
      <trkpt lat="44.47762" lon="0.75007">
        <ele>77.5</ele>
        <time>2018-05-17T01:08:36Z</time>
      </trkpt>
      <trkpt lat="44.47762" lon="0.74998">
        <ele>77.4</ele>
        <time>2018-05-17T01:08:37Z</time>
      </trkpt>
      <trkpt lat="44.47759" lon="0.74987">
        <ele>77.3</ele>
        <time>2018-05-17T01:08:38Z</time>
      </trkpt>
      <trkpt lat="44.4776" lon="0.74979">
        <ele>77.2</ele>
        <time>2018-05-17T01:08:39Z</time>
      </trkpt>
      <trkpt lat="44.4776" lon="0.74971">
        <ele>77.1</ele>
        <time>2018-05-17T01:08:40Z</time>
      </trkpt>
      <trkpt lat="44.47761" lon="0.74963">
        <ele>77.1</ele>
        <time>2018-05-17T01:08:41Z</time>
      </trkpt>
      <trkpt lat="44.47761" lon="0.74956">
        <ele>77</ele>
        <time>2018-05-17T01:08:42Z</time>
      </trkpt>
      <trkpt lat="44.47761" lon="0.74948">
        <ele>76.9</ele>
        <time>2018-05-17T01:08:43Z</time>
      </trkpt>
      <trkpt lat="44.47762" lon="0.7494">
        <ele>76.9</ele>
        <time>2018-05-17T01:08:44Z</time>
      </trkpt>
      <trkpt lat="44.47763" lon="0.74932">
        <ele>76.8</ele>
        <time>2018-05-17T01:08:45Z</time>
      </trkpt>
      <trkpt lat="44.47764" lon="0.74921">
        <ele>76.8</ele>
        <time>2018-05-17T01:08:46Z</time>
      </trkpt>
      <trkpt lat="44.47767" lon="0.74911">
        <ele>76.7</ele>
        <time>2018-05-17T01:08:47Z</time>
      </trkpt>
      <trkpt lat="44.47769" lon="0.74893">
        <ele>76.7</ele>
        <time>2018-05-17T01:08:48Z</time>
      </trkpt>
      <trkpt lat="44.4777" lon="0.74881">
        <ele>76.6</ele>
        <time>2018-05-17T01:08:49Z</time>
      </trkpt>
      <trkpt lat="44.4777" lon="0.74872">
        <ele>76.6</ele>
        <time>2018-05-17T01:08:50Z</time>
      </trkpt>
      <trkpt lat="44.4777" lon="0.74863">
        <ele>76.6</ele>
        <time>2018-05-17T01:08:51Z</time>
      </trkpt>
      <trkpt lat="44.4777" lon="0.74854">
        <ele>76.6</ele>
        <time>2018-05-17T01:08:52Z</time>
      </trkpt>
      <trkpt lat="44.4777" lon="0.74848">
        <ele>76.6</ele>
        <time>2018-05-17T01:08:53Z</time>
      </trkpt>
      <trkpt lat="44.47771" lon="0.74841">
        <ele>76.6</ele>
        <time>2018-05-17T01:08:54Z</time>
      </trkpt>
      <trkpt lat="44.47772" lon="0.74835">
        <ele>76.6</ele>
        <time>2018-05-17T01:08:55Z</time>
      </trkpt>
      <trkpt lat="44.47772" lon="0.7483">
        <ele>76.6</ele>
        <time>2018-05-17T01:08:56Z</time>
      </trkpt>
      <trkpt lat="44.47772" lon="0.74825">
        <ele>76.6</ele>
        <time>2018-05-17T01:08:57Z</time>
      </trkpt>
      <trkpt lat="44.47773" lon="0.7482">
        <ele>76.6</ele>
        <time>2018-05-17T01:08:58Z</time>
      </trkpt>
      <trkpt lat="44.47773" lon="0.74815">
        <ele>76.6</ele>
        <time>2018-05-17T01:08:59Z</time>
      </trkpt>
      <trkpt lat="44.47775" lon="0.74811">
        <ele>76.6</ele>
        <time>2018-05-17T01:09:00Z</time>
      </trkpt>
      <trkpt lat="44.47776" lon="0.74806">
        <ele>76.6</ele>
        <time>2018-05-17T01:09:01Z</time>
      </trkpt>
      <trkpt lat="44.47776" lon="0.74801">
        <ele>76.7</ele>
        <time>2018-05-17T01:09:02Z</time>
      </trkpt>
      <trkpt lat="44.47776" lon="0.74797">
        <ele>76.7</ele>
        <time>2018-05-17T01:09:03Z</time>
      </trkpt>
      <trkpt lat="44.47777" lon="0.74792">
        <ele>76.7</ele>
        <time>2018-05-17T01:09:04Z</time>
      </trkpt>
      <trkpt lat="44.47778" lon="0.74784">
        <ele>76.8</ele>
        <time>2018-05-17T01:09:06Z</time>
      </trkpt>
      <trkpt lat="44.47778" lon="0.7478">
        <ele>76.9</ele>
        <time>2018-05-17T01:09:07Z</time>
      </trkpt>
      <trkpt lat="44.47778" lon="0.74776">
        <ele>77</ele>
        <time>2018-05-17T01:09:08Z</time>
      </trkpt>
      <trkpt lat="44.4778" lon="0.74771">
        <ele>77.8</ele>
        <time>2018-05-17T01:09:09Z</time>
      </trkpt>
      <trkpt lat="44.4778" lon="0.74767">
        <ele>78.3</ele>
        <time>2018-05-17T01:09:10Z</time>
      </trkpt>
      <trkpt lat="44.47781" lon="0.74763">
        <ele>78.3</ele>
        <time>2018-05-17T01:09:11Z</time>
      </trkpt>
      <trkpt lat="44.47782" lon="0.7476">
        <ele>78.7</ele>
        <time>2018-05-17T01:09:12Z</time>
      </trkpt>
      <trkpt lat="44.47784" lon="0.74756">
        <ele>79</ele>
        <time>2018-05-17T01:09:13Z</time>
      </trkpt>
      <trkpt lat="44.47785" lon="0.74752">
        <ele>79.4</ele>
        <time>2018-05-17T01:09:14Z</time>
      </trkpt>
      <trkpt lat="44.47787" lon="0.74745">
        <ele>79.9</ele>
        <time>2018-05-17T01:09:16Z</time>
      </trkpt>
      <trkpt lat="44.47788" lon="0.74739">
        <ele>80.3</ele>
        <time>2018-05-17T01:09:18Z</time>
      </trkpt>
      <trkpt lat="44.4779" lon="0.74734">
        <ele>80.6</ele>
        <time>2018-05-17T01:09:20Z</time>
      </trkpt>
      <trkpt lat="44.47791" lon="0.74729">
        <ele>81</ele>
        <time>2018-05-17T01:09:22Z</time>
      </trkpt>
      <trkpt lat="44.47794" lon="0.74723">
        <ele>81.8</ele>
        <time>2018-05-17T01:09:24Z</time>
      </trkpt>
      <trkpt lat="44.47796" lon="0.74718">
        <ele>82.2</ele>
        <time>2018-05-17T01:09:26Z</time>
      </trkpt>
      <trkpt lat="44.47798" lon="0.74713">
        <ele>82.7</ele>
        <time>2018-05-17T01:09:28Z</time>
      </trkpt>
      <trkpt lat="44.478" lon="0.74708">
        <ele>83.1</ele>
        <time>2018-05-17T01:09:30Z</time>
      </trkpt>
      <trkpt lat="44.47801" lon="0.74704">
        <ele>83.8</ele>
        <time>2018-05-17T01:09:32Z</time>
      </trkpt>
      <trkpt lat="44.47803" lon="0.747">
        <ele>84.2</ele>
        <time>2018-05-17T01:09:34Z</time>
      </trkpt>
      <trkpt lat="44.47804" lon="0.74695">
        <ele>84.6</ele>
        <time>2018-05-17T01:09:36Z</time>
      </trkpt>
      <trkpt lat="44.47804" lon="0.7469">
        <ele>85.4</ele>
        <time>2018-05-17T01:09:38Z</time>
      </trkpt>
      <trkpt lat="44.47805" lon="0.74684">
        <ele>85.8</ele>
        <time>2018-05-17T01:09:40Z</time>
      </trkpt>
      <trkpt lat="44.47805" lon="0.7468">
        <ele>86.2</ele>
        <time>2018-05-17T01:09:42Z</time>
      </trkpt>
      <trkpt lat="44.47807" lon="0.74676">
        <ele>86.6</ele>
        <time>2018-05-17T01:09:44Z</time>
      </trkpt>
      <trkpt lat="44.47808" lon="0.74671">
        <ele>86.9</ele>
        <time>2018-05-17T01:09:46Z</time>
      </trkpt>
      <trkpt lat="44.4781" lon="0.74666">
        <ele>87.2</ele>
        <time>2018-05-17T01:09:48Z</time>
      </trkpt>
      <trkpt lat="44.47812" lon="0.74661">
        <ele>87.5</ele>
        <time>2018-05-17T01:09:50Z</time>
      </trkpt>
      <trkpt lat="44.47813" lon="0.74656">
        <ele>87.8</ele>
        <time>2018-05-17T01:09:52Z</time>
      </trkpt>
      <trkpt lat="44.47814" lon="0.74653">
        <ele>88.1</ele>
        <time>2018-05-17T01:09:54Z</time>
      </trkpt>
      <trkpt lat="44.47815" lon="0.74648">
        <ele>88.3</ele>
        <time>2018-05-17T01:09:56Z</time>
      </trkpt>
      <trkpt lat="44.47817" lon="0.74645">
        <ele>88.6</ele>
        <time>2018-05-17T01:09:58Z</time>
      </trkpt>
      <trkpt lat="44.4782" lon="0.74641">
        <ele>88.8</ele>
        <time>2018-05-17T01:10:00Z</time>
      </trkpt>
      <trkpt lat="44.47822" lon="0.74637">
        <ele>89.1</ele>
        <time>2018-05-17T01:10:02Z</time>
      </trkpt>
      <trkpt lat="44.47826" lon="0.74633">
        <ele>89</ele>
        <time>2018-05-17T01:10:04Z</time>
      </trkpt>
      <trkpt lat="44.47829" lon="0.7463">
        <ele>88.8</ele>
        <time>2018-05-17T01:10:06Z</time>
      </trkpt>
      <trkpt lat="44.47834" lon="0.74629">
        <ele>88.7</ele>
        <time>2018-05-17T01:10:08Z</time>
      </trkpt>
      <trkpt lat="44.4784" lon="0.74628">
        <ele>88.5</ele>
        <time>2018-05-17T01:10:10Z</time>
      </trkpt>
      <trkpt lat="44.47843" lon="0.74629">
        <ele>88.4</ele>
        <time>2018-05-17T01:10:11Z</time>
      </trkpt>
      <trkpt lat="44.47846" lon="0.7463">
        <ele>88.3</ele>
        <time>2018-05-17T01:10:12Z</time>
      </trkpt>
      <trkpt lat="44.4785" lon="0.74632">
        <ele>88.1</ele>
        <time>2018-05-17T01:10:13Z</time>
      </trkpt>
      <trkpt lat="44.47855" lon="0.74634">
        <ele>88</ele>
        <time>2018-05-17T01:10:14Z</time>
      </trkpt>
      <trkpt lat="44.4786" lon="0.74636">
        <ele>87.8</ele>
        <time>2018-05-17T01:10:15Z</time>
      </trkpt>
      <trkpt lat="44.47865" lon="0.74638">
        <ele>87.6</ele>
        <time>2018-05-17T01:10:16Z</time>
      </trkpt>
      <trkpt lat="44.47869" lon="0.74641">
        <ele>87.5</ele>
        <time>2018-05-17T01:10:17Z</time>
      </trkpt>
      <trkpt lat="44.47874" lon="0.74643">
        <ele>87.3</ele>
        <time>2018-05-17T01:10:18Z</time>
      </trkpt>
      <trkpt lat="44.47879" lon="0.74645">
        <ele>87.1</ele>
        <time>2018-05-17T01:10:19Z</time>
      </trkpt>
      <trkpt lat="44.47883" lon="0.74647">
        <ele>87</ele>
        <time>2018-05-17T01:10:20Z</time>
      </trkpt>
      <trkpt lat="44.47888" lon="0.74649">
        <ele>86.7</ele>
        <time>2018-05-17T01:10:21Z</time>
      </trkpt>
      <trkpt lat="44.47893" lon="0.74649">
        <ele>86.3</ele>
        <time>2018-05-17T01:10:22Z</time>
      </trkpt>
      <trkpt lat="44.47897" lon="0.74646">
        <ele>86</ele>
        <time>2018-05-17T01:10:23Z</time>
      </trkpt>
      <trkpt lat="44.47901" lon="0.74641">
        <ele>86</ele>
        <time>2018-05-17T01:10:24Z</time>
      </trkpt>
      <trkpt lat="44.47903" lon="0.74635">
        <ele>86.5</ele>
        <time>2018-05-17T01:10:25Z</time>
      </trkpt>
      <trkpt lat="44.47905" lon="0.74628">
        <ele>87</ele>
        <time>2018-05-17T01:10:26Z</time>
      </trkpt>
      <trkpt lat="44.47905" lon="0.74622">
        <ele>87.4</ele>
        <time>2018-05-17T01:10:27Z</time>
      </trkpt>
      <trkpt lat="44.47905" lon="0.74617">
        <ele>87.8</ele>
        <time>2018-05-17T01:10:28Z</time>
      </trkpt>
      <trkpt lat="44.47904" lon="0.74612">
        <ele>88.1</ele>
        <time>2018-05-17T01:10:29Z</time>
      </trkpt>
      <trkpt lat="44.47904" lon="0.74606">
        <ele>88.5</ele>
        <time>2018-05-17T01:10:30Z</time>
      </trkpt>
      <trkpt lat="44.47903" lon="0.74601">
        <ele>88.7</ele>
        <time>2018-05-17T01:10:31Z</time>
      </trkpt>
      <trkpt lat="44.47902" lon="0.74596">
        <ele>88.9</ele>
        <time>2018-05-17T01:10:32Z</time>
      </trkpt>
      <trkpt lat="44.47901" lon="0.74592">
        <ele>89.1</ele>
        <time>2018-05-17T01:10:33Z</time>
      </trkpt>
      <trkpt lat="44.47901" lon="0.74588">
        <ele>89.4</ele>
        <time>2018-05-17T01:10:34Z</time>
      </trkpt>
      <trkpt lat="44.479" lon="0.74583">
        <ele>89.7</ele>
        <time>2018-05-17T01:10:35Z</time>
      </trkpt>
      <trkpt lat="44.47898" lon="0.74579">
        <ele>90</ele>
        <time>2018-05-17T01:10:36Z</time>
      </trkpt>
      <trkpt lat="44.47897" lon="0.74575">
        <ele>90.3</ele>
        <time>2018-05-17T01:10:37Z</time>
      </trkpt>
      <trkpt lat="44.47896" lon="0.74571">
        <ele>90.5</ele>
        <time>2018-05-17T01:10:38Z</time>
      </trkpt>
      <trkpt lat="44.47894" lon="0.74567">
        <ele>90.7</ele>
        <time>2018-05-17T01:10:39Z</time>
      </trkpt>
      <trkpt lat="44.47892" lon="0.74564">
        <ele>90.8</ele>
        <time>2018-05-17T01:10:40Z</time>
      </trkpt>
      <trkpt lat="44.47891" lon="0.7456">
        <ele>90.9</ele>
        <time>2018-05-17T01:10:41Z</time>
      </trkpt>
      <trkpt lat="44.47889" lon="0.74556">
        <ele>91</ele>
        <time>2018-05-17T01:10:42Z</time>
      </trkpt>
      <trkpt lat="44.47888" lon="0.74552">
        <ele>91</ele>
        <time>2018-05-17T01:10:43Z</time>
      </trkpt>
      <trkpt lat="44.47887" lon="0.74548">
        <ele>91</ele>
        <time>2018-05-17T01:10:44Z</time>
      </trkpt>
      <trkpt lat="44.47885" lon="0.74543">
        <ele>91.1</ele>
        <time>2018-05-17T01:10:45Z</time>
      </trkpt>
      <trkpt lat="44.47885" lon="0.74537">
        <ele>91.3</ele>
        <time>2018-05-17T01:10:46Z</time>
      </trkpt>
      <trkpt lat="44.47884" lon="0.74531">
        <ele>91.5</ele>
        <time>2018-05-17T01:10:47Z</time>
      </trkpt>
      <trkpt lat="44.47884" lon="0.74525">
        <ele>91.8</ele>
        <time>2018-05-17T01:10:48Z</time>
      </trkpt>
      <trkpt lat="44.47883" lon="0.7452">
        <ele>91.9</ele>
        <time>2018-05-17T01:10:49Z</time>
      </trkpt>
      <trkpt lat="44.47882" lon="0.74515">
        <ele>92.1</ele>
        <time>2018-05-17T01:10:50Z</time>
      </trkpt>
      <trkpt lat="44.4788" lon="0.74509">
        <ele>92.5</ele>
        <time>2018-05-17T01:10:51Z</time>
      </trkpt>
      <trkpt lat="44.47878" lon="0.74501">
        <ele>92.9</ele>
        <time>2018-05-17T01:10:52Z</time>
      </trkpt>
      <trkpt lat="44.47878" lon="0.74494">
        <ele>93.4</ele>
        <time>2018-05-17T01:10:53Z</time>
      </trkpt>
      <trkpt lat="44.47877" lon="0.74487">
        <ele>93.7</ele>
        <time>2018-05-17T01:10:54Z</time>
      </trkpt>
      <trkpt lat="44.47876" lon="0.7448">
        <ele>94.1</ele>
        <time>2018-05-17T01:10:55Z</time>
      </trkpt>
      <trkpt lat="44.47874" lon="0.74473">
        <ele>94.4</ele>
        <time>2018-05-17T01:10:56Z</time>
      </trkpt>
      <trkpt lat="44.47872" lon="0.74465">
        <ele>94.8</ele>
        <time>2018-05-17T01:10:57Z</time>
      </trkpt>
      <trkpt lat="44.4787" lon="0.74458">
        <ele>95</ele>
        <time>2018-05-17T01:10:58Z</time>
      </trkpt>
      <trkpt lat="44.47867" lon="0.7445">
        <ele>95.4</ele>
        <time>2018-05-17T01:10:59Z</time>
      </trkpt>
      <trkpt lat="44.47864" lon="0.74442">
        <ele>95.8</ele>
        <time>2018-05-17T01:11:00Z</time>
      </trkpt>
      <trkpt lat="44.47861" lon="0.74436">
        <ele>96.1</ele>
        <time>2018-05-17T01:11:01Z</time>
      </trkpt>
      <trkpt lat="44.47857" lon="0.7443">
        <ele>96.4</ele>
        <time>2018-05-17T01:11:02Z</time>
      </trkpt>
      <trkpt lat="44.47852" lon="0.74424">
        <ele>96.8</ele>
        <time>2018-05-17T01:11:03Z</time>
      </trkpt>
      <trkpt lat="44.47846" lon="0.7442">
        <ele>97.2</ele>
        <time>2018-05-17T01:11:04Z</time>
      </trkpt>
      <trkpt lat="44.47841" lon="0.74418">
        <ele>97.6</ele>
        <time>2018-05-17T01:11:05Z</time>
      </trkpt>
      <trkpt lat="44.47834" lon="0.74416">
        <ele>103.4</ele>
        <time>2018-05-17T01:11:06Z</time>
      </trkpt>
      <trkpt lat="44.47828" lon="0.74415">
        <ele>106.3</ele>
        <time>2018-05-17T01:11:07Z</time>
      </trkpt>
      <trkpt lat="44.47822" lon="0.74414">
        <ele>105.4</ele>
        <time>2018-05-17T01:11:08Z</time>
      </trkpt>
      <trkpt lat="44.47818" lon="0.74413">
        <ele>104.6</ele>
        <time>2018-05-17T01:11:09Z</time>
      </trkpt>
      <trkpt lat="44.47813" lon="0.74411">
        <ele>103.7</ele>
        <time>2018-05-17T01:11:10Z</time>
      </trkpt>
      <trkpt lat="44.4781" lon="0.74406">
        <ele>104</ele>
        <time>2018-05-17T01:11:11Z</time>
      </trkpt>
      <trkpt lat="44.4781" lon="0.74399">
        <ele>104.3</ele>
        <time>2018-05-17T01:11:12Z</time>
      </trkpt>
      <trkpt lat="44.4781" lon="0.74392">
        <ele>104.5</ele>
        <time>2018-05-17T01:11:13Z</time>
      </trkpt>
      <trkpt lat="44.47811" lon="0.74386">
        <ele>104.5</ele>
        <time>2018-05-17T01:11:14Z</time>
      </trkpt>
      <trkpt lat="44.47812" lon="0.7438">
        <ele>104.5</ele>
        <time>2018-05-17T01:11:15Z</time>
      </trkpt>
      <trkpt lat="44.47815" lon="0.74374">
        <ele>104.6</ele>
        <time>2018-05-17T01:11:16Z</time>
      </trkpt>
      <trkpt lat="44.47816" lon="0.74367">
        <ele>104.7</ele>
        <time>2018-05-17T01:11:17Z</time>
      </trkpt>
      <trkpt lat="44.47818" lon="0.7436">
        <ele>104.8</ele>
        <time>2018-05-17T01:11:18Z</time>
      </trkpt>
      <trkpt lat="44.47819" lon="0.74353">
        <ele>104.8</ele>
        <time>2018-05-17T01:11:19Z</time>
      </trkpt>
      <trkpt lat="44.47821" lon="0.74347">
        <ele>104.8</ele>
        <time>2018-05-17T01:11:20Z</time>
      </trkpt>
      <trkpt lat="44.47823" lon="0.7434">
        <ele>104.7</ele>
        <time>2018-05-17T01:11:21Z</time>
      </trkpt>
      <trkpt lat="44.47824" lon="0.74334">
        <ele>104.7</ele>
        <time>2018-05-17T01:11:22Z</time>
      </trkpt>
      <trkpt lat="44.47826" lon="0.74328">
        <ele>104.6</ele>
        <time>2018-05-17T01:11:23Z</time>
      </trkpt>
      <trkpt lat="44.47827" lon="0.74322">
        <ele>104.6</ele>
        <time>2018-05-17T01:11:24Z</time>
      </trkpt>
      <trkpt lat="44.47828" lon="0.74315">
        <ele>104.6</ele>
        <time>2018-05-17T01:11:25Z</time>
      </trkpt>
      <trkpt lat="44.47829" lon="0.7431">
        <ele>104.7</ele>
        <time>2018-05-17T01:11:26Z</time>
      </trkpt>
      <trkpt lat="44.4783" lon="0.74306">
        <ele>104.7</ele>
        <time>2018-05-17T01:11:27Z</time>
      </trkpt>
      <trkpt lat="44.47831" lon="0.74301">
        <ele>104.7</ele>
        <time>2018-05-17T01:11:28Z</time>
      </trkpt>
      <trkpt lat="44.47833" lon="0.74295">
        <ele>104.6</ele>
        <time>2018-05-17T01:11:29Z</time>
      </trkpt>
      <trkpt lat="44.47834" lon="0.7429">
        <ele>104.7</ele>
        <time>2018-05-17T01:11:30Z</time>
      </trkpt>
      <trkpt lat="44.47835" lon="0.74285">
        <ele>104.7</ele>
        <time>2018-05-17T01:11:31Z</time>
      </trkpt>
      <trkpt lat="44.47837" lon="0.74279">
        <ele>104.7</ele>
        <time>2018-05-17T01:11:32Z</time>
      </trkpt>
      <trkpt lat="44.47838" lon="0.74274">
        <ele>104.7</ele>
        <time>2018-05-17T01:11:33Z</time>
      </trkpt>
      <trkpt lat="44.47839" lon="0.74269">
        <ele>104.7</ele>
        <time>2018-05-17T01:11:34Z</time>
      </trkpt>
      <trkpt lat="44.4784" lon="0.74264">
        <ele>104.7</ele>
        <time>2018-05-17T01:11:35Z</time>
      </trkpt>
      <trkpt lat="44.47841" lon="0.74258">
        <ele>104.7</ele>
        <time>2018-05-17T01:11:36Z</time>
      </trkpt>
      <trkpt lat="44.47842" lon="0.74252">
        <ele>104.6</ele>
        <time>2018-05-17T01:11:37Z</time>
      </trkpt>
      <trkpt lat="44.47843" lon="0.74247">
        <ele>104.6</ele>
        <time>2018-05-17T01:11:38Z</time>
      </trkpt>
      <trkpt lat="44.47845" lon="0.74242">
        <ele>104.5</ele>
        <time>2018-05-17T01:11:39Z</time>
      </trkpt>
      <trkpt lat="44.47847" lon="0.74237">
        <ele>104.4</ele>
        <time>2018-05-17T01:11:40Z</time>
      </trkpt>
      <trkpt lat="44.47848" lon="0.74232">
        <ele>104.3</ele>
        <time>2018-05-17T01:11:41Z</time>
      </trkpt>
      <trkpt lat="44.47848" lon="0.74226">
        <ele>104.2</ele>
        <time>2018-05-17T01:11:42Z</time>
      </trkpt>
      <trkpt lat="44.47849" lon="0.74221">
        <ele>104.1</ele>
        <time>2018-05-17T01:11:43Z</time>
      </trkpt>
      <trkpt lat="44.4785" lon="0.74215">
        <ele>104</ele>
        <time>2018-05-17T01:11:44Z</time>
      </trkpt>
      <trkpt lat="44.47851" lon="0.7421">
        <ele>103.9</ele>
        <time>2018-05-17T01:11:45Z</time>
      </trkpt>
      <trkpt lat="44.47852" lon="0.74205">
        <ele>103.9</ele>
        <time>2018-05-17T01:11:46Z</time>
      </trkpt>
      <trkpt lat="44.47853" lon="0.74201">
        <ele>103.9</ele>
        <time>2018-05-17T01:11:47Z</time>
      </trkpt>
      <trkpt lat="44.47854" lon="0.74196">
        <ele>103.9</ele>
        <time>2018-05-17T01:11:48Z</time>
      </trkpt>
      <trkpt lat="44.47855" lon="0.74192">
        <ele>103.9</ele>
        <time>2018-05-17T01:11:49Z</time>
      </trkpt>
      <trkpt lat="44.47856" lon="0.74187">
        <ele>104</ele>
        <time>2018-05-17T01:11:50Z</time>
      </trkpt>
      <trkpt lat="44.47858" lon="0.74183">
        <ele>104.2</ele>
        <time>2018-05-17T01:11:51Z</time>
      </trkpt>
      <trkpt lat="44.47859" lon="0.74178">
        <ele>104.3</ele>
        <time>2018-05-17T01:11:52Z</time>
      </trkpt>
      <trkpt lat="44.4786" lon="0.74174">
        <ele>104.4</ele>
        <time>2018-05-17T01:11:53Z</time>
      </trkpt>
      <trkpt lat="44.47861" lon="0.7417">
        <ele>104.5</ele>
        <time>2018-05-17T01:11:54Z</time>
      </trkpt>
      <trkpt lat="44.47863" lon="0.74165">
        <ele>104.6</ele>
        <time>2018-05-17T01:11:55Z</time>
      </trkpt>
      <trkpt lat="44.47864" lon="0.74161">
        <ele>104.8</ele>
        <time>2018-05-17T01:11:56Z</time>
      </trkpt>
      <trkpt lat="44.47866" lon="0.74157">
        <ele>105.1</ele>
        <time>2018-05-17T01:11:57Z</time>
      </trkpt>
      <trkpt lat="44.47867" lon="0.74153">
        <ele>105.3</ele>
        <time>2018-05-17T01:11:58Z</time>
      </trkpt>
      <trkpt lat="44.47868" lon="0.74149">
        <ele>105.5</ele>
        <time>2018-05-17T01:11:59Z</time>
      </trkpt>
      <trkpt lat="44.47868" lon="0.74144">
        <ele>105.8</ele>
        <time>2018-05-17T01:12:00Z</time>
      </trkpt>
      <trkpt lat="44.4787" lon="0.7414">
        <ele>106</ele>
        <time>2018-05-17T01:12:01Z</time>
      </trkpt>
      <trkpt lat="44.47872" lon="0.74136">
        <ele>106.1</ele>
        <time>2018-05-17T01:12:02Z</time>
      </trkpt>
      <trkpt lat="44.47873" lon="0.74132">
        <ele>106.2</ele>
        <time>2018-05-17T01:12:03Z</time>
      </trkpt>
      <trkpt lat="44.47875" lon="0.74128">
        <ele>106.4</ele>
        <time>2018-05-17T01:12:04Z</time>
      </trkpt>
      <trkpt lat="44.47875" lon="0.74123">
        <ele>106.6</ele>
        <time>2018-05-17T01:12:05Z</time>
      </trkpt>
      <trkpt lat="44.47876" lon="0.74118">
        <ele>106.7</ele>
        <time>2018-05-17T01:12:06Z</time>
      </trkpt>
      <trkpt lat="44.47876" lon="0.74114">
        <ele>106.8</ele>
        <time>2018-05-17T01:12:07Z</time>
      </trkpt>
      <trkpt lat="44.47877" lon="0.74109">
        <ele>106.9</ele>
        <time>2018-05-17T01:12:08Z</time>
      </trkpt>
      <trkpt lat="44.47877" lon="0.74104">
        <ele>107</ele>
        <time>2018-05-17T01:12:09Z</time>
      </trkpt>
      <trkpt lat="44.47878" lon="0.741">
        <ele>107</ele>
        <time>2018-05-17T01:12:10Z</time>
      </trkpt>
      <trkpt lat="44.47879" lon="0.74096">
        <ele>107.1</ele>
        <time>2018-05-17T01:12:11Z</time>
      </trkpt>
      <trkpt lat="44.47879" lon="0.74092">
        <ele>107.3</ele>
        <time>2018-05-17T01:12:12Z</time>
      </trkpt>
      <trkpt lat="44.4788" lon="0.74087">
        <ele>107.4</ele>
        <time>2018-05-17T01:12:13Z</time>
      </trkpt>
      <trkpt lat="44.4788" lon="0.74083">
        <ele>107.5</ele>
        <time>2018-05-17T01:12:14Z</time>
      </trkpt>
      <trkpt lat="44.47881" lon="0.74078">
        <ele>107.6</ele>
        <time>2018-05-17T01:12:15Z</time>
      </trkpt>
      <trkpt lat="44.4788" lon="0.74071">
        <ele>107.9</ele>
        <time>2018-05-17T01:12:17Z</time>
      </trkpt>
      <trkpt lat="44.47882" lon="0.74066">
        <ele>108.2</ele>
        <time>2018-05-17T01:12:18Z</time>
      </trkpt>
      <trkpt lat="44.47883" lon="0.74061">
        <ele>108.4</ele>
        <time>2018-05-17T01:12:19Z</time>
      </trkpt>
      <trkpt lat="44.47884" lon="0.74057">
        <ele>108.6</ele>
        <time>2018-05-17T01:12:20Z</time>
      </trkpt>
      <trkpt lat="44.47885" lon="0.74051">
        <ele>108.8</ele>
        <time>2018-05-17T01:12:21Z</time>
      </trkpt>
      <trkpt lat="44.47886" lon="0.74046">
        <ele>109.2</ele>
        <time>2018-05-17T01:12:22Z</time>
      </trkpt>
      <trkpt lat="44.47887" lon="0.74041">
        <ele>109.4</ele>
        <time>2018-05-17T01:12:23Z</time>
      </trkpt>
      <trkpt lat="44.47888" lon="0.74036">
        <ele>109.5</ele>
        <time>2018-05-17T01:12:24Z</time>
      </trkpt>
      <trkpt lat="44.4789" lon="0.74031">
        <ele>109.7</ele>
        <time>2018-05-17T01:12:25Z</time>
      </trkpt>
      <trkpt lat="44.47891" lon="0.74026">
        <ele>110</ele>
        <time>2018-05-17T01:12:26Z</time>
      </trkpt>
      <trkpt lat="44.47893" lon="0.74022">
        <ele>110.3</ele>
        <time>2018-05-17T01:12:27Z</time>
      </trkpt>
      <trkpt lat="44.47894" lon="0.74017">
        <ele>110.5</ele>
        <time>2018-05-17T01:12:28Z</time>
      </trkpt>
      <trkpt lat="44.47896" lon="0.74012">
        <ele>110.8</ele>
        <time>2018-05-17T01:12:29Z</time>
      </trkpt>
      <trkpt lat="44.47897" lon="0.74007">
        <ele>111.1</ele>
        <time>2018-05-17T01:12:30Z</time>
      </trkpt>
      <trkpt lat="44.47899" lon="0.74002">
        <ele>111.5</ele>
        <time>2018-05-17T01:12:31Z</time>
      </trkpt>
      <trkpt lat="44.479" lon="0.73997">
        <ele>111.8</ele>
        <time>2018-05-17T01:12:32Z</time>
      </trkpt>
      <trkpt lat="44.47901" lon="0.73992">
        <ele>112.1</ele>
        <time>2018-05-17T01:12:33Z</time>
      </trkpt>
      <trkpt lat="44.47903" lon="0.73988">
        <ele>112.4</ele>
        <time>2018-05-17T01:12:34Z</time>
      </trkpt>
      <trkpt lat="44.47904" lon="0.73984">
        <ele>112.6</ele>
        <time>2018-05-17T01:12:35Z</time>
      </trkpt>
      <trkpt lat="44.47905" lon="0.73979">
        <ele>112.7</ele>
        <time>2018-05-17T01:12:36Z</time>
      </trkpt>
      <trkpt lat="44.47906" lon="0.73975">
        <ele>112.9</ele>
        <time>2018-05-17T01:12:37Z</time>
      </trkpt>
      <trkpt lat="44.47907" lon="0.73971">
        <ele>113.2</ele>
        <time>2018-05-17T01:12:38Z</time>
      </trkpt>
      <trkpt lat="44.47909" lon="0.73966">
        <ele>113.5</ele>
        <time>2018-05-17T01:12:39Z</time>
      </trkpt>
      <trkpt lat="44.4791" lon="0.73962">
        <ele>113.7</ele>
        <time>2018-05-17T01:12:40Z</time>
      </trkpt>
      <trkpt lat="44.47912" lon="0.73958">
        <ele>113.9</ele>
        <time>2018-05-17T01:12:41Z</time>
      </trkpt>
      <trkpt lat="44.47914" lon="0.73953">
        <ele>114.1</ele>
        <time>2018-05-17T01:12:42Z</time>
      </trkpt>
      <trkpt lat="44.47915" lon="0.73949">
        <ele>114.4</ele>
        <time>2018-05-17T01:12:43Z</time>
      </trkpt>
      <trkpt lat="44.47917" lon="0.73946">
        <ele>114.6</ele>
        <time>2018-05-17T01:12:44Z</time>
      </trkpt>
      <trkpt lat="44.47919" lon="0.73939">
        <ele>115</ele>
        <time>2018-05-17T01:12:46Z</time>
      </trkpt>
      <trkpt lat="44.47919" lon="0.73932">
        <ele>115.4</ele>
        <time>2018-05-17T01:12:48Z</time>
      </trkpt>
      <trkpt lat="44.47917" lon="0.73928">
        <ele>115.5</ele>
        <time>2018-05-17T01:12:49Z</time>
      </trkpt>
      <trkpt lat="44.4792" lon="0.73924">
        <ele>115.7</ele>
        <time>2018-05-17T01:12:51Z</time>
      </trkpt>
      <trkpt lat="44.47921" lon="0.73917">
        <ele>116</ele>
        <time>2018-05-17T01:12:53Z</time>
      </trkpt>
      <trkpt lat="44.47924" lon="0.73912">
        <ele>116.3</ele>
        <time>2018-05-17T01:12:54Z</time>
      </trkpt>
      <trkpt lat="44.47927" lon="0.73908">
        <ele>116.5</ele>
        <time>2018-05-17T01:12:55Z</time>
      </trkpt>
      <trkpt lat="44.47929" lon="0.73904">
        <ele>116.7</ele>
        <time>2018-05-17T01:12:56Z</time>
      </trkpt>
      <trkpt lat="44.4793" lon="0.73895">
        <ele>116.7</ele>
        <time>2018-05-17T01:12:58Z</time>
      </trkpt>
      <trkpt lat="44.47932" lon="0.73889">
        <ele>116.8</ele>
        <time>2018-05-17T01:13:00Z</time>
      </trkpt>
      <trkpt lat="44.47933" lon="0.73885">
        <ele>116.8</ele>
        <time>2018-05-17T01:13:01Z</time>
      </trkpt>
      <trkpt lat="44.47936" lon="0.73879">
        <ele>117</ele>
        <time>2018-05-17T01:13:03Z</time>
      </trkpt>
      <trkpt lat="44.47939" lon="0.73874">
        <ele>117.2</ele>
        <time>2018-05-17T01:13:05Z</time>
      </trkpt>
      <trkpt lat="44.47942" lon="0.73871">
        <ele>117.2</ele>
        <time>2018-05-17T01:13:06Z</time>
      </trkpt>
      <trkpt lat="44.47944" lon="0.73868">
        <ele>117.3</ele>
        <time>2018-05-17T01:13:07Z</time>
      </trkpt>
      <trkpt lat="44.47947" lon="0.73866">
        <ele>117.2</ele>
        <time>2018-05-17T01:13:08Z</time>
      </trkpt>
      <trkpt lat="44.4795" lon="0.73863">
        <ele>117.2</ele>
        <time>2018-05-17T01:13:09Z</time>
      </trkpt>
      <trkpt lat="44.47953" lon="0.7386">
        <ele>117.2</ele>
        <time>2018-05-17T01:13:10Z</time>
      </trkpt>
      <trkpt lat="44.47956" lon="0.73856">
        <ele>117.2</ele>
        <time>2018-05-17T01:13:11Z</time>
      </trkpt>
      <trkpt lat="44.47959" lon="0.73853">
        <ele>117.2</ele>
        <time>2018-05-17T01:13:12Z</time>
      </trkpt>
      <trkpt lat="44.47962" lon="0.73851">
        <ele>117.2</ele>
        <time>2018-05-17T01:13:13Z</time>
      </trkpt>
      <trkpt lat="44.47964" lon="0.73848">
        <ele>117.3</ele>
        <time>2018-05-17T01:13:14Z</time>
      </trkpt>
      <trkpt lat="44.47967" lon="0.73846">
        <ele>117.3</ele>
        <time>2018-05-17T01:13:15Z</time>
      </trkpt>
      <trkpt lat="44.47969" lon="0.73843">
        <ele>117.4</ele>
        <time>2018-05-17T01:13:16Z</time>
      </trkpt>
      <trkpt lat="44.47971" lon="0.7384">
        <ele>117.5</ele>
        <time>2018-05-17T01:13:17Z</time>
      </trkpt>
      <trkpt lat="44.47974" lon="0.73837">
        <ele>117.6</ele>
        <time>2018-05-17T01:13:18Z</time>
      </trkpt>
      <trkpt lat="44.47977" lon="0.73835">
        <ele>117.7</ele>
        <time>2018-05-17T01:13:19Z</time>
      </trkpt>
      <trkpt lat="44.47979" lon="0.73832">
        <ele>117.7</ele>
        <time>2018-05-17T01:13:20Z</time>
      </trkpt>
      <trkpt lat="44.47982" lon="0.73829">
        <ele>117.8</ele>
        <time>2018-05-17T01:13:21Z</time>
      </trkpt>
      <trkpt lat="44.47985" lon="0.73827">
        <ele>118</ele>
        <time>2018-05-17T01:13:22Z</time>
      </trkpt>
      <trkpt lat="44.47988" lon="0.73822">
        <ele>118.1</ele>
        <time>2018-05-17T01:13:24Z</time>
      </trkpt>
      <trkpt lat="44.47991" lon="0.73819">
        <ele>118.3</ele>
        <time>2018-05-17T01:13:26Z</time>
      </trkpt>
      <trkpt lat="44.47995" lon="0.73814">
        <ele>118.5</ele>
        <time>2018-05-17T01:13:28Z</time>
      </trkpt>
      <trkpt lat="44.47997" lon="0.73811">
        <ele>118.6</ele>
        <time>2018-05-17T01:13:29Z</time>
      </trkpt>
      <trkpt lat="44.47999" lon="0.73809">
        <ele>118.7</ele>
        <time>2018-05-17T01:13:30Z</time>
      </trkpt>
      <trkpt lat="44.48002" lon="0.73806">
        <ele>118.8</ele>
        <time>2018-05-17T01:13:31Z</time>
      </trkpt>
      <trkpt lat="44.48004" lon="0.73803">
        <ele>118.9</ele>
        <time>2018-05-17T01:13:32Z</time>
      </trkpt>
      <trkpt lat="44.48006" lon="0.738">
        <ele>119</ele>
        <time>2018-05-17T01:13:33Z</time>
      </trkpt>
      <trkpt lat="44.48008" lon="0.73797">
        <ele>119.2</ele>
        <time>2018-05-17T01:13:34Z</time>
      </trkpt>
      <trkpt lat="44.48011" lon="0.73794">
        <ele>119.3</ele>
        <time>2018-05-17T01:13:35Z</time>
      </trkpt>
      <trkpt lat="44.48013" lon="0.73791">
        <ele>119.5</ele>
        <time>2018-05-17T01:13:36Z</time>
      </trkpt>
      <trkpt lat="44.48016" lon="0.73788">
        <ele>119.7</ele>
        <time>2018-05-17T01:13:37Z</time>
      </trkpt>
      <trkpt lat="44.48017" lon="0.73784">
        <ele>119.8</ele>
        <time>2018-05-17T01:13:38Z</time>
      </trkpt>
      <trkpt lat="44.48019" lon="0.73781">
        <ele>120</ele>
        <time>2018-05-17T01:13:39Z</time>
      </trkpt>
      <trkpt lat="44.4802" lon="0.73777">
        <ele>120.1</ele>
        <time>2018-05-17T01:13:40Z</time>
      </trkpt>
      <trkpt lat="44.48023" lon="0.73771">
        <ele>120.3</ele>
        <time>2018-05-17T01:13:42Z</time>
      </trkpt>
      <trkpt lat="44.48025" lon="0.73768">
        <ele>120.4</ele>
        <time>2018-05-17T01:13:43Z</time>
      </trkpt>
      <trkpt lat="44.48027" lon="0.73766">
        <ele>120.4</ele>
        <time>2018-05-17T01:13:44Z</time>
      </trkpt>
      <trkpt lat="44.48031" lon="0.73762">
        <ele>120.6</ele>
        <time>2018-05-17T01:13:46Z</time>
      </trkpt>
      <trkpt lat="44.48035" lon="0.73758">
        <ele>120.8</ele>
        <time>2018-05-17T01:13:48Z</time>
      </trkpt>
      <trkpt lat="44.48038" lon="0.73755">
        <ele>121</ele>
        <time>2018-05-17T01:13:49Z</time>
      </trkpt>
      <trkpt lat="44.4804" lon="0.73752">
        <ele>121.1</ele>
        <time>2018-05-17T01:13:50Z</time>
      </trkpt>
      <trkpt lat="44.48044" lon="0.73748">
        <ele>121.3</ele>
        <time>2018-05-17T01:13:52Z</time>
      </trkpt>
      <trkpt lat="44.48048" lon="0.73745">
        <ele>121.6</ele>
        <time>2018-05-17T01:13:54Z</time>
      </trkpt>
      <trkpt lat="44.48052" lon="0.73741">
        <ele>121.8</ele>
        <time>2018-05-17T01:13:56Z</time>
      </trkpt>
      <trkpt lat="44.48056" lon="0.73738">
        <ele>122</ele>
        <time>2018-05-17T01:13:58Z</time>
      </trkpt>
      <trkpt lat="44.4806" lon="0.73734">
        <ele>122.2</ele>
        <time>2018-05-17T01:14:00Z</time>
      </trkpt>
      <trkpt lat="44.48063" lon="0.73732">
        <ele>122.3</ele>
        <time>2018-05-17T01:14:01Z</time>
      </trkpt>
      <trkpt lat="44.48065" lon="0.73729">
        <ele>122.5</ele>
        <time>2018-05-17T01:14:02Z</time>
      </trkpt>
      <trkpt lat="44.48067" lon="0.73727">
        <ele>122.6</ele>
        <time>2018-05-17T01:14:03Z</time>
      </trkpt>
      <trkpt lat="44.4807" lon="0.73725">
        <ele>122.7</ele>
        <time>2018-05-17T01:14:04Z</time>
      </trkpt>
      <trkpt lat="44.48073" lon="0.73722">
        <ele>122.9</ele>
        <time>2018-05-17T01:14:05Z</time>
      </trkpt>
      <trkpt lat="44.48076" lon="0.73719">
        <ele>123</ele>
        <time>2018-05-17T01:14:06Z</time>
      </trkpt>
      <trkpt lat="44.48078" lon="0.73717">
        <ele>123.1</ele>
        <time>2018-05-17T01:14:07Z</time>
      </trkpt>
      <trkpt lat="44.4808" lon="0.73714">
        <ele>123.2</ele>
        <time>2018-05-17T01:14:08Z</time>
      </trkpt>
      <trkpt lat="44.48085" lon="0.73711">
        <ele>123.3</ele>
        <time>2018-05-17T01:14:10Z</time>
      </trkpt>
      <trkpt lat="44.48088" lon="0.73705">
        <ele>123.5</ele>
        <time>2018-05-17T01:14:12Z</time>
      </trkpt>
      <trkpt lat="44.48092" lon="0.737">
        <ele>123.7</ele>
        <time>2018-05-17T01:14:14Z</time>
      </trkpt>
      <trkpt lat="44.48094" lon="0.73698">
        <ele>123.7</ele>
        <time>2018-05-17T01:14:15Z</time>
      </trkpt>
      <trkpt lat="44.48098" lon="0.73694">
        <ele>123.7</ele>
        <time>2018-05-17T01:14:17Z</time>
      </trkpt>
      <trkpt lat="44.481" lon="0.73689">
        <ele>123.8</ele>
        <time>2018-05-17T01:14:19Z</time>
      </trkpt>
      <trkpt lat="44.48104" lon="0.73684">
        <ele>123.9</ele>
        <time>2018-05-17T01:14:21Z</time>
      </trkpt>
      <trkpt lat="44.48106" lon="0.73681">
        <ele>124</ele>
        <time>2018-05-17T01:14:22Z</time>
      </trkpt>
      <trkpt lat="44.48108" lon="0.73679">
        <ele>124</ele>
        <time>2018-05-17T01:14:23Z</time>
      </trkpt>
      <trkpt lat="44.48111" lon="0.73677">
        <ele>124.1</ele>
        <time>2018-05-17T01:14:24Z</time>
      </trkpt>
      <trkpt lat="44.48114" lon="0.73671">
        <ele>124.2</ele>
        <time>2018-05-17T01:14:26Z</time>
      </trkpt>
      <trkpt lat="44.48118" lon="0.73668">
        <ele>124.2</ele>
        <time>2018-05-17T01:14:28Z</time>
      </trkpt>
      <trkpt lat="44.48121" lon="0.73665">
        <ele>124.2</ele>
        <time>2018-05-17T01:14:30Z</time>
      </trkpt>
      <trkpt lat="44.48123" lon="0.73661">
        <ele>124.2</ele>
        <time>2018-05-17T01:14:32Z</time>
      </trkpt>
      <trkpt lat="44.48126" lon="0.73656">
        <ele>124.2</ele>
        <time>2018-05-17T01:14:34Z</time>
      </trkpt>
      <trkpt lat="44.48129" lon="0.73652">
        <ele>124.2</ele>
        <time>2018-05-17T01:14:36Z</time>
      </trkpt>
      <trkpt lat="44.48133" lon="0.73648">
        <ele>124.3</ele>
        <time>2018-05-17T01:14:38Z</time>
      </trkpt>
      <trkpt lat="44.48137" lon="0.73644">
        <ele>124.3</ele>
        <time>2018-05-17T01:14:40Z</time>
      </trkpt>
      <trkpt lat="44.48138" lon="0.73641">
        <ele>124.3</ele>
        <time>2018-05-17T01:14:41Z</time>
      </trkpt>
      <trkpt lat="44.48143" lon="0.73637">
        <ele>124.3</ele>
        <time>2018-05-17T01:14:43Z</time>
      </trkpt>
      <trkpt lat="44.48145" lon="0.73635">
        <ele>124.3</ele>
        <time>2018-05-17T01:14:44Z</time>
      </trkpt>
      <trkpt lat="44.48147" lon="0.73632">
        <ele>124.3</ele>
        <time>2018-05-17T01:14:45Z</time>
      </trkpt>
      <trkpt lat="44.48149" lon="0.7363">
        <ele>124.3</ele>
        <time>2018-05-17T01:14:46Z</time>
      </trkpt>
      <trkpt lat="44.48151" lon="0.73627">
        <ele>124.3</ele>
        <time>2018-05-17T01:14:47Z</time>
      </trkpt>
      <trkpt lat="44.48154" lon="0.73625">
        <ele>124.4</ele>
        <time>2018-05-17T01:14:48Z</time>
      </trkpt>
      <trkpt lat="44.48157" lon="0.73621">
        <ele>124.4</ele>
        <time>2018-05-17T01:14:50Z</time>
      </trkpt>
      <trkpt lat="44.48162" lon="0.73614">
        <ele>124.5</ele>
        <time>2018-05-17T01:14:52Z</time>
      </trkpt>
      <trkpt lat="44.48164" lon="0.73611">
        <ele>124.5</ele>
        <time>2018-05-17T01:14:53Z</time>
      </trkpt>
      <trkpt lat="44.48166" lon="0.73608">
        <ele>124.6</ele>
        <time>2018-05-17T01:14:54Z</time>
      </trkpt>
      <trkpt lat="44.48169" lon="0.73602">
        <ele>124.8</ele>
        <time>2018-05-17T01:14:56Z</time>
      </trkpt>
      <trkpt lat="44.48171" lon="0.73598">
        <ele>124.9</ele>
        <time>2018-05-17T01:14:57Z</time>
      </trkpt>
      <trkpt lat="44.48173" lon="0.73595">
        <ele>125.1</ele>
        <time>2018-05-17T01:14:58Z</time>
      </trkpt>
      <trkpt lat="44.48176" lon="0.73591">
        <ele>125.2</ele>
        <time>2018-05-17T01:15:00Z</time>
      </trkpt>
      <trkpt lat="44.48181" lon="0.73588">
        <ele>125.5</ele>
        <time>2018-05-17T01:15:02Z</time>
      </trkpt>
      <trkpt lat="44.48183" lon="0.73584">
        <ele>125.7</ele>
        <time>2018-05-17T01:15:03Z</time>
      </trkpt>
      <trkpt lat="44.48186" lon="0.73583">
        <ele>125.9</ele>
        <time>2018-05-17T01:15:05Z</time>
      </trkpt>
      <trkpt lat="44.48189" lon="0.73579">
        <ele>126.1</ele>
        <time>2018-05-17T01:15:07Z</time>
      </trkpt>
      <trkpt lat="44.48192" lon="0.73576">
        <ele>126.5</ele>
        <time>2018-05-17T01:15:10Z</time>
      </trkpt>
      <trkpt lat="44.48194" lon="0.73572">
        <ele>126.8</ele>
        <time>2018-05-17T01:15:12Z</time>
      </trkpt>
      <trkpt lat="44.48197" lon="0.73567">
        <ele>127.2</ele>
        <time>2018-05-17T01:15:14Z</time>
      </trkpt>
      <trkpt lat="44.48199" lon="0.73564">
        <ele>127.5</ele>
        <time>2018-05-17T01:15:16Z</time>
      </trkpt>
      <trkpt lat="44.48201" lon="0.73559">
        <ele>127.9</ele>
        <time>2018-05-17T01:15:18Z</time>
      </trkpt>
      <trkpt lat="44.48204" lon="0.73555">
        <ele>128.3</ele>
        <time>2018-05-17T01:15:20Z</time>
      </trkpt>
      <trkpt lat="44.48206" lon="0.73552">
        <ele>128.7</ele>
        <time>2018-05-17T01:15:22Z</time>
      </trkpt>
      <trkpt lat="44.48208" lon="0.73547">
        <ele>129.1</ele>
        <time>2018-05-17T01:15:24Z</time>
      </trkpt>
      <trkpt lat="44.4821" lon="0.73543">
        <ele>129.5</ele>
        <time>2018-05-17T01:15:26Z</time>
      </trkpt>
      <trkpt lat="44.48213" lon="0.7354">
        <ele>129.8</ele>
        <time>2018-05-17T01:15:28Z</time>
      </trkpt>
      <trkpt lat="44.48216" lon="0.73536">
        <ele>130.3</ele>
        <time>2018-05-17T01:15:30Z</time>
      </trkpt>
      <trkpt lat="44.48219" lon="0.73531">
        <ele>130.9</ele>
        <time>2018-05-17T01:15:32Z</time>
      </trkpt>
      <trkpt lat="44.48222" lon="0.73525">
        <ele>131.4</ele>
        <time>2018-05-17T01:15:34Z</time>
      </trkpt>
      <trkpt lat="44.48224" lon="0.7352">
        <ele>131.7</ele>
        <time>2018-05-17T01:15:36Z</time>
      </trkpt>
      <trkpt lat="44.48226" lon="0.73516">
        <ele>131.9</ele>
        <time>2018-05-17T01:15:38Z</time>
      </trkpt>
      <trkpt lat="44.48228" lon="0.73512">
        <ele>132.3</ele>
        <time>2018-05-17T01:15:40Z</time>
      </trkpt>
      <trkpt lat="44.4823" lon="0.73509">
        <ele>132.7</ele>
        <time>2018-05-17T01:15:42Z</time>
      </trkpt>
      <trkpt lat="44.48233" lon="0.73505">
        <ele>133.1</ele>
        <time>2018-05-17T01:15:44Z</time>
      </trkpt>
      <trkpt lat="44.48235" lon="0.73501">
        <ele>133.3</ele>
        <time>2018-05-17T01:15:46Z</time>
      </trkpt>
      <trkpt lat="44.48236" lon="0.73498">
        <ele>133.6</ele>
        <time>2018-05-17T01:15:48Z</time>
      </trkpt>
      <trkpt lat="44.48238" lon="0.73494">
        <ele>133.7</ele>
        <time>2018-05-17T01:15:50Z</time>
      </trkpt>
      <trkpt lat="44.4824" lon="0.7349">
        <ele>133.8</ele>
        <time>2018-05-17T01:15:52Z</time>
      </trkpt>
      <trkpt lat="44.48242" lon="0.73486">
        <ele>134</ele>
        <time>2018-05-17T01:15:54Z</time>
      </trkpt>
      <trkpt lat="44.48244" lon="0.73482">
        <ele>134.4</ele>
        <time>2018-05-17T01:15:56Z</time>
      </trkpt>
      <trkpt lat="44.48246" lon="0.73478">
        <ele>134.7</ele>
        <time>2018-05-17T01:15:58Z</time>
      </trkpt>
      <trkpt lat="44.48247" lon="0.73473">
        <ele>134.9</ele>
        <time>2018-05-17T01:16:00Z</time>
      </trkpt>
      <trkpt lat="44.48249" lon="0.7347">
        <ele>135.1</ele>
        <time>2018-05-17T01:16:02Z</time>
      </trkpt>
      <trkpt lat="44.48249" lon="0.73465">
        <ele>135.3</ele>
        <time>2018-05-17T01:16:04Z</time>
      </trkpt>
      <trkpt lat="44.4825" lon="0.73461">
        <ele>135.5</ele>
        <time>2018-05-17T01:16:06Z</time>
      </trkpt>
      <trkpt lat="44.48251" lon="0.73456">
        <ele>135.7</ele>
        <time>2018-05-17T01:16:08Z</time>
      </trkpt>
      <trkpt lat="44.48254" lon="0.73452">
        <ele>136</ele>
        <time>2018-05-17T01:16:10Z</time>
      </trkpt>
      <trkpt lat="44.48255" lon="0.73447">
        <ele>136.2</ele>
        <time>2018-05-17T01:16:12Z</time>
      </trkpt>
      <trkpt lat="44.48256" lon="0.73441">
        <ele>136.4</ele>
        <time>2018-05-17T01:16:14Z</time>
      </trkpt>
      <trkpt lat="44.48257" lon="0.73437">
        <ele>136.5</ele>
        <time>2018-05-17T01:16:15Z</time>
      </trkpt>
      <trkpt lat="44.48258" lon="0.73432">
        <ele>136.6</ele>
        <time>2018-05-17T01:16:17Z</time>
      </trkpt>
      <trkpt lat="44.48259" lon="0.73425">
        <ele>136.6</ele>
        <time>2018-05-17T01:16:19Z</time>
      </trkpt>
      <trkpt lat="44.4826" lon="0.73418">
        <ele>136.7</ele>
        <time>2018-05-17T01:16:21Z</time>
      </trkpt>
      <trkpt lat="44.4826" lon="0.73412">
        <ele>136.8</ele>
        <time>2018-05-17T01:16:23Z</time>
      </trkpt>
      <trkpt lat="44.48259" lon="0.73406">
        <ele>136.9</ele>
        <time>2018-05-17T01:16:25Z</time>
      </trkpt>
      <trkpt lat="44.4826" lon="0.73402">
        <ele>136.9</ele>
        <time>2018-05-17T01:16:27Z</time>
      </trkpt>
      <trkpt lat="44.48259" lon="0.73398">
        <ele>136.9</ele>
        <time>2018-05-17T01:16:29Z</time>
      </trkpt>
      <trkpt lat="44.48259" lon="0.73392">
        <ele>137.2</ele>
        <time>2018-05-17T01:16:31Z</time>
      </trkpt>
      <trkpt lat="44.48258" lon="0.73387">
        <ele>137.5</ele>
        <time>2018-05-17T01:16:33Z</time>
      </trkpt>
      <trkpt lat="44.48256" lon="0.73383">
        <ele>137.7</ele>
        <time>2018-05-17T01:16:35Z</time>
      </trkpt>
      <trkpt lat="44.48255" lon="0.73378">
        <ele>137.8</ele>
        <time>2018-05-17T01:16:37Z</time>
      </trkpt>
      <trkpt lat="44.48253" lon="0.73375">
        <ele>138</ele>
        <time>2018-05-17T01:16:39Z</time>
      </trkpt>
      <trkpt lat="44.4825" lon="0.73371">
        <ele>138.3</ele>
        <time>2018-05-17T01:16:41Z</time>
      </trkpt>
      <trkpt lat="44.48247" lon="0.73366">
        <ele>138.6</ele>
        <time>2018-05-17T01:16:43Z</time>
      </trkpt>
      <trkpt lat="44.48243" lon="0.73361">
        <ele>138.9</ele>
        <time>2018-05-17T01:16:45Z</time>
      </trkpt>
      <trkpt lat="44.48241" lon="0.73359">
        <ele>139.1</ele>
        <time>2018-05-17T01:16:46Z</time>
      </trkpt>
      <trkpt lat="44.48238" lon="0.73357">
        <ele>139.3</ele>
        <time>2018-05-17T01:16:47Z</time>
      </trkpt>
      <trkpt lat="44.48235" lon="0.73353">
        <ele>139.5</ele>
        <time>2018-05-17T01:16:49Z</time>
      </trkpt>
      <trkpt lat="44.48233" lon="0.73348">
        <ele>139.8</ele>
        <time>2018-05-17T01:16:51Z</time>
      </trkpt>
      <trkpt lat="44.48231" lon="0.73344">
        <ele>140</ele>
        <time>2018-05-17T01:16:53Z</time>
      </trkpt>
      <trkpt lat="44.48228" lon="0.7334">
        <ele>140.4</ele>
        <time>2018-05-17T01:16:55Z</time>
      </trkpt>
      <trkpt lat="44.48226" lon="0.73337">
        <ele>140.8</ele>
        <time>2018-05-17T01:16:56Z</time>
      </trkpt>
      <trkpt lat="44.48223" lon="0.73333">
        <ele>141.4</ele>
        <time>2018-05-17T01:16:58Z</time>
      </trkpt>
      <trkpt lat="44.4822" lon="0.73329">
        <ele>141.7</ele>
        <time>2018-05-17T01:17:00Z</time>
      </trkpt>
      <trkpt lat="44.48217" lon="0.73323">
        <ele>142.2</ele>
        <time>2018-05-17T01:17:02Z</time>
      </trkpt>
      <trkpt lat="44.48214" lon="0.73318">
        <ele>142.6</ele>
        <time>2018-05-17T01:17:04Z</time>
      </trkpt>
      <trkpt lat="44.4821" lon="0.73312">
        <ele>143.1</ele>
        <time>2018-05-17T01:17:06Z</time>
      </trkpt>
      <trkpt lat="44.48209" lon="0.73309">
        <ele>143.3</ele>
        <time>2018-05-17T01:17:07Z</time>
      </trkpt>
      <trkpt lat="44.48207" lon="0.73305">
        <ele>143.5</ele>
        <time>2018-05-17T01:17:08Z</time>
      </trkpt>
      <trkpt lat="44.48205" lon="0.73302">
        <ele>143.7</ele>
        <time>2018-05-17T01:17:09Z</time>
      </trkpt>
      <trkpt lat="44.48203" lon="0.73299">
        <ele>143.8</ele>
        <time>2018-05-17T01:17:10Z</time>
      </trkpt>
      <trkpt lat="44.48201" lon="0.73294">
        <ele>144.1</ele>
        <time>2018-05-17T01:17:12Z</time>
      </trkpt>
      <trkpt lat="44.482" lon="0.73289">
        <ele>144.5</ele>
        <time>2018-05-17T01:17:14Z</time>
      </trkpt>
      <trkpt lat="44.48196" lon="0.73285">
        <ele>144.9</ele>
        <time>2018-05-17T01:17:16Z</time>
      </trkpt>
      <trkpt lat="44.48194" lon="0.73281">
        <ele>145.2</ele>
        <time>2018-05-17T01:17:18Z</time>
      </trkpt>
      <trkpt lat="44.48192" lon="0.73276">
        <ele>145.4</ele>
        <time>2018-05-17T01:17:20Z</time>
      </trkpt>
      <trkpt lat="44.48192" lon="0.7327">
        <ele>145.7</ele>
        <time>2018-05-17T01:17:22Z</time>
      </trkpt>
      <trkpt lat="44.4819" lon="0.73263">
        <ele>146</ele>
        <time>2018-05-17T01:17:24Z</time>
      </trkpt>
      <trkpt lat="44.4819" lon="0.73257">
        <ele>146.3</ele>
        <time>2018-05-17T01:17:26Z</time>
      </trkpt>
      <trkpt lat="44.48189" lon="0.7325">
        <ele>146.5</ele>
        <time>2018-05-17T01:17:28Z</time>
      </trkpt>
      <trkpt lat="44.48189" lon="0.73243">
        <ele>146.7</ele>
        <time>2018-05-17T01:17:30Z</time>
      </trkpt>
      <trkpt lat="44.48189" lon="0.73237">
        <ele>146.8</ele>
        <time>2018-05-17T01:17:32Z</time>
      </trkpt>
      <trkpt lat="44.48188" lon="0.73231">
        <ele>146.9</ele>
        <time>2018-05-17T01:17:34Z</time>
      </trkpt>
      <trkpt lat="44.48188" lon="0.73226">
        <ele>147</ele>
        <time>2018-05-17T01:17:35Z</time>
      </trkpt>
      <trkpt lat="44.48188" lon="0.73223">
        <ele>147</ele>
        <time>2018-05-17T01:17:36Z</time>
      </trkpt>
      <trkpt lat="44.48187" lon="0.73218">
        <ele>147</ele>
        <time>2018-05-17T01:17:37Z</time>
      </trkpt>
      <trkpt lat="44.48188" lon="0.73214">
        <ele>147</ele>
        <time>2018-05-17T01:17:38Z</time>
      </trkpt>
      <trkpt lat="44.48187" lon="0.7321">
        <ele>147</ele>
        <time>2018-05-17T01:17:39Z</time>
      </trkpt>
      <trkpt lat="44.48187" lon="0.73206">
        <ele>147</ele>
        <time>2018-05-17T01:17:40Z</time>
      </trkpt>
      <trkpt lat="44.48188" lon="0.73198">
        <ele>147</ele>
        <time>2018-05-17T01:17:42Z</time>
      </trkpt>
      <trkpt lat="44.48188" lon="0.73194">
        <ele>147</ele>
        <time>2018-05-17T01:17:43Z</time>
      </trkpt>
      <trkpt lat="44.48187" lon="0.7319">
        <ele>147</ele>
        <time>2018-05-17T01:17:44Z</time>
      </trkpt>
      <trkpt lat="44.48187" lon="0.73186">
        <ele>147</ele>
        <time>2018-05-17T01:17:45Z</time>
      </trkpt>
      <trkpt lat="44.48186" lon="0.73182">
        <ele>147</ele>
        <time>2018-05-17T01:17:46Z</time>
      </trkpt>
      <trkpt lat="44.48183" lon="0.73177">
        <ele>147</ele>
        <time>2018-05-17T01:17:48Z</time>
      </trkpt>
      <trkpt lat="44.4818" lon="0.73175">
        <ele>147</ele>
        <time>2018-05-17T01:17:49Z</time>
      </trkpt>
      <trkpt lat="44.48176" lon="0.73175">
        <ele>147</ele>
        <time>2018-05-17T01:17:50Z</time>
      </trkpt>
      <trkpt lat="44.48172" lon="0.73175">
        <ele>147.1</ele>
        <time>2018-05-17T01:17:51Z</time>
      </trkpt>
      <trkpt lat="44.48168" lon="0.73177">
        <ele>147.1</ele>
        <time>2018-05-17T01:17:52Z</time>
      </trkpt>
      <trkpt lat="44.48164" lon="0.73178">
        <ele>147.2</ele>
        <time>2018-05-17T01:17:53Z</time>
      </trkpt>
      <trkpt lat="44.4816" lon="0.73179">
        <ele>147.2</ele>
        <time>2018-05-17T01:17:54Z</time>
      </trkpt>
      <trkpt lat="44.48157" lon="0.7318">
        <ele>147.3</ele>
        <time>2018-05-17T01:17:55Z</time>
      </trkpt>
      <trkpt lat="44.48153" lon="0.73181">
        <ele>147.3</ele>
        <time>2018-05-17T01:17:56Z</time>
      </trkpt>
      <trkpt lat="44.48149" lon="0.73182">
        <ele>147.4</ele>
        <time>2018-05-17T01:17:57Z</time>
      </trkpt>
      <trkpt lat="44.48146" lon="0.73183">
        <ele>147.6</ele>
        <time>2018-05-17T01:17:58Z</time>
      </trkpt>
      <trkpt lat="44.48143" lon="0.73183">
        <ele>147.7</ele>
        <time>2018-05-17T01:17:59Z</time>
      </trkpt>
      <trkpt lat="44.48139" lon="0.73185">
        <ele>147.8</ele>
        <time>2018-05-17T01:18:00Z</time>
      </trkpt>
      <trkpt lat="44.48136" lon="0.73186">
        <ele>148</ele>
        <time>2018-05-17T01:18:01Z</time>
      </trkpt>
      <trkpt lat="44.48133" lon="0.73188">
        <ele>148.1</ele>
        <time>2018-05-17T01:18:02Z</time>
      </trkpt>
      <trkpt lat="44.4813" lon="0.7319">
        <ele>148.1</ele>
        <time>2018-05-17T01:18:03Z</time>
      </trkpt>
      <trkpt lat="44.48126" lon="0.73192">
        <ele>148.1</ele>
        <time>2018-05-17T01:18:04Z</time>
      </trkpt>
      <trkpt lat="44.48124" lon="0.73195">
        <ele>148.1</ele>
        <time>2018-05-17T01:18:05Z</time>
      </trkpt>
      <trkpt lat="44.48121" lon="0.73197">
        <ele>148.1</ele>
        <time>2018-05-17T01:18:06Z</time>
      </trkpt>
      <trkpt lat="44.48118" lon="0.73199">
        <ele>148.2</ele>
        <time>2018-05-17T01:18:07Z</time>
      </trkpt>
      <trkpt lat="44.48115" lon="0.73201">
        <ele>148.2</ele>
        <time>2018-05-17T01:18:08Z</time>
      </trkpt>
      <trkpt lat="44.48112" lon="0.73203">
        <ele>148.2</ele>
        <time>2018-05-17T01:18:09Z</time>
      </trkpt>
      <trkpt lat="44.48109" lon="0.73206">
        <ele>148.2</ele>
        <time>2018-05-17T01:18:10Z</time>
      </trkpt>
      <trkpt lat="44.48105" lon="0.73208">
        <ele>148.2</ele>
        <time>2018-05-17T01:18:11Z</time>
      </trkpt>
      <trkpt lat="44.48101" lon="0.7321">
        <ele>148.2</ele>
        <time>2018-05-17T01:18:12Z</time>
      </trkpt>
      <trkpt lat="44.48096" lon="0.73213">
        <ele>148.2</ele>
        <time>2018-05-17T01:18:13Z</time>
      </trkpt>
      <trkpt lat="44.48091" lon="0.73216">
        <ele>148.2</ele>
        <time>2018-05-17T01:18:14Z</time>
      </trkpt>
      <trkpt lat="44.48087" lon="0.73219">
        <ele>148.2</ele>
        <time>2018-05-17T01:18:15Z</time>
      </trkpt>
      <trkpt lat="44.48082" lon="0.73222">
        <ele>148.2</ele>
        <time>2018-05-17T01:18:16Z</time>
      </trkpt>
      <trkpt lat="44.48078" lon="0.73225">
        <ele>148.1</ele>
        <time>2018-05-17T01:18:17Z</time>
      </trkpt>
      <trkpt lat="44.48072" lon="0.73227">
        <ele>148.1</ele>
        <time>2018-05-17T01:18:18Z</time>
      </trkpt>
      <trkpt lat="44.48067" lon="0.7323">
        <ele>148</ele>
        <time>2018-05-17T01:18:19Z</time>
      </trkpt>
      <trkpt lat="44.48061" lon="0.73233">
        <ele>147.9</ele>
        <time>2018-05-17T01:18:20Z</time>
      </trkpt>
      <trkpt lat="44.48054" lon="0.73237">
        <ele>147.7</ele>
        <time>2018-05-17T01:18:21Z</time>
      </trkpt>
      <trkpt lat="44.48048" lon="0.7324">
        <ele>147.6</ele>
        <time>2018-05-17T01:18:22Z</time>
      </trkpt>
      <trkpt lat="44.48042" lon="0.73244">
        <ele>147.5</ele>
        <time>2018-05-17T01:18:23Z</time>
      </trkpt>
      <trkpt lat="44.48035" lon="0.73247">
        <ele>147.3</ele>
        <time>2018-05-17T01:18:24Z</time>
      </trkpt>
      <trkpt lat="44.48027" lon="0.7325">
        <ele>146.8</ele>
        <time>2018-05-17T01:18:25Z</time>
      </trkpt>
      <trkpt lat="44.48018" lon="0.73252">
        <ele>146.2</ele>
        <time>2018-05-17T01:18:26Z</time>
      </trkpt>
      <trkpt lat="44.48009" lon="0.73254">
        <ele>145.5</ele>
        <time>2018-05-17T01:18:27Z</time>
      </trkpt>
      <trkpt lat="44.47999" lon="0.73255">
        <ele>144.7</ele>
        <time>2018-05-17T01:18:28Z</time>
      </trkpt>
      <trkpt lat="44.47988" lon="0.73254">
        <ele>143.7</ele>
        <time>2018-05-17T01:18:29Z</time>
      </trkpt>
      <trkpt lat="44.47978" lon="0.73254">
        <ele>142.7</ele>
        <time>2018-05-17T01:18:30Z</time>
      </trkpt>
      <trkpt lat="44.47968" lon="0.73254">
        <ele>141.7</ele>
        <time>2018-05-17T01:18:31Z</time>
      </trkpt>
      <trkpt lat="44.47958" lon="0.73254">
        <ele>140.6</ele>
        <time>2018-05-17T01:18:32Z</time>
      </trkpt>
      <trkpt lat="44.47941" lon="0.73254">
        <ele>138.7</ele>
        <time>2018-05-17T01:18:33Z</time>
      </trkpt>
      <trkpt lat="44.47929" lon="0.73253">
        <ele>137.2</ele>
        <time>2018-05-17T01:18:34Z</time>
      </trkpt>
      <trkpt lat="44.47916" lon="0.73251">
        <ele>135.5</ele>
        <time>2018-05-17T01:18:35Z</time>
      </trkpt>
      <trkpt lat="44.47902" lon="0.73248">
        <ele>133.2</ele>
        <time>2018-05-17T01:18:36Z</time>
      </trkpt>
      <trkpt lat="44.47889" lon="0.73244">
        <ele>131.3</ele>
        <time>2018-05-17T01:18:37Z</time>
      </trkpt>
      <trkpt lat="44.47872" lon="0.73238">
        <ele>128.7</ele>
        <time>2018-05-17T01:18:38Z</time>
      </trkpt>
      <trkpt lat="44.47859" lon="0.7323">
        <ele>127</ele>
        <time>2018-05-17T01:18:39Z</time>
      </trkpt>
      <trkpt lat="44.4785" lon="0.7322">
        <ele>125.9</ele>
        <time>2018-05-17T01:18:40Z</time>
      </trkpt>
      <trkpt lat="44.47838" lon="0.7321">
        <ele>124.5</ele>
        <time>2018-05-17T01:18:41Z</time>
      </trkpt>
      <trkpt lat="44.47826" lon="0.732">
        <ele>123.3</ele>
        <time>2018-05-17T01:18:42Z</time>
      </trkpt>
      <trkpt lat="44.47812" lon="0.73191">
        <ele>122.2</ele>
        <time>2018-05-17T01:18:43Z</time>
      </trkpt>
      <trkpt lat="44.47798" lon="0.73184">
        <ele>121.1</ele>
        <time>2018-05-17T01:18:44Z</time>
      </trkpt>
      <trkpt lat="44.47784" lon="0.73184">
        <ele>120.3</ele>
        <time>2018-05-17T01:18:45Z</time>
      </trkpt>
      <trkpt lat="44.47773" lon="0.73184">
        <ele>119.6</ele>
        <time>2018-05-17T01:18:46Z</time>
      </trkpt>
      <trkpt lat="44.47762" lon="0.73187">
        <ele>119</ele>
        <time>2018-05-17T01:18:47Z</time>
      </trkpt>
      <trkpt lat="44.47749" lon="0.73189">
        <ele>118.2</ele>
        <time>2018-05-17T01:18:48Z</time>
      </trkpt>
      <trkpt lat="44.47736" lon="0.73189">
        <ele>117.4</ele>
        <time>2018-05-17T01:18:49Z</time>
      </trkpt>
      <trkpt lat="44.47723" lon="0.73188">
        <ele>116.5</ele>
        <time>2018-05-17T01:18:50Z</time>
      </trkpt>
      <trkpt lat="44.47709" lon="0.73186">
        <ele>115.5</ele>
        <time>2018-05-17T01:18:51Z</time>
      </trkpt>
      <trkpt lat="44.47698" lon="0.73188">
        <ele>114.7</ele>
        <time>2018-05-17T01:18:52Z</time>
      </trkpt>
      <trkpt lat="44.47685" lon="0.7319">
        <ele>113.7</ele>
        <time>2018-05-17T01:18:53Z</time>
      </trkpt>
      <trkpt lat="44.47672" lon="0.73191">
        <ele>112.7</ele>
        <time>2018-05-17T01:18:54Z</time>
      </trkpt>
      <trkpt lat="44.47657" lon="0.73192">
        <ele>111.5</ele>
        <time>2018-05-17T01:18:55Z</time>
      </trkpt>
      <trkpt lat="44.47642" lon="0.73193">
        <ele>110.2</ele>
        <time>2018-05-17T01:18:56Z</time>
      </trkpt>
      <trkpt lat="44.47626" lon="0.73194">
        <ele>108.6</ele>
        <time>2018-05-17T01:18:57Z</time>
      </trkpt>
      <trkpt lat="44.47611" lon="0.73196">
        <ele>107.1</ele>
        <time>2018-05-17T01:18:58Z</time>
      </trkpt>
      <trkpt lat="44.47596" lon="0.73197">
        <ele>105.8</ele>
        <time>2018-05-17T01:18:59Z</time>
      </trkpt>
      <trkpt lat="44.47581" lon="0.732">
        <ele>104.5</ele>
        <time>2018-05-17T01:19:00Z</time>
      </trkpt>
      <trkpt lat="44.47567" lon="0.73201">
        <ele>103.3</ele>
        <time>2018-05-17T01:19:01Z</time>
      </trkpt>
      <trkpt lat="44.47555" lon="0.73201">
        <ele>102.4</ele>
        <time>2018-05-17T01:19:02Z</time>
      </trkpt>
      <trkpt lat="44.47543" lon="0.73201">
        <ele>101.4</ele>
        <time>2018-05-17T01:19:03Z</time>
      </trkpt>
      <trkpt lat="44.47533" lon="0.732">
        <ele>100.6</ele>
        <time>2018-05-17T01:19:04Z</time>
      </trkpt>
      <trkpt lat="44.47523" lon="0.73199">
        <ele>99.8</ele>
        <time>2018-05-17T01:19:05Z</time>
      </trkpt>
      <trkpt lat="44.47514" lon="0.73198">
        <ele>99.1</ele>
        <time>2018-05-17T01:19:06Z</time>
      </trkpt>
      <trkpt lat="44.47504" lon="0.73195">
        <ele>98.6</ele>
        <time>2018-05-17T01:19:07Z</time>
      </trkpt>
      <trkpt lat="44.47494" lon="0.7319">
        <ele>98.4</ele>
        <time>2018-05-17T01:19:08Z</time>
      </trkpt>
      <trkpt lat="44.47486" lon="0.73186">
        <ele>98.3</ele>
        <time>2018-05-17T01:19:09Z</time>
      </trkpt>
      <trkpt lat="44.47477" lon="0.73183">
        <ele>98.3</ele>
        <time>2018-05-17T01:19:10Z</time>
      </trkpt>
      <trkpt lat="44.47469" lon="0.73179">
        <ele>98.5</ele>
        <time>2018-05-17T01:19:11Z</time>
      </trkpt>
      <trkpt lat="44.47459" lon="0.73174">
        <ele>99</ele>
        <time>2018-05-17T01:19:12Z</time>
      </trkpt>
      <trkpt lat="44.47452" lon="0.73167">
        <ele>99.4</ele>
        <time>2018-05-17T01:19:13Z</time>
      </trkpt>
      <trkpt lat="44.47445" lon="0.73165">
        <ele>99.7</ele>
        <time>2018-05-17T01:19:14Z</time>
      </trkpt>
      <trkpt lat="44.47438" lon="0.73163">
        <ele>100.1</ele>
        <time>2018-05-17T01:19:15Z</time>
      </trkpt>
      <trkpt lat="44.47433" lon="0.73162">
        <ele>100.4</ele>
        <time>2018-05-17T01:19:16Z</time>
      </trkpt>
      <trkpt lat="44.47427" lon="0.73161">
        <ele>100.8</ele>
        <time>2018-05-17T01:19:17Z</time>
      </trkpt>
      <trkpt lat="44.47422" lon="0.7316">
        <ele>101.2</ele>
        <time>2018-05-17T01:19:18Z</time>
      </trkpt>
      <trkpt lat="44.47417" lon="0.73159">
        <ele>101.5</ele>
        <time>2018-05-17T01:19:19Z</time>
      </trkpt>
      <trkpt lat="44.47412" lon="0.73157">
        <ele>101.9</ele>
        <time>2018-05-17T01:19:20Z</time>
      </trkpt>
      <trkpt lat="44.47407" lon="0.73156">
        <ele>102.3</ele>
        <time>2018-05-17T01:19:21Z</time>
      </trkpt>
      <trkpt lat="44.47401" lon="0.73155">
        <ele>102.6</ele>
        <time>2018-05-17T01:19:22Z</time>
      </trkpt>
      <trkpt lat="44.47396" lon="0.73154">
        <ele>102.8</ele>
        <time>2018-05-17T01:19:23Z</time>
      </trkpt>
      <trkpt lat="44.47392" lon="0.73153">
        <ele>102.9</ele>
        <time>2018-05-17T01:19:24Z</time>
      </trkpt>
      <trkpt lat="44.47387" lon="0.73151">
        <ele>103</ele>
        <time>2018-05-17T01:19:25Z</time>
      </trkpt>
      <trkpt lat="44.47382" lon="0.73147">
        <ele>103</ele>
        <time>2018-05-17T01:19:26Z</time>
      </trkpt>
      <trkpt lat="44.47377" lon="0.73141">
        <ele>103.1</ele>
        <time>2018-05-17T01:19:27Z</time>
      </trkpt>
      <trkpt lat="44.47372" lon="0.73135">
        <ele>103.1</ele>
        <time>2018-05-17T01:19:28Z</time>
      </trkpt>
      <trkpt lat="44.47366" lon="0.73128">
        <ele>103.2</ele>
        <time>2018-05-17T01:19:29Z</time>
      </trkpt>
      <trkpt lat="44.47359" lon="0.73121">
        <ele>103.2</ele>
        <time>2018-05-17T01:19:30Z</time>
      </trkpt>
      <trkpt lat="44.47352" lon="0.73113">
        <ele>103.1</ele>
        <time>2018-05-17T01:19:31Z</time>
      </trkpt>
      <trkpt lat="44.47345" lon="0.73106">
        <ele>103</ele>
        <time>2018-05-17T01:19:32Z</time>
      </trkpt>
      <trkpt lat="44.47339" lon="0.73098">
        <ele>103</ele>
        <time>2018-05-17T01:19:33Z</time>
      </trkpt>
      <trkpt lat="44.47331" lon="0.7309">
        <ele>103</ele>
        <time>2018-05-17T01:19:34Z</time>
      </trkpt>
      <trkpt lat="44.47325" lon="0.73081">
        <ele>103.1</ele>
        <time>2018-05-17T01:19:35Z</time>
      </trkpt>
      <trkpt lat="44.47319" lon="0.73072">
        <ele>103.1</ele>
        <time>2018-05-17T01:19:36Z</time>
      </trkpt>
      <trkpt lat="44.47313" lon="0.73062">
        <ele>103.2</ele>
        <time>2018-05-17T01:19:37Z</time>
      </trkpt>
      <trkpt lat="44.47308" lon="0.73052">
        <ele>103.2</ele>
        <time>2018-05-17T01:19:38Z</time>
      </trkpt>
      <trkpt lat="44.47303" lon="0.73043">
        <ele>103.2</ele>
        <time>2018-05-17T01:19:39Z</time>
      </trkpt>
      <trkpt lat="44.47295" lon="0.73036">
        <ele>103.2</ele>
        <time>2018-05-17T01:19:40Z</time>
      </trkpt>
      <trkpt lat="44.47288" lon="0.73028">
        <ele>103.2</ele>
        <time>2018-05-17T01:19:41Z</time>
      </trkpt>
      <trkpt lat="44.47282" lon="0.7302">
        <ele>103.7</ele>
        <time>2018-05-17T01:19:42Z</time>
      </trkpt>
      <trkpt lat="44.47277" lon="0.73012">
        <ele>104</ele>
        <time>2018-05-17T01:19:43Z</time>
      </trkpt>
      <trkpt lat="44.47273" lon="0.73003">
        <ele>104.3</ele>
        <time>2018-05-17T01:19:44Z</time>
      </trkpt>
      <trkpt lat="44.4727" lon="0.72995">
        <ele>104.5</ele>
        <time>2018-05-17T01:19:45Z</time>
      </trkpt>
      <trkpt lat="44.47266" lon="0.72988">
        <ele>104.7</ele>
        <time>2018-05-17T01:19:46Z</time>
      </trkpt>
      <trkpt lat="44.47262" lon="0.72981">
        <ele>104.9</ele>
        <time>2018-05-17T01:19:47Z</time>
      </trkpt>
      <trkpt lat="44.47257" lon="0.72975">
        <ele>105.2</ele>
        <time>2018-05-17T01:19:48Z</time>
      </trkpt>
      <trkpt lat="44.47253" lon="0.72969">
        <ele>105.4</ele>
        <time>2018-05-17T01:19:49Z</time>
      </trkpt>
      <trkpt lat="44.47249" lon="0.72964">
        <ele>105.6</ele>
        <time>2018-05-17T01:19:50Z</time>
      </trkpt>
      <trkpt lat="44.47246" lon="0.72958">
        <ele>105.7</ele>
        <time>2018-05-17T01:19:51Z</time>
      </trkpt>
      <trkpt lat="44.47243" lon="0.72953">
        <ele>105.9</ele>
        <time>2018-05-17T01:19:52Z</time>
      </trkpt>
      <trkpt lat="44.4724" lon="0.72948">
        <ele>106</ele>
        <time>2018-05-17T01:19:53Z</time>
      </trkpt>
      <trkpt lat="44.47237" lon="0.72944">
        <ele>106.1</ele>
        <time>2018-05-17T01:19:54Z</time>
      </trkpt>
      <trkpt lat="44.47234" lon="0.72939">
        <ele>106.3</ele>
        <time>2018-05-17T01:19:55Z</time>
      </trkpt>
      <trkpt lat="44.47232" lon="0.72935">
        <ele>106.4</ele>
        <time>2018-05-17T01:19:56Z</time>
      </trkpt>
      <trkpt lat="44.47229" lon="0.72931">
        <ele>106.5</ele>
        <time>2018-05-17T01:19:57Z</time>
      </trkpt>
      <trkpt lat="44.47227" lon="0.72927">
        <ele>106.6</ele>
        <time>2018-05-17T01:19:58Z</time>
      </trkpt>
      <trkpt lat="44.47225" lon="0.72924">
        <ele>106.6</ele>
        <time>2018-05-17T01:19:59Z</time>
      </trkpt>
      <trkpt lat="44.47223" lon="0.72921">
        <ele>106.7</ele>
        <time>2018-05-17T01:20:00Z</time>
      </trkpt>
      <trkpt lat="44.47219" lon="0.72917">
        <ele>106.9</ele>
        <time>2018-05-17T01:20:02Z</time>
      </trkpt>
      <trkpt lat="44.47216" lon="0.72914">
        <ele>106.9</ele>
        <time>2018-05-17T01:20:04Z</time>
      </trkpt>
      <trkpt lat="44.47212" lon="0.72908">
        <ele>107</ele>
        <time>2018-05-17T01:20:06Z</time>
      </trkpt>
      <trkpt lat="44.47209" lon="0.72903">
        <ele>107</ele>
        <time>2018-05-17T01:20:08Z</time>
      </trkpt>
      <trkpt lat="44.47207" lon="0.729">
        <ele>106.9</ele>
        <time>2018-05-17T01:20:09Z</time>
      </trkpt>
      <trkpt lat="44.47204" lon="0.72896">
        <ele>106.8</ele>
        <time>2018-05-17T01:20:11Z</time>
      </trkpt>
      <trkpt lat="44.47201" lon="0.72894">
        <ele>106.8</ele>
        <time>2018-05-17T01:20:12Z</time>
      </trkpt>
      <trkpt lat="44.47197" lon="0.72889">
        <ele>106.7</ele>
        <time>2018-05-17T01:20:14Z</time>
      </trkpt>
      <trkpt lat="44.47195" lon="0.72885">
        <ele>106.7</ele>
        <time>2018-05-17T01:20:16Z</time>
      </trkpt>
      <trkpt lat="44.47193" lon="0.72883">
        <ele>106.6</ele>
        <time>2018-05-17T01:20:18Z</time>
      </trkpt>
      <trkpt lat="44.4719" lon="0.7288">
        <ele>106.5</ele>
        <time>2018-05-17T01:20:20Z</time>
      </trkpt>
      <trkpt lat="44.47186" lon="0.72875">
        <ele>106.5</ele>
        <time>2018-05-17T01:20:22Z</time>
      </trkpt>
      <trkpt lat="44.47184" lon="0.72872">
        <ele>106.5</ele>
        <time>2018-05-17T01:20:23Z</time>
      </trkpt>
      <trkpt lat="44.47179" lon="0.72868">
        <ele>106.6</ele>
        <time>2018-05-17T01:20:25Z</time>
      </trkpt>
      <trkpt lat="44.47177" lon="0.72866">
        <ele>106.6</ele>
        <time>2018-05-17T01:20:26Z</time>
      </trkpt>
      <trkpt lat="44.47174" lon="0.72863">
        <ele>106.5</ele>
        <time>2018-05-17T01:20:27Z</time>
      </trkpt>
      <trkpt lat="44.47171" lon="0.7286">
        <ele>106.4</ele>
        <time>2018-05-17T01:20:28Z</time>
      </trkpt>
      <trkpt lat="44.47168" lon="0.72859">
        <ele>106.3</ele>
        <time>2018-05-17T01:20:29Z</time>
      </trkpt>
      <trkpt lat="44.47164" lon="0.7286">
        <ele>106.2</ele>
        <time>2018-05-17T01:20:30Z</time>
      </trkpt>
      <trkpt lat="44.47161" lon="0.72863">
        <ele>106.2</ele>
        <time>2018-05-17T01:20:31Z</time>
      </trkpt>
      <trkpt lat="44.4716" lon="0.72868">
        <ele>106.1</ele>
        <time>2018-05-17T01:20:32Z</time>
      </trkpt>
      <trkpt lat="44.4716" lon="0.72873">
        <ele>106.1</ele>
        <time>2018-05-17T01:20:33Z</time>
      </trkpt>
      <trkpt lat="44.47159" lon="0.72878">
        <ele>106.1</ele>
        <time>2018-05-17T01:20:34Z</time>
      </trkpt>
      <trkpt lat="44.47158" lon="0.72882">
        <ele>106.1</ele>
        <time>2018-05-17T01:20:35Z</time>
      </trkpt>
      <trkpt lat="44.47156" lon="0.72886">
        <ele>106.1</ele>
        <time>2018-05-17T01:20:37Z</time>
      </trkpt>
      <trkpt lat="44.4716" lon="0.72879">
        <ele>106.1</ele>
        <time>2018-05-17T01:21:04Z</time>
      </trkpt>
      <trkpt lat="44.4715" lon="0.72872">
        <ele>106</ele>
        <time>2018-05-17T01:21:28Z</time>
      </trkpt>
    </trkseg>
  </trk>
</gpx>